<?xml version='1.0' encoding='UTF-8'?><gpx version="1.1" creator="JPX - https://github.com/jenetics/jpx" xmlns="http://www.topografix.com/GPX/1/1"><trk><trkseg><trkpt lat="43.9431587" lon="10.914682"><ele>71.0</ele><time>2026-03-29T06:50:24.332Z</time></trkpt><trkpt lat="43.94316" lon="10.914805"><ele>71.0</ele><time>2026-03-29T06:54:54.309Z</time></trkpt><trkpt lat="43.943165" lon="10.9149167"><ele>71.0</ele><time>2026-03-29T06:54:56.309Z</time></trkpt><trkpt lat="43.9431683" lon="10.915035"><ele>71.0</ele><time>2026-03-29T06:54:59.309Z</time></trkpt><trkpt lat="43.9431733" lon="10.915135"><ele>71.0</ele><time>2026-03-29T06:55:03.311Z</time></trkpt><trkpt lat="43.9431767" lon="10.9152267"><ele>71.0</ele><time>2026-03-29T06:55:05.311Z</time></trkpt><trkpt lat="43.94318" lon="10.91533"><ele>71.28571428571428</ele><time>2026-03-29T06:55:09.309Z</time></trkpt><trkpt lat="43.943225" lon="10.9153967"><ele>71.57142857142857</ele><time>2026-03-29T06:55:31.309Z</time></trkpt><trkpt lat="43.9431683" lon="10.9154483"><ele>71.85714285714286</ele><time>2026-03-29T06:55:36.308Z</time></trkpt><trkpt lat="43.94316" lon="10.9155567"><ele>72.14285714285714</ele><time>2026-03-29T06:55:40.308Z</time></trkpt><trkpt lat="43.9431683" lon="10.9156467"><ele>72.42857142857143</ele><time>2026-03-29T06:55:43.309Z</time></trkpt><trkpt lat="43.9431667" lon="10.9157433"><ele>72.71428571428571</ele><time>2026-03-29T06:55:46.309Z</time></trkpt><trkpt lat="43.9431667" lon="10.9158317"><ele>73.0</ele><time>2026-03-29T06:55:49.307Z</time></trkpt><trkpt lat="43.9431083" lon="10.9158683"><ele>73.0</ele><time>2026-03-29T06:56:20.307Z</time></trkpt><trkpt lat="43.9431633" lon="10.9158183"><ele>73.0</ele><time>2026-03-29T06:57:27.309Z</time></trkpt><trkpt lat="43.9431867" lon="10.91573"><ele>73.0</ele><time>2026-03-29T06:57:29.309Z</time></trkpt><trkpt lat="43.943195" lon="10.9156167"><ele>73.0</ele><time>2026-03-29T06:57:31.31Z</time></trkpt><trkpt lat="43.9432" lon="10.91551"><ele>73.0</ele><time>2026-03-29T06:57:33.309Z</time></trkpt><trkpt lat="43.9431917" lon="10.9154083"><ele>73.0</ele><time>2026-03-29T06:57:35.309Z</time></trkpt><trkpt lat="43.943185" lon="10.915315"><ele>73.0</ele><time>2026-03-29T06:57:37.309Z</time></trkpt><trkpt lat="43.9431817" lon="10.9152067"><ele>73.0</ele><time>2026-03-29T06:57:39.31Z</time></trkpt><trkpt lat="43.9431767" lon="10.9150983"><ele>73.0</ele><time>2026-03-29T06:57:42.311Z</time></trkpt><trkpt lat="43.9431233" lon="10.91515"><ele>73.0</ele><time>2026-03-29T07:05:19.309Z</time></trkpt><trkpt lat="43.94314" lon="10.9152467"><ele>73.0</ele><time>2026-03-29T07:05:22.31Z</time></trkpt><trkpt lat="43.9431433" lon="10.91537"><ele>73.0</ele><time>2026-03-29T07:05:25.311Z</time></trkpt><trkpt lat="43.9431433" lon="10.9154933"><ele>73.0</ele><time>2026-03-29T07:05:28.31Z</time></trkpt><trkpt lat="43.9431417" lon="10.9155817"><ele>73.0</ele><time>2026-03-29T07:05:30.31Z</time></trkpt><trkpt lat="43.94314" lon="10.9156967"><ele>73.0</ele><time>2026-03-29T07:05:33.31Z</time></trkpt><trkpt lat="43.9431383" lon="10.9157933"><ele>73.0</ele><time>2026-03-29T07:05:36.312Z</time></trkpt><trkpt lat="43.943135" lon="10.9158883"><ele>73.0</ele><time>2026-03-29T07:05:39.309Z</time></trkpt><trkpt lat="43.94319" lon="10.9159517"><ele>73.0</ele><time>2026-03-29T07:05:42.31Z</time></trkpt><trkpt lat="43.9434217" lon="10.9159667"><ele>73.33333333333333</ele><time>2026-03-29T07:05:48.31Z</time></trkpt><trkpt lat="43.9434767" lon="10.9160233"><ele>73.66666666666666</ele><time>2026-03-29T07:05:50.31Z</time></trkpt><trkpt lat="43.9435033" lon="10.916135"><ele>74.0</ele><time>2026-03-29T07:05:52.31Z</time></trkpt><trkpt lat="43.943505" lon="10.9162667"><ele>74.33333333333333</ele><time>2026-03-29T07:05:54.31Z</time></trkpt><trkpt lat="43.9435" lon="10.9163983"><ele>74.66666666666667</ele><time>2026-03-29T07:05:56.31Z</time></trkpt><trkpt lat="43.9434917" lon="10.9165217"><ele>75.0</ele><time>2026-03-29T07:05:58.31Z</time></trkpt><trkpt lat="43.94349" lon="10.9166517"><ele>75.16666666666667</ele><time>2026-03-29T07:06:00.31Z</time></trkpt><trkpt lat="43.943485" lon="10.9167883"><ele>75.33333333333333</ele><time>2026-03-29T07:06:02.312Z</time></trkpt><trkpt lat="43.94347" lon="10.9168733"><ele>75.5</ele><time>2026-03-29T07:06:03.309Z</time></trkpt><trkpt lat="43.943455" lon="10.9170317"><ele>75.66666666666666</ele><time>2026-03-29T07:06:05.309Z</time></trkpt><trkpt lat="43.9434517" lon="10.9171233"><ele>75.83333333333333</ele><time>2026-03-29T07:06:06.311Z</time></trkpt><trkpt lat="43.9434467" lon="10.9172117"><ele>76.0</ele><time>2026-03-29T07:06:07.311Z</time></trkpt><trkpt lat="43.9434317" lon="10.9173833"><ele>76.0</ele><time>2026-03-29T07:06:09.308Z</time></trkpt><trkpt lat="43.943425" lon="10.9174717"><ele>76.0</ele><time>2026-03-29T07:06:10.31Z</time></trkpt><trkpt lat="43.9434233" lon="10.9175667"><ele>76.0</ele><time>2026-03-29T07:06:11.309Z</time></trkpt><trkpt lat="43.9434183" lon="10.9176667"><ele>76.0</ele><time>2026-03-29T07:06:12.31Z</time></trkpt><trkpt lat="43.9434183" lon="10.9177667"><ele>76.0</ele><time>2026-03-29T07:06:13.31Z</time></trkpt><trkpt lat="43.943415" lon="10.9178617"><ele>76.0</ele><time>2026-03-29T07:06:14.31Z</time></trkpt><trkpt lat="43.94342" lon="10.9179517"><ele>76.0</ele><time>2026-03-29T07:06:15.309Z</time></trkpt><trkpt lat="43.9434233" lon="10.91804"><ele>76.0</ele><time>2026-03-29T07:06:16.312Z</time></trkpt><trkpt lat="43.9434233" lon="10.9181283"><ele>76.0</ele><time>2026-03-29T07:06:17.31Z</time></trkpt><trkpt lat="43.9434233" lon="10.9182183"><ele>76.0</ele><time>2026-03-29T07:06:18.31Z</time></trkpt><trkpt lat="43.9434233" lon="10.9183067"><ele>76.0</ele><time>2026-03-29T07:06:19.31Z</time></trkpt><trkpt lat="43.9434267" lon="10.9183967"><ele>76.0</ele><time>2026-03-29T07:06:20.311Z</time></trkpt><trkpt lat="43.9434333" lon="10.9185683"><ele>76.0</ele><time>2026-03-29T07:06:22.309Z</time></trkpt><trkpt lat="43.94344" lon="10.9187433"><ele>76.0</ele><time>2026-03-29T07:06:24.309Z</time></trkpt><trkpt lat="43.9434467" lon="10.9188333"><ele>76.0</ele><time>2026-03-29T07:06:25.311Z</time></trkpt><trkpt lat="43.9434567" lon="10.9189233"><ele>76.0</ele><time>2026-03-29T07:06:26.31Z</time></trkpt><trkpt lat="43.9434717" lon="10.919015"><ele>76.0</ele><time>2026-03-29T07:06:27.31Z</time></trkpt><trkpt lat="43.9434933" lon="10.9191"><ele>76.0</ele><time>2026-03-29T07:06:28.31Z</time></trkpt><trkpt lat="43.9435283" lon="10.91926"><ele>76.0</ele><time>2026-03-29T07:06:30.31Z</time></trkpt><trkpt lat="43.9435467" lon="10.9194233"><ele>76.0</ele><time>2026-03-29T07:06:32.311Z</time></trkpt><trkpt lat="43.9435533" lon="10.9195917"><ele>76.0</ele><time>2026-03-29T07:06:34.309Z</time></trkpt><trkpt lat="43.9435767" lon="10.91975"><ele>76.0</ele><time>2026-03-29T07:06:36.31Z</time></trkpt><trkpt lat="43.9436233" lon="10.91991"><ele>76.0</ele><time>2026-03-29T07:06:38.31Z</time></trkpt><trkpt lat="43.94366" lon="10.9200783"><ele>76.0</ele><time>2026-03-29T07:06:40.31Z</time></trkpt><trkpt lat="43.94368" lon="10.920245"><ele>76.0</ele><time>2026-03-29T07:06:42.308Z</time></trkpt><trkpt lat="43.9436867" lon="10.9204183"><ele>76.0</ele><time>2026-03-29T07:06:44.309Z</time></trkpt><trkpt lat="43.943695" lon="10.9205917"><ele>76.0</ele><time>2026-03-29T07:06:46.31Z</time></trkpt><trkpt lat="43.9437" lon="10.92068"><ele>76.0</ele><time>2026-03-29T07:06:47.309Z</time></trkpt><trkpt lat="43.9437067" lon="10.92077"><ele>76.33333333333333</ele><time>2026-03-29T07:06:48.309Z</time></trkpt><trkpt lat="43.9437167" lon="10.920945"><ele>76.66666666666666</ele><time>2026-03-29T07:06:50.31Z</time></trkpt><trkpt lat="43.9437217" lon="10.9210333"><ele>77.0</ele><time>2026-03-29T07:06:51.309Z</time></trkpt><trkpt lat="43.9437283" lon="10.9211217"><ele>77.33333333333333</ele><time>2026-03-29T07:06:52.31Z</time></trkpt><trkpt lat="43.94374" lon="10.9212083"><ele>77.66666666666667</ele><time>2026-03-29T07:06:53.31Z</time></trkpt><trkpt lat="43.9437683" lon="10.9213"><ele>78.0</ele><time>2026-03-29T07:06:54.309Z</time></trkpt><trkpt lat="43.9437683" lon="10.9214733"><ele>78.0</ele><time>2026-03-29T07:06:56.312Z</time></trkpt><trkpt lat="43.943765" lon="10.9216383"><ele>78.0</ele><time>2026-03-29T07:06:58.308Z</time></trkpt><trkpt lat="43.9437617" lon="10.9218117"><ele>78.0</ele><time>2026-03-29T07:07:00.309Z</time></trkpt><trkpt lat="43.94376" lon="10.9219167"><ele>78.0</ele><time>2026-03-29T07:07:01.309Z</time></trkpt><trkpt lat="43.9437517" lon="10.9220233"><ele>78.0</ele><time>2026-03-29T07:07:02.311Z</time></trkpt><trkpt lat="43.9437433" lon="10.9221367"><ele>77.5</ele><time>2026-03-29T07:07:03.309Z</time></trkpt><trkpt lat="43.9437333" lon="10.92225"><ele>77.0</ele><time>2026-03-29T07:07:04.312Z</time></trkpt><trkpt lat="43.943715" lon="10.922365"><ele>76.5</ele><time>2026-03-29T07:07:05.309Z</time></trkpt><trkpt lat="43.9437033" lon="10.9224817"><ele>76.0</ele><time>2026-03-29T07:07:06.309Z</time></trkpt><trkpt lat="43.9436967" lon="10.9225917"><ele>75.5</ele><time>2026-03-29T07:07:07.309Z</time></trkpt><trkpt lat="43.943685" lon="10.9227017"><ele>75.0</ele><time>2026-03-29T07:07:08.31Z</time></trkpt><trkpt lat="43.94368" lon="10.9228067"><ele>74.66666666666667</ele><time>2026-03-29T07:07:09.311Z</time></trkpt><trkpt lat="43.943675" lon="10.9229117"><ele>74.33333333333333</ele><time>2026-03-29T07:07:10.309Z</time></trkpt><trkpt lat="43.9436717" lon="10.9230167"><ele>74.0</ele><time>2026-03-29T07:07:11.311Z</time></trkpt><trkpt lat="43.9436667" lon="10.9231233"><ele>73.66666666666666</ele><time>2026-03-29T07:07:12.309Z</time></trkpt><trkpt lat="43.9436633" lon="10.9232333"><ele>73.33333333333333</ele><time>2026-03-29T07:07:13.311Z</time></trkpt><trkpt lat="43.9436633" lon="10.9233433"><ele>73.0</ele><time>2026-03-29T07:07:14.311Z</time></trkpt><trkpt lat="43.9436633" lon="10.9234533"><ele>73.0</ele><time>2026-03-29T07:07:15.309Z</time></trkpt><trkpt lat="43.9436633" lon="10.923565"><ele>73.0</ele><time>2026-03-29T07:07:16.31Z</time></trkpt><trkpt lat="43.9436667" lon="10.9236783"><ele>73.0</ele><time>2026-03-29T07:07:17.309Z</time></trkpt><trkpt lat="43.9436683" lon="10.923795"><ele>73.0</ele><time>2026-03-29T07:07:18.311Z</time></trkpt><trkpt lat="43.9436583" lon="10.92391"><ele>73.0</ele><time>2026-03-29T07:07:19.31Z</time></trkpt><trkpt lat="43.94364" lon="10.9240217"><ele>73.0</ele><time>2026-03-29T07:07:20.311Z</time></trkpt><trkpt lat="43.9436183" lon="10.9241333"><ele>73.0</ele><time>2026-03-29T07:07:21.311Z</time></trkpt><trkpt lat="43.9435917" lon="10.924245"><ele>73.0</ele><time>2026-03-29T07:07:22.309Z</time></trkpt><trkpt lat="43.94356" lon="10.9243433"><ele>73.0</ele><time>2026-03-29T07:07:23.312Z</time></trkpt><trkpt lat="43.9435133" lon="10.9244183"><ele>73.0</ele><time>2026-03-29T07:07:24.31Z</time></trkpt><trkpt lat="43.9434483" lon="10.924465"><ele>73.0</ele><time>2026-03-29T07:07:25.307Z</time></trkpt><trkpt lat="43.9433733" lon="10.92449"><ele>73.0</ele><time>2026-03-29T07:07:26.31Z</time></trkpt><trkpt lat="43.9432967" lon="10.924505"><ele>73.0</ele><time>2026-03-29T07:07:27.309Z</time></trkpt><trkpt lat="43.9432217" lon="10.9245167"><ele>73.0</ele><time>2026-03-29T07:07:28.308Z</time></trkpt><trkpt lat="43.9431467" lon="10.9245317"><ele>73.0</ele><time>2026-03-29T07:07:29.31Z</time></trkpt><trkpt lat="43.94307" lon="10.924545"><ele>73.0</ele><time>2026-03-29T07:07:30.31Z</time></trkpt><trkpt lat="43.9429917" lon="10.9245583"><ele>73.0</ele><time>2026-03-29T07:07:31.31Z</time></trkpt><trkpt lat="43.9429117" lon="10.9245733"><ele>73.0</ele><time>2026-03-29T07:07:32.311Z</time></trkpt><trkpt lat="43.94283" lon="10.92459"><ele>73.0</ele><time>2026-03-29T07:07:33.31Z</time></trkpt><trkpt lat="43.94275" lon="10.924605"><ele>73.0</ele><time>2026-03-29T07:07:34.31Z</time></trkpt><trkpt lat="43.94267" lon="10.9246283"><ele>73.0</ele><time>2026-03-29T07:07:35.309Z</time></trkpt><trkpt lat="43.9425917" lon="10.9246483"><ele>73.0</ele><time>2026-03-29T07:07:36.309Z</time></trkpt><trkpt lat="43.9425117" lon="10.924675"><ele>73.0</ele><time>2026-03-29T07:07:37.31Z</time></trkpt><trkpt lat="43.9424317" lon="10.924705"><ele>73.0</ele><time>2026-03-29T07:07:38.31Z</time></trkpt><trkpt lat="43.9423533" lon="10.924745"><ele>72.83333333333333</ele><time>2026-03-29T07:07:39.311Z</time></trkpt><trkpt lat="43.94228" lon="10.92479"><ele>72.66666666666666</ele><time>2026-03-29T07:07:40.309Z</time></trkpt><trkpt lat="43.94221" lon="10.92485"><ele>72.5</ele><time>2026-03-29T07:07:41.31Z</time></trkpt><trkpt lat="43.9421467" lon="10.92492"><ele>72.33333333333333</ele><time>2026-03-29T07:07:42.31Z</time></trkpt><trkpt lat="43.942085" lon="10.9249917"><ele>72.16666666666667</ele><time>2026-03-29T07:07:43.309Z</time></trkpt><trkpt lat="43.9420283" lon="10.9250633"><ele>72.0</ele><time>2026-03-29T07:07:44.311Z</time></trkpt><trkpt lat="43.9419767" lon="10.925135"><ele>71.83333333333333</ele><time>2026-03-29T07:07:45.31Z</time></trkpt><trkpt lat="43.9419267" lon="10.9252017"><ele>71.66666666666667</ele><time>2026-03-29T07:07:46.31Z</time></trkpt><trkpt lat="43.9418817" lon="10.9252633"><ele>71.5</ele><time>2026-03-29T07:07:47.309Z</time></trkpt><trkpt lat="43.9418367" lon="10.92533"><ele>71.33333333333334</ele><time>2026-03-29T07:07:48.31Z</time></trkpt><trkpt lat="43.9417367" lon="10.9254383"><ele>71.16666666666667</ele><time>2026-03-29T07:07:50.311Z</time></trkpt><trkpt lat="43.9416767" lon="10.9254717"><ele>71.0</ele><time>2026-03-29T07:07:51.31Z</time></trkpt><trkpt lat="43.9416117" lon="10.9254883"><ele>70.71428571428571</ele><time>2026-03-29T07:07:52.312Z</time></trkpt><trkpt lat="43.9415483" lon="10.9254883"><ele>70.42857142857142</ele><time>2026-03-29T07:07:53.311Z</time></trkpt><trkpt lat="43.941485" lon="10.9254733"><ele>70.14285714285714</ele><time>2026-03-29T07:07:54.31Z</time></trkpt><trkpt lat="43.94142" lon="10.925455"><ele>69.85714285714286</ele><time>2026-03-29T07:07:55.308Z</time></trkpt><trkpt lat="43.9413533" lon="10.9254383"><ele>69.57142857142858</ele><time>2026-03-29T07:07:56.31Z</time></trkpt><trkpt lat="43.941285" lon="10.92542"><ele>69.28571428571429</ele><time>2026-03-29T07:07:57.308Z</time></trkpt><trkpt lat="43.9412167" lon="10.925405"><ele>69.0</ele><time>2026-03-29T07:07:58.309Z</time></trkpt><trkpt lat="43.9411517" lon="10.9253967"><ele>69.0</ele><time>2026-03-29T07:07:59.31Z</time></trkpt><trkpt lat="43.941085" lon="10.9253933"><ele>69.0</ele><time>2026-03-29T07:08:00.308Z</time></trkpt><trkpt lat="43.9410183" lon="10.9253917"><ele>69.0</ele><time>2026-03-29T07:08:01.311Z</time></trkpt><trkpt lat="43.9409517" lon="10.92539"><ele>69.0</ele><time>2026-03-29T07:08:02.31Z</time></trkpt><trkpt lat="43.940885" lon="10.9253883"><ele>69.0</ele><time>2026-03-29T07:08:03.307Z</time></trkpt><trkpt lat="43.9408167" lon="10.9253867"><ele>69.0</ele><time>2026-03-29T07:08:04.309Z</time></trkpt><trkpt lat="43.9407467" lon="10.92538"><ele>69.0</ele><time>2026-03-29T07:08:05.312Z</time></trkpt><trkpt lat="43.9406767" lon="10.92537"><ele>68.85714285714286</ele><time>2026-03-29T07:08:06.311Z</time></trkpt><trkpt lat="43.9406083" lon="10.9253617"><ele>68.71428571428572</ele><time>2026-03-29T07:08:07.311Z</time></trkpt><trkpt lat="43.94054" lon="10.925355"><ele>68.57142857142857</ele><time>2026-03-29T07:08:08.309Z</time></trkpt><trkpt lat="43.94047" lon="10.92535"><ele>68.42857142857143</ele><time>2026-03-29T07:08:09.308Z</time></trkpt><trkpt lat="43.9404017" lon="10.9253517"><ele>68.28571428571428</ele><time>2026-03-29T07:08:10.311Z</time></trkpt><trkpt lat="43.9403317" lon="10.9253683"><ele>68.14285714285714</ele><time>2026-03-29T07:08:11.31Z</time></trkpt><trkpt lat="43.9402633" lon="10.9254"><ele>68.0</ele><time>2026-03-29T07:08:12.311Z</time></trkpt><trkpt lat="43.9401983" lon="10.9254333"><ele>68.0</ele><time>2026-03-29T07:08:13.311Z</time></trkpt><trkpt lat="43.940135" lon="10.9254733"><ele>68.0</ele><time>2026-03-29T07:08:14.311Z</time></trkpt><trkpt lat="43.9400783" lon="10.9255183"><ele>68.0</ele><time>2026-03-29T07:08:15.308Z</time></trkpt><trkpt lat="43.94002" lon="10.92556"><ele>68.0</ele><time>2026-03-29T07:08:16.312Z</time></trkpt><trkpt lat="43.939925" lon="10.9256533"><ele>68.0</ele><time>2026-03-29T07:08:18.308Z</time></trkpt><trkpt lat="43.9398533" lon="10.9257133"><ele>68.0</ele><time>2026-03-29T07:08:20.312Z</time></trkpt><trkpt lat="43.9397633" lon="10.9256933"><ele>68.0</ele><time>2026-03-29T07:08:23.309Z</time></trkpt><trkpt lat="43.9396983" lon="10.925625"><ele>68.0</ele><time>2026-03-29T07:08:25.309Z</time></trkpt><trkpt lat="43.93964" lon="10.9255417"><ele>68.0</ele><time>2026-03-29T07:08:27.312Z</time></trkpt><trkpt lat="43.9395833" lon="10.9254567"><ele>68.0</ele><time>2026-03-29T07:08:29.31Z</time></trkpt><trkpt lat="43.93952" lon="10.925395"><ele>68.0</ele><time>2026-03-29T07:08:31.312Z</time></trkpt><trkpt lat="43.9395683" lon="10.92548"><ele>68.0</ele><time>2026-03-29T07:08:38.311Z</time></trkpt><trkpt lat="43.9396133" lon="10.9255467"><ele>68.0</ele><time>2026-03-29T07:08:40.31Z</time></trkpt><trkpt lat="43.9396767" lon="10.9256217"><ele>68.0</ele><time>2026-03-29T07:08:42.309Z</time></trkpt><trkpt lat="43.9397533" lon="10.9256917"><ele>68.0</ele><time>2026-03-29T07:08:44.31Z</time></trkpt><trkpt lat="43.9398183" lon="10.9257783"><ele>68.0</ele><time>2026-03-29T07:08:46.31Z</time></trkpt><trkpt lat="43.9399167" lon="10.9258633"><ele>68.0</ele><time>2026-03-29T07:08:48.311Z</time></trkpt><trkpt lat="43.939975" lon="10.9259133"><ele>68.0</ele><time>2026-03-29T07:08:49.311Z</time></trkpt><trkpt lat="43.94003" lon="10.9259733"><ele>67.85714285714285</ele><time>2026-03-29T07:08:50.31Z</time></trkpt><trkpt lat="43.940085" lon="10.9260367"><ele>67.71428571428571</ele><time>2026-03-29T07:08:51.31Z</time></trkpt><trkpt lat="43.94014" lon="10.9261017"><ele>67.57142857142857</ele><time>2026-03-29T07:08:52.31Z</time></trkpt><trkpt lat="43.9401933" lon="10.9261667"><ele>67.42857142857142</ele><time>2026-03-29T07:08:53.308Z</time></trkpt><trkpt lat="43.9402467" lon="10.926235"><ele>67.28571428571428</ele><time>2026-03-29T07:08:54.309Z</time></trkpt><trkpt lat="43.9403" lon="10.9262983"><ele>67.14285714285714</ele><time>2026-03-29T07:08:55.31Z</time></trkpt><trkpt lat="43.94035" lon="10.9263533"><ele>67.0</ele><time>2026-03-29T07:08:56.31Z</time></trkpt><trkpt lat="43.94042" lon="10.926435"><ele>67.0</ele><time>2026-03-29T07:08:58.31Z</time></trkpt><trkpt lat="43.9404917" lon="10.9265017"><ele>67.0</ele><time>2026-03-29T07:09:01.312Z</time></trkpt><trkpt lat="43.9405433" lon="10.926605"><ele>67.0</ele><time>2026-03-29T07:09:04.309Z</time></trkpt><trkpt lat="43.940525" lon="10.9266933"><ele>67.0</ele><time>2026-03-29T07:09:06.309Z</time></trkpt><trkpt lat="43.94047" lon="10.9267917"><ele>67.0</ele><time>2026-03-29T07:09:09.308Z</time></trkpt><trkpt lat="43.9404283" lon="10.926875"><ele>67.0</ele><time>2026-03-29T07:09:12.309Z</time></trkpt><trkpt lat="43.940395" lon="10.9269683"><ele>67.0</ele><time>2026-03-29T07:09:15.311Z</time></trkpt><trkpt lat="43.9403533" lon="10.927085"><ele>67.0</ele><time>2026-03-29T07:09:18.308Z</time></trkpt><trkpt lat="43.9403383" lon="10.9271883"><ele>67.0</ele><time>2026-03-29T07:09:20.31Z</time></trkpt><trkpt lat="43.9403383" lon="10.9273233"><ele>67.0</ele><time>2026-03-29T07:09:22.311Z</time></trkpt><trkpt lat="43.9403483" lon="10.92746"><ele>67.0</ele><time>2026-03-29T07:09:24.31Z</time></trkpt><trkpt lat="43.9403583" lon="10.9275983"><ele>67.0</ele><time>2026-03-29T07:09:26.311Z</time></trkpt><trkpt lat="43.9403683" lon="10.9277433"><ele>67.0</ele><time>2026-03-29T07:09:28.311Z</time></trkpt><trkpt lat="43.9403767" lon="10.9278917"><ele>67.0</ele><time>2026-03-29T07:09:30.311Z</time></trkpt><trkpt lat="43.9403867" lon="10.9280433"><ele>67.0</ele><time>2026-03-29T07:09:32.311Z</time></trkpt><trkpt lat="43.940395" lon="10.92819"><ele>67.0</ele><time>2026-03-29T07:09:34.309Z</time></trkpt><trkpt lat="43.940405" lon="10.928335"><ele>67.4</ele><time>2026-03-29T07:09:36.308Z</time></trkpt><trkpt lat="43.94042" lon="10.92849"><ele>67.80000000000001</ele><time>2026-03-29T07:09:38.31Z</time></trkpt><trkpt lat="43.9404367" lon="10.9286433"><ele>68.2</ele><time>2026-03-29T07:09:40.31Z</time></trkpt><trkpt lat="43.9404533" lon="10.928795"><ele>68.60000000000001</ele><time>2026-03-29T07:09:42.31Z</time></trkpt><trkpt lat="43.9404683" lon="10.9289483"><ele>69.0</ele><time>2026-03-29T07:09:44.31Z</time></trkpt><trkpt lat="43.940475" lon="10.92911"><ele>69.0</ele><time>2026-03-29T07:09:46.31Z</time></trkpt><trkpt lat="43.9404767" lon="10.9292667"><ele>69.0</ele><time>2026-03-29T07:09:48.31Z</time></trkpt><trkpt lat="43.94049" lon="10.92943"><ele>69.0</ele><time>2026-03-29T07:09:50.312Z</time></trkpt><trkpt lat="43.9405" lon="10.9295917"><ele>69.0</ele><time>2026-03-29T07:09:52.309Z</time></trkpt><trkpt lat="43.94051" lon="10.9297533"><ele>69.0</ele><time>2026-03-29T07:09:54.309Z</time></trkpt><trkpt lat="43.9405167" lon="10.9299167"><ele>69.0</ele><time>2026-03-29T07:09:56.311Z</time></trkpt><trkpt lat="43.9405267" lon="10.9300817"><ele>69.0</ele><time>2026-03-29T07:09:58.312Z</time></trkpt><trkpt lat="43.9405317" lon="10.930235"><ele>69.0</ele><time>2026-03-29T07:10:00.309Z</time></trkpt><trkpt lat="43.9405367" lon="10.9303817"><ele>69.0</ele><time>2026-03-29T07:10:02.309Z</time></trkpt><trkpt lat="43.9405517" lon="10.9305467"><ele>69.0</ele><time>2026-03-29T07:10:04.31Z</time></trkpt><trkpt lat="43.9405633" lon="10.93064"><ele>69.0</ele><time>2026-03-29T07:10:05.311Z</time></trkpt><trkpt lat="43.9405733" lon="10.9307383"><ele>69.0</ele><time>2026-03-29T07:10:06.31Z</time></trkpt><trkpt lat="43.9405767" lon="10.930835"><ele>69.0</ele><time>2026-03-29T07:10:07.31Z</time></trkpt><trkpt lat="43.9405833" lon="10.93093"><ele>69.0</ele><time>2026-03-29T07:10:08.312Z</time></trkpt><trkpt lat="43.940595" lon="10.93102"><ele>69.66666666666667</ele><time>2026-03-29T07:10:09.31Z</time></trkpt><trkpt lat="43.940605" lon="10.9311083"><ele>70.33333333333333</ele><time>2026-03-29T07:10:10.31Z</time></trkpt><trkpt lat="43.9406117" lon="10.9311967"><ele>71.0</ele><time>2026-03-29T07:10:11.31Z</time></trkpt><trkpt lat="43.9406217" lon="10.93137"><ele>71.66666666666666</ele><time>2026-03-29T07:10:13.311Z</time></trkpt><trkpt lat="43.9406267" lon="10.9314583"><ele>72.33333333333333</ele><time>2026-03-29T07:10:14.309Z</time></trkpt><trkpt lat="43.940635" lon="10.9316283"><ele>73.0</ele><time>2026-03-29T07:10:16.311Z</time></trkpt><trkpt lat="43.9406333" lon="10.9317917"><ele>73.0</ele><time>2026-03-29T07:10:18.311Z</time></trkpt><trkpt lat="43.9406417" lon="10.9319617"><ele>73.0</ele><time>2026-03-29T07:10:20.31Z</time></trkpt><trkpt lat="43.9406533" lon="10.93214"><ele>73.0</ele><time>2026-03-29T07:10:22.309Z</time></trkpt><trkpt lat="43.9406567" lon="10.9322283"><ele>73.0</ele><time>2026-03-29T07:10:23.311Z</time></trkpt><trkpt lat="43.94066" lon="10.93232"><ele>73.0</ele><time>2026-03-29T07:10:24.311Z</time></trkpt><trkpt lat="43.9406667" lon="10.9324133"><ele>73.0</ele><time>2026-03-29T07:10:25.311Z</time></trkpt><trkpt lat="43.9406733" lon="10.9325067"><ele>72.85714285714286</ele><time>2026-03-29T07:10:26.31Z</time></trkpt><trkpt lat="43.94068" lon="10.9326"><ele>72.71428571428572</ele><time>2026-03-29T07:10:27.309Z</time></trkpt><trkpt lat="43.9406883" lon="10.932695"><ele>72.57142857142858</ele><time>2026-03-29T07:10:28.31Z</time></trkpt><trkpt lat="43.9407" lon="10.9327867"><ele>72.42857142857143</ele><time>2026-03-29T07:10:29.309Z</time></trkpt><trkpt lat="43.94071" lon="10.9328817"><ele>72.28571428571429</ele><time>2026-03-29T07:10:30.31Z</time></trkpt><trkpt lat="43.940715" lon="10.93298"><ele>72.14285714285715</ele><time>2026-03-29T07:10:31.31Z</time></trkpt><trkpt lat="43.9407183" lon="10.9330767"><ele>72.0</ele><time>2026-03-29T07:10:32.309Z</time></trkpt><trkpt lat="43.9407217" lon="10.9331717"><ele>72.0</ele><time>2026-03-29T07:10:33.311Z</time></trkpt><trkpt lat="43.9407283" lon="10.9332717"><ele>72.0</ele><time>2026-03-29T07:10:34.309Z</time></trkpt><trkpt lat="43.9407317" lon="10.93338"><ele>72.0</ele><time>2026-03-29T07:10:35.309Z</time></trkpt><trkpt lat="43.9407317" lon="10.9334967"><ele>72.0</ele><time>2026-03-29T07:10:36.31Z</time></trkpt><trkpt lat="43.9407333" lon="10.933615"><ele>72.0</ele><time>2026-03-29T07:10:37.312Z</time></trkpt><trkpt lat="43.9407367" lon="10.9337333"><ele>72.0</ele><time>2026-03-29T07:10:38.311Z</time></trkpt><trkpt lat="43.9407417" lon="10.9338533"><ele>72.33333333333333</ele><time>2026-03-29T07:10:39.309Z</time></trkpt><trkpt lat="43.9407517" lon="10.9339683"><ele>72.66666666666667</ele><time>2026-03-29T07:10:40.309Z</time></trkpt><trkpt lat="43.940755" lon="10.93408"><ele>73.0</ele><time>2026-03-29T07:10:41.311Z</time></trkpt><trkpt lat="43.94076" lon="10.9341883"><ele>73.33333333333334</ele><time>2026-03-29T07:10:42.311Z</time></trkpt><trkpt lat="43.9407683" lon="10.9342983"><ele>73.66666666666667</ele><time>2026-03-29T07:10:43.31Z</time></trkpt><trkpt lat="43.940775" lon="10.934405"><ele>74.0</ele><time>2026-03-29T07:10:44.311Z</time></trkpt><trkpt lat="43.94078" lon="10.9345117"><ele>74.16666666666667</ele><time>2026-03-29T07:10:45.31Z</time></trkpt><trkpt lat="43.9407867" lon="10.9346183"><ele>74.33333333333334</ele><time>2026-03-29T07:10:46.311Z</time></trkpt><trkpt lat="43.940795" lon="10.9347283"><ele>74.5</ele><time>2026-03-29T07:10:47.311Z</time></trkpt><trkpt lat="43.9408017" lon="10.9348383"><ele>74.66666666666667</ele><time>2026-03-29T07:10:48.31Z</time></trkpt><trkpt lat="43.9408067" lon="10.9349483"><ele>74.83333333333333</ele><time>2026-03-29T07:10:49.309Z</time></trkpt><trkpt lat="43.9408167" lon="10.9350617"><ele>75.0</ele><time>2026-03-29T07:10:50.311Z</time></trkpt><trkpt lat="43.94082" lon="10.93517"><ele>74.99999999999999</ele><time>2026-03-29T07:10:51.309Z</time></trkpt><trkpt lat="43.940825" lon="10.935275"><ele>75.0</ele><time>2026-03-29T07:10:52.31Z</time></trkpt><trkpt lat="43.940825" lon="10.935375"><ele>75.0</ele><time>2026-03-29T07:10:53.31Z</time></trkpt><trkpt lat="43.94082" lon="10.9354717"><ele>75.0</ele><time>2026-03-29T07:10:54.309Z</time></trkpt><trkpt lat="43.94082" lon="10.93557"><ele>75.0</ele><time>2026-03-29T07:10:55.312Z</time></trkpt><trkpt lat="43.94082" lon="10.9356733"><ele>74.99999999999999</ele><time>2026-03-29T07:10:56.311Z</time></trkpt><trkpt lat="43.94082" lon="10.9357767"><ele>75.0</ele><time>2026-03-29T07:10:57.309Z</time></trkpt><trkpt lat="43.9408133" lon="10.9358767"><ele>75.14285714285714</ele><time>2026-03-29T07:10:58.31Z</time></trkpt><trkpt lat="43.9408083" lon="10.9359733"><ele>75.28571428571428</ele><time>2026-03-29T07:10:59.31Z</time></trkpt><trkpt lat="43.9408067" lon="10.9360683"><ele>75.42857142857142</ele><time>2026-03-29T07:11:00.31Z</time></trkpt><trkpt lat="43.9408033" lon="10.9361617"><ele>75.57142857142857</ele><time>2026-03-29T07:11:01.311Z</time></trkpt><trkpt lat="43.9407883" lon="10.9362483"><ele>75.71428571428572</ele><time>2026-03-29T07:11:02.31Z</time></trkpt><trkpt lat="43.94075" lon="10.936325"><ele>75.85714285714285</ele><time>2026-03-29T07:11:03.309Z</time></trkpt><trkpt lat="43.94069" lon="10.93638"><ele>76.0</ele><time>2026-03-29T07:11:04.31Z</time></trkpt><trkpt lat="43.9406183" lon="10.9364217"><ele>76.0</ele><time>2026-03-29T07:11:05.309Z</time></trkpt><trkpt lat="43.9405383" lon="10.93645"><ele>76.0</ele><time>2026-03-29T07:11:06.309Z</time></trkpt><trkpt lat="43.9404617" lon="10.9364883"><ele>76.0</ele><time>2026-03-29T07:11:07.311Z</time></trkpt><trkpt lat="43.9403917" lon="10.9365417"><ele>76.0</ele><time>2026-03-29T07:11:08.31Z</time></trkpt><trkpt lat="43.94033" lon="10.936615"><ele>76.0</ele><time>2026-03-29T07:11:09.309Z</time></trkpt><trkpt lat="43.9402833" lon="10.9367067"><ele>76.0</ele><time>2026-03-29T07:11:10.31Z</time></trkpt><trkpt lat="43.9402583" lon="10.9368083"><ele>76.0</ele><time>2026-03-29T07:11:11.31Z</time></trkpt><trkpt lat="43.9402583" lon="10.9369167"><ele>76.0</ele><time>2026-03-29T07:11:12.311Z</time></trkpt><trkpt lat="43.9402783" lon="10.9370283"><ele>76.0</ele><time>2026-03-29T07:11:13.31Z</time></trkpt><trkpt lat="43.94032" lon="10.937125"><ele>76.0</ele><time>2026-03-29T07:11:14.31Z</time></trkpt><trkpt lat="43.940375" lon="10.9372033"><ele>76.0</ele><time>2026-03-29T07:11:15.309Z</time></trkpt><trkpt lat="43.9404433" lon="10.9372633"><ele>76.0</ele><time>2026-03-29T07:11:16.312Z</time></trkpt><trkpt lat="43.9405233" lon="10.9373083"><ele>76.0</ele><time>2026-03-29T07:11:17.311Z</time></trkpt><trkpt lat="43.940605" lon="10.937355"><ele>76.0</ele><time>2026-03-29T07:11:18.309Z</time></trkpt><trkpt lat="43.94068" lon="10.937415"><ele>76.0</ele><time>2026-03-29T07:11:19.31Z</time></trkpt><trkpt lat="43.9407433" lon="10.9374983"><ele>76.0</ele><time>2026-03-29T07:11:20.311Z</time></trkpt><trkpt lat="43.940785" lon="10.9376"><ele>76.0</ele><time>2026-03-29T07:11:21.309Z</time></trkpt><trkpt lat="43.9408017" lon="10.93771"><ele>76.0</ele><time>2026-03-29T07:11:22.312Z</time></trkpt><trkpt lat="43.940805" lon="10.9378283"><ele>75.83333333333333</ele><time>2026-03-29T07:11:23.309Z</time></trkpt><trkpt lat="43.9408033" lon="10.937945"><ele>75.66666666666666</ele><time>2026-03-29T07:11:24.31Z</time></trkpt><trkpt lat="43.9408017" lon="10.9380667"><ele>75.5</ele><time>2026-03-29T07:11:25.311Z</time></trkpt><trkpt lat="43.9408017" lon="10.9381867"><ele>75.33333333333333</ele><time>2026-03-29T07:11:26.31Z</time></trkpt><trkpt lat="43.9408033" lon="10.938305"><ele>75.16666666666667</ele><time>2026-03-29T07:11:27.308Z</time></trkpt><trkpt lat="43.9408083" lon="10.9384217"><ele>75.0</ele><time>2026-03-29T07:11:28.311Z</time></trkpt><trkpt lat="43.94081" lon="10.9385367"><ele>75.0</ele><time>2026-03-29T07:11:29.31Z</time></trkpt><trkpt lat="43.94081" lon="10.938655"><ele>75.0</ele><time>2026-03-29T07:11:30.311Z</time></trkpt><trkpt lat="43.9408067" lon="10.938775"><ele>75.0</ele><time>2026-03-29T07:11:31.309Z</time></trkpt><trkpt lat="43.940805" lon="10.9388967"><ele>75.0</ele><time>2026-03-29T07:11:32.311Z</time></trkpt><trkpt lat="43.940805" lon="10.9390167"><ele>75.0</ele><time>2026-03-29T07:11:33.312Z</time></trkpt><trkpt lat="43.940805" lon="10.9391383"><ele>75.0</ele><time>2026-03-29T07:11:34.31Z</time></trkpt><trkpt lat="43.9408033" lon="10.939265"><ele>75.0</ele><time>2026-03-29T07:11:35.311Z</time></trkpt><trkpt lat="43.940805" lon="10.9393867"><ele>75.0</ele><time>2026-03-29T07:11:36.31Z</time></trkpt><trkpt lat="43.940805" lon="10.939505"><ele>75.0</ele><time>2026-03-29T07:11:37.311Z</time></trkpt><trkpt lat="43.9408083" lon="10.93962"><ele>75.0</ele><time>2026-03-29T07:11:38.31Z</time></trkpt><trkpt lat="43.94081" lon="10.9397383"><ele>75.0</ele><time>2026-03-29T07:11:39.31Z</time></trkpt><trkpt lat="43.94081" lon="10.9398583"><ele>75.0</ele><time>2026-03-29T07:11:40.309Z</time></trkpt><trkpt lat="43.9408117" lon="10.9399733"><ele>74.83333333333333</ele><time>2026-03-29T07:11:41.309Z</time></trkpt><trkpt lat="43.9408183" lon="10.9400917"><ele>74.66666666666667</ele><time>2026-03-29T07:11:42.31Z</time></trkpt><trkpt lat="43.940825" lon="10.9402117"><ele>74.5</ele><time>2026-03-29T07:11:43.311Z</time></trkpt><trkpt lat="43.9408267" lon="10.9403267"><ele>74.33333333333334</ele><time>2026-03-29T07:11:44.31Z</time></trkpt><trkpt lat="43.9408283" lon="10.94044"><ele>74.16666666666667</ele><time>2026-03-29T07:11:45.309Z</time></trkpt><trkpt lat="43.9408283" lon="10.9405517"><ele>74.0</ele><time>2026-03-29T07:11:46.311Z</time></trkpt><trkpt lat="43.9408233" lon="10.9406633"><ele>74.0</ele><time>2026-03-29T07:11:47.31Z</time></trkpt><trkpt lat="43.9408133" lon="10.9407717"><ele>74.0</ele><time>2026-03-29T07:11:48.311Z</time></trkpt><trkpt lat="43.94079" lon="10.9408767"><ele>74.0</ele><time>2026-03-29T07:11:49.313Z</time></trkpt><trkpt lat="43.940755" lon="10.940975"><ele>74.0</ele><time>2026-03-29T07:11:50.311Z</time></trkpt><trkpt lat="43.94071" lon="10.9410617"><ele>74.0</ele><time>2026-03-29T07:11:51.309Z</time></trkpt><trkpt lat="43.9406733" lon="10.941145"><ele>74.0</ele><time>2026-03-29T07:11:52.314Z</time></trkpt><trkpt lat="43.94065" lon="10.94123"><ele>74.14285714285714</ele><time>2026-03-29T07:11:53.311Z</time></trkpt><trkpt lat="43.9406467" lon="10.9413217"><ele>74.28571428571428</ele><time>2026-03-29T07:11:54.31Z</time></trkpt><trkpt lat="43.94067" lon="10.9414033"><ele>74.42857142857142</ele><time>2026-03-29T07:11:55.311Z</time></trkpt><trkpt lat="43.940725" lon="10.9414733"><ele>74.57142857142857</ele><time>2026-03-29T07:11:56.311Z</time></trkpt><trkpt lat="43.9407933" lon="10.94153"><ele>74.71428571428571</ele><time>2026-03-29T07:11:57.311Z</time></trkpt><trkpt lat="43.9408533" lon="10.9415983"><ele>74.85714285714285</ele><time>2026-03-29T07:11:58.308Z</time></trkpt><trkpt lat="43.9408967" lon="10.9416917"><ele>75.0</ele><time>2026-03-29T07:11:59.311Z</time></trkpt><trkpt lat="43.9409167" lon="10.9418017"><ele>75.0</ele><time>2026-03-29T07:12:00.31Z</time></trkpt><trkpt lat="43.9409183" lon="10.9419133"><ele>75.0</ele><time>2026-03-29T07:12:01.31Z</time></trkpt><trkpt lat="43.940915" lon="10.942025"><ele>75.0</ele><time>2026-03-29T07:12:02.31Z</time></trkpt><trkpt lat="43.9409133" lon="10.9421333"><ele>75.0</ele><time>2026-03-29T07:12:03.309Z</time></trkpt><trkpt lat="43.9409133" lon="10.9422383"><ele>75.0</ele><time>2026-03-29T07:12:04.311Z</time></trkpt><trkpt lat="43.9409117" lon="10.9423417"><ele>75.0</ele><time>2026-03-29T07:12:05.311Z</time></trkpt><trkpt lat="43.9409083" lon="10.942445"><ele>75.42857142857142</ele><time>2026-03-29T07:12:06.31Z</time></trkpt><trkpt lat="43.9409017" lon="10.9425483"><ele>75.85714285714286</ele><time>2026-03-29T07:12:07.311Z</time></trkpt><trkpt lat="43.9408983" lon="10.9426533"><ele>76.28571428571428</ele><time>2026-03-29T07:12:08.312Z</time></trkpt><trkpt lat="43.9409033" lon="10.942755"><ele>76.71428571428571</ele><time>2026-03-29T07:12:09.308Z</time></trkpt><trkpt lat="43.9409083" lon="10.9428567"><ele>77.14285714285714</ele><time>2026-03-29T07:12:10.31Z</time></trkpt><trkpt lat="43.9409117" lon="10.94296"><ele>77.57142857142857</ele><time>2026-03-29T07:12:11.311Z</time></trkpt><trkpt lat="43.9409183" lon="10.9430617"><ele>78.0</ele><time>2026-03-29T07:12:12.311Z</time></trkpt><trkpt lat="43.9409267" lon="10.9431617"><ele>78.0</ele><time>2026-03-29T07:12:13.31Z</time></trkpt><trkpt lat="43.9409383" lon="10.9432633"><ele>78.0</ele><time>2026-03-29T07:12:14.311Z</time></trkpt><trkpt lat="43.9409483" lon="10.943365"><ele>78.0</ele><time>2026-03-29T07:12:15.309Z</time></trkpt><trkpt lat="43.9409583" lon="10.9434683"><ele>78.0</ele><time>2026-03-29T07:12:16.31Z</time></trkpt><trkpt lat="43.9409733" lon="10.94357"><ele>78.0</ele><time>2026-03-29T07:12:17.311Z</time></trkpt><trkpt lat="43.9409917" lon="10.9436717"><ele>78.0</ele><time>2026-03-29T07:12:18.309Z</time></trkpt><trkpt lat="43.9410183" lon="10.9437733"><ele>77.83333333333333</ele><time>2026-03-29T07:12:19.311Z</time></trkpt><trkpt lat="43.94104" lon="10.9438783"><ele>77.66666666666667</ele><time>2026-03-29T07:12:20.31Z</time></trkpt><trkpt lat="43.94106" lon="10.9439833"><ele>77.5</ele><time>2026-03-29T07:12:21.309Z</time></trkpt><trkpt lat="43.9410783" lon="10.9440883"><ele>77.33333333333334</ele><time>2026-03-29T07:12:22.31Z</time></trkpt><trkpt lat="43.9410967" lon="10.9441917"><ele>77.16666666666667</ele><time>2026-03-29T07:12:23.312Z</time></trkpt><trkpt lat="43.9411133" lon="10.9442983"><ele>77.0</ele><time>2026-03-29T07:12:24.31Z</time></trkpt><trkpt lat="43.9411317" lon="10.944405"><ele>76.83333333333334</ele><time>2026-03-29T07:12:25.311Z</time></trkpt><trkpt lat="43.9411467" lon="10.9445133"><ele>76.66666666666667</ele><time>2026-03-29T07:12:26.31Z</time></trkpt><trkpt lat="43.9411533" lon="10.944625"><ele>76.5</ele><time>2026-03-29T07:12:27.31Z</time></trkpt><trkpt lat="43.9411633" lon="10.944735"><ele>76.33333333333333</ele><time>2026-03-29T07:12:28.309Z</time></trkpt><trkpt lat="43.9411733" lon="10.9448467"><ele>76.16666666666666</ele><time>2026-03-29T07:12:29.31Z</time></trkpt><trkpt lat="43.941185" lon="10.9449617"><ele>76.0</ele><time>2026-03-29T07:12:30.312Z</time></trkpt><trkpt lat="43.94119" lon="10.9450783"><ele>76.33333333333333</ele><time>2026-03-29T07:12:31.311Z</time></trkpt><trkpt lat="43.941195" lon="10.945195"><ele>76.66666666666666</ele><time>2026-03-29T07:12:32.311Z</time></trkpt><trkpt lat="43.9412017" lon="10.9453133"><ele>77.0</ele><time>2026-03-29T07:12:33.309Z</time></trkpt><trkpt lat="43.9412083" lon="10.9454283"><ele>77.33333333333333</ele><time>2026-03-29T07:12:34.31Z</time></trkpt><trkpt lat="43.941215" lon="10.9455433"><ele>77.66666666666667</ele><time>2026-03-29T07:12:35.311Z</time></trkpt><trkpt lat="43.9412183" lon="10.9456567"><ele>78.0</ele><time>2026-03-29T07:12:36.311Z</time></trkpt><trkpt lat="43.9412217" lon="10.9457733"><ele>78.0</ele><time>2026-03-29T07:12:37.311Z</time></trkpt><trkpt lat="43.9412283" lon="10.94589"><ele>78.0</ele><time>2026-03-29T07:12:38.311Z</time></trkpt><trkpt lat="43.941235" lon="10.9460067"><ele>78.0</ele><time>2026-03-29T07:12:39.31Z</time></trkpt><trkpt lat="43.941235" lon="10.946125"><ele>78.0</ele><time>2026-03-29T07:12:40.311Z</time></trkpt><trkpt lat="43.9412367" lon="10.9462433"><ele>78.0</ele><time>2026-03-29T07:12:41.311Z</time></trkpt><trkpt lat="43.941235" lon="10.94636"><ele>78.0</ele><time>2026-03-29T07:12:42.31Z</time></trkpt><trkpt lat="43.9412383" lon="10.9464783"><ele>78.0</ele><time>2026-03-29T07:12:43.311Z</time></trkpt><trkpt lat="43.9412417" lon="10.9465967"><ele>78.0</ele><time>2026-03-29T07:12:44.31Z</time></trkpt><trkpt lat="43.94124" lon="10.9467167"><ele>78.0</ele><time>2026-03-29T07:12:45.31Z</time></trkpt><trkpt lat="43.941245" lon="10.946835"><ele>78.0</ele><time>2026-03-29T07:12:46.308Z</time></trkpt><trkpt lat="43.9412517" lon="10.946955"><ele>78.0</ele><time>2026-03-29T07:12:47.311Z</time></trkpt><trkpt lat="43.94125" lon="10.9470767"><ele>78.0</ele><time>2026-03-29T07:12:48.31Z</time></trkpt><trkpt lat="43.9412483" lon="10.947195"><ele>78.0</ele><time>2026-03-29T07:12:49.311Z</time></trkpt><trkpt lat="43.9412467" lon="10.947315"><ele>78.0</ele><time>2026-03-29T07:12:50.31Z</time></trkpt><trkpt lat="43.9412417" lon="10.9474367"><ele>78.0</ele><time>2026-03-29T07:12:51.31Z</time></trkpt><trkpt lat="43.941235" lon="10.9475583"><ele>78.0</ele><time>2026-03-29T07:12:52.309Z</time></trkpt><trkpt lat="43.9412317" lon="10.9476783"><ele>78.0</ele><time>2026-03-29T07:12:53.311Z</time></trkpt><trkpt lat="43.941225" lon="10.9478"><ele>78.0</ele><time>2026-03-29T07:12:54.31Z</time></trkpt><trkpt lat="43.9412183" lon="10.9479167"><ele>78.0</ele><time>2026-03-29T07:12:55.31Z</time></trkpt><trkpt lat="43.941215" lon="10.948035"><ele>78.0</ele><time>2026-03-29T07:12:56.313Z</time></trkpt><trkpt lat="43.94121" lon="10.9481567"><ele>78.0</ele><time>2026-03-29T07:12:57.309Z</time></trkpt><trkpt lat="43.9412067" lon="10.9482817"><ele>78.0</ele><time>2026-03-29T07:12:58.31Z</time></trkpt><trkpt lat="43.9412067" lon="10.94841"><ele>78.0</ele><time>2026-03-29T07:12:59.312Z</time></trkpt><trkpt lat="43.9412117" lon="10.9485367"><ele>78.0</ele><time>2026-03-29T07:13:00.311Z</time></trkpt><trkpt lat="43.941215" lon="10.9486633"><ele>78.16666666666667</ele><time>2026-03-29T07:13:01.31Z</time></trkpt><trkpt lat="43.941225" lon="10.9487883"><ele>78.33333333333333</ele><time>2026-03-29T07:13:02.311Z</time></trkpt><trkpt lat="43.9412283" lon="10.948915"><ele>78.5</ele><time>2026-03-29T07:13:03.31Z</time></trkpt><trkpt lat="43.9412317" lon="10.94904"><ele>78.66666666666666</ele><time>2026-03-29T07:13:04.311Z</time></trkpt><trkpt lat="43.941235" lon="10.9491633"><ele>78.83333333333333</ele><time>2026-03-29T07:13:05.312Z</time></trkpt><trkpt lat="43.94124" lon="10.949285"><ele>79.0</ele><time>2026-03-29T07:13:06.312Z</time></trkpt><trkpt lat="43.9412433" lon="10.9494083"><ele>79.16666666666666</ele><time>2026-03-29T07:13:07.31Z</time></trkpt><trkpt lat="43.94125" lon="10.94953"><ele>79.33333333333333</ele><time>2026-03-29T07:13:08.309Z</time></trkpt><trkpt lat="43.941255" lon="10.9496533"><ele>79.5</ele><time>2026-03-29T07:13:09.311Z</time></trkpt><trkpt lat="43.9412667" lon="10.949775"><ele>79.66666666666667</ele><time>2026-03-29T07:13:10.311Z</time></trkpt><trkpt lat="43.9412767" lon="10.9498967"><ele>79.83333333333334</ele><time>2026-03-29T07:13:11.311Z</time></trkpt><trkpt lat="43.9412867" lon="10.9500233"><ele>80.0</ele><time>2026-03-29T07:13:12.31Z</time></trkpt><trkpt lat="43.941295" lon="10.9501467"><ele>80.0</ele><time>2026-03-29T07:13:13.311Z</time></trkpt><trkpt lat="43.9413067" lon="10.9502717"><ele>80.0</ele><time>2026-03-29T07:13:14.309Z</time></trkpt><trkpt lat="43.9413167" lon="10.950395"><ele>80.0</ele><time>2026-03-29T07:13:15.308Z</time></trkpt><trkpt lat="43.9413283" lon="10.9505167"><ele>80.0</ele><time>2026-03-29T07:13:16.311Z</time></trkpt><trkpt lat="43.941335" lon="10.9506383"><ele>80.0</ele><time>2026-03-29T07:13:17.31Z</time></trkpt><trkpt lat="43.9413417" lon="10.9507617"><ele>80.0</ele><time>2026-03-29T07:13:18.31Z</time></trkpt><trkpt lat="43.94135" lon="10.95088"><ele>80.0</ele><time>2026-03-29T07:13:19.31Z</time></trkpt><trkpt lat="43.9413533" lon="10.9509983"><ele>80.0</ele><time>2026-03-29T07:13:20.312Z</time></trkpt><trkpt lat="43.9413583" lon="10.95111"><ele>80.0</ele><time>2026-03-29T07:13:21.309Z</time></trkpt><trkpt lat="43.9413617" lon="10.9512167"><ele>80.0</ele><time>2026-03-29T07:13:22.309Z</time></trkpt><trkpt lat="43.9413667" lon="10.9513183"><ele>80.0</ele><time>2026-03-29T07:13:23.311Z</time></trkpt><trkpt lat="43.941375" lon="10.95141"><ele>80.0</ele><time>2026-03-29T07:13:24.31Z</time></trkpt><trkpt lat="43.9413833" lon="10.95152"><ele>80.0</ele><time>2026-03-29T07:13:26.312Z</time></trkpt><trkpt lat="43.9413917" lon="10.9516067"><ele>80.0</ele><time>2026-03-29T07:13:29.309Z</time></trkpt><trkpt lat="43.9414017" lon="10.951695"><ele>80.0</ele><time>2026-03-29T07:13:47.311Z</time></trkpt><trkpt lat="43.9414033" lon="10.95179"><ele>80.0</ele><time>2026-03-29T07:13:50.31Z</time></trkpt><trkpt lat="43.9414083" lon="10.9519117"><ele>80.0</ele><time>2026-03-29T07:13:53.31Z</time></trkpt><trkpt lat="43.9414333" lon="10.9520267"><ele>80.0</ele><time>2026-03-29T07:13:55.31Z</time></trkpt><trkpt lat="43.94147" lon="10.95216"><ele>79.83333333333334</ele><time>2026-03-29T07:13:57.308Z</time></trkpt><trkpt lat="43.9415067" lon="10.9523083"><ele>79.66666666666667</ele><time>2026-03-29T07:13:59.31Z</time></trkpt><trkpt lat="43.9415217" lon="10.952395"><ele>79.5</ele><time>2026-03-29T07:14:00.312Z</time></trkpt><trkpt lat="43.9415383" lon="10.9524883"><ele>79.33333333333333</ele><time>2026-03-29T07:14:01.312Z</time></trkpt><trkpt lat="43.9415533" lon="10.9525867"><ele>79.16666666666666</ele><time>2026-03-29T07:14:02.31Z</time></trkpt><trkpt lat="43.941565" lon="10.9526867"><ele>79.0</ele><time>2026-03-29T07:14:03.31Z</time></trkpt><trkpt lat="43.94158" lon="10.9527883"><ele>79.00000000000001</ele><time>2026-03-29T07:14:04.311Z</time></trkpt><trkpt lat="43.9415917" lon="10.95289"><ele>79.0</ele><time>2026-03-29T07:14:05.309Z</time></trkpt><trkpt lat="43.9416017" lon="10.9529917"><ele>79.0</ele><time>2026-03-29T07:14:06.309Z</time></trkpt><trkpt lat="43.9416133" lon="10.953095"><ele>79.0</ele><time>2026-03-29T07:14:07.311Z</time></trkpt><trkpt lat="43.9416217" lon="10.9531967"><ele>79.0</ele><time>2026-03-29T07:14:08.311Z</time></trkpt><trkpt lat="43.941625" lon="10.9533"><ele>79.00000000000001</ele><time>2026-03-29T07:14:09.308Z</time></trkpt><trkpt lat="43.9416283" lon="10.9534"><ele>79.0</ele><time>2026-03-29T07:14:10.308Z</time></trkpt><trkpt lat="43.9416367" lon="10.9535017"><ele>78.83333333333333</ele><time>2026-03-29T07:14:11.312Z</time></trkpt><trkpt lat="43.941645" lon="10.9536033"><ele>78.66666666666666</ele><time>2026-03-29T07:14:12.31Z</time></trkpt><trkpt lat="43.9416567" lon="10.953705"><ele>78.5</ele><time>2026-03-29T07:14:13.31Z</time></trkpt><trkpt lat="43.94167" lon="10.95381"><ele>78.33333333333333</ele><time>2026-03-29T07:14:14.309Z</time></trkpt><trkpt lat="43.94168" lon="10.9539133"><ele>78.16666666666667</ele><time>2026-03-29T07:14:15.307Z</time></trkpt><trkpt lat="43.94169" lon="10.9540183"><ele>78.0</ele><time>2026-03-29T07:14:16.31Z</time></trkpt><trkpt lat="43.9417" lon="10.9541217"><ele>78.14285714285715</ele><time>2026-03-29T07:14:17.309Z</time></trkpt><trkpt lat="43.94171" lon="10.9542233"><ele>78.28571428571428</ele><time>2026-03-29T07:14:18.313Z</time></trkpt><trkpt lat="43.9417183" lon="10.954325"><ele>78.42857142857143</ele><time>2026-03-29T07:14:19.314Z</time></trkpt><trkpt lat="43.9417267" lon="10.9544267"><ele>78.57142857142858</ele><time>2026-03-29T07:14:20.309Z</time></trkpt><trkpt lat="43.9417333" lon="10.95453"><ele>78.71428571428572</ele><time>2026-03-29T07:14:21.309Z</time></trkpt><trkpt lat="43.94174" lon="10.954635"><ele>78.85714285714286</ele><time>2026-03-29T07:14:22.31Z</time></trkpt><trkpt lat="43.9417417" lon="10.9547417"><ele>79.0</ele><time>2026-03-29T07:14:23.311Z</time></trkpt><trkpt lat="43.9417417" lon="10.95485"><ele>79.5</ele><time>2026-03-29T07:14:24.311Z</time></trkpt><trkpt lat="43.9417417" lon="10.95496"><ele>80.0</ele><time>2026-03-29T07:14:25.311Z</time></trkpt><trkpt lat="43.9417417" lon="10.9550667"><ele>80.5</ele><time>2026-03-29T07:14:26.311Z</time></trkpt><trkpt lat="43.9417383" lon="10.9551717"><ele>81.0</ele><time>2026-03-29T07:14:27.31Z</time></trkpt><trkpt lat="43.941735" lon="10.9552733"><ele>81.5</ele><time>2026-03-29T07:14:28.311Z</time></trkpt><trkpt lat="43.9417317" lon="10.9553767"><ele>82.0</ele><time>2026-03-29T07:14:29.311Z</time></trkpt><trkpt lat="43.941725" lon="10.955475"><ele>81.85714285714285</ele><time>2026-03-29T07:14:30.311Z</time></trkpt><trkpt lat="43.94172" lon="10.955575"><ele>81.71428571428571</ele><time>2026-03-29T07:14:31.31Z</time></trkpt><trkpt lat="43.941715" lon="10.955675"><ele>81.57142857142857</ele><time>2026-03-29T07:14:32.31Z</time></trkpt><trkpt lat="43.9417083" lon="10.9557733"><ele>81.42857142857142</ele><time>2026-03-29T07:14:33.308Z</time></trkpt><trkpt lat="43.9417017" lon="10.955875"><ele>81.28571428571428</ele><time>2026-03-29T07:14:34.309Z</time></trkpt><trkpt lat="43.9416967" lon="10.9559767"><ele>81.14285714285714</ele><time>2026-03-29T07:14:35.31Z</time></trkpt><trkpt lat="43.9416933" lon="10.9560767"><ele>81.0</ele><time>2026-03-29T07:14:36.311Z</time></trkpt><trkpt lat="43.94169" lon="10.956165"><ele>81.83333333333333</ele><time>2026-03-29T07:14:37.308Z</time></trkpt><trkpt lat="43.9416833" lon="10.9562767"><ele>82.66666666666667</ele><time>2026-03-29T07:14:39.31Z</time></trkpt><trkpt lat="43.9416933" lon="10.956415"><ele>83.5</ele><time>2026-03-29T07:16:28.311Z</time></trkpt><trkpt lat="43.9416817" lon="10.9565433"><ele>84.33333333333334</ele><time>2026-03-29T07:16:31.311Z</time></trkpt><trkpt lat="43.9416717" lon="10.95666"><ele>85.16666666666667</ele><time>2026-03-29T07:16:33.309Z</time></trkpt><trkpt lat="43.9416583" lon="10.9567783"><ele>86.0</ele><time>2026-03-29T07:16:35.311Z</time></trkpt><trkpt lat="43.941645" lon="10.9569"><ele>86.4</ele><time>2026-03-29T07:16:37.31Z</time></trkpt><trkpt lat="43.941635" lon="10.9570333"><ele>86.8</ele><time>2026-03-29T07:16:39.309Z</time></trkpt><trkpt lat="43.941625" lon="10.9572033"><ele>87.2</ele><time>2026-03-29T07:16:41.31Z</time></trkpt><trkpt lat="43.9416233" lon="10.9573067"><ele>87.60000000000001</ele><time>2026-03-29T07:16:42.31Z</time></trkpt><trkpt lat="43.9416217" lon="10.957415"><ele>88.0</ele><time>2026-03-29T07:16:43.312Z</time></trkpt><trkpt lat="43.9416233" lon="10.9575267"><ele>88.0</ele><time>2026-03-29T07:16:44.312Z</time></trkpt><trkpt lat="43.94162" lon="10.95764"><ele>88.0</ele><time>2026-03-29T07:16:45.311Z</time></trkpt><trkpt lat="43.941615" lon="10.9577567"><ele>88.0</ele><time>2026-03-29T07:16:46.31Z</time></trkpt><trkpt lat="43.9416117" lon="10.957875"><ele>88.0</ele><time>2026-03-29T07:16:47.312Z</time></trkpt><trkpt lat="43.9416067" lon="10.9579883"><ele>88.0</ele><time>2026-03-29T07:16:48.309Z</time></trkpt><trkpt lat="43.9416033" lon="10.9581017"><ele>88.0</ele><time>2026-03-29T07:16:49.312Z</time></trkpt><trkpt lat="43.9415983" lon="10.9582133"><ele>88.0</ele><time>2026-03-29T07:16:50.31Z</time></trkpt><trkpt lat="43.9415917" lon="10.9583217"><ele>88.0</ele><time>2026-03-29T07:16:51.31Z</time></trkpt><trkpt lat="43.941585" lon="10.9584317"><ele>88.0</ele><time>2026-03-29T07:16:52.31Z</time></trkpt><trkpt lat="43.9415817" lon="10.95854"><ele>88.0</ele><time>2026-03-29T07:16:53.312Z</time></trkpt><trkpt lat="43.9415767" lon="10.9586467"><ele>88.0</ele><time>2026-03-29T07:16:54.31Z</time></trkpt><trkpt lat="43.9415717" lon="10.9587517"><ele>88.0</ele><time>2026-03-29T07:16:55.31Z</time></trkpt><trkpt lat="43.9415667" lon="10.95886"><ele>87.66666666666666</ele><time>2026-03-29T07:16:56.313Z</time></trkpt><trkpt lat="43.9415633" lon="10.9589667"><ele>87.33333333333333</ele><time>2026-03-29T07:16:57.31Z</time></trkpt><trkpt lat="43.941565" lon="10.9590767"><ele>87.0</ele><time>2026-03-29T07:16:58.31Z</time></trkpt><trkpt lat="43.9415717" lon="10.959185"><ele>86.66666666666667</ele><time>2026-03-29T07:16:59.313Z</time></trkpt><trkpt lat="43.94158" lon="10.9592933"><ele>86.33333333333334</ele><time>2026-03-29T07:17:00.311Z</time></trkpt><trkpt lat="43.9415933" lon="10.959405"><ele>86.0</ele><time>2026-03-29T07:17:01.312Z</time></trkpt><trkpt lat="43.9416133" lon="10.9595267"><ele>85.8</ele><time>2026-03-29T07:17:02.31Z</time></trkpt><trkpt lat="43.9416367" lon="10.95965"><ele>85.6</ele><time>2026-03-29T07:17:03.31Z</time></trkpt><trkpt lat="43.9416633" lon="10.9597733"><ele>85.4</ele><time>2026-03-29T07:17:04.309Z</time></trkpt><trkpt lat="43.9416883" lon="10.9599033"><ele>85.2</ele><time>2026-03-29T07:17:05.312Z</time></trkpt><trkpt lat="43.9417167" lon="10.96003"><ele>85.0</ele><time>2026-03-29T07:17:06.312Z</time></trkpt><trkpt lat="43.9417433" lon="10.96016"><ele>87.0</ele><time>2026-03-29T07:17:07.31Z</time></trkpt><trkpt lat="43.941775" lon="10.9602883"><ele>89.0</ele><time>2026-03-29T07:17:08.31Z</time></trkpt><trkpt lat="43.9418017" lon="10.960415"><ele>91.0</ele><time>2026-03-29T07:17:09.311Z</time></trkpt><trkpt lat="43.9418283" lon="10.9605383"><ele>93.0</ele><time>2026-03-29T07:17:10.311Z</time></trkpt><trkpt lat="43.9418533" lon="10.9606617"><ele>95.0</ele><time>2026-03-29T07:17:11.31Z</time></trkpt><trkpt lat="43.9418767" lon="10.9607817"><ele>94.66666666666667</ele><time>2026-03-29T07:17:12.311Z</time></trkpt><trkpt lat="43.9419" lon="10.9608983"><ele>94.33333333333334</ele><time>2026-03-29T07:17:13.313Z</time></trkpt><trkpt lat="43.9419267" lon="10.9610167"><ele>94.0</ele><time>2026-03-29T07:17:14.313Z</time></trkpt><trkpt lat="43.9419533" lon="10.9611333"><ele>93.66666666666667</ele><time>2026-03-29T07:17:15.31Z</time></trkpt><trkpt lat="43.94198" lon="10.96125"><ele>93.33333333333333</ele><time>2026-03-29T07:17:16.308Z</time></trkpt><trkpt lat="43.9420033" lon="10.9613683"><ele>93.0</ele><time>2026-03-29T07:17:17.31Z</time></trkpt><trkpt lat="43.942025" lon="10.961485"><ele>93.0</ele><time>2026-03-29T07:17:18.31Z</time></trkpt><trkpt lat="43.9420517" lon="10.9616033"><ele>93.0</ele><time>2026-03-29T07:17:19.311Z</time></trkpt><trkpt lat="43.94208" lon="10.96172"><ele>93.0</ele><time>2026-03-29T07:17:20.311Z</time></trkpt><trkpt lat="43.9421067" lon="10.9618333"><ele>93.0</ele><time>2026-03-29T07:17:21.311Z</time></trkpt><trkpt lat="43.9421333" lon="10.9619433"><ele>93.0</ele><time>2026-03-29T07:17:22.311Z</time></trkpt><trkpt lat="43.9421567" lon="10.9620517"><ele>93.0</ele><time>2026-03-29T07:17:23.31Z</time></trkpt><trkpt lat="43.9421767" lon="10.9621617"><ele>92.66666666666667</ele><time>2026-03-29T07:17:24.312Z</time></trkpt><trkpt lat="43.9422" lon="10.9622717"><ele>92.33333333333333</ele><time>2026-03-29T07:17:25.31Z</time></trkpt><trkpt lat="43.942225" lon="10.9623833"><ele>92.0</ele><time>2026-03-29T07:17:26.314Z</time></trkpt><trkpt lat="43.9422483" lon="10.9624967"><ele>91.66666666666666</ele><time>2026-03-29T07:17:27.308Z</time></trkpt><trkpt lat="43.9422717" lon="10.9626117"><ele>91.33333333333333</ele><time>2026-03-29T07:17:28.308Z</time></trkpt><trkpt lat="43.942295" lon="10.9627267"><ele>91.0</ele><time>2026-03-29T07:17:29.312Z</time></trkpt><trkpt lat="43.94232" lon="10.9628417"><ele>90.5</ele><time>2026-03-29T07:17:30.31Z</time></trkpt><trkpt lat="43.942345" lon="10.9629567"><ele>90.0</ele><time>2026-03-29T07:17:31.314Z</time></trkpt><trkpt lat="43.94237" lon="10.9630683"><ele>89.5</ele><time>2026-03-29T07:17:32.31Z</time></trkpt><trkpt lat="43.9423933" lon="10.9631817"><ele>89.0</ele><time>2026-03-29T07:17:33.311Z</time></trkpt><trkpt lat="43.9424183" lon="10.963295"><ele>88.5</ele><time>2026-03-29T07:17:34.31Z</time></trkpt><trkpt lat="43.942445" lon="10.9634083"><ele>88.0</ele><time>2026-03-29T07:17:35.312Z</time></trkpt><trkpt lat="43.9424683" lon="10.963525"><ele>87.5</ele><time>2026-03-29T07:17:36.312Z</time></trkpt><trkpt lat="43.9424917" lon="10.9636433"><ele>87.0</ele><time>2026-03-29T07:17:37.31Z</time></trkpt><trkpt lat="43.9425117" lon="10.9637633"><ele>86.5</ele><time>2026-03-29T07:17:38.31Z</time></trkpt><trkpt lat="43.9425317" lon="10.9638867"><ele>86.0</ele><time>2026-03-29T07:17:39.31Z</time></trkpt><trkpt lat="43.9425517" lon="10.96401"><ele>85.5</ele><time>2026-03-29T07:17:40.311Z</time></trkpt><trkpt lat="43.942575" lon="10.9641283"><ele>85.0</ele><time>2026-03-29T07:17:41.31Z</time></trkpt><trkpt lat="43.9426" lon="10.96425"><ele>86.8</ele><time>2026-03-29T07:17:42.311Z</time></trkpt><trkpt lat="43.9426217" lon="10.9643733"><ele>88.6</ele><time>2026-03-29T07:17:43.311Z</time></trkpt><trkpt lat="43.94265" lon="10.9645"><ele>90.4</ele><time>2026-03-29T07:17:44.31Z</time></trkpt><trkpt lat="43.94268" lon="10.9646217"><ele>92.2</ele><time>2026-03-29T07:17:45.311Z</time></trkpt><trkpt lat="43.9427033" lon="10.9647467"><ele>94.0</ele><time>2026-03-29T07:17:46.31Z</time></trkpt><trkpt lat="43.94273" lon="10.9648683"><ele>94.0</ele><time>2026-03-29T07:17:47.311Z</time></trkpt><trkpt lat="43.942755" lon="10.9649917"><ele>94.0</ele><time>2026-03-29T07:17:48.31Z</time></trkpt><trkpt lat="43.942775" lon="10.96512"><ele>94.0</ele><time>2026-03-29T07:17:49.311Z</time></trkpt><trkpt lat="43.9427833" lon="10.9652467"><ele>94.0</ele><time>2026-03-29T07:17:50.31Z</time></trkpt><trkpt lat="43.9427867" lon="10.9653733"><ele>94.0</ele><time>2026-03-29T07:17:51.31Z</time></trkpt><trkpt lat="43.9427833" lon="10.9655"><ele>94.2</ele><time>2026-03-29T07:17:52.31Z</time></trkpt><trkpt lat="43.9427717" lon="10.9656317"><ele>94.4</ele><time>2026-03-29T07:17:53.311Z</time></trkpt><trkpt lat="43.9427567" lon="10.9657633"><ele>94.6</ele><time>2026-03-29T07:17:54.31Z</time></trkpt><trkpt lat="43.9427417" lon="10.96589"><ele>94.8</ele><time>2026-03-29T07:17:55.31Z</time></trkpt><trkpt lat="43.9427267" lon="10.9660167"><ele>95.0</ele><time>2026-03-29T07:17:56.308Z</time></trkpt><trkpt lat="43.94271" lon="10.9661417"><ele>94.83333333333334</ele><time>2026-03-29T07:17:57.306Z</time></trkpt><trkpt lat="43.9426967" lon="10.966265"><ele>94.66666666666667</ele><time>2026-03-29T07:17:58.309Z</time></trkpt><trkpt lat="43.942685" lon="10.9663883"><ele>94.5</ele><time>2026-03-29T07:17:59.31Z</time></trkpt><trkpt lat="43.9426733" lon="10.96651"><ele>94.33333333333333</ele><time>2026-03-29T07:18:00.308Z</time></trkpt><trkpt lat="43.94266" lon="10.9666317"><ele>94.16666666666666</ele><time>2026-03-29T07:18:01.31Z</time></trkpt><trkpt lat="43.942645" lon="10.966755"><ele>94.0</ele><time>2026-03-29T07:18:02.309Z</time></trkpt><trkpt lat="43.9426283" lon="10.96688"><ele>94.0</ele><time>2026-03-29T07:18:03.31Z</time></trkpt><trkpt lat="43.942615" lon="10.967005"><ele>94.0</ele><time>2026-03-29T07:18:04.31Z</time></trkpt><trkpt lat="43.9426017" lon="10.9671317"><ele>94.0</ele><time>2026-03-29T07:18:05.309Z</time></trkpt><trkpt lat="43.9425817" lon="10.9672617"><ele>94.0</ele><time>2026-03-29T07:18:06.31Z</time></trkpt><trkpt lat="43.9425567" lon="10.9673933"><ele>94.0</ele><time>2026-03-29T07:18:07.31Z</time></trkpt><trkpt lat="43.9425233" lon="10.9675267"><ele>92.80000000000001</ele><time>2026-03-29T07:18:08.309Z</time></trkpt><trkpt lat="43.9424833" lon="10.96766"><ele>91.60000000000001</ele><time>2026-03-29T07:18:09.31Z</time></trkpt><trkpt lat="43.942435" lon="10.9677933"><ele>90.4</ele><time>2026-03-29T07:18:10.309Z</time></trkpt><trkpt lat="43.9423817" lon="10.9679217"><ele>89.2</ele><time>2026-03-29T07:18:11.309Z</time></trkpt><trkpt lat="43.9423267" lon="10.9680517"><ele>88.0</ele><time>2026-03-29T07:18:12.308Z</time></trkpt><trkpt lat="43.94227" lon="10.968185"><ele>88.0</ele><time>2026-03-29T07:18:13.309Z</time></trkpt><trkpt lat="43.9422183" lon="10.96832"><ele>88.0</ele><time>2026-03-29T07:18:14.307Z</time></trkpt><trkpt lat="43.94218" lon="10.96846"><ele>88.0</ele><time>2026-03-29T07:18:15.309Z</time></trkpt><trkpt lat="43.9421517" lon="10.968605"><ele>88.0</ele><time>2026-03-29T07:18:16.311Z</time></trkpt><trkpt lat="43.9421367" lon="10.9687533"><ele>88.0</ele><time>2026-03-29T07:18:17.312Z</time></trkpt><trkpt lat="43.942135" lon="10.9689017"><ele>88.0</ele><time>2026-03-29T07:18:18.309Z</time></trkpt><trkpt lat="43.9421383" lon="10.9690533"><ele>88.0</ele><time>2026-03-29T07:18:19.308Z</time></trkpt><trkpt lat="43.9421467" lon="10.9692017"><ele>88.0</ele><time>2026-03-29T07:18:20.309Z</time></trkpt><trkpt lat="43.942155" lon="10.969345"><ele>88.0</ele><time>2026-03-29T07:18:21.309Z</time></trkpt><trkpt lat="43.9421583" lon="10.9694867"><ele>88.0</ele><time>2026-03-29T07:18:22.308Z</time></trkpt><trkpt lat="43.9421667" lon="10.9696267"><ele>88.0</ele><time>2026-03-29T07:18:23.309Z</time></trkpt><trkpt lat="43.9421767" lon="10.9697667"><ele>88.0</ele><time>2026-03-29T07:18:24.309Z</time></trkpt><trkpt lat="43.9421933" lon="10.969905"><ele>88.0</ele><time>2026-03-29T07:18:25.309Z</time></trkpt><trkpt lat="43.942215" lon="10.9700417"><ele>88.0</ele><time>2026-03-29T07:18:26.31Z</time></trkpt><trkpt lat="43.9422467" lon="10.9701683"><ele>88.0</ele><time>2026-03-29T07:18:27.31Z</time></trkpt><trkpt lat="43.94229" lon="10.9702883"><ele>88.0</ele><time>2026-03-29T07:18:28.31Z</time></trkpt><trkpt lat="43.9423383" lon="10.970405"><ele>88.0</ele><time>2026-03-29T07:18:29.308Z</time></trkpt><trkpt lat="43.9423933" lon="10.970515"><ele>88.0</ele><time>2026-03-29T07:18:30.309Z</time></trkpt><trkpt lat="43.942455" lon="10.97062"><ele>88.0</ele><time>2026-03-29T07:18:31.309Z</time></trkpt><trkpt lat="43.9425133" lon="10.9707233"><ele>88.0</ele><time>2026-03-29T07:18:32.31Z</time></trkpt><trkpt lat="43.9425683" lon="10.970825"><ele>88.60000000000001</ele><time>2026-03-29T07:18:33.309Z</time></trkpt><trkpt lat="43.9426217" lon="10.9709283"><ele>89.2</ele><time>2026-03-29T07:18:34.308Z</time></trkpt><trkpt lat="43.94267" lon="10.9710383"><ele>89.8</ele><time>2026-03-29T07:18:35.311Z</time></trkpt><trkpt lat="43.94271" lon="10.9711533"><ele>90.4</ele><time>2026-03-29T07:18:36.309Z</time></trkpt><trkpt lat="43.94274" lon="10.9712783"><ele>91.0</ele><time>2026-03-29T07:18:37.309Z</time></trkpt><trkpt lat="43.9427583" lon="10.97141"><ele>91.0</ele><time>2026-03-29T07:18:38.309Z</time></trkpt><trkpt lat="43.94277" lon="10.9715367"><ele>91.0</ele><time>2026-03-29T07:18:39.308Z</time></trkpt><trkpt lat="43.9427733" lon="10.9716667"><ele>91.0</ele><time>2026-03-29T07:18:40.309Z</time></trkpt><trkpt lat="43.942775" lon="10.9718017"><ele>91.0</ele><time>2026-03-29T07:18:41.309Z</time></trkpt><trkpt lat="43.9427733" lon="10.971935"><ele>91.0</ele><time>2026-03-29T07:18:42.31Z</time></trkpt><trkpt lat="43.9427717" lon="10.9720683"><ele>91.0</ele><time>2026-03-29T07:18:43.309Z</time></trkpt><trkpt lat="43.9427667" lon="10.9722017"><ele>91.0</ele><time>2026-03-29T07:18:44.309Z</time></trkpt><trkpt lat="43.9427633" lon="10.9723367"><ele>91.0</ele><time>2026-03-29T07:18:45.308Z</time></trkpt><trkpt lat="43.94276" lon="10.9724717"><ele>91.0</ele><time>2026-03-29T07:18:46.309Z</time></trkpt><trkpt lat="43.9427567" lon="10.9726067"><ele>91.0</ele><time>2026-03-29T07:18:47.31Z</time></trkpt><trkpt lat="43.94275" lon="10.9727417"><ele>91.0</ele><time>2026-03-29T07:18:48.307Z</time></trkpt><trkpt lat="43.9427417" lon="10.9728733"><ele>91.0</ele><time>2026-03-29T07:18:49.309Z</time></trkpt><trkpt lat="43.9427333" lon="10.973005"><ele>91.0</ele><time>2026-03-29T07:18:50.311Z</time></trkpt><trkpt lat="43.942725" lon="10.973135"><ele>91.0</ele><time>2026-03-29T07:18:51.309Z</time></trkpt><trkpt lat="43.942715" lon="10.973265"><ele>91.0</ele><time>2026-03-29T07:18:52.309Z</time></trkpt><trkpt lat="43.9427033" lon="10.973395"><ele>91.19999999999999</ele><time>2026-03-29T07:18:53.309Z</time></trkpt><trkpt lat="43.9426867" lon="10.9735217"><ele>91.39999999999999</ele><time>2026-03-29T07:18:54.309Z</time></trkpt><trkpt lat="43.9426683" lon="10.97365"><ele>91.6</ele><time>2026-03-29T07:18:55.308Z</time></trkpt><trkpt lat="43.9426483" lon="10.9737783"><ele>91.8</ele><time>2026-03-29T07:18:56.309Z</time></trkpt><trkpt lat="43.9426283" lon="10.9739067"><ele>92.0</ele><time>2026-03-29T07:18:57.306Z</time></trkpt><trkpt lat="43.9426133" lon="10.9740367"><ele>92.0</ele><time>2026-03-29T07:18:58.309Z</time></trkpt><trkpt lat="43.9425983" lon="10.9741683"><ele>92.0</ele><time>2026-03-29T07:18:59.309Z</time></trkpt><trkpt lat="43.9425783" lon="10.9742967"><ele>92.0</ele><time>2026-03-29T07:19:00.308Z</time></trkpt><trkpt lat="43.9425583" lon="10.9744267"><ele>92.0</ele><time>2026-03-29T07:19:01.311Z</time></trkpt><trkpt lat="43.9425383" lon="10.9745567"><ele>92.0</ele><time>2026-03-29T07:19:02.309Z</time></trkpt><trkpt lat="43.94252" lon="10.974685"><ele>92.0</ele><time>2026-03-29T07:19:03.308Z</time></trkpt><trkpt lat="43.9425" lon="10.9748133"><ele>92.0</ele><time>2026-03-29T07:19:04.307Z</time></trkpt><trkpt lat="43.9424783" lon="10.974945"><ele>92.0</ele><time>2026-03-29T07:19:05.309Z</time></trkpt><trkpt lat="43.9424617" lon="10.9750783"><ele>92.0</ele><time>2026-03-29T07:19:06.308Z</time></trkpt><trkpt lat="43.942445" lon="10.9752083"><ele>92.0</ele><time>2026-03-29T07:19:07.31Z</time></trkpt><trkpt lat="43.942435" lon="10.9753333"><ele>92.0</ele><time>2026-03-29T07:19:08.31Z</time></trkpt><trkpt lat="43.94243" lon="10.97546"><ele>92.0</ele><time>2026-03-29T07:19:09.307Z</time></trkpt><trkpt lat="43.9424317" lon="10.975585"><ele>92.0</ele><time>2026-03-29T07:19:10.307Z</time></trkpt><trkpt lat="43.9424383" lon="10.97571"><ele>92.0</ele><time>2026-03-29T07:19:11.31Z</time></trkpt><trkpt lat="43.9424517" lon="10.9758383"><ele>92.0</ele><time>2026-03-29T07:19:12.31Z</time></trkpt><trkpt lat="43.9424667" lon="10.9759633"><ele>91.6</ele><time>2026-03-29T07:19:13.309Z</time></trkpt><trkpt lat="43.942485" lon="10.9760917"><ele>91.19999999999999</ele><time>2026-03-29T07:19:14.31Z</time></trkpt><trkpt lat="43.942505" lon="10.97622"><ele>90.8</ele><time>2026-03-29T07:19:15.311Z</time></trkpt><trkpt lat="43.9425233" lon="10.97635"><ele>90.4</ele><time>2026-03-29T07:19:16.309Z</time></trkpt><trkpt lat="43.942545" lon="10.9764833"><ele>90.0</ele><time>2026-03-29T07:19:17.311Z</time></trkpt><trkpt lat="43.9425667" lon="10.9766133"><ele>92.6</ele><time>2026-03-29T07:19:18.309Z</time></trkpt><trkpt lat="43.9425867" lon="10.9767433"><ele>95.2</ele><time>2026-03-29T07:19:19.309Z</time></trkpt><trkpt lat="43.9426017" lon="10.9768717"><ele>97.80000000000001</ele><time>2026-03-29T07:19:20.309Z</time></trkpt><trkpt lat="43.942615" lon="10.9770017"><ele>100.4</ele><time>2026-03-29T07:19:21.309Z</time></trkpt><trkpt lat="43.9426233" lon="10.9771333"><ele>103.0</ele><time>2026-03-29T07:19:22.308Z</time></trkpt><trkpt lat="43.9426233" lon="10.9772667"><ele>103.0</ele><time>2026-03-29T07:19:23.31Z</time></trkpt><trkpt lat="43.9426183" lon="10.9773983"><ele>103.0</ele><time>2026-03-29T07:19:24.307Z</time></trkpt><trkpt lat="43.9426083" lon="10.97753"><ele>103.0</ele><time>2026-03-29T07:19:25.31Z</time></trkpt><trkpt lat="43.9425933" lon="10.97766"><ele>103.0</ele><time>2026-03-29T07:19:26.309Z</time></trkpt><trkpt lat="43.942575" lon="10.9777917"><ele>103.0</ele><time>2026-03-29T07:19:27.309Z</time></trkpt><trkpt lat="43.9425533" lon="10.9779217"><ele>102.2</ele><time>2026-03-29T07:19:28.309Z</time></trkpt><trkpt lat="43.9425233" lon="10.9780467"><ele>101.4</ele><time>2026-03-29T07:19:29.308Z</time></trkpt><trkpt lat="43.9424917" lon="10.9781667"><ele>100.60000000000001</ele><time>2026-03-29T07:19:30.31Z</time></trkpt><trkpt lat="43.9424567" lon="10.9782867"><ele>99.80000000000001</ele><time>2026-03-29T07:19:31.309Z</time></trkpt><trkpt lat="43.942415" lon="10.9784"><ele>99.0</ele><time>2026-03-29T07:19:32.31Z</time></trkpt><trkpt lat="43.9423733" lon="10.97851"><ele>99.0</ele><time>2026-03-29T07:19:33.307Z</time></trkpt><trkpt lat="43.9423317" lon="10.97862"><ele>99.0</ele><time>2026-03-29T07:19:34.309Z</time></trkpt><trkpt lat="43.94229" lon="10.9787333"><ele>99.0</ele><time>2026-03-29T07:19:35.31Z</time></trkpt><trkpt lat="43.9422467" lon="10.9788467"><ele>99.0</ele><time>2026-03-29T07:19:36.309Z</time></trkpt><trkpt lat="43.9422033" lon="10.9789633"><ele>99.0</ele><time>2026-03-29T07:19:37.31Z</time></trkpt><trkpt lat="43.94216" lon="10.9790767"><ele>100.4</ele><time>2026-03-29T07:19:38.31Z</time></trkpt><trkpt lat="43.9421167" lon="10.9791883"><ele>101.80000000000001</ele><time>2026-03-29T07:19:39.309Z</time></trkpt><trkpt lat="43.942075" lon="10.9793033"><ele>103.19999999999999</ele><time>2026-03-29T07:19:40.31Z</time></trkpt><trkpt lat="43.942035" lon="10.97942"><ele>104.6</ele><time>2026-03-29T07:19:41.312Z</time></trkpt><trkpt lat="43.941995" lon="10.979535"><ele>106.0</ele><time>2026-03-29T07:19:42.309Z</time></trkpt><trkpt lat="43.941955" lon="10.9796533"><ele>106.0</ele><time>2026-03-29T07:19:43.309Z</time></trkpt><trkpt lat="43.9419167" lon="10.9797717"><ele>106.0</ele><time>2026-03-29T07:19:44.31Z</time></trkpt><trkpt lat="43.941875" lon="10.9798967"><ele>106.0</ele><time>2026-03-29T07:19:45.309Z</time></trkpt><trkpt lat="43.9418333" lon="10.98002"><ele>106.0</ele><time>2026-03-29T07:19:46.309Z</time></trkpt><trkpt lat="43.9417917" lon="10.98015"><ele>106.0</ele><time>2026-03-29T07:19:47.311Z</time></trkpt><trkpt lat="43.94175" lon="10.98028"><ele>103.8</ele><time>2026-03-29T07:19:48.309Z</time></trkpt><trkpt lat="43.94171" lon="10.9804117"><ele>101.6</ele><time>2026-03-29T07:19:49.309Z</time></trkpt><trkpt lat="43.9416683" lon="10.9805417"><ele>99.4</ele><time>2026-03-29T07:19:50.309Z</time></trkpt><trkpt lat="43.9416283" lon="10.9806733"><ele>97.2</ele><time>2026-03-29T07:19:51.309Z</time></trkpt><trkpt lat="43.9415883" lon="10.980805"><ele>95.0</ele><time>2026-03-29T07:19:52.31Z</time></trkpt><trkpt lat="43.9415417" lon="10.980935"><ele>95.0</ele><time>2026-03-29T07:19:53.31Z</time></trkpt><trkpt lat="43.941495" lon="10.9810683"><ele>95.0</ele><time>2026-03-29T07:19:54.31Z</time></trkpt><trkpt lat="43.9414517" lon="10.981205"><ele>95.0</ele><time>2026-03-29T07:19:55.309Z</time></trkpt><trkpt lat="43.9414083" lon="10.9813417"><ele>95.0</ele><time>2026-03-29T07:19:56.311Z</time></trkpt><trkpt lat="43.94136" lon="10.9814733"><ele>95.0</ele><time>2026-03-29T07:19:57.309Z</time></trkpt><trkpt lat="43.9413133" lon="10.9816083"><ele>94.6</ele><time>2026-03-29T07:19:58.31Z</time></trkpt><trkpt lat="43.9412683" lon="10.9817433"><ele>94.2</ele><time>2026-03-29T07:19:59.312Z</time></trkpt><trkpt lat="43.9412233" lon="10.9818783"><ele>93.80000000000001</ele><time>2026-03-29T07:20:00.308Z</time></trkpt><trkpt lat="43.94118" lon="10.98201"><ele>93.4</ele><time>2026-03-29T07:20:01.311Z</time></trkpt><trkpt lat="43.9411333" lon="10.9821417"><ele>93.0</ele><time>2026-03-29T07:20:02.309Z</time></trkpt><trkpt lat="43.941085" lon="10.9822717"><ele>93.0</ele><time>2026-03-29T07:20:03.309Z</time></trkpt><trkpt lat="43.94104" lon="10.9824017"><ele>93.0</ele><time>2026-03-29T07:20:04.309Z</time></trkpt><trkpt lat="43.940995" lon="10.982535"><ele>93.0</ele><time>2026-03-29T07:20:05.31Z</time></trkpt><trkpt lat="43.9409483" lon="10.9826667"><ele>93.0</ele><time>2026-03-29T07:20:06.309Z</time></trkpt><trkpt lat="43.940905" lon="10.9828033"><ele>93.0</ele><time>2026-03-29T07:20:07.311Z</time></trkpt><trkpt lat="43.9408617" lon="10.98294"><ele>92.2</ele><time>2026-03-29T07:20:08.311Z</time></trkpt><trkpt lat="43.94082" lon="10.9830783"><ele>91.4</ele><time>2026-03-29T07:20:09.308Z</time></trkpt><trkpt lat="43.9407767" lon="10.983215"><ele>90.60000000000001</ele><time>2026-03-29T07:20:10.309Z</time></trkpt><trkpt lat="43.940735" lon="10.98335"><ele>89.80000000000001</ele><time>2026-03-29T07:20:11.311Z</time></trkpt><trkpt lat="43.9406883" lon="10.9834867"><ele>89.0</ele><time>2026-03-29T07:20:12.309Z</time></trkpt><trkpt lat="43.9406417" lon="10.9836217"><ele>88.80000000000001</ele><time>2026-03-29T07:20:13.309Z</time></trkpt><trkpt lat="43.9405967" lon="10.9837583"><ele>88.60000000000001</ele><time>2026-03-29T07:20:14.31Z</time></trkpt><trkpt lat="43.9405533" lon="10.9839017"><ele>88.4</ele><time>2026-03-29T07:20:15.309Z</time></trkpt><trkpt lat="43.9405083" lon="10.9840417"><ele>88.2</ele><time>2026-03-29T07:20:16.309Z</time></trkpt><trkpt lat="43.9404633" lon="10.984185"><ele>88.0</ele><time>2026-03-29T07:20:17.31Z</time></trkpt><trkpt lat="43.94042" lon="10.98433"><ele>88.2</ele><time>2026-03-29T07:20:18.311Z</time></trkpt><trkpt lat="43.940375" lon="10.984475"><ele>88.4</ele><time>2026-03-29T07:20:19.31Z</time></trkpt><trkpt lat="43.9403317" lon="10.9846133"><ele>88.60000000000001</ele><time>2026-03-29T07:20:20.311Z</time></trkpt><trkpt lat="43.9402883" lon="10.9847517"><ele>88.80000000000001</ele><time>2026-03-29T07:20:21.309Z</time></trkpt><trkpt lat="43.940245" lon="10.9848883"><ele>89.0</ele><time>2026-03-29T07:20:22.309Z</time></trkpt><trkpt lat="43.9401983" lon="10.9850283"><ele>89.0</ele><time>2026-03-29T07:20:23.31Z</time></trkpt><trkpt lat="43.9401533" lon="10.9851683"><ele>89.0</ele><time>2026-03-29T07:20:24.31Z</time></trkpt><trkpt lat="43.9401067" lon="10.98531"><ele>89.0</ele><time>2026-03-29T07:20:25.309Z</time></trkpt><trkpt lat="43.9400633" lon="10.98545"><ele>89.0</ele><time>2026-03-29T07:20:26.31Z</time></trkpt><trkpt lat="43.94002" lon="10.9855917"><ele>89.0</ele><time>2026-03-29T07:20:27.31Z</time></trkpt><trkpt lat="43.939975" lon="10.985735"><ele>87.6</ele><time>2026-03-29T07:20:28.311Z</time></trkpt><trkpt lat="43.9399267" lon="10.9858767"><ele>86.2</ele><time>2026-03-29T07:20:29.309Z</time></trkpt><trkpt lat="43.9398767" lon="10.9860133"><ele>84.8</ele><time>2026-03-29T07:20:30.309Z</time></trkpt><trkpt lat="43.9398317" lon="10.9861517"><ele>83.39999999999999</ele><time>2026-03-29T07:20:31.31Z</time></trkpt><trkpt lat="43.9397883" lon="10.986285"><ele>82.0</ele><time>2026-03-29T07:20:32.31Z</time></trkpt><trkpt lat="43.9397433" lon="10.9864167"><ele>82.0</ele><time>2026-03-29T07:20:33.309Z</time></trkpt><trkpt lat="43.9397017" lon="10.9865483"><ele>82.0</ele><time>2026-03-29T07:20:34.309Z</time></trkpt><trkpt lat="43.939655" lon="10.9866783"><ele>82.0</ele><time>2026-03-29T07:20:35.309Z</time></trkpt><trkpt lat="43.93961" lon="10.986805"><ele>82.0</ele><time>2026-03-29T07:20:36.309Z</time></trkpt><trkpt lat="43.9395667" lon="10.9869333"><ele>82.0</ele><time>2026-03-29T07:20:37.309Z</time></trkpt><trkpt lat="43.9395217" lon="10.98706"><ele>82.0</ele><time>2026-03-29T07:20:38.31Z</time></trkpt><trkpt lat="43.9394767" lon="10.9871867"><ele>82.0</ele><time>2026-03-29T07:20:39.309Z</time></trkpt><trkpt lat="43.9394333" lon="10.987315"><ele>82.0</ele><time>2026-03-29T07:20:40.311Z</time></trkpt><trkpt lat="43.9393883" lon="10.987445"><ele>82.0</ele><time>2026-03-29T07:20:41.309Z</time></trkpt><trkpt lat="43.9393433" lon="10.9875717"><ele>82.0</ele><time>2026-03-29T07:20:42.31Z</time></trkpt><trkpt lat="43.9393017" lon="10.9877"><ele>82.19999999999999</ele><time>2026-03-29T07:20:43.309Z</time></trkpt><trkpt lat="43.9392567" lon="10.9878283"><ele>82.4</ele><time>2026-03-29T07:20:44.311Z</time></trkpt><trkpt lat="43.9392067" lon="10.98796"><ele>82.6</ele><time>2026-03-29T07:20:45.311Z</time></trkpt><trkpt lat="43.9391617" lon="10.9880883"><ele>82.80000000000001</ele><time>2026-03-29T07:20:46.31Z</time></trkpt><trkpt lat="43.939115" lon="10.9882183"><ele>83.0</ele><time>2026-03-29T07:20:47.309Z</time></trkpt><trkpt lat="43.93907" lon="10.98835"><ele>83.2</ele><time>2026-03-29T07:20:48.312Z</time></trkpt><trkpt lat="43.939025" lon="10.9884867"><ele>83.4</ele><time>2026-03-29T07:20:49.312Z</time></trkpt><trkpt lat="43.9389783" lon="10.9886233"><ele>83.60000000000001</ele><time>2026-03-29T07:20:50.311Z</time></trkpt><trkpt lat="43.9389283" lon="10.9887567"><ele>83.80000000000001</ele><time>2026-03-29T07:20:51.31Z</time></trkpt><trkpt lat="43.93888" lon="10.988895"><ele>84.0</ele><time>2026-03-29T07:20:52.309Z</time></trkpt><trkpt lat="43.93883" lon="10.9890333"><ele>84.0</ele><time>2026-03-29T07:20:53.31Z</time></trkpt><trkpt lat="43.93878" lon="10.9891717"><ele>84.0</ele><time>2026-03-29T07:20:54.312Z</time></trkpt><trkpt lat="43.9387267" lon="10.9893117"><ele>84.0</ele><time>2026-03-29T07:20:55.31Z</time></trkpt><trkpt lat="43.9386717" lon="10.9894517"><ele>84.0</ele><time>2026-03-29T07:20:56.309Z</time></trkpt><trkpt lat="43.938615" lon="10.9895917"><ele>84.5</ele><time>2026-03-29T07:20:57.31Z</time></trkpt><trkpt lat="43.938555" lon="10.9897267"><ele>85.0</ele><time>2026-03-29T07:20:58.309Z</time></trkpt><trkpt lat="43.9384917" lon="10.9898617"><ele>85.5</ele><time>2026-03-29T07:20:59.309Z</time></trkpt><trkpt lat="43.9384233" lon="10.9899933"><ele>86.0</ele><time>2026-03-29T07:21:00.309Z</time></trkpt><trkpt lat="43.9383483" lon="10.9901183"><ele>83.5</ele><time>2026-03-29T07:21:01.309Z</time></trkpt><trkpt lat="43.9382683" lon="10.9902467"><ele>81.0</ele><time>2026-03-29T07:21:02.309Z</time></trkpt><trkpt lat="43.93819" lon="10.99037"><ele>78.5</ele><time>2026-03-29T07:21:03.311Z</time></trkpt><trkpt lat="43.9381083" lon="10.9904983"><ele>76.0</ele><time>2026-03-29T07:21:04.31Z</time></trkpt><trkpt lat="43.9380267" lon="10.990625"><ele>76.0</ele><time>2026-03-29T07:21:05.308Z</time></trkpt><trkpt lat="43.9379467" lon="10.99075"><ele>76.0</ele><time>2026-03-29T07:21:06.308Z</time></trkpt><trkpt lat="43.937865" lon="10.9908733"><ele>76.0</ele><time>2026-03-29T07:21:07.311Z</time></trkpt><trkpt lat="43.9377817" lon="10.9909967"><ele>76.0</ele><time>2026-03-29T07:21:08.31Z</time></trkpt><trkpt lat="43.9376983" lon="10.99112"><ele>75.5</ele><time>2026-03-29T07:21:09.31Z</time></trkpt><trkpt lat="43.93762" lon="10.9912467"><ele>75.0</ele><time>2026-03-29T07:21:10.31Z</time></trkpt><trkpt lat="43.9375417" lon="10.9913683"><ele>74.5</ele><time>2026-03-29T07:21:11.311Z</time></trkpt><trkpt lat="43.9374633" lon="10.9914833"><ele>74.0</ele><time>2026-03-29T07:21:12.31Z</time></trkpt><trkpt lat="43.9373817" lon="10.9916033"><ele>73.5</ele><time>2026-03-29T07:21:13.308Z</time></trkpt><trkpt lat="43.9373033" lon="10.99172"><ele>73.0</ele><time>2026-03-29T07:21:14.308Z</time></trkpt><trkpt lat="43.9372233" lon="10.9918417"><ele>72.5</ele><time>2026-03-29T07:21:15.31Z</time></trkpt><trkpt lat="43.9371467" lon="10.9919633"><ele>72.0</ele><time>2026-03-29T07:21:16.309Z</time></trkpt><trkpt lat="43.9370717" lon="10.9920833"><ele>72.0</ele><time>2026-03-29T07:21:17.309Z</time></trkpt><trkpt lat="43.9369933" lon="10.9922017"><ele>72.0</ele><time>2026-03-29T07:21:18.309Z</time></trkpt><trkpt lat="43.9369167" lon="10.99232"><ele>72.0</ele><time>2026-03-29T07:21:19.313Z</time></trkpt><trkpt lat="43.9368383" lon="10.9924367"><ele>72.0</ele><time>2026-03-29T07:21:20.31Z</time></trkpt><trkpt lat="43.936755" lon="10.9925483"><ele>71.0</ele><time>2026-03-29T07:21:21.31Z</time></trkpt><trkpt lat="43.9366683" lon="10.99266"><ele>70.0</ele><time>2026-03-29T07:21:22.309Z</time></trkpt><trkpt lat="43.9365817" lon="10.992765"><ele>69.0</ele><time>2026-03-29T07:21:23.309Z</time></trkpt><trkpt lat="43.936495" lon="10.99287"><ele>68.0</ele><time>2026-03-29T07:21:24.31Z</time></trkpt><trkpt lat="43.9364067" lon="10.9929717"><ele>68.0</ele><time>2026-03-29T07:21:25.311Z</time></trkpt><trkpt lat="43.9363167" lon="10.9930767"><ele>68.0</ele><time>2026-03-29T07:21:26.309Z</time></trkpt><trkpt lat="43.9362267" lon="10.9931867"><ele>68.0</ele><time>2026-03-29T07:21:27.308Z</time></trkpt><trkpt lat="43.936135" lon="10.9932967"><ele>68.0</ele><time>2026-03-29T07:21:28.31Z</time></trkpt><trkpt lat="43.9360433" lon="10.99341"><ele>67.5</ele><time>2026-03-29T07:21:29.312Z</time></trkpt><trkpt lat="43.9359533" lon="10.9935283"><ele>67.0</ele><time>2026-03-29T07:21:30.308Z</time></trkpt><trkpt lat="43.9358617" lon="10.9936433"><ele>66.5</ele><time>2026-03-29T07:21:31.31Z</time></trkpt><trkpt lat="43.935775" lon="10.9937567"><ele>66.0</ele><time>2026-03-29T07:21:32.311Z</time></trkpt><trkpt lat="43.9356883" lon="10.993865"><ele>66.0</ele><time>2026-03-29T07:21:33.309Z</time></trkpt><trkpt lat="43.9356017" lon="10.9939717"><ele>66.0</ele><time>2026-03-29T07:21:34.309Z</time></trkpt><trkpt lat="43.9355183" lon="10.9940767"><ele>66.0</ele><time>2026-03-29T07:21:35.311Z</time></trkpt><trkpt lat="43.9354367" lon="10.994185"><ele>66.0</ele><time>2026-03-29T07:21:36.31Z</time></trkpt><trkpt lat="43.9353617" lon="10.9942933"><ele>66.0</ele><time>2026-03-29T07:21:37.309Z</time></trkpt><trkpt lat="43.93529" lon="10.9944033"><ele>66.2</ele><time>2026-03-29T07:21:38.309Z</time></trkpt><trkpt lat="43.9352267" lon="10.9945183"><ele>66.39999999999999</ele><time>2026-03-29T07:21:39.31Z</time></trkpt><trkpt lat="43.9351683" lon="10.9946283"><ele>66.6</ele><time>2026-03-29T07:21:40.31Z</time></trkpt><trkpt lat="43.935115" lon="10.9947383"><ele>66.8</ele><time>2026-03-29T07:21:41.309Z</time></trkpt><trkpt lat="43.9350633" lon="10.99485"><ele>67.0</ele><time>2026-03-29T07:21:42.308Z</time></trkpt><trkpt lat="43.9350133" lon="10.9949617"><ele>67.83333333333333</ele><time>2026-03-29T07:21:43.311Z</time></trkpt><trkpt lat="43.93497" lon="10.9950717"><ele>68.66666666666666</ele><time>2026-03-29T07:21:44.312Z</time></trkpt><trkpt lat="43.93493" lon="10.99518"><ele>69.5</ele><time>2026-03-29T07:21:45.308Z</time></trkpt><trkpt lat="43.9348933" lon="10.995285"><ele>70.33333333333333</ele><time>2026-03-29T07:21:46.308Z</time></trkpt><trkpt lat="43.9348567" lon="10.9953883"><ele>71.16666666666667</ele><time>2026-03-29T07:21:47.309Z</time></trkpt><trkpt lat="43.9348267" lon="10.9954917"><ele>72.0</ele><time>2026-03-29T07:21:48.311Z</time></trkpt><trkpt lat="43.9347983" lon="10.995595"><ele>72.00000000000001</ele><time>2026-03-29T07:21:49.31Z</time></trkpt><trkpt lat="43.9347717" lon="10.995695"><ele>72.0</ele><time>2026-03-29T07:21:50.309Z</time></trkpt><trkpt lat="43.9347467" lon="10.9957883"><ele>72.0</ele><time>2026-03-29T07:21:51.309Z</time></trkpt><trkpt lat="43.934725" lon="10.995885"><ele>72.0</ele><time>2026-03-29T07:21:52.31Z</time></trkpt><trkpt lat="43.9347017" lon="10.9959833"><ele>72.0</ele><time>2026-03-29T07:21:53.309Z</time></trkpt><trkpt lat="43.9346833" lon="10.9960783"><ele>72.00000000000001</ele><time>2026-03-29T07:21:54.311Z</time></trkpt><trkpt lat="43.934665" lon="10.9961717"><ele>72.0</ele><time>2026-03-29T07:21:55.309Z</time></trkpt><trkpt lat="43.9346467" lon="10.996265"><ele>73.2</ele><time>2026-03-29T07:21:56.31Z</time></trkpt><trkpt lat="43.9346317" lon="10.9963567"><ele>74.4</ele><time>2026-03-29T07:21:57.31Z</time></trkpt><trkpt lat="43.9346217" lon="10.99645"><ele>75.6</ele><time>2026-03-29T07:21:58.308Z</time></trkpt><trkpt lat="43.9346117" lon="10.9965433"><ele>76.8</ele><time>2026-03-29T07:21:59.309Z</time></trkpt><trkpt lat="43.9346" lon="10.996715"><ele>78.0</ele><time>2026-03-29T07:22:01.309Z</time></trkpt><trkpt lat="43.9345867" lon="10.9968917"><ele>79.33333333333333</ele><time>2026-03-29T07:22:03.31Z</time></trkpt><trkpt lat="43.9345817" lon="10.9969833"><ele>80.66666666666667</ele><time>2026-03-29T07:22:04.31Z</time></trkpt><trkpt lat="43.934575" lon="10.9971633"><ele>82.0</ele><time>2026-03-29T07:22:06.309Z</time></trkpt><trkpt lat="43.9345733" lon="10.9972583"><ele>83.33333333333334</ele><time>2026-03-29T07:22:07.31Z</time></trkpt><trkpt lat="43.9345717" lon="10.997355"><ele>84.66666666666667</ele><time>2026-03-29T07:22:08.311Z</time></trkpt><trkpt lat="43.9345717" lon="10.9974517"><ele>86.0</ele><time>2026-03-29T07:22:09.309Z</time></trkpt><trkpt lat="43.9345733" lon="10.997545"><ele>86.00000000000001</ele><time>2026-03-29T07:22:10.308Z</time></trkpt><trkpt lat="43.9345733" lon="10.9976417"><ele>86.0</ele><time>2026-03-29T07:22:11.311Z</time></trkpt><trkpt lat="43.93457" lon="10.9977383"><ele>86.0</ele><time>2026-03-29T07:22:12.31Z</time></trkpt><trkpt lat="43.9345683" lon="10.9978367"><ele>86.0</ele><time>2026-03-29T07:22:13.31Z</time></trkpt><trkpt lat="43.9345733" lon="10.9979417"><ele>86.0</ele><time>2026-03-29T07:22:14.308Z</time></trkpt><trkpt lat="43.934575" lon="10.9980517"><ele>86.00000000000001</ele><time>2026-03-29T07:22:15.311Z</time></trkpt><trkpt lat="43.9345767" lon="10.9981633"><ele>86.0</ele><time>2026-03-29T07:22:16.308Z</time></trkpt><trkpt lat="43.9345783" lon="10.9982783"><ele>85.33333333333334</ele><time>2026-03-29T07:22:17.309Z</time></trkpt><trkpt lat="43.93458" lon="10.9983917"><ele>84.66666666666667</ele><time>2026-03-29T07:22:18.309Z</time></trkpt><trkpt lat="43.9345817" lon="10.9985083"><ele>84.0</ele><time>2026-03-29T07:22:19.309Z</time></trkpt><trkpt lat="43.9345817" lon="10.9986267"><ele>83.33333333333333</ele><time>2026-03-29T07:22:20.312Z</time></trkpt><trkpt lat="43.934585" lon="10.9987467"><ele>82.66666666666666</ele><time>2026-03-29T07:22:21.309Z</time></trkpt><trkpt lat="43.9345883" lon="10.99887"><ele>82.0</ele><time>2026-03-29T07:22:22.309Z</time></trkpt><trkpt lat="43.9345917" lon="10.998995"><ele>82.0</ele><time>2026-03-29T07:22:23.31Z</time></trkpt><trkpt lat="43.934595" lon="10.99912"><ele>82.0</ele><time>2026-03-29T07:22:24.31Z</time></trkpt><trkpt lat="43.9345983" lon="10.9992433"><ele>82.0</ele><time>2026-03-29T07:22:25.309Z</time></trkpt><trkpt lat="43.9346" lon="10.9993667"><ele>82.0</ele><time>2026-03-29T07:22:26.311Z</time></trkpt><trkpt lat="43.9346017" lon="10.9994933"><ele>82.0</ele><time>2026-03-29T07:22:27.31Z</time></trkpt><trkpt lat="43.9346017" lon="10.9996183"><ele>82.0</ele><time>2026-03-29T07:22:28.309Z</time></trkpt><trkpt lat="43.9346017" lon="10.9997483"><ele>81.39999999999999</ele><time>2026-03-29T07:22:29.314Z</time></trkpt><trkpt lat="43.9346033" lon="10.999885"><ele>80.8</ele><time>2026-03-29T07:22:30.31Z</time></trkpt><trkpt lat="43.934605" lon="11.00002"><ele>80.2</ele><time>2026-03-29T07:22:31.309Z</time></trkpt><trkpt lat="43.9346067" lon="11.0001583"><ele>79.6</ele><time>2026-03-29T07:22:32.309Z</time></trkpt><trkpt lat="43.9346117" lon="11.000295"><ele>79.0</ele><time>2026-03-29T07:22:33.309Z</time></trkpt><trkpt lat="43.9346167" lon="11.000435"><ele>79.0</ele><time>2026-03-29T07:22:34.31Z</time></trkpt><trkpt lat="43.9346217" lon="11.000575"><ele>79.0</ele><time>2026-03-29T07:22:35.31Z</time></trkpt><trkpt lat="43.9346233" lon="11.0007117"><ele>79.0</ele><time>2026-03-29T07:22:36.31Z</time></trkpt><trkpt lat="43.9346217" lon="11.00085"><ele>79.0</ele><time>2026-03-29T07:22:37.31Z</time></trkpt><trkpt lat="43.9346233" lon="11.000995"><ele>79.0</ele><time>2026-03-29T07:22:38.31Z</time></trkpt><trkpt lat="43.9346233" lon="11.0011367"><ele>78.4</ele><time>2026-03-29T07:22:39.308Z</time></trkpt><trkpt lat="43.934625" lon="11.0012767"><ele>77.80000000000001</ele><time>2026-03-29T07:22:40.309Z</time></trkpt><trkpt lat="43.9346283" lon="11.0014117"><ele>77.19999999999999</ele><time>2026-03-29T07:22:41.31Z</time></trkpt><trkpt lat="43.9346283" lon="11.001545"><ele>76.6</ele><time>2026-03-29T07:22:42.31Z</time></trkpt><trkpt lat="43.9346317" lon="11.0016883"><ele>76.0</ele><time>2026-03-29T07:22:43.31Z</time></trkpt><trkpt lat="43.9346317" lon="11.00183"><ele>76.0</ele><time>2026-03-29T07:22:44.31Z</time></trkpt><trkpt lat="43.9346283" lon="11.001965"><ele>76.0</ele><time>2026-03-29T07:22:45.309Z</time></trkpt><trkpt lat="43.934625" lon="11.0021033"><ele>76.0</ele><time>2026-03-29T07:22:46.312Z</time></trkpt><trkpt lat="43.9346217" lon="11.00224"><ele>76.0</ele><time>2026-03-29T07:22:47.311Z</time></trkpt><trkpt lat="43.9346167" lon="11.0023733"><ele>76.0</ele><time>2026-03-29T07:22:48.309Z</time></trkpt><trkpt lat="43.9346033" lon="11.0024967"><ele>75.8</ele><time>2026-03-29T07:22:49.311Z</time></trkpt><trkpt lat="43.9345867" lon="11.0026183"><ele>75.6</ele><time>2026-03-29T07:22:50.309Z</time></trkpt><trkpt lat="43.9345733" lon="11.0027433"><ele>75.4</ele><time>2026-03-29T07:22:51.308Z</time></trkpt><trkpt lat="43.9345717" lon="11.0028733"><ele>75.2</ele><time>2026-03-29T07:22:52.312Z</time></trkpt><trkpt lat="43.9345883" lon="11.0030017"><ele>75.0</ele><time>2026-03-29T07:22:53.31Z</time></trkpt><trkpt lat="43.9346183" lon="11.003125"><ele>75.0</ele><time>2026-03-29T07:22:54.31Z</time></trkpt><trkpt lat="43.9346483" lon="11.0032533"><ele>75.0</ele><time>2026-03-29T07:22:55.311Z</time></trkpt><trkpt lat="43.9346633" lon="11.0033883"><ele>75.0</ele><time>2026-03-29T07:22:56.31Z</time></trkpt><trkpt lat="43.9346633" lon="11.0035217"><ele>75.0</ele><time>2026-03-29T07:22:57.308Z</time></trkpt><trkpt lat="43.9346667" lon="11.003655"><ele>75.0</ele><time>2026-03-29T07:22:58.308Z</time></trkpt><trkpt lat="43.93467" lon="11.0037883"><ele>75.0</ele><time>2026-03-29T07:22:59.308Z</time></trkpt><trkpt lat="43.9346733" lon="11.0039183"><ele>75.0</ele><time>2026-03-29T07:23:00.309Z</time></trkpt><trkpt lat="43.9346783" lon="11.00405"><ele>75.0</ele><time>2026-03-29T07:23:01.31Z</time></trkpt><trkpt lat="43.93468" lon="11.0041817"><ele>75.0</ele><time>2026-03-29T07:23:02.309Z</time></trkpt><trkpt lat="43.9346833" lon="11.0043117"><ele>75.0</ele><time>2026-03-29T07:23:03.309Z</time></trkpt><trkpt lat="43.934685" lon="11.0044417"><ele>75.2</ele><time>2026-03-29T07:23:04.309Z</time></trkpt><trkpt lat="43.9346883" lon="11.00457"><ele>75.4</ele><time>2026-03-29T07:23:05.309Z</time></trkpt><trkpt lat="43.9346933" lon="11.0046983"><ele>75.6</ele><time>2026-03-29T07:23:06.31Z</time></trkpt><trkpt lat="43.9346917" lon="11.00483"><ele>75.8</ele><time>2026-03-29T07:23:07.31Z</time></trkpt><trkpt lat="43.9346917" lon="11.004965"><ele>76.0</ele><time>2026-03-29T07:23:08.311Z</time></trkpt><trkpt lat="43.9346933" lon="11.0050983"><ele>76.2</ele><time>2026-03-29T07:23:09.308Z</time></trkpt><trkpt lat="43.934695" lon="11.0052317"><ele>76.39999999999999</ele><time>2026-03-29T07:23:10.31Z</time></trkpt><trkpt lat="43.934695" lon="11.0053633"><ele>76.6</ele><time>2026-03-29T07:23:11.309Z</time></trkpt><trkpt lat="43.9347017" lon="11.0054917"><ele>76.8</ele><time>2026-03-29T07:23:12.309Z</time></trkpt><trkpt lat="43.934705" lon="11.0056217"><ele>77.0</ele><time>2026-03-29T07:23:13.308Z</time></trkpt><trkpt lat="43.93471" lon="11.005755"><ele>77.4</ele><time>2026-03-29T07:23:14.309Z</time></trkpt><trkpt lat="43.9347133" lon="11.0058883"><ele>77.80000000000001</ele><time>2026-03-29T07:23:15.31Z</time></trkpt><trkpt lat="43.9347167" lon="11.0060217"><ele>78.2</ele><time>2026-03-29T07:23:16.311Z</time></trkpt><trkpt lat="43.93472" lon="11.006155"><ele>78.60000000000001</ele><time>2026-03-29T07:23:17.309Z</time></trkpt><trkpt lat="43.9347217" lon="11.0062883"><ele>79.0</ele><time>2026-03-29T07:23:18.309Z</time></trkpt><trkpt lat="43.9347233" lon="11.0064217"><ele>79.0</ele><time>2026-03-29T07:23:19.31Z</time></trkpt><trkpt lat="43.934725" lon="11.0065567"><ele>79.0</ele><time>2026-03-29T07:23:20.309Z</time></trkpt><trkpt lat="43.9347267" lon="11.00669"><ele>79.0</ele><time>2026-03-29T07:23:21.31Z</time></trkpt><trkpt lat="43.9347267" lon="11.0068217"><ele>79.0</ele><time>2026-03-29T07:23:22.31Z</time></trkpt><trkpt lat="43.9347267" lon="11.00695"><ele>79.0</ele><time>2026-03-29T07:23:23.311Z</time></trkpt><trkpt lat="43.93473" lon="11.00708"><ele>78.4</ele><time>2026-03-29T07:23:24.31Z</time></trkpt><trkpt lat="43.9347333" lon="11.0072117"><ele>77.80000000000001</ele><time>2026-03-29T07:23:25.309Z</time></trkpt><trkpt lat="43.9347367" lon="11.0073433"><ele>77.19999999999999</ele><time>2026-03-29T07:23:26.313Z</time></trkpt><trkpt lat="43.9347417" lon="11.0074733"><ele>76.6</ele><time>2026-03-29T07:23:27.309Z</time></trkpt><trkpt lat="43.934745" lon="11.0076017"><ele>76.0</ele><time>2026-03-29T07:23:28.313Z</time></trkpt><trkpt lat="43.9347433" lon="11.0077317"><ele>76.0</ele><time>2026-03-29T07:23:29.309Z</time></trkpt><trkpt lat="43.9347433" lon="11.0078617"><ele>76.0</ele><time>2026-03-29T07:23:30.308Z</time></trkpt><trkpt lat="43.9347467" lon="11.0079917"><ele>76.0</ele><time>2026-03-29T07:23:31.309Z</time></trkpt><trkpt lat="43.93475" lon="11.0081233"><ele>76.0</ele><time>2026-03-29T07:23:32.31Z</time></trkpt><trkpt lat="43.9347533" lon="11.0082567"><ele>76.0</ele><time>2026-03-29T07:23:33.311Z</time></trkpt><trkpt lat="43.9347567" lon="11.0083883"><ele>76.6</ele><time>2026-03-29T07:23:34.311Z</time></trkpt><trkpt lat="43.9347633" lon="11.0085183"><ele>77.19999999999999</ele><time>2026-03-29T07:23:35.309Z</time></trkpt><trkpt lat="43.9347667" lon="11.0086467"><ele>77.80000000000001</ele><time>2026-03-29T07:23:36.31Z</time></trkpt><trkpt lat="43.9347683" lon="11.008775"><ele>78.4</ele><time>2026-03-29T07:23:37.309Z</time></trkpt><trkpt lat="43.9347667" lon="11.00891"><ele>79.0</ele><time>2026-03-29T07:23:38.31Z</time></trkpt><trkpt lat="43.9347667" lon="11.0090383"><ele>79.6</ele><time>2026-03-29T07:23:39.309Z</time></trkpt><trkpt lat="43.93477" lon="11.0091667"><ele>80.2</ele><time>2026-03-29T07:23:40.31Z</time></trkpt><trkpt lat="43.9347733" lon="11.0092917"><ele>80.8</ele><time>2026-03-29T07:23:41.311Z</time></trkpt><trkpt lat="43.934775" lon="11.0094183"><ele>81.39999999999999</ele><time>2026-03-29T07:23:42.312Z</time></trkpt><trkpt lat="43.9347767" lon="11.009545"><ele>82.0</ele><time>2026-03-29T07:23:43.313Z</time></trkpt><trkpt lat="43.9347783" lon="11.0096717"><ele>82.0</ele><time>2026-03-29T07:23:44.309Z</time></trkpt><trkpt lat="43.9347833" lon="11.0098"><ele>82.0</ele><time>2026-03-29T07:23:45.31Z</time></trkpt><trkpt lat="43.9347883" lon="11.0099283"><ele>82.0</ele><time>2026-03-29T07:23:46.311Z</time></trkpt><trkpt lat="43.9347867" lon="11.0100533"><ele>82.0</ele><time>2026-03-29T07:23:47.311Z</time></trkpt><trkpt lat="43.93479" lon="11.0101817"><ele>82.0</ele><time>2026-03-29T07:23:48.31Z</time></trkpt><trkpt lat="43.934795" lon="11.0103133"><ele>82.0</ele><time>2026-03-29T07:23:49.309Z</time></trkpt><trkpt lat="43.9347967" lon="11.0104417"><ele>82.0</ele><time>2026-03-29T07:23:50.313Z</time></trkpt><trkpt lat="43.9347967" lon="11.0105733"><ele>82.0</ele><time>2026-03-29T07:23:51.308Z</time></trkpt><trkpt lat="43.9347983" lon="11.0107017"><ele>82.0</ele><time>2026-03-29T07:23:52.31Z</time></trkpt><trkpt lat="43.9348017" lon="11.01083"><ele>82.0</ele><time>2026-03-29T07:23:53.309Z</time></trkpt><trkpt lat="43.9348033" lon="11.0109667"><ele>82.0</ele><time>2026-03-29T07:23:54.312Z</time></trkpt><trkpt lat="43.934805" lon="11.0110917"><ele>82.0</ele><time>2026-03-29T07:23:55.31Z</time></trkpt><trkpt lat="43.9348033" lon="11.01122"><ele>82.0</ele><time>2026-03-29T07:23:56.31Z</time></trkpt><trkpt lat="43.9348017" lon="11.0113467"><ele>82.0</ele><time>2026-03-29T07:23:57.308Z</time></trkpt><trkpt lat="43.9348033" lon="11.0114783"><ele>82.0</ele><time>2026-03-29T07:23:58.308Z</time></trkpt><trkpt lat="43.9348067" lon="11.0116083"><ele>82.5</ele><time>2026-03-29T07:23:59.31Z</time></trkpt><trkpt lat="43.93481" lon="11.011735"><ele>83.0</ele><time>2026-03-29T07:24:00.31Z</time></trkpt><trkpt lat="43.9348133" lon="11.0118617"><ele>83.5</ele><time>2026-03-29T07:24:01.309Z</time></trkpt><trkpt lat="43.934815" lon="11.0119833"><ele>84.0</ele><time>2026-03-29T07:24:02.309Z</time></trkpt><trkpt lat="43.9348167" lon="11.0121"><ele>84.5</ele><time>2026-03-29T07:24:03.31Z</time></trkpt><trkpt lat="43.9348183" lon="11.0122117"><ele>85.0</ele><time>2026-03-29T07:24:04.311Z</time></trkpt><trkpt lat="43.93482" lon="11.0123183"><ele>85.0</ele><time>2026-03-29T07:24:05.309Z</time></trkpt><trkpt lat="43.934825" lon="11.0124183"><ele>85.0</ele><time>2026-03-29T07:24:06.309Z</time></trkpt><trkpt lat="43.934825" lon="11.012525"><ele>85.0</ele><time>2026-03-29T07:24:07.31Z</time></trkpt><trkpt lat="43.934825" lon="11.0126317"><ele>85.0</ele><time>2026-03-29T07:24:08.31Z</time></trkpt><trkpt lat="43.93483" lon="11.0127383"><ele>85.0</ele><time>2026-03-29T07:24:09.309Z</time></trkpt><trkpt lat="43.9348317" lon="11.012845"><ele>85.0</ele><time>2026-03-29T07:24:10.309Z</time></trkpt><trkpt lat="43.9348333" lon="11.0129467"><ele>85.28571428571429</ele><time>2026-03-29T07:24:11.31Z</time></trkpt><trkpt lat="43.934835" lon="11.0130483"><ele>85.57142857142857</ele><time>2026-03-29T07:24:12.314Z</time></trkpt><trkpt lat="43.9348333" lon="11.0131483"><ele>85.85714285714286</ele><time>2026-03-29T07:24:13.31Z</time></trkpt><trkpt lat="43.934835" lon="11.0132483"><ele>86.14285714285714</ele><time>2026-03-29T07:24:14.309Z</time></trkpt><trkpt lat="43.934835" lon="11.0133433"><ele>86.42857142857143</ele><time>2026-03-29T07:24:15.309Z</time></trkpt><trkpt lat="43.9348383" lon="11.0134367"><ele>86.71428571428571</ele><time>2026-03-29T07:24:16.31Z</time></trkpt><trkpt lat="43.9348433" lon="11.01353"><ele>87.0</ele><time>2026-03-29T07:24:17.31Z</time></trkpt><trkpt lat="43.934845" lon="11.01362"><ele>87.39999999999999</ele><time>2026-03-29T07:24:18.309Z</time></trkpt><trkpt lat="43.9348433" lon="11.0137867"><ele>87.8</ele><time>2026-03-29T07:24:20.309Z</time></trkpt><trkpt lat="43.9348483" lon="11.0139233"><ele>88.2</ele><time>2026-03-29T07:24:22.31Z</time></trkpt><trkpt lat="43.93485" lon="11.0140433"><ele>88.6</ele><time>2026-03-29T07:24:24.309Z</time></trkpt><trkpt lat="43.9348533" lon="11.014155"><ele>89.0</ele><time>2026-03-29T07:24:26.309Z</time></trkpt><trkpt lat="43.93486" lon="11.01425"><ele>88.5</ele><time>2026-03-29T07:24:28.309Z</time></trkpt><trkpt lat="43.934875" lon="11.014365"><ele>88.0</ele><time>2026-03-29T07:24:31.31Z</time></trkpt><trkpt lat="43.9348817" lon="11.0144533"><ele>87.5</ele><time>2026-03-29T07:24:33.309Z</time></trkpt><trkpt lat="43.93488" lon="11.014575"><ele>87.0</ele><time>2026-03-29T07:24:35.309Z</time></trkpt><trkpt lat="43.9348717" lon="11.0147167"><ele>86.5</ele><time>2026-03-29T07:24:37.31Z</time></trkpt><trkpt lat="43.93487" lon="11.0148667"><ele>86.0</ele><time>2026-03-29T07:24:39.31Z</time></trkpt><trkpt lat="43.93487" lon="11.0150383"><ele>86.00000000000001</ele><time>2026-03-29T07:24:41.31Z</time></trkpt><trkpt lat="43.93487" lon="11.0151333"><ele>86.0</ele><time>2026-03-29T07:24:42.309Z</time></trkpt><trkpt lat="43.93487" lon="11.0152317"><ele>86.0</ele><time>2026-03-29T07:24:43.312Z</time></trkpt><trkpt lat="43.9348667" lon="11.0153267"><ele>86.0</ele><time>2026-03-29T07:24:44.309Z</time></trkpt><trkpt lat="43.93486" lon="11.01542"><ele>86.0</ele><time>2026-03-29T07:24:45.31Z</time></trkpt><trkpt lat="43.934845" lon="11.0155067"><ele>86.00000000000001</ele><time>2026-03-29T07:24:46.309Z</time></trkpt><trkpt lat="43.93483" lon="11.0155917"><ele>86.0</ele><time>2026-03-29T07:24:47.312Z</time></trkpt><trkpt lat="43.9348183" lon="11.0157667"><ele>86.28571428571429</ele><time>2026-03-29T07:24:49.31Z</time></trkpt><trkpt lat="43.9348183" lon="11.0158633"><ele>86.57142857142857</ele><time>2026-03-29T07:24:50.311Z</time></trkpt><trkpt lat="43.9348233" lon="11.0159533"><ele>86.85714285714286</ele><time>2026-03-29T07:24:51.309Z</time></trkpt><trkpt lat="43.9348283" lon="11.0160433"><ele>87.14285714285714</ele><time>2026-03-29T07:24:52.31Z</time></trkpt><trkpt lat="43.93483" lon="11.016135"><ele>87.42857142857143</ele><time>2026-03-29T07:24:53.309Z</time></trkpt><trkpt lat="43.9348267" lon="11.01623"><ele>87.71428571428572</ele><time>2026-03-29T07:24:54.309Z</time></trkpt><trkpt lat="43.9348183" lon="11.0163267"><ele>88.0</ele><time>2026-03-29T07:24:55.311Z</time></trkpt><trkpt lat="43.934805" lon="11.0164833"><ele>88.0</ele><time>2026-03-29T07:24:57.309Z</time></trkpt><trkpt lat="43.9347583" lon="11.0165867"><ele>88.0</ele><time>2026-03-29T07:24:59.311Z</time></trkpt><trkpt lat="43.9346483" lon="11.0166067"><ele>88.0</ele><time>2026-03-29T07:25:01.313Z</time></trkpt><trkpt lat="43.9345817" lon="11.0165933"><ele>88.0</ele><time>2026-03-29T07:25:02.31Z</time></trkpt><trkpt lat="43.9345117" lon="11.0165783"><ele>88.0</ele><time>2026-03-29T07:25:03.308Z</time></trkpt><trkpt lat="43.93444" lon="11.016565"><ele>88.0</ele><time>2026-03-29T07:25:04.312Z</time></trkpt><trkpt lat="43.9343733" lon="11.0165567"><ele>88.0</ele><time>2026-03-29T07:25:05.31Z</time></trkpt><trkpt lat="43.9343083" lon="11.0165633"><ele>88.0</ele><time>2026-03-29T07:25:06.31Z</time></trkpt><trkpt lat="43.93423" lon="11.0165883"><ele>88.0</ele><time>2026-03-29T07:25:08.311Z</time></trkpt><trkpt lat="43.93417" lon="11.01666"><ele>88.0</ele><time>2026-03-29T07:25:10.31Z</time></trkpt><trkpt lat="43.9341533" lon="11.0168017"><ele>88.0</ele><time>2026-03-29T07:25:12.309Z</time></trkpt><trkpt lat="43.9341533" lon="11.01698"><ele>87.28571428571429</ele><time>2026-03-29T07:25:14.31Z</time></trkpt><trkpt lat="43.9341533" lon="11.01707"><ele>86.57142857142857</ele><time>2026-03-29T07:25:15.309Z</time></trkpt><trkpt lat="43.93415" lon="11.0171617"><ele>85.85714285714286</ele><time>2026-03-29T07:25:16.31Z</time></trkpt><trkpt lat="43.9341483" lon="11.017255"><ele>85.14285714285714</ele><time>2026-03-29T07:25:17.311Z</time></trkpt><trkpt lat="43.934145" lon="11.0173467"><ele>84.42857142857143</ele><time>2026-03-29T07:25:18.308Z</time></trkpt><trkpt lat="43.9341433" lon="11.0174367"><ele>83.71428571428571</ele><time>2026-03-29T07:25:19.311Z</time></trkpt><trkpt lat="43.9341333" lon="11.0175267"><ele>83.0</ele><time>2026-03-29T07:25:20.31Z</time></trkpt><trkpt lat="43.9341283" lon="11.0176167"><ele>82.71428571428571</ele><time>2026-03-29T07:25:21.309Z</time></trkpt><trkpt lat="43.9341183" lon="11.0177083"><ele>82.42857142857143</ele><time>2026-03-29T07:25:22.309Z</time></trkpt><trkpt lat="43.93411" lon="11.017795"><ele>82.14285714285714</ele><time>2026-03-29T07:25:23.313Z</time></trkpt><trkpt lat="43.9340917" lon="11.017885"><ele>81.85714285714286</ele><time>2026-03-29T07:25:24.31Z</time></trkpt><trkpt lat="43.9340733" lon="11.0179717"><ele>81.57142857142857</ele><time>2026-03-29T07:25:25.311Z</time></trkpt><trkpt lat="43.9340517" lon="11.01806"><ele>81.28571428571429</ele><time>2026-03-29T07:25:26.31Z</time></trkpt><trkpt lat="43.93403" lon="11.01815"><ele>81.0</ele><time>2026-03-29T07:25:27.308Z</time></trkpt><trkpt lat="43.9340133" lon="11.0182367"><ele>81.14285714285714</ele><time>2026-03-29T07:25:28.31Z</time></trkpt><trkpt lat="43.933995" lon="11.018325"><ele>81.28571428571428</ele><time>2026-03-29T07:25:29.312Z</time></trkpt><trkpt lat="43.9339783" lon="11.0184167"><ele>81.42857142857142</ele><time>2026-03-29T07:25:30.31Z</time></trkpt><trkpt lat="43.9339633" lon="11.0185083"><ele>81.57142857142857</ele><time>2026-03-29T07:25:31.311Z</time></trkpt><trkpt lat="43.933945" lon="11.0185983"><ele>81.71428571428571</ele><time>2026-03-29T07:25:32.311Z</time></trkpt><trkpt lat="43.93393" lon="11.01869"><ele>81.85714285714285</ele><time>2026-03-29T07:25:33.309Z</time></trkpt><trkpt lat="43.933915" lon="11.0187783"><ele>82.0</ele><time>2026-03-29T07:25:34.309Z</time></trkpt><trkpt lat="43.9338983" lon="11.018865"><ele>82.0</ele><time>2026-03-29T07:25:35.309Z</time></trkpt><trkpt lat="43.9338683" lon="11.0190333"><ele>82.0</ele><time>2026-03-29T07:25:37.31Z</time></trkpt><trkpt lat="43.9338417" lon="11.0192067"><ele>82.0</ele><time>2026-03-29T07:25:39.308Z</time></trkpt><trkpt lat="43.9338267" lon="11.019295"><ele>82.0</ele><time>2026-03-29T07:25:40.31Z</time></trkpt><trkpt lat="43.9338167" lon="11.0193817"><ele>82.0</ele><time>2026-03-29T07:25:41.312Z</time></trkpt><trkpt lat="43.9337983" lon="11.0194667"><ele>82.0</ele><time>2026-03-29T07:25:42.31Z</time></trkpt><trkpt lat="43.933785" lon="11.019555"><ele>81.8</ele><time>2026-03-29T07:25:43.31Z</time></trkpt><trkpt lat="43.9337733" lon="11.0196417"><ele>81.6</ele><time>2026-03-29T07:25:44.31Z</time></trkpt><trkpt lat="43.9337617" lon="11.01973"><ele>81.39999999999999</ele><time>2026-03-29T07:25:45.31Z</time></trkpt><trkpt lat="43.9337383" lon="11.0198983"><ele>81.19999999999999</ele><time>2026-03-29T07:25:47.309Z</time></trkpt><trkpt lat="43.933715" lon="11.0200567"><ele>81.0</ele><time>2026-03-29T07:25:49.309Z</time></trkpt><trkpt lat="43.9337" lon="11.0201983"><ele>81.0</ele><time>2026-03-29T07:25:51.311Z</time></trkpt><trkpt lat="43.933695" lon="11.02031"><ele>81.0</ele><time>2026-03-29T07:25:54.308Z</time></trkpt><trkpt lat="43.9337233" lon="11.020405"><ele>81.0</ele><time>2026-03-29T07:25:56.307Z</time></trkpt><trkpt lat="43.9337767" lon="11.020485"><ele>81.0</ele><time>2026-03-29T07:25:58.308Z</time></trkpt><trkpt lat="43.9338417" lon="11.0205583"><ele>81.0</ele><time>2026-03-29T07:26:00.307Z</time></trkpt><trkpt lat="43.9339017" lon="11.0206333"><ele>81.0</ele><time>2026-03-29T07:26:02.31Z</time></trkpt><trkpt lat="43.93392" lon="11.02072"><ele>81.4</ele><time>2026-03-29T07:26:04.308Z</time></trkpt><trkpt lat="43.9339033" lon="11.0208267"><ele>81.8</ele><time>2026-03-29T07:26:06.309Z</time></trkpt><trkpt lat="43.9338617" lon="11.0209367"><ele>82.2</ele><time>2026-03-29T07:26:08.31Z</time></trkpt><trkpt lat="43.9338117" lon="11.021065"><ele>82.60000000000001</ele><time>2026-03-29T07:26:10.31Z</time></trkpt><trkpt lat="43.933765" lon="11.0211983"><ele>83.0</ele><time>2026-03-29T07:26:12.31Z</time></trkpt><trkpt lat="43.9337267" lon="11.021335"><ele>83.0</ele><time>2026-03-29T07:26:14.309Z</time></trkpt><trkpt lat="43.933685" lon="11.0214767"><ele>83.0</ele><time>2026-03-29T07:26:16.307Z</time></trkpt><trkpt lat="43.9336317" lon="11.021625"><ele>83.0</ele><time>2026-03-29T07:26:18.308Z</time></trkpt><trkpt lat="43.9336067" lon="11.0217067"><ele>83.0</ele><time>2026-03-29T07:26:19.307Z</time></trkpt><trkpt lat="43.9335817" lon="11.0217917"><ele>83.0</ele><time>2026-03-29T07:26:20.309Z</time></trkpt><trkpt lat="43.933555" lon="11.0218717"><ele>83.0</ele><time>2026-03-29T07:26:21.309Z</time></trkpt><trkpt lat="43.9335167" lon="11.021945"><ele>83.0</ele><time>2026-03-29T07:26:22.309Z</time></trkpt><trkpt lat="43.9334683" lon="11.022005"><ele>83.0</ele><time>2026-03-29T07:26:23.31Z</time></trkpt><trkpt lat="43.93341" lon="11.0220467"><ele>83.0</ele><time>2026-03-29T07:26:24.309Z</time></trkpt><trkpt lat="43.9333483" lon="11.02208"><ele>83.0</ele><time>2026-03-29T07:26:25.309Z</time></trkpt><trkpt lat="43.933285" lon="11.02211"><ele>83.0</ele><time>2026-03-29T07:26:26.309Z</time></trkpt><trkpt lat="43.9332183" lon="11.0221367"><ele>83.0</ele><time>2026-03-29T07:26:27.31Z</time></trkpt><trkpt lat="43.9331517" lon="11.02217"><ele>83.0</ele><time>2026-03-29T07:26:28.31Z</time></trkpt><trkpt lat="43.933085" lon="11.0221983"><ele>83.0</ele><time>2026-03-29T07:26:29.309Z</time></trkpt><trkpt lat="43.9330183" lon="11.0222217"><ele>83.0</ele><time>2026-03-29T07:26:30.309Z</time></trkpt><trkpt lat="43.9329467" lon="11.0222467"><ele>83.0</ele><time>2026-03-29T07:26:31.309Z</time></trkpt><trkpt lat="43.9328733" lon="11.022275"><ele>83.0</ele><time>2026-03-29T07:26:32.308Z</time></trkpt><trkpt lat="43.9328017" lon="11.022305"><ele>83.0</ele><time>2026-03-29T07:26:33.309Z</time></trkpt><trkpt lat="43.93273" lon="11.02234"><ele>83.0</ele><time>2026-03-29T07:26:34.308Z</time></trkpt><trkpt lat="43.9326567" lon="11.0223717"><ele>83.0</ele><time>2026-03-29T07:26:35.309Z</time></trkpt><trkpt lat="43.9325833" lon="11.0224067"><ele>82.66666666666667</ele><time>2026-03-29T07:26:36.309Z</time></trkpt><trkpt lat="43.932505" lon="11.02244"><ele>82.33333333333334</ele><time>2026-03-29T07:26:37.308Z</time></trkpt><trkpt lat="43.93243" lon="11.0224867"><ele>82.0</ele><time>2026-03-29T07:26:38.309Z</time></trkpt><trkpt lat="43.93236" lon="11.022535"><ele>81.66666666666667</ele><time>2026-03-29T07:26:39.309Z</time></trkpt><trkpt lat="43.9322933" lon="11.022575"><ele>81.33333333333333</ele><time>2026-03-29T07:26:40.307Z</time></trkpt><trkpt lat="43.9322283" lon="11.02263"><ele>81.0</ele><time>2026-03-29T07:26:41.308Z</time></trkpt><trkpt lat="43.9321683" lon="11.0226967"><ele>80.66666666666667</ele><time>2026-03-29T07:26:42.309Z</time></trkpt><trkpt lat="43.9321133" lon="11.02276"><ele>80.33333333333333</ele><time>2026-03-29T07:26:43.309Z</time></trkpt><trkpt lat="43.9320567" lon="11.022845"><ele>80.0</ele><time>2026-03-29T07:26:44.309Z</time></trkpt><trkpt lat="43.93201" lon="11.0229333"><ele>79.66666666666666</ele><time>2026-03-29T07:26:45.31Z</time></trkpt><trkpt lat="43.931965" lon="11.0230233"><ele>79.33333333333333</ele><time>2026-03-29T07:26:46.307Z</time></trkpt><trkpt lat="43.9319183" lon="11.023115"><ele>79.0</ele><time>2026-03-29T07:26:47.309Z</time></trkpt><trkpt lat="43.9318717" lon="11.0232"><ele>79.0</ele><time>2026-03-29T07:26:48.309Z</time></trkpt><trkpt lat="43.9318367" lon="11.0232917"><ele>79.0</ele><time>2026-03-29T07:26:49.308Z</time></trkpt><trkpt lat="43.9318" lon="11.0233783"><ele>79.0</ele><time>2026-03-29T07:26:50.309Z</time></trkpt><trkpt lat="43.931765" lon="11.0234617"><ele>79.0</ele><time>2026-03-29T07:26:51.31Z</time></trkpt><trkpt lat="43.9317067" lon="11.0235833"><ele>79.0</ele><time>2026-03-29T07:26:53.309Z</time></trkpt><trkpt lat="43.9316367" lon="11.02368"><ele>79.0</ele><time>2026-03-29T07:26:56.307Z</time></trkpt><trkpt lat="43.9315683" lon="11.0237683"><ele>79.2</ele><time>2026-03-29T07:26:58.309Z</time></trkpt><trkpt lat="43.9315233" lon="11.0239"><ele>79.4</ele><time>2026-03-29T07:27:00.308Z</time></trkpt><trkpt lat="43.93152" lon="11.0240483"><ele>79.6</ele><time>2026-03-29T07:27:02.308Z</time></trkpt><trkpt lat="43.931505" lon="11.0242"><ele>79.8</ele><time>2026-03-29T07:27:04.309Z</time></trkpt><trkpt lat="43.931465" lon="11.0243467"><ele>80.0</ele><time>2026-03-29T07:27:06.31Z</time></trkpt><trkpt lat="43.9314117" lon="11.0245083"><ele>80.2</ele><time>2026-03-29T07:27:08.311Z</time></trkpt><trkpt lat="43.9313867" lon="11.024595"><ele>80.4</ele><time>2026-03-29T07:27:09.31Z</time></trkpt><trkpt lat="43.931365" lon="11.0246917"><ele>80.6</ele><time>2026-03-29T07:27:10.309Z</time></trkpt><trkpt lat="43.9313233" lon="11.024855"><ele>80.8</ele><time>2026-03-29T07:27:12.309Z</time></trkpt><trkpt lat="43.931275" lon="11.0249983"><ele>81.0</ele><time>2026-03-29T07:27:14.309Z</time></trkpt><trkpt lat="43.9312383" lon="11.0251267"><ele>81.33333333333333</ele><time>2026-03-29T07:27:16.308Z</time></trkpt><trkpt lat="43.9312017" lon="11.0252433"><ele>81.66666666666667</ele><time>2026-03-29T07:27:18.308Z</time></trkpt><trkpt lat="43.931175" lon="11.0253433"><ele>82.0</ele><time>2026-03-29T07:27:20.31Z</time></trkpt><trkpt lat="43.93114" lon="11.0254317"><ele>82.33333333333334</ele><time>2026-03-29T07:27:23.309Z</time></trkpt><trkpt lat="43.93115" lon="11.0255283"><ele>82.66666666666667</ele><time>2026-03-29T07:28:14.31Z</time></trkpt><trkpt lat="43.93113" lon="11.025625"><ele>83.0</ele><time>2026-03-29T07:28:16.311Z</time></trkpt><trkpt lat="43.9311133" lon="11.025735"><ele>82.66666666666667</ele><time>2026-03-29T07:28:18.31Z</time></trkpt><trkpt lat="43.9310867" lon="11.0258667"><ele>82.33333333333334</ele><time>2026-03-29T07:28:20.311Z</time></trkpt><trkpt lat="43.9310483" lon="11.02602"><ele>82.0</ele><time>2026-03-29T07:28:22.308Z</time></trkpt><trkpt lat="43.9310267" lon="11.0261083"><ele>81.66666666666667</ele><time>2026-03-29T07:28:23.31Z</time></trkpt><trkpt lat="43.9310033" lon="11.026205"><ele>81.33333333333333</ele><time>2026-03-29T07:28:24.311Z</time></trkpt><trkpt lat="43.9309767" lon="11.026305"><ele>81.0</ele><time>2026-03-29T07:28:25.312Z</time></trkpt><trkpt lat="43.930945" lon="11.0264017"><ele>81.0</ele><time>2026-03-29T07:28:26.312Z</time></trkpt><trkpt lat="43.93091" lon="11.0264967"><ele>81.0</ele><time>2026-03-29T07:28:27.309Z</time></trkpt><trkpt lat="43.930875" lon="11.0265967"><ele>81.0</ele><time>2026-03-29T07:28:28.31Z</time></trkpt><trkpt lat="43.93084" lon="11.026695"><ele>81.0</ele><time>2026-03-29T07:28:29.311Z</time></trkpt><trkpt lat="43.9308067" lon="11.0267967"><ele>81.0</ele><time>2026-03-29T07:28:30.309Z</time></trkpt><trkpt lat="43.9307817" lon="11.0269033"><ele>81.0</ele><time>2026-03-29T07:28:31.31Z</time></trkpt><trkpt lat="43.9307617" lon="11.0270117"><ele>80.83333333333333</ele><time>2026-03-29T07:28:32.31Z</time></trkpt><trkpt lat="43.9307533" lon="11.0271233"><ele>80.66666666666667</ele><time>2026-03-29T07:28:33.31Z</time></trkpt><trkpt lat="43.9307517" lon="11.0272367"><ele>80.5</ele><time>2026-03-29T07:28:34.309Z</time></trkpt><trkpt lat="43.93075" lon="11.02735"><ele>80.33333333333334</ele><time>2026-03-29T07:28:35.312Z</time></trkpt><trkpt lat="43.9307517" lon="11.027465"><ele>80.16666666666667</ele><time>2026-03-29T07:28:36.31Z</time></trkpt><trkpt lat="43.9307533" lon="11.0275783"><ele>80.0</ele><time>2026-03-29T07:28:37.31Z</time></trkpt><trkpt lat="43.9307567" lon="11.0276933"><ele>80.0</ele><time>2026-03-29T07:28:38.31Z</time></trkpt><trkpt lat="43.9307583" lon="11.0278067"><ele>80.0</ele><time>2026-03-29T07:28:39.309Z</time></trkpt><trkpt lat="43.9307583" lon="11.027925"><ele>80.0</ele><time>2026-03-29T07:28:40.309Z</time></trkpt><trkpt lat="43.93076" lon="11.02804"><ele>80.0</ele><time>2026-03-29T07:28:41.31Z</time></trkpt><trkpt lat="43.9307617" lon="11.0281533"><ele>80.0</ele><time>2026-03-29T07:28:42.31Z</time></trkpt><trkpt lat="43.93076" lon="11.028265"><ele>80.0</ele><time>2026-03-29T07:28:43.311Z</time></trkpt><trkpt lat="43.9307583" lon="11.0283783"><ele>80.16666666666667</ele><time>2026-03-29T07:28:44.311Z</time></trkpt><trkpt lat="43.9307517" lon="11.0284933"><ele>80.33333333333334</ele><time>2026-03-29T07:28:45.309Z</time></trkpt><trkpt lat="43.9307483" lon="11.0286083"><ele>80.5</ele><time>2026-03-29T07:28:46.311Z</time></trkpt><trkpt lat="43.9307433" lon="11.028725"><ele>80.66666666666667</ele><time>2026-03-29T07:28:47.31Z</time></trkpt><trkpt lat="43.9307417" lon="11.0288433"><ele>80.83333333333333</ele><time>2026-03-29T07:28:48.31Z</time></trkpt><trkpt lat="43.9307367" lon="11.0289567"><ele>81.0</ele><time>2026-03-29T07:28:49.309Z</time></trkpt><trkpt lat="43.93073" lon="11.0290767"><ele>81.0</ele><time>2026-03-29T07:28:50.311Z</time></trkpt><trkpt lat="43.9307217" lon="11.029195"><ele>81.0</ele><time>2026-03-29T07:28:51.309Z</time></trkpt><trkpt lat="43.9307117" lon="11.0293117"><ele>81.0</ele><time>2026-03-29T07:28:52.31Z</time></trkpt><trkpt lat="43.9306967" lon="11.0294267"><ele>81.0</ele><time>2026-03-29T07:28:53.311Z</time></trkpt><trkpt lat="43.9306733" lon="11.0295417"><ele>81.0</ele><time>2026-03-29T07:28:54.311Z</time></trkpt><trkpt lat="43.9306417" lon="11.029655"><ele>81.0</ele><time>2026-03-29T07:28:55.314Z</time></trkpt><trkpt lat="43.9306017" lon="11.0297633"><ele>81.0</ele><time>2026-03-29T07:28:56.311Z</time></trkpt><trkpt lat="43.9305583" lon="11.0298683"><ele>81.0</ele><time>2026-03-29T07:28:57.308Z</time></trkpt><trkpt lat="43.930515" lon="11.029975"><ele>81.0</ele><time>2026-03-29T07:28:58.31Z</time></trkpt><trkpt lat="43.9304733" lon="11.0300783"><ele>81.0</ele><time>2026-03-29T07:28:59.31Z</time></trkpt><trkpt lat="43.9304317" lon="11.0301783"><ele>81.0</ele><time>2026-03-29T07:29:00.312Z</time></trkpt><trkpt lat="43.9303917" lon="11.0302783"><ele>81.0</ele><time>2026-03-29T07:29:01.311Z</time></trkpt><trkpt lat="43.9303517" lon="11.0303783"><ele>81.0</ele><time>2026-03-29T07:29:02.309Z</time></trkpt><trkpt lat="43.9303117" lon="11.0304767"><ele>81.0</ele><time>2026-03-29T07:29:03.311Z</time></trkpt><trkpt lat="43.93027" lon="11.0305717"><ele>81.0</ele><time>2026-03-29T07:29:04.307Z</time></trkpt><trkpt lat="43.9302333" lon="11.03067"><ele>81.0</ele><time>2026-03-29T07:29:05.309Z</time></trkpt><trkpt lat="43.9302033" lon="11.03077"><ele>81.0</ele><time>2026-03-29T07:29:06.311Z</time></trkpt><trkpt lat="43.9301783" lon="11.0308717"><ele>81.0</ele><time>2026-03-29T07:29:07.31Z</time></trkpt><trkpt lat="43.9301533" lon="11.0309767"><ele>81.0</ele><time>2026-03-29T07:29:08.31Z</time></trkpt><trkpt lat="43.930125" lon="11.031085"><ele>81.0</ele><time>2026-03-29T07:29:09.31Z</time></trkpt><trkpt lat="43.9300967" lon="11.031195"><ele>81.0</ele><time>2026-03-29T07:29:10.31Z</time></trkpt><trkpt lat="43.9300667" lon="11.0313"><ele>81.0</ele><time>2026-03-29T07:29:11.31Z</time></trkpt><trkpt lat="43.93003" lon="11.0314"><ele>81.0</ele><time>2026-03-29T07:29:12.311Z</time></trkpt><trkpt lat="43.9299817" lon="11.0314917"><ele>81.0</ele><time>2026-03-29T07:29:13.31Z</time></trkpt><trkpt lat="43.9299317" lon="11.0315833"><ele>80.5</ele><time>2026-03-29T07:29:14.31Z</time></trkpt><trkpt lat="43.9298767" lon="11.0316733"><ele>80.0</ele><time>2026-03-29T07:29:15.309Z</time></trkpt><trkpt lat="43.929815" lon="11.0317617"><ele>79.5</ele><time>2026-03-29T07:29:16.31Z</time></trkpt><trkpt lat="43.929755" lon="11.031845"><ele>79.0</ele><time>2026-03-29T07:29:17.309Z</time></trkpt><trkpt lat="43.929695" lon="11.0319233"><ele>78.5</ele><time>2026-03-29T07:29:18.31Z</time></trkpt><trkpt lat="43.9296433" lon="11.0319983"><ele>78.0</ele><time>2026-03-29T07:29:19.311Z</time></trkpt><trkpt lat="43.9295933" lon="11.0320667"><ele>78.0</ele><time>2026-03-29T07:29:20.312Z</time></trkpt><trkpt lat="43.929545" lon="11.0321267"><ele>78.0</ele><time>2026-03-29T07:29:21.309Z</time></trkpt><trkpt lat="43.92949" lon="11.03218"><ele>78.0</ele><time>2026-03-29T07:29:22.31Z</time></trkpt><trkpt lat="43.9294283" lon="11.0322217"><ele>78.0</ele><time>2026-03-29T07:29:23.31Z</time></trkpt><trkpt lat="43.9293733" lon="11.0322667"><ele>78.0</ele><time>2026-03-29T07:29:24.31Z</time></trkpt><trkpt lat="43.9293267" lon="11.032335"><ele>78.0</ele><time>2026-03-29T07:29:25.312Z</time></trkpt><trkpt lat="43.9292933" lon="11.0324233"><ele>78.0</ele><time>2026-03-29T07:29:26.309Z</time></trkpt><trkpt lat="43.9292533" lon="11.0325067"><ele>77.66666666666667</ele><time>2026-03-29T07:29:27.31Z</time></trkpt><trkpt lat="43.9292067" lon="11.0325917"><ele>77.33333333333333</ele><time>2026-03-29T07:29:28.309Z</time></trkpt><trkpt lat="43.9291517" lon="11.0326733"><ele>77.0</ele><time>2026-03-29T07:29:29.31Z</time></trkpt><trkpt lat="43.9290967" lon="11.0327533"><ele>76.66666666666666</ele><time>2026-03-29T07:29:30.31Z</time></trkpt><trkpt lat="43.9290417" lon="11.0328367"><ele>76.33333333333333</ele><time>2026-03-29T07:29:31.311Z</time></trkpt><trkpt lat="43.928985" lon="11.0329167"><ele>76.0</ele><time>2026-03-29T07:29:32.311Z</time></trkpt><trkpt lat="43.9289283" lon="11.033"><ele>76.0</ele><time>2026-03-29T07:29:33.309Z</time></trkpt><trkpt lat="43.9288767" lon="11.033085"><ele>76.0</ele><time>2026-03-29T07:29:34.31Z</time></trkpt><trkpt lat="43.9288267" lon="11.033175"><ele>76.0</ele><time>2026-03-29T07:29:35.311Z</time></trkpt><trkpt lat="43.9287817" lon="11.0332683"><ele>76.0</ele><time>2026-03-29T07:29:36.313Z</time></trkpt><trkpt lat="43.9287417" lon="11.0333667"><ele>76.0</ele><time>2026-03-29T07:29:37.31Z</time></trkpt><trkpt lat="43.9286983" lon="11.0334667"><ele>76.0</ele><time>2026-03-29T07:29:38.311Z</time></trkpt><trkpt lat="43.9286583" lon="11.0335717"><ele>76.0</ele><time>2026-03-29T07:29:39.308Z</time></trkpt><trkpt lat="43.92862" lon="11.03368"><ele>76.0</ele><time>2026-03-29T07:29:40.312Z</time></trkpt><trkpt lat="43.92858" lon="11.0337867"><ele>76.0</ele><time>2026-03-29T07:29:41.309Z</time></trkpt><trkpt lat="43.9285417" lon="11.0338933"><ele>76.0</ele><time>2026-03-29T07:29:42.312Z</time></trkpt><trkpt lat="43.9285" lon="11.0340033"><ele>76.0</ele><time>2026-03-29T07:29:43.311Z</time></trkpt><trkpt lat="43.9284633" lon="11.034115"><ele>76.0</ele><time>2026-03-29T07:29:44.312Z</time></trkpt><trkpt lat="43.9284267" lon="11.0342283"><ele>76.0</ele><time>2026-03-29T07:29:45.309Z</time></trkpt><trkpt lat="43.9283883" lon="11.0343417"><ele>76.0</ele><time>2026-03-29T07:29:46.31Z</time></trkpt><trkpt lat="43.9283483" lon="11.0344533"><ele>76.0</ele><time>2026-03-29T07:29:47.31Z</time></trkpt><trkpt lat="43.9283083" lon="11.034565"><ele>76.0</ele><time>2026-03-29T07:29:48.309Z</time></trkpt><trkpt lat="43.9282667" lon="11.0346767"><ele>76.0</ele><time>2026-03-29T07:29:49.311Z</time></trkpt><trkpt lat="43.9282217" lon="11.03478"><ele>76.0</ele><time>2026-03-29T07:29:50.31Z</time></trkpt><trkpt lat="43.9281733" lon="11.0348817"><ele>75.83333333333333</ele><time>2026-03-29T07:29:51.309Z</time></trkpt><trkpt lat="43.92812" lon="11.0349767"><ele>75.66666666666666</ele><time>2026-03-29T07:29:52.31Z</time></trkpt><trkpt lat="43.9280617" lon="11.0350667"><ele>75.5</ele><time>2026-03-29T07:29:53.311Z</time></trkpt><trkpt lat="43.9280033" lon="11.0351483"><ele>75.33333333333333</ele><time>2026-03-29T07:29:54.31Z</time></trkpt><trkpt lat="43.9279483" lon="11.0352233"><ele>75.16666666666667</ele><time>2026-03-29T07:29:55.311Z</time></trkpt><trkpt lat="43.927895" lon="11.035285"><ele>75.0</ele><time>2026-03-29T07:29:56.309Z</time></trkpt><trkpt lat="43.9277833" lon="11.0353417"><ele>75.0</ele><time>2026-03-29T07:29:58.31Z</time></trkpt><trkpt lat="43.9277183" lon="11.0353333"><ele>75.0</ele><time>2026-03-29T07:29:59.31Z</time></trkpt><trkpt lat="43.9276133" lon="11.035375"><ele>75.0</ele><time>2026-03-29T07:30:01.309Z</time></trkpt><trkpt lat="43.927585" lon="11.0355033"><ele>75.0</ele><time>2026-03-29T07:30:03.31Z</time></trkpt><trkpt lat="43.9275817" lon="11.0356633"><ele>75.0</ele><time>2026-03-29T07:30:05.311Z</time></trkpt><trkpt lat="43.92753" lon="11.0357983"><ele>75.33333333333333</ele><time>2026-03-29T07:30:07.309Z</time></trkpt><trkpt lat="43.92747" lon="11.035895"><ele>75.66666666666667</ele><time>2026-03-29T07:30:09.309Z</time></trkpt><trkpt lat="43.927445" lon="11.0359917"><ele>76.0</ele><time>2026-03-29T07:30:11.309Z</time></trkpt><trkpt lat="43.9274817" lon="11.036095"><ele>76.33333333333334</ele><time>2026-03-29T07:30:14.309Z</time></trkpt><trkpt lat="43.927555" lon="11.036125"><ele>76.66666666666667</ele><time>2026-03-29T07:30:17.31Z</time></trkpt><trkpt lat="43.9275183" lon="11.0360267"><ele>77.0</ele><time>2026-03-29T07:30:21.309Z</time></trkpt><trkpt lat="43.9274533" lon="11.0360033"><ele>77.0</ele><time>2026-03-29T07:30:23.31Z</time></trkpt><trkpt lat="43.9273733" lon="11.0360217"><ele>77.0</ele><time>2026-03-29T07:30:26.309Z</time></trkpt><trkpt lat="43.9273283" lon="11.0360883"><ele>77.0</ele><time>2026-03-29T07:30:29.309Z</time></trkpt><trkpt lat="43.92729" lon="11.0361767"><ele>77.0</ele><time>2026-03-29T07:30:31.313Z</time></trkpt><trkpt lat="43.927245" lon="11.0362683"><ele>77.0</ele><time>2026-03-29T07:30:33.309Z</time></trkpt><trkpt lat="43.9271917" lon="11.03634"><ele>77.0</ele><time>2026-03-29T07:30:35.31Z</time></trkpt><trkpt lat="43.9271467" lon="11.0364183"><ele>77.0</ele><time>2026-03-29T07:30:37.311Z</time></trkpt><trkpt lat="43.9271067" lon="11.0365017"><ele>77.0</ele><time>2026-03-29T07:30:39.31Z</time></trkpt><trkpt lat="43.9270733" lon="11.0365817"><ele>77.0</ele><time>2026-03-29T07:30:41.309Z</time></trkpt><trkpt lat="43.9270383" lon="11.0366917"><ele>77.0</ele><time>2026-03-29T07:30:44.308Z</time></trkpt><trkpt lat="43.9269983" lon="11.0367883"><ele>77.0</ele><time>2026-03-29T07:30:47.309Z</time></trkpt><trkpt lat="43.92691" lon="11.0367983"><ele>77.0</ele><time>2026-03-29T07:30:50.312Z</time></trkpt><trkpt lat="43.926835" lon="11.03681"><ele>77.0</ele><time>2026-03-29T07:30:52.31Z</time></trkpt><trkpt lat="43.9267867" lon="11.036905"><ele>77.16666666666667</ele><time>2026-03-29T07:30:54.309Z</time></trkpt><trkpt lat="43.9267817" lon="11.0370067"><ele>77.33333333333334</ele><time>2026-03-29T07:30:56.309Z</time></trkpt><trkpt lat="43.9267833" lon="11.0371117"><ele>77.5</ele><time>2026-03-29T07:30:58.31Z</time></trkpt><trkpt lat="43.9267683" lon="11.037235"><ele>77.66666666666667</ele><time>2026-03-29T07:31:00.308Z</time></trkpt><trkpt lat="43.9267333" lon="11.0373583"><ele>77.83333333333333</ele><time>2026-03-29T07:31:02.311Z</time></trkpt><trkpt lat="43.9266917" lon="11.0374983"><ele>78.0</ele><time>2026-03-29T07:31:04.31Z</time></trkpt><trkpt lat="43.92664" lon="11.0376433"><ele>78.0</ele><time>2026-03-29T07:31:06.31Z</time></trkpt><trkpt lat="43.9265883" lon="11.0377917"><ele>78.0</ele><time>2026-03-29T07:31:08.311Z</time></trkpt><trkpt lat="43.926535" lon="11.0379417"><ele>78.0</ele><time>2026-03-29T07:31:10.312Z</time></trkpt><trkpt lat="43.92648" lon="11.03809"><ele>78.0</ele><time>2026-03-29T07:31:12.31Z</time></trkpt><trkpt lat="43.92643" lon="11.038245"><ele>78.0</ele><time>2026-03-29T07:31:14.309Z</time></trkpt><trkpt lat="43.9263817" lon="11.0384033"><ele>78.0</ele><time>2026-03-29T07:31:16.312Z</time></trkpt><trkpt lat="43.926355" lon="11.03849"><ele>78.0</ele><time>2026-03-29T07:31:17.31Z</time></trkpt><trkpt lat="43.9263317" lon="11.0385833"><ele>78.0</ele><time>2026-03-29T07:31:18.309Z</time></trkpt><trkpt lat="43.9263067" lon="11.03868"><ele>78.0</ele><time>2026-03-29T07:31:19.312Z</time></trkpt><trkpt lat="43.92628" lon="11.0387767"><ele>78.0</ele><time>2026-03-29T07:31:20.311Z</time></trkpt><trkpt lat="43.9262533" lon="11.0388717"><ele>78.0</ele><time>2026-03-29T07:31:21.309Z</time></trkpt><trkpt lat="43.926225" lon="11.0389683"><ele>78.0</ele><time>2026-03-29T07:31:22.31Z</time></trkpt><trkpt lat="43.9261967" lon="11.0390683"><ele>78.0</ele><time>2026-03-29T07:31:23.311Z</time></trkpt><trkpt lat="43.9261683" lon="11.039165"><ele>78.0</ele><time>2026-03-29T07:31:24.309Z</time></trkpt><trkpt lat="43.9261417" lon="11.0392633"><ele>78.0</ele><time>2026-03-29T07:31:25.311Z</time></trkpt><trkpt lat="43.9261167" lon="11.03936"><ele>78.0</ele><time>2026-03-29T07:31:26.309Z</time></trkpt><trkpt lat="43.926095" lon="11.0394617"><ele>78.33333333333333</ele><time>2026-03-29T07:31:27.31Z</time></trkpt><trkpt lat="43.9260683" lon="11.0395583"><ele>78.66666666666667</ele><time>2026-03-29T07:31:28.31Z</time></trkpt><trkpt lat="43.9260383" lon="11.0396583"><ele>79.0</ele><time>2026-03-29T07:31:29.31Z</time></trkpt><trkpt lat="43.9260017" lon="11.039755"><ele>79.33333333333334</ele><time>2026-03-29T07:31:30.311Z</time></trkpt><trkpt lat="43.925955" lon="11.0398467"><ele>79.66666666666667</ele><time>2026-03-29T07:31:31.313Z</time></trkpt><trkpt lat="43.9259017" lon="11.0399317"><ele>80.0</ele><time>2026-03-29T07:31:32.31Z</time></trkpt><trkpt lat="43.9258433" lon="11.0400133"><ele>79.16666666666667</ele><time>2026-03-29T07:31:33.309Z</time></trkpt><trkpt lat="43.9257817" lon="11.0400933"><ele>78.33333333333334</ele><time>2026-03-29T07:31:34.311Z</time></trkpt><trkpt lat="43.9257167" lon="11.040165"><ele>77.5</ele><time>2026-03-29T07:31:35.309Z</time></trkpt><trkpt lat="43.9256483" lon="11.0402317"><ele>76.66666666666667</ele><time>2026-03-29T07:31:36.312Z</time></trkpt><trkpt lat="43.9255767" lon="11.04029"><ele>75.83333333333333</ele><time>2026-03-29T07:31:37.311Z</time></trkpt><trkpt lat="43.9255033" lon="11.0403417"><ele>75.0</ele><time>2026-03-29T07:31:38.311Z</time></trkpt><trkpt lat="43.9254283" lon="11.0403917"><ele>75.0</ele><time>2026-03-29T07:31:39.311Z</time></trkpt><trkpt lat="43.9253517" lon="11.04044"><ele>75.0</ele><time>2026-03-29T07:31:40.31Z</time></trkpt><trkpt lat="43.925275" lon="11.0404883"><ele>75.0</ele><time>2026-03-29T07:31:41.31Z</time></trkpt><trkpt lat="43.9251983" lon="11.0405433"><ele>75.0</ele><time>2026-03-29T07:31:42.309Z</time></trkpt><trkpt lat="43.9251217" lon="11.0406"><ele>75.0</ele><time>2026-03-29T07:31:43.312Z</time></trkpt><trkpt lat="43.9250533" lon="11.0406683"><ele>75.0</ele><time>2026-03-29T07:31:44.31Z</time></trkpt><trkpt lat="43.9249967" lon="11.040745"><ele>74.5</ele><time>2026-03-29T07:31:45.31Z</time></trkpt><trkpt lat="43.924945" lon="11.0408317"><ele>74.0</ele><time>2026-03-29T07:31:46.31Z</time></trkpt><trkpt lat="43.9249033" lon="11.04093"><ele>73.5</ele><time>2026-03-29T07:31:47.31Z</time></trkpt><trkpt lat="43.9248683" lon="11.0410317"><ele>73.0</ele><time>2026-03-29T07:31:48.31Z</time></trkpt><trkpt lat="43.9248367" lon="11.0411317"><ele>72.5</ele><time>2026-03-29T07:31:49.308Z</time></trkpt><trkpt lat="43.9248017" lon="11.0412267"><ele>72.0</ele><time>2026-03-29T07:31:50.309Z</time></trkpt><trkpt lat="43.9247667" lon="11.04132"><ele>72.0</ele><time>2026-03-29T07:31:51.308Z</time></trkpt><trkpt lat="43.9247333" lon="11.041415"><ele>72.0</ele><time>2026-03-29T07:31:52.31Z</time></trkpt><trkpt lat="43.9247" lon="11.0415083"><ele>72.0</ele><time>2026-03-29T07:31:53.31Z</time></trkpt><trkpt lat="43.9246667" lon="11.0416033"><ele>72.0</ele><time>2026-03-29T07:31:54.312Z</time></trkpt><trkpt lat="43.924635" lon="11.0416983"><ele>72.0</ele><time>2026-03-29T07:31:55.31Z</time></trkpt><trkpt lat="43.9246" lon="11.0417917"><ele>72.0</ele><time>2026-03-29T07:31:56.311Z</time></trkpt><trkpt lat="43.924565" lon="11.0418817"><ele>72.5</ele><time>2026-03-29T07:31:57.31Z</time></trkpt><trkpt lat="43.9245283" lon="11.041975"><ele>73.0</ele><time>2026-03-29T07:31:58.31Z</time></trkpt><trkpt lat="43.9244883" lon="11.04207"><ele>73.5</ele><time>2026-03-29T07:31:59.311Z</time></trkpt><trkpt lat="43.92445" lon="11.0421683"><ele>74.0</ele><time>2026-03-29T07:32:00.311Z</time></trkpt><trkpt lat="43.9244117" lon="11.0422667"><ele>74.5</ele><time>2026-03-29T07:32:01.311Z</time></trkpt><trkpt lat="43.9243733" lon="11.0423633"><ele>75.0</ele><time>2026-03-29T07:32:02.309Z</time></trkpt><trkpt lat="43.9243367" lon="11.04246"><ele>74.83333333333333</ele><time>2026-03-29T07:32:03.31Z</time></trkpt><trkpt lat="43.924305" lon="11.0425633"><ele>74.66666666666667</ele><time>2026-03-29T07:32:04.31Z</time></trkpt><trkpt lat="43.92427" lon="11.042665"><ele>74.5</ele><time>2026-03-29T07:32:05.309Z</time></trkpt><trkpt lat="43.92423" lon="11.0427683"><ele>74.33333333333334</ele><time>2026-03-29T07:32:06.311Z</time></trkpt><trkpt lat="43.9241867" lon="11.0428667"><ele>74.16666666666667</ele><time>2026-03-29T07:32:07.31Z</time></trkpt><trkpt lat="43.9241467" lon="11.0429667"><ele>74.0</ele><time>2026-03-29T07:32:08.312Z</time></trkpt><trkpt lat="43.9241117" lon="11.04307"><ele>74.0</ele><time>2026-03-29T07:32:09.308Z</time></trkpt><trkpt lat="43.9240817" lon="11.0431767"><ele>74.0</ele><time>2026-03-29T07:32:10.311Z</time></trkpt><trkpt lat="43.9240567" lon="11.0432867"><ele>74.0</ele><time>2026-03-29T07:32:11.309Z</time></trkpt><trkpt lat="43.9240383" lon="11.0433983"><ele>74.0</ele><time>2026-03-29T07:32:12.311Z</time></trkpt><trkpt lat="43.9240233" lon="11.0435117"><ele>74.0</ele><time>2026-03-29T07:32:13.31Z</time></trkpt><trkpt lat="43.9240067" lon="11.0436267"><ele>74.0</ele><time>2026-03-29T07:32:14.308Z</time></trkpt><trkpt lat="43.9239933" lon="11.0437367"><ele>74.33333333333334</ele><time>2026-03-29T07:32:15.309Z</time></trkpt><trkpt lat="43.92398" lon="11.0438467"><ele>74.66666666666667</ele><time>2026-03-29T07:32:16.308Z</time></trkpt><trkpt lat="43.92397" lon="11.0439567"><ele>75.0</ele><time>2026-03-29T07:32:17.309Z</time></trkpt><trkpt lat="43.92396" lon="11.0440683"><ele>75.33333333333333</ele><time>2026-03-29T07:32:18.311Z</time></trkpt><trkpt lat="43.9239533" lon="11.0441817"><ele>75.66666666666666</ele><time>2026-03-29T07:32:19.31Z</time></trkpt><trkpt lat="43.923945" lon="11.04429"><ele>76.0</ele><time>2026-03-29T07:32:20.309Z</time></trkpt><trkpt lat="43.92393" lon="11.0443967"><ele>76.5</ele><time>2026-03-29T07:32:21.311Z</time></trkpt><trkpt lat="43.9239083" lon="11.0445033"><ele>77.0</ele><time>2026-03-29T07:32:22.311Z</time></trkpt><trkpt lat="43.9238733" lon="11.0445967"><ele>77.5</ele><time>2026-03-29T07:32:23.312Z</time></trkpt><trkpt lat="43.9238283" lon="11.0446833"><ele>78.0</ele><time>2026-03-29T07:32:24.309Z</time></trkpt><trkpt lat="43.9237817" lon="11.0447717"><ele>78.5</ele><time>2026-03-29T07:32:25.31Z</time></trkpt><trkpt lat="43.92374" lon="11.04487"><ele>79.0</ele><time>2026-03-29T07:32:26.309Z</time></trkpt><trkpt lat="43.9237" lon="11.0449683"><ele>79.66666666666666</ele><time>2026-03-29T07:32:27.309Z</time></trkpt><trkpt lat="43.9236617" lon="11.0450667"><ele>80.33333333333333</ele><time>2026-03-29T07:32:28.31Z</time></trkpt><trkpt lat="43.9236333" lon="11.0451717"><ele>81.0</ele><time>2026-03-29T07:32:29.309Z</time></trkpt><trkpt lat="43.92362" lon="11.0452883"><ele>81.66666666666667</ele><time>2026-03-29T07:32:30.309Z</time></trkpt><trkpt lat="43.9236183" lon="11.0454133"><ele>82.33333333333334</ele><time>2026-03-29T07:32:31.311Z</time></trkpt><trkpt lat="43.9236317" lon="11.0455467"><ele>83.0</ele><time>2026-03-29T07:32:32.311Z</time></trkpt><trkpt lat="43.9236583" lon="11.04568"><ele>82.75</ele><time>2026-03-29T07:32:33.31Z</time></trkpt><trkpt lat="43.9236883" lon="11.0458167"><ele>82.5</ele><time>2026-03-29T07:32:34.309Z</time></trkpt><trkpt lat="43.9237233" lon="11.0459667"><ele>82.25</ele><time>2026-03-29T07:32:35.311Z</time></trkpt><trkpt lat="43.9237517" lon="11.0461233"><ele>82.0</ele><time>2026-03-29T07:32:36.31Z</time></trkpt><trkpt lat="43.923775" lon="11.0462867"><ele>82.0</ele><time>2026-03-29T07:32:37.31Z</time></trkpt><trkpt lat="43.923795" lon="11.046455"><ele>82.0</ele><time>2026-03-29T07:32:38.311Z</time></trkpt><trkpt lat="43.9238083" lon="11.0466233"><ele>82.0</ele><time>2026-03-29T07:32:39.311Z</time></trkpt><trkpt lat="43.923815" lon="11.04679"><ele>82.0</ele><time>2026-03-29T07:32:40.309Z</time></trkpt><trkpt lat="43.92382" lon="11.0469567"><ele>80.75</ele><time>2026-03-29T07:32:41.309Z</time></trkpt><trkpt lat="43.9238267" lon="11.0471183"><ele>79.5</ele><time>2026-03-29T07:32:42.312Z</time></trkpt><trkpt lat="43.92383" lon="11.0472783"><ele>78.25</ele><time>2026-03-29T07:32:43.311Z</time></trkpt><trkpt lat="43.92383" lon="11.0474383"><ele>77.0</ele><time>2026-03-29T07:32:44.311Z</time></trkpt><trkpt lat="43.9238317" lon="11.0475967"><ele>76.4</ele><time>2026-03-29T07:32:45.31Z</time></trkpt><trkpt lat="43.9238317" lon="11.0477533"><ele>75.80000000000001</ele><time>2026-03-29T07:32:46.309Z</time></trkpt><trkpt lat="43.9238267" lon="11.0479033"><ele>75.2</ele><time>2026-03-29T07:32:47.313Z</time></trkpt><trkpt lat="43.92382" lon="11.04805"><ele>74.60000000000001</ele><time>2026-03-29T07:32:48.311Z</time></trkpt><trkpt lat="43.9238083" lon="11.0481933"><ele>74.0</ele><time>2026-03-29T07:32:49.31Z</time></trkpt><trkpt lat="43.923795" lon="11.0483333"><ele>73.8</ele><time>2026-03-29T07:32:50.31Z</time></trkpt><trkpt lat="43.92378" lon="11.0484683"><ele>73.60000000000001</ele><time>2026-03-29T07:32:51.31Z</time></trkpt><trkpt lat="43.9237617" lon="11.0486"><ele>73.4</ele><time>2026-03-29T07:32:52.309Z</time></trkpt><trkpt lat="43.9237367" lon="11.0487383"><ele>73.2</ele><time>2026-03-29T07:32:53.31Z</time></trkpt><trkpt lat="43.9237067" lon="11.0488717"><ele>73.0</ele><time>2026-03-29T07:32:54.31Z</time></trkpt><trkpt lat="43.9236733" lon="11.0490017"><ele>73.0</ele><time>2026-03-29T07:32:55.31Z</time></trkpt><trkpt lat="43.9236367" lon="11.04913"><ele>73.0</ele><time>2026-03-29T07:32:56.311Z</time></trkpt><trkpt lat="43.9236" lon="11.0492567"><ele>73.0</ele><time>2026-03-29T07:32:57.309Z</time></trkpt><trkpt lat="43.9235667" lon="11.049385"><ele>73.0</ele><time>2026-03-29T07:32:58.309Z</time></trkpt><trkpt lat="43.923535" lon="11.04952"><ele>73.0</ele><time>2026-03-29T07:32:59.311Z</time></trkpt><trkpt lat="43.9235033" lon="11.049655"><ele>73.0</ele><time>2026-03-29T07:33:00.31Z</time></trkpt><trkpt lat="43.9234767" lon="11.0497883"><ele>73.0</ele><time>2026-03-29T07:33:01.309Z</time></trkpt><trkpt lat="43.9234583" lon="11.0499233"><ele>73.0</ele><time>2026-03-29T07:33:02.309Z</time></trkpt><trkpt lat="43.92344" lon="11.0500583"><ele>73.0</ele><time>2026-03-29T07:33:03.308Z</time></trkpt><trkpt lat="43.92342" lon="11.0501917"><ele>73.0</ele><time>2026-03-29T07:33:04.308Z</time></trkpt><trkpt lat="43.9233967" lon="11.0503233"><ele>72.5</ele><time>2026-03-29T07:33:05.312Z</time></trkpt><trkpt lat="43.923375" lon="11.0504517"><ele>72.0</ele><time>2026-03-29T07:33:06.309Z</time></trkpt><trkpt lat="43.9233583" lon="11.0505783"><ele>71.5</ele><time>2026-03-29T07:33:07.31Z</time></trkpt><trkpt lat="43.9233417" lon="11.0506983"><ele>71.0</ele><time>2026-03-29T07:33:08.312Z</time></trkpt><trkpt lat="43.9233283" lon="11.0508167"><ele>70.5</ele><time>2026-03-29T07:33:09.309Z</time></trkpt><trkpt lat="43.9233083" lon="11.0509267"><ele>70.0</ele><time>2026-03-29T07:33:10.31Z</time></trkpt><trkpt lat="43.9232833" lon="11.0510367"><ele>69.83333333333333</ele><time>2026-03-29T07:33:11.309Z</time></trkpt><trkpt lat="43.9232583" lon="11.0511483"><ele>69.66666666666666</ele><time>2026-03-29T07:33:12.309Z</time></trkpt><trkpt lat="43.9232283" lon="11.051265"><ele>69.5</ele><time>2026-03-29T07:33:13.31Z</time></trkpt><trkpt lat="43.923195" lon="11.0513833"><ele>69.33333333333333</ele><time>2026-03-29T07:33:14.31Z</time></trkpt><trkpt lat="43.92316" lon="11.0515"><ele>69.16666666666667</ele><time>2026-03-29T07:33:15.309Z</time></trkpt><trkpt lat="43.923125" lon="11.0516167"><ele>69.0</ele><time>2026-03-29T07:33:16.309Z</time></trkpt><trkpt lat="43.9230867" lon="11.0517267"><ele>69.0</ele><time>2026-03-29T07:33:17.31Z</time></trkpt><trkpt lat="43.92304" lon="11.0518367"><ele>69.0</ele><time>2026-03-29T07:33:18.312Z</time></trkpt><trkpt lat="43.922985" lon="11.051945"><ele>69.0</ele><time>2026-03-29T07:33:19.311Z</time></trkpt><trkpt lat="43.922925" lon="11.052055"><ele>69.0</ele><time>2026-03-29T07:33:20.31Z</time></trkpt><trkpt lat="43.922865" lon="11.0521683"><ele>69.0</ele><time>2026-03-29T07:33:21.309Z</time></trkpt><trkpt lat="43.922805" lon="11.0522767"><ele>69.0</ele><time>2026-03-29T07:33:22.309Z</time></trkpt><trkpt lat="43.922745" lon="11.052385"><ele>69.0</ele><time>2026-03-29T07:33:23.31Z</time></trkpt><trkpt lat="43.9226867" lon="11.052495"><ele>69.0</ele><time>2026-03-29T07:33:24.311Z</time></trkpt><trkpt lat="43.922625" lon="11.0526017"><ele>69.0</ele><time>2026-03-29T07:33:25.311Z</time></trkpt><trkpt lat="43.9225617" lon="11.0527083"><ele>69.0</ele><time>2026-03-29T07:33:26.312Z</time></trkpt><trkpt lat="43.9224967" lon="11.0528233"><ele>68.60000000000001</ele><time>2026-03-29T07:33:27.309Z</time></trkpt><trkpt lat="43.922435" lon="11.0529383"><ele>68.2</ele><time>2026-03-29T07:33:28.311Z</time></trkpt><trkpt lat="43.9223733" lon="11.0530483"><ele>67.80000000000001</ele><time>2026-03-29T07:33:29.31Z</time></trkpt><trkpt lat="43.9223083" lon="11.05316"><ele>67.4</ele><time>2026-03-29T07:33:30.31Z</time></trkpt><trkpt lat="43.9222467" lon="11.053275"><ele>67.0</ele><time>2026-03-29T07:33:31.31Z</time></trkpt><trkpt lat="43.9221833" lon="11.0533883"><ele>67.0</ele><time>2026-03-29T07:33:32.31Z</time></trkpt><trkpt lat="43.9221183" lon="11.0535017"><ele>67.0</ele><time>2026-03-29T07:33:33.308Z</time></trkpt><trkpt lat="43.9220517" lon="11.0536167"><ele>67.0</ele><time>2026-03-29T07:33:34.309Z</time></trkpt><trkpt lat="43.921985" lon="11.05373"><ele>67.0</ele><time>2026-03-29T07:33:35.311Z</time></trkpt><trkpt lat="43.9219167" lon="11.0538467"><ele>67.0</ele><time>2026-03-29T07:33:36.31Z</time></trkpt><trkpt lat="43.9218517" lon="11.0539617"><ele>67.0</ele><time>2026-03-29T07:33:37.309Z</time></trkpt><trkpt lat="43.9217883" lon="11.0540783"><ele>67.0</ele><time>2026-03-29T07:33:38.311Z</time></trkpt><trkpt lat="43.9217217" lon="11.0541883"><ele>67.0</ele><time>2026-03-29T07:33:39.311Z</time></trkpt><trkpt lat="43.9216517" lon="11.054295"><ele>67.0</ele><time>2026-03-29T07:33:40.31Z</time></trkpt><trkpt lat="43.92158" lon="11.0543933"><ele>67.0</ele><time>2026-03-29T07:33:41.309Z</time></trkpt><trkpt lat="43.9215033" lon="11.0544917"><ele>67.6</ele><time>2026-03-29T07:33:42.309Z</time></trkpt><trkpt lat="43.9214267" lon="11.0545867"><ele>68.2</ele><time>2026-03-29T07:33:43.31Z</time></trkpt><trkpt lat="43.9213483" lon="11.0546733"><ele>68.8</ele><time>2026-03-29T07:33:44.313Z</time></trkpt><trkpt lat="43.921265" lon="11.0547633"><ele>69.4</ele><time>2026-03-29T07:33:45.311Z</time></trkpt><trkpt lat="43.9211767" lon="11.0548517"><ele>70.0</ele><time>2026-03-29T07:33:46.311Z</time></trkpt><trkpt lat="43.92109" lon="11.05494"><ele>69.8</ele><time>2026-03-29T07:33:47.31Z</time></trkpt><trkpt lat="43.921" lon="11.055025"><ele>69.6</ele><time>2026-03-29T07:33:48.31Z</time></trkpt><trkpt lat="43.920905" lon="11.0551067"><ele>69.4</ele><time>2026-03-29T07:33:49.311Z</time></trkpt><trkpt lat="43.920805" lon="11.05518"><ele>69.2</ele><time>2026-03-29T07:33:50.309Z</time></trkpt><trkpt lat="43.9207017" lon="11.0552467"><ele>69.0</ele><time>2026-03-29T07:33:51.31Z</time></trkpt><trkpt lat="43.9205933" lon="11.055305"><ele>70.25</ele><time>2026-03-29T07:33:52.31Z</time></trkpt><trkpt lat="43.920485" lon="11.05536"><ele>71.5</ele><time>2026-03-29T07:33:53.308Z</time></trkpt><trkpt lat="43.9203717" lon="11.0554"><ele>72.75</ele><time>2026-03-29T07:33:54.31Z</time></trkpt><trkpt lat="43.9202583" lon="11.05545"><ele>74.0</ele><time>2026-03-29T07:33:55.311Z</time></trkpt><trkpt lat="43.9201483" lon="11.0555083"><ele>73.5</ele><time>2026-03-29T07:33:56.31Z</time></trkpt><trkpt lat="43.920045" lon="11.055575"><ele>73.0</ele><time>2026-03-29T07:33:57.311Z</time></trkpt><trkpt lat="43.9199467" lon="11.05565"><ele>72.5</ele><time>2026-03-29T07:33:58.31Z</time></trkpt><trkpt lat="43.9198533" lon="11.0557367"><ele>72.0</ele><time>2026-03-29T07:33:59.31Z</time></trkpt><trkpt lat="43.9197633" lon="11.0558383"><ele>72.0</ele><time>2026-03-29T07:34:00.312Z</time></trkpt><trkpt lat="43.919675" lon="11.0559433"><ele>72.0</ele><time>2026-03-29T07:34:01.31Z</time></trkpt><trkpt lat="43.9195917" lon="11.0560483"><ele>72.0</ele><time>2026-03-29T07:34:02.309Z</time></trkpt><trkpt lat="43.9195083" lon="11.05615"><ele>72.0</ele><time>2026-03-29T07:34:03.309Z</time></trkpt><trkpt lat="43.9194267" lon="11.0562467"><ele>72.0</ele><time>2026-03-29T07:34:04.31Z</time></trkpt><trkpt lat="43.91935" lon="11.0563417"><ele>72.0</ele><time>2026-03-29T07:34:05.311Z</time></trkpt><trkpt lat="43.91928" lon="11.0564383"><ele>72.0</ele><time>2026-03-29T07:34:06.314Z</time></trkpt><trkpt lat="43.9192183" lon="11.0565317"><ele>72.0</ele><time>2026-03-29T07:34:07.311Z</time></trkpt><trkpt lat="43.9191667" lon="11.056625"><ele>72.0</ele><time>2026-03-29T07:34:08.31Z</time></trkpt><trkpt lat="43.91912" lon="11.056715"><ele>72.0</ele><time>2026-03-29T07:34:09.31Z</time></trkpt><trkpt lat="43.9190867" lon="11.0567933"><ele>72.0</ele><time>2026-03-29T07:34:10.309Z</time></trkpt><trkpt lat="43.919015" lon="11.05692"><ele>71.6</ele><time>2026-03-29T07:34:12.311Z</time></trkpt><trkpt lat="43.9189233" lon="11.0569917"><ele>71.2</ele><time>2026-03-29T07:34:14.311Z</time></trkpt><trkpt lat="43.9188667" lon="11.0570867"><ele>70.8</ele><time>2026-03-29T07:34:16.311Z</time></trkpt><trkpt lat="43.918855" lon="11.0572083"><ele>70.4</ele><time>2026-03-29T07:34:18.31Z</time></trkpt><trkpt lat="43.9188217" lon="11.057335"><ele>70.0</ele><time>2026-03-29T07:34:20.311Z</time></trkpt><trkpt lat="43.9187517" lon="11.0574517"><ele>70.14285714285714</ele><time>2026-03-29T07:34:22.31Z</time></trkpt><trkpt lat="43.9187133" lon="11.0575233"><ele>70.28571428571428</ele><time>2026-03-29T07:34:23.311Z</time></trkpt><trkpt lat="43.9186717" lon="11.0575917"><ele>70.42857142857143</ele><time>2026-03-29T07:34:24.31Z</time></trkpt><trkpt lat="43.9186267" lon="11.0576683"><ele>70.57142857142857</ele><time>2026-03-29T07:34:25.311Z</time></trkpt><trkpt lat="43.9185817" lon="11.0577467"><ele>70.71428571428571</ele><time>2026-03-29T07:34:26.311Z</time></trkpt><trkpt lat="43.91854" lon="11.05783"><ele>70.85714285714286</ele><time>2026-03-29T07:34:27.31Z</time></trkpt><trkpt lat="43.9184983" lon="11.0579083"><ele>71.0</ele><time>2026-03-29T07:34:28.311Z</time></trkpt><trkpt lat="43.9184583" lon="11.0579883"><ele>71.0</ele><time>2026-03-29T07:34:29.312Z</time></trkpt><trkpt lat="43.9184183" lon="11.0580617"><ele>71.0</ele><time>2026-03-29T07:34:30.309Z</time></trkpt><trkpt lat="43.9183817" lon="11.05814"><ele>71.0</ele><time>2026-03-29T07:34:31.311Z</time></trkpt><trkpt lat="43.918345" lon="11.05822"><ele>71.0</ele><time>2026-03-29T07:34:32.31Z</time></trkpt><trkpt lat="43.918305" lon="11.0583"><ele>71.0</ele><time>2026-03-29T07:34:33.309Z</time></trkpt><trkpt lat="43.91826" lon="11.058385"><ele>71.0</ele><time>2026-03-29T07:34:34.311Z</time></trkpt><trkpt lat="43.9182117" lon="11.0584733"><ele>71.0</ele><time>2026-03-29T07:34:35.31Z</time></trkpt><trkpt lat="43.9181617" lon="11.05856"><ele>70.66666666666667</ele><time>2026-03-29T07:34:36.312Z</time></trkpt><trkpt lat="43.91811" lon="11.05865"><ele>70.33333333333334</ele><time>2026-03-29T07:34:37.313Z</time></trkpt><trkpt lat="43.9180583" lon="11.0587367"><ele>70.0</ele><time>2026-03-29T07:34:38.311Z</time></trkpt><trkpt lat="43.9180033" lon="11.0588233"><ele>69.66666666666667</ele><time>2026-03-29T07:34:39.31Z</time></trkpt><trkpt lat="43.9179483" lon="11.0589117"><ele>69.33333333333333</ele><time>2026-03-29T07:34:40.311Z</time></trkpt><trkpt lat="43.9178933" lon="11.0589967"><ele>69.0</ele><time>2026-03-29T07:34:41.312Z</time></trkpt><trkpt lat="43.9178367" lon="11.05908"><ele>69.0</ele><time>2026-03-29T07:34:42.309Z</time></trkpt><trkpt lat="43.9177817" lon="11.0591667"><ele>69.0</ele><time>2026-03-29T07:34:43.31Z</time></trkpt><trkpt lat="43.9177217" lon="11.0592517"><ele>69.0</ele><time>2026-03-29T07:34:44.311Z</time></trkpt><trkpt lat="43.9176617" lon="11.0593333"><ele>69.0</ele><time>2026-03-29T07:34:45.309Z</time></trkpt><trkpt lat="43.9175933" lon="11.0594033"><ele>69.0</ele><time>2026-03-29T07:34:46.309Z</time></trkpt><trkpt lat="43.9175183" lon="11.0594617"><ele>69.0</ele><time>2026-03-29T07:34:47.311Z</time></trkpt><trkpt lat="43.9174417" lon="11.0595133"><ele>68.83333333333333</ele><time>2026-03-29T07:34:48.312Z</time></trkpt><trkpt lat="43.9173633" lon="11.0595583"><ele>68.66666666666667</ele><time>2026-03-29T07:34:49.311Z</time></trkpt><trkpt lat="43.9172867" lon="11.059605"><ele>68.5</ele><time>2026-03-29T07:34:50.31Z</time></trkpt><trkpt lat="43.9172083" lon="11.0596433"><ele>68.33333333333334</ele><time>2026-03-29T07:34:51.309Z</time></trkpt><trkpt lat="43.9171317" lon="11.0596767"><ele>68.16666666666667</ele><time>2026-03-29T07:34:52.31Z</time></trkpt><trkpt lat="43.9170583" lon="11.0597033"><ele>68.0</ele><time>2026-03-29T07:34:53.311Z</time></trkpt><trkpt lat="43.916985" lon="11.0597267"><ele>68.0</ele><time>2026-03-29T07:34:54.311Z</time></trkpt><trkpt lat="43.9169083" lon="11.0597467"><ele>68.0</ele><time>2026-03-29T07:34:55.31Z</time></trkpt><trkpt lat="43.9168317" lon="11.0597717"><ele>68.0</ele><time>2026-03-29T07:34:56.31Z</time></trkpt><trkpt lat="43.916755" lon="11.0598"><ele>68.0</ele><time>2026-03-29T07:34:57.309Z</time></trkpt><trkpt lat="43.9166767" lon="11.0598333"><ele>68.0</ele><time>2026-03-29T07:34:58.309Z</time></trkpt><trkpt lat="43.9165967" lon="11.0598717"><ele>68.0</ele><time>2026-03-29T07:34:59.311Z</time></trkpt><trkpt lat="43.9165133" lon="11.0599083"><ele>68.16666666666667</ele><time>2026-03-29T07:35:00.31Z</time></trkpt><trkpt lat="43.91643" lon="11.0599483"><ele>68.33333333333334</ele><time>2026-03-29T07:35:01.309Z</time></trkpt><trkpt lat="43.916345" lon="11.05999"><ele>68.5</ele><time>2026-03-29T07:35:02.312Z</time></trkpt><trkpt lat="43.916265" lon="11.0600317"><ele>68.66666666666667</ele><time>2026-03-29T07:35:03.31Z</time></trkpt><trkpt lat="43.9161867" lon="11.0600767"><ele>68.83333333333333</ele><time>2026-03-29T07:35:04.309Z</time></trkpt><trkpt lat="43.9161083" lon="11.0601267"><ele>69.0</ele><time>2026-03-29T07:35:05.312Z</time></trkpt><trkpt lat="43.9160333" lon="11.06018"><ele>69.0</ele><time>2026-03-29T07:35:06.311Z</time></trkpt><trkpt lat="43.9159617" lon="11.0602383"><ele>69.0</ele><time>2026-03-29T07:35:07.311Z</time></trkpt><trkpt lat="43.9158883" lon="11.0602983"><ele>69.0</ele><time>2026-03-29T07:35:08.31Z</time></trkpt><trkpt lat="43.9158183" lon="11.06036"><ele>69.0</ele><time>2026-03-29T07:35:09.309Z</time></trkpt><trkpt lat="43.91575" lon="11.0604217"><ele>69.0</ele><time>2026-03-29T07:35:10.309Z</time></trkpt><trkpt lat="43.9156817" lon="11.0604817"><ele>69.0</ele><time>2026-03-29T07:35:11.31Z</time></trkpt><trkpt lat="43.9156133" lon="11.0605417"><ele>68.83333333333333</ele><time>2026-03-29T07:35:12.31Z</time></trkpt><trkpt lat="43.9155433" lon="11.0605967"><ele>68.66666666666667</ele><time>2026-03-29T07:35:13.311Z</time></trkpt><trkpt lat="43.9154717" lon="11.0606567"><ele>68.5</ele><time>2026-03-29T07:35:14.311Z</time></trkpt><trkpt lat="43.9154" lon="11.06072"><ele>68.33333333333334</ele><time>2026-03-29T07:35:15.311Z</time></trkpt><trkpt lat="43.91533" lon="11.060785"><ele>68.16666666666667</ele><time>2026-03-29T07:35:16.31Z</time></trkpt><trkpt lat="43.9152567" lon="11.06085"><ele>68.0</ele><time>2026-03-29T07:35:17.309Z</time></trkpt><trkpt lat="43.915185" lon="11.0609183"><ele>68.0</ele><time>2026-03-29T07:35:18.311Z</time></trkpt><trkpt lat="43.9151133" lon="11.06099"><ele>68.0</ele><time>2026-03-29T07:35:19.311Z</time></trkpt><trkpt lat="43.9150433" lon="11.0610583"><ele>68.0</ele><time>2026-03-29T07:35:20.309Z</time></trkpt><trkpt lat="43.9149733" lon="11.0611283"><ele>68.0</ele><time>2026-03-29T07:35:21.309Z</time></trkpt><trkpt lat="43.914905" lon="11.0612017"><ele>68.0</ele><time>2026-03-29T07:35:22.31Z</time></trkpt><trkpt lat="43.91484" lon="11.0612783"><ele>68.0</ele><time>2026-03-29T07:35:23.309Z</time></trkpt><trkpt lat="43.91478" lon="11.0613633"><ele>67.33333333333334</ele><time>2026-03-29T07:35:24.309Z</time></trkpt><trkpt lat="43.91473" lon="11.0614617"><ele>66.66666666666667</ele><time>2026-03-29T07:35:25.31Z</time></trkpt><trkpt lat="43.914685" lon="11.0615633"><ele>66.0</ele><time>2026-03-29T07:35:26.31Z</time></trkpt><trkpt lat="43.91464" lon="11.0616633"><ele>65.33333333333333</ele><time>2026-03-29T07:35:27.309Z</time></trkpt><trkpt lat="43.9145967" lon="11.0617717"><ele>64.66666666666666</ele><time>2026-03-29T07:35:28.31Z</time></trkpt><trkpt lat="43.9145517" lon="11.0618767"><ele>64.0</ele><time>2026-03-29T07:35:29.311Z</time></trkpt><trkpt lat="43.9145083" lon="11.06198"><ele>64.16666666666666</ele><time>2026-03-29T07:35:30.311Z</time></trkpt><trkpt lat="43.9144683" lon="11.0620817"><ele>64.33333333333333</ele><time>2026-03-29T07:35:31.312Z</time></trkpt><trkpt lat="43.9144267" lon="11.0621833"><ele>64.5</ele><time>2026-03-29T07:35:32.31Z</time></trkpt><trkpt lat="43.9143883" lon="11.0622867"><ele>64.66666666666667</ele><time>2026-03-29T07:35:33.308Z</time></trkpt><trkpt lat="43.9143483" lon="11.0623917"><ele>64.83333333333334</ele><time>2026-03-29T07:35:34.309Z</time></trkpt><trkpt lat="43.9143117" lon="11.0624967"><ele>65.0</ele><time>2026-03-29T07:35:35.311Z</time></trkpt><trkpt lat="43.9142733" lon="11.0626017"><ele>64.66666666666667</ele><time>2026-03-29T07:35:36.312Z</time></trkpt><trkpt lat="43.914235" lon="11.06271"><ele>64.33333333333334</ele><time>2026-03-29T07:35:37.311Z</time></trkpt><trkpt lat="43.914195" lon="11.0628167"><ele>64.0</ele><time>2026-03-29T07:35:38.31Z</time></trkpt><trkpt lat="43.9141533" lon="11.062925"><ele>63.66666666666667</ele><time>2026-03-29T07:35:39.309Z</time></trkpt><trkpt lat="43.9141117" lon="11.06303"><ele>63.333333333333336</ele><time>2026-03-29T07:35:40.311Z</time></trkpt><trkpt lat="43.9140733" lon="11.0631317"><ele>63.0</ele><time>2026-03-29T07:35:41.31Z</time></trkpt><trkpt lat="43.9140417" lon="11.06323"><ele>63.14285714285714</ele><time>2026-03-29T07:35:42.311Z</time></trkpt><trkpt lat="43.9140067" lon="11.06332"><ele>63.285714285714285</ele><time>2026-03-29T07:35:43.31Z</time></trkpt><trkpt lat="43.9139683" lon="11.063405"><ele>63.42857142857143</ele><time>2026-03-29T07:35:44.312Z</time></trkpt><trkpt lat="43.9139283" lon="11.063485"><ele>63.57142857142857</ele><time>2026-03-29T07:35:45.309Z</time></trkpt><trkpt lat="43.9138767" lon="11.06355"><ele>63.71428571428571</ele><time>2026-03-29T07:35:46.309Z</time></trkpt><trkpt lat="43.91382" lon="11.0636017"><ele>63.857142857142854</ele><time>2026-03-29T07:35:47.309Z</time></trkpt><trkpt lat="43.91376" lon="11.0636433"><ele>64.0</ele><time>2026-03-29T07:35:48.307Z</time></trkpt><trkpt lat="43.9137067" lon="11.0636933"><ele>64.0</ele><time>2026-03-29T07:35:49.31Z</time></trkpt><trkpt lat="43.913665" lon="11.0637683"><ele>63.99999999999999</ele><time>2026-03-29T07:35:50.309Z</time></trkpt><trkpt lat="43.9136283" lon="11.06385"><ele>64.0</ele><time>2026-03-29T07:35:51.31Z</time></trkpt><trkpt lat="43.9135933" lon="11.0639333"><ele>64.0</ele><time>2026-03-29T07:35:52.31Z</time></trkpt><trkpt lat="43.9135483" lon="11.06401"><ele>63.99999999999999</ele><time>2026-03-29T07:35:53.312Z</time></trkpt><trkpt lat="43.9134967" lon="11.06408"><ele>64.0</ele><time>2026-03-29T07:35:54.311Z</time></trkpt><trkpt lat="43.9134367" lon="11.0641417"><ele>64.0</ele><time>2026-03-29T07:35:55.312Z</time></trkpt><trkpt lat="43.9133717" lon="11.0641967"><ele>64.16666666666666</ele><time>2026-03-29T07:35:56.31Z</time></trkpt><trkpt lat="43.9133083" lon="11.064255"><ele>64.33333333333333</ele><time>2026-03-29T07:35:57.311Z</time></trkpt><trkpt lat="43.9132417" lon="11.0643133"><ele>64.5</ele><time>2026-03-29T07:35:58.309Z</time></trkpt><trkpt lat="43.9131767" lon="11.064375"><ele>64.66666666666667</ele><time>2026-03-29T07:35:59.311Z</time></trkpt><trkpt lat="43.9131117" lon="11.0644383"><ele>64.83333333333334</ele><time>2026-03-29T07:36:00.313Z</time></trkpt><trkpt lat="43.913045" lon="11.064505"><ele>65.0</ele><time>2026-03-29T07:36:01.31Z</time></trkpt><trkpt lat="43.9129783" lon="11.06457"><ele>65.0</ele><time>2026-03-29T07:36:02.311Z</time></trkpt><trkpt lat="43.9129117" lon="11.064635"><ele>65.0</ele><time>2026-03-29T07:36:03.31Z</time></trkpt><trkpt lat="43.9128433" lon="11.0647"><ele>65.0</ele><time>2026-03-29T07:36:04.312Z</time></trkpt><trkpt lat="43.91278" lon="11.0647633"><ele>65.0</ele><time>2026-03-29T07:36:05.309Z</time></trkpt><trkpt lat="43.9127183" lon="11.064825"><ele>65.0</ele><time>2026-03-29T07:36:06.31Z</time></trkpt><trkpt lat="43.91266" lon="11.0648817"><ele>65.0</ele><time>2026-03-29T07:36:07.311Z</time></trkpt><trkpt lat="43.9125967" lon="11.0649383"><ele>65.00000000000001</ele><time>2026-03-29T07:36:08.312Z</time></trkpt><trkpt lat="43.9125317" lon="11.0649933"><ele>65.0</ele><time>2026-03-29T07:36:09.31Z</time></trkpt><trkpt lat="43.9124683" lon="11.0650483"><ele>65.0</ele><time>2026-03-29T07:36:10.31Z</time></trkpt><trkpt lat="43.9124117" lon="11.0651083"><ele>65.0</ele><time>2026-03-29T07:36:11.312Z</time></trkpt><trkpt lat="43.91237" lon="11.0651833"><ele>65.0</ele><time>2026-03-29T07:36:12.311Z</time></trkpt><trkpt lat="43.9123567" lon="11.0652783"><ele>65.00000000000001</ele><time>2026-03-29T07:36:13.31Z</time></trkpt><trkpt lat="43.912365" lon="11.0653833"><ele>65.0</ele><time>2026-03-29T07:36:14.31Z</time></trkpt><trkpt lat="43.91238" lon="11.0654933"><ele>65.0</ele><time>2026-03-29T07:36:15.309Z</time></trkpt><trkpt lat="43.9123933" lon="11.0656067"><ele>65.0</ele><time>2026-03-29T07:36:16.312Z</time></trkpt><trkpt lat="43.9123917" lon="11.0657183"><ele>65.0</ele><time>2026-03-29T07:36:17.311Z</time></trkpt><trkpt lat="43.9123783" lon="11.06583"><ele>65.0</ele><time>2026-03-29T07:36:18.31Z</time></trkpt><trkpt lat="43.9123617" lon="11.0659383"><ele>65.0</ele><time>2026-03-29T07:36:19.31Z</time></trkpt><trkpt lat="43.9123433" lon="11.0660483"><ele>65.0</ele><time>2026-03-29T07:36:20.311Z</time></trkpt><trkpt lat="43.912325" lon="11.066155"><ele>65.0</ele><time>2026-03-29T07:36:21.31Z</time></trkpt><trkpt lat="43.9123067" lon="11.0662617"><ele>65.0</ele><time>2026-03-29T07:36:22.31Z</time></trkpt><trkpt lat="43.9122883" lon="11.06637"><ele>65.0</ele><time>2026-03-29T07:36:23.311Z</time></trkpt><trkpt lat="43.9122717" lon="11.06648"><ele>65.0</ele><time>2026-03-29T07:36:24.31Z</time></trkpt><trkpt lat="43.912255" lon="11.0665933"><ele>65.0</ele><time>2026-03-29T07:36:25.312Z</time></trkpt><trkpt lat="43.9122383" lon="11.0667067"><ele>65.0</ele><time>2026-03-29T07:36:26.31Z</time></trkpt><trkpt lat="43.9122217" lon="11.0668233"><ele>65.0</ele><time>2026-03-29T07:36:27.31Z</time></trkpt><trkpt lat="43.9122033" lon="11.0669383"><ele>65.0</ele><time>2026-03-29T07:36:28.311Z</time></trkpt><trkpt lat="43.9121883" lon="11.0670517"><ele>65.0</ele><time>2026-03-29T07:36:29.31Z</time></trkpt><trkpt lat="43.91217" lon="11.0671683"><ele>65.0</ele><time>2026-03-29T07:36:30.311Z</time></trkpt><trkpt lat="43.9121517" lon="11.06728"><ele>65.0</ele><time>2026-03-29T07:36:31.311Z</time></trkpt><trkpt lat="43.9121333" lon="11.06739"><ele>65.0</ele><time>2026-03-29T07:36:32.312Z</time></trkpt><trkpt lat="43.912115" lon="11.0674983"><ele>65.16666666666667</ele><time>2026-03-29T07:36:33.31Z</time></trkpt><trkpt lat="43.912095" lon="11.0676033"><ele>65.33333333333334</ele><time>2026-03-29T07:36:34.311Z</time></trkpt><trkpt lat="43.9120817" lon="11.0677117"><ele>65.5</ele><time>2026-03-29T07:36:35.311Z</time></trkpt><trkpt lat="43.9120667" lon="11.0678217"><ele>65.66666666666667</ele><time>2026-03-29T07:36:36.309Z</time></trkpt><trkpt lat="43.9120517" lon="11.06793"><ele>65.83333333333333</ele><time>2026-03-29T07:36:37.311Z</time></trkpt><trkpt lat="43.912035" lon="11.06804"><ele>66.0</ele><time>2026-03-29T07:36:38.311Z</time></trkpt><trkpt lat="43.91202" lon="11.0681483"><ele>66.0</ele><time>2026-03-29T07:36:39.31Z</time></trkpt><trkpt lat="43.9120083" lon="11.0682617"><ele>66.0</ele><time>2026-03-29T07:36:40.31Z</time></trkpt><trkpt lat="43.9119983" lon="11.0683783"><ele>66.0</ele><time>2026-03-29T07:36:41.312Z</time></trkpt><trkpt lat="43.91199" lon="11.0684983"><ele>66.0</ele><time>2026-03-29T07:36:42.31Z</time></trkpt><trkpt lat="43.9119817" lon="11.0686167"><ele>66.0</ele><time>2026-03-29T07:36:43.312Z</time></trkpt><trkpt lat="43.91197" lon="11.0687367"><ele>66.0</ele><time>2026-03-29T07:36:44.31Z</time></trkpt><trkpt lat="43.91195" lon="11.0688583"><ele>65.8</ele><time>2026-03-29T07:36:45.311Z</time></trkpt><trkpt lat="43.9119183" lon="11.0689817"><ele>65.6</ele><time>2026-03-29T07:36:46.313Z</time></trkpt><trkpt lat="43.9118767" lon="11.0691"><ele>65.4</ele><time>2026-03-29T07:36:47.312Z</time></trkpt><trkpt lat="43.9118283" lon="11.0692133"><ele>65.2</ele><time>2026-03-29T07:36:48.31Z</time></trkpt><trkpt lat="43.9117767" lon="11.069325"><ele>65.0</ele><time>2026-03-29T07:36:49.31Z</time></trkpt><trkpt lat="43.9117267" lon="11.06944"><ele>65.0</ele><time>2026-03-29T07:36:50.31Z</time></trkpt><trkpt lat="43.9116733" lon="11.0695533"><ele>65.0</ele><time>2026-03-29T07:36:51.311Z</time></trkpt><trkpt lat="43.9116233" lon="11.069665"><ele>65.0</ele><time>2026-03-29T07:36:52.312Z</time></trkpt><trkpt lat="43.9115717" lon="11.0697783"><ele>65.0</ele><time>2026-03-29T07:36:53.31Z</time></trkpt><trkpt lat="43.911525" lon="11.0698917"><ele>65.0</ele><time>2026-03-29T07:36:54.31Z</time></trkpt><trkpt lat="43.911475" lon="11.0699967"><ele>65.66666666666667</ele><time>2026-03-29T07:36:55.312Z</time></trkpt><trkpt lat="43.91143" lon="11.0701033"><ele>66.33333333333334</ele><time>2026-03-29T07:36:56.314Z</time></trkpt><trkpt lat="43.91138" lon="11.0702067"><ele>67.0</ele><time>2026-03-29T07:36:57.309Z</time></trkpt><trkpt lat="43.911335" lon="11.0703117"><ele>67.66666666666667</ele><time>2026-03-29T07:36:58.31Z</time></trkpt><trkpt lat="43.9112933" lon="11.07041"><ele>68.33333333333333</ele><time>2026-03-29T07:36:59.311Z</time></trkpt><trkpt lat="43.9112533" lon="11.07051"><ele>69.0</ele><time>2026-03-29T07:37:00.31Z</time></trkpt><trkpt lat="43.9112083" lon="11.07061"><ele>69.0</ele><time>2026-03-29T07:37:01.311Z</time></trkpt><trkpt lat="43.9111683" lon="11.0707133"><ele>69.0</ele><time>2026-03-29T07:37:02.31Z</time></trkpt><trkpt lat="43.9111317" lon="11.0708167"><ele>69.0</ele><time>2026-03-29T07:37:03.312Z</time></trkpt><trkpt lat="43.9110933" lon="11.0709167"><ele>69.0</ele><time>2026-03-29T07:37:04.309Z</time></trkpt><trkpt lat="43.91106" lon="11.0710133"><ele>69.0</ele><time>2026-03-29T07:37:05.31Z</time></trkpt><trkpt lat="43.911025" lon="11.0711133"><ele>69.0</ele><time>2026-03-29T07:37:06.31Z</time></trkpt><trkpt lat="43.9109867" lon="11.0712133"><ele>69.0</ele><time>2026-03-29T07:37:07.311Z</time></trkpt><trkpt lat="43.9109483" lon="11.071315"><ele>69.0</ele><time>2026-03-29T07:37:08.312Z</time></trkpt><trkpt lat="43.9109117" lon="11.0714167"><ele>69.0</ele><time>2026-03-29T07:37:09.311Z</time></trkpt><trkpt lat="43.910875" lon="11.0715183"><ele>69.0</ele><time>2026-03-29T07:37:10.309Z</time></trkpt><trkpt lat="43.9108383" lon="11.07162"><ele>69.0</ele><time>2026-03-29T07:37:11.311Z</time></trkpt><trkpt lat="43.9107983" lon="11.0717183"><ele>69.0</ele><time>2026-03-29T07:37:12.311Z</time></trkpt><trkpt lat="43.9107617" lon="11.0718183"><ele>69.0</ele><time>2026-03-29T07:37:13.312Z</time></trkpt><trkpt lat="43.910725" lon="11.07192"><ele>69.0</ele><time>2026-03-29T07:37:14.309Z</time></trkpt><trkpt lat="43.91069" lon="11.0720233"><ele>69.0</ele><time>2026-03-29T07:37:15.31Z</time></trkpt><trkpt lat="43.9106583" lon="11.0721283"><ele>69.0</ele><time>2026-03-29T07:37:16.311Z</time></trkpt><trkpt lat="43.9106317" lon="11.072235"><ele>69.0</ele><time>2026-03-29T07:37:17.31Z</time></trkpt><trkpt lat="43.9106083" lon="11.0723417"><ele>69.0</ele><time>2026-03-29T07:37:18.31Z</time></trkpt><trkpt lat="43.91059" lon="11.0724483"><ele>69.66666666666667</ele><time>2026-03-29T07:37:19.308Z</time></trkpt><trkpt lat="43.91057" lon="11.0725583"><ele>70.33333333333333</ele><time>2026-03-29T07:37:20.313Z</time></trkpt><trkpt lat="43.91055" lon="11.0726667"><ele>71.0</ele><time>2026-03-29T07:37:21.31Z</time></trkpt><trkpt lat="43.9105283" lon="11.072775"><ele>71.66666666666666</ele><time>2026-03-29T07:37:22.31Z</time></trkpt><trkpt lat="43.9105033" lon="11.0728817"><ele>72.33333333333333</ele><time>2026-03-29T07:37:23.311Z</time></trkpt><trkpt lat="43.9104817" lon="11.0729883"><ele>73.0</ele><time>2026-03-29T07:37:24.312Z</time></trkpt><trkpt lat="43.9104617" lon="11.0730983"><ele>73.0</ele><time>2026-03-29T07:37:25.31Z</time></trkpt><trkpt lat="43.910445" lon="11.0732117"><ele>73.0</ele><time>2026-03-29T07:37:26.311Z</time></trkpt><trkpt lat="43.91043" lon="11.073325"><ele>73.0</ele><time>2026-03-29T07:37:27.308Z</time></trkpt><trkpt lat="43.9104183" lon="11.0734367"><ele>73.0</ele><time>2026-03-29T07:37:28.31Z</time></trkpt><trkpt lat="43.9104083" lon="11.0735483"><ele>73.0</ele><time>2026-03-29T07:37:29.313Z</time></trkpt><trkpt lat="43.9104" lon="11.0736617"><ele>73.0</ele><time>2026-03-29T07:37:30.309Z</time></trkpt><trkpt lat="43.9104" lon="11.0737767"><ele>74.0</ele><time>2026-03-29T07:37:31.311Z</time></trkpt><trkpt lat="43.9103967" lon="11.0738867"><ele>75.0</ele><time>2026-03-29T07:37:32.31Z</time></trkpt><trkpt lat="43.9103933" lon="11.0740033"><ele>76.0</ele><time>2026-03-29T07:37:33.31Z</time></trkpt><trkpt lat="43.91039" lon="11.07412"><ele>77.0</ele><time>2026-03-29T07:37:34.311Z</time></trkpt><trkpt lat="43.910385" lon="11.0742333"><ele>78.0</ele><time>2026-03-29T07:37:35.311Z</time></trkpt><trkpt lat="43.9103783" lon="11.0743483"><ele>79.0</ele><time>2026-03-29T07:37:36.311Z</time></trkpt><trkpt lat="43.9103667" lon="11.0744633"><ele>79.83333333333333</ele><time>2026-03-29T07:37:37.31Z</time></trkpt><trkpt lat="43.9103517" lon="11.0745767"><ele>80.66666666666666</ele><time>2026-03-29T07:37:38.312Z</time></trkpt><trkpt lat="43.9103367" lon="11.07469"><ele>81.5</ele><time>2026-03-29T07:37:39.31Z</time></trkpt><trkpt lat="43.9103183" lon="11.0748033"><ele>82.33333333333333</ele><time>2026-03-29T07:37:40.31Z</time></trkpt><trkpt lat="43.9103017" lon="11.074915"><ele>83.16666666666667</ele><time>2026-03-29T07:37:41.311Z</time></trkpt><trkpt lat="43.9102867" lon="11.075025"><ele>84.0</ele><time>2026-03-29T07:37:42.31Z</time></trkpt><trkpt lat="43.9102717" lon="11.075135"><ele>84.33333333333333</ele><time>2026-03-29T07:37:43.31Z</time></trkpt><trkpt lat="43.9102583" lon="11.0752433"><ele>84.66666666666667</ele><time>2026-03-29T07:37:44.31Z</time></trkpt><trkpt lat="43.9102517" lon="11.0753533"><ele>85.0</ele><time>2026-03-29T07:37:45.31Z</time></trkpt><trkpt lat="43.91025" lon="11.07546"><ele>85.33333333333334</ele><time>2026-03-29T07:37:46.312Z</time></trkpt><trkpt lat="43.9102433" lon="11.0755683"><ele>85.66666666666667</ele><time>2026-03-29T07:37:47.311Z</time></trkpt><trkpt lat="43.9102367" lon="11.07568"><ele>86.0</ele><time>2026-03-29T07:37:48.31Z</time></trkpt><trkpt lat="43.9102267" lon="11.0757917"><ele>86.0</ele><time>2026-03-29T07:37:49.312Z</time></trkpt><trkpt lat="43.9102117" lon="11.0759017"><ele>86.0</ele><time>2026-03-29T07:37:50.31Z</time></trkpt><trkpt lat="43.9101967" lon="11.0760083"><ele>86.0</ele><time>2026-03-29T07:37:51.311Z</time></trkpt><trkpt lat="43.91018" lon="11.076115"><ele>86.0</ele><time>2026-03-29T07:37:52.313Z</time></trkpt><trkpt lat="43.91016" lon="11.0762217"><ele>86.0</ele><time>2026-03-29T07:37:53.31Z</time></trkpt><trkpt lat="43.91014" lon="11.076325"><ele>86.0</ele><time>2026-03-29T07:37:54.311Z</time></trkpt><trkpt lat="43.9101167" lon="11.0764233"><ele>86.0</ele><time>2026-03-29T07:37:55.311Z</time></trkpt><trkpt lat="43.91009" lon="11.07652"><ele>86.0</ele><time>2026-03-29T07:37:56.31Z</time></trkpt><trkpt lat="43.9100617" lon="11.076615"><ele>86.0</ele><time>2026-03-29T07:37:57.308Z</time></trkpt><trkpt lat="43.910025" lon="11.0767083"><ele>86.0</ele><time>2026-03-29T07:37:58.31Z</time></trkpt><trkpt lat="43.909985" lon="11.0767983"><ele>86.0</ele><time>2026-03-29T07:37:59.309Z</time></trkpt><trkpt lat="43.909945" lon="11.0768933"><ele>86.0</ele><time>2026-03-29T07:38:00.309Z</time></trkpt><trkpt lat="43.9099067" lon="11.07699"><ele>84.83333333333334</ele><time>2026-03-29T07:38:01.31Z</time></trkpt><trkpt lat="43.9098617" lon="11.077085"><ele>83.66666666666667</ele><time>2026-03-29T07:38:02.313Z</time></trkpt><trkpt lat="43.90982" lon="11.0771817"><ele>82.5</ele><time>2026-03-29T07:38:03.309Z</time></trkpt><trkpt lat="43.909775" lon="11.077275"><ele>81.33333333333333</ele><time>2026-03-29T07:38:04.309Z</time></trkpt><trkpt lat="43.909725" lon="11.0773633"><ele>80.16666666666666</ele><time>2026-03-29T07:38:05.31Z</time></trkpt><trkpt lat="43.90968" lon="11.0774583"><ele>79.0</ele><time>2026-03-29T07:38:06.309Z</time></trkpt><trkpt lat="43.90964" lon="11.077555"><ele>79.0</ele><time>2026-03-29T07:38:07.31Z</time></trkpt><trkpt lat="43.9095967" lon="11.0776517"><ele>79.0</ele><time>2026-03-29T07:38:08.31Z</time></trkpt><trkpt lat="43.9095567" lon="11.0777483"><ele>79.0</ele><time>2026-03-29T07:38:09.308Z</time></trkpt><trkpt lat="43.9095183" lon="11.0778417"><ele>79.0</ele><time>2026-03-29T07:38:10.309Z</time></trkpt><trkpt lat="43.9094817" lon="11.077935"><ele>79.0</ele><time>2026-03-29T07:38:11.31Z</time></trkpt><trkpt lat="43.9094433" lon="11.0780267"><ele>79.0</ele><time>2026-03-29T07:38:12.309Z</time></trkpt><trkpt lat="43.909405" lon="11.0781217"><ele>79.00000000000001</ele><time>2026-03-29T07:38:13.308Z</time></trkpt><trkpt lat="43.9093633" lon="11.07821"><ele>79.0</ele><time>2026-03-29T07:38:14.312Z</time></trkpt><trkpt lat="43.9093233" lon="11.0782983"><ele>79.0</ele><time>2026-03-29T07:38:15.308Z</time></trkpt><trkpt lat="43.9092867" lon="11.0783883"><ele>79.0</ele><time>2026-03-29T07:38:16.31Z</time></trkpt><trkpt lat="43.909245" lon="11.078475"><ele>79.0</ele><time>2026-03-29T07:38:17.311Z</time></trkpt><trkpt lat="43.909205" lon="11.0785567"><ele>79.00000000000001</ele><time>2026-03-29T07:38:18.309Z</time></trkpt><trkpt lat="43.90917" lon="11.0786417"><ele>79.0</ele><time>2026-03-29T07:38:19.309Z</time></trkpt><trkpt lat="43.909135" lon="11.0787233"><ele>78.71428571428572</ele><time>2026-03-29T07:38:20.312Z</time></trkpt><trkpt lat="43.9091" lon="11.078805"><ele>78.42857142857143</ele><time>2026-03-29T07:38:21.308Z</time></trkpt><trkpt lat="43.9090667" lon="11.0788883"><ele>78.14285714285714</ele><time>2026-03-29T07:38:22.311Z</time></trkpt><trkpt lat="43.9090367" lon="11.0789783"><ele>77.85714285714286</ele><time>2026-03-29T07:38:23.309Z</time></trkpt><trkpt lat="43.909005" lon="11.079065"><ele>77.57142857142857</ele><time>2026-03-29T07:38:24.308Z</time></trkpt><trkpt lat="43.90897" lon="11.0791583"><ele>77.28571428571429</ele><time>2026-03-29T07:38:25.31Z</time></trkpt><trkpt lat="43.908925" lon="11.079245"><ele>77.0</ele><time>2026-03-29T07:38:26.309Z</time></trkpt><trkpt lat="43.90888" lon="11.079335"><ele>77.0</ele><time>2026-03-29T07:38:27.308Z</time></trkpt><trkpt lat="43.90884" lon="11.0794367"><ele>77.0</ele><time>2026-03-29T07:38:28.31Z</time></trkpt><trkpt lat="43.908785" lon="11.0795333"><ele>77.0</ele><time>2026-03-29T07:38:29.31Z</time></trkpt><trkpt lat="43.9087283" lon="11.0796283"><ele>77.0</ele><time>2026-03-29T07:38:30.31Z</time></trkpt><trkpt lat="43.9086717" lon="11.0797233"><ele>77.0</ele><time>2026-03-29T07:38:31.313Z</time></trkpt><trkpt lat="43.9086167" lon="11.07982"><ele>77.0</ele><time>2026-03-29T07:38:32.31Z</time></trkpt><trkpt lat="43.90856" lon="11.0799183"><ele>76.5</ele><time>2026-03-29T07:38:33.31Z</time></trkpt><trkpt lat="43.9085" lon="11.0800133"><ele>76.0</ele><time>2026-03-29T07:38:34.309Z</time></trkpt><trkpt lat="43.9084517" lon="11.080115"><ele>75.5</ele><time>2026-03-29T07:38:35.309Z</time></trkpt><trkpt lat="43.9083983" lon="11.0802117"><ele>75.0</ele><time>2026-03-29T07:38:36.311Z</time></trkpt><trkpt lat="43.908355" lon="11.0803183"><ele>74.5</ele><time>2026-03-29T07:38:37.31Z</time></trkpt><trkpt lat="43.9083183" lon="11.0804333"><ele>74.0</ele><time>2026-03-29T07:38:38.309Z</time></trkpt><trkpt lat="43.908295" lon="11.0805567"><ele>74.0</ele><time>2026-03-29T07:38:39.31Z</time></trkpt><trkpt lat="43.9082733" lon="11.0806833"><ele>74.0</ele><time>2026-03-29T07:38:40.31Z</time></trkpt><trkpt lat="43.9082583" lon="11.08081"><ele>74.0</ele><time>2026-03-29T07:38:41.31Z</time></trkpt><trkpt lat="43.90824" lon="11.0809367"><ele>74.0</ele><time>2026-03-29T07:38:42.311Z</time></trkpt><trkpt lat="43.9082233" lon="11.0810633"><ele>74.0</ele><time>2026-03-29T07:38:43.311Z</time></trkpt><trkpt lat="43.9082083" lon="11.0811983"><ele>74.0</ele><time>2026-03-29T07:38:44.311Z</time></trkpt><trkpt lat="43.9082" lon="11.0813433"><ele>74.0</ele><time>2026-03-29T07:38:45.309Z</time></trkpt><trkpt lat="43.9081817" lon="11.08148"><ele>74.0</ele><time>2026-03-29T07:38:46.31Z</time></trkpt><trkpt lat="43.908165" lon="11.081615"><ele>74.0</ele><time>2026-03-29T07:38:47.311Z</time></trkpt><trkpt lat="43.908155" lon="11.0817483"><ele>74.0</ele><time>2026-03-29T07:38:48.31Z</time></trkpt><trkpt lat="43.908145" lon="11.08188"><ele>74.0</ele><time>2026-03-29T07:38:49.31Z</time></trkpt><trkpt lat="43.9081433" lon="11.0820133"><ele>74.0</ele><time>2026-03-29T07:38:50.309Z</time></trkpt><trkpt lat="43.9081433" lon="11.082145"><ele>74.0</ele><time>2026-03-29T07:38:51.31Z</time></trkpt><trkpt lat="43.90815" lon="11.0822783"><ele>74.0</ele><time>2026-03-29T07:38:52.309Z</time></trkpt><trkpt lat="43.90816" lon="11.0824133"><ele>74.0</ele><time>2026-03-29T07:38:53.31Z</time></trkpt><trkpt lat="43.90817" lon="11.08254"><ele>74.0</ele><time>2026-03-29T07:38:54.308Z</time></trkpt><trkpt lat="43.908185" lon="11.082665"><ele>74.0</ele><time>2026-03-29T07:38:55.311Z</time></trkpt><trkpt lat="43.908195" lon="11.0827867"><ele>74.0</ele><time>2026-03-29T07:38:56.311Z</time></trkpt><trkpt lat="43.9082083" lon="11.0829083"><ele>74.0</ele><time>2026-03-29T07:38:57.309Z</time></trkpt><trkpt lat="43.9082217" lon="11.0830283"><ele>74.0</ele><time>2026-03-29T07:38:58.31Z</time></trkpt><trkpt lat="43.90823" lon="11.08315"><ele>74.0</ele><time>2026-03-29T07:38:59.312Z</time></trkpt><trkpt lat="43.90824" lon="11.0832733"><ele>74.60000000000001</ele><time>2026-03-29T07:39:00.311Z</time></trkpt><trkpt lat="43.9082517" lon="11.0833967"><ele>75.2</ele><time>2026-03-29T07:39:01.31Z</time></trkpt><trkpt lat="43.9082617" lon="11.0835217"><ele>75.80000000000001</ele><time>2026-03-29T07:39:02.31Z</time></trkpt><trkpt lat="43.908275" lon="11.083645"><ele>76.4</ele><time>2026-03-29T07:39:03.31Z</time></trkpt><trkpt lat="43.908285" lon="11.0837683"><ele>77.0</ele><time>2026-03-29T07:39:04.31Z</time></trkpt><trkpt lat="43.9082967" lon="11.0838933"><ele>77.0</ele><time>2026-03-29T07:39:05.312Z</time></trkpt><trkpt lat="43.9083067" lon="11.0840167"><ele>77.0</ele><time>2026-03-29T07:39:06.311Z</time></trkpt><trkpt lat="43.908305" lon="11.084135"><ele>77.0</ele><time>2026-03-29T07:39:07.31Z</time></trkpt><trkpt lat="43.9082883" lon="11.0842483"><ele>77.0</ele><time>2026-03-29T07:39:08.308Z</time></trkpt><trkpt lat="43.9082717" lon="11.0843567"><ele>77.0</ele><time>2026-03-29T07:39:09.309Z</time></trkpt><trkpt lat="43.9082567" lon="11.0844667"><ele>77.0</ele><time>2026-03-29T07:39:10.31Z</time></trkpt><trkpt lat="43.9082533" lon="11.08458"><ele>77.0</ele><time>2026-03-29T07:39:11.312Z</time></trkpt><trkpt lat="43.908265" lon="11.0846883"><ele>77.0</ele><time>2026-03-29T07:39:12.311Z</time></trkpt><trkpt lat="43.9082883" lon="11.0847917"><ele>77.0</ele><time>2026-03-29T07:39:13.309Z</time></trkpt><trkpt lat="43.9083167" lon="11.08489"><ele>77.0</ele><time>2026-03-29T07:39:14.309Z</time></trkpt><trkpt lat="43.9083583" lon="11.0849817"><ele>77.0</ele><time>2026-03-29T07:39:15.31Z</time></trkpt><trkpt lat="43.9084" lon="11.0850667"><ele>77.0</ele><time>2026-03-29T07:39:16.309Z</time></trkpt><trkpt lat="43.908435" lon="11.0851533"><ele>77.0</ele><time>2026-03-29T07:39:17.312Z</time></trkpt><trkpt lat="43.9084483" lon="11.0852483"><ele>77.0</ele><time>2026-03-29T07:39:18.31Z</time></trkpt><trkpt lat="43.9084317" lon="11.0853467"><ele>77.0</ele><time>2026-03-29T07:39:19.312Z</time></trkpt><trkpt lat="43.908385" lon="11.0854283"><ele>77.0</ele><time>2026-03-29T07:39:20.308Z</time></trkpt><trkpt lat="43.9083217" lon="11.0854967"><ele>77.0</ele><time>2026-03-29T07:39:21.308Z</time></trkpt><trkpt lat="43.908255" lon="11.08556"><ele>77.0</ele><time>2026-03-29T07:39:22.306Z</time></trkpt><trkpt lat="43.9081867" lon="11.085625"><ele>77.0</ele><time>2026-03-29T07:39:23.31Z</time></trkpt><trkpt lat="43.90812" lon="11.085695"><ele>77.0</ele><time>2026-03-29T07:39:24.306Z</time></trkpt><trkpt lat="43.9080567" lon="11.0857667"><ele>77.0</ele><time>2026-03-29T07:39:25.31Z</time></trkpt><trkpt lat="43.9079933" lon="11.0858417"><ele>77.0</ele><time>2026-03-29T07:39:26.309Z</time></trkpt><trkpt lat="43.90793" lon="11.085915"><ele>77.0</ele><time>2026-03-29T07:39:27.309Z</time></trkpt><trkpt lat="43.9078667" lon="11.0859883"><ele>77.0</ele><time>2026-03-29T07:39:28.309Z</time></trkpt><trkpt lat="43.907805" lon="11.08607"><ele>77.0</ele><time>2026-03-29T07:39:29.31Z</time></trkpt><trkpt lat="43.9077433" lon="11.0861567"><ele>77.0</ele><time>2026-03-29T07:39:30.312Z</time></trkpt><trkpt lat="43.9076833" lon="11.086255"><ele>77.0</ele><time>2026-03-29T07:39:31.311Z</time></trkpt><trkpt lat="43.9076317" lon="11.086365"><ele>77.0</ele><time>2026-03-29T07:39:32.309Z</time></trkpt><trkpt lat="43.9075883" lon="11.0864833"><ele>77.0</ele><time>2026-03-29T07:39:33.31Z</time></trkpt><trkpt lat="43.9075583" lon="11.0866067"><ele>76.4</ele><time>2026-03-29T07:39:34.31Z</time></trkpt><trkpt lat="43.90753" lon="11.08673"><ele>75.80000000000001</ele><time>2026-03-29T07:39:35.31Z</time></trkpt><trkpt lat="43.9075017" lon="11.0868533"><ele>75.2</ele><time>2026-03-29T07:39:36.31Z</time></trkpt><trkpt lat="43.9074717" lon="11.0869783"><ele>74.60000000000001</ele><time>2026-03-29T07:39:37.31Z</time></trkpt><trkpt lat="43.9074383" lon="11.0871017"><ele>74.0</ele><time>2026-03-29T07:39:38.309Z</time></trkpt><trkpt lat="43.9074017" lon="11.0872217"><ele>74.0</ele><time>2026-03-29T07:39:39.309Z</time></trkpt><trkpt lat="43.90736" lon="11.0873383"><ele>74.0</ele><time>2026-03-29T07:39:40.309Z</time></trkpt><trkpt lat="43.907315" lon="11.0874533"><ele>74.0</ele><time>2026-03-29T07:39:41.31Z</time></trkpt><trkpt lat="43.9072717" lon="11.087565"><ele>74.0</ele><time>2026-03-29T07:39:42.309Z</time></trkpt><trkpt lat="43.9072267" lon="11.087675"><ele>74.0</ele><time>2026-03-29T07:39:43.309Z</time></trkpt><trkpt lat="43.9071817" lon="11.0877817"><ele>74.4</ele><time>2026-03-29T07:39:44.31Z</time></trkpt><trkpt lat="43.9071367" lon="11.08789"><ele>74.80000000000001</ele><time>2026-03-29T07:39:45.309Z</time></trkpt><trkpt lat="43.907095" lon="11.0880017"><ele>75.19999999999999</ele><time>2026-03-29T07:39:46.309Z</time></trkpt><trkpt lat="43.9070517" lon="11.08811"><ele>75.6</ele><time>2026-03-29T07:39:47.309Z</time></trkpt><trkpt lat="43.907005" lon="11.0882183"><ele>76.0</ele><time>2026-03-29T07:39:48.31Z</time></trkpt><trkpt lat="43.90697" lon="11.0883333"><ele>76.0</ele><time>2026-03-29T07:39:49.31Z</time></trkpt><trkpt lat="43.90693" lon="11.0884433"><ele>76.0</ele><time>2026-03-29T07:39:50.309Z</time></trkpt><trkpt lat="43.90689" lon="11.08855"><ele>76.0</ele><time>2026-03-29T07:39:51.308Z</time></trkpt><trkpt lat="43.9068483" lon="11.0886567"><ele>76.0</ele><time>2026-03-29T07:39:52.308Z</time></trkpt><trkpt lat="43.9068133" lon="11.088765"><ele>76.0</ele><time>2026-03-29T07:39:53.31Z</time></trkpt><trkpt lat="43.9067783" lon="11.08887"><ele>76.0</ele><time>2026-03-29T07:39:54.309Z</time></trkpt><trkpt lat="43.90674" lon="11.08898"><ele>76.0</ele><time>2026-03-29T07:39:55.31Z</time></trkpt><trkpt lat="43.9067" lon="11.08909"><ele>76.0</ele><time>2026-03-29T07:39:56.311Z</time></trkpt><trkpt lat="43.90666" lon="11.0891967"><ele>76.0</ele><time>2026-03-29T07:39:57.308Z</time></trkpt><trkpt lat="43.9066167" lon="11.0893033"><ele>76.0</ele><time>2026-03-29T07:39:58.311Z</time></trkpt><trkpt lat="43.9065767" lon="11.0894133"><ele>76.0</ele><time>2026-03-29T07:39:59.311Z</time></trkpt><trkpt lat="43.90654" lon="11.089525"><ele>76.0</ele><time>2026-03-29T07:40:00.31Z</time></trkpt><trkpt lat="43.906505" lon="11.0896383"><ele>76.0</ele><time>2026-03-29T07:40:01.31Z</time></trkpt><trkpt lat="43.9064717" lon="11.0897533"><ele>76.0</ele><time>2026-03-29T07:40:02.307Z</time></trkpt><trkpt lat="43.9064417" lon="11.0898717"><ele>76.0</ele><time>2026-03-29T07:40:03.308Z</time></trkpt><trkpt lat="43.9064183" lon="11.089995"><ele>76.0</ele><time>2026-03-29T07:40:04.31Z</time></trkpt><trkpt lat="43.9063983" lon="11.0901217"><ele>76.0</ele><time>2026-03-29T07:40:05.31Z</time></trkpt><trkpt lat="43.9063833" lon="11.090245"><ele>76.0</ele><time>2026-03-29T07:40:06.31Z</time></trkpt><trkpt lat="43.906375" lon="11.09037"><ele>76.0</ele><time>2026-03-29T07:40:07.31Z</time></trkpt><trkpt lat="43.9063717" lon="11.0904983"><ele>76.0</ele><time>2026-03-29T07:40:08.31Z</time></trkpt><trkpt lat="43.9063717" lon="11.0906233"><ele>76.0</ele><time>2026-03-29T07:40:09.308Z</time></trkpt><trkpt lat="43.9063767" lon="11.090745"><ele>76.0</ele><time>2026-03-29T07:40:10.309Z</time></trkpt><trkpt lat="43.9063817" lon="11.0908683"><ele>75.83333333333333</ele><time>2026-03-29T07:40:11.309Z</time></trkpt><trkpt lat="43.9063883" lon="11.0909917"><ele>75.66666666666666</ele><time>2026-03-29T07:40:12.308Z</time></trkpt><trkpt lat="43.9063967" lon="11.0911117"><ele>75.5</ele><time>2026-03-29T07:40:13.309Z</time></trkpt><trkpt lat="43.906405" lon="11.0912317"><ele>75.33333333333333</ele><time>2026-03-29T07:40:14.31Z</time></trkpt><trkpt lat="43.9064083" lon="11.09135"><ele>75.16666666666667</ele><time>2026-03-29T07:40:15.309Z</time></trkpt><trkpt lat="43.906405" lon="11.0914667"><ele>75.0</ele><time>2026-03-29T07:40:16.309Z</time></trkpt><trkpt lat="43.906395" lon="11.091585"><ele>75.16666666666667</ele><time>2026-03-29T07:40:17.309Z</time></trkpt><trkpt lat="43.9063767" lon="11.0917"><ele>75.33333333333333</ele><time>2026-03-29T07:40:18.31Z</time></trkpt><trkpt lat="43.9063583" lon="11.0918067"><ele>75.5</ele><time>2026-03-29T07:40:19.311Z</time></trkpt><trkpt lat="43.9063367" lon="11.0918967"><ele>75.66666666666666</ele><time>2026-03-29T07:40:20.309Z</time></trkpt><trkpt lat="43.9062833" lon="11.0920333"><ele>75.83333333333333</ele><time>2026-03-29T07:40:22.312Z</time></trkpt><trkpt lat="43.9062233" lon="11.0921467"><ele>76.0</ele><time>2026-03-29T07:40:24.31Z</time></trkpt><trkpt lat="43.9061767" lon="11.0922983"><ele>76.0</ele><time>2026-03-29T07:40:26.309Z</time></trkpt><trkpt lat="43.906145" lon="11.0923783"><ele>76.0</ele><time>2026-03-29T07:40:27.309Z</time></trkpt><trkpt lat="43.90611" lon="11.0924583"><ele>76.0</ele><time>2026-03-29T07:40:28.309Z</time></trkpt><trkpt lat="43.9060767" lon="11.092545"><ele>76.0</ele><time>2026-03-29T07:40:29.31Z</time></trkpt><trkpt lat="43.9060433" lon="11.092635"><ele>76.0</ele><time>2026-03-29T07:40:30.309Z</time></trkpt><trkpt lat="43.9060117" lon="11.092725"><ele>76.0</ele><time>2026-03-29T07:40:31.311Z</time></trkpt><trkpt lat="43.9059783" lon="11.0928167"><ele>76.0</ele><time>2026-03-29T07:40:32.311Z</time></trkpt><trkpt lat="43.9059433" lon="11.0929067"><ele>76.14285714285714</ele><time>2026-03-29T07:40:33.309Z</time></trkpt><trkpt lat="43.90591" lon="11.092995"><ele>76.28571428571429</ele><time>2026-03-29T07:40:34.309Z</time></trkpt><trkpt lat="43.9058767" lon="11.0930833"><ele>76.42857142857143</ele><time>2026-03-29T07:40:35.311Z</time></trkpt><trkpt lat="43.9058417" lon="11.0931717"><ele>76.57142857142857</ele><time>2026-03-29T07:40:36.31Z</time></trkpt><trkpt lat="43.9058067" lon="11.0932567"><ele>76.71428571428572</ele><time>2026-03-29T07:40:37.311Z</time></trkpt><trkpt lat="43.9057683" lon="11.09334"><ele>76.85714285714286</ele><time>2026-03-29T07:40:38.312Z</time></trkpt><trkpt lat="43.9057317" lon="11.0934233"><ele>77.0</ele><time>2026-03-29T07:40:39.309Z</time></trkpt><trkpt lat="43.9056917" lon="11.0935033"><ele>77.0</ele><time>2026-03-29T07:40:40.308Z</time></trkpt><trkpt lat="43.9056467" lon="11.0935833"><ele>77.0</ele><time>2026-03-29T07:40:41.309Z</time></trkpt><trkpt lat="43.9056033" lon="11.093665"><ele>77.0</ele><time>2026-03-29T07:40:42.309Z</time></trkpt><trkpt lat="43.90556" lon="11.093745"><ele>77.0</ele><time>2026-03-29T07:40:43.31Z</time></trkpt><trkpt lat="43.9055183" lon="11.0938233"><ele>77.0</ele><time>2026-03-29T07:40:44.311Z</time></trkpt><trkpt lat="43.9054783" lon="11.0939033"><ele>77.0</ele><time>2026-03-29T07:40:45.309Z</time></trkpt><trkpt lat="43.9054383" lon="11.0939833"><ele>77.0</ele><time>2026-03-29T07:40:46.309Z</time></trkpt><trkpt lat="43.9054017" lon="11.0940633"><ele>77.0</ele><time>2026-03-29T07:40:47.311Z</time></trkpt><trkpt lat="43.9053633" lon="11.0941417"><ele>77.0</ele><time>2026-03-29T07:40:48.31Z</time></trkpt><trkpt lat="43.9053267" lon="11.0942167"><ele>77.0</ele><time>2026-03-29T07:40:49.309Z</time></trkpt><trkpt lat="43.9052767" lon="11.0943683"><ele>77.0</ele><time>2026-03-29T07:40:51.31Z</time></trkpt><trkpt lat="43.9052767" lon="11.094505"><ele>77.0</ele><time>2026-03-29T07:40:53.31Z</time></trkpt><trkpt lat="43.9053233" lon="11.09463"><ele>77.0</ele><time>2026-03-29T07:40:55.309Z</time></trkpt><trkpt lat="43.90531" lon="11.0947783"><ele>77.0</ele><time>2026-03-29T07:40:57.308Z</time></trkpt><trkpt lat="43.9052633" lon="11.09484"><ele>77.0</ele><time>2026-03-29T07:40:58.308Z</time></trkpt><trkpt lat="43.9052083" lon="11.0948967"><ele>77.0</ele><time>2026-03-29T07:40:59.309Z</time></trkpt><trkpt lat="43.90515" lon="11.0949533"><ele>77.0</ele><time>2026-03-29T07:41:00.312Z</time></trkpt><trkpt lat="43.9050917" lon="11.0950117"><ele>77.0</ele><time>2026-03-29T07:41:01.31Z</time></trkpt><trkpt lat="43.905035" lon="11.0950717"><ele>77.0</ele><time>2026-03-29T07:41:02.309Z</time></trkpt><trkpt lat="43.9049767" lon="11.0951333"><ele>77.0</ele><time>2026-03-29T07:41:03.309Z</time></trkpt><trkpt lat="43.9049183" lon="11.09519"><ele>77.0</ele><time>2026-03-29T07:41:04.309Z</time></trkpt><trkpt lat="43.9048567" lon="11.095245"><ele>77.0</ele><time>2026-03-29T07:41:05.308Z</time></trkpt><trkpt lat="43.9047967" lon="11.0953"><ele>77.0</ele><time>2026-03-29T07:41:06.309Z</time></trkpt><trkpt lat="43.9047333" lon="11.0953533"><ele>77.0</ele><time>2026-03-29T07:41:07.309Z</time></trkpt><trkpt lat="43.90467" lon="11.09541"><ele>77.0</ele><time>2026-03-29T07:41:08.309Z</time></trkpt><trkpt lat="43.9046083" lon="11.09547"><ele>77.0</ele><time>2026-03-29T07:41:09.307Z</time></trkpt><trkpt lat="43.9045467" lon="11.0955317"><ele>77.0</ele><time>2026-03-29T07:41:10.31Z</time></trkpt><trkpt lat="43.9044833" lon="11.0955933"><ele>77.0</ele><time>2026-03-29T07:41:11.309Z</time></trkpt><trkpt lat="43.9044217" lon="11.095655"><ele>77.0</ele><time>2026-03-29T07:41:12.311Z</time></trkpt><trkpt lat="43.9043583" lon="11.0957167"><ele>77.0</ele><time>2026-03-29T07:41:13.31Z</time></trkpt><trkpt lat="43.9042983" lon="11.09578"><ele>77.0</ele><time>2026-03-29T07:41:14.309Z</time></trkpt><trkpt lat="43.9042367" lon="11.0958433"><ele>76.83333333333334</ele><time>2026-03-29T07:41:15.31Z</time></trkpt><trkpt lat="43.9041717" lon="11.095905"><ele>76.66666666666667</ele><time>2026-03-29T07:41:16.309Z</time></trkpt><trkpt lat="43.9041083" lon="11.0959617"><ele>76.5</ele><time>2026-03-29T07:41:17.309Z</time></trkpt><trkpt lat="43.9040433" lon="11.0960183"><ele>76.33333333333333</ele><time>2026-03-29T07:41:18.308Z</time></trkpt><trkpt lat="43.9039767" lon="11.0960817"><ele>76.16666666666666</ele><time>2026-03-29T07:41:19.308Z</time></trkpt><trkpt lat="43.9039117" lon="11.0961433"><ele>76.0</ele><time>2026-03-29T07:41:20.31Z</time></trkpt><trkpt lat="43.90385" lon="11.0962033"><ele>76.0</ele><time>2026-03-29T07:41:21.309Z</time></trkpt><trkpt lat="43.9037883" lon="11.0962617"><ele>76.0</ele><time>2026-03-29T07:41:22.311Z</time></trkpt><trkpt lat="43.90373" lon="11.09632"><ele>76.0</ele><time>2026-03-29T07:41:23.31Z</time></trkpt><trkpt lat="43.9036717" lon="11.0963783"><ele>76.0</ele><time>2026-03-29T07:41:24.309Z</time></trkpt><trkpt lat="43.903615" lon="11.0964433"><ele>76.0</ele><time>2026-03-29T07:41:25.309Z</time></trkpt><trkpt lat="43.9035633" lon="11.0965133"><ele>76.0</ele><time>2026-03-29T07:41:26.308Z</time></trkpt><trkpt lat="43.903505" lon="11.0965833"><ele>76.0</ele><time>2026-03-29T07:41:27.308Z</time></trkpt><trkpt lat="43.9034433" lon="11.096655"><ele>75.66666666666666</ele><time>2026-03-29T07:41:28.31Z</time></trkpt><trkpt lat="43.9033817" lon="11.0967333"><ele>75.33333333333333</ele><time>2026-03-29T07:41:29.311Z</time></trkpt><trkpt lat="43.90332" lon="11.0968133"><ele>75.0</ele><time>2026-03-29T07:41:30.309Z</time></trkpt><trkpt lat="43.9032617" lon="11.0968967"><ele>74.66666666666667</ele><time>2026-03-29T07:41:31.308Z</time></trkpt><trkpt lat="43.9032117" lon="11.0969867"><ele>74.33333333333334</ele><time>2026-03-29T07:41:32.312Z</time></trkpt><trkpt lat="43.9031683" lon="11.0970783"><ele>74.0</ele><time>2026-03-29T07:41:33.309Z</time></trkpt><trkpt lat="43.9031233" lon="11.0971733"><ele>74.0</ele><time>2026-03-29T07:41:34.31Z</time></trkpt><trkpt lat="43.90308" lon="11.0972683"><ele>74.0</ele><time>2026-03-29T07:41:35.31Z</time></trkpt><trkpt lat="43.9030367" lon="11.097365"><ele>74.0</ele><time>2026-03-29T07:41:36.31Z</time></trkpt><trkpt lat="43.9029967" lon="11.097465"><ele>74.0</ele><time>2026-03-29T07:41:37.309Z</time></trkpt><trkpt lat="43.9029533" lon="11.0975667"><ele>74.0</ele><time>2026-03-29T07:41:38.309Z</time></trkpt><trkpt lat="43.9029067" lon="11.097665"><ele>74.0</ele><time>2026-03-29T07:41:39.309Z</time></trkpt><trkpt lat="43.90286" lon="11.0977583"><ele>74.14285714285714</ele><time>2026-03-29T07:41:40.31Z</time></trkpt><trkpt lat="43.9028167" lon="11.09785"><ele>74.28571428571428</ele><time>2026-03-29T07:41:41.31Z</time></trkpt><trkpt lat="43.902775" lon="11.0979383"><ele>74.42857142857142</ele><time>2026-03-29T07:41:42.311Z</time></trkpt><trkpt lat="43.9027383" lon="11.0980217"><ele>74.57142857142857</ele><time>2026-03-29T07:41:43.31Z</time></trkpt><trkpt lat="43.9027" lon="11.0981"><ele>74.71428571428571</ele><time>2026-03-29T07:41:44.311Z</time></trkpt><trkpt lat="43.9026583" lon="11.0981783"><ele>74.85714285714285</ele><time>2026-03-29T07:41:45.309Z</time></trkpt><trkpt lat="43.902615" lon="11.0982533"><ele>75.0</ele><time>2026-03-29T07:41:46.309Z</time></trkpt><trkpt lat="43.902575" lon="11.0983267"><ele>75.0</ele><time>2026-03-29T07:41:47.308Z</time></trkpt><trkpt lat="43.902535" lon="11.0984"><ele>75.0</ele><time>2026-03-29T07:41:48.31Z</time></trkpt><trkpt lat="43.9025" lon="11.0984733"><ele>75.0</ele><time>2026-03-29T07:41:49.309Z</time></trkpt><trkpt lat="43.90243" lon="11.0986117"><ele>75.0</ele><time>2026-03-29T07:41:51.309Z</time></trkpt><trkpt lat="43.9023633" lon="11.09874"><ele>75.0</ele><time>2026-03-29T07:41:53.31Z</time></trkpt><trkpt lat="43.9023067" lon="11.098845"><ele>75.0</ele><time>2026-03-29T07:41:55.31Z</time></trkpt><trkpt lat="43.9022483" lon="11.098905"><ele>75.0</ele><time>2026-03-29T07:41:57.308Z</time></trkpt><trkpt lat="43.9021833" lon="11.0989217"><ele>75.0</ele><time>2026-03-29T07:41:59.309Z</time></trkpt><trkpt lat="43.90211" lon="11.0989"><ele>75.0</ele><time>2026-03-29T07:42:01.31Z</time></trkpt><trkpt lat="43.9020267" lon="11.098875"><ele>75.0</ele><time>2026-03-29T07:42:03.308Z</time></trkpt><trkpt lat="43.90194" lon="11.0989133"><ele>75.0</ele><time>2026-03-29T07:42:05.311Z</time></trkpt><trkpt lat="43.9018717" lon="11.0990167"><ele>75.25</ele><time>2026-03-29T07:42:07.309Z</time></trkpt><trkpt lat="43.9018483" lon="11.0991767"><ele>75.5</ele><time>2026-03-29T07:42:09.309Z</time></trkpt><trkpt lat="43.90186" lon="11.0993417"><ele>75.75</ele><time>2026-03-29T07:42:11.312Z</time></trkpt><trkpt lat="43.9018717" lon="11.0995133"><ele>76.0</ele><time>2026-03-29T07:42:13.311Z</time></trkpt><trkpt lat="43.9018583" lon="11.0996783"><ele>76.0</ele><time>2026-03-29T07:42:15.309Z</time></trkpt><trkpt lat="43.9018167" lon="11.0998333"><ele>76.0</ele><time>2026-03-29T07:42:17.31Z</time></trkpt><trkpt lat="43.9017417" lon="11.0999733"><ele>76.0</ele><time>2026-03-29T07:42:19.31Z</time></trkpt><trkpt lat="43.9016733" lon="11.1001183"><ele>76.0</ele><time>2026-03-29T07:42:21.309Z</time></trkpt><trkpt lat="43.901645" lon="11.100285"><ele>75.71428571428571</ele><time>2026-03-29T07:42:23.31Z</time></trkpt><trkpt lat="43.9016583" lon="11.1003717"><ele>75.42857142857143</ele><time>2026-03-29T07:42:24.312Z</time></trkpt><trkpt lat="43.90169" lon="11.10045"><ele>75.14285714285714</ele><time>2026-03-29T07:42:25.311Z</time></trkpt><trkpt lat="43.9017317" lon="11.1005183"><ele>74.85714285714286</ele><time>2026-03-29T07:42:26.308Z</time></trkpt><trkpt lat="43.9017767" lon="11.10058"><ele>74.57142857142857</ele><time>2026-03-29T07:42:27.309Z</time></trkpt><trkpt lat="43.90184" lon="11.1007233"><ele>74.28571428571429</ele><time>2026-03-29T07:42:29.31Z</time></trkpt><trkpt lat="43.90186" lon="11.1008117"><ele>74.0</ele><time>2026-03-29T07:42:30.309Z</time></trkpt><trkpt lat="43.9018767" lon="11.1009033"><ele>74.0</ele><time>2026-03-29T07:42:31.313Z</time></trkpt><trkpt lat="43.9018883" lon="11.1009967"><ele>74.0</ele><time>2026-03-29T07:42:32.31Z</time></trkpt><trkpt lat="43.9018983" lon="11.1010833"><ele>74.0</ele><time>2026-03-29T07:42:33.308Z</time></trkpt><trkpt lat="43.9019133" lon="11.10117"><ele>74.0</ele><time>2026-03-29T07:42:34.309Z</time></trkpt><trkpt lat="43.9019217" lon="11.1012583"><ele>74.0</ele><time>2026-03-29T07:42:35.311Z</time></trkpt><trkpt lat="43.9019317" lon="11.1013467"><ele>74.0</ele><time>2026-03-29T07:42:36.31Z</time></trkpt><trkpt lat="43.9019433" lon="11.1014383"><ele>74.0</ele><time>2026-03-29T07:42:37.309Z</time></trkpt><trkpt lat="43.901965" lon="11.1015233"><ele>74.0</ele><time>2026-03-29T07:42:38.308Z</time></trkpt><trkpt lat="43.901995" lon="11.10169"><ele>74.0</ele><time>2026-03-29T07:42:40.309Z</time></trkpt><trkpt lat="43.90203" lon="11.10186"><ele>74.0</ele><time>2026-03-29T07:42:42.309Z</time></trkpt><trkpt lat="43.90205" lon="11.101945"><ele>74.0</ele><time>2026-03-29T07:42:43.309Z</time></trkpt><trkpt lat="43.9020883" lon="11.1021083"><ele>74.0</ele><time>2026-03-29T07:42:45.309Z</time></trkpt><trkpt lat="43.9021317" lon="11.10227"><ele>74.0</ele><time>2026-03-29T07:42:47.31Z</time></trkpt><trkpt lat="43.9021767" lon="11.102435"><ele>74.0</ele><time>2026-03-29T07:42:49.31Z</time></trkpt><trkpt lat="43.9022" lon="11.1025167"><ele>74.0</ele><time>2026-03-29T07:42:50.31Z</time></trkpt><trkpt lat="43.9022283" lon="11.1025967"><ele>74.0</ele><time>2026-03-29T07:42:51.309Z</time></trkpt><trkpt lat="43.9022767" lon="11.102755"><ele>74.0</ele><time>2026-03-29T07:42:53.309Z</time></trkpt><trkpt lat="43.9023333" lon="11.1029083"><ele>74.0</ele><time>2026-03-29T07:42:55.309Z</time></trkpt><trkpt lat="43.9023967" lon="11.1030567"><ele>74.0</ele><time>2026-03-29T07:42:57.308Z</time></trkpt><trkpt lat="43.9024683" lon="11.1031983"><ele>74.0</ele><time>2026-03-29T07:42:59.31Z</time></trkpt><trkpt lat="43.9025383" lon="11.10334"><ele>74.0</ele><time>2026-03-29T07:43:01.31Z</time></trkpt><trkpt lat="43.90261" lon="11.1034733"><ele>77.0</ele><time>2026-03-29T07:43:03.309Z</time></trkpt><trkpt lat="43.902685" lon="11.1036033"><ele>80.0</ele><time>2026-03-29T07:43:05.312Z</time></trkpt><trkpt lat="43.9027583" lon="11.1037317"><ele>83.0</ele><time>2026-03-29T07:43:07.31Z</time></trkpt><trkpt lat="43.9028383" lon="11.1038617"><ele>86.0</ele><time>2026-03-29T07:43:09.309Z</time></trkpt><trkpt lat="43.90292" lon="11.103985"><ele>85.0</ele><time>2026-03-29T07:43:11.31Z</time></trkpt><trkpt lat="43.9030083" lon="11.1041017"><ele>84.0</ele><time>2026-03-29T07:43:13.31Z</time></trkpt><trkpt lat="43.9031033" lon="11.1042133"><ele>83.0</ele><time>2026-03-29T07:43:15.307Z</time></trkpt><trkpt lat="43.9031917" lon="11.10432"><ele>82.0</ele><time>2026-03-29T07:43:17.31Z</time></trkpt><trkpt lat="43.9032817" lon="11.1044217"><ele>82.0</ele><time>2026-03-29T07:43:19.307Z</time></trkpt><trkpt lat="43.90337" lon="11.1045117"><ele>82.0</ele><time>2026-03-29T07:43:21.309Z</time></trkpt><trkpt lat="43.90347" lon="11.104615"><ele>82.0</ele><time>2026-03-29T07:43:23.308Z</time></trkpt><trkpt lat="43.903525" lon="11.1046667"><ele>82.0</ele><time>2026-03-29T07:43:24.308Z</time></trkpt><trkpt lat="43.9036333" lon="11.104755"><ele>82.0</ele><time>2026-03-29T07:43:26.307Z</time></trkpt><trkpt lat="43.9036883" lon="11.1047983"><ele>82.8</ele><time>2026-03-29T07:43:27.308Z</time></trkpt><trkpt lat="43.90379" lon="11.1048883"><ele>83.6</ele><time>2026-03-29T07:43:29.308Z</time></trkpt><trkpt lat="43.9038917" lon="11.1049833"><ele>84.39999999999999</ele><time>2026-03-29T07:43:31.308Z</time></trkpt><trkpt lat="43.903995" lon="11.1050833"><ele>85.19999999999999</ele><time>2026-03-29T07:43:33.308Z</time></trkpt><trkpt lat="43.9040483" lon="11.1051317"><ele>86.0</ele><time>2026-03-29T07:43:34.307Z</time></trkpt><trkpt lat="43.9041517" lon="11.1052217"><ele>86.0</ele><time>2026-03-29T07:43:36.308Z</time></trkpt><trkpt lat="43.904245" lon="11.105315"><ele>86.0</ele><time>2026-03-29T07:43:38.311Z</time></trkpt><trkpt lat="43.9043367" lon="11.1054033"><ele>86.0</ele><time>2026-03-29T07:43:40.309Z</time></trkpt><trkpt lat="43.9044283" lon="11.105495"><ele>86.0</ele><time>2026-03-29T07:43:42.308Z</time></trkpt><trkpt lat="43.9045217" lon="11.10558"><ele>86.0</ele><time>2026-03-29T07:43:44.313Z</time></trkpt><trkpt lat="43.904615" lon="11.1056633"><ele>86.0</ele><time>2026-03-29T07:43:46.31Z</time></trkpt><trkpt lat="43.9047017" lon="11.105745"><ele>86.0</ele><time>2026-03-29T07:43:48.307Z</time></trkpt><trkpt lat="43.9047867" lon="11.1058267"><ele>86.0</ele><time>2026-03-29T07:43:50.309Z</time></trkpt><trkpt lat="43.904865" lon="11.105905"><ele>86.0</ele><time>2026-03-29T07:43:52.308Z</time></trkpt><trkpt lat="43.9049217" lon="11.1060017"><ele>86.0</ele><time>2026-03-29T07:43:54.308Z</time></trkpt><trkpt lat="43.9049533" lon="11.10609"><ele>86.0</ele><time>2026-03-29T07:43:56.308Z</time></trkpt><trkpt lat="43.9050317" lon="11.10614"><ele>86.0</ele><time>2026-03-29T07:43:59.311Z</time></trkpt><trkpt lat="43.9051" lon="11.1062117"><ele>86.0</ele><time>2026-03-29T07:44:01.309Z</time></trkpt><trkpt lat="43.9051617" lon="11.10631"><ele>86.0</ele><time>2026-03-29T07:44:03.308Z</time></trkpt><trkpt lat="43.9052167" lon="11.1064233"><ele>86.0</ele><time>2026-03-29T07:44:05.31Z</time></trkpt><trkpt lat="43.9052667" lon="11.1065417"><ele>86.0</ele><time>2026-03-29T07:44:07.312Z</time></trkpt><trkpt lat="43.9053083" lon="11.1066717"><ele>86.0</ele><time>2026-03-29T07:44:09.311Z</time></trkpt><trkpt lat="43.9053417" lon="11.1068"><ele>86.0</ele><time>2026-03-29T07:44:11.31Z</time></trkpt><trkpt lat="43.90536" lon="11.10693"><ele>86.0</ele><time>2026-03-29T07:44:13.312Z</time></trkpt><trkpt lat="43.9053767" lon="11.1070517"><ele>86.0</ele><time>2026-03-29T07:44:15.31Z</time></trkpt><trkpt lat="43.9053867" lon="11.10723"><ele>86.0</ele><time>2026-03-29T07:44:18.309Z</time></trkpt><trkpt lat="43.905375" lon="11.1073517"><ele>86.0</ele><time>2026-03-29T07:44:20.311Z</time></trkpt><trkpt lat="43.9053533" lon="11.1074533"><ele>86.0</ele><time>2026-03-29T07:44:22.309Z</time></trkpt><trkpt lat="43.9053333" lon="11.10754"><ele>86.0</ele><time>2026-03-29T07:44:24.308Z</time></trkpt><trkpt lat="43.9052933" lon="11.1076417"><ele>86.0</ele><time>2026-03-29T07:44:26.308Z</time></trkpt><trkpt lat="43.9052383" lon="11.1077467"><ele>86.0</ele><time>2026-03-29T07:44:28.309Z</time></trkpt><trkpt lat="43.905165" lon="11.10785"><ele>86.19999999999999</ele><time>2026-03-29T07:44:30.312Z</time></trkpt><trkpt lat="43.905105" lon="11.107965"><ele>86.39999999999999</ele><time>2026-03-29T07:44:32.311Z</time></trkpt><trkpt lat="43.9050583" lon="11.10808"><ele>86.6</ele><time>2026-03-29T07:44:34.311Z</time></trkpt><trkpt lat="43.9050083" lon="11.1081883"><ele>86.8</ele><time>2026-03-29T07:44:36.309Z</time></trkpt><trkpt lat="43.9049583" lon="11.108295"><ele>87.0</ele><time>2026-03-29T07:44:38.31Z</time></trkpt><trkpt lat="43.9048917" lon="11.1083667"><ele>85.83333333333333</ele><time>2026-03-29T07:44:40.31Z</time></trkpt><trkpt lat="43.9048183" lon="11.10837"><ele>84.66666666666667</ele><time>2026-03-29T07:44:42.309Z</time></trkpt><trkpt lat="43.9047533" lon="11.1083433"><ele>83.5</ele><time>2026-03-29T07:44:44.308Z</time></trkpt><trkpt lat="43.9046833" lon="11.1083017"><ele>82.33333333333334</ele><time>2026-03-29T07:44:47.31Z</time></trkpt><trkpt lat="43.904665" lon="11.1084033"><ele>81.16666666666667</ele><time>2026-03-29T07:44:51.31Z</time></trkpt><trkpt lat="43.9047183" lon="11.1084933"><ele>80.0</ele><time>2026-03-29T07:44:53.31Z</time></trkpt><trkpt lat="43.904775" lon="11.1086317"><ele>80.0</ele><time>2026-03-29T07:44:55.309Z</time></trkpt><trkpt lat="43.9047817" lon="11.1087817"><ele>80.0</ele><time>2026-03-29T07:44:57.309Z</time></trkpt><trkpt lat="43.9047567" lon="11.108925"><ele>80.0</ele><time>2026-03-29T07:44:59.31Z</time></trkpt><trkpt lat="43.9047417" lon="11.1090767"><ele>80.0</ele><time>2026-03-29T07:45:01.31Z</time></trkpt><trkpt lat="43.904775" lon="11.109225"><ele>80.0</ele><time>2026-03-29T07:45:03.31Z</time></trkpt><trkpt lat="43.9048617" lon="11.10933"><ele>79.8</ele><time>2026-03-29T07:45:05.312Z</time></trkpt><trkpt lat="43.9049733" lon="11.1094033"><ele>79.6</ele><time>2026-03-29T07:45:07.31Z</time></trkpt><trkpt lat="43.9050717" lon="11.109495"><ele>79.4</ele><time>2026-03-29T07:45:09.309Z</time></trkpt><trkpt lat="43.9051583" lon="11.1096133"><ele>79.2</ele><time>2026-03-29T07:45:11.309Z</time></trkpt><trkpt lat="43.905195" lon="11.1096883"><ele>79.0</ele><time>2026-03-29T07:45:12.31Z</time></trkpt><trkpt lat="43.9052317" lon="11.1097683"><ele>79.00000000000001</ele><time>2026-03-29T07:45:13.309Z</time></trkpt><trkpt lat="43.90527" lon="11.10985"><ele>79.0</ele><time>2026-03-29T07:45:14.311Z</time></trkpt><trkpt lat="43.9053067" lon="11.1099333"><ele>79.0</ele><time>2026-03-29T07:45:15.312Z</time></trkpt><trkpt lat="43.9053433" lon="11.1100117"><ele>79.0</ele><time>2026-03-29T07:45:16.311Z</time></trkpt><trkpt lat="43.9053733" lon="11.1100983"><ele>79.0</ele><time>2026-03-29T07:45:17.31Z</time></trkpt><trkpt lat="43.9053983" lon="11.1101883"><ele>79.00000000000001</ele><time>2026-03-29T07:45:18.311Z</time></trkpt><trkpt lat="43.90542" lon="11.1102783"><ele>79.0</ele><time>2026-03-29T07:45:19.31Z</time></trkpt><trkpt lat="43.9054467" lon="11.1103667"><ele>79.14285714285715</ele><time>2026-03-29T07:45:20.311Z</time></trkpt><trkpt lat="43.9054733" lon="11.110455"><ele>79.28571428571429</ele><time>2026-03-29T07:45:21.309Z</time></trkpt><trkpt lat="43.905495" lon="11.1105417"><ele>79.42857142857143</ele><time>2026-03-29T07:45:22.31Z</time></trkpt><trkpt lat="43.9055183" lon="11.1106333"><ele>79.57142857142858</ele><time>2026-03-29T07:45:23.31Z</time></trkpt><trkpt lat="43.90554" lon="11.110725"><ele>79.71428571428572</ele><time>2026-03-29T07:45:24.311Z</time></trkpt><trkpt lat="43.9055617" lon="11.1108183"><ele>79.85714285714286</ele><time>2026-03-29T07:45:25.311Z</time></trkpt><trkpt lat="43.9055817" lon="11.11091"><ele>80.0</ele><time>2026-03-29T07:45:26.31Z</time></trkpt><trkpt lat="43.9055983" lon="11.1110017"><ele>80.14285714285714</ele><time>2026-03-29T07:45:27.312Z</time></trkpt><trkpt lat="43.9056133" lon="11.1110933"><ele>80.28571428571429</ele><time>2026-03-29T07:45:28.309Z</time></trkpt><trkpt lat="43.90563" lon="11.1111867"><ele>80.42857142857143</ele><time>2026-03-29T07:45:29.312Z</time></trkpt><trkpt lat="43.9056483" lon="11.1112783"><ele>80.57142857142857</ele><time>2026-03-29T07:45:30.31Z</time></trkpt><trkpt lat="43.9056683" lon="11.1113683"><ele>80.71428571428571</ele><time>2026-03-29T07:45:31.309Z</time></trkpt><trkpt lat="43.9056867" lon="11.11146"><ele>80.85714285714286</ele><time>2026-03-29T07:45:32.31Z</time></trkpt><trkpt lat="43.9057017" lon="11.1115517"><ele>81.0</ele><time>2026-03-29T07:45:33.309Z</time></trkpt><trkpt lat="43.90572" lon="11.111645"><ele>81.0</ele><time>2026-03-29T07:45:34.309Z</time></trkpt><trkpt lat="43.90574" lon="11.1117367"><ele>81.0</ele><time>2026-03-29T07:45:35.31Z</time></trkpt><trkpt lat="43.9057583" lon="11.1118333"><ele>81.0</ele><time>2026-03-29T07:45:36.309Z</time></trkpt><trkpt lat="43.9057767" lon="11.1119283"><ele>81.0</ele><time>2026-03-29T07:45:37.312Z</time></trkpt><trkpt lat="43.9057933" lon="11.1120217"><ele>81.0</ele><time>2026-03-29T07:45:38.311Z</time></trkpt><trkpt lat="43.90581" lon="11.112115"><ele>81.0</ele><time>2026-03-29T07:45:39.31Z</time></trkpt><trkpt lat="43.90583" lon="11.1122083"><ele>81.0</ele><time>2026-03-29T07:45:40.312Z</time></trkpt><trkpt lat="43.9058483" lon="11.1122983"><ele>81.0</ele><time>2026-03-29T07:45:41.311Z</time></trkpt><trkpt lat="43.9058667" lon="11.1123917"><ele>81.0</ele><time>2026-03-29T07:45:42.31Z</time></trkpt><trkpt lat="43.9058833" lon="11.112485"><ele>81.0</ele><time>2026-03-29T07:45:43.309Z</time></trkpt><trkpt lat="43.9059" lon="11.11258"><ele>81.0</ele><time>2026-03-29T07:45:44.312Z</time></trkpt><trkpt lat="43.9059167" lon="11.1126733"><ele>81.0</ele><time>2026-03-29T07:45:45.31Z</time></trkpt><trkpt lat="43.9059317" lon="11.1127667"><ele>81.0</ele><time>2026-03-29T07:45:46.309Z</time></trkpt><trkpt lat="43.9059467" lon="11.1128567"><ele>81.0</ele><time>2026-03-29T07:45:47.309Z</time></trkpt><trkpt lat="43.9059667" lon="11.1129517"><ele>81.14285714285714</ele><time>2026-03-29T07:45:48.309Z</time></trkpt><trkpt lat="43.905985" lon="11.1130483"><ele>81.28571428571428</ele><time>2026-03-29T07:45:49.307Z</time></trkpt><trkpt lat="43.9060033" lon="11.1131417"><ele>81.42857142857142</ele><time>2026-03-29T07:45:50.31Z</time></trkpt><trkpt lat="43.9060217" lon="11.1132333"><ele>81.57142857142857</ele><time>2026-03-29T07:45:51.309Z</time></trkpt><trkpt lat="43.906045" lon="11.1133217"><ele>81.71428571428571</ele><time>2026-03-29T07:45:52.309Z</time></trkpt><trkpt lat="43.9060683" lon="11.11341"><ele>81.85714285714285</ele><time>2026-03-29T07:45:53.311Z</time></trkpt><trkpt lat="43.90609" lon="11.1134983"><ele>82.0</ele><time>2026-03-29T07:45:54.311Z</time></trkpt><trkpt lat="43.9061133" lon="11.1135883"><ele>82.28571428571428</ele><time>2026-03-29T07:45:55.31Z</time></trkpt><trkpt lat="43.9061383" lon="11.1136767"><ele>82.57142857142857</ele><time>2026-03-29T07:45:56.31Z</time></trkpt><trkpt lat="43.90616" lon="11.1137617"><ele>82.85714285714286</ele><time>2026-03-29T07:45:57.308Z</time></trkpt><trkpt lat="43.9061833" lon="11.113845"><ele>83.14285714285714</ele><time>2026-03-29T07:45:58.309Z</time></trkpt><trkpt lat="43.90621" lon="11.113925"><ele>83.42857142857143</ele><time>2026-03-29T07:45:59.311Z</time></trkpt><trkpt lat="43.906235" lon="11.11401"><ele>83.71428571428571</ele><time>2026-03-29T07:46:00.31Z</time></trkpt><trkpt lat="43.9062617" lon="11.1140933"><ele>84.0</ele><time>2026-03-29T07:46:01.31Z</time></trkpt><trkpt lat="43.906285" lon="11.1141767"><ele>84.0</ele><time>2026-03-29T07:46:02.311Z</time></trkpt><trkpt lat="43.90631" lon="11.11426"><ele>84.0</ele><time>2026-03-29T07:46:03.31Z</time></trkpt><trkpt lat="43.906335" lon="11.1143433"><ele>84.0</ele><time>2026-03-29T07:46:04.309Z</time></trkpt><trkpt lat="43.90636" lon="11.1144267"><ele>84.0</ele><time>2026-03-29T07:46:05.309Z</time></trkpt><trkpt lat="43.906405" lon="11.1145833"><ele>84.0</ele><time>2026-03-29T07:46:07.311Z</time></trkpt><trkpt lat="43.9064717" lon="11.114735"><ele>84.0</ele><time>2026-03-29T07:46:09.308Z</time></trkpt><trkpt lat="43.9065017" lon="11.1148133"><ele>84.0</ele><time>2026-03-29T07:46:10.309Z</time></trkpt><trkpt lat="43.90653" lon="11.1148933"><ele>84.0</ele><time>2026-03-29T07:46:11.31Z</time></trkpt><trkpt lat="43.906575" lon="11.1150517"><ele>84.0</ele><time>2026-03-29T07:46:13.311Z</time></trkpt><trkpt lat="43.9065983" lon="11.1151333"><ele>84.0</ele><time>2026-03-29T07:46:14.31Z</time></trkpt><trkpt lat="43.9066467" lon="11.1152883"><ele>84.0</ele><time>2026-03-29T07:46:16.309Z</time></trkpt><trkpt lat="43.9066783" lon="11.1153667"><ele>84.0</ele><time>2026-03-29T07:46:17.31Z</time></trkpt><trkpt lat="43.9067117" lon="11.1154467"><ele>83.83333333333333</ele><time>2026-03-29T07:46:18.309Z</time></trkpt><trkpt lat="43.9067433" lon="11.115525"><ele>83.66666666666667</ele><time>2026-03-29T07:46:19.31Z</time></trkpt><trkpt lat="43.9067783" lon="11.1156017"><ele>83.5</ele><time>2026-03-29T07:46:20.311Z</time></trkpt><trkpt lat="43.9068583" lon="11.1157333"><ele>83.33333333333334</ele><time>2026-03-29T07:46:22.309Z</time></trkpt><trkpt lat="43.90695" lon="11.1158483"><ele>83.16666666666667</ele><time>2026-03-29T07:46:24.311Z</time></trkpt><trkpt lat="43.9070083" lon="11.1158917"><ele>83.0</ele><time>2026-03-29T07:46:25.31Z</time></trkpt><trkpt lat="43.9071233" lon="11.1159533"><ele>83.5</ele><time>2026-03-29T07:46:27.31Z</time></trkpt><trkpt lat="43.9072417" lon="11.1159783"><ele>84.0</ele><time>2026-03-29T07:46:29.309Z</time></trkpt><trkpt lat="43.9073533" lon="11.11596"><ele>84.5</ele><time>2026-03-29T07:46:31.31Z</time></trkpt><trkpt lat="43.907455" lon="11.115925"><ele>85.0</ele><time>2026-03-29T07:46:33.309Z</time></trkpt><trkpt lat="43.907565" lon="11.11588"><ele>85.4</ele><time>2026-03-29T07:46:35.311Z</time></trkpt><trkpt lat="43.9076733" lon="11.115865"><ele>85.8</ele><time>2026-03-29T07:46:37.311Z</time></trkpt><trkpt lat="43.907765" lon="11.1158433"><ele>86.19999999999999</ele><time>2026-03-29T07:46:39.312Z</time></trkpt><trkpt lat="43.90783" lon="11.1158217"><ele>86.6</ele><time>2026-03-29T07:46:41.31Z</time></trkpt><trkpt lat="43.90795" lon="11.1158067"><ele>87.0</ele><time>2026-03-29T07:46:56.308Z</time></trkpt><trkpt lat="43.9080213" lon="11.115826"><ele>87.0</ele><time>2026-03-29T07:47:28.31Z</time></trkpt><trkpt lat="43.9081027" lon="11.1158327"><ele>87.0</ele><time>2026-03-29T07:47:45.321Z</time></trkpt><trkpt lat="43.908168" lon="11.1158443"><ele>87.0</ele><time>2026-03-29T07:47:54.352Z</time></trkpt><trkpt lat="43.9082388" lon="11.115869"><ele>87.0</ele><time>2026-03-29T07:48:05.328Z</time></trkpt><trkpt lat="43.90852" lon="11.116125"><ele>90.0</ele><time>2026-03-29T07:48:09.31Z</time></trkpt><trkpt lat="43.908605" lon="11.1162067"><ele>93.0</ele><time>2026-03-29T07:48:11.309Z</time></trkpt><trkpt lat="43.908695" lon="11.116295"><ele>96.0</ele><time>2026-03-29T07:48:13.309Z</time></trkpt><trkpt lat="43.9087933" lon="11.1163933"><ele>99.0</ele><time>2026-03-29T07:48:15.309Z</time></trkpt><trkpt lat="43.9088883" lon="11.1164917"><ele>97.66666666666667</ele><time>2026-03-29T07:48:17.309Z</time></trkpt><trkpt lat="43.9089783" lon="11.116605"><ele>96.33333333333333</ele><time>2026-03-29T07:48:19.31Z</time></trkpt><trkpt lat="43.9090283" lon="11.11666"><ele>95.0</ele><time>2026-03-29T07:48:20.31Z</time></trkpt><trkpt lat="43.9090833" lon="11.1167183"><ele>93.66666666666666</ele><time>2026-03-29T07:48:21.308Z</time></trkpt><trkpt lat="43.90914" lon="11.116775"><ele>92.33333333333333</ele><time>2026-03-29T07:48:22.309Z</time></trkpt><trkpt lat="43.9092" lon="11.1168317"><ele>91.0</ele><time>2026-03-29T07:48:23.31Z</time></trkpt><trkpt lat="43.90926" lon="11.1168867"><ele>94.0</ele><time>2026-03-29T07:48:24.31Z</time></trkpt><trkpt lat="43.9093183" lon="11.11694"><ele>97.0</ele><time>2026-03-29T07:48:25.31Z</time></trkpt><trkpt lat="43.9093767" lon="11.1169983"><ele>100.0</ele><time>2026-03-29T07:48:26.309Z</time></trkpt><trkpt lat="43.909435" lon="11.11705"><ele>103.0</ele><time>2026-03-29T07:48:27.31Z</time></trkpt><trkpt lat="43.9094883" lon="11.1171"><ele>106.00000000000001</ele><time>2026-03-29T07:48:28.308Z</time></trkpt><trkpt lat="43.9095933" lon="11.1171933"><ele>109.0</ele><time>2026-03-29T07:48:30.309Z</time></trkpt><trkpt lat="43.909645" lon="11.1172433"><ele>109.00000000000001</ele><time>2026-03-29T07:48:31.31Z</time></trkpt><trkpt lat="43.9096967" lon="11.117295"><ele>109.0</ele><time>2026-03-29T07:48:32.31Z</time></trkpt><trkpt lat="43.909795" lon="11.1174"><ele>109.0</ele><time>2026-03-29T07:48:34.308Z</time></trkpt><trkpt lat="43.90989" lon="11.117515"><ele>109.0</ele><time>2026-03-29T07:48:36.309Z</time></trkpt><trkpt lat="43.9099367" lon="11.11758"><ele>109.00000000000001</ele><time>2026-03-29T07:48:37.309Z</time></trkpt><trkpt lat="43.90998" lon="11.1176483"><ele>109.0</ele><time>2026-03-29T07:48:38.311Z</time></trkpt><trkpt lat="43.9100217" lon="11.117715"><ele>109.85714285714286</ele><time>2026-03-29T07:48:39.31Z</time></trkpt><trkpt lat="43.910065" lon="11.117785"><ele>110.71428571428572</ele><time>2026-03-29T07:48:40.31Z</time></trkpt><trkpt lat="43.9101067" lon="11.1178583"><ele>111.57142857142856</ele><time>2026-03-29T07:48:41.309Z</time></trkpt><trkpt lat="43.910145" lon="11.1179317"><ele>112.42857142857142</ele><time>2026-03-29T07:48:42.309Z</time></trkpt><trkpt lat="43.9101783" lon="11.11801"><ele>113.28571428571428</ele><time>2026-03-29T07:48:43.312Z</time></trkpt><trkpt lat="43.91021" lon="11.1180867"><ele>114.14285714285712</ele><time>2026-03-29T07:48:44.314Z</time></trkpt><trkpt lat="43.9102367" lon="11.1181667"><ele>114.99999999999999</ele><time>2026-03-29T07:48:45.309Z</time></trkpt><trkpt lat="43.9102633" lon="11.1182483"><ele>112.42857142857142</ele><time>2026-03-29T07:48:46.31Z</time></trkpt><trkpt lat="43.91029" lon="11.1183317"><ele>109.85714285714286</ele><time>2026-03-29T07:48:47.313Z</time></trkpt><trkpt lat="43.9103183" lon="11.1184167"><ele>107.28571428571428</ele><time>2026-03-29T07:48:48.31Z</time></trkpt><trkpt lat="43.910345" lon="11.1185033"><ele>104.71428571428571</ele><time>2026-03-29T07:48:49.309Z</time></trkpt><trkpt lat="43.91037" lon="11.11859"><ele>102.14285714285714</ele><time>2026-03-29T07:48:50.308Z</time></trkpt><trkpt lat="43.9103917" lon="11.118675"><ele>99.57142857142857</ele><time>2026-03-29T07:48:51.308Z</time></trkpt><trkpt lat="43.9104117" lon="11.1187617"><ele>97.0</ele><time>2026-03-29T07:48:52.31Z</time></trkpt><trkpt lat="43.9104333" lon="11.118845"><ele>97.0</ele><time>2026-03-29T07:48:53.311Z</time></trkpt><trkpt lat="43.910455" lon="11.1189283"><ele>97.0</ele><time>2026-03-29T07:48:54.312Z</time></trkpt><trkpt lat="43.9104783" lon="11.1190117"><ele>97.0</ele><time>2026-03-29T07:48:55.312Z</time></trkpt><trkpt lat="43.9105033" lon="11.1190933"><ele>97.0</ele><time>2026-03-29T07:48:56.311Z</time></trkpt><trkpt lat="43.9105267" lon="11.1191767"><ele>97.0</ele><time>2026-03-29T07:48:57.309Z</time></trkpt><trkpt lat="43.9105517" lon="11.11926"><ele>97.0</ele><time>2026-03-29T07:48:58.309Z</time></trkpt><trkpt lat="43.910575" lon="11.119345"><ele>97.0</ele><time>2026-03-29T07:48:59.31Z</time></trkpt><trkpt lat="43.9106017" lon="11.119425"><ele>95.6</ele><time>2026-03-29T07:49:00.309Z</time></trkpt><trkpt lat="43.91063" lon="11.1195033"><ele>94.19999999999999</ele><time>2026-03-29T07:49:01.308Z</time></trkpt><trkpt lat="43.9106833" lon="11.11966"><ele>92.8</ele><time>2026-03-29T07:49:03.313Z</time></trkpt><trkpt lat="43.910715" lon="11.1197383"><ele>91.4</ele><time>2026-03-29T07:49:04.308Z</time></trkpt><trkpt lat="43.9107733" lon="11.119895"><ele>90.0</ele><time>2026-03-29T07:49:06.31Z</time></trkpt><trkpt lat="43.91083" lon="11.12004"><ele>90.0</ele><time>2026-03-29T07:49:08.31Z</time></trkpt><trkpt lat="43.9108867" lon="11.120175"><ele>90.0</ele><time>2026-03-29T07:49:10.31Z</time></trkpt><trkpt lat="43.9109467" lon="11.1203117"><ele>90.0</ele><time>2026-03-29T07:49:12.309Z</time></trkpt><trkpt lat="43.911015" lon="11.120435"><ele>90.0</ele><time>2026-03-29T07:49:14.31Z</time></trkpt><trkpt lat="43.9110833" lon="11.1205467"><ele>90.0</ele><time>2026-03-29T07:49:16.309Z</time></trkpt><trkpt lat="43.9111567" lon="11.120655"><ele>92.0</ele><time>2026-03-29T07:49:18.31Z</time></trkpt><trkpt lat="43.9112333" lon="11.1207567"><ele>94.0</ele><time>2026-03-29T07:49:20.311Z</time></trkpt><trkpt lat="43.911315" lon="11.120845"><ele>96.0</ele><time>2026-03-29T07:49:22.311Z</time></trkpt><trkpt lat="43.9113917" lon="11.1209217"><ele>98.0</ele><time>2026-03-29T07:49:24.313Z</time></trkpt><trkpt lat="43.91147" lon="11.121"><ele>100.0</ele><time>2026-03-29T07:49:26.309Z</time></trkpt><trkpt lat="43.9115467" lon="11.121065"><ele>100.0</ele><time>2026-03-29T07:49:28.312Z</time></trkpt><trkpt lat="43.911615" lon="11.1211183"><ele>100.0</ele><time>2026-03-29T07:49:30.311Z</time></trkpt><trkpt lat="43.911695" lon="11.1211933"><ele>100.0</ele><time>2026-03-29T07:49:32.31Z</time></trkpt><trkpt lat="43.9117717" lon="11.1213083"><ele>100.0</ele><time>2026-03-29T07:49:34.309Z</time></trkpt><trkpt lat="43.911845" lon="11.1214117"><ele>100.0</ele><time>2026-03-29T07:49:36.313Z</time></trkpt><trkpt lat="43.9119133" lon="11.1215133"><ele>102.8</ele><time>2026-03-29T07:49:38.311Z</time></trkpt><trkpt lat="43.9119783" lon="11.1216233"><ele>105.6</ele><time>2026-03-29T07:49:40.31Z</time></trkpt><trkpt lat="43.9120383" lon="11.1217317"><ele>108.4</ele><time>2026-03-29T07:49:42.312Z</time></trkpt><trkpt lat="43.9120967" lon="11.1218383"><ele>111.2</ele><time>2026-03-29T07:49:44.31Z</time></trkpt><trkpt lat="43.912155" lon="11.1219533"><ele>114.0</ele><time>2026-03-29T07:49:46.308Z</time></trkpt><trkpt lat="43.9122133" lon="11.12206"><ele>114.0</ele><time>2026-03-29T07:49:48.31Z</time></trkpt><trkpt lat="43.9122717" lon="11.12217"><ele>114.0</ele><time>2026-03-29T07:49:50.311Z</time></trkpt><trkpt lat="43.9123283" lon="11.12228"><ele>114.0</ele><time>2026-03-29T07:49:52.311Z</time></trkpt><trkpt lat="43.9123883" lon="11.122385"><ele>114.0</ele><time>2026-03-29T07:49:54.309Z</time></trkpt><trkpt lat="43.912445" lon="11.1224967"><ele>114.0</ele><time>2026-03-29T07:49:56.311Z</time></trkpt><trkpt lat="43.9124983" lon="11.122615"><ele>115.4</ele><time>2026-03-29T07:49:58.309Z</time></trkpt><trkpt lat="43.9125517" lon="11.1227417"><ele>116.80000000000001</ele><time>2026-03-29T07:50:00.309Z</time></trkpt><trkpt lat="43.9126083" lon="11.1228683"><ele>118.19999999999999</ele><time>2026-03-29T07:50:02.309Z</time></trkpt><trkpt lat="43.91267" lon="11.1229917"><ele>119.6</ele><time>2026-03-29T07:50:04.309Z</time></trkpt><trkpt lat="43.91273" lon="11.12312"><ele>121.0</ele><time>2026-03-29T07:50:06.308Z</time></trkpt><trkpt lat="43.9127917" lon="11.1232483"><ele>121.0</ele><time>2026-03-29T07:50:08.31Z</time></trkpt><trkpt lat="43.9128483" lon="11.123375"><ele>121.0</ele><time>2026-03-29T07:50:10.309Z</time></trkpt><trkpt lat="43.912905" lon="11.1235117"><ele>121.0</ele><time>2026-03-29T07:50:12.309Z</time></trkpt><trkpt lat="43.912965" lon="11.1236517"><ele>121.0</ele><time>2026-03-29T07:50:14.31Z</time></trkpt><trkpt lat="43.9130133" lon="11.12379"><ele>121.0</ele><time>2026-03-29T07:50:16.311Z</time></trkpt><trkpt lat="43.91306" lon="11.123925"><ele>119.75</ele><time>2026-03-29T07:50:18.31Z</time></trkpt><trkpt lat="43.9131083" lon="11.124065"><ele>118.5</ele><time>2026-03-29T07:50:20.31Z</time></trkpt><trkpt lat="43.9131533" lon="11.1242083"><ele>117.25</ele><time>2026-03-29T07:50:22.309Z</time></trkpt><trkpt lat="43.913195" lon="11.1243583"><ele>116.0</ele><time>2026-03-29T07:50:24.31Z</time></trkpt><trkpt lat="43.9132367" lon="11.1245117"><ele>116.0</ele><time>2026-03-29T07:50:26.31Z</time></trkpt><trkpt lat="43.9132883" lon="11.1246667"><ele>116.0</ele><time>2026-03-29T07:50:28.311Z</time></trkpt><trkpt lat="43.9133417" lon="11.1248217"><ele>116.0</ele><time>2026-03-29T07:50:30.313Z</time></trkpt><trkpt lat="43.9134117" lon="11.12497"><ele>116.0</ele><time>2026-03-29T07:50:32.313Z</time></trkpt><trkpt lat="43.9134517" lon="11.1250517"><ele>116.0</ele><time>2026-03-29T07:50:33.31Z</time></trkpt><trkpt lat="43.9134967" lon="11.1251317"><ele>115.66666666666666</ele><time>2026-03-29T07:50:34.311Z</time></trkpt><trkpt lat="43.9135467" lon="11.12521"><ele>115.33333333333333</ele><time>2026-03-29T07:50:35.31Z</time></trkpt><trkpt lat="43.9136" lon="11.1252867"><ele>115.0</ele><time>2026-03-29T07:50:36.311Z</time></trkpt><trkpt lat="43.9136567" lon="11.12536"><ele>114.66666666666666</ele><time>2026-03-29T07:50:37.31Z</time></trkpt><trkpt lat="43.9137167" lon="11.12543"><ele>114.33333333333333</ele><time>2026-03-29T07:50:38.311Z</time></trkpt><trkpt lat="43.9137833" lon="11.1254883"><ele>114.0</ele><time>2026-03-29T07:50:39.311Z</time></trkpt><trkpt lat="43.9138567" lon="11.1255417"><ele>114.0</ele><time>2026-03-29T07:50:40.311Z</time></trkpt><trkpt lat="43.9139317" lon="11.1255967"><ele>114.0</ele><time>2026-03-29T07:50:41.312Z</time></trkpt><trkpt lat="43.9140133" lon="11.1256333"><ele>114.0</ele><time>2026-03-29T07:50:42.311Z</time></trkpt><trkpt lat="43.9140967" lon="11.125655"><ele>114.0</ele><time>2026-03-29T07:50:43.312Z</time></trkpt><trkpt lat="43.9141783" lon="11.1256633"><ele>114.0</ele><time>2026-03-29T07:50:44.311Z</time></trkpt><trkpt lat="43.91426" lon="11.125655"><ele>114.0</ele><time>2026-03-29T07:50:45.311Z</time></trkpt><trkpt lat="43.9143383" lon="11.125635"><ele>113.83333333333333</ele><time>2026-03-29T07:50:46.309Z</time></trkpt><trkpt lat="43.914415" lon="11.1256033"><ele>113.66666666666666</ele><time>2026-03-29T07:50:47.311Z</time></trkpt><trkpt lat="43.9144867" lon="11.1255533"><ele>113.5</ele><time>2026-03-29T07:50:48.309Z</time></trkpt><trkpt lat="43.9145533" lon="11.1254933"><ele>113.33333333333333</ele><time>2026-03-29T07:50:49.309Z</time></trkpt><trkpt lat="43.9146183" lon="11.1254233"><ele>113.16666666666666</ele><time>2026-03-29T07:50:50.311Z</time></trkpt><trkpt lat="43.914675" lon="11.1253483"><ele>113.0</ele><time>2026-03-29T07:50:51.31Z</time></trkpt><trkpt lat="43.914735" lon="11.1252767"><ele>112.99999999999999</ele><time>2026-03-29T07:50:52.312Z</time></trkpt><trkpt lat="43.91479" lon="11.125205"><ele>113.0</ele><time>2026-03-29T07:50:53.308Z</time></trkpt><trkpt lat="43.9148533" lon="11.125135"><ele>113.0</ele><time>2026-03-29T07:50:54.311Z</time></trkpt><trkpt lat="43.91492" lon="11.12508"><ele>113.0</ele><time>2026-03-29T07:50:55.31Z</time></trkpt><trkpt lat="43.9149967" lon="11.1250417"><ele>112.99999999999999</ele><time>2026-03-29T07:50:56.31Z</time></trkpt><trkpt lat="43.9150767" lon="11.1250217"><ele>113.0</ele><time>2026-03-29T07:50:57.312Z</time></trkpt><trkpt lat="43.9151533" lon="11.1250167"><ele>113.33333333333333</ele><time>2026-03-29T07:50:58.311Z</time></trkpt><trkpt lat="43.9152717" lon="11.1250767"><ele>113.66666666666666</ele><time>2026-03-29T07:51:00.311Z</time></trkpt><trkpt lat="43.91533" lon="11.1251367"><ele>114.0</ele><time>2026-03-29T07:51:01.311Z</time></trkpt><trkpt lat="43.9153917" lon="11.1252067"><ele>114.33333333333334</ele><time>2026-03-29T07:51:02.311Z</time></trkpt><trkpt lat="43.9154567" lon="11.12527"><ele>114.66666666666667</ele><time>2026-03-29T07:51:03.31Z</time></trkpt><trkpt lat="43.915525" lon="11.1253317"><ele>115.0</ele><time>2026-03-29T07:51:04.309Z</time></trkpt><trkpt lat="43.9155967" lon="11.1254"><ele>115.0</ele><time>2026-03-29T07:51:05.31Z</time></trkpt><trkpt lat="43.91567" lon="11.1254667"><ele>115.0</ele><time>2026-03-29T07:51:06.309Z</time></trkpt><trkpt lat="43.9157517" lon="11.12553"><ele>115.0</ele><time>2026-03-29T07:51:07.311Z</time></trkpt><trkpt lat="43.9158317" lon="11.1255883"><ele>115.0</ele><time>2026-03-29T07:51:08.311Z</time></trkpt><trkpt lat="43.9159133" lon="11.1256467"><ele>115.0</ele><time>2026-03-29T07:51:09.31Z</time></trkpt><trkpt lat="43.91599" lon="11.1257033"><ele>111.83333333333334</ele><time>2026-03-29T07:51:10.31Z</time></trkpt><trkpt lat="43.9160667" lon="11.1257617"><ele>108.66666666666667</ele><time>2026-03-29T07:51:11.31Z</time></trkpt><trkpt lat="43.9161433" lon="11.1258183"><ele>105.5</ele><time>2026-03-29T07:51:12.311Z</time></trkpt><trkpt lat="43.9162167" lon="11.1258717"><ele>102.33333333333334</ele><time>2026-03-29T07:51:13.31Z</time></trkpt><trkpt lat="43.9162883" lon="11.12593"><ele>99.16666666666667</ele><time>2026-03-29T07:51:14.31Z</time></trkpt><trkpt lat="43.9163583" lon="11.1259867"><ele>96.0</ele><time>2026-03-29T07:51:15.31Z</time></trkpt><trkpt lat="43.9164267" lon="11.12604"><ele>95.99999999999999</ele><time>2026-03-29T07:51:16.31Z</time></trkpt><trkpt lat="43.916495" lon="11.1260933"><ele>96.0</ele><time>2026-03-29T07:51:17.31Z</time></trkpt><trkpt lat="43.9165583" lon="11.1261467"><ele>96.0</ele><time>2026-03-29T07:51:18.309Z</time></trkpt><trkpt lat="43.91662" lon="11.1262017"><ele>96.0</ele><time>2026-03-29T07:51:19.31Z</time></trkpt><trkpt lat="43.916685" lon="11.1262533"><ele>96.0</ele><time>2026-03-29T07:51:20.309Z</time></trkpt><trkpt lat="43.9167483" lon="11.1263017"><ele>95.99999999999999</ele><time>2026-03-29T07:51:21.31Z</time></trkpt><trkpt lat="43.9168083" lon="11.1263467"><ele>96.0</ele><time>2026-03-29T07:51:22.309Z</time></trkpt><trkpt lat="43.91687" lon="11.1263933"><ele>95.33333333333333</ele><time>2026-03-29T07:51:23.309Z</time></trkpt><trkpt lat="43.9169317" lon="11.126435"><ele>94.66666666666667</ele><time>2026-03-29T07:51:24.311Z</time></trkpt><trkpt lat="43.9169917" lon="11.1264733"><ele>94.0</ele><time>2026-03-29T07:51:25.311Z</time></trkpt><trkpt lat="43.9170533" lon="11.1265117"><ele>93.33333333333334</ele><time>2026-03-29T07:51:26.311Z</time></trkpt><trkpt lat="43.91716" lon="11.12657"><ele>92.66666666666667</ele><time>2026-03-29T07:51:28.309Z</time></trkpt><trkpt lat="43.9172667" lon="11.126625"><ele>92.0</ele><time>2026-03-29T07:51:30.31Z</time></trkpt><trkpt lat="43.917365" lon="11.1266633"><ele>92.0</ele><time>2026-03-29T07:51:32.31Z</time></trkpt><trkpt lat="43.9174483" lon="11.1266867"><ele>92.0</ele><time>2026-03-29T07:51:34.31Z</time></trkpt><trkpt lat="43.9175333" lon="11.12671"><ele>92.0</ele><time>2026-03-29T07:51:36.311Z</time></trkpt><trkpt lat="43.9176217" lon="11.126735"><ele>92.0</ele><time>2026-03-29T07:51:38.31Z</time></trkpt><trkpt lat="43.9177117" lon="11.1267433"><ele>92.0</ele><time>2026-03-29T07:51:40.309Z</time></trkpt><trkpt lat="43.9178" lon="11.1267267"><ele>92.0</ele><time>2026-03-29T07:51:42.311Z</time></trkpt><trkpt lat="43.9178817" lon="11.1266933"><ele>93.0</ele><time>2026-03-29T07:51:44.311Z</time></trkpt><trkpt lat="43.917955" lon="11.126635"><ele>94.0</ele><time>2026-03-29T07:51:46.308Z</time></trkpt><trkpt lat="43.9180083" lon="11.1265617"><ele>95.0</ele><time>2026-03-29T07:51:48.308Z</time></trkpt><trkpt lat="43.9180583" lon="11.12646"><ele>96.0</ele><time>2026-03-29T07:51:50.31Z</time></trkpt><trkpt lat="43.9180983" lon="11.12637"><ele>96.99999999999999</ele><time>2026-03-29T07:51:52.308Z</time></trkpt><trkpt lat="43.918125" lon="11.1262817"><ele>98.0</ele><time>2026-03-29T07:51:54.309Z</time></trkpt><trkpt lat="43.9181567" lon="11.1261733"><ele>101.99999999999999</ele><time>2026-03-29T07:51:57.309Z</time></trkpt><trkpt lat="43.9181983" lon="11.1260867"><ele>106.0</ele><time>2026-03-29T07:52:00.31Z</time></trkpt><trkpt lat="43.918255" lon="11.1260433"><ele>110.0</ele><time>2026-03-29T07:52:03.309Z</time></trkpt><trkpt lat="43.9183233" lon="11.12605"><ele>114.0</ele><time>2026-03-29T07:52:06.31Z</time></trkpt><trkpt lat="43.91839" lon="11.126075"><ele>117.99999999999999</ele><time>2026-03-29T07:52:08.311Z</time></trkpt><trkpt lat="43.918475" lon="11.1261117"><ele>122.0</ele><time>2026-03-29T07:52:10.31Z</time></trkpt><trkpt lat="43.9185583" lon="11.1261383"><ele>124.6</ele><time>2026-03-29T07:52:12.309Z</time></trkpt><trkpt lat="43.9186533" lon="11.1261717"><ele>127.19999999999999</ele><time>2026-03-29T07:52:14.312Z</time></trkpt><trkpt lat="43.9187433" lon="11.1262117"><ele>129.8</ele><time>2026-03-29T07:52:16.31Z</time></trkpt><trkpt lat="43.918845" lon="11.126265"><ele>132.4</ele><time>2026-03-29T07:52:18.311Z</time></trkpt><trkpt lat="43.9189517" lon="11.126305"><ele>135.0</ele><time>2026-03-29T07:52:20.31Z</time></trkpt><trkpt lat="43.9190633" lon="11.126345"><ele>135.0</ele><time>2026-03-29T07:52:22.311Z</time></trkpt><trkpt lat="43.919175" lon="11.1263867"><ele>135.0</ele><time>2026-03-29T07:52:24.311Z</time></trkpt><trkpt lat="43.9192917" lon="11.1264267"><ele>135.0</ele><time>2026-03-29T07:52:26.309Z</time></trkpt><trkpt lat="43.9194083" lon="11.126465"><ele>135.0</ele><time>2026-03-29T07:52:28.313Z</time></trkpt><trkpt lat="43.9195183" lon="11.12649"><ele>133.2</ele><time>2026-03-29T07:52:30.311Z</time></trkpt><trkpt lat="43.919635" lon="11.1265"><ele>131.4</ele><time>2026-03-29T07:52:32.312Z</time></trkpt><trkpt lat="43.9197617" lon="11.1265017"><ele>129.6</ele><time>2026-03-29T07:52:34.31Z</time></trkpt><trkpt lat="43.9198267" lon="11.1264917"><ele>127.8</ele><time>2026-03-29T07:52:35.313Z</time></trkpt><trkpt lat="43.91995" lon="11.1264667"><ele>126.0</ele><time>2026-03-29T07:52:37.309Z</time></trkpt><trkpt lat="43.9200667" lon="11.1264117"><ele>124.85714285714286</ele><time>2026-03-29T07:52:39.309Z</time></trkpt><trkpt lat="43.920125" lon="11.1263767"><ele>123.71428571428572</ele><time>2026-03-29T07:52:40.31Z</time></trkpt><trkpt lat="43.9201817" lon="11.126335"><ele>122.57142857142857</ele><time>2026-03-29T07:52:41.309Z</time></trkpt><trkpt lat="43.9202383" lon="11.12629"><ele>121.42857142857143</ele><time>2026-03-29T07:52:42.31Z</time></trkpt><trkpt lat="43.9202983" lon="11.1262483"><ele>120.28571428571429</ele><time>2026-03-29T07:52:43.31Z</time></trkpt><trkpt lat="43.9203583" lon="11.1262083"><ele>119.14285714285714</ele><time>2026-03-29T07:52:44.309Z</time></trkpt><trkpt lat="43.9204167" lon="11.1261717"><ele>118.0</ele><time>2026-03-29T07:52:45.31Z</time></trkpt><trkpt lat="43.9204783" lon="11.1261367"><ele>118.0</ele><time>2026-03-29T07:52:46.31Z</time></trkpt><trkpt lat="43.92054" lon="11.126105"><ele>118.0</ele><time>2026-03-29T07:52:47.309Z</time></trkpt><trkpt lat="43.920605" lon="11.1260717"><ele>118.0</ele><time>2026-03-29T07:52:48.31Z</time></trkpt><trkpt lat="43.92067" lon="11.1260417"><ele>118.0</ele><time>2026-03-29T07:52:49.31Z</time></trkpt><trkpt lat="43.920735" lon="11.1260083"><ele>118.0</ele><time>2026-03-29T07:52:50.309Z</time></trkpt><trkpt lat="43.9207967" lon="11.125975"><ele>118.0</ele><time>2026-03-29T07:52:51.31Z</time></trkpt><trkpt lat="43.9208617" lon="11.1259467"><ele>118.0</ele><time>2026-03-29T07:52:52.308Z</time></trkpt><trkpt lat="43.9209317" lon="11.12593"><ele>119.0</ele><time>2026-03-29T07:52:53.31Z</time></trkpt><trkpt lat="43.921" lon="11.1259283"><ele>120.0</ele><time>2026-03-29T07:52:54.311Z</time></trkpt><trkpt lat="43.921065" lon="11.1259333"><ele>121.0</ele><time>2026-03-29T07:52:55.311Z</time></trkpt><trkpt lat="43.9211317" lon="11.125945"><ele>122.0</ele><time>2026-03-29T07:52:56.309Z</time></trkpt><trkpt lat="43.9211983" lon="11.12596"><ele>123.0</ele><time>2026-03-29T07:52:57.309Z</time></trkpt><trkpt lat="43.9212633" lon="11.125975"><ele>124.0</ele><time>2026-03-29T07:52:58.309Z</time></trkpt><trkpt lat="43.9213283" lon="11.1259917"><ele>125.0</ele><time>2026-03-29T07:52:59.31Z</time></trkpt><trkpt lat="43.921395" lon="11.126015"><ele>125.0</ele><time>2026-03-29T07:53:00.309Z</time></trkpt><trkpt lat="43.9214583" lon="11.1260333"><ele>125.0</ele><time>2026-03-29T07:53:01.31Z</time></trkpt><trkpt lat="43.9215217" lon="11.1260517"><ele>125.0</ele><time>2026-03-29T07:53:02.31Z</time></trkpt><trkpt lat="43.9215883" lon="11.126075"><ele>125.0</ele><time>2026-03-29T07:53:03.308Z</time></trkpt><trkpt lat="43.9216517" lon="11.126095"><ele>125.0</ele><time>2026-03-29T07:53:04.309Z</time></trkpt><trkpt lat="43.921715" lon="11.12612"><ele>125.0</ele><time>2026-03-29T07:53:05.308Z</time></trkpt><trkpt lat="43.9217767" lon="11.12614"><ele>125.0</ele><time>2026-03-29T07:53:06.31Z</time></trkpt><trkpt lat="43.9219" lon="11.126175"><ele>128.4</ele><time>2026-03-29T07:53:08.31Z</time></trkpt><trkpt lat="43.922015" lon="11.12621"><ele>131.8</ele><time>2026-03-29T07:53:10.309Z</time></trkpt><trkpt lat="43.9220833" lon="11.12622"><ele>135.2</ele><time>2026-03-29T07:53:11.309Z</time></trkpt><trkpt lat="43.9221467" lon="11.126225"><ele>138.6</ele><time>2026-03-29T07:53:12.31Z</time></trkpt><trkpt lat="43.9222617" lon="11.12623"><ele>142.0</ele><time>2026-03-29T07:53:14.31Z</time></trkpt><trkpt lat="43.92238" lon="11.1262483"><ele>142.0</ele><time>2026-03-29T07:53:16.312Z</time></trkpt><trkpt lat="43.9224433" lon="11.12625"><ele>142.0</ele><time>2026-03-29T07:53:17.311Z</time></trkpt><trkpt lat="43.9225067" lon="11.126255"><ele>142.0</ele><time>2026-03-29T07:53:18.312Z</time></trkpt><trkpt lat="43.922625" lon="11.1262683"><ele>142.0</ele><time>2026-03-29T07:53:20.31Z</time></trkpt><trkpt lat="43.92269" lon="11.1262767"><ele>142.0</ele><time>2026-03-29T07:53:21.31Z</time></trkpt><trkpt lat="43.9228067" lon="11.1263"><ele>142.0</ele><time>2026-03-29T07:53:23.31Z</time></trkpt><trkpt lat="43.922925" lon="11.1263383"><ele>143.79999999999998</ele><time>2026-03-29T07:53:25.309Z</time></trkpt><trkpt lat="43.9230433" lon="11.1263967"><ele>145.6</ele><time>2026-03-29T07:53:27.31Z</time></trkpt><trkpt lat="43.9231033" lon="11.12643"><ele>147.39999999999998</ele><time>2026-03-29T07:53:28.309Z</time></trkpt><trkpt lat="43.9231633" lon="11.1264667"><ele>149.2</ele><time>2026-03-29T07:53:29.309Z</time></trkpt><trkpt lat="43.9232733" lon="11.1265317"><ele>151.0</ele><time>2026-03-29T07:53:31.309Z</time></trkpt><trkpt lat="43.9233883" lon="11.1265883"><ele>147.16666666666669</ele><time>2026-03-29T07:53:33.311Z</time></trkpt><trkpt lat="43.92345" lon="11.126615"><ele>143.33333333333334</ele><time>2026-03-29T07:53:34.311Z</time></trkpt><trkpt lat="43.9235133" lon="11.1266383"><ele>139.5</ele><time>2026-03-29T07:53:35.31Z</time></trkpt><trkpt lat="43.923575" lon="11.1266567"><ele>135.66666666666666</ele><time>2026-03-29T07:53:36.309Z</time></trkpt><trkpt lat="43.9236933" lon="11.1266917"><ele>131.83333333333331</ele><time>2026-03-29T07:53:38.309Z</time></trkpt><trkpt lat="43.92381" lon="11.12672"><ele>128.0</ele><time>2026-03-29T07:53:40.309Z</time></trkpt><trkpt lat="43.9239267" lon="11.1267317"><ele>128.0</ele><time>2026-03-29T07:53:42.309Z</time></trkpt><trkpt lat="43.9240383" lon="11.1267283"><ele>128.0</ele><time>2026-03-29T07:53:44.309Z</time></trkpt><trkpt lat="43.9241517" lon="11.126735"><ele>128.0</ele><time>2026-03-29T07:53:46.31Z</time></trkpt><trkpt lat="43.9242717" lon="11.126755"><ele>128.0</ele><time>2026-03-29T07:53:48.312Z</time></trkpt><trkpt lat="43.92439" lon="11.126775"><ele>128.6</ele><time>2026-03-29T07:53:50.309Z</time></trkpt><trkpt lat="43.9244517" lon="11.126795"><ele>129.20000000000002</ele><time>2026-03-29T07:53:51.31Z</time></trkpt><trkpt lat="43.9245633" lon="11.126845"><ele>129.8</ele><time>2026-03-29T07:53:53.308Z</time></trkpt><trkpt lat="43.9246683" lon="11.1269083"><ele>130.4</ele><time>2026-03-29T07:53:55.309Z</time></trkpt><trkpt lat="43.9247717" lon="11.12696"><ele>131.0</ele><time>2026-03-29T07:53:57.309Z</time></trkpt><trkpt lat="43.9248783" lon="11.12701"><ele>131.0</ele><time>2026-03-29T07:53:59.31Z</time></trkpt><trkpt lat="43.9249817" lon="11.1270517"><ele>131.0</ele><time>2026-03-29T07:54:01.309Z</time></trkpt><trkpt lat="43.925095" lon="11.1270867"><ele>131.0</ele><time>2026-03-29T07:54:03.309Z</time></trkpt><trkpt lat="43.9252067" lon="11.1271167"><ele>131.0</ele><time>2026-03-29T07:54:05.31Z</time></trkpt><trkpt lat="43.9253233" lon="11.1271617"><ele>131.66666666666666</ele><time>2026-03-29T07:54:07.31Z</time></trkpt><trkpt lat="43.9253833" lon="11.1272033"><ele>132.33333333333331</ele><time>2026-03-29T07:54:08.311Z</time></trkpt><trkpt lat="43.9254417" lon="11.12724"><ele>133.0</ele><time>2026-03-29T07:54:09.309Z</time></trkpt><trkpt lat="43.925555" lon="11.1272517"><ele>133.66666666666666</ele><time>2026-03-29T07:54:11.31Z</time></trkpt><trkpt lat="43.92565" lon="11.1271417"><ele>134.33333333333334</ele><time>2026-03-29T07:54:13.311Z</time></trkpt><trkpt lat="43.925685" lon="11.127055"><ele>135.0</ele><time>2026-03-29T07:54:14.31Z</time></trkpt><trkpt lat="43.92573" lon="11.126985"><ele>135.0</ele><time>2026-03-29T07:54:15.311Z</time></trkpt><trkpt lat="43.9257783" lon="11.126925"><ele>135.0</ele><time>2026-03-29T07:54:16.31Z</time></trkpt><trkpt lat="43.925875" lon="11.1268233"><ele>135.0</ele><time>2026-03-29T07:54:18.309Z</time></trkpt><trkpt lat="43.9259717" lon="11.12672"><ele>135.0</ele><time>2026-03-29T07:54:20.31Z</time></trkpt><trkpt lat="43.926065" lon="11.126625"><ele>135.0</ele><time>2026-03-29T07:54:22.309Z</time></trkpt><trkpt lat="43.9261683" lon="11.1265217"><ele>134.14285714285714</ele><time>2026-03-29T07:54:24.31Z</time></trkpt><trkpt lat="43.9262217" lon="11.126465"><ele>133.28571428571428</ele><time>2026-03-29T07:54:25.31Z</time></trkpt><trkpt lat="43.926275" lon="11.1264067"><ele>132.42857142857142</ele><time>2026-03-29T07:54:26.309Z</time></trkpt><trkpt lat="43.9263233" lon="11.1263433"><ele>131.57142857142856</ele><time>2026-03-29T07:54:27.31Z</time></trkpt><trkpt lat="43.9263733" lon="11.1262833"><ele>130.71428571428572</ele><time>2026-03-29T07:54:28.309Z</time></trkpt><trkpt lat="43.9264167" lon="11.1262133"><ele>129.85714285714283</ele><time>2026-03-29T07:54:29.311Z</time></trkpt><trkpt lat="43.92647" lon="11.1261583"><ele>129.0</ele><time>2026-03-29T07:54:30.308Z</time></trkpt><trkpt lat="43.9265183" lon="11.1260933"><ele>129.0</ele><time>2026-03-29T07:54:31.31Z</time></trkpt><trkpt lat="43.9266067" lon="11.12596"><ele>129.0</ele><time>2026-03-29T07:54:33.311Z</time></trkpt><trkpt lat="43.926655" lon="11.125885"><ele>129.0</ele><time>2026-03-29T07:54:34.313Z</time></trkpt><trkpt lat="43.926705" lon="11.1258133"><ele>129.0</ele><time>2026-03-29T07:54:35.309Z</time></trkpt><trkpt lat="43.9267533" lon="11.12574"><ele>129.0</ele><time>2026-03-29T07:54:36.309Z</time></trkpt><trkpt lat="43.9268067" lon="11.12567"><ele>129.0</ele><time>2026-03-29T07:54:37.31Z</time></trkpt><trkpt lat="43.92686" lon="11.1255967"><ele>132.14285714285714</ele><time>2026-03-29T07:54:38.31Z</time></trkpt><trkpt lat="43.9269167" lon="11.1255283"><ele>135.28571428571428</ele><time>2026-03-29T07:54:39.309Z</time></trkpt><trkpt lat="43.926975" lon="11.1254683"><ele>138.42857142857144</ele><time>2026-03-29T07:54:40.309Z</time></trkpt><trkpt lat="43.9270367" lon="11.1254167"><ele>141.57142857142856</ele><time>2026-03-29T07:54:41.308Z</time></trkpt><trkpt lat="43.9271033" lon="11.1253733"><ele>144.71428571428572</ele><time>2026-03-29T07:54:42.31Z</time></trkpt><trkpt lat="43.9271717" lon="11.1253317"><ele>147.85714285714286</ele><time>2026-03-29T07:54:43.309Z</time></trkpt><trkpt lat="43.927245" lon="11.1252883"><ele>151.0</ele><time>2026-03-29T07:54:44.31Z</time></trkpt><trkpt lat="43.927315" lon="11.125245"><ele>151.0</ele><time>2026-03-29T07:54:45.311Z</time></trkpt><trkpt lat="43.9273883" lon="11.1252133"><ele>151.0</ele><time>2026-03-29T07:54:46.31Z</time></trkpt><trkpt lat="43.9274617" lon="11.1251783"><ele>151.0</ele><time>2026-03-29T07:54:47.311Z</time></trkpt><trkpt lat="43.92754" lon="11.1251533"><ele>151.0</ele><time>2026-03-29T07:54:48.312Z</time></trkpt><trkpt lat="43.9276183" lon="11.125135"><ele>151.0</ele><time>2026-03-29T07:54:49.311Z</time></trkpt><trkpt lat="43.927695" lon="11.12512"><ele>151.0</ele><time>2026-03-29T07:54:50.309Z</time></trkpt><trkpt lat="43.92777" lon="11.1251183"><ele>149.42857142857144</ele><time>2026-03-29T07:54:51.31Z</time></trkpt><trkpt lat="43.9278433" lon="11.12511"><ele>147.85714285714286</ele><time>2026-03-29T07:54:52.309Z</time></trkpt><trkpt lat="43.9279133" lon="11.125095"><ele>146.28571428571428</ele><time>2026-03-29T07:54:53.309Z</time></trkpt><trkpt lat="43.927985" lon="11.1250683"><ele>144.71428571428572</ele><time>2026-03-29T07:54:54.308Z</time></trkpt><trkpt lat="43.928055" lon="11.1250483"><ele>143.14285714285714</ele><time>2026-03-29T07:54:55.308Z</time></trkpt><trkpt lat="43.9281283" lon="11.1250267"><ele>141.57142857142858</ele><time>2026-03-29T07:54:56.309Z</time></trkpt><trkpt lat="43.9281983" lon="11.1250017"><ele>140.0</ele><time>2026-03-29T07:54:57.311Z</time></trkpt><trkpt lat="43.9282717" lon="11.124975"><ele>140.0</ele><time>2026-03-29T07:54:58.309Z</time></trkpt><trkpt lat="43.9283433" lon="11.124955"><ele>140.0</ele><time>2026-03-29T07:54:59.311Z</time></trkpt><trkpt lat="43.9284117" lon="11.124935"><ele>140.0</ele><time>2026-03-29T07:55:00.311Z</time></trkpt><trkpt lat="43.92848" lon="11.1249117"><ele>140.0</ele><time>2026-03-29T07:55:01.31Z</time></trkpt><trkpt lat="43.9286067" lon="11.12488"><ele>140.0</ele><time>2026-03-29T07:55:03.308Z</time></trkpt><trkpt lat="43.9286733" lon="11.1248667"><ele>140.0</ele><time>2026-03-29T07:55:04.311Z</time></trkpt><trkpt lat="43.9287433" lon="11.1248533"><ele>145.71428571428572</ele><time>2026-03-29T07:55:05.311Z</time></trkpt><trkpt lat="43.9288133" lon="11.1248417"><ele>151.42857142857144</ele><time>2026-03-29T07:55:06.311Z</time></trkpt><trkpt lat="43.9288883" lon="11.12483"><ele>157.14285714285714</ele><time>2026-03-29T07:55:07.308Z</time></trkpt><trkpt lat="43.92896" lon="11.1248183"><ele>162.85714285714286</ele><time>2026-03-29T07:55:08.31Z</time></trkpt><trkpt lat="43.9290317" lon="11.1248033"><ele>168.57142857142858</ele><time>2026-03-29T07:55:09.308Z</time></trkpt><trkpt lat="43.929105" lon="11.1247867"><ele>174.28571428571428</ele><time>2026-03-29T07:55:10.309Z</time></trkpt><trkpt lat="43.9291783" lon="11.124775"><ele>180.0</ele><time>2026-03-29T07:55:11.31Z</time></trkpt><trkpt lat="43.92925" lon="11.1247667"><ele>180.28571428571428</ele><time>2026-03-29T07:55:12.31Z</time></trkpt><trkpt lat="43.9293217" lon="11.1247683"><ele>180.57142857142858</ele><time>2026-03-29T07:55:13.309Z</time></trkpt><trkpt lat="43.9293917" lon="11.1247733"><ele>180.85714285714286</ele><time>2026-03-29T07:55:14.31Z</time></trkpt><trkpt lat="43.92946" lon="11.1247783"><ele>181.14285714285714</ele><time>2026-03-29T07:55:15.31Z</time></trkpt><trkpt lat="43.92953" lon="11.1247817"><ele>181.42857142857144</ele><time>2026-03-29T07:55:16.309Z</time></trkpt><trkpt lat="43.9296017" lon="11.12478"><ele>181.71428571428572</ele><time>2026-03-29T07:55:17.309Z</time></trkpt><trkpt lat="43.92967" lon="11.124775"><ele>182.0</ele><time>2026-03-29T07:55:18.31Z</time></trkpt><trkpt lat="43.92974" lon="11.12476"><ele>182.0</ele><time>2026-03-29T07:55:19.309Z</time></trkpt><trkpt lat="43.9298083" lon="11.124735"><ele>182.0</ele><time>2026-03-29T07:55:20.312Z</time></trkpt><trkpt lat="43.9298717" lon="11.1247033"><ele>182.0</ele><time>2026-03-29T07:55:21.309Z</time></trkpt><trkpt lat="43.929935" lon="11.1246717"><ele>182.0</ele><time>2026-03-29T07:55:22.309Z</time></trkpt><trkpt lat="43.9300083" lon="11.124635"><ele>182.0</ele><time>2026-03-29T07:55:23.309Z</time></trkpt><trkpt lat="43.930075" lon="11.1246017"><ele>182.0</ele><time>2026-03-29T07:55:24.311Z</time></trkpt><trkpt lat="43.9301417" lon="11.1245633"><ele>182.0</ele><time>2026-03-29T07:55:25.313Z</time></trkpt><trkpt lat="43.9302117" lon="11.12452"><ele>182.33333333333331</ele><time>2026-03-29T07:55:26.31Z</time></trkpt><trkpt lat="43.930285" lon="11.1244783"><ele>182.66666666666666</ele><time>2026-03-29T07:55:27.311Z</time></trkpt><trkpt lat="43.9303617" lon="11.1244517"><ele>183.0</ele><time>2026-03-29T07:55:28.309Z</time></trkpt><trkpt lat="43.9304433" lon="11.1244383"><ele>183.33333333333334</ele><time>2026-03-29T07:55:29.309Z</time></trkpt><trkpt lat="43.9305233" lon="11.1244383"><ele>183.66666666666669</ele><time>2026-03-29T07:55:30.311Z</time></trkpt><trkpt lat="43.9306017" lon="11.1244517"><ele>184.0</ele><time>2026-03-29T07:55:31.309Z</time></trkpt><trkpt lat="43.9306783" lon="11.1244717"><ele>184.0</ele><time>2026-03-29T07:55:32.31Z</time></trkpt><trkpt lat="43.930755" lon="11.1244933"><ele>184.0</ele><time>2026-03-29T07:55:33.31Z</time></trkpt><trkpt lat="43.9308283" lon="11.1245183"><ele>184.0</ele><time>2026-03-29T07:55:34.31Z</time></trkpt><trkpt lat="43.9309017" lon="11.124555"><ele>184.0</ele><time>2026-03-29T07:55:35.308Z</time></trkpt><trkpt lat="43.9309717" lon="11.1245917"><ele>184.0</ele><time>2026-03-29T07:55:36.309Z</time></trkpt><trkpt lat="43.9310417" lon="11.1246333"><ele>184.0</ele><time>2026-03-29T07:55:37.31Z</time></trkpt><trkpt lat="43.931115" lon="11.1246817"><ele>185.83333333333334</ele><time>2026-03-29T07:55:38.31Z</time></trkpt><trkpt lat="43.9311817" lon="11.12475"><ele>187.66666666666669</ele><time>2026-03-29T07:55:39.309Z</time></trkpt><trkpt lat="43.9312433" lon="11.1248233"><ele>189.5</ele><time>2026-03-29T07:55:40.309Z</time></trkpt><trkpt lat="43.9312967" lon="11.124915"><ele>191.33333333333334</ele><time>2026-03-29T07:55:41.309Z</time></trkpt><trkpt lat="43.9313417" lon="11.12501"><ele>193.16666666666666</ele><time>2026-03-29T07:55:42.308Z</time></trkpt><trkpt lat="43.9313883" lon="11.1251117"><ele>195.0</ele><time>2026-03-29T07:55:43.311Z</time></trkpt><trkpt lat="43.9314333" lon="11.1252133"><ele>187.66666666666666</ele><time>2026-03-29T07:55:44.311Z</time></trkpt><trkpt lat="43.9314767" lon="11.125315"><ele>180.33333333333334</ele><time>2026-03-29T07:55:45.308Z</time></trkpt><trkpt lat="43.931525" lon="11.1254167"><ele>173.0</ele><time>2026-03-29T07:55:46.31Z</time></trkpt><trkpt lat="43.931575" lon="11.1255133"><ele>165.66666666666669</ele><time>2026-03-29T07:55:47.31Z</time></trkpt><trkpt lat="43.9316283" lon="11.1256083"><ele>158.33333333333334</ele><time>2026-03-29T07:55:48.308Z</time></trkpt><trkpt lat="43.931685" lon="11.1256933"><ele>151.0</ele><time>2026-03-29T07:55:49.309Z</time></trkpt><trkpt lat="43.9317417" lon="11.1257883"><ele>149.16666666666669</ele><time>2026-03-29T07:55:50.31Z</time></trkpt><trkpt lat="43.9317983" lon="11.125875"><ele>147.33333333333334</ele><time>2026-03-29T07:55:51.309Z</time></trkpt><trkpt lat="43.9318617" lon="11.125955"><ele>145.5</ele><time>2026-03-29T07:55:52.309Z</time></trkpt><trkpt lat="43.9319333" lon="11.126015"><ele>143.66666666666666</ele><time>2026-03-29T07:55:53.308Z</time></trkpt><trkpt lat="43.9320033" lon="11.1260717"><ele>141.83333333333331</ele><time>2026-03-29T07:55:54.31Z</time></trkpt><trkpt lat="43.932075" lon="11.126115"><ele>140.0</ele><time>2026-03-29T07:55:55.309Z</time></trkpt><trkpt lat="43.9321483" lon="11.126155"><ele>140.0</ele><time>2026-03-29T07:55:56.309Z</time></trkpt><trkpt lat="43.9322217" lon="11.126195"><ele>140.0</ele><time>2026-03-29T07:55:57.31Z</time></trkpt><trkpt lat="43.932295" lon="11.1262333"><ele>140.0</ele><time>2026-03-29T07:55:58.31Z</time></trkpt><trkpt lat="43.9323683" lon="11.1262767"><ele>140.0</ele><time>2026-03-29T07:55:59.31Z</time></trkpt><trkpt lat="43.9324433" lon="11.1263183"><ele>140.0</ele><time>2026-03-29T07:56:00.31Z</time></trkpt><trkpt lat="43.93252" lon="11.1263583"><ele>140.0</ele><time>2026-03-29T07:56:01.31Z</time></trkpt><trkpt lat="43.9325967" lon="11.1263967"><ele>141.0</ele><time>2026-03-29T07:56:02.31Z</time></trkpt><trkpt lat="43.9326733" lon="11.12643"><ele>142.0</ele><time>2026-03-29T07:56:03.311Z</time></trkpt><trkpt lat="43.9327533" lon="11.126455"><ele>143.0</ele><time>2026-03-29T07:56:04.31Z</time></trkpt><trkpt lat="43.932835" lon="11.1264733"><ele>144.0</ele><time>2026-03-29T07:56:05.311Z</time></trkpt><trkpt lat="43.9329133" lon="11.1264817"><ele>145.0</ele><time>2026-03-29T07:56:06.309Z</time></trkpt><trkpt lat="43.9329933" lon="11.1264833"><ele>146.0</ele><time>2026-03-29T07:56:07.31Z</time></trkpt><trkpt lat="43.9330733" lon="11.1264817"><ele>146.0</ele><time>2026-03-29T07:56:08.311Z</time></trkpt><trkpt lat="43.93316" lon="11.126475"><ele>146.0</ele><time>2026-03-29T07:56:09.312Z</time></trkpt><trkpt lat="43.933245" lon="11.1264683"><ele>146.0</ele><time>2026-03-29T07:56:10.309Z</time></trkpt><trkpt lat="43.933325" lon="11.1264617"><ele>146.0</ele><time>2026-03-29T07:56:11.309Z</time></trkpt><trkpt lat="43.93341" lon="11.1264583"><ele>146.0</ele><time>2026-03-29T07:56:12.31Z</time></trkpt><trkpt lat="43.9335017" lon="11.126455"><ele>146.0</ele><time>2026-03-29T07:56:13.311Z</time></trkpt><trkpt lat="43.9335917" lon="11.1264517"><ele>146.0</ele><time>2026-03-29T07:56:14.309Z</time></trkpt><trkpt lat="43.9336833" lon="11.1264417"><ele>146.0</ele><time>2026-03-29T07:56:15.31Z</time></trkpt><trkpt lat="43.933775" lon="11.126435"><ele>146.0</ele><time>2026-03-29T07:56:16.31Z</time></trkpt><trkpt lat="43.933865" lon="11.1264267"><ele>146.0</ele><time>2026-03-29T07:56:17.309Z</time></trkpt><trkpt lat="43.9339533" lon="11.126415"><ele>146.0</ele><time>2026-03-29T07:56:18.31Z</time></trkpt><trkpt lat="43.9340433" lon="11.1263933"><ele>146.0</ele><time>2026-03-29T07:56:19.309Z</time></trkpt><trkpt lat="43.93413" lon="11.1263617"><ele>146.0</ele><time>2026-03-29T07:56:20.31Z</time></trkpt><trkpt lat="43.93421" lon="11.1263233"><ele>146.0</ele><time>2026-03-29T07:56:21.308Z</time></trkpt><trkpt lat="43.9342883" lon="11.1262717"><ele>146.0</ele><time>2026-03-29T07:56:22.309Z</time></trkpt><trkpt lat="43.9343567" lon="11.1262033"><ele>146.0</ele><time>2026-03-29T07:56:23.311Z</time></trkpt><trkpt lat="43.934415" lon="11.1261167"><ele>146.0</ele><time>2026-03-29T07:56:24.309Z</time></trkpt><trkpt lat="43.9344717" lon="11.1260133"><ele>146.8</ele><time>2026-03-29T07:56:25.31Z</time></trkpt><trkpt lat="43.9345267" lon="11.1259083"><ele>147.6</ele><time>2026-03-29T07:56:26.311Z</time></trkpt><trkpt lat="43.934585" lon="11.1258"><ele>148.4</ele><time>2026-03-29T07:56:27.311Z</time></trkpt><trkpt lat="43.9346517" lon="11.1256917"><ele>149.2</ele><time>2026-03-29T07:56:28.31Z</time></trkpt><trkpt lat="43.934725" lon="11.1255967"><ele>150.0</ele><time>2026-03-29T07:56:29.31Z</time></trkpt><trkpt lat="43.93481" lon="11.125525"><ele>150.0</ele><time>2026-03-29T07:56:30.309Z</time></trkpt><trkpt lat="43.9349067" lon="11.1254783"><ele>150.0</ele><time>2026-03-29T07:56:31.31Z</time></trkpt><trkpt lat="43.9350083" lon="11.12546"><ele>150.0</ele><time>2026-03-29T07:56:32.31Z</time></trkpt><trkpt lat="43.9351083" lon="11.125465"><ele>150.0</ele><time>2026-03-29T07:56:33.309Z</time></trkpt><trkpt lat="43.9352067" lon="11.12549"><ele>150.0</ele><time>2026-03-29T07:56:34.31Z</time></trkpt><trkpt lat="43.9353" lon="11.125525"><ele>150.6</ele><time>2026-03-29T07:56:35.31Z</time></trkpt><trkpt lat="43.9353917" lon="11.1255617"><ele>151.2</ele><time>2026-03-29T07:56:36.311Z</time></trkpt><trkpt lat="43.935485" lon="11.1255933"><ele>151.8</ele><time>2026-03-29T07:56:37.311Z</time></trkpt><trkpt lat="43.9355767" lon="11.1256283"><ele>152.4</ele><time>2026-03-29T07:56:38.309Z</time></trkpt><trkpt lat="43.9356633" lon="11.12566"><ele>153.0</ele><time>2026-03-29T07:56:39.309Z</time></trkpt><trkpt lat="43.9357533" lon="11.125695"><ele>153.0</ele><time>2026-03-29T07:56:40.307Z</time></trkpt><trkpt lat="43.9358417" lon="11.1257217"><ele>153.0</ele><time>2026-03-29T07:56:41.31Z</time></trkpt><trkpt lat="43.9359317" lon="11.1257383"><ele>153.0</ele><time>2026-03-29T07:56:42.309Z</time></trkpt><trkpt lat="43.93602" lon="11.125745"><ele>153.0</ele><time>2026-03-29T07:56:43.311Z</time></trkpt><trkpt lat="43.9361133" lon="11.1257383"><ele>153.0</ele><time>2026-03-29T07:56:44.308Z</time></trkpt><trkpt lat="43.9362083" lon="11.125715"><ele>153.20000000000002</ele><time>2026-03-29T07:56:45.31Z</time></trkpt><trkpt lat="43.9363017" lon="11.1256833"><ele>153.4</ele><time>2026-03-29T07:56:46.309Z</time></trkpt><trkpt lat="43.9364" lon="11.12566"><ele>153.60000000000002</ele><time>2026-03-29T07:56:47.31Z</time></trkpt><trkpt lat="43.9364933" lon="11.1256633"><ele>153.8</ele><time>2026-03-29T07:56:48.31Z</time></trkpt><trkpt lat="43.936595" lon="11.1256933"><ele>154.0</ele><time>2026-03-29T07:56:49.31Z</time></trkpt><trkpt lat="43.9366833" lon="11.1257467"><ele>153.6</ele><time>2026-03-29T07:56:50.31Z</time></trkpt><trkpt lat="43.936765" lon="11.1258233"><ele>153.2</ele><time>2026-03-29T07:56:51.309Z</time></trkpt><trkpt lat="43.9368383" lon="11.1259217"><ele>152.79999999999998</ele><time>2026-03-29T07:56:52.311Z</time></trkpt><trkpt lat="43.936905" lon="11.1260333"><ele>152.4</ele><time>2026-03-29T07:56:53.309Z</time></trkpt><trkpt lat="43.9369683" lon="11.12615"><ele>152.0</ele><time>2026-03-29T07:56:54.31Z</time></trkpt><trkpt lat="43.9370333" lon="11.1262617"><ele>152.0</ele><time>2026-03-29T07:56:55.309Z</time></trkpt><trkpt lat="43.9370983" lon="11.126365"><ele>152.0</ele><time>2026-03-29T07:56:56.31Z</time></trkpt><trkpt lat="43.9371633" lon="11.1264667"><ele>152.0</ele><time>2026-03-29T07:56:57.309Z</time></trkpt><trkpt lat="43.9372317" lon="11.126565"><ele>152.0</ele><time>2026-03-29T07:56:58.31Z</time></trkpt><trkpt lat="43.9373017" lon="11.12666"><ele>152.0</ele><time>2026-03-29T07:56:59.309Z</time></trkpt><trkpt lat="43.9373783" lon="11.1267467"><ele>152.2</ele><time>2026-03-29T07:57:00.309Z</time></trkpt><trkpt lat="43.93746" lon="11.1268233"><ele>152.39999999999998</ele><time>2026-03-29T07:57:01.31Z</time></trkpt><trkpt lat="43.9375483" lon="11.12689"><ele>152.60000000000002</ele><time>2026-03-29T07:57:02.311Z</time></trkpt><trkpt lat="43.93763" lon="11.12696"><ele>152.8</ele><time>2026-03-29T07:57:03.31Z</time></trkpt><trkpt lat="43.9377117" lon="11.1270333"><ele>153.0</ele><time>2026-03-29T07:57:04.309Z</time></trkpt><trkpt lat="43.93779" lon="11.1271067"><ele>153.0</ele><time>2026-03-29T07:57:05.311Z</time></trkpt><trkpt lat="43.9378683" lon="11.1271767"><ele>153.0</ele><time>2026-03-29T07:57:06.31Z</time></trkpt><trkpt lat="43.9379517" lon="11.1272417"><ele>153.0</ele><time>2026-03-29T07:57:07.31Z</time></trkpt><trkpt lat="43.9380317" lon="11.1273083"><ele>153.0</ele><time>2026-03-29T07:57:08.31Z</time></trkpt><trkpt lat="43.9381117" lon="11.1273733"><ele>153.0</ele><time>2026-03-29T07:57:09.31Z</time></trkpt><trkpt lat="43.9381917" lon="11.1274433"><ele>151.0</ele><time>2026-03-29T07:57:10.31Z</time></trkpt><trkpt lat="43.9382717" lon="11.127515"><ele>149.0</ele><time>2026-03-29T07:57:11.309Z</time></trkpt><trkpt lat="43.938355" lon="11.1275867"><ele>147.0</ele><time>2026-03-29T07:57:12.311Z</time></trkpt><trkpt lat="43.9384433" lon="11.127655"><ele>145.0</ele><time>2026-03-29T07:57:13.311Z</time></trkpt><trkpt lat="43.9385283" lon="11.1277283"><ele>143.0</ele><time>2026-03-29T07:57:14.311Z</time></trkpt><trkpt lat="43.938615" lon="11.1278017"><ele>143.0</ele><time>2026-03-29T07:57:15.309Z</time></trkpt><trkpt lat="43.9387" lon="11.127885"><ele>143.0</ele><time>2026-03-29T07:57:16.311Z</time></trkpt><trkpt lat="43.9387817" lon="11.1279617"><ele>143.0</ele><time>2026-03-29T07:57:17.31Z</time></trkpt><trkpt lat="43.9388617" lon="11.12804"><ele>143.0</ele><time>2026-03-29T07:57:18.309Z</time></trkpt><trkpt lat="43.9389417" lon="11.128115"><ele>143.0</ele><time>2026-03-29T07:57:19.311Z</time></trkpt><trkpt lat="43.93902" lon="11.12819"><ele>141.4</ele><time>2026-03-29T07:57:20.31Z</time></trkpt><trkpt lat="43.9390983" lon="11.1282633"><ele>139.8</ele><time>2026-03-29T07:57:21.31Z</time></trkpt><trkpt lat="43.93918" lon="11.12833"><ele>138.2</ele><time>2026-03-29T07:57:22.309Z</time></trkpt><trkpt lat="43.939265" lon="11.128385"><ele>136.6</ele><time>2026-03-29T07:57:23.31Z</time></trkpt><trkpt lat="43.939355" lon="11.1284267"><ele>135.0</ele><time>2026-03-29T07:57:24.309Z</time></trkpt><trkpt lat="43.9394433" lon="11.1284583"><ele>135.0</ele><time>2026-03-29T07:57:25.31Z</time></trkpt><trkpt lat="43.9395383" lon="11.12848"><ele>135.0</ele><time>2026-03-29T07:57:26.311Z</time></trkpt><trkpt lat="43.939635" lon="11.1284833"><ele>135.0</ele><time>2026-03-29T07:57:27.309Z</time></trkpt><trkpt lat="43.9397317" lon="11.1284767"><ele>135.0</ele><time>2026-03-29T07:57:28.309Z</time></trkpt><trkpt lat="43.9398283" lon="11.128455"><ele>135.0</ele><time>2026-03-29T07:57:29.31Z</time></trkpt><trkpt lat="43.9399267" lon="11.128425"><ele>135.0</ele><time>2026-03-29T07:57:30.309Z</time></trkpt><trkpt lat="43.9400217" lon="11.128385"><ele>135.0</ele><time>2026-03-29T07:57:31.312Z</time></trkpt><trkpt lat="43.940115" lon="11.12834"><ele>135.0</ele><time>2026-03-29T07:57:32.31Z</time></trkpt><trkpt lat="43.94021" lon="11.1282867"><ele>135.0</ele><time>2026-03-29T07:57:33.312Z</time></trkpt><trkpt lat="43.9403033" lon="11.12822"><ele>135.0</ele><time>2026-03-29T07:57:34.309Z</time></trkpt><trkpt lat="43.9403917" lon="11.128145"><ele>135.2</ele><time>2026-03-29T07:57:35.31Z</time></trkpt><trkpt lat="43.940485" lon="11.12807"><ele>135.4</ele><time>2026-03-29T07:57:36.31Z</time></trkpt><trkpt lat="43.9405717" lon="11.12799"><ele>135.6</ele><time>2026-03-29T07:57:37.312Z</time></trkpt><trkpt lat="43.9406617" lon="11.127905"><ele>135.8</ele><time>2026-03-29T07:57:38.31Z</time></trkpt><trkpt lat="43.940755" lon="11.12783"><ele>136.0</ele><time>2026-03-29T07:57:39.308Z</time></trkpt><trkpt lat="43.9408483" lon="11.1277583"><ele>135.0</ele><time>2026-03-29T07:57:40.308Z</time></trkpt><trkpt lat="43.94094" lon="11.1276817"><ele>134.0</ele><time>2026-03-29T07:57:41.309Z</time></trkpt><trkpt lat="43.94103" lon="11.1275983"><ele>133.0</ele><time>2026-03-29T07:57:42.308Z</time></trkpt><trkpt lat="43.941115" lon="11.1275033"><ele>132.0</ele><time>2026-03-29T07:57:43.31Z</time></trkpt><trkpt lat="43.9411933" lon="11.12739"><ele>131.0</ele><time>2026-03-29T07:57:44.31Z</time></trkpt><trkpt lat="43.9412667" lon="11.1272683"><ele>131.0</ele><time>2026-03-29T07:57:45.311Z</time></trkpt><trkpt lat="43.9413417" lon="11.1271483"><ele>131.0</ele><time>2026-03-29T07:57:46.31Z</time></trkpt><trkpt lat="43.9414133" lon="11.1270333"><ele>131.0</ele><time>2026-03-29T07:57:47.311Z</time></trkpt><trkpt lat="43.94148" lon="11.12692"><ele>131.0</ele><time>2026-03-29T07:57:48.309Z</time></trkpt><trkpt lat="43.9415417" lon="11.126815"><ele>131.0</ele><time>2026-03-29T07:57:49.309Z</time></trkpt><trkpt lat="43.9416017" lon="11.12672"><ele>131.0</ele><time>2026-03-29T07:57:50.31Z</time></trkpt><trkpt lat="43.9416633" lon="11.1266433"><ele>131.0</ele><time>2026-03-29T07:57:51.311Z</time></trkpt><trkpt lat="43.941735" lon="11.126585"><ele>131.0</ele><time>2026-03-29T07:57:52.309Z</time></trkpt><trkpt lat="43.941815" lon="11.1265383"><ele>131.0</ele><time>2026-03-29T07:57:53.31Z</time></trkpt><trkpt lat="43.94189" lon="11.1264833"><ele>131.0</ele><time>2026-03-29T07:57:54.31Z</time></trkpt><trkpt lat="43.9419533" lon="11.1263983"><ele>131.0</ele><time>2026-03-29T07:57:55.311Z</time></trkpt><trkpt lat="43.9420067" lon="11.1262967"><ele>130.4</ele><time>2026-03-29T07:57:56.31Z</time></trkpt><trkpt lat="43.94206" lon="11.1261883"><ele>129.8</ele><time>2026-03-29T07:57:57.309Z</time></trkpt><trkpt lat="43.94212" lon="11.1260867"><ele>129.20000000000002</ele><time>2026-03-29T07:57:58.31Z</time></trkpt><trkpt lat="43.9421917" lon="11.1259983"><ele>128.6</ele><time>2026-03-29T07:57:59.311Z</time></trkpt><trkpt lat="43.942275" lon="11.1259233"><ele>128.0</ele><time>2026-03-29T07:58:00.309Z</time></trkpt><trkpt lat="43.9423667" lon="11.1258683"><ele>128.0</ele><time>2026-03-29T07:58:01.309Z</time></trkpt><trkpt lat="43.9424633" lon="11.1258283"><ele>128.0</ele><time>2026-03-29T07:58:02.309Z</time></trkpt><trkpt lat="43.9425583" lon="11.1257967"><ele>128.0</ele><time>2026-03-29T07:58:03.31Z</time></trkpt><trkpt lat="43.9426533" lon="11.125765"><ele>128.0</ele><time>2026-03-29T07:58:04.308Z</time></trkpt><trkpt lat="43.942745" lon="11.1257333"><ele>128.0</ele><time>2026-03-29T07:58:05.309Z</time></trkpt><trkpt lat="43.9428383" lon="11.1256967"><ele>131.0</ele><time>2026-03-29T07:58:06.31Z</time></trkpt><trkpt lat="43.9429333" lon="11.1256617"><ele>134.0</ele><time>2026-03-29T07:58:07.309Z</time></trkpt><trkpt lat="43.94303" lon="11.1256283"><ele>137.0</ele><time>2026-03-29T07:58:08.307Z</time></trkpt><trkpt lat="43.9431283" lon="11.125595"><ele>140.0</ele><time>2026-03-29T07:58:09.308Z</time></trkpt><trkpt lat="43.94323" lon="11.125555"><ele>143.0</ele><time>2026-03-29T07:58:10.308Z</time></trkpt><trkpt lat="43.9433317" lon="11.1255083"><ele>139.6</ele><time>2026-03-29T07:58:11.307Z</time></trkpt><trkpt lat="43.94343" lon="11.1254583"><ele>136.20000000000002</ele><time>2026-03-29T07:58:12.309Z</time></trkpt><trkpt lat="43.94353" lon="11.125395"><ele>132.8</ele><time>2026-03-29T07:58:13.309Z</time></trkpt><trkpt lat="43.9436217" lon="11.1253317"><ele>129.4</ele><time>2026-03-29T07:58:14.31Z</time></trkpt><trkpt lat="43.94371" lon="11.1252617"><ele>126.0</ele><time>2026-03-29T07:58:15.31Z</time></trkpt><trkpt lat="43.9437983" lon="11.1251867"><ele>126.0</ele><time>2026-03-29T07:58:16.312Z</time></trkpt><trkpt lat="43.9438917" lon="11.125115"><ele>126.0</ele><time>2026-03-29T07:58:17.309Z</time></trkpt><trkpt lat="43.9439833" lon="11.1250467"><ele>126.0</ele><time>2026-03-29T07:58:18.308Z</time></trkpt><trkpt lat="43.944075" lon="11.1249767"><ele>126.0</ele><time>2026-03-29T07:58:19.309Z</time></trkpt><trkpt lat="43.9441667" lon="11.1249067"><ele>126.0</ele><time>2026-03-29T07:58:20.311Z</time></trkpt><trkpt lat="43.944255" lon="11.1248367"><ele>126.4</ele><time>2026-03-29T07:58:21.31Z</time></trkpt><trkpt lat="43.944335" lon="11.1247683"><ele>126.8</ele><time>2026-03-29T07:58:22.31Z</time></trkpt><trkpt lat="43.94442" lon="11.1247017"><ele>127.20000000000002</ele><time>2026-03-29T07:58:23.31Z</time></trkpt><trkpt lat="43.9445067" lon="11.124635"><ele>127.60000000000001</ele><time>2026-03-29T07:58:24.31Z</time></trkpt><trkpt lat="43.9446017" lon="11.1245817"><ele>128.0</ele><time>2026-03-29T07:58:25.309Z</time></trkpt><trkpt lat="43.9447017" lon="11.1245433"><ele>128.0</ele><time>2026-03-29T07:58:26.309Z</time></trkpt><trkpt lat="43.9448033" lon="11.124515"><ele>128.0</ele><time>2026-03-29T07:58:27.309Z</time></trkpt><trkpt lat="43.9449083" lon="11.1244967"><ele>128.0</ele><time>2026-03-29T07:58:28.31Z</time></trkpt><trkpt lat="43.9450117" lon="11.1245"><ele>128.0</ele><time>2026-03-29T07:58:29.31Z</time></trkpt><trkpt lat="43.9451117" lon="11.1245217"><ele>128.0</ele><time>2026-03-29T07:58:30.311Z</time></trkpt><trkpt lat="43.9452" lon="11.1245667"><ele>129.16666666666666</ele><time>2026-03-29T07:58:31.311Z</time></trkpt><trkpt lat="43.9452883" lon="11.1246"><ele>130.33333333333331</ele><time>2026-03-29T07:58:32.31Z</time></trkpt><trkpt lat="43.945375" lon="11.12463"><ele>131.5</ele><time>2026-03-29T07:58:33.309Z</time></trkpt><trkpt lat="43.945465" lon="11.1246583"><ele>132.66666666666666</ele><time>2026-03-29T07:58:34.31Z</time></trkpt><trkpt lat="43.9455467" lon="11.1246883"><ele>133.83333333333334</ele><time>2026-03-29T07:58:35.31Z</time></trkpt><trkpt lat="43.9456283" lon="11.12472"><ele>135.0</ele><time>2026-03-29T07:58:36.31Z</time></trkpt><trkpt lat="43.9457117" lon="11.1247567"><ele>135.0</ele><time>2026-03-29T07:58:37.31Z</time></trkpt><trkpt lat="43.945795" lon="11.12479"><ele>135.0</ele><time>2026-03-29T07:58:38.31Z</time></trkpt><trkpt lat="43.9458783" lon="11.12482"><ele>135.0</ele><time>2026-03-29T07:58:39.309Z</time></trkpt><trkpt lat="43.9459617" lon="11.12485"><ele>135.0</ele><time>2026-03-29T07:58:40.307Z</time></trkpt><trkpt lat="43.94604" lon="11.1248833"><ele>135.0</ele><time>2026-03-29T07:58:41.312Z</time></trkpt><trkpt lat="43.946125" lon="11.1249133"><ele>135.0</ele><time>2026-03-29T07:58:42.309Z</time></trkpt><trkpt lat="43.946205" lon="11.12494"><ele>134.14285714285714</ele><time>2026-03-29T07:58:43.311Z</time></trkpt><trkpt lat="43.9462817" lon="11.1249717"><ele>133.28571428571428</ele><time>2026-03-29T07:58:44.311Z</time></trkpt><trkpt lat="43.9463567" lon="11.1250033"><ele>132.42857142857142</ele><time>2026-03-29T07:58:45.309Z</time></trkpt><trkpt lat="43.9464283" lon="11.12503"><ele>131.57142857142856</ele><time>2026-03-29T07:58:46.31Z</time></trkpt><trkpt lat="43.9464983" lon="11.1250517"><ele>130.71428571428572</ele><time>2026-03-29T07:58:47.31Z</time></trkpt><trkpt lat="43.9465667" lon="11.1250733"><ele>129.85714285714283</ele><time>2026-03-29T07:58:48.311Z</time></trkpt><trkpt lat="43.9466333" lon="11.1250883"><ele>129.0</ele><time>2026-03-29T07:58:49.31Z</time></trkpt><trkpt lat="43.9467" lon="11.12511"><ele>129.7142857142857</ele><time>2026-03-29T07:58:50.31Z</time></trkpt><trkpt lat="43.9467667" lon="11.1251317"><ele>130.42857142857142</ele><time>2026-03-29T07:58:51.31Z</time></trkpt><trkpt lat="43.9468367" lon="11.12515"><ele>131.14285714285714</ele><time>2026-03-29T07:58:52.308Z</time></trkpt><trkpt lat="43.9469067" lon="11.12516"><ele>131.85714285714283</ele><time>2026-03-29T07:58:53.309Z</time></trkpt><trkpt lat="43.946975" lon="11.1251617"><ele>132.57142857142856</ele><time>2026-03-29T07:58:54.309Z</time></trkpt><trkpt lat="43.9470433" lon="11.12517"><ele>133.28571428571428</ele><time>2026-03-29T07:58:55.309Z</time></trkpt><trkpt lat="43.94711" lon="11.1251833"><ele>134.0</ele><time>2026-03-29T07:58:56.312Z</time></trkpt><trkpt lat="43.94718" lon="11.12519"><ele>134.0</ele><time>2026-03-29T07:58:57.309Z</time></trkpt><trkpt lat="43.94725" lon="11.12519"><ele>134.0</ele><time>2026-03-29T07:58:58.309Z</time></trkpt><trkpt lat="43.9473267" lon="11.1251917"><ele>134.0</ele><time>2026-03-29T07:58:59.311Z</time></trkpt><trkpt lat="43.947405" lon="11.125195"><ele>134.0</ele><time>2026-03-29T07:59:00.307Z</time></trkpt><trkpt lat="43.9474867" lon="11.1252017"><ele>134.0</ele><time>2026-03-29T07:59:01.308Z</time></trkpt><trkpt lat="43.947575" lon="11.1252083"><ele>134.0</ele><time>2026-03-29T07:59:02.309Z</time></trkpt><trkpt lat="43.94766" lon="11.1252133"><ele>135.2</ele><time>2026-03-29T07:59:03.309Z</time></trkpt><trkpt lat="43.9477533" lon="11.1252167"><ele>136.4</ele><time>2026-03-29T07:59:04.31Z</time></trkpt><trkpt lat="43.9478483" lon="11.125225"><ele>137.6</ele><time>2026-03-29T07:59:05.31Z</time></trkpt><trkpt lat="43.94794" lon="11.125235"><ele>138.8</ele><time>2026-03-29T07:59:06.309Z</time></trkpt><trkpt lat="43.9480333" lon="11.125245"><ele>140.0</ele><time>2026-03-29T07:59:07.312Z</time></trkpt><trkpt lat="43.9481267" lon="11.1252583"><ele>140.0</ele><time>2026-03-29T07:59:08.311Z</time></trkpt><trkpt lat="43.9482183" lon="11.1252817"><ele>140.0</ele><time>2026-03-29T07:59:09.309Z</time></trkpt><trkpt lat="43.948305" lon="11.1253167"><ele>140.0</ele><time>2026-03-29T07:59:10.309Z</time></trkpt><trkpt lat="43.94839" lon="11.1253633"><ele>140.0</ele><time>2026-03-29T07:59:11.311Z</time></trkpt><trkpt lat="43.94847" lon="11.1254183"><ele>140.0</ele><time>2026-03-29T07:59:12.311Z</time></trkpt><trkpt lat="43.9485467" lon="11.1254833"><ele>140.66666666666666</ele><time>2026-03-29T07:59:13.311Z</time></trkpt><trkpt lat="43.94862" lon="11.1255517"><ele>141.33333333333331</ele><time>2026-03-29T07:59:14.31Z</time></trkpt><trkpt lat="43.94869" lon="11.1256267"><ele>142.0</ele><time>2026-03-29T07:59:15.309Z</time></trkpt><trkpt lat="43.9487583" lon="11.1257033"><ele>142.66666666666666</ele><time>2026-03-29T07:59:16.309Z</time></trkpt><trkpt lat="43.9488283" lon="11.1257767"><ele>143.33333333333334</ele><time>2026-03-29T07:59:17.311Z</time></trkpt><trkpt lat="43.94889" lon="11.1258583"><ele>144.0</ele><time>2026-03-29T07:59:18.309Z</time></trkpt><trkpt lat="43.9489517" lon="11.125935"><ele>144.0</ele><time>2026-03-29T07:59:19.309Z</time></trkpt><trkpt lat="43.9490133" lon="11.12601"><ele>144.0</ele><time>2026-03-29T07:59:20.312Z</time></trkpt><trkpt lat="43.94907" lon="11.126085"><ele>144.0</ele><time>2026-03-29T07:59:21.309Z</time></trkpt><trkpt lat="43.9491267" lon="11.12616"><ele>144.0</ele><time>2026-03-29T07:59:22.309Z</time></trkpt><trkpt lat="43.949185" lon="11.1262283"><ele>144.0</ele><time>2026-03-29T07:59:23.31Z</time></trkpt><trkpt lat="43.9492467" lon="11.1262883"><ele>144.0</ele><time>2026-03-29T07:59:24.31Z</time></trkpt><trkpt lat="43.9493117" lon="11.12634"><ele>143.16666666666666</ele><time>2026-03-29T07:59:25.309Z</time></trkpt><trkpt lat="43.9493817" lon="11.1263883"><ele>142.33333333333334</ele><time>2026-03-29T07:59:26.309Z</time></trkpt><trkpt lat="43.94945" lon="11.1264267"><ele>141.5</ele><time>2026-03-29T07:59:27.31Z</time></trkpt><trkpt lat="43.9495167" lon="11.1264667"><ele>140.66666666666669</ele><time>2026-03-29T07:59:28.31Z</time></trkpt><trkpt lat="43.9495867" lon="11.1265067"><ele>139.83333333333334</ele><time>2026-03-29T07:59:29.309Z</time></trkpt><trkpt lat="43.9496567" lon="11.1265467"><ele>139.0</ele><time>2026-03-29T07:59:30.309Z</time></trkpt><trkpt lat="43.9497267" lon="11.1265833"><ele>139.0</ele><time>2026-03-29T07:59:31.31Z</time></trkpt><trkpt lat="43.9497983" lon="11.12662"><ele>139.0</ele><time>2026-03-29T07:59:32.312Z</time></trkpt><trkpt lat="43.9498667" lon="11.126655"><ele>139.0</ele><time>2026-03-29T07:59:33.309Z</time></trkpt><trkpt lat="43.94993" lon="11.1266967"><ele>139.0</ele><time>2026-03-29T07:59:34.31Z</time></trkpt><trkpt lat="43.9499933" lon="11.1267367"><ele>139.0</ele><time>2026-03-29T07:59:35.31Z</time></trkpt><trkpt lat="43.9500633" lon="11.12677"><ele>139.0</ele><time>2026-03-29T07:59:36.311Z</time></trkpt><trkpt lat="43.9501317" lon="11.1268033"><ele>139.0</ele><time>2026-03-29T07:59:37.309Z</time></trkpt><trkpt lat="43.9502033" lon="11.1268383"><ele>140.57142857142856</ele><time>2026-03-29T07:59:38.311Z</time></trkpt><trkpt lat="43.9502733" lon="11.126875"><ele>142.14285714285714</ele><time>2026-03-29T07:59:39.31Z</time></trkpt><trkpt lat="43.95034" lon="11.1269117"><ele>143.71428571428572</ele><time>2026-03-29T07:59:40.309Z</time></trkpt><trkpt lat="43.95041" lon="11.1269467"><ele>145.28571428571428</ele><time>2026-03-29T07:59:41.309Z</time></trkpt><trkpt lat="43.9504817" lon="11.1269817"><ele>146.85714285714286</ele><time>2026-03-29T07:59:42.309Z</time></trkpt><trkpt lat="43.9505483" lon="11.12702"><ele>148.42857142857142</ele><time>2026-03-29T07:59:43.311Z</time></trkpt><trkpt lat="43.9506167" lon="11.1270583"><ele>150.0</ele><time>2026-03-29T07:59:44.31Z</time></trkpt><trkpt lat="43.950685" lon="11.127095"><ele>149.99999999999997</ele><time>2026-03-29T07:59:45.309Z</time></trkpt><trkpt lat="43.950755" lon="11.1271317"><ele>150.0</ele><time>2026-03-29T07:59:46.31Z</time></trkpt><trkpt lat="43.9508233" lon="11.1271683"><ele>150.0</ele><time>2026-03-29T07:59:47.31Z</time></trkpt><trkpt lat="43.95089" lon="11.127205"><ele>150.0</ele><time>2026-03-29T07:59:48.309Z</time></trkpt><trkpt lat="43.9509583" lon="11.1272417"><ele>150.0</ele><time>2026-03-29T07:59:49.31Z</time></trkpt><trkpt lat="43.951035" lon="11.127255"><ele>149.99999999999997</ele><time>2026-03-29T07:59:50.312Z</time></trkpt><trkpt lat="43.951105" lon="11.127285"><ele>150.0</ele><time>2026-03-29T07:59:51.309Z</time></trkpt><trkpt lat="43.9511733" lon="11.1273217"><ele>150.85714285714283</ele><time>2026-03-29T07:59:52.31Z</time></trkpt><trkpt lat="43.9512367" lon="11.1273617"><ele>151.71428571428572</ele><time>2026-03-29T07:59:53.31Z</time></trkpt><trkpt lat="43.9513017" lon="11.1274"><ele>152.57142857142856</ele><time>2026-03-29T07:59:54.31Z</time></trkpt><trkpt lat="43.951365" lon="11.1274333"><ele>153.42857142857142</ele><time>2026-03-29T07:59:55.31Z</time></trkpt><trkpt lat="43.9514283" lon="11.127465"><ele>154.28571428571428</ele><time>2026-03-29T07:59:56.309Z</time></trkpt><trkpt lat="43.9514917" lon="11.1274883"><ele>155.14285714285714</ele><time>2026-03-29T07:59:57.31Z</time></trkpt><trkpt lat="43.9515567" lon="11.1275017"><ele>156.0</ele><time>2026-03-29T07:59:58.31Z</time></trkpt><trkpt lat="43.9516217" lon="11.12751"><ele>153.16666666666666</ele><time>2026-03-29T07:59:59.312Z</time></trkpt><trkpt lat="43.9516917" lon="11.1275067"><ele>150.33333333333334</ele><time>2026-03-29T08:00:00.31Z</time></trkpt><trkpt lat="43.9517617" lon="11.12749"><ele>147.5</ele><time>2026-03-29T08:00:01.31Z</time></trkpt><trkpt lat="43.9518367" lon="11.1274667"><ele>144.66666666666669</ele><time>2026-03-29T08:00:02.308Z</time></trkpt><trkpt lat="43.951915" lon="11.127445"><ele>141.83333333333334</ele><time>2026-03-29T08:00:03.31Z</time></trkpt><trkpt lat="43.9519917" lon="11.1274283"><ele>139.0</ele><time>2026-03-29T08:00:04.309Z</time></trkpt><trkpt lat="43.9520717" lon="11.127405"><ele>140.0</ele><time>2026-03-29T08:00:05.31Z</time></trkpt><trkpt lat="43.9521533" lon="11.1273783"><ele>141.0</ele><time>2026-03-29T08:00:06.31Z</time></trkpt><trkpt lat="43.95223" lon="11.127355"><ele>142.0</ele><time>2026-03-29T08:00:07.31Z</time></trkpt><trkpt lat="43.95231" lon="11.1273333"><ele>143.0</ele><time>2026-03-29T08:00:08.31Z</time></trkpt><trkpt lat="43.95239" lon="11.1273133"><ele>144.0</ele><time>2026-03-29T08:00:09.311Z</time></trkpt><trkpt lat="43.9524683" lon="11.1272917"><ele>145.0</ele><time>2026-03-29T08:00:10.308Z</time></trkpt><trkpt lat="43.9525467" lon="11.1272683"><ele>145.0</ele><time>2026-03-29T08:00:11.311Z</time></trkpt><trkpt lat="43.952625" lon="11.1272417"><ele>145.0</ele><time>2026-03-29T08:00:12.309Z</time></trkpt><trkpt lat="43.9527033" lon="11.127215"><ele>145.0</ele><time>2026-03-29T08:00:13.308Z</time></trkpt><trkpt lat="43.9527817" lon="11.1271917"><ele>145.0</ele><time>2026-03-29T08:00:14.309Z</time></trkpt><trkpt lat="43.9528633" lon="11.127165"><ele>145.0</ele><time>2026-03-29T08:00:15.311Z</time></trkpt><trkpt lat="43.9529467" lon="11.1271367"><ele>145.0</ele><time>2026-03-29T08:00:16.308Z</time></trkpt><trkpt lat="43.9530283" lon="11.12711"><ele>145.0</ele><time>2026-03-29T08:00:17.311Z</time></trkpt><trkpt lat="43.9531067" lon="11.12708"><ele>145.0</ele><time>2026-03-29T08:00:18.311Z</time></trkpt><trkpt lat="43.9531833" lon="11.1270517"><ele>145.0</ele><time>2026-03-29T08:00:19.311Z</time></trkpt><trkpt lat="43.9532583" lon="11.1270283"><ele>145.0</ele><time>2026-03-29T08:00:20.311Z</time></trkpt><trkpt lat="43.9533333" lon="11.1270017"><ele>145.0</ele><time>2026-03-29T08:00:21.311Z</time></trkpt><trkpt lat="43.9534117" lon="11.1269783"><ele>145.0</ele><time>2026-03-29T08:00:22.309Z</time></trkpt><trkpt lat="43.9534883" lon="11.126955"><ele>144.16666666666669</ele><time>2026-03-29T08:00:23.311Z</time></trkpt><trkpt lat="43.9535633" lon="11.1269317"><ele>143.33333333333334</ele><time>2026-03-29T08:00:24.309Z</time></trkpt><trkpt lat="43.9536417" lon="11.12691"><ele>142.5</ele><time>2026-03-29T08:00:25.311Z</time></trkpt><trkpt lat="43.9537167" lon="11.1268833"><ele>141.66666666666666</ele><time>2026-03-29T08:00:26.309Z</time></trkpt><trkpt lat="43.9537933" lon="11.1268567"><ele>140.83333333333331</ele><time>2026-03-29T08:00:27.309Z</time></trkpt><trkpt lat="43.9538717" lon="11.1268283"><ele>140.0</ele><time>2026-03-29T08:00:28.308Z</time></trkpt><trkpt lat="43.9539517" lon="11.126795"><ele>140.0</ele><time>2026-03-29T08:00:29.311Z</time></trkpt><trkpt lat="43.9540283" lon="11.1267583"><ele>140.0</ele><time>2026-03-29T08:00:30.309Z</time></trkpt><trkpt lat="43.9541033" lon="11.12672"><ele>140.0</ele><time>2026-03-29T08:00:31.31Z</time></trkpt><trkpt lat="43.954175" lon="11.1266783"><ele>140.0</ele><time>2026-03-29T08:00:32.311Z</time></trkpt><trkpt lat="43.9542467" lon="11.1266333"><ele>140.0</ele><time>2026-03-29T08:00:33.311Z</time></trkpt><trkpt lat="43.9543183" lon="11.1265917"><ele>140.0</ele><time>2026-03-29T08:00:34.311Z</time></trkpt><trkpt lat="43.9543967" lon="11.12656"><ele>142.16666666666666</ele><time>2026-03-29T08:00:35.31Z</time></trkpt><trkpt lat="43.9544783" lon="11.1265467"><ele>144.33333333333331</ele><time>2026-03-29T08:00:36.31Z</time></trkpt><trkpt lat="43.9545617" lon="11.1265417"><ele>146.5</ele><time>2026-03-29T08:00:37.312Z</time></trkpt><trkpt lat="43.9546483" lon="11.12653"><ele>148.66666666666666</ele><time>2026-03-29T08:00:38.31Z</time></trkpt><trkpt lat="43.9547367" lon="11.12651"><ele>150.83333333333334</ele><time>2026-03-29T08:00:39.312Z</time></trkpt><trkpt lat="43.954825" lon="11.1264817"><ele>153.0</ele><time>2026-03-29T08:00:40.309Z</time></trkpt><trkpt lat="43.95491" lon="11.1264433"><ele>153.0</ele><time>2026-03-29T08:00:41.308Z</time></trkpt><trkpt lat="43.954995" lon="11.1263983"><ele>153.0</ele><time>2026-03-29T08:00:42.311Z</time></trkpt><trkpt lat="43.9550817" lon="11.1263567"><ele>153.0</ele><time>2026-03-29T08:00:43.31Z</time></trkpt><trkpt lat="43.9551683" lon="11.1263267"><ele>153.0</ele><time>2026-03-29T08:00:44.311Z</time></trkpt><trkpt lat="43.955255" lon="11.1263133"><ele>153.0</ele><time>2026-03-29T08:00:45.309Z</time></trkpt><trkpt lat="43.95534" lon="11.12631"><ele>153.0</ele><time>2026-03-29T08:00:46.31Z</time></trkpt><trkpt lat="43.9554267" lon="11.1263067"><ele>151.33333333333334</ele><time>2026-03-29T08:00:47.312Z</time></trkpt><trkpt lat="43.95551" lon="11.1262967"><ele>149.66666666666666</ele><time>2026-03-29T08:00:48.312Z</time></trkpt><trkpt lat="43.9555933" lon="11.1262817"><ele>148.0</ele><time>2026-03-29T08:00:49.31Z</time></trkpt><trkpt lat="43.955675" lon="11.1262633"><ele>146.33333333333331</ele><time>2026-03-29T08:00:50.311Z</time></trkpt><trkpt lat="43.955755" lon="11.1262417"><ele>144.66666666666666</ele><time>2026-03-29T08:00:51.309Z</time></trkpt><trkpt lat="43.955835" lon="11.1262217"><ele>143.0</ele><time>2026-03-29T08:00:52.309Z</time></trkpt><trkpt lat="43.9559133" lon="11.1261967"><ele>142.5</ele><time>2026-03-29T08:00:53.31Z</time></trkpt><trkpt lat="43.9559933" lon="11.1261733"><ele>142.0</ele><time>2026-03-29T08:00:54.313Z</time></trkpt><trkpt lat="43.9560733" lon="11.1261467"><ele>141.5</ele><time>2026-03-29T08:00:55.31Z</time></trkpt><trkpt lat="43.956155" lon="11.12612"><ele>141.0</ele><time>2026-03-29T08:00:56.309Z</time></trkpt><trkpt lat="43.956235" lon="11.126095"><ele>140.5</ele><time>2026-03-29T08:00:57.309Z</time></trkpt><trkpt lat="43.956315" lon="11.1260733"><ele>140.0</ele><time>2026-03-29T08:00:58.309Z</time></trkpt><trkpt lat="43.9563933" lon="11.1260533"><ele>140.0</ele><time>2026-03-29T08:00:59.312Z</time></trkpt><trkpt lat="43.9564717" lon="11.12603"><ele>140.0</ele><time>2026-03-29T08:01:00.309Z</time></trkpt><trkpt lat="43.95655" lon="11.1260083"><ele>140.0</ele><time>2026-03-29T08:01:01.31Z</time></trkpt><trkpt lat="43.9566317" lon="11.1259867"><ele>140.0</ele><time>2026-03-29T08:01:02.31Z</time></trkpt><trkpt lat="43.9567117" lon="11.1259633"><ele>140.0</ele><time>2026-03-29T08:01:03.311Z</time></trkpt><trkpt lat="43.9567933" lon="11.125935"><ele>140.0</ele><time>2026-03-29T08:01:04.311Z</time></trkpt><trkpt lat="43.9568733" lon="11.1259033"><ele>140.0</ele><time>2026-03-29T08:01:05.31Z</time></trkpt><trkpt lat="43.9569533" lon="11.1258767"><ele>140.0</ele><time>2026-03-29T08:01:06.311Z</time></trkpt><trkpt lat="43.957035" lon="11.1258533"><ele>140.0</ele><time>2026-03-29T08:01:07.31Z</time></trkpt><trkpt lat="43.957115" lon="11.125825"><ele>140.0</ele><time>2026-03-29T08:01:08.308Z</time></trkpt><trkpt lat="43.9571933" lon="11.125795"><ele>140.0</ele><time>2026-03-29T08:01:09.31Z</time></trkpt><trkpt lat="43.9572717" lon="11.1257617"><ele>140.0</ele><time>2026-03-29T08:01:10.309Z</time></trkpt><trkpt lat="43.9573517" lon="11.1257267"><ele>141.0</ele><time>2026-03-29T08:01:11.31Z</time></trkpt><trkpt lat="43.9574333" lon="11.1256933"><ele>142.0</ele><time>2026-03-29T08:01:12.31Z</time></trkpt><trkpt lat="43.9575117" lon="11.1256633"><ele>143.0</ele><time>2026-03-29T08:01:13.311Z</time></trkpt><trkpt lat="43.9575883" lon="11.1256333"><ele>144.0</ele><time>2026-03-29T08:01:14.31Z</time></trkpt><trkpt lat="43.9576633" lon="11.1256"><ele>145.0</ele><time>2026-03-29T08:01:15.31Z</time></trkpt><trkpt lat="43.9577383" lon="11.12557"><ele>146.0</ele><time>2026-03-29T08:01:16.31Z</time></trkpt><trkpt lat="43.95781" lon="11.12554"><ele>146.0</ele><time>2026-03-29T08:01:17.31Z</time></trkpt><trkpt lat="43.9578817" lon="11.12551"><ele>146.0</ele><time>2026-03-29T08:01:18.31Z</time></trkpt><trkpt lat="43.9579533" lon="11.1254817"><ele>146.0</ele><time>2026-03-29T08:01:19.31Z</time></trkpt><trkpt lat="43.958025" lon="11.1254517"><ele>146.0</ele><time>2026-03-29T08:01:20.31Z</time></trkpt><trkpt lat="43.9580917" lon="11.12542"><ele>146.0</ele><time>2026-03-29T08:01:21.311Z</time></trkpt><trkpt lat="43.95816" lon="11.1253867"><ele>146.0</ele><time>2026-03-29T08:01:22.311Z</time></trkpt><trkpt lat="43.9582317" lon="11.125355"><ele>146.0</ele><time>2026-03-29T08:01:23.31Z</time></trkpt><trkpt lat="43.9583" lon="11.1253233"><ele>146.0</ele><time>2026-03-29T08:01:24.31Z</time></trkpt><trkpt lat="43.9583717" lon="11.1253"><ele>146.0</ele><time>2026-03-29T08:01:25.31Z</time></trkpt><trkpt lat="43.95844" lon="11.1252767"><ele>146.0</ele><time>2026-03-29T08:01:26.311Z</time></trkpt><trkpt lat="43.9585067" lon="11.1252583"><ele>146.0</ele><time>2026-03-29T08:01:27.311Z</time></trkpt><trkpt lat="43.958575" lon="11.1252433"><ele>146.0</ele><time>2026-03-29T08:01:28.311Z</time></trkpt><trkpt lat="43.958645" lon="11.12523"><ele>146.0</ele><time>2026-03-29T08:01:29.309Z</time></trkpt><trkpt lat="43.958715" lon="11.1252217"><ele>146.0</ele><time>2026-03-29T08:01:30.311Z</time></trkpt><trkpt lat="43.9587833" lon="11.1252133"><ele>146.0</ele><time>2026-03-29T08:01:31.309Z</time></trkpt><trkpt lat="43.95885" lon="11.12521"><ele>146.0</ele><time>2026-03-29T08:01:32.312Z</time></trkpt><trkpt lat="43.9589733" lon="11.1252167"><ele>146.0</ele><time>2026-03-29T08:01:34.309Z</time></trkpt><trkpt lat="43.9590933" lon="11.1252317"><ele>146.0</ele><time>2026-03-29T08:01:36.311Z</time></trkpt><trkpt lat="43.9592" lon="11.125265"><ele>146.0</ele><time>2026-03-29T08:01:38.309Z</time></trkpt><trkpt lat="43.959305" lon="11.12533"><ele>145.71428571428572</ele><time>2026-03-29T08:01:40.309Z</time></trkpt><trkpt lat="43.95942" lon="11.125325"><ele>145.42857142857144</ele><time>2026-03-29T08:01:42.309Z</time></trkpt><trkpt lat="43.959475" lon="11.12528"><ele>145.14285714285717</ele><time>2026-03-29T08:01:43.31Z</time></trkpt><trkpt lat="43.9595267" lon="11.1252267"><ele>144.85714285714286</ele><time>2026-03-29T08:01:44.309Z</time></trkpt><trkpt lat="43.9595783" lon="11.12517"><ele>144.57142857142858</ele><time>2026-03-29T08:01:45.308Z</time></trkpt><trkpt lat="43.95963" lon="11.1251167"><ele>144.2857142857143</ele><time>2026-03-29T08:01:46.308Z</time></trkpt><trkpt lat="43.9596883" lon="11.12508"><ele>144.0</ele><time>2026-03-29T08:01:47.311Z</time></trkpt><trkpt lat="43.9597533" lon="11.1250517"><ele>144.00000000000003</ele><time>2026-03-29T08:01:48.309Z</time></trkpt><trkpt lat="43.9598217" lon="11.1250267"><ele>144.0</ele><time>2026-03-29T08:01:49.311Z</time></trkpt><trkpt lat="43.9598883" lon="11.125005"><ele>144.0</ele><time>2026-03-29T08:01:50.31Z</time></trkpt><trkpt lat="43.959955" lon="11.1249783"><ele>144.0</ele><time>2026-03-29T08:01:51.309Z</time></trkpt><trkpt lat="43.9600217" lon="11.124945"><ele>144.0</ele><time>2026-03-29T08:01:52.31Z</time></trkpt><trkpt lat="43.9600883" lon="11.1249067"><ele>144.00000000000003</ele><time>2026-03-29T08:01:53.31Z</time></trkpt><trkpt lat="43.9601517" lon="11.1248633"><ele>144.0</ele><time>2026-03-29T08:01:54.309Z</time></trkpt><trkpt lat="43.960215" lon="11.12482"><ele>144.85714285714286</ele><time>2026-03-29T08:01:55.308Z</time></trkpt><trkpt lat="43.9602783" lon="11.1247733"><ele>145.71428571428572</ele><time>2026-03-29T08:01:56.31Z</time></trkpt><trkpt lat="43.9603417" lon="11.1247267"><ele>146.57142857142856</ele><time>2026-03-29T08:01:57.31Z</time></trkpt><trkpt lat="43.9604067" lon="11.12468"><ele>147.42857142857144</ele><time>2026-03-29T08:01:58.308Z</time></trkpt><trkpt lat="43.9604717" lon="11.1246317"><ele>148.28571428571428</ele><time>2026-03-29T08:01:59.31Z</time></trkpt><trkpt lat="43.960535" lon="11.12459"><ele>149.14285714285714</ele><time>2026-03-29T08:02:00.309Z</time></trkpt><trkpt lat="43.9606017" lon="11.124555"><ele>150.0</ele><time>2026-03-29T08:02:01.309Z</time></trkpt><trkpt lat="43.96067" lon="11.1245267"><ele>150.0</ele><time>2026-03-29T08:02:02.311Z</time></trkpt><trkpt lat="43.9607367" lon="11.1245033"><ele>150.0</ele><time>2026-03-29T08:02:03.31Z</time></trkpt><trkpt lat="43.9608" lon="11.1244867"><ele>150.0</ele><time>2026-03-29T08:02:04.311Z</time></trkpt><trkpt lat="43.960865" lon="11.124475"><ele>150.0</ele><time>2026-03-29T08:02:05.31Z</time></trkpt><trkpt lat="43.96099" lon="11.124475"><ele>150.0</ele><time>2026-03-29T08:02:07.312Z</time></trkpt><trkpt lat="43.961055" lon="11.1244833"><ele>150.0</ele><time>2026-03-29T08:02:08.309Z</time></trkpt><trkpt lat="43.9611283" lon="11.1244917"><ele>149.7142857142857</ele><time>2026-03-29T08:02:09.311Z</time></trkpt><trkpt lat="43.9611983" lon="11.1245017"><ele>149.42857142857142</ele><time>2026-03-29T08:02:10.31Z</time></trkpt><trkpt lat="43.96127" lon="11.1245133"><ele>149.14285714285714</ele><time>2026-03-29T08:02:11.311Z</time></trkpt><trkpt lat="43.9613433" lon="11.12453"><ele>148.85714285714283</ele><time>2026-03-29T08:02:12.312Z</time></trkpt><trkpt lat="43.9614133" lon="11.1245417"><ele>148.57142857142856</ele><time>2026-03-29T08:02:13.309Z</time></trkpt><trkpt lat="43.9614833" lon="11.1245517"><ele>148.28571428571428</ele><time>2026-03-29T08:02:14.31Z</time></trkpt><trkpt lat="43.9615533" lon="11.1245583"><ele>148.0</ele><time>2026-03-29T08:02:15.31Z</time></trkpt><trkpt lat="43.961625" lon="11.1245683"><ele>148.0</ele><time>2026-03-29T08:02:16.311Z</time></trkpt><trkpt lat="43.96169" lon="11.12458"><ele>148.0</ele><time>2026-03-29T08:02:17.31Z</time></trkpt><trkpt lat="43.9617583" lon="11.12459"><ele>148.0</ele><time>2026-03-29T08:02:18.309Z</time></trkpt><trkpt lat="43.9618217" lon="11.1246"><ele>148.0</ele><time>2026-03-29T08:02:19.311Z</time></trkpt><trkpt lat="43.9618933" lon="11.12461"><ele>148.0</ele><time>2026-03-29T08:02:20.311Z</time></trkpt><trkpt lat="43.9619567" lon="11.1246217"><ele>148.0</ele><time>2026-03-29T08:02:21.309Z</time></trkpt><trkpt lat="43.962025" lon="11.124625"><ele>148.0</ele><time>2026-03-29T08:02:22.31Z</time></trkpt><trkpt lat="43.9620933" lon="11.1246333"><ele>148.57142857142858</ele><time>2026-03-29T08:02:23.31Z</time></trkpt><trkpt lat="43.9621617" lon="11.1246383"><ele>149.14285714285714</ele><time>2026-03-29T08:02:24.31Z</time></trkpt><trkpt lat="43.9622283" lon="11.1246467"><ele>149.71428571428572</ele><time>2026-03-29T08:02:25.311Z</time></trkpt><trkpt lat="43.962295" lon="11.124655"><ele>150.28571428571428</ele><time>2026-03-29T08:02:26.311Z</time></trkpt><trkpt lat="43.9623617" lon="11.1246633"><ele>150.85714285714286</ele><time>2026-03-29T08:02:27.31Z</time></trkpt><trkpt lat="43.9624267" lon="11.12468"><ele>151.42857142857142</ele><time>2026-03-29T08:02:28.31Z</time></trkpt><trkpt lat="43.9624917" lon="11.1247117"><ele>152.0</ele><time>2026-03-29T08:02:29.31Z</time></trkpt><trkpt lat="43.9625983" lon="11.1247883"><ele>152.16666666666666</ele><time>2026-03-29T08:02:31.31Z</time></trkpt><trkpt lat="43.9627" lon="11.1248817"><ele>152.33333333333331</ele><time>2026-03-29T08:02:33.31Z</time></trkpt><trkpt lat="43.9627567" lon="11.12493"><ele>152.5</ele><time>2026-03-29T08:02:34.309Z</time></trkpt><trkpt lat="43.96282" lon="11.12497"><ele>152.66666666666666</ele><time>2026-03-29T08:02:35.312Z</time></trkpt><trkpt lat="43.96289" lon="11.1249983"><ele>152.83333333333334</ele><time>2026-03-29T08:02:36.308Z</time></trkpt><trkpt lat="43.962965" lon="11.1250167"><ele>153.0</ele><time>2026-03-29T08:02:37.309Z</time></trkpt><trkpt lat="43.9630383" lon="11.1250283"><ele>153.0</ele><time>2026-03-29T08:02:38.31Z</time></trkpt><trkpt lat="43.9631117" lon="11.125035"><ele>153.0</ele><time>2026-03-29T08:02:39.311Z</time></trkpt><trkpt lat="43.96318" lon="11.1250383"><ele>153.0</ele><time>2026-03-29T08:02:40.312Z</time></trkpt><trkpt lat="43.963245" lon="11.1250283"><ele>153.0</ele><time>2026-03-29T08:02:41.312Z</time></trkpt><trkpt lat="43.9633083" lon="11.12502"><ele>153.0</ele><time>2026-03-29T08:02:42.31Z</time></trkpt><trkpt lat="43.9633717" lon="11.12501"><ele>153.0</ele><time>2026-03-29T08:02:43.309Z</time></trkpt><trkpt lat="43.96344" lon="11.1249917"><ele>153.0</ele><time>2026-03-29T08:02:44.311Z</time></trkpt><trkpt lat="43.96356" lon="11.12496"><ele>153.0</ele><time>2026-03-29T08:02:46.31Z</time></trkpt><trkpt lat="43.9636733" lon="11.1249233"><ele>153.0</ele><time>2026-03-29T08:02:48.311Z</time></trkpt><trkpt lat="43.96378" lon="11.1248933"><ele>153.0</ele><time>2026-03-29T08:02:50.31Z</time></trkpt><trkpt lat="43.9638867" lon="11.124875"><ele>153.0</ele><time>2026-03-29T08:02:52.311Z</time></trkpt><trkpt lat="43.963985" lon="11.1248733"><ele>153.0</ele><time>2026-03-29T08:02:54.309Z</time></trkpt><trkpt lat="43.9640833" lon="11.1248833"><ele>154.4</ele><time>2026-03-29T08:02:56.31Z</time></trkpt><trkpt lat="43.9641767" lon="11.1248917"><ele>155.8</ele><time>2026-03-29T08:02:58.307Z</time></trkpt><trkpt lat="43.964265" lon="11.1249033"><ele>157.2</ele><time>2026-03-29T08:03:00.311Z</time></trkpt><trkpt lat="43.96436" lon="11.12492"><ele>158.6</ele><time>2026-03-29T08:03:02.309Z</time></trkpt><trkpt lat="43.9644533" lon="11.1249367"><ele>160.0</ele><time>2026-03-29T08:03:04.311Z</time></trkpt><trkpt lat="43.964545" lon="11.1249483"><ele>160.33333333333334</ele><time>2026-03-29T08:03:06.309Z</time></trkpt><trkpt lat="43.9646333" lon="11.124965"><ele>160.66666666666669</ele><time>2026-03-29T08:03:08.31Z</time></trkpt><trkpt lat="43.9647183" lon="11.1249717"><ele>161.0</ele><time>2026-03-29T08:03:10.312Z</time></trkpt><trkpt lat="43.9648033" lon="11.1249767"><ele>161.33333333333334</ele><time>2026-03-29T08:03:12.31Z</time></trkpt><trkpt lat="43.9648817" lon="11.1249833"><ele>161.66666666666666</ele><time>2026-03-29T08:03:14.31Z</time></trkpt><trkpt lat="43.9649583" lon="11.124975"><ele>162.0</ele><time>2026-03-29T08:03:16.309Z</time></trkpt><trkpt lat="43.9650333" lon="11.1249717"><ele>162.16666666666666</ele><time>2026-03-29T08:03:18.309Z</time></trkpt><trkpt lat="43.9651117" lon="11.124955"><ele>162.33333333333334</ele><time>2026-03-29T08:03:20.31Z</time></trkpt><trkpt lat="43.9651967" lon="11.12493"><ele>162.5</ele><time>2026-03-29T08:03:22.31Z</time></trkpt><trkpt lat="43.9652817" lon="11.1249"><ele>162.66666666666669</ele><time>2026-03-29T08:03:24.31Z</time></trkpt><trkpt lat="43.96537" lon="11.1248733"><ele>162.83333333333334</ele><time>2026-03-29T08:03:26.311Z</time></trkpt><trkpt lat="43.96545" lon="11.1248417"><ele>163.0</ele><time>2026-03-29T08:03:28.31Z</time></trkpt><trkpt lat="43.9655233" lon="11.1247967"><ele>165.0</ele><time>2026-03-29T08:03:30.31Z</time></trkpt><trkpt lat="43.9655983" lon="11.1247533"><ele>167.0</ele><time>2026-03-29T08:03:32.31Z</time></trkpt><trkpt lat="43.965675" lon="11.124715"><ele>169.0</ele><time>2026-03-29T08:03:34.308Z</time></trkpt><trkpt lat="43.9657467" lon="11.1246933"><ele>171.0</ele><time>2026-03-29T08:03:36.309Z</time></trkpt><trkpt lat="43.9658233" lon="11.1246667"><ele>173.0</ele><time>2026-03-29T08:03:38.31Z</time></trkpt><trkpt lat="43.9659017" lon="11.124635"><ele>175.0</ele><time>2026-03-29T08:03:40.308Z</time></trkpt><trkpt lat="43.9659817" lon="11.1245983"><ele>175.0</ele><time>2026-03-29T08:03:42.311Z</time></trkpt><trkpt lat="43.9660633" lon="11.12457"><ele>175.0</ele><time>2026-03-29T08:03:44.31Z</time></trkpt><trkpt lat="43.9661383" lon="11.124535"><ele>175.0</ele><time>2026-03-29T08:03:46.31Z</time></trkpt><trkpt lat="43.96621" lon="11.1244967"><ele>175.0</ele><time>2026-03-29T08:03:48.311Z</time></trkpt><trkpt lat="43.9662833" lon="11.1244583"><ele>175.0</ele><time>2026-03-29T08:03:50.31Z</time></trkpt><trkpt lat="43.96636" lon="11.124425"><ele>175.0</ele><time>2026-03-29T08:03:52.309Z</time></trkpt><trkpt lat="43.966435" lon="11.1243817"><ele>175.0</ele><time>2026-03-29T08:03:54.309Z</time></trkpt><trkpt lat="43.9665167" lon="11.1243417"><ele>175.0</ele><time>2026-03-29T08:03:56.311Z</time></trkpt><trkpt lat="43.9666033" lon="11.1243133"><ele>175.0</ele><time>2026-03-29T08:03:58.31Z</time></trkpt><trkpt lat="43.96669" lon="11.1242817"><ele>175.0</ele><time>2026-03-29T08:04:00.31Z</time></trkpt><trkpt lat="43.9667733" lon="11.124245"><ele>175.0</ele><time>2026-03-29T08:04:02.309Z</time></trkpt><trkpt lat="43.96685" lon="11.124205"><ele>175.0</ele><time>2026-03-29T08:04:04.31Z</time></trkpt><trkpt lat="43.9669333" lon="11.12417"><ele>174.6</ele><time>2026-03-29T08:04:06.31Z</time></trkpt><trkpt lat="43.9670217" lon="11.1241533"><ele>174.2</ele><time>2026-03-29T08:04:08.31Z</time></trkpt><trkpt lat="43.9671117" lon="11.1241333"><ele>173.8</ele><time>2026-03-29T08:04:10.311Z</time></trkpt><trkpt lat="43.9671933" lon="11.1241017"><ele>173.4</ele><time>2026-03-29T08:04:12.311Z</time></trkpt><trkpt lat="43.967275" lon="11.1240533"><ele>173.0</ele><time>2026-03-29T08:04:14.31Z</time></trkpt><trkpt lat="43.967365" lon="11.1240067"><ele>172.2</ele><time>2026-03-29T08:04:16.309Z</time></trkpt><trkpt lat="43.967455" lon="11.12394"><ele>171.4</ele><time>2026-03-29T08:04:18.315Z</time></trkpt><trkpt lat="43.96755" lon="11.123875"><ele>170.6</ele><time>2026-03-29T08:04:20.312Z</time></trkpt><trkpt lat="43.9676517" lon="11.1238083"><ele>169.79999999999998</ele><time>2026-03-29T08:04:22.31Z</time></trkpt><trkpt lat="43.9677567" lon="11.123725"><ele>169.0</ele><time>2026-03-29T08:04:24.31Z</time></trkpt><trkpt lat="43.96781" lon="11.1236783"><ele>169.0</ele><time>2026-03-29T08:04:25.31Z</time></trkpt><trkpt lat="43.9678633" lon="11.1236317"><ele>169.0</ele><time>2026-03-29T08:04:26.311Z</time></trkpt><trkpt lat="43.96792" lon="11.1235833"><ele>169.0</ele><time>2026-03-29T08:04:27.311Z</time></trkpt><trkpt lat="43.96798" lon="11.123535"><ele>169.0</ele><time>2026-03-29T08:04:28.312Z</time></trkpt><trkpt lat="43.9680417" lon="11.1234883"><ele>169.0</ele><time>2026-03-29T08:04:29.311Z</time></trkpt><trkpt lat="43.968105" lon="11.1234367"><ele>169.0</ele><time>2026-03-29T08:04:30.312Z</time></trkpt><trkpt lat="43.9681583" lon="11.1233667"><ele>169.0</ele><time>2026-03-29T08:04:31.31Z</time></trkpt><trkpt lat="43.96822" lon="11.1233233"><ele>169.0</ele><time>2026-03-29T08:04:32.31Z</time></trkpt><trkpt lat="43.9682833" lon="11.1232767"><ele>169.0</ele><time>2026-03-29T08:04:33.31Z</time></trkpt><trkpt lat="43.9683433" lon="11.1232267"><ele>169.0</ele><time>2026-03-29T08:04:34.308Z</time></trkpt><trkpt lat="43.968405" lon="11.1231767"><ele>169.0</ele><time>2026-03-29T08:04:35.313Z</time></trkpt><trkpt lat="43.9684683" lon="11.1231317"><ele>169.0</ele><time>2026-03-29T08:04:36.309Z</time></trkpt><trkpt lat="43.9685317" lon="11.1230833"><ele>169.0</ele><time>2026-03-29T08:04:37.31Z</time></trkpt><trkpt lat="43.9685983" lon="11.1230383"><ele>169.0</ele><time>2026-03-29T08:04:38.31Z</time></trkpt><trkpt lat="43.9686667" lon="11.123"><ele>169.83333333333334</ele><time>2026-03-29T08:04:39.311Z</time></trkpt><trkpt lat="43.9687367" lon="11.122965"><ele>170.66666666666669</ele><time>2026-03-29T08:04:40.31Z</time></trkpt><trkpt lat="43.96881" lon="11.12293"><ele>171.5</ele><time>2026-03-29T08:04:41.309Z</time></trkpt><trkpt lat="43.9688883" lon="11.1229033"><ele>172.33333333333334</ele><time>2026-03-29T08:04:42.31Z</time></trkpt><trkpt lat="43.9689633" lon="11.122885"><ele>173.16666666666666</ele><time>2026-03-29T08:04:43.311Z</time></trkpt><trkpt lat="43.969035" lon="11.12287"><ele>174.0</ele><time>2026-03-29T08:04:44.31Z</time></trkpt><trkpt lat="43.9691067" lon="11.1228583"><ele>174.0</ele><time>2026-03-29T08:04:45.313Z</time></trkpt><trkpt lat="43.9691767" lon="11.1228567"><ele>174.0</ele><time>2026-03-29T08:04:46.31Z</time></trkpt><trkpt lat="43.9692467" lon="11.122855"><ele>174.0</ele><time>2026-03-29T08:04:47.311Z</time></trkpt><trkpt lat="43.9693183" lon="11.1228633"><ele>174.0</ele><time>2026-03-29T08:04:48.309Z</time></trkpt><trkpt lat="43.9693883" lon="11.1228817"><ele>174.0</ele><time>2026-03-29T08:04:49.31Z</time></trkpt><trkpt lat="43.969455" lon="11.1229033"><ele>174.0</ele><time>2026-03-29T08:04:50.311Z</time></trkpt><trkpt lat="43.96952" lon="11.1229267"><ele>174.0</ele><time>2026-03-29T08:04:51.308Z</time></trkpt><trkpt lat="43.9695833" lon="11.1229583"><ele>174.83333333333334</ele><time>2026-03-29T08:04:52.308Z</time></trkpt><trkpt lat="43.969645" lon="11.1229883"><ele>175.66666666666666</ele><time>2026-03-29T08:04:53.311Z</time></trkpt><trkpt lat="43.9697083" lon="11.123015"><ele>176.5</ele><time>2026-03-29T08:04:54.309Z</time></trkpt><trkpt lat="43.9697683" lon="11.1230417"><ele>177.33333333333331</ele><time>2026-03-29T08:04:55.307Z</time></trkpt><trkpt lat="43.9698883" lon="11.1230867"><ele>178.16666666666666</ele><time>2026-03-29T08:04:57.31Z</time></trkpt><trkpt lat="43.9699483" lon="11.1231133"><ele>179.0</ele><time>2026-03-29T08:04:58.309Z</time></trkpt><trkpt lat="43.9700617" lon="11.1231633"><ele>178.16666666666666</ele><time>2026-03-29T08:05:00.309Z</time></trkpt><trkpt lat="43.9701767" lon="11.1232217"><ele>177.33333333333331</ele><time>2026-03-29T08:05:02.309Z</time></trkpt><trkpt lat="43.97029" lon="11.1232867"><ele>176.5</ele><time>2026-03-29T08:05:04.309Z</time></trkpt><trkpt lat="43.9703483" lon="11.12332"><ele>175.66666666666666</ele><time>2026-03-29T08:05:05.31Z</time></trkpt><trkpt lat="43.9704083" lon="11.123365"><ele>174.83333333333334</ele><time>2026-03-29T08:05:06.311Z</time></trkpt><trkpt lat="43.970465" lon="11.1234117"><ele>174.0</ele><time>2026-03-29T08:05:07.31Z</time></trkpt><trkpt lat="43.9705233" lon="11.123455"><ele>174.0</ele><time>2026-03-29T08:05:08.311Z</time></trkpt><trkpt lat="43.97058" lon="11.1235"><ele>174.0</ele><time>2026-03-29T08:05:09.31Z</time></trkpt><trkpt lat="43.97064" lon="11.12355"><ele>174.0</ele><time>2026-03-29T08:05:10.309Z</time></trkpt><trkpt lat="43.9707017" lon="11.1235967"><ele>174.0</ele><time>2026-03-29T08:05:11.309Z</time></trkpt><trkpt lat="43.9707633" lon="11.1236433"><ele>174.0</ele><time>2026-03-29T08:05:12.309Z</time></trkpt><trkpt lat="43.9708233" lon="11.1236933"><ele>174.0</ele><time>2026-03-29T08:05:13.31Z</time></trkpt><trkpt lat="43.9708817" lon="11.1237467"><ele>174.0</ele><time>2026-03-29T08:05:14.309Z</time></trkpt><trkpt lat="43.9709417" lon="11.1237967"><ele>173.85714285714286</ele><time>2026-03-29T08:05:15.309Z</time></trkpt><trkpt lat="43.971" lon="11.1238483"><ele>173.71428571428572</ele><time>2026-03-29T08:05:16.31Z</time></trkpt><trkpt lat="43.97106" lon="11.1239017"><ele>173.57142857142856</ele><time>2026-03-29T08:05:17.309Z</time></trkpt><trkpt lat="43.97112" lon="11.123955"><ele>173.42857142857144</ele><time>2026-03-29T08:05:18.31Z</time></trkpt><trkpt lat="43.9711783" lon="11.1240117"><ele>173.2857142857143</ele><time>2026-03-29T08:05:19.311Z</time></trkpt><trkpt lat="43.97123" lon="11.1240633"><ele>173.14285714285714</ele><time>2026-03-29T08:05:20.31Z</time></trkpt><trkpt lat="43.9712883" lon="11.1241167"><ele>173.0</ele><time>2026-03-29T08:05:21.31Z</time></trkpt><trkpt lat="43.9713483" lon="11.1241717"><ele>173.0</ele><time>2026-03-29T08:05:22.307Z</time></trkpt><trkpt lat="43.97141" lon="11.1242283"><ele>173.0</ele><time>2026-03-29T08:05:23.311Z</time></trkpt><trkpt lat="43.9714717" lon="11.1242817"><ele>173.0</ele><time>2026-03-29T08:05:24.311Z</time></trkpt><trkpt lat="43.971535" lon="11.124335"><ele>173.0</ele><time>2026-03-29T08:05:25.31Z</time></trkpt><trkpt lat="43.9715967" lon="11.1243933"><ele>173.0</ele><time>2026-03-29T08:05:26.309Z</time></trkpt><trkpt lat="43.9716583" lon="11.1244617"><ele>173.0</ele><time>2026-03-29T08:05:27.308Z</time></trkpt><trkpt lat="43.97172" lon="11.1245233"><ele>173.42857142857142</ele><time>2026-03-29T08:05:28.31Z</time></trkpt><trkpt lat="43.971785" lon="11.1245833"><ele>173.85714285714286</ele><time>2026-03-29T08:05:29.31Z</time></trkpt><trkpt lat="43.97185" lon="11.1246333"><ele>174.28571428571428</ele><time>2026-03-29T08:05:30.308Z</time></trkpt><trkpt lat="43.9719183" lon="11.1246717"><ele>174.71428571428572</ele><time>2026-03-29T08:05:31.31Z</time></trkpt><trkpt lat="43.97199" lon="11.1246967"><ele>175.14285714285714</ele><time>2026-03-29T08:05:32.312Z</time></trkpt><trkpt lat="43.9720633" lon="11.1247017"><ele>175.57142857142858</ele><time>2026-03-29T08:05:33.309Z</time></trkpt><trkpt lat="43.972135" lon="11.124685"><ele>176.0</ele><time>2026-03-29T08:05:34.309Z</time></trkpt><trkpt lat="43.9722067" lon="11.124655"><ele>176.0</ele><time>2026-03-29T08:05:35.309Z</time></trkpt><trkpt lat="43.9722767" lon="11.124615"><ele>176.0</ele><time>2026-03-29T08:05:36.309Z</time></trkpt><trkpt lat="43.9723483" lon="11.124575"><ele>176.0</ele><time>2026-03-29T08:05:37.31Z</time></trkpt><trkpt lat="43.9724183" lon="11.1245283"><ele>176.0</ele><time>2026-03-29T08:05:38.309Z</time></trkpt><trkpt lat="43.97249" lon="11.1244833"><ele>176.0</ele><time>2026-03-29T08:05:39.308Z</time></trkpt><trkpt lat="43.9725633" lon="11.12444"><ele>176.0</ele><time>2026-03-29T08:05:40.308Z</time></trkpt><trkpt lat="43.9726383" lon="11.1243933"><ele>177.16666666666666</ele><time>2026-03-29T08:05:41.308Z</time></trkpt><trkpt lat="43.972715" lon="11.1243417"><ele>178.33333333333331</ele><time>2026-03-29T08:05:42.309Z</time></trkpt><trkpt lat="43.9727933" lon="11.1242867"><ele>179.5</ele><time>2026-03-29T08:05:43.311Z</time></trkpt><trkpt lat="43.9728733" lon="11.1242317"><ele>180.66666666666666</ele><time>2026-03-29T08:05:44.309Z</time></trkpt><trkpt lat="43.9729533" lon="11.124175"><ele>181.83333333333334</ele><time>2026-03-29T08:05:45.309Z</time></trkpt><trkpt lat="43.9730333" lon="11.1241167"><ele>183.0</ele><time>2026-03-29T08:05:46.308Z</time></trkpt><trkpt lat="43.9731133" lon="11.12406"><ele>183.0</ele><time>2026-03-29T08:05:47.309Z</time></trkpt><trkpt lat="43.973195" lon="11.124005"><ele>183.0</ele><time>2026-03-29T08:05:48.309Z</time></trkpt><trkpt lat="43.9732783" lon="11.1239483"><ele>183.0</ele><time>2026-03-29T08:05:49.31Z</time></trkpt><trkpt lat="43.97336" lon="11.1238883"><ele>183.0</ele><time>2026-03-29T08:05:50.31Z</time></trkpt><trkpt lat="43.9734417" lon="11.1238217"><ele>183.0</ele><time>2026-03-29T08:05:51.307Z</time></trkpt><trkpt lat="43.9735183" lon="11.12375"><ele>176.75</ele><time>2026-03-29T08:05:52.308Z</time></trkpt><trkpt lat="43.97367" lon="11.123605"><ele>170.5</ele><time>2026-03-29T08:05:54.309Z</time></trkpt><trkpt lat="43.9737417" lon="11.12353"><ele>164.25</ele><time>2026-03-29T08:05:55.308Z</time></trkpt><trkpt lat="43.9738117" lon="11.12345"><ele>158.0</ele><time>2026-03-29T08:05:56.309Z</time></trkpt><trkpt lat="43.9738783" lon="11.123365"><ele>158.0</ele><time>2026-03-29T08:05:57.309Z</time></trkpt><trkpt lat="43.9739433" lon="11.123275"><ele>158.0</ele><time>2026-03-29T08:05:58.309Z</time></trkpt><trkpt lat="43.9740083" lon="11.1231867"><ele>158.0</ele><time>2026-03-29T08:05:59.31Z</time></trkpt><trkpt lat="43.9740733" lon="11.1230983"><ele>158.0</ele><time>2026-03-29T08:06:00.31Z</time></trkpt><trkpt lat="43.9741333" lon="11.123"><ele>158.0</ele><time>2026-03-29T08:06:01.31Z</time></trkpt><trkpt lat="43.97419" lon="11.1229067"><ele>159.16666666666666</ele><time>2026-03-29T08:06:02.31Z</time></trkpt><trkpt lat="43.9742533" lon="11.1228267"><ele>160.33333333333331</ele><time>2026-03-29T08:06:03.311Z</time></trkpt><trkpt lat="43.9743133" lon="11.1227417"><ele>161.5</ele><time>2026-03-29T08:06:04.308Z</time></trkpt><trkpt lat="43.97438" lon="11.12266"><ele>162.66666666666666</ele><time>2026-03-29T08:06:05.31Z</time></trkpt><trkpt lat="43.9744467" lon="11.1225817"><ele>163.83333333333334</ele><time>2026-03-29T08:06:06.311Z</time></trkpt><trkpt lat="43.9745183" lon="11.1225033"><ele>165.0</ele><time>2026-03-29T08:06:07.309Z</time></trkpt><trkpt lat="43.9745933" lon="11.1224333"><ele>171.8</ele><time>2026-03-29T08:06:08.31Z</time></trkpt><trkpt lat="43.9746717" lon="11.12238"><ele>178.6</ele><time>2026-03-29T08:06:09.309Z</time></trkpt><trkpt lat="43.9747617" lon="11.12235"><ele>185.39999999999998</ele><time>2026-03-29T08:06:10.31Z</time></trkpt><trkpt lat="43.9748567" lon="11.1223417"><ele>192.2</ele><time>2026-03-29T08:06:11.31Z</time></trkpt><trkpt lat="43.9749483" lon="11.12235"><ele>199.0</ele><time>2026-03-29T08:06:12.309Z</time></trkpt><trkpt lat="43.9750417" lon="11.1223617"><ele>199.2</ele><time>2026-03-29T08:06:13.309Z</time></trkpt><trkpt lat="43.9751367" lon="11.1223767"><ele>199.39999999999998</ele><time>2026-03-29T08:06:14.31Z</time></trkpt><trkpt lat="43.975225" lon="11.1223867"><ele>199.6</ele><time>2026-03-29T08:06:15.31Z</time></trkpt><trkpt lat="43.975315" lon="11.1223967"><ele>199.8</ele><time>2026-03-29T08:06:16.309Z</time></trkpt><trkpt lat="43.9754033" lon="11.122405"><ele>200.0</ele><time>2026-03-29T08:06:17.309Z</time></trkpt><trkpt lat="43.97549" lon="11.1224183"><ele>196.66666666666669</ele><time>2026-03-29T08:06:18.31Z</time></trkpt><trkpt lat="43.9755717" lon="11.12244"><ele>193.33333333333334</ele><time>2026-03-29T08:06:19.31Z</time></trkpt><trkpt lat="43.9756567" lon="11.1224583"><ele>190.0</ele><time>2026-03-29T08:06:20.313Z</time></trkpt><trkpt lat="43.9757417" lon="11.1224717"><ele>186.66666666666669</ele><time>2026-03-29T08:06:21.308Z</time></trkpt><trkpt lat="43.975825" lon="11.1224883"><ele>183.33333333333334</ele><time>2026-03-29T08:06:22.309Z</time></trkpt><trkpt lat="43.9759083" lon="11.1225083"><ele>180.0</ele><time>2026-03-29T08:06:23.31Z</time></trkpt><trkpt lat="43.9759883" lon="11.1225383"><ele>180.0</ele><time>2026-03-29T08:06:24.31Z</time></trkpt><trkpt lat="43.976065" lon="11.122585"><ele>180.0</ele><time>2026-03-29T08:06:25.31Z</time></trkpt><trkpt lat="43.9761367" lon="11.1226417"><ele>180.0</ele><time>2026-03-29T08:06:26.309Z</time></trkpt><trkpt lat="43.9762033" lon="11.1227067"><ele>180.0</ele><time>2026-03-29T08:06:27.311Z</time></trkpt><trkpt lat="43.9762633" lon="11.1227817"><ele>180.0</ele><time>2026-03-29T08:06:28.312Z</time></trkpt><trkpt lat="43.9763183" lon="11.1228683"><ele>180.0</ele><time>2026-03-29T08:06:29.31Z</time></trkpt><trkpt lat="43.9763717" lon="11.1229567"><ele>180.0</ele><time>2026-03-29T08:06:30.307Z</time></trkpt><trkpt lat="43.9764233" lon="11.1230467"><ele>180.0</ele><time>2026-03-29T08:06:31.31Z</time></trkpt><trkpt lat="43.9764733" lon="11.1231367"><ele>180.0</ele><time>2026-03-29T08:06:32.31Z</time></trkpt><trkpt lat="43.976525" lon="11.1232233"><ele>180.0</ele><time>2026-03-29T08:06:33.31Z</time></trkpt><trkpt lat="43.976575" lon="11.1233117"><ele>180.0</ele><time>2026-03-29T08:06:34.307Z</time></trkpt><trkpt lat="43.97663" lon="11.1234017"><ele>180.0</ele><time>2026-03-29T08:06:35.31Z</time></trkpt><trkpt lat="43.9766817" lon="11.12349"><ele>181.16666666666666</ele><time>2026-03-29T08:06:36.309Z</time></trkpt><trkpt lat="43.9767317" lon="11.12358"><ele>182.33333333333334</ele><time>2026-03-29T08:06:37.313Z</time></trkpt><trkpt lat="43.9767817" lon="11.123665"><ele>183.5</ele><time>2026-03-29T08:06:38.309Z</time></trkpt><trkpt lat="43.976835" lon="11.1237483"><ele>184.66666666666669</ele><time>2026-03-29T08:06:39.309Z</time></trkpt><trkpt lat="43.97689" lon="11.1238267"><ele>185.83333333333334</ele><time>2026-03-29T08:06:40.309Z</time></trkpt><trkpt lat="43.9769467" lon="11.123905"><ele>187.0</ele><time>2026-03-29T08:06:41.309Z</time></trkpt><trkpt lat="43.9770033" lon="11.1239783"><ele>187.0</ele><time>2026-03-29T08:06:42.313Z</time></trkpt><trkpt lat="43.97706" lon="11.1240567"><ele>187.0</ele><time>2026-03-29T08:06:43.311Z</time></trkpt><trkpt lat="43.9771217" lon="11.1241333"><ele>187.0</ele><time>2026-03-29T08:06:44.309Z</time></trkpt><trkpt lat="43.9771817" lon="11.124205"><ele>187.0</ele><time>2026-03-29T08:06:45.309Z</time></trkpt><trkpt lat="43.97724" lon="11.12428"><ele>187.0</ele><time>2026-03-29T08:06:46.31Z</time></trkpt><trkpt lat="43.9772983" lon="11.1243567"><ele>187.0</ele><time>2026-03-29T08:06:47.31Z</time></trkpt><trkpt lat="43.977355" lon="11.124435"><ele>186.83333333333334</ele><time>2026-03-29T08:06:48.312Z</time></trkpt><trkpt lat="43.9774117" lon="11.1245117"><ele>186.66666666666669</ele><time>2026-03-29T08:06:49.309Z</time></trkpt><trkpt lat="43.97747" lon="11.1245867"><ele>186.5</ele><time>2026-03-29T08:06:50.31Z</time></trkpt><trkpt lat="43.9775267" lon="11.12466"><ele>186.33333333333334</ele><time>2026-03-29T08:06:51.308Z</time></trkpt><trkpt lat="43.9775833" lon="11.124735"><ele>186.16666666666666</ele><time>2026-03-29T08:06:52.311Z</time></trkpt><trkpt lat="43.97764" lon="11.1248083"><ele>186.0</ele><time>2026-03-29T08:06:53.309Z</time></trkpt><trkpt lat="43.9776967" lon="11.1248817"><ele>183.66666666666666</ele><time>2026-03-29T08:06:54.31Z</time></trkpt><trkpt lat="43.9777533" lon="11.124955"><ele>181.33333333333334</ele><time>2026-03-29T08:06:55.31Z</time></trkpt><trkpt lat="43.9778117" lon="11.1250267"><ele>179.0</ele><time>2026-03-29T08:06:56.308Z</time></trkpt><trkpt lat="43.9778667" lon="11.1250967"><ele>176.66666666666669</ele><time>2026-03-29T08:06:57.309Z</time></trkpt><trkpt lat="43.9779283" lon="11.1251633"><ele>174.33333333333334</ele><time>2026-03-29T08:06:58.31Z</time></trkpt><trkpt lat="43.9779933" lon="11.125215"><ele>172.0</ele><time>2026-03-29T08:06:59.312Z</time></trkpt><trkpt lat="43.9780617" lon="11.1252517"><ele>172.0</ele><time>2026-03-29T08:07:00.31Z</time></trkpt><trkpt lat="43.9781367" lon="11.1252683"><ele>172.0</ele><time>2026-03-29T08:07:01.309Z</time></trkpt><trkpt lat="43.9782117" lon="11.1252667"><ele>172.0</ele><time>2026-03-29T08:07:02.309Z</time></trkpt><trkpt lat="43.9782867" lon="11.1252467"><ele>172.0</ele><time>2026-03-29T08:07:03.31Z</time></trkpt><trkpt lat="43.9783633" lon="11.125215"><ele>172.0</ele><time>2026-03-29T08:07:04.312Z</time></trkpt><trkpt lat="43.9784367" lon="11.1251683"><ele>172.0</ele><time>2026-03-29T08:07:05.31Z</time></trkpt><trkpt lat="43.9785133" lon="11.1251167"><ele>173.0</ele><time>2026-03-29T08:07:06.309Z</time></trkpt><trkpt lat="43.9785833" lon="11.125055"><ele>174.0</ele><time>2026-03-29T08:07:07.31Z</time></trkpt><trkpt lat="43.9786533" lon="11.1249867"><ele>175.0</ele><time>2026-03-29T08:07:08.31Z</time></trkpt><trkpt lat="43.978725" lon="11.124915"><ele>176.0</ele><time>2026-03-29T08:07:09.309Z</time></trkpt><trkpt lat="43.9788017" lon="11.124845"><ele>177.0</ele><time>2026-03-29T08:07:10.31Z</time></trkpt><trkpt lat="43.9788767" lon="11.124775"><ele>178.0</ele><time>2026-03-29T08:07:11.309Z</time></trkpt><trkpt lat="43.978955" lon="11.12471"><ele>178.0</ele><time>2026-03-29T08:07:12.308Z</time></trkpt><trkpt lat="43.9790467" lon="11.1246633"><ele>178.0</ele><time>2026-03-29T08:07:13.31Z</time></trkpt><trkpt lat="43.9791433" lon="11.12464"><ele>178.0</ele><time>2026-03-29T08:07:14.309Z</time></trkpt><trkpt lat="43.9792367" lon="11.1246533"><ele>178.0</ele><time>2026-03-29T08:07:15.31Z</time></trkpt><trkpt lat="43.9793333" lon="11.1247"><ele>178.0</ele><time>2026-03-29T08:07:16.308Z</time></trkpt><trkpt lat="43.979425" lon="11.12478"><ele>176.0</ele><time>2026-03-29T08:07:17.309Z</time></trkpt><trkpt lat="43.9795067" lon="11.1248783"><ele>174.0</ele><time>2026-03-29T08:07:18.309Z</time></trkpt><trkpt lat="43.9795783" lon="11.1249883"><ele>172.0</ele><time>2026-03-29T08:07:19.309Z</time></trkpt><trkpt lat="43.979645" lon="11.1251033"><ele>170.0</ele><time>2026-03-29T08:07:20.31Z</time></trkpt><trkpt lat="43.9797067" lon="11.1252233"><ele>168.0</ele><time>2026-03-29T08:07:21.309Z</time></trkpt><trkpt lat="43.9797683" lon="11.1253417"><ele>168.0</ele><time>2026-03-29T08:07:22.307Z</time></trkpt><trkpt lat="43.9798283" lon="11.1254583"><ele>168.0</ele><time>2026-03-29T08:07:23.309Z</time></trkpt><trkpt lat="43.9798867" lon="11.125575"><ele>168.0</ele><time>2026-03-29T08:07:24.308Z</time></trkpt><trkpt lat="43.979945" lon="11.12569"><ele>168.0</ele><time>2026-03-29T08:07:25.309Z</time></trkpt><trkpt lat="43.980005" lon="11.1258067"><ele>168.0</ele><time>2026-03-29T08:07:26.312Z</time></trkpt><trkpt lat="43.9800633" lon="11.1259183"><ele>168.0</ele><time>2026-03-29T08:07:27.31Z</time></trkpt><trkpt lat="43.980125" lon="11.126025"><ele>168.0</ele><time>2026-03-29T08:07:28.31Z</time></trkpt><trkpt lat="43.980185" lon="11.12613"><ele>168.0</ele><time>2026-03-29T08:07:29.309Z</time></trkpt><trkpt lat="43.98024" lon="11.1262383"><ele>168.0</ele><time>2026-03-29T08:07:30.309Z</time></trkpt><trkpt lat="43.980295" lon="11.1263417"><ele>168.0</ele><time>2026-03-29T08:07:31.309Z</time></trkpt><trkpt lat="43.9803483" lon="11.126445"><ele>168.0</ele><time>2026-03-29T08:07:32.309Z</time></trkpt><trkpt lat="43.980405" lon="11.126545"><ele>168.0</ele><time>2026-03-29T08:07:33.309Z</time></trkpt><trkpt lat="43.9804633" lon="11.126645"><ele>168.0</ele><time>2026-03-29T08:07:34.309Z</time></trkpt><trkpt lat="43.9805233" lon="11.1267417"><ele>168.0</ele><time>2026-03-29T08:07:35.309Z</time></trkpt><trkpt lat="43.9805817" lon="11.126835"><ele>168.0</ele><time>2026-03-29T08:07:36.309Z</time></trkpt><trkpt lat="43.980645" lon="11.126915"><ele>167.66666666666666</ele><time>2026-03-29T08:07:37.309Z</time></trkpt><trkpt lat="43.9807083" lon="11.1269917"><ele>167.33333333333334</ele><time>2026-03-29T08:07:38.309Z</time></trkpt><trkpt lat="43.9807683" lon="11.1270667"><ele>167.0</ele><time>2026-03-29T08:07:39.311Z</time></trkpt><trkpt lat="43.9808317" lon="11.1271383"><ele>166.66666666666669</ele><time>2026-03-29T08:07:40.309Z</time></trkpt><trkpt lat="43.9808933" lon="11.1272033"><ele>166.33333333333334</ele><time>2026-03-29T08:07:41.307Z</time></trkpt><trkpt lat="43.980955" lon="11.12726"><ele>166.0</ele><time>2026-03-29T08:07:42.31Z</time></trkpt><trkpt lat="43.98102" lon="11.1273117"><ele>165.85714285714286</ele><time>2026-03-29T08:07:43.311Z</time></trkpt><trkpt lat="43.9810817" lon="11.1273683"><ele>165.71428571428572</ele><time>2026-03-29T08:07:44.312Z</time></trkpt><trkpt lat="43.9811317" lon="11.1274433"><ele>165.57142857142858</ele><time>2026-03-29T08:07:45.31Z</time></trkpt><trkpt lat="43.9811733" lon="11.12753"><ele>165.42857142857144</ele><time>2026-03-29T08:07:46.309Z</time></trkpt><trkpt lat="43.98122" lon="11.127605"><ele>165.28571428571428</ele><time>2026-03-29T08:07:47.311Z</time></trkpt><trkpt lat="43.9812733" lon="11.1276733"><ele>165.14285714285717</ele><time>2026-03-29T08:07:48.31Z</time></trkpt><trkpt lat="43.9813383" lon="11.1277267"><ele>165.0</ele><time>2026-03-29T08:07:49.311Z</time></trkpt><trkpt lat="43.9814167" lon="11.127765"><ele>165.16666666666666</ele><time>2026-03-29T08:07:50.309Z</time></trkpt><trkpt lat="43.9814867" lon="11.127815"><ele>165.33333333333334</ele><time>2026-03-29T08:07:51.309Z</time></trkpt><trkpt lat="43.9815467" lon="11.1278883"><ele>165.5</ele><time>2026-03-29T08:07:52.312Z</time></trkpt><trkpt lat="43.9815917" lon="11.127975"><ele>165.66666666666669</ele><time>2026-03-29T08:07:53.309Z</time></trkpt><trkpt lat="43.9816383" lon="11.12807"><ele>165.83333333333334</ele><time>2026-03-29T08:07:54.311Z</time></trkpt><trkpt lat="43.981685" lon="11.1281617"><ele>166.0</ele><time>2026-03-29T08:07:55.309Z</time></trkpt><trkpt lat="43.981735" lon="11.1282533"><ele>165.33333333333334</ele><time>2026-03-29T08:07:56.31Z</time></trkpt><trkpt lat="43.9817867" lon="11.1283383"><ele>164.66666666666669</ele><time>2026-03-29T08:07:57.31Z</time></trkpt><trkpt lat="43.98184" lon="11.1284183"><ele>164.0</ele><time>2026-03-29T08:07:58.309Z</time></trkpt><trkpt lat="43.9818983" lon="11.1284917"><ele>163.33333333333334</ele><time>2026-03-29T08:07:59.31Z</time></trkpt><trkpt lat="43.9819567" lon="11.1285633"><ele>162.66666666666666</ele><time>2026-03-29T08:08:00.309Z</time></trkpt><trkpt lat="43.9820117" lon="11.1286317"><ele>162.0</ele><time>2026-03-29T08:08:01.31Z</time></trkpt><trkpt lat="43.9820683" lon="11.1287"><ele>162.0</ele><time>2026-03-29T08:08:02.31Z</time></trkpt><trkpt lat="43.982125" lon="11.1287633"><ele>162.0</ele><time>2026-03-29T08:08:03.308Z</time></trkpt><trkpt lat="43.9821817" lon="11.1288283"><ele>162.0</ele><time>2026-03-29T08:08:04.31Z</time></trkpt><trkpt lat="43.9822367" lon="11.1288933"><ele>162.0</ele><time>2026-03-29T08:08:05.31Z</time></trkpt><trkpt lat="43.98229" lon="11.1289567"><ele>162.0</ele><time>2026-03-29T08:08:06.309Z</time></trkpt><trkpt lat="43.9823433" lon="11.1290183"><ele>162.0</ele><time>2026-03-29T08:08:07.311Z</time></trkpt><trkpt lat="43.982395" lon="11.1290767"><ele>162.0</ele><time>2026-03-29T08:08:08.309Z</time></trkpt><trkpt lat="43.9824483" lon="11.129135"><ele>162.14285714285714</ele><time>2026-03-29T08:08:09.31Z</time></trkpt><trkpt lat="43.9825033" lon="11.129195"><ele>162.28571428571428</ele><time>2026-03-29T08:08:10.308Z</time></trkpt><trkpt lat="43.9825583" lon="11.1292483"><ele>162.42857142857144</ele><time>2026-03-29T08:08:11.31Z</time></trkpt><trkpt lat="43.9826167" lon="11.1293083"><ele>162.57142857142856</ele><time>2026-03-29T08:08:12.307Z</time></trkpt><trkpt lat="43.9826733" lon="11.129365"><ele>162.7142857142857</ele><time>2026-03-29T08:08:13.31Z</time></trkpt><trkpt lat="43.9827317" lon="11.1294233"><ele>162.85714285714286</ele><time>2026-03-29T08:08:14.309Z</time></trkpt><trkpt lat="43.9827883" lon="11.1294817"><ele>163.0</ele><time>2026-03-29T08:08:15.309Z</time></trkpt><trkpt lat="43.9828467" lon="11.1295383"><ele>163.0</ele><time>2026-03-29T08:08:16.31Z</time></trkpt><trkpt lat="43.982905" lon="11.1295983"><ele>163.0</ele><time>2026-03-29T08:08:17.31Z</time></trkpt><trkpt lat="43.9829633" lon="11.1296583"><ele>163.0</ele><time>2026-03-29T08:08:18.309Z</time></trkpt><trkpt lat="43.98302" lon="11.1297183"><ele>163.0</ele><time>2026-03-29T08:08:19.31Z</time></trkpt><trkpt lat="43.98308" lon="11.1297783"><ele>163.0</ele><time>2026-03-29T08:08:20.308Z</time></trkpt><trkpt lat="43.98314" lon="11.12984"><ele>163.0</ele><time>2026-03-29T08:08:21.309Z</time></trkpt><trkpt lat="43.9831983" lon="11.1299017"><ele>163.0</ele><time>2026-03-29T08:08:22.309Z</time></trkpt><trkpt lat="43.9832567" lon="11.129965"><ele>163.0</ele><time>2026-03-29T08:08:23.309Z</time></trkpt><trkpt lat="43.983315" lon="11.1300233"><ele>163.0</ele><time>2026-03-29T08:08:24.31Z</time></trkpt><trkpt lat="43.9833767" lon="11.130085"><ele>163.0</ele><time>2026-03-29T08:08:25.309Z</time></trkpt><trkpt lat="43.9834367" lon="11.130145"><ele>163.0</ele><time>2026-03-29T08:08:26.31Z</time></trkpt><trkpt lat="43.983495" lon="11.1302067"><ele>163.0</ele><time>2026-03-29T08:08:27.312Z</time></trkpt><trkpt lat="43.9835533" lon="11.13027"><ele>163.0</ele><time>2026-03-29T08:08:28.309Z</time></trkpt><trkpt lat="43.983615" lon="11.1303333"><ele>163.0</ele><time>2026-03-29T08:08:29.31Z</time></trkpt><trkpt lat="43.983675" lon="11.1303983"><ele>163.2857142857143</ele><time>2026-03-29T08:08:30.31Z</time></trkpt><trkpt lat="43.983735" lon="11.1304617"><ele>163.57142857142856</ele><time>2026-03-29T08:08:31.308Z</time></trkpt><trkpt lat="43.9837933" lon="11.1305267"><ele>163.85714285714286</ele><time>2026-03-29T08:08:32.309Z</time></trkpt><trkpt lat="43.983855" lon="11.1305867"><ele>164.14285714285717</ele><time>2026-03-29T08:08:33.31Z</time></trkpt><trkpt lat="43.98392" lon="11.13064"><ele>164.42857142857144</ele><time>2026-03-29T08:08:34.308Z</time></trkpt><trkpt lat="43.983985" lon="11.1306883"><ele>164.71428571428572</ele><time>2026-03-29T08:08:35.311Z</time></trkpt><trkpt lat="43.98405" lon="11.13073"><ele>165.0</ele><time>2026-03-29T08:08:36.31Z</time></trkpt><trkpt lat="43.984115" lon="11.130765"><ele>165.85714285714286</ele><time>2026-03-29T08:08:37.308Z</time></trkpt><trkpt lat="43.9841817" lon="11.1307933"><ele>166.71428571428572</ele><time>2026-03-29T08:08:38.311Z</time></trkpt><trkpt lat="43.9842517" lon="11.1308133"><ele>167.57142857142856</ele><time>2026-03-29T08:08:39.309Z</time></trkpt><trkpt lat="43.9843217" lon="11.1308317"><ele>168.42857142857144</ele><time>2026-03-29T08:08:40.309Z</time></trkpt><trkpt lat="43.9843917" lon="11.1308383"><ele>169.28571428571428</ele><time>2026-03-29T08:08:41.31Z</time></trkpt><trkpt lat="43.9844583" lon="11.1308467"><ele>170.14285714285714</ele><time>2026-03-29T08:08:42.309Z</time></trkpt><trkpt lat="43.9845217" lon="11.1308467"><ele>171.0</ele><time>2026-03-29T08:08:43.309Z</time></trkpt><trkpt lat="43.98459" lon="11.1308367"><ele>171.0</ele><time>2026-03-29T08:08:44.314Z</time></trkpt><trkpt lat="43.9846567" lon="11.1308217"><ele>171.0</ele><time>2026-03-29T08:08:45.309Z</time></trkpt><trkpt lat="43.98472" lon="11.1308083"><ele>171.0</ele><time>2026-03-29T08:08:46.309Z</time></trkpt><trkpt lat="43.9847833" lon="11.1307933"><ele>171.0</ele><time>2026-03-29T08:08:47.311Z</time></trkpt><trkpt lat="43.9849083" lon="11.13076"><ele>171.0</ele><time>2026-03-29T08:08:49.313Z</time></trkpt><trkpt lat="43.985025" lon="11.1307117"><ele>171.0</ele><time>2026-03-29T08:08:51.309Z</time></trkpt><trkpt lat="43.9851417" lon="11.1306583"><ele>174.75</ele><time>2026-03-29T08:08:53.309Z</time></trkpt><trkpt lat="43.9852533" lon="11.1306"><ele>178.5</ele><time>2026-03-29T08:08:55.31Z</time></trkpt><trkpt lat="43.985365" lon="11.13055"><ele>182.25</ele><time>2026-03-29T08:08:57.309Z</time></trkpt><trkpt lat="43.9854717" lon="11.1305017"><ele>186.0</ele><time>2026-03-29T08:08:59.31Z</time></trkpt><trkpt lat="43.9855767" lon="11.1304583"><ele>186.0</ele><time>2026-03-29T08:09:01.312Z</time></trkpt><trkpt lat="43.98568" lon="11.1304067"><ele>186.0</ele><time>2026-03-29T08:09:03.312Z</time></trkpt><trkpt lat="43.985785" lon="11.1303583"><ele>186.0</ele><time>2026-03-29T08:09:05.309Z</time></trkpt><trkpt lat="43.9858933" lon="11.1303217"><ele>186.0</ele><time>2026-03-29T08:09:07.309Z</time></trkpt><trkpt lat="43.9859933" lon="11.1302867"><ele>186.0</ele><time>2026-03-29T08:09:09.309Z</time></trkpt><trkpt lat="43.9861033" lon="11.1302783"><ele>186.4</ele><time>2026-03-29T08:09:11.311Z</time></trkpt><trkpt lat="43.9862017" lon="11.1303033"><ele>186.8</ele><time>2026-03-29T08:09:13.311Z</time></trkpt><trkpt lat="43.9862817" lon="11.1303817"><ele>187.20000000000002</ele><time>2026-03-29T08:09:15.309Z</time></trkpt><trkpt lat="43.9863533" lon="11.1304967"><ele>187.60000000000002</ele><time>2026-03-29T08:09:17.312Z</time></trkpt><trkpt lat="43.986425" lon="11.1306267"><ele>188.0</ele><time>2026-03-29T08:09:19.309Z</time></trkpt><trkpt lat="43.9865" lon="11.1307583"><ele>187.28571428571428</ele><time>2026-03-29T08:09:21.312Z</time></trkpt><trkpt lat="43.9865767" lon="11.1308867"><ele>186.57142857142856</ele><time>2026-03-29T08:09:23.311Z</time></trkpt><trkpt lat="43.9866233" lon="11.1309483"><ele>185.85714285714286</ele><time>2026-03-29T08:09:24.314Z</time></trkpt><trkpt lat="43.9866733" lon="11.131005"><ele>185.14285714285714</ele><time>2026-03-29T08:09:25.31Z</time></trkpt><trkpt lat="43.9867283" lon="11.131055"><ele>184.42857142857144</ele><time>2026-03-29T08:09:26.312Z</time></trkpt><trkpt lat="43.9867817" lon="11.1311067"><ele>183.71428571428572</ele><time>2026-03-29T08:09:27.31Z</time></trkpt><trkpt lat="43.9868367" lon="11.1311583"><ele>183.0</ele><time>2026-03-29T08:09:28.309Z</time></trkpt><trkpt lat="43.9868933" lon="11.1312083"><ele>183.42857142857144</ele><time>2026-03-29T08:09:29.309Z</time></trkpt><trkpt lat="43.98695" lon="11.1312617"><ele>183.85714285714286</ele><time>2026-03-29T08:09:30.309Z</time></trkpt><trkpt lat="43.9870083" lon="11.1313133"><ele>184.28571428571428</ele><time>2026-03-29T08:09:31.31Z</time></trkpt><trkpt lat="43.9870683" lon="11.1313617"><ele>184.71428571428572</ele><time>2026-03-29T08:09:32.309Z</time></trkpt><trkpt lat="43.9871267" lon="11.131415"><ele>185.14285714285714</ele><time>2026-03-29T08:09:33.307Z</time></trkpt><trkpt lat="43.987185" lon="11.1314717"><ele>185.57142857142858</ele><time>2026-03-29T08:09:34.311Z</time></trkpt><trkpt lat="43.987245" lon="11.131535"><ele>186.0</ele><time>2026-03-29T08:09:35.312Z</time></trkpt><trkpt lat="43.9873067" lon="11.1315883"><ele>186.0</ele><time>2026-03-29T08:09:36.31Z</time></trkpt><trkpt lat="43.987365" lon="11.1316533"><ele>186.0</ele><time>2026-03-29T08:09:37.31Z</time></trkpt><trkpt lat="43.98742" lon="11.1317233"><ele>186.0</ele><time>2026-03-29T08:09:38.309Z</time></trkpt><trkpt lat="43.987475" lon="11.1317917"><ele>186.0</ele><time>2026-03-29T08:09:39.308Z</time></trkpt><trkpt lat="43.98753" lon="11.1318617"><ele>186.0</ele><time>2026-03-29T08:09:40.31Z</time></trkpt><trkpt lat="43.9875867" lon="11.1319367"><ele>186.0</ele><time>2026-03-29T08:09:41.31Z</time></trkpt><trkpt lat="43.9876417" lon="11.1320117"><ele>188.14285714285717</ele><time>2026-03-29T08:09:42.31Z</time></trkpt><trkpt lat="43.9876933" lon="11.1320917"><ele>190.28571428571428</ele><time>2026-03-29T08:09:43.31Z</time></trkpt><trkpt lat="43.9877433" lon="11.13217"><ele>192.42857142857144</ele><time>2026-03-29T08:09:44.309Z</time></trkpt><trkpt lat="43.98779" lon="11.1322467"><ele>194.57142857142858</ele><time>2026-03-29T08:09:45.312Z</time></trkpt><trkpt lat="43.9878333" lon="11.1323267"><ele>196.71428571428572</ele><time>2026-03-29T08:09:46.308Z</time></trkpt><trkpt lat="43.987875" lon="11.1324083"><ele>198.85714285714286</ele><time>2026-03-29T08:09:47.313Z</time></trkpt><trkpt lat="43.987915" lon="11.1324917"><ele>201.0</ele><time>2026-03-29T08:09:48.309Z</time></trkpt><trkpt lat="43.987955" lon="11.1325767"><ele>201.0</ele><time>2026-03-29T08:09:49.309Z</time></trkpt><trkpt lat="43.9879917" lon="11.132665"><ele>201.0</ele><time>2026-03-29T08:09:50.309Z</time></trkpt><trkpt lat="43.9880267" lon="11.132755"><ele>201.0</ele><time>2026-03-29T08:09:51.308Z</time></trkpt><trkpt lat="43.9880567" lon="11.1328483"><ele>201.0</ele><time>2026-03-29T08:09:52.308Z</time></trkpt><trkpt lat="43.988085" lon="11.1329467"><ele>201.0</ele><time>2026-03-29T08:09:53.308Z</time></trkpt><trkpt lat="43.98811" lon="11.1330517"><ele>201.0</ele><time>2026-03-29T08:09:54.312Z</time></trkpt><trkpt lat="43.9881317" lon="11.133155"><ele>198.66666666666666</ele><time>2026-03-29T08:09:55.312Z</time></trkpt><trkpt lat="43.9881533" lon="11.13326"><ele>196.33333333333334</ele><time>2026-03-29T08:09:56.31Z</time></trkpt><trkpt lat="43.9881733" lon="11.13337"><ele>194.0</ele><time>2026-03-29T08:09:57.31Z</time></trkpt><trkpt lat="43.988195" lon="11.13348"><ele>191.66666666666669</ele><time>2026-03-29T08:09:58.309Z</time></trkpt><trkpt lat="43.9882183" lon="11.13359"><ele>189.33333333333334</ele><time>2026-03-29T08:09:59.309Z</time></trkpt><trkpt lat="43.9882383" lon="11.1337017"><ele>187.0</ele><time>2026-03-29T08:10:00.309Z</time></trkpt><trkpt lat="43.9882567" lon="11.133815"><ele>187.0</ele><time>2026-03-29T08:10:01.31Z</time></trkpt><trkpt lat="43.9882767" lon="11.1339267"><ele>187.0</ele><time>2026-03-29T08:10:02.31Z</time></trkpt><trkpt lat="43.9882967" lon="11.1340333"><ele>187.0</ele><time>2026-03-29T08:10:03.31Z</time></trkpt><trkpt lat="43.988315" lon="11.1341433"><ele>187.0</ele><time>2026-03-29T08:10:04.31Z</time></trkpt><trkpt lat="43.988335" lon="11.13425"><ele>187.0</ele><time>2026-03-29T08:10:05.309Z</time></trkpt><trkpt lat="43.9883517" lon="11.1343583"><ele>187.0</ele><time>2026-03-29T08:10:06.307Z</time></trkpt><trkpt lat="43.9883583" lon="11.1344667"><ele>186.0</ele><time>2026-03-29T08:10:07.308Z</time></trkpt><trkpt lat="43.9883483" lon="11.134575"><ele>185.0</ele><time>2026-03-29T08:10:08.308Z</time></trkpt><trkpt lat="43.9883083" lon="11.1346683"><ele>184.0</ele><time>2026-03-29T08:10:09.308Z</time></trkpt><trkpt lat="43.9882667" lon="11.134755"><ele>183.0</ele><time>2026-03-29T08:10:10.308Z</time></trkpt><trkpt lat="43.988235" lon="11.1348383"><ele>182.0</ele><time>2026-03-29T08:10:11.308Z</time></trkpt><trkpt lat="43.98824" lon="11.1350033"><ele>181.0</ele><time>2026-03-29T08:10:13.308Z</time></trkpt><trkpt lat="43.9882733" lon="11.1350817"><ele>180.5</ele><time>2026-03-29T08:10:14.307Z</time></trkpt><trkpt lat="43.988335" lon="11.1351417"><ele>180.0</ele><time>2026-03-29T08:10:15.308Z</time></trkpt><trkpt lat="43.98838" lon="11.1352217"><ele>179.5</ele><time>2026-03-29T08:10:16.307Z</time></trkpt><trkpt lat="43.9884117" lon="11.1353233"><ele>179.0</ele><time>2026-03-29T08:10:17.31Z</time></trkpt><trkpt lat="43.98843" lon="11.1354317"><ele>178.5</ele><time>2026-03-29T08:10:18.311Z</time></trkpt><trkpt lat="43.9884467" lon="11.1355433"><ele>178.0</ele><time>2026-03-29T08:10:19.309Z</time></trkpt><trkpt lat="43.9884767" lon="11.1356567"><ele>180.16666666666669</ele><time>2026-03-29T08:10:20.312Z</time></trkpt><trkpt lat="43.9885117" lon="11.1357633"><ele>182.33333333333334</ele><time>2026-03-29T08:10:21.31Z</time></trkpt><trkpt lat="43.98855" lon="11.13587"><ele>184.5</ele><time>2026-03-29T08:10:22.31Z</time></trkpt><trkpt lat="43.98859" lon="11.1359717"><ele>186.66666666666666</ele><time>2026-03-29T08:10:23.31Z</time></trkpt><trkpt lat="43.98864" lon="11.1360633"><ele>188.83333333333331</ele><time>2026-03-29T08:10:24.31Z</time></trkpt><trkpt lat="43.9886917" lon="11.13615"><ele>191.0</ele><time>2026-03-29T08:10:25.31Z</time></trkpt><trkpt lat="43.9887467" lon="11.1362317"><ele>191.0</ele><time>2026-03-29T08:10:26.309Z</time></trkpt><trkpt lat="43.988805" lon="11.136305"><ele>191.0</ele><time>2026-03-29T08:10:27.311Z</time></trkpt><trkpt lat="43.9888667" lon="11.13637"><ele>191.0</ele><time>2026-03-29T08:10:28.309Z</time></trkpt><trkpt lat="43.9889317" lon="11.1364267"><ele>191.0</ele><time>2026-03-29T08:10:29.311Z</time></trkpt><trkpt lat="43.9889983" lon="11.136475"><ele>191.0</ele><time>2026-03-29T08:10:30.309Z</time></trkpt><trkpt lat="43.9890667" lon="11.1365233"><ele>191.0</ele><time>2026-03-29T08:10:31.309Z</time></trkpt><trkpt lat="43.9891417" lon="11.1365633"><ele>190.16666666666666</ele><time>2026-03-29T08:10:32.309Z</time></trkpt><trkpt lat="43.98922" lon="11.1365967"><ele>189.33333333333331</ele><time>2026-03-29T08:10:33.309Z</time></trkpt><trkpt lat="43.9893" lon="11.1366233"><ele>188.5</ele><time>2026-03-29T08:10:34.309Z</time></trkpt><trkpt lat="43.9893867" lon="11.1366433"><ele>187.66666666666666</ele><time>2026-03-29T08:10:35.31Z</time></trkpt><trkpt lat="43.9894767" lon="11.1366583"><ele>186.83333333333334</ele><time>2026-03-29T08:10:36.311Z</time></trkpt><trkpt lat="43.9895667" lon="11.1366733"><ele>186.0</ele><time>2026-03-29T08:10:37.309Z</time></trkpt><trkpt lat="43.9896567" lon="11.13669"><ele>186.0</ele><time>2026-03-29T08:10:38.307Z</time></trkpt><trkpt lat="43.9897483" lon="11.1367033"><ele>186.0</ele><time>2026-03-29T08:10:39.308Z</time></trkpt><trkpt lat="43.989845" lon="11.1367117"><ele>186.0</ele><time>2026-03-29T08:10:40.31Z</time></trkpt><trkpt lat="43.9899383" lon="11.13673"><ele>186.0</ele><time>2026-03-29T08:10:41.311Z</time></trkpt><trkpt lat="43.9900267" lon="11.1367517"><ele>186.0</ele><time>2026-03-29T08:10:42.309Z</time></trkpt><trkpt lat="43.9901117" lon="11.1367733"><ele>187.16666666666666</ele><time>2026-03-29T08:10:43.311Z</time></trkpt><trkpt lat="43.990195" lon="11.136795"><ele>188.33333333333331</ele><time>2026-03-29T08:10:44.309Z</time></trkpt><trkpt lat="43.99027" lon="11.13682"><ele>189.5</ele><time>2026-03-29T08:10:45.309Z</time></trkpt><trkpt lat="43.990345" lon="11.136845"><ele>190.66666666666666</ele><time>2026-03-29T08:10:46.311Z</time></trkpt><trkpt lat="43.9904183" lon="11.136875"><ele>191.83333333333331</ele><time>2026-03-29T08:10:47.311Z</time></trkpt><trkpt lat="43.9904933" lon="11.1369017"><ele>193.0</ele><time>2026-03-29T08:10:48.309Z</time></trkpt><trkpt lat="43.9905667" lon="11.1369333"><ele>192.99999999999997</ele><time>2026-03-29T08:10:49.311Z</time></trkpt><trkpt lat="43.9906433" lon="11.1369633"><ele>193.0</ele><time>2026-03-29T08:10:50.309Z</time></trkpt><trkpt lat="43.9907183" lon="11.1369983"><ele>193.0</ele><time>2026-03-29T08:10:51.312Z</time></trkpt><trkpt lat="43.990795" lon="11.1370317"><ele>193.0</ele><time>2026-03-29T08:10:52.311Z</time></trkpt><trkpt lat="43.9908733" lon="11.1370667"><ele>192.99999999999997</ele><time>2026-03-29T08:10:53.308Z</time></trkpt><trkpt lat="43.9909533" lon="11.1371017"><ele>193.0</ele><time>2026-03-29T08:10:54.311Z</time></trkpt><trkpt lat="43.9910333" lon="11.1371383"><ele>196.83333333333331</ele><time>2026-03-29T08:10:55.31Z</time></trkpt><trkpt lat="43.9911117" lon="11.1371733"><ele>200.66666666666666</ele><time>2026-03-29T08:10:56.309Z</time></trkpt><trkpt lat="43.9911883" lon="11.1372067"><ele>204.5</ele><time>2026-03-29T08:10:57.31Z</time></trkpt><trkpt lat="43.9912667" lon="11.1372383"><ele>208.33333333333331</ele><time>2026-03-29T08:10:58.309Z</time></trkpt><trkpt lat="43.9913433" lon="11.13727"><ele>212.16666666666666</ele><time>2026-03-29T08:10:59.31Z</time></trkpt><trkpt lat="43.9914233" lon="11.1373017"><ele>216.0</ele><time>2026-03-29T08:11:00.311Z</time></trkpt><trkpt lat="43.991505" lon="11.1373333"><ele>216.0</ele><time>2026-03-29T08:11:01.31Z</time></trkpt><trkpt lat="43.9915817" lon="11.1373667"><ele>216.0</ele><time>2026-03-29T08:11:02.311Z</time></trkpt><trkpt lat="43.9916617" lon="11.1373967"><ele>216.0</ele><time>2026-03-29T08:11:03.31Z</time></trkpt><trkpt lat="43.9917417" lon="11.1374183"><ele>216.0</ele><time>2026-03-29T08:11:04.311Z</time></trkpt><trkpt lat="43.991825" lon="11.1374333"><ele>216.0</ele><time>2026-03-29T08:11:05.31Z</time></trkpt><trkpt lat="43.9919083" lon="11.13744"><ele>216.0</ele><time>2026-03-29T08:11:06.309Z</time></trkpt><trkpt lat="43.9919917" lon="11.137445"><ele>214.5</ele><time>2026-03-29T08:11:07.31Z</time></trkpt><trkpt lat="43.9920767" lon="11.1374467"><ele>213.0</ele><time>2026-03-29T08:11:08.31Z</time></trkpt><trkpt lat="43.9921633" lon="11.13745"><ele>211.5</ele><time>2026-03-29T08:11:09.309Z</time></trkpt><trkpt lat="43.99225" lon="11.1374517"><ele>210.0</ele><time>2026-03-29T08:11:10.309Z</time></trkpt><trkpt lat="43.992335" lon="11.1374583"><ele>208.5</ele><time>2026-03-29T08:11:11.311Z</time></trkpt><trkpt lat="43.9924233" lon="11.13746"><ele>207.0</ele><time>2026-03-29T08:11:12.31Z</time></trkpt><trkpt lat="43.9925133" lon="11.1374583"><ele>207.0</ele><time>2026-03-29T08:11:13.309Z</time></trkpt><trkpt lat="43.9926017" lon="11.1374633"><ele>207.0</ele><time>2026-03-29T08:11:14.311Z</time></trkpt><trkpt lat="43.9926867" lon="11.13747"><ele>207.0</ele><time>2026-03-29T08:11:15.31Z</time></trkpt><trkpt lat="43.99277" lon="11.1374783"><ele>207.0</ele><time>2026-03-29T08:11:16.309Z</time></trkpt><trkpt lat="43.992855" lon="11.1374883"><ele>207.0</ele><time>2026-03-29T08:11:17.31Z</time></trkpt><trkpt lat="43.9929367" lon="11.13751"><ele>207.0</ele><time>2026-03-29T08:11:18.308Z</time></trkpt><trkpt lat="43.9930183" lon="11.1375333"><ele>207.0</ele><time>2026-03-29T08:11:19.31Z</time></trkpt><trkpt lat="43.9931" lon="11.1375583"><ele>207.0</ele><time>2026-03-29T08:11:20.31Z</time></trkpt><trkpt lat="43.99318" lon="11.137585"><ele>207.0</ele><time>2026-03-29T08:11:21.31Z</time></trkpt><trkpt lat="43.99326" lon="11.137615"><ele>207.0</ele><time>2026-03-29T08:11:22.31Z</time></trkpt><trkpt lat="43.99333" lon="11.1376617"><ele>207.0</ele><time>2026-03-29T08:11:23.309Z</time></trkpt><trkpt lat="43.9934083" lon="11.1376933"><ele>207.0</ele><time>2026-03-29T08:11:24.31Z</time></trkpt><trkpt lat="43.9934867" lon="11.1377267"><ele>209.5</ele><time>2026-03-29T08:11:25.309Z</time></trkpt><trkpt lat="43.993565" lon="11.1377617"><ele>212.0</ele><time>2026-03-29T08:11:26.309Z</time></trkpt><trkpt lat="43.99364" lon="11.1378017"><ele>214.5</ele><time>2026-03-29T08:11:27.311Z</time></trkpt><trkpt lat="43.9937167" lon="11.1378433"><ele>217.0</ele><time>2026-03-29T08:11:28.309Z</time></trkpt><trkpt lat="43.993795" lon="11.1378817"><ele>219.5</ele><time>2026-03-29T08:11:29.31Z</time></trkpt><trkpt lat="43.9938717" lon="11.1379183"><ele>222.0</ele><time>2026-03-29T08:11:30.31Z</time></trkpt><trkpt lat="43.9939433" lon="11.1379617"><ele>222.0</ele><time>2026-03-29T08:11:31.308Z</time></trkpt><trkpt lat="43.9940167" lon="11.1380067"><ele>222.0</ele><time>2026-03-29T08:11:32.31Z</time></trkpt><trkpt lat="43.99409" lon="11.138055"><ele>222.0</ele><time>2026-03-29T08:11:33.31Z</time></trkpt><trkpt lat="43.994165" lon="11.138095"><ele>222.0</ele><time>2026-03-29T08:11:34.309Z</time></trkpt><trkpt lat="43.99424" lon="11.1381333"><ele>222.0</ele><time>2026-03-29T08:11:35.31Z</time></trkpt><trkpt lat="43.9943117" lon="11.13817"><ele>222.0</ele><time>2026-03-29T08:11:36.312Z</time></trkpt><trkpt lat="43.9943817" lon="11.1382083"><ele>217.16666666666666</ele><time>2026-03-29T08:11:37.312Z</time></trkpt><trkpt lat="43.9944533" lon="11.1382483"><ele>212.33333333333331</ele><time>2026-03-29T08:11:38.316Z</time></trkpt><trkpt lat="43.99452" lon="11.138295"><ele>207.5</ele><time>2026-03-29T08:11:39.308Z</time></trkpt><trkpt lat="43.99459" lon="11.13834"><ele>202.66666666666666</ele><time>2026-03-29T08:11:40.308Z</time></trkpt><trkpt lat="43.994655" lon="11.1383867"><ele>197.83333333333331</ele><time>2026-03-29T08:11:41.309Z</time></trkpt><trkpt lat="43.9947217" lon="11.1384317"><ele>193.0</ele><time>2026-03-29T08:11:42.31Z</time></trkpt><trkpt lat="43.9947917" lon="11.1384817"><ele>192.99999999999997</ele><time>2026-03-29T08:11:43.31Z</time></trkpt><trkpt lat="43.9948583" lon="11.1385317"><ele>193.0</ele><time>2026-03-29T08:11:44.31Z</time></trkpt><trkpt lat="43.994925" lon="11.138585"><ele>193.0</ele><time>2026-03-29T08:11:45.31Z</time></trkpt><trkpt lat="43.9949967" lon="11.1386333"><ele>193.0</ele><time>2026-03-29T08:11:46.308Z</time></trkpt><trkpt lat="43.9950683" lon="11.1386833"><ele>192.99999999999997</ele><time>2026-03-29T08:11:47.31Z</time></trkpt><trkpt lat="43.9951417" lon="11.1387283"><ele>193.0</ele><time>2026-03-29T08:11:48.31Z</time></trkpt><trkpt lat="43.995215" lon="11.1387683"><ele>194.33333333333331</ele><time>2026-03-29T08:11:49.31Z</time></trkpt><trkpt lat="43.9952883" lon="11.1388083"><ele>195.66666666666666</ele><time>2026-03-29T08:11:50.311Z</time></trkpt><trkpt lat="43.9953617" lon="11.13885"><ele>197.0</ele><time>2026-03-29T08:11:51.311Z</time></trkpt><trkpt lat="43.9954333" lon="11.1388883"><ele>198.33333333333331</ele><time>2026-03-29T08:11:52.31Z</time></trkpt><trkpt lat="43.9955067" lon="11.1389217"><ele>199.66666666666666</ele><time>2026-03-29T08:11:53.309Z</time></trkpt><trkpt lat="43.9955783" lon="11.1389567"><ele>201.0</ele><time>2026-03-29T08:11:54.312Z</time></trkpt><trkpt lat="43.9956483" lon="11.1389883"><ele>201.0</ele><time>2026-03-29T08:11:55.31Z</time></trkpt><trkpt lat="43.9957167" lon="11.1390183"><ele>201.0</ele><time>2026-03-29T08:11:56.31Z</time></trkpt><trkpt lat="43.9957783" lon="11.13905"><ele>201.0</ele><time>2026-03-29T08:11:57.309Z</time></trkpt><trkpt lat="43.9958417" lon="11.139085"><ele>201.0</ele><time>2026-03-29T08:11:58.31Z</time></trkpt><trkpt lat="43.995905" lon="11.1391133"><ele>201.0</ele><time>2026-03-29T08:11:59.31Z</time></trkpt><trkpt lat="43.9959717" lon="11.1391433"><ele>201.0</ele><time>2026-03-29T08:12:00.31Z</time></trkpt><trkpt lat="43.996035" lon="11.1391733"><ele>201.0</ele><time>2026-03-29T08:12:01.309Z</time></trkpt><trkpt lat="43.9961017" lon="11.1391983"><ele>199.42857142857142</ele><time>2026-03-29T08:12:02.311Z</time></trkpt><trkpt lat="43.9961633" lon="11.1392233"><ele>197.85714285714286</ele><time>2026-03-29T08:12:03.309Z</time></trkpt><trkpt lat="43.9962267" lon="11.13925"><ele>196.28571428571428</ele><time>2026-03-29T08:12:04.31Z</time></trkpt><trkpt lat="43.99629" lon="11.1392783"><ele>194.71428571428572</ele><time>2026-03-29T08:12:05.309Z</time></trkpt><trkpt lat="43.9963517" lon="11.1393083"><ele>193.14285714285717</ele><time>2026-03-29T08:12:06.311Z</time></trkpt><trkpt lat="43.9964133" lon="11.1393383"><ele>191.57142857142858</ele><time>2026-03-29T08:12:07.31Z</time></trkpt><trkpt lat="43.996475" lon="11.1393683"><ele>190.0</ele><time>2026-03-29T08:12:08.31Z</time></trkpt><trkpt lat="43.9965367" lon="11.1393983"><ele>190.0</ele><time>2026-03-29T08:12:09.309Z</time></trkpt><trkpt lat="43.9965967" lon="11.139425"><ele>190.0</ele><time>2026-03-29T08:12:10.309Z</time></trkpt><trkpt lat="43.9967133" lon="11.1394783"><ele>190.0</ele><time>2026-03-29T08:12:12.31Z</time></trkpt><trkpt lat="43.9967767" lon="11.1395033"><ele>190.0</ele><time>2026-03-29T08:12:13.312Z</time></trkpt><trkpt lat="43.99684" lon="11.1395317"><ele>190.0</ele><time>2026-03-29T08:12:14.31Z</time></trkpt><trkpt lat="43.9969533" lon="11.13959"><ele>190.0</ele><time>2026-03-29T08:12:16.312Z</time></trkpt><trkpt lat="43.997015" lon="11.139615"><ele>191.6</ele><time>2026-03-29T08:12:17.31Z</time></trkpt><trkpt lat="43.997075" lon="11.139645"><ele>193.2</ele><time>2026-03-29T08:12:18.309Z</time></trkpt><trkpt lat="43.9971867" lon="11.1397033"><ele>194.8</ele><time>2026-03-29T08:12:20.312Z</time></trkpt><trkpt lat="43.9973" lon="11.1397683"><ele>196.4</ele><time>2026-03-29T08:12:22.308Z</time></trkpt><trkpt lat="43.99736" lon="11.1397967"><ele>198.0</ele><time>2026-03-29T08:12:23.309Z</time></trkpt><trkpt lat="43.997475" lon="11.1398567"><ele>198.2</ele><time>2026-03-29T08:12:25.31Z</time></trkpt><trkpt lat="43.9975333" lon="11.13989"><ele>198.4</ele><time>2026-03-29T08:12:26.309Z</time></trkpt><trkpt lat="43.9976483" lon="11.1399567"><ele>198.6</ele><time>2026-03-29T08:12:28.309Z</time></trkpt><trkpt lat="43.9977633" lon="11.14001"><ele>198.79999999999998</ele><time>2026-03-29T08:12:30.31Z</time></trkpt><trkpt lat="43.997875" lon="11.1400717"><ele>199.0</ele><time>2026-03-29T08:12:32.309Z</time></trkpt><trkpt lat="43.997985" lon="11.1401283"><ele>199.0</ele><time>2026-03-29T08:12:34.31Z</time></trkpt><trkpt lat="43.998095" lon="11.140185"><ele>199.0</ele><time>2026-03-29T08:12:36.309Z</time></trkpt><trkpt lat="43.9982017" lon="11.1402433"><ele>199.0</ele><time>2026-03-29T08:12:38.31Z</time></trkpt><trkpt lat="43.9982967" lon="11.14032"><ele>199.0</ele><time>2026-03-29T08:12:40.309Z</time></trkpt><trkpt lat="43.998395" lon="11.1404033"><ele>198.2</ele><time>2026-03-29T08:12:42.311Z</time></trkpt><trkpt lat="43.9984467" lon="11.1404567"><ele>197.39999999999998</ele><time>2026-03-29T08:12:43.309Z</time></trkpt><trkpt lat="43.9985433" lon="11.1405483"><ele>196.6</ele><time>2026-03-29T08:12:45.308Z</time></trkpt><trkpt lat="43.9986417" lon="11.1406567"><ele>195.8</ele><time>2026-03-29T08:12:47.31Z</time></trkpt><trkpt lat="43.9987467" lon="11.14076"><ele>195.0</ele><time>2026-03-29T08:12:49.309Z</time></trkpt><trkpt lat="43.9988017" lon="11.140815"><ele>195.0</ele><time>2026-03-29T08:12:50.31Z</time></trkpt><trkpt lat="43.9988567" lon="11.1408683"><ele>195.0</ele><time>2026-03-29T08:12:51.309Z</time></trkpt><trkpt lat="43.9989217" lon="11.14091"><ele>195.0</ele><time>2026-03-29T08:12:52.31Z</time></trkpt><trkpt lat="43.9989967" lon="11.1409417"><ele>195.0</ele><time>2026-03-29T08:12:53.31Z</time></trkpt><trkpt lat="43.9990717" lon="11.1409617"><ele>195.0</ele><time>2026-03-29T08:12:54.31Z</time></trkpt><trkpt lat="43.999145" lon="11.1409683"><ele>195.0</ele><time>2026-03-29T08:12:55.31Z</time></trkpt><trkpt lat="43.99922" lon="11.1409667"><ele>195.0</ele><time>2026-03-29T08:12:56.309Z</time></trkpt><trkpt lat="43.9993" lon="11.140965"><ele>194.66666666666666</ele><time>2026-03-29T08:12:57.31Z</time></trkpt><trkpt lat="43.999375" lon="11.1409583"><ele>194.33333333333331</ele><time>2026-03-29T08:12:58.308Z</time></trkpt><trkpt lat="43.9994517" lon="11.140945"><ele>194.0</ele><time>2026-03-29T08:12:59.31Z</time></trkpt><trkpt lat="43.99953" lon="11.1409317"><ele>193.66666666666666</ele><time>2026-03-29T08:13:00.309Z</time></trkpt><trkpt lat="43.99961" lon="11.14092"><ele>193.33333333333331</ele><time>2026-03-29T08:13:01.309Z</time></trkpt><trkpt lat="43.9996917" lon="11.1409083"><ele>193.0</ele><time>2026-03-29T08:13:02.311Z</time></trkpt><trkpt lat="43.999775" lon="11.1408967"><ele>192.99999999999997</ele><time>2026-03-29T08:13:03.31Z</time></trkpt><trkpt lat="43.99986" lon="11.140885"><ele>193.0</ele><time>2026-03-29T08:13:04.31Z</time></trkpt><trkpt lat="43.9999433" lon="11.1408717"><ele>193.0</ele><time>2026-03-29T08:13:05.311Z</time></trkpt><trkpt lat="44.000025" lon="11.1408533"><ele>193.0</ele><time>2026-03-29T08:13:06.312Z</time></trkpt><trkpt lat="44.0001083" lon="11.14083"><ele>192.99999999999997</ele><time>2026-03-29T08:13:07.31Z</time></trkpt><trkpt lat="44.00019" lon="11.1408033"><ele>193.0</ele><time>2026-03-29T08:13:08.31Z</time></trkpt><trkpt lat="44.00027" lon="11.1407767"><ele>192.99999999999997</ele><time>2026-03-29T08:13:09.31Z</time></trkpt><trkpt lat="44.00035" lon="11.1407467"><ele>193.0</ele><time>2026-03-29T08:13:10.31Z</time></trkpt><trkpt lat="44.0004317" lon="11.1407167"><ele>193.0</ele><time>2026-03-29T08:13:11.309Z</time></trkpt><trkpt lat="44.0005117" lon="11.140685"><ele>193.0</ele><time>2026-03-29T08:13:12.311Z</time></trkpt><trkpt lat="44.000595" lon="11.1406567"><ele>192.99999999999997</ele><time>2026-03-29T08:13:13.312Z</time></trkpt><trkpt lat="44.0006733" lon="11.140625"><ele>193.0</ele><time>2026-03-29T08:13:14.31Z</time></trkpt><trkpt lat="44.0007483" lon="11.140595"><ele>194.83333333333331</ele><time>2026-03-29T08:13:15.31Z</time></trkpt><trkpt lat="44.00082" lon="11.1405583"><ele>196.66666666666666</ele><time>2026-03-29T08:13:16.309Z</time></trkpt><trkpt lat="44.0008883" lon="11.1405283"><ele>198.5</ele><time>2026-03-29T08:13:17.311Z</time></trkpt><trkpt lat="44.0009517" lon="11.1404933"><ele>200.33333333333331</ele><time>2026-03-29T08:13:18.309Z</time></trkpt><trkpt lat="44.0010583" lon="11.1404267"><ele>202.16666666666666</ele><time>2026-03-29T08:13:20.31Z</time></trkpt><trkpt lat="44.0011617" lon="11.1403683"><ele>204.0</ele><time>2026-03-29T08:13:22.31Z</time></trkpt><trkpt lat="44.0012733" lon="11.140315"><ele>204.0</ele><time>2026-03-29T08:13:24.309Z</time></trkpt><trkpt lat="44.0013317" lon="11.1402817"><ele>204.0</ele><time>2026-03-29T08:13:25.31Z</time></trkpt><trkpt lat="44.0014483" lon="11.1402267"><ele>204.0</ele><time>2026-03-29T08:13:27.31Z</time></trkpt><trkpt lat="44.0015717" lon="11.1401967"><ele>204.0</ele><time>2026-03-29T08:13:29.311Z</time></trkpt><trkpt lat="44.0016967" lon="11.1401683"><ele>204.0</ele><time>2026-03-29T08:13:31.308Z</time></trkpt><trkpt lat="44.00176" lon="11.14016"><ele>201.5</ele><time>2026-03-29T08:13:32.309Z</time></trkpt><trkpt lat="44.0018767" lon="11.140155"><ele>199.0</ele><time>2026-03-29T08:13:34.309Z</time></trkpt><trkpt lat="44.0019967" lon="11.140165"><ele>196.5</ele><time>2026-03-29T08:13:36.311Z</time></trkpt><trkpt lat="44.0021117" lon="11.1401733"><ele>194.0</ele><time>2026-03-29T08:13:38.31Z</time></trkpt><trkpt lat="44.002225" lon="11.1401817"><ele>194.0</ele><time>2026-03-29T08:13:40.309Z</time></trkpt><trkpt lat="44.0023317" lon="11.14019"><ele>194.0</ele><time>2026-03-29T08:13:42.31Z</time></trkpt><trkpt lat="44.00244" lon="11.1401933"><ele>194.0</ele><time>2026-03-29T08:13:44.312Z</time></trkpt><trkpt lat="44.0025433" lon="11.1402017"><ele>194.0</ele><time>2026-03-29T08:13:46.309Z</time></trkpt><trkpt lat="44.0026517" lon="11.1402083"><ele>194.0</ele><time>2026-03-29T08:13:48.31Z</time></trkpt><trkpt lat="44.002765" lon="11.1402117"><ele>193.79999999999998</ele><time>2026-03-29T08:13:50.312Z</time></trkpt><trkpt lat="44.002875" lon="11.1402267"><ele>193.6</ele><time>2026-03-29T08:13:52.311Z</time></trkpt><trkpt lat="44.0029833" lon="11.140225"><ele>193.4</ele><time>2026-03-29T08:13:54.312Z</time></trkpt><trkpt lat="44.0030933" lon="11.1402117"><ele>193.2</ele><time>2026-03-29T08:13:56.311Z</time></trkpt><trkpt lat="44.0032083" lon="11.14019"><ele>193.0</ele><time>2026-03-29T08:13:58.311Z</time></trkpt><trkpt lat="44.0033217" lon="11.1401567"><ele>195.0</ele><time>2026-03-29T08:14:00.31Z</time></trkpt><trkpt lat="44.0034333" lon="11.140115"><ele>197.0</ele><time>2026-03-29T08:14:02.31Z</time></trkpt><trkpt lat="44.003545" lon="11.140065"><ele>199.0</ele><time>2026-03-29T08:14:04.313Z</time></trkpt><trkpt lat="44.0036517" lon="11.1400083"><ele>201.0</ele><time>2026-03-29T08:14:06.31Z</time></trkpt><trkpt lat="44.0037667" lon="11.1399517"><ele>201.0</ele><time>2026-03-29T08:14:08.313Z</time></trkpt><trkpt lat="44.0038267" lon="11.13992"><ele>201.0</ele><time>2026-03-29T08:14:09.31Z</time></trkpt><trkpt lat="44.003885" lon="11.139885"><ele>201.0</ele><time>2026-03-29T08:14:10.311Z</time></trkpt><trkpt lat="44.0039467" lon="11.1398483"><ele>201.0</ele><time>2026-03-29T08:14:11.309Z</time></trkpt><trkpt lat="44.0040067" lon="11.1398133"><ele>201.0</ele><time>2026-03-29T08:14:12.311Z</time></trkpt><trkpt lat="44.0040667" lon="11.1397817"><ele>201.0</ele><time>2026-03-29T08:14:13.311Z</time></trkpt><trkpt lat="44.00413" lon="11.1397533"><ele>201.0</ele><time>2026-03-29T08:14:14.311Z</time></trkpt><trkpt lat="44.0041917" lon="11.1397217"><ele>205.4</ele><time>2026-03-29T08:14:15.31Z</time></trkpt><trkpt lat="44.0042517" lon="11.13969"><ele>209.8</ele><time>2026-03-29T08:14:16.311Z</time></trkpt><trkpt lat="44.0043717" lon="11.1396467"><ele>214.20000000000002</ele><time>2026-03-29T08:14:18.31Z</time></trkpt><trkpt lat="44.0044867" lon="11.13959"><ele>218.60000000000002</ele><time>2026-03-29T08:14:20.311Z</time></trkpt><trkpt lat="44.0045983" lon="11.1395233"><ele>223.0</ele><time>2026-03-29T08:14:22.313Z</time></trkpt><trkpt lat="44.0047083" lon="11.1394667"><ele>223.0</ele><time>2026-03-29T08:14:24.312Z</time></trkpt><trkpt lat="44.00482" lon="11.1394117"><ele>223.0</ele><time>2026-03-29T08:14:26.312Z</time></trkpt><trkpt lat="44.004935" lon="11.139375"><ele>223.0</ele><time>2026-03-29T08:14:28.31Z</time></trkpt><trkpt lat="44.00505" lon="11.1393617"><ele>223.0</ele><time>2026-03-29T08:14:30.309Z</time></trkpt><trkpt lat="44.005175" lon="11.1393733"><ele>221.0</ele><time>2026-03-29T08:14:32.312Z</time></trkpt><trkpt lat="44.0052383" lon="11.13939"><ele>219.0</ele><time>2026-03-29T08:14:33.311Z</time></trkpt><trkpt lat="44.0053017" lon="11.1394117"><ele>217.0</ele><time>2026-03-29T08:14:34.308Z</time></trkpt><trkpt lat="44.0053667" lon="11.1394317"><ele>215.0</ele><time>2026-03-29T08:14:35.309Z</time></trkpt><trkpt lat="44.00543" lon="11.139455"><ele>213.0</ele><time>2026-03-29T08:14:36.31Z</time></trkpt><trkpt lat="44.0054933" lon="11.1394767"><ele>211.0</ele><time>2026-03-29T08:14:37.308Z</time></trkpt><trkpt lat="44.0055567" lon="11.1395"><ele>209.0</ele><time>2026-03-29T08:14:38.311Z</time></trkpt><trkpt lat="44.0056217" lon="11.1395333"><ele>209.0</ele><time>2026-03-29T08:14:39.311Z</time></trkpt><trkpt lat="44.005685" lon="11.1395667"><ele>209.0</ele><time>2026-03-29T08:14:40.309Z</time></trkpt><trkpt lat="44.0057467" lon="11.1396017"><ele>209.0</ele><time>2026-03-29T08:14:41.31Z</time></trkpt><trkpt lat="44.0058067" lon="11.1396417"><ele>209.0</ele><time>2026-03-29T08:14:42.311Z</time></trkpt><trkpt lat="44.005865" lon="11.1396833"><ele>209.0</ele><time>2026-03-29T08:14:43.311Z</time></trkpt><trkpt lat="44.005925" lon="11.1397267"><ele>209.0</ele><time>2026-03-29T08:14:44.309Z</time></trkpt><trkpt lat="44.0059817" lon="11.1397733"><ele>209.0</ele><time>2026-03-29T08:14:45.311Z</time></trkpt><trkpt lat="44.006035" lon="11.1398267"><ele>207.33333333333334</ele><time>2026-03-29T08:14:46.31Z</time></trkpt><trkpt lat="44.0060833" lon="11.1398867"><ele>205.66666666666669</ele><time>2026-03-29T08:14:47.311Z</time></trkpt><trkpt lat="44.00613" lon="11.1399567"><ele>204.0</ele><time>2026-03-29T08:14:48.31Z</time></trkpt><trkpt lat="44.0061733" lon="11.1400267"><ele>202.33333333333331</ele><time>2026-03-29T08:14:49.31Z</time></trkpt><trkpt lat="44.0062167" lon="11.1400967"><ele>200.66666666666666</ele><time>2026-03-29T08:14:50.311Z</time></trkpt><trkpt lat="44.006255" lon="11.1401683"><ele>199.0</ele><time>2026-03-29T08:14:51.309Z</time></trkpt><trkpt lat="44.006325" lon="11.14031"><ele>199.0</ele><time>2026-03-29T08:14:53.31Z</time></trkpt><trkpt lat="44.0063883" lon="11.140455"><ele>199.0</ele><time>2026-03-29T08:14:55.311Z</time></trkpt><trkpt lat="44.0064517" lon="11.1405967"><ele>199.0</ele><time>2026-03-29T08:14:57.311Z</time></trkpt><trkpt lat="44.0065217" lon="11.140735"><ele>199.0</ele><time>2026-03-29T08:14:59.31Z</time></trkpt><trkpt lat="44.00661" lon="11.1408483"><ele>200.5</ele><time>2026-03-29T08:15:01.309Z</time></trkpt><trkpt lat="44.0067067" lon="11.14095"><ele>202.0</ele><time>2026-03-29T08:15:03.31Z</time></trkpt><trkpt lat="44.0068067" lon="11.141045"><ele>203.5</ele><time>2026-03-29T08:15:05.31Z</time></trkpt><trkpt lat="44.0069083" lon="11.14114"><ele>205.0</ele><time>2026-03-29T08:15:07.309Z</time></trkpt><trkpt lat="44.00701" lon="11.1412317"><ele>204.99999999999997</ele><time>2026-03-29T08:15:09.308Z</time></trkpt><trkpt lat="44.0071133" lon="11.1413283"><ele>205.0</ele><time>2026-03-29T08:15:11.308Z</time></trkpt><trkpt lat="44.0071667" lon="11.1413817"><ele>205.0</ele><time>2026-03-29T08:15:12.31Z</time></trkpt><trkpt lat="44.0072183" lon="11.14144"><ele>205.0</ele><time>2026-03-29T08:15:13.31Z</time></trkpt><trkpt lat="44.0072683" lon="11.141505"><ele>204.99999999999997</ele><time>2026-03-29T08:15:14.308Z</time></trkpt><trkpt lat="44.007315" lon="11.1415767"><ele>205.0</ele><time>2026-03-29T08:15:15.31Z</time></trkpt><trkpt lat="44.0073617" lon="11.14165"><ele>204.0</ele><time>2026-03-29T08:15:16.309Z</time></trkpt><trkpt lat="44.0074067" lon="11.1417283"><ele>203.0</ele><time>2026-03-29T08:15:17.311Z</time></trkpt><trkpt lat="44.00745" lon="11.1418067"><ele>202.0</ele><time>2026-03-29T08:15:18.309Z</time></trkpt><trkpt lat="44.00749" lon="11.141885"><ele>201.0</ele><time>2026-03-29T08:15:19.31Z</time></trkpt><trkpt lat="44.00753" lon="11.1419633"><ele>200.0</ele><time>2026-03-29T08:15:20.308Z</time></trkpt><trkpt lat="44.00757" lon="11.14204"><ele>199.0</ele><time>2026-03-29T08:15:21.309Z</time></trkpt><trkpt lat="44.007615" lon="11.142115"><ele>198.0</ele><time>2026-03-29T08:15:22.308Z</time></trkpt><trkpt lat="44.0076633" lon="11.142185"><ele>200.2857142857143</ele><time>2026-03-29T08:15:23.309Z</time></trkpt><trkpt lat="44.0077183" lon="11.142245"><ele>202.57142857142856</ele><time>2026-03-29T08:15:24.309Z</time></trkpt><trkpt lat="44.00778" lon="11.1422967"><ele>204.85714285714286</ele><time>2026-03-29T08:15:25.309Z</time></trkpt><trkpt lat="44.0078467" lon="11.1423333"><ele>207.14285714285717</ele><time>2026-03-29T08:15:26.311Z</time></trkpt><trkpt lat="44.00792" lon="11.1423567"><ele>209.42857142857144</ele><time>2026-03-29T08:15:27.31Z</time></trkpt><trkpt lat="44.0079967" lon="11.1423633"><ele>211.71428571428572</ele><time>2026-03-29T08:15:28.307Z</time></trkpt><trkpt lat="44.0080733" lon="11.142365"><ele>214.0</ele><time>2026-03-29T08:15:29.311Z</time></trkpt><trkpt lat="44.0081517" lon="11.14236"><ele>213.99999999999997</ele><time>2026-03-29T08:15:30.309Z</time></trkpt><trkpt lat="44.00823" lon="11.1423567"><ele>214.0</ele><time>2026-03-29T08:15:31.31Z</time></trkpt><trkpt lat="44.008305" lon="11.1423533"><ele>214.0</ele><time>2026-03-29T08:15:32.311Z</time></trkpt><trkpt lat="44.0083783" lon="11.1423617"><ele>214.0</ele><time>2026-03-29T08:15:33.309Z</time></trkpt><trkpt lat="44.008455" lon="11.1423683"><ele>213.99999999999997</ele><time>2026-03-29T08:15:34.308Z</time></trkpt><trkpt lat="44.00853" lon="11.14238"><ele>214.0</ele><time>2026-03-29T08:15:35.312Z</time></trkpt><trkpt lat="44.0086067" lon="11.1423983"><ele>212.66666666666666</ele><time>2026-03-29T08:15:36.307Z</time></trkpt><trkpt lat="44.008685" lon="11.1424233"><ele>211.33333333333331</ele><time>2026-03-29T08:15:37.309Z</time></trkpt><trkpt lat="44.0087633" lon="11.142465"><ele>210.0</ele><time>2026-03-29T08:15:38.31Z</time></trkpt><trkpt lat="44.0088433" lon="11.1425083"><ele>208.66666666666669</ele><time>2026-03-29T08:15:39.312Z</time></trkpt><trkpt lat="44.0089183" lon="11.1425533"><ele>207.33333333333334</ele><time>2026-03-29T08:15:40.31Z</time></trkpt><trkpt lat="44.0089933" lon="11.1425933"><ele>206.0</ele><time>2026-03-29T08:15:41.309Z</time></trkpt><trkpt lat="44.0090667" lon="11.1426367"><ele>206.00000000000003</ele><time>2026-03-29T08:15:42.309Z</time></trkpt><trkpt lat="44.0091417" lon="11.142675"><ele>206.0</ele><time>2026-03-29T08:15:43.312Z</time></trkpt><trkpt lat="44.00921" lon="11.1427183"><ele>206.0</ele><time>2026-03-29T08:15:44.307Z</time></trkpt><trkpt lat="44.0092883" lon="11.1427533"><ele>206.0</ele><time>2026-03-29T08:15:45.309Z</time></trkpt><trkpt lat="44.0093617" lon="11.1428033"><ele>206.00000000000003</ele><time>2026-03-29T08:15:46.309Z</time></trkpt><trkpt lat="44.0094333" lon="11.1428633"><ele>206.0</ele><time>2026-03-29T08:15:47.307Z</time></trkpt><trkpt lat="44.0095033" lon="11.1429267"><ele>205.50000000000003</ele><time>2026-03-29T08:15:48.31Z</time></trkpt><trkpt lat="44.0095683" lon="11.1429933"><ele>205.0</ele><time>2026-03-29T08:15:49.31Z</time></trkpt><trkpt lat="44.0096283" lon="11.143065"><ele>204.5</ele><time>2026-03-29T08:15:50.31Z</time></trkpt><trkpt lat="44.009685" lon="11.1431383"><ele>204.0</ele><time>2026-03-29T08:15:51.31Z</time></trkpt><trkpt lat="44.0097383" lon="11.1432117"><ele>203.50000000000003</ele><time>2026-03-29T08:15:52.309Z</time></trkpt><trkpt lat="44.0097917" lon="11.143285"><ele>203.0</ele><time>2026-03-29T08:15:53.309Z</time></trkpt><trkpt lat="44.00984" lon="11.1433583"><ele>203.0</ele><time>2026-03-29T08:15:54.31Z</time></trkpt><trkpt lat="44.009885" lon="11.143435"><ele>203.0</ele><time>2026-03-29T08:15:55.31Z</time></trkpt><trkpt lat="44.0099333" lon="11.14351"><ele>203.0</ele><time>2026-03-29T08:15:56.31Z</time></trkpt><trkpt lat="44.0099783" lon="11.1435817"><ele>203.0</ele><time>2026-03-29T08:15:57.308Z</time></trkpt><trkpt lat="44.0100267" lon="11.1436517"><ele>203.0</ele><time>2026-03-29T08:15:58.31Z</time></trkpt><trkpt lat="44.010075" lon="11.1437233"><ele>203.0</ele><time>2026-03-29T08:15:59.309Z</time></trkpt><trkpt lat="44.0101267" lon="11.1437867"><ele>203.0</ele><time>2026-03-29T08:16:00.31Z</time></trkpt><trkpt lat="44.01018" lon="11.1438483"><ele>203.0</ele><time>2026-03-29T08:16:01.309Z</time></trkpt><trkpt lat="44.0102317" lon="11.1439167"><ele>203.0</ele><time>2026-03-29T08:16:02.311Z</time></trkpt><trkpt lat="44.01028" lon="11.1439917"><ele>203.0</ele><time>2026-03-29T08:16:03.31Z</time></trkpt><trkpt lat="44.0103283" lon="11.14407"><ele>203.0</ele><time>2026-03-29T08:16:04.309Z</time></trkpt><trkpt lat="44.0103783" lon="11.1441417"><ele>203.0</ele><time>2026-03-29T08:16:05.308Z</time></trkpt><trkpt lat="44.0104333" lon="11.1442133"><ele>203.0</ele><time>2026-03-29T08:16:06.31Z</time></trkpt><trkpt lat="44.0104867" lon="11.144285"><ele>203.0</ele><time>2026-03-29T08:16:07.309Z</time></trkpt><trkpt lat="44.0105383" lon="11.14436"><ele>203.00000000000003</ele><time>2026-03-29T08:16:08.31Z</time></trkpt><trkpt lat="44.0105917" lon="11.1444317"><ele>203.0</ele><time>2026-03-29T08:16:09.308Z</time></trkpt><trkpt lat="44.010645" lon="11.1445067"><ele>203.0</ele><time>2026-03-29T08:16:10.309Z</time></trkpt><trkpt lat="44.0107" lon="11.1445767"><ele>203.0</ele><time>2026-03-29T08:16:11.309Z</time></trkpt><trkpt lat="44.0107567" lon="11.1446483"><ele>203.00000000000003</ele><time>2026-03-29T08:16:12.31Z</time></trkpt><trkpt lat="44.010815" lon="11.1447183"><ele>203.0</ele><time>2026-03-29T08:16:13.31Z</time></trkpt><trkpt lat="44.0108767" lon="11.1447833"><ele>204.00000000000003</ele><time>2026-03-29T08:16:14.309Z</time></trkpt><trkpt lat="44.01094" lon="11.1448483"><ele>205.0</ele><time>2026-03-29T08:16:15.31Z</time></trkpt><trkpt lat="44.0110067" lon="11.144905"><ele>206.0</ele><time>2026-03-29T08:16:16.31Z</time></trkpt><trkpt lat="44.0110783" lon="11.1449533"><ele>207.0</ele><time>2026-03-29T08:16:17.312Z</time></trkpt><trkpt lat="44.01115" lon="11.1449983"><ele>208.00000000000003</ele><time>2026-03-29T08:16:18.308Z</time></trkpt><trkpt lat="44.011225" lon="11.1450383"><ele>209.0</ele><time>2026-03-29T08:16:19.311Z</time></trkpt><trkpt lat="44.0113" lon="11.14508"><ele>209.00000000000003</ele><time>2026-03-29T08:16:20.31Z</time></trkpt><trkpt lat="44.0113767" lon="11.1451183"><ele>209.0</ele><time>2026-03-29T08:16:21.308Z</time></trkpt><trkpt lat="44.0114517" lon="11.1451533"><ele>209.0</ele><time>2026-03-29T08:16:22.31Z</time></trkpt><trkpt lat="44.0115267" lon="11.14519"><ele>209.0</ele><time>2026-03-29T08:16:23.31Z</time></trkpt><trkpt lat="44.0116" lon="11.145225"><ele>209.00000000000003</ele><time>2026-03-29T08:16:24.309Z</time></trkpt><trkpt lat="44.01167" lon="11.1452633"><ele>209.0</ele><time>2026-03-29T08:16:25.308Z</time></trkpt><trkpt lat="44.01174" lon="11.145295"><ele>210.83333333333334</ele><time>2026-03-29T08:16:26.308Z</time></trkpt><trkpt lat="44.011805" lon="11.1453233"><ele>212.66666666666669</ele><time>2026-03-29T08:16:27.311Z</time></trkpt><trkpt lat="44.0118683" lon="11.14535"><ele>214.5</ele><time>2026-03-29T08:16:28.31Z</time></trkpt><trkpt lat="44.01193" lon="11.145375"><ele>216.33333333333331</ele><time>2026-03-29T08:16:29.311Z</time></trkpt><trkpt lat="44.01205" lon="11.1454083"><ele>218.16666666666666</ele><time>2026-03-29T08:16:31.309Z</time></trkpt><trkpt lat="44.0121683" lon="11.1453833"><ele>220.0</ele><time>2026-03-29T08:16:33.311Z</time></trkpt><trkpt lat="44.0122267" lon="11.14535"><ele>219.99999999999997</ele><time>2026-03-29T08:16:34.311Z</time></trkpt><trkpt lat="44.0122833" lon="11.14531"><ele>220.0</ele><time>2026-03-29T08:16:35.31Z</time></trkpt><trkpt lat="44.0123367" lon="11.145255"><ele>220.0</ele><time>2026-03-29T08:16:36.31Z</time></trkpt><trkpt lat="44.0123833" lon="11.1451917"><ele>220.0</ele><time>2026-03-29T08:16:37.309Z</time></trkpt><trkpt lat="44.01243" lon="11.145125"><ele>220.0</ele><time>2026-03-29T08:16:38.309Z</time></trkpt><trkpt lat="44.01248" lon="11.1450567"><ele>219.99999999999997</ele><time>2026-03-29T08:16:39.309Z</time></trkpt><trkpt lat="44.01253" lon="11.1449883"><ele>220.0</ele><time>2026-03-29T08:16:40.31Z</time></trkpt><trkpt lat="44.0125817" lon="11.14492"><ele>223.0</ele><time>2026-03-29T08:16:41.31Z</time></trkpt><trkpt lat="44.0126317" lon="11.1448533"><ele>226.0</ele><time>2026-03-29T08:16:42.308Z</time></trkpt><trkpt lat="44.0126833" lon="11.1447883"><ele>229.0</ele><time>2026-03-29T08:16:43.309Z</time></trkpt><trkpt lat="44.0127333" lon="11.1447217"><ele>232.0</ele><time>2026-03-29T08:16:44.312Z</time></trkpt><trkpt lat="44.0127817" lon="11.14466"><ele>235.00000000000003</ele><time>2026-03-29T08:16:45.309Z</time></trkpt><trkpt lat="44.0128283" lon="11.1445933"><ele>238.0</ele><time>2026-03-29T08:16:46.309Z</time></trkpt><trkpt lat="44.0128783" lon="11.1445317"><ele>241.0</ele><time>2026-03-29T08:16:47.309Z</time></trkpt><trkpt lat="44.0129267" lon="11.14447"><ele>241.0</ele><time>2026-03-29T08:16:48.31Z</time></trkpt><trkpt lat="44.0129717" lon="11.1444033"><ele>241.00000000000003</ele><time>2026-03-29T08:16:49.308Z</time></trkpt><trkpt lat="44.0130133" lon="11.1443367"><ele>241.0</ele><time>2026-03-29T08:16:50.31Z</time></trkpt><trkpt lat="44.0130583" lon="11.144265"><ele>241.0</ele><time>2026-03-29T08:16:51.31Z</time></trkpt><trkpt lat="44.0131083" lon="11.1442"><ele>241.00000000000003</ele><time>2026-03-29T08:16:52.309Z</time></trkpt><trkpt lat="44.0131617" lon="11.1441367"><ele>241.0</ele><time>2026-03-29T08:16:53.31Z</time></trkpt><trkpt lat="44.0132133" lon="11.144075"><ele>241.0</ele><time>2026-03-29T08:16:54.31Z</time></trkpt><trkpt lat="44.0132683" lon="11.1440167"><ele>241.85714285714286</ele><time>2026-03-29T08:16:55.308Z</time></trkpt><trkpt lat="44.0133317" lon="11.14397"><ele>242.71428571428572</ele><time>2026-03-29T08:16:56.31Z</time></trkpt><trkpt lat="44.0133967" lon="11.1439233"><ele>243.57142857142858</ele><time>2026-03-29T08:16:57.308Z</time></trkpt><trkpt lat="44.0134617" lon="11.1438867"><ele>244.42857142857144</ele><time>2026-03-29T08:16:58.31Z</time></trkpt><trkpt lat="44.01353" lon="11.1438583"><ele>245.28571428571428</ele><time>2026-03-29T08:16:59.31Z</time></trkpt><trkpt lat="44.0136017" lon="11.14384"><ele>246.14285714285717</ele><time>2026-03-29T08:17:00.308Z</time></trkpt><trkpt lat="44.0136733" lon="11.1438283"><ele>247.0</ele><time>2026-03-29T08:17:01.309Z</time></trkpt><trkpt lat="44.0137483" lon="11.14382"><ele>246.99999999999997</ele><time>2026-03-29T08:17:02.31Z</time></trkpt><trkpt lat="44.0138233" lon="11.1438133"><ele>247.0</ele><time>2026-03-29T08:17:03.309Z</time></trkpt><trkpt lat="44.0139017" lon="11.1438083"><ele>247.0</ele><time>2026-03-29T08:17:04.31Z</time></trkpt><trkpt lat="44.01398" lon="11.1438033"><ele>247.0</ele><time>2026-03-29T08:17:05.31Z</time></trkpt><trkpt lat="44.0140583" lon="11.143795"><ele>246.99999999999997</ele><time>2026-03-29T08:17:06.309Z</time></trkpt><trkpt lat="44.0141383" lon="11.143785"><ele>247.0</ele><time>2026-03-29T08:17:07.309Z</time></trkpt><trkpt lat="44.0142183" lon="11.1437733"><ele>243.83333333333331</ele><time>2026-03-29T08:17:08.309Z</time></trkpt><trkpt lat="44.0142983" lon="11.14376"><ele>240.66666666666666</ele><time>2026-03-29T08:17:09.308Z</time></trkpt><trkpt lat="44.0143783" lon="11.1437433"><ele>237.5</ele><time>2026-03-29T08:17:10.308Z</time></trkpt><trkpt lat="44.01446" lon="11.1437267"><ele>234.33333333333331</ele><time>2026-03-29T08:17:11.309Z</time></trkpt><trkpt lat="44.0145433" lon="11.1437117"><ele>231.16666666666666</ele><time>2026-03-29T08:17:12.31Z</time></trkpt><trkpt lat="44.0146267" lon="11.143695"><ele>228.0</ele><time>2026-03-29T08:17:13.309Z</time></trkpt><trkpt lat="44.0147083" lon="11.1436767"><ele>228.0</ele><time>2026-03-29T08:17:14.309Z</time></trkpt><trkpt lat="44.0147883" lon="11.1436583"><ele>228.0</ele><time>2026-03-29T08:17:15.309Z</time></trkpt><trkpt lat="44.0148683" lon="11.14364"><ele>228.0</ele><time>2026-03-29T08:17:16.31Z</time></trkpt><trkpt lat="44.0149467" lon="11.1436217"><ele>228.0</ele><time>2026-03-29T08:17:17.309Z</time></trkpt><trkpt lat="44.0150233" lon="11.1436067"><ele>228.0</ele><time>2026-03-29T08:17:18.31Z</time></trkpt><trkpt lat="44.0151033" lon="11.1435933"><ele>228.0</ele><time>2026-03-29T08:17:19.31Z</time></trkpt><trkpt lat="44.015185" lon="11.1435833"><ele>226.66666666666666</ele><time>2026-03-29T08:17:20.31Z</time></trkpt><trkpt lat="44.015265" lon="11.1435683"><ele>225.33333333333331</ele><time>2026-03-29T08:17:21.309Z</time></trkpt><trkpt lat="44.0153417" lon="11.1435433"><ele>224.0</ele><time>2026-03-29T08:17:22.308Z</time></trkpt><trkpt lat="44.0154183" lon="11.143505"><ele>222.66666666666666</ele><time>2026-03-29T08:17:23.31Z</time></trkpt><trkpt lat="44.015495" lon="11.14346"><ele>221.33333333333331</ele><time>2026-03-29T08:17:24.308Z</time></trkpt><trkpt lat="44.01557" lon="11.14341"><ele>220.0</ele><time>2026-03-29T08:17:25.31Z</time></trkpt><trkpt lat="44.015645" lon="11.1433617"><ele>219.99999999999997</ele><time>2026-03-29T08:17:26.309Z</time></trkpt><trkpt lat="44.01572" lon="11.1433117"><ele>220.0</ele><time>2026-03-29T08:17:27.31Z</time></trkpt><trkpt lat="44.0157933" lon="11.143265"><ele>220.0</ele><time>2026-03-29T08:17:28.312Z</time></trkpt><trkpt lat="44.0158717" lon="11.1432233"><ele>220.0</ele><time>2026-03-29T08:17:29.309Z</time></trkpt><trkpt lat="44.0159467" lon="11.1431783"><ele>219.99999999999997</ele><time>2026-03-29T08:17:30.31Z</time></trkpt><trkpt lat="44.0160183" lon="11.1431333"><ele>220.0</ele><time>2026-03-29T08:17:31.31Z</time></trkpt><trkpt lat="44.0160917" lon="11.143085"><ele>224.16666666666666</ele><time>2026-03-29T08:17:32.312Z</time></trkpt><trkpt lat="44.016165" lon="11.1430433"><ele>228.33333333333331</ele><time>2026-03-29T08:17:33.31Z</time></trkpt><trkpt lat="44.0162367" lon="11.1429967"><ele>232.5</ele><time>2026-03-29T08:17:34.309Z</time></trkpt><trkpt lat="44.0163083" lon="11.1429467"><ele>236.66666666666669</ele><time>2026-03-29T08:17:35.311Z</time></trkpt><trkpt lat="44.0163783" lon="11.1429"><ele>240.83333333333334</ele><time>2026-03-29T08:17:36.308Z</time></trkpt><trkpt lat="44.0164517" lon="11.1428583"><ele>245.0</ele><time>2026-03-29T08:17:37.309Z</time></trkpt><trkpt lat="44.0165233" lon="11.1428133"><ele>245.00000000000003</ele><time>2026-03-29T08:17:38.31Z</time></trkpt><trkpt lat="44.0165933" lon="11.14276"><ele>245.0</ele><time>2026-03-29T08:17:39.309Z</time></trkpt><trkpt lat="44.0166633" lon="11.14271"><ele>245.0</ele><time>2026-03-29T08:17:40.309Z</time></trkpt><trkpt lat="44.0167267" lon="11.142655"><ele>245.0</ele><time>2026-03-29T08:17:41.309Z</time></trkpt><trkpt lat="44.0167933" lon="11.1425983"><ele>245.00000000000003</ele><time>2026-03-29T08:17:42.311Z</time></trkpt><trkpt lat="44.0168583" lon="11.142535"><ele>245.0</ele><time>2026-03-29T08:17:43.31Z</time></trkpt><trkpt lat="44.0169183" lon="11.142465"><ele>246.50000000000003</ele><time>2026-03-29T08:17:44.309Z</time></trkpt><trkpt lat="44.01698" lon="11.1423967"><ele>248.0</ele><time>2026-03-29T08:17:45.311Z</time></trkpt><trkpt lat="44.0170417" lon="11.1423317"><ele>249.5</ele><time>2026-03-29T08:17:46.309Z</time></trkpt><trkpt lat="44.0171033" lon="11.1422683"><ele>251.0</ele><time>2026-03-29T08:17:47.31Z</time></trkpt><trkpt lat="44.017165" lon="11.1422067"><ele>252.50000000000003</ele><time>2026-03-29T08:17:48.31Z</time></trkpt><trkpt lat="44.0172283" lon="11.142145"><ele>254.0</ele><time>2026-03-29T08:17:49.31Z</time></trkpt><trkpt lat="44.01729" lon="11.1420833"><ele>254.00000000000003</ele><time>2026-03-29T08:17:50.312Z</time></trkpt><trkpt lat="44.0173533" lon="11.1420217"><ele>254.0</ele><time>2026-03-29T08:17:51.31Z</time></trkpt><trkpt lat="44.0174217" lon="11.1419683"><ele>254.0</ele><time>2026-03-29T08:17:52.308Z</time></trkpt><trkpt lat="44.0174883" lon="11.14191"><ele>254.0</ele><time>2026-03-29T08:17:53.309Z</time></trkpt><trkpt lat="44.017555" lon="11.1418483"><ele>254.00000000000003</ele><time>2026-03-29T08:17:54.309Z</time></trkpt><trkpt lat="44.01762" lon="11.1417867"><ele>254.0</ele><time>2026-03-29T08:17:55.308Z</time></trkpt><trkpt lat="44.0176817" lon="11.1417233"><ele>252.16666666666669</ele><time>2026-03-29T08:17:56.31Z</time></trkpt><trkpt lat="44.0177433" lon="11.1416633"><ele>250.33333333333334</ele><time>2026-03-29T08:17:57.309Z</time></trkpt><trkpt lat="44.0178067" lon="11.1416017"><ele>248.5</ele><time>2026-03-29T08:17:58.309Z</time></trkpt><trkpt lat="44.01787" lon="11.141545"><ele>246.66666666666669</ele><time>2026-03-29T08:17:59.31Z</time></trkpt><trkpt lat="44.0179367" lon="11.1414917"><ele>244.83333333333334</ele><time>2026-03-29T08:18:00.312Z</time></trkpt><trkpt lat="44.0180033" lon="11.1414417"><ele>243.0</ele><time>2026-03-29T08:18:01.31Z</time></trkpt><trkpt lat="44.0180733" lon="11.1413983"><ele>243.0</ele><time>2026-03-29T08:18:02.31Z</time></trkpt><trkpt lat="44.018145" lon="11.1413633"><ele>243.0</ele><time>2026-03-29T08:18:03.309Z</time></trkpt><trkpt lat="44.018215" lon="11.1413267"><ele>243.0</ele><time>2026-03-29T08:18:04.31Z</time></trkpt><trkpt lat="44.0182833" lon="11.1412883"><ele>243.0</ele><time>2026-03-29T08:18:05.307Z</time></trkpt><trkpt lat="44.018355" lon="11.1412517"><ele>243.0</ele><time>2026-03-29T08:18:06.309Z</time></trkpt><trkpt lat="44.0184267" lon="11.1412117"><ele>243.0</ele><time>2026-03-29T08:18:07.309Z</time></trkpt><trkpt lat="44.0184983" lon="11.1411717"><ele>242.16666666666666</ele><time>2026-03-29T08:18:08.31Z</time></trkpt><trkpt lat="44.0185717" lon="11.141125"><ele>241.33333333333331</ele><time>2026-03-29T08:18:09.308Z</time></trkpt><trkpt lat="44.0186433" lon="11.1410767"><ele>240.5</ele><time>2026-03-29T08:18:10.309Z</time></trkpt><trkpt lat="44.0187133" lon="11.14102"><ele>239.66666666666666</ele><time>2026-03-29T08:18:11.31Z</time></trkpt><trkpt lat="44.0187817" lon="11.14096"><ele>238.83333333333331</ele><time>2026-03-29T08:18:12.309Z</time></trkpt><trkpt lat="44.0188517" lon="11.1408967"><ele>238.0</ele><time>2026-03-29T08:18:13.309Z</time></trkpt><trkpt lat="44.01892" lon="11.1408333"><ele>237.99999999999997</ele><time>2026-03-29T08:18:14.31Z</time></trkpt><trkpt lat="44.01899" lon="11.1407733"><ele>238.0</ele><time>2026-03-29T08:18:15.31Z</time></trkpt><trkpt lat="44.0190633" lon="11.1407183"><ele>238.0</ele><time>2026-03-29T08:18:16.31Z</time></trkpt><trkpt lat="44.0191317" lon="11.14066"><ele>238.0</ele><time>2026-03-29T08:18:17.309Z</time></trkpt><trkpt lat="44.0191983" lon="11.1406033"><ele>237.99999999999997</ele><time>2026-03-29T08:18:18.31Z</time></trkpt><trkpt lat="44.0192633" lon="11.140545"><ele>238.0</ele><time>2026-03-29T08:18:19.31Z</time></trkpt><trkpt lat="44.0193233" lon="11.140485"><ele>239.49999999999997</ele><time>2026-03-29T08:18:20.308Z</time></trkpt><trkpt lat="44.019385" lon="11.1404333"><ele>241.0</ele><time>2026-03-29T08:18:21.31Z</time></trkpt><trkpt lat="44.0194483" lon="11.1403733"><ele>242.5</ele><time>2026-03-29T08:18:22.309Z</time></trkpt><trkpt lat="44.0195133" lon="11.1403083"><ele>244.0</ele><time>2026-03-29T08:18:23.309Z</time></trkpt><trkpt lat="44.01958" lon="11.1402433"><ele>245.49999999999997</ele><time>2026-03-29T08:18:24.31Z</time></trkpt><trkpt lat="44.01965" lon="11.140185"><ele>247.0</ele><time>2026-03-29T08:18:25.309Z</time></trkpt><trkpt lat="44.0197167" lon="11.1401233"><ele>246.99999999999997</ele><time>2026-03-29T08:18:26.31Z</time></trkpt><trkpt lat="44.0197867" lon="11.140065"><ele>247.0</ele><time>2026-03-29T08:18:27.31Z</time></trkpt><trkpt lat="44.019855" lon="11.1400067"><ele>247.0</ele><time>2026-03-29T08:18:28.309Z</time></trkpt><trkpt lat="44.0199383" lon="11.13997"><ele>247.0</ele><time>2026-03-29T08:18:29.308Z</time></trkpt><trkpt lat="44.02002" lon="11.1399367"><ele>246.99999999999997</ele><time>2026-03-29T08:18:30.31Z</time></trkpt><trkpt lat="44.0201017" lon="11.1399133"><ele>247.0</ele><time>2026-03-29T08:18:31.311Z</time></trkpt><trkpt lat="44.020185" lon="11.139895"><ele>249.66666666666666</ele><time>2026-03-29T08:18:32.31Z</time></trkpt><trkpt lat="44.02027" lon="11.1398833"><ele>252.33333333333331</ele><time>2026-03-29T08:18:33.309Z</time></trkpt><trkpt lat="44.020355" lon="11.139875"><ele>255.0</ele><time>2026-03-29T08:18:34.309Z</time></trkpt><trkpt lat="44.02044" lon="11.13987"><ele>257.6666666666667</ele><time>2026-03-29T08:18:35.311Z</time></trkpt><trkpt lat="44.0205233" lon="11.139865"><ele>260.33333333333337</ele><time>2026-03-29T08:18:36.309Z</time></trkpt><trkpt lat="44.02061" lon="11.1398567"><ele>263.0</ele><time>2026-03-29T08:18:37.311Z</time></trkpt><trkpt lat="44.020695" lon="11.1398517"><ele>263.0</ele><time>2026-03-29T08:18:38.309Z</time></trkpt><trkpt lat="44.0207817" lon="11.1398433"><ele>263.0</ele><time>2026-03-29T08:18:39.31Z</time></trkpt><trkpt lat="44.0208683" lon="11.1398333"><ele>263.0</ele><time>2026-03-29T08:18:40.31Z</time></trkpt><trkpt lat="44.020955" lon="11.1398217"><ele>263.0</ele><time>2026-03-29T08:18:41.31Z</time></trkpt><trkpt lat="44.02104" lon="11.1398133"><ele>263.0</ele><time>2026-03-29T08:18:42.31Z</time></trkpt><trkpt lat="44.0211267" lon="11.1398"><ele>263.0</ele><time>2026-03-29T08:18:43.311Z</time></trkpt><trkpt lat="44.02121" lon="11.13979"><ele>257.6666666666667</ele><time>2026-03-29T08:18:44.309Z</time></trkpt><trkpt lat="44.021295" lon="11.1397833"><ele>252.33333333333334</ele><time>2026-03-29T08:18:45.31Z</time></trkpt><trkpt lat="44.0213767" lon="11.13978"><ele>247.0</ele><time>2026-03-29T08:18:46.309Z</time></trkpt><trkpt lat="44.0214583" lon="11.1397783"><ele>241.66666666666669</ele><time>2026-03-29T08:18:47.31Z</time></trkpt><trkpt lat="44.02154" lon="11.1397817"><ele>236.33333333333334</ele><time>2026-03-29T08:18:48.31Z</time></trkpt><trkpt lat="44.0216267" lon="11.1397917"><ele>231.0</ele><time>2026-03-29T08:18:49.31Z</time></trkpt><trkpt lat="44.021705" lon="11.13981"><ele>229.83333333333334</ele><time>2026-03-29T08:18:50.309Z</time></trkpt><trkpt lat="44.021785" lon="11.1398383"><ele>228.66666666666669</ele><time>2026-03-29T08:18:51.31Z</time></trkpt><trkpt lat="44.0218633" lon="11.1398767"><ele>227.5</ele><time>2026-03-29T08:18:52.31Z</time></trkpt><trkpt lat="44.0219417" lon="11.1399183"><ele>226.33333333333334</ele><time>2026-03-29T08:18:53.309Z</time></trkpt><trkpt lat="44.0220167" lon="11.1399633"><ele>225.16666666666669</ele><time>2026-03-29T08:18:54.309Z</time></trkpt><trkpt lat="44.02209" lon="11.14001"><ele>224.0</ele><time>2026-03-29T08:18:55.309Z</time></trkpt><trkpt lat="44.0221617" lon="11.14006"><ele>224.00000000000003</ele><time>2026-03-29T08:18:56.309Z</time></trkpt><trkpt lat="44.0222333" lon="11.1401133"><ele>224.0</ele><time>2026-03-29T08:18:57.308Z</time></trkpt><trkpt lat="44.022305" lon="11.1401617"><ele>224.0</ele><time>2026-03-29T08:18:58.31Z</time></trkpt><trkpt lat="44.022375" lon="11.14021"><ele>224.0</ele><time>2026-03-29T08:18:59.31Z</time></trkpt><trkpt lat="44.0224433" lon="11.1402583"><ele>224.00000000000003</ele><time>2026-03-29T08:19:00.31Z</time></trkpt><trkpt lat="44.0225117" lon="11.140315"><ele>224.0</ele><time>2026-03-29T08:19:01.311Z</time></trkpt><trkpt lat="44.0225833" lon="11.1403633"><ele>224.0</ele><time>2026-03-29T08:19:02.312Z</time></trkpt><trkpt lat="44.0226483" lon="11.1404117"><ele>224.0</ele><time>2026-03-29T08:19:03.309Z</time></trkpt><trkpt lat="44.022715" lon="11.14046"><ele>224.0</ele><time>2026-03-29T08:19:04.311Z</time></trkpt><trkpt lat="44.0227833" lon="11.14051"><ele>224.0</ele><time>2026-03-29T08:19:05.312Z</time></trkpt><trkpt lat="44.0228517" lon="11.140555"><ele>224.0</ele><time>2026-03-29T08:19:06.309Z</time></trkpt><trkpt lat="44.0229183" lon="11.1406"><ele>224.0</ele><time>2026-03-29T08:19:07.31Z</time></trkpt><trkpt lat="44.0229817" lon="11.140645"><ele>224.0</ele><time>2026-03-29T08:19:08.309Z</time></trkpt><trkpt lat="44.0230417" lon="11.14069"><ele>223.85714285714286</ele><time>2026-03-29T08:19:09.308Z</time></trkpt><trkpt lat="44.0231017" lon="11.140735"><ele>223.71428571428572</ele><time>2026-03-29T08:19:10.31Z</time></trkpt><trkpt lat="44.02316" lon="11.14078"><ele>223.57142857142856</ele><time>2026-03-29T08:19:11.309Z</time></trkpt><trkpt lat="44.0232183" lon="11.1408267"><ele>223.42857142857144</ele><time>2026-03-29T08:19:12.309Z</time></trkpt><trkpt lat="44.0232783" lon="11.1408683"><ele>223.28571428571428</ele><time>2026-03-29T08:19:13.312Z</time></trkpt><trkpt lat="44.023335" lon="11.1409117"><ele>223.14285714285714</ele><time>2026-03-29T08:19:14.309Z</time></trkpt><trkpt lat="44.023395" lon="11.1409533"><ele>223.0</ele><time>2026-03-29T08:19:15.309Z</time></trkpt><trkpt lat="44.0234533" lon="11.141"><ele>223.0</ele><time>2026-03-29T08:19:16.31Z</time></trkpt><trkpt lat="44.02351" lon="11.141045"><ele>223.0</ele><time>2026-03-29T08:19:17.31Z</time></trkpt><trkpt lat="44.0235683" lon="11.14109"><ele>223.0</ele><time>2026-03-29T08:19:18.31Z</time></trkpt><trkpt lat="44.023625" lon="11.1411333"><ele>223.0</ele><time>2026-03-29T08:19:19.31Z</time></trkpt><trkpt lat="44.02368" lon="11.1411817"><ele>223.0</ele><time>2026-03-29T08:19:20.311Z</time></trkpt><trkpt lat="44.023735" lon="11.1412283"><ele>223.0</ele><time>2026-03-29T08:19:21.309Z</time></trkpt><trkpt lat="44.0237933" lon="11.1412717"><ele>223.0</ele><time>2026-03-29T08:19:22.307Z</time></trkpt><trkpt lat="44.02385" lon="11.1413217"><ele>223.0</ele><time>2026-03-29T08:19:23.309Z</time></trkpt><trkpt lat="44.023905" lon="11.1413733"><ele>223.0</ele><time>2026-03-29T08:19:24.31Z</time></trkpt><trkpt lat="44.0239617" lon="11.1414267"><ele>223.0</ele><time>2026-03-29T08:19:25.31Z</time></trkpt><trkpt lat="44.0240133" lon="11.1414833"><ele>223.0</ele><time>2026-03-29T08:19:26.31Z</time></trkpt><trkpt lat="44.02407" lon="11.14154"><ele>223.0</ele><time>2026-03-29T08:19:27.309Z</time></trkpt><trkpt lat="44.0241283" lon="11.1415933"><ele>223.0</ele><time>2026-03-29T08:19:28.309Z</time></trkpt><trkpt lat="44.0241833" lon="11.1416517"><ele>223.0</ele><time>2026-03-29T08:19:29.309Z</time></trkpt><trkpt lat="44.024235" lon="11.1417183"><ele>223.14285714285714</ele><time>2026-03-29T08:19:30.31Z</time></trkpt><trkpt lat="44.0242833" lon="11.14179"><ele>223.28571428571428</ele><time>2026-03-29T08:19:31.308Z</time></trkpt><trkpt lat="44.0243317" lon="11.141865"><ele>223.42857142857144</ele><time>2026-03-29T08:19:32.312Z</time></trkpt><trkpt lat="44.0243833" lon="11.1419367"><ele>223.57142857142856</ele><time>2026-03-29T08:19:33.31Z</time></trkpt><trkpt lat="44.0244317" lon="11.1420083"><ele>223.71428571428572</ele><time>2026-03-29T08:19:34.308Z</time></trkpt><trkpt lat="44.0244817" lon="11.1420817"><ele>223.85714285714286</ele><time>2026-03-29T08:19:35.309Z</time></trkpt><trkpt lat="44.02453" lon="11.1421583"><ele>224.0</ele><time>2026-03-29T08:19:36.31Z</time></trkpt><trkpt lat="44.0245783" lon="11.1422383"><ele>224.0</ele><time>2026-03-29T08:19:37.31Z</time></trkpt><trkpt lat="44.024625" lon="11.1423217"><ele>224.0</ele><time>2026-03-29T08:19:38.31Z</time></trkpt><trkpt lat="44.02467" lon="11.1424067"><ele>224.0</ele><time>2026-03-29T08:19:39.31Z</time></trkpt><trkpt lat="44.0247117" lon="11.1424917"><ele>224.0</ele><time>2026-03-29T08:19:40.311Z</time></trkpt><trkpt lat="44.02475" lon="11.14258"><ele>224.0</ele><time>2026-03-29T08:19:41.311Z</time></trkpt><trkpt lat="44.024785" lon="11.1426717"><ele>224.0</ele><time>2026-03-29T08:19:42.31Z</time></trkpt><trkpt lat="44.02482" lon="11.1427633"><ele>224.0</ele><time>2026-03-29T08:19:43.309Z</time></trkpt><trkpt lat="44.0248517" lon="11.142855"><ele>224.28571428571428</ele><time>2026-03-29T08:19:44.309Z</time></trkpt><trkpt lat="44.0248817" lon="11.1429467"><ele>224.57142857142856</ele><time>2026-03-29T08:19:45.309Z</time></trkpt><trkpt lat="44.0249133" lon="11.1430367"><ele>224.85714285714286</ele><time>2026-03-29T08:19:46.31Z</time></trkpt><trkpt lat="44.024945" lon="11.1431267"><ele>225.14285714285714</ele><time>2026-03-29T08:19:47.31Z</time></trkpt><trkpt lat="44.0249767" lon="11.143215"><ele>225.42857142857142</ele><time>2026-03-29T08:19:48.309Z</time></trkpt><trkpt lat="44.02501" lon="11.1433017"><ele>225.71428571428572</ele><time>2026-03-29T08:19:49.311Z</time></trkpt><trkpt lat="44.0250483" lon="11.1433883"><ele>226.0</ele><time>2026-03-29T08:19:50.31Z</time></trkpt><trkpt lat="44.02509" lon="11.14347"><ele>226.0</ele><time>2026-03-29T08:19:51.31Z</time></trkpt><trkpt lat="44.0251333" lon="11.1435517"><ele>226.0</ele><time>2026-03-29T08:19:52.312Z</time></trkpt><trkpt lat="44.0251783" lon="11.14363"><ele>226.0</ele><time>2026-03-29T08:19:53.311Z</time></trkpt><trkpt lat="44.025225" lon="11.1437067"><ele>226.0</ele><time>2026-03-29T08:19:54.31Z</time></trkpt><trkpt lat="44.0252717" lon="11.1437883"><ele>226.0</ele><time>2026-03-29T08:19:55.31Z</time></trkpt><trkpt lat="44.0253167" lon="11.1438683"><ele>226.0</ele><time>2026-03-29T08:19:56.311Z</time></trkpt><trkpt lat="44.0253617" lon="11.1439483"><ele>226.0</ele><time>2026-03-29T08:19:57.308Z</time></trkpt><trkpt lat="44.025405" lon="11.1440283"><ele>224.85714285714286</ele><time>2026-03-29T08:19:58.309Z</time></trkpt><trkpt lat="44.0254517" lon="11.1441017"><ele>223.7142857142857</ele><time>2026-03-29T08:19:59.31Z</time></trkpt><trkpt lat="44.0255033" lon="11.1441733"><ele>222.57142857142856</ele><time>2026-03-29T08:20:00.311Z</time></trkpt><trkpt lat="44.025555" lon="11.1442417"><ele>221.42857142857144</ele><time>2026-03-29T08:20:01.31Z</time></trkpt><trkpt lat="44.02562" lon="11.144295"><ele>220.28571428571428</ele><time>2026-03-29T08:20:02.31Z</time></trkpt><trkpt lat="44.02568" lon="11.1443467"><ele>219.14285714285714</ele><time>2026-03-29T08:20:03.311Z</time></trkpt><trkpt lat="44.0257433" lon="11.1443967"><ele>218.0</ele><time>2026-03-29T08:20:04.309Z</time></trkpt><trkpt lat="44.0258" lon="11.144455"><ele>219.85714285714286</ele><time>2026-03-29T08:20:05.312Z</time></trkpt><trkpt lat="44.02586" lon="11.1445083"><ele>221.71428571428572</ele><time>2026-03-29T08:20:06.309Z</time></trkpt><trkpt lat="44.0259217" lon="11.1445583"><ele>223.57142857142856</ele><time>2026-03-29T08:20:07.309Z</time></trkpt><trkpt lat="44.0259883" lon="11.1446067"><ele>225.42857142857144</ele><time>2026-03-29T08:20:08.311Z</time></trkpt><trkpt lat="44.02605" lon="11.1446567"><ele>227.28571428571428</ele><time>2026-03-29T08:20:09.31Z</time></trkpt><trkpt lat="44.0261133" lon="11.14471"><ele>229.14285714285714</ele><time>2026-03-29T08:20:10.31Z</time></trkpt><trkpt lat="44.0261767" lon="11.1447683"><ele>231.0</ele><time>2026-03-29T08:20:11.308Z</time></trkpt><trkpt lat="44.026235" lon="11.1448283"><ele>228.83333333333334</ele><time>2026-03-29T08:20:12.31Z</time></trkpt><trkpt lat="44.0262917" lon="11.1448917"><ele>226.66666666666669</ele><time>2026-03-29T08:20:13.309Z</time></trkpt><trkpt lat="44.0263483" lon="11.1449617"><ele>224.5</ele><time>2026-03-29T08:20:14.313Z</time></trkpt><trkpt lat="44.0263983" lon="11.1450433"><ele>222.33333333333334</ele><time>2026-03-29T08:20:15.312Z</time></trkpt><trkpt lat="44.026445" lon="11.1451283"><ele>220.16666666666669</ele><time>2026-03-29T08:20:16.312Z</time></trkpt><trkpt lat="44.0264867" lon="11.1452233"><ele>218.0</ele><time>2026-03-29T08:20:17.311Z</time></trkpt><trkpt lat="44.0265267" lon="11.1453183"><ele>218.00000000000003</ele><time>2026-03-29T08:20:18.31Z</time></trkpt><trkpt lat="44.0265583" lon="11.1454217"><ele>218.0</ele><time>2026-03-29T08:20:19.311Z</time></trkpt><trkpt lat="44.026585" lon="11.1455233"><ele>218.0</ele><time>2026-03-29T08:20:20.31Z</time></trkpt><trkpt lat="44.02661" lon="11.145625"><ele>218.0</ele><time>2026-03-29T08:20:21.31Z</time></trkpt><trkpt lat="44.0266367" lon="11.1457233"><ele>218.00000000000003</ele><time>2026-03-29T08:20:22.311Z</time></trkpt><trkpt lat="44.0266633" lon="11.1458183"><ele>218.0</ele><time>2026-03-29T08:20:23.311Z</time></trkpt><trkpt lat="44.0266917" lon="11.1459117"><ele>219.0</ele><time>2026-03-29T08:20:24.311Z</time></trkpt><trkpt lat="44.0267283" lon="11.146"><ele>220.0</ele><time>2026-03-29T08:20:25.31Z</time></trkpt><trkpt lat="44.02677" lon="11.14608"><ele>221.0</ele><time>2026-03-29T08:20:26.309Z</time></trkpt><trkpt lat="44.02682" lon="11.1461517"><ele>222.0</ele><time>2026-03-29T08:20:27.31Z</time></trkpt><trkpt lat="44.0268733" lon="11.1462167"><ele>223.0</ele><time>2026-03-29T08:20:28.31Z</time></trkpt><trkpt lat="44.0269367" lon="11.1462733"><ele>224.00000000000003</ele><time>2026-03-29T08:20:29.309Z</time></trkpt><trkpt lat="44.0270067" lon="11.1463233"><ele>225.00000000000003</ele><time>2026-03-29T08:20:30.31Z</time></trkpt><trkpt lat="44.0270817" lon="11.14637"><ele>225.0</ele><time>2026-03-29T08:20:31.31Z</time></trkpt><trkpt lat="44.0271533" lon="11.14642"><ele>225.0</ele><time>2026-03-29T08:20:32.313Z</time></trkpt><trkpt lat="44.0272283" lon="11.1464633"><ele>225.0</ele><time>2026-03-29T08:20:33.311Z</time></trkpt><trkpt lat="44.0273033" lon="11.1465033"><ele>225.0</ele><time>2026-03-29T08:20:34.309Z</time></trkpt><trkpt lat="44.0273767" lon="11.1465483"><ele>225.0</ele><time>2026-03-29T08:20:35.309Z</time></trkpt><trkpt lat="44.02745" lon="11.1465917"><ele>225.0</ele><time>2026-03-29T08:20:36.312Z</time></trkpt><trkpt lat="44.0275167" lon="11.1466517"><ele>225.5</ele><time>2026-03-29T08:20:37.309Z</time></trkpt><trkpt lat="44.0275783" lon="11.146725"><ele>226.0</ele><time>2026-03-29T08:20:38.31Z</time></trkpt><trkpt lat="44.027635" lon="11.1468133"><ele>226.5</ele><time>2026-03-29T08:20:39.31Z</time></trkpt><trkpt lat="44.0276883" lon="11.1469167"><ele>227.0</ele><time>2026-03-29T08:20:40.308Z</time></trkpt><trkpt lat="44.0277333" lon="11.1470217"><ele>227.5</ele><time>2026-03-29T08:20:41.309Z</time></trkpt><trkpt lat="44.02778" lon="11.1471217"><ele>228.0</ele><time>2026-03-29T08:20:42.308Z</time></trkpt><trkpt lat="44.0278217" lon="11.1472283"><ele>228.0</ele><time>2026-03-29T08:20:43.31Z</time></trkpt><trkpt lat="44.0278617" lon="11.147335"><ele>228.0</ele><time>2026-03-29T08:20:44.31Z</time></trkpt><trkpt lat="44.0279017" lon="11.1474417"><ele>228.0</ele><time>2026-03-29T08:20:45.31Z</time></trkpt><trkpt lat="44.0279417" lon="11.1475467"><ele>228.0</ele><time>2026-03-29T08:20:46.312Z</time></trkpt><trkpt lat="44.0279767" lon="11.1476533"><ele>228.0</ele><time>2026-03-29T08:20:47.312Z</time></trkpt><trkpt lat="44.0280117" lon="11.1477567"><ele>228.0</ele><time>2026-03-29T08:20:48.309Z</time></trkpt><trkpt lat="44.0280433" lon="11.1478617"><ele>227.5</ele><time>2026-03-29T08:20:49.31Z</time></trkpt><trkpt lat="44.028075" lon="11.147965"><ele>227.0</ele><time>2026-03-29T08:20:50.31Z</time></trkpt><trkpt lat="44.0281083" lon="11.1480717"><ele>226.5</ele><time>2026-03-29T08:20:51.31Z</time></trkpt><trkpt lat="44.0281383" lon="11.1481767"><ele>226.0</ele><time>2026-03-29T08:20:52.309Z</time></trkpt><trkpt lat="44.0281617" lon="11.1482833"><ele>225.5</ele><time>2026-03-29T08:20:53.31Z</time></trkpt><trkpt lat="44.0281817" lon="11.1483933"><ele>225.0</ele><time>2026-03-29T08:20:54.309Z</time></trkpt><trkpt lat="44.0281983" lon="11.1485"><ele>225.0</ele><time>2026-03-29T08:20:55.31Z</time></trkpt><trkpt lat="44.0282133" lon="11.1486083"><ele>225.0</ele><time>2026-03-29T08:20:56.311Z</time></trkpt><trkpt lat="44.0282267" lon="11.14872"><ele>225.0</ele><time>2026-03-29T08:20:57.31Z</time></trkpt><trkpt lat="44.02824" lon="11.148835"><ele>225.0</ele><time>2026-03-29T08:20:58.309Z</time></trkpt><trkpt lat="44.0282533" lon="11.1489483"><ele>225.0</ele><time>2026-03-29T08:20:59.309Z</time></trkpt><trkpt lat="44.0282667" lon="11.1490633"><ele>225.0</ele><time>2026-03-29T08:21:00.311Z</time></trkpt><trkpt lat="44.0282783" lon="11.14919"><ele>225.33333333333334</ele><time>2026-03-29T08:21:01.309Z</time></trkpt><trkpt lat="44.02829" lon="11.1493117"><ele>225.66666666666669</ele><time>2026-03-29T08:21:02.309Z</time></trkpt><trkpt lat="44.0283017" lon="11.14943"><ele>226.0</ele><time>2026-03-29T08:21:03.309Z</time></trkpt><trkpt lat="44.0283083" lon="11.1495417"><ele>226.33333333333334</ele><time>2026-03-29T08:21:04.311Z</time></trkpt><trkpt lat="44.0283183" lon="11.149655"><ele>226.66666666666669</ele><time>2026-03-29T08:21:05.31Z</time></trkpt><trkpt lat="44.028325" lon="11.1497667"><ele>227.0</ele><time>2026-03-29T08:21:06.31Z</time></trkpt><trkpt lat="44.0283333" lon="11.1498783"><ele>227.00000000000003</ele><time>2026-03-29T08:21:07.311Z</time></trkpt><trkpt lat="44.02834" lon="11.1499883"><ele>227.0</ele><time>2026-03-29T08:21:08.31Z</time></trkpt><trkpt lat="44.028345" lon="11.1501"><ele>227.0</ele><time>2026-03-29T08:21:09.31Z</time></trkpt><trkpt lat="44.02835" lon="11.1502117"><ele>227.0</ele><time>2026-03-29T08:21:10.31Z</time></trkpt><trkpt lat="44.02836" lon="11.1503217"><ele>227.00000000000003</ele><time>2026-03-29T08:21:11.308Z</time></trkpt><trkpt lat="44.0283667" lon="11.1504333"><ele>227.0</ele><time>2026-03-29T08:21:12.311Z</time></trkpt><trkpt lat="44.0283717" lon="11.1505433"><ele>227.00000000000003</ele><time>2026-03-29T08:21:13.309Z</time></trkpt><trkpt lat="44.0283767" lon="11.1506533"><ele>227.0</ele><time>2026-03-29T08:21:14.309Z</time></trkpt><trkpt lat="44.028385" lon="11.1507617"><ele>227.0</ele><time>2026-03-29T08:21:15.309Z</time></trkpt><trkpt lat="44.0283983" lon="11.15087"><ele>227.0</ele><time>2026-03-29T08:21:16.311Z</time></trkpt><trkpt lat="44.0284167" lon="11.15098"><ele>227.00000000000003</ele><time>2026-03-29T08:21:17.309Z</time></trkpt><trkpt lat="44.0284383" lon="11.15109"><ele>227.0</ele><time>2026-03-29T08:21:18.31Z</time></trkpt><trkpt lat="44.028465" lon="11.1511983"><ele>227.33333333333334</ele><time>2026-03-29T08:21:19.309Z</time></trkpt><trkpt lat="44.028495" lon="11.1513033"><ele>227.66666666666669</ele><time>2026-03-29T08:21:20.31Z</time></trkpt><trkpt lat="44.028525" lon="11.1514067"><ele>228.0</ele><time>2026-03-29T08:21:21.309Z</time></trkpt><trkpt lat="44.0285617" lon="11.1515033"><ele>228.33333333333331</ele><time>2026-03-29T08:21:22.312Z</time></trkpt><trkpt lat="44.028605" lon="11.1515933"><ele>228.66666666666666</ele><time>2026-03-29T08:21:23.31Z</time></trkpt><trkpt lat="44.02865" lon="11.1516817"><ele>229.0</ele><time>2026-03-29T08:21:24.31Z</time></trkpt><trkpt lat="44.0287033" lon="11.1517617"><ele>228.99999999999997</ele><time>2026-03-29T08:21:25.311Z</time></trkpt><trkpt lat="44.02876" lon="11.151835"><ele>229.0</ele><time>2026-03-29T08:21:26.31Z</time></trkpt><trkpt lat="44.02882" lon="11.1519083"><ele>229.0</ele><time>2026-03-29T08:21:27.309Z</time></trkpt><trkpt lat="44.02888" lon="11.1519833"><ele>229.0</ele><time>2026-03-29T08:21:28.308Z</time></trkpt><trkpt lat="44.0289417" lon="11.15205"><ele>228.99999999999997</ele><time>2026-03-29T08:21:29.311Z</time></trkpt><trkpt lat="44.0290033" lon="11.152115"><ele>229.0</ele><time>2026-03-29T08:21:30.311Z</time></trkpt><trkpt lat="44.0290717" lon="11.1521733"><ele>228.99999999999997</ele><time>2026-03-29T08:21:31.31Z</time></trkpt><trkpt lat="44.0291367" lon="11.152235"><ele>229.0</ele><time>2026-03-29T08:21:32.31Z</time></trkpt><trkpt lat="44.0292" lon="11.1523"><ele>229.0</ele><time>2026-03-29T08:21:33.31Z</time></trkpt><trkpt lat="44.02926" lon="11.1523733"><ele>229.0</ele><time>2026-03-29T08:21:34.311Z</time></trkpt><trkpt lat="44.0293167" lon="11.1524483"><ele>228.99999999999997</ele><time>2026-03-29T08:21:35.31Z</time></trkpt><trkpt lat="44.029365" lon="11.1525317"><ele>229.0</ele><time>2026-03-29T08:21:36.309Z</time></trkpt><trkpt lat="44.0294033" lon="11.1526233"><ele>228.85714285714283</ele><time>2026-03-29T08:21:37.311Z</time></trkpt><trkpt lat="44.0294383" lon="11.1527133"><ele>228.71428571428572</ele><time>2026-03-29T08:21:38.31Z</time></trkpt><trkpt lat="44.029475" lon="11.1528"><ele>228.57142857142856</ele><time>2026-03-29T08:21:39.311Z</time></trkpt><trkpt lat="44.0295117" lon="11.1528883"><ele>228.42857142857142</ele><time>2026-03-29T08:21:40.309Z</time></trkpt><trkpt lat="44.0295517" lon="11.1529733"><ele>228.28571428571428</ele><time>2026-03-29T08:21:41.311Z</time></trkpt><trkpt lat="44.0295867" lon="11.1530583"><ele>228.14285714285714</ele><time>2026-03-29T08:21:42.31Z</time></trkpt><trkpt lat="44.0296217" lon="11.1531467"><ele>228.0</ele><time>2026-03-29T08:21:43.312Z</time></trkpt><trkpt lat="44.0296617" lon="11.1532283"><ele>228.42857142857142</ele><time>2026-03-29T08:21:44.309Z</time></trkpt><trkpt lat="44.0297033" lon="11.153305"><ele>228.85714285714283</ele><time>2026-03-29T08:21:45.312Z</time></trkpt><trkpt lat="44.0297433" lon="11.1533833"><ele>229.28571428571428</ele><time>2026-03-29T08:21:46.309Z</time></trkpt><trkpt lat="44.0297883" lon="11.153455"><ele>229.71428571428572</ele><time>2026-03-29T08:21:47.309Z</time></trkpt><trkpt lat="44.02984" lon="11.1535183"><ele>230.14285714285714</ele><time>2026-03-29T08:21:48.309Z</time></trkpt><trkpt lat="44.0298933" lon="11.1535767"><ele>230.57142857142856</ele><time>2026-03-29T08:21:49.309Z</time></trkpt><trkpt lat="44.0299483" lon="11.15363"><ele>231.0</ele><time>2026-03-29T08:21:50.309Z</time></trkpt><trkpt lat="44.0300067" lon="11.153675"><ele>232.0</ele><time>2026-03-29T08:21:51.31Z</time></trkpt><trkpt lat="44.030065" lon="11.1537133"><ele>233.00000000000003</ele><time>2026-03-29T08:21:52.308Z</time></trkpt><trkpt lat="44.0301833" lon="11.1537783"><ele>234.00000000000003</ele><time>2026-03-29T08:21:54.312Z</time></trkpt><trkpt lat="44.0302467" lon="11.1538033"><ele>235.0</ele><time>2026-03-29T08:21:55.31Z</time></trkpt><trkpt lat="44.03036" lon="11.1538433"><ele>236.0</ele><time>2026-03-29T08:21:57.31Z</time></trkpt><trkpt lat="44.03047" lon="11.153875"><ele>236.0</ele><time>2026-03-29T08:21:59.311Z</time></trkpt><trkpt lat="44.0305767" lon="11.1539017"><ele>236.00000000000003</ele><time>2026-03-29T08:22:01.311Z</time></trkpt><trkpt lat="44.0306833" lon="11.1539233"><ele>236.00000000000003</ele><time>2026-03-29T08:22:03.309Z</time></trkpt><trkpt lat="44.030785" lon="11.153945"><ele>236.0</ele><time>2026-03-29T08:22:05.311Z</time></trkpt><trkpt lat="44.03088" lon="11.1539667"><ele>236.0</ele><time>2026-03-29T08:22:07.31Z</time></trkpt><trkpt lat="44.0309717" lon="11.1539683"><ele>239.4</ele><time>2026-03-29T08:22:09.311Z</time></trkpt><trkpt lat="44.0310683" lon="11.1539383"><ele>242.8</ele><time>2026-03-29T08:22:11.311Z</time></trkpt><trkpt lat="44.0311683" lon="11.1538967"><ele>246.20000000000002</ele><time>2026-03-29T08:22:13.31Z</time></trkpt><trkpt lat="44.0312667" lon="11.153855"><ele>249.60000000000002</ele><time>2026-03-29T08:22:15.309Z</time></trkpt><trkpt lat="44.0313683" lon="11.1538283"><ele>253.0</ele><time>2026-03-29T08:22:17.311Z</time></trkpt><trkpt lat="44.0314717" lon="11.1538133"><ele>253.0</ele><time>2026-03-29T08:22:19.311Z</time></trkpt><trkpt lat="44.03157" lon="11.15381"><ele>253.0</ele><time>2026-03-29T08:22:21.311Z</time></trkpt><trkpt lat="44.0316633" lon="11.153825"><ele>253.0</ele><time>2026-03-29T08:22:23.31Z</time></trkpt><trkpt lat="44.03176" lon="11.1538567"><ele>253.0</ele><time>2026-03-29T08:22:25.31Z</time></trkpt><trkpt lat="44.031855" lon="11.1538767"><ele>253.0</ele><time>2026-03-29T08:22:27.311Z</time></trkpt><trkpt lat="44.0319483" lon="11.1539"><ele>256.0</ele><time>2026-03-29T08:22:29.309Z</time></trkpt><trkpt lat="44.03205" lon="11.1539167"><ele>259.0</ele><time>2026-03-29T08:22:31.31Z</time></trkpt><trkpt lat="44.032155" lon="11.15393"><ele>262.0</ele><time>2026-03-29T08:22:33.311Z</time></trkpt><trkpt lat="44.0322633" lon="11.15394"><ele>265.0</ele><time>2026-03-29T08:22:35.311Z</time></trkpt><trkpt lat="44.03238" lon="11.1539417"><ele>268.0</ele><time>2026-03-29T08:22:37.311Z</time></trkpt><trkpt lat="44.0324433" lon="11.1539417"><ele>270.66666666666663</ele><time>2026-03-29T08:22:38.309Z</time></trkpt><trkpt lat="44.0325067" lon="11.1539417"><ele>273.3333333333333</ele><time>2026-03-29T08:22:39.31Z</time></trkpt><trkpt lat="44.03257" lon="11.1539317"><ele>276.0</ele><time>2026-03-29T08:22:40.311Z</time></trkpt><trkpt lat="44.0326333" lon="11.1539283"><ele>278.6666666666667</ele><time>2026-03-29T08:22:41.313Z</time></trkpt><trkpt lat="44.0327583" lon="11.153925"><ele>281.33333333333337</ele><time>2026-03-29T08:22:43.31Z</time></trkpt><trkpt lat="44.0328217" lon="11.1539217"><ele>284.0</ele><time>2026-03-29T08:22:44.312Z</time></trkpt><trkpt lat="44.032945" lon="11.1539183"><ele>284.0</ele><time>2026-03-29T08:22:46.31Z</time></trkpt><trkpt lat="44.0330617" lon="11.15392"><ele>284.0</ele><time>2026-03-29T08:22:48.31Z</time></trkpt><trkpt lat="44.0331833" lon="11.1539233"><ele>284.0</ele><time>2026-03-29T08:22:50.309Z</time></trkpt><trkpt lat="44.0333017" lon="11.1539333"><ele>284.0</ele><time>2026-03-29T08:22:52.31Z</time></trkpt><trkpt lat="44.03342" lon="11.1539467"><ele>283.5</ele><time>2026-03-29T08:22:54.312Z</time></trkpt><trkpt lat="44.0335433" lon="11.1539533"><ele>283.0</ele><time>2026-03-29T08:22:56.313Z</time></trkpt><trkpt lat="44.0336617" lon="11.15396"><ele>282.5</ele><time>2026-03-29T08:22:58.311Z</time></trkpt><trkpt lat="44.033775" lon="11.153955"><ele>282.0</ele><time>2026-03-29T08:23:00.313Z</time></trkpt><trkpt lat="44.033885" lon="11.1539567"><ele>282.0</ele><time>2026-03-29T08:23:02.313Z</time></trkpt><trkpt lat="44.033995" lon="11.1539517"><ele>282.0</ele><time>2026-03-29T08:23:04.309Z</time></trkpt><trkpt lat="44.0341067" lon="11.1539567"><ele>282.0</ele><time>2026-03-29T08:23:06.31Z</time></trkpt><trkpt lat="44.0342133" lon="11.1539567"><ele>282.0</ele><time>2026-03-29T08:23:08.31Z</time></trkpt><trkpt lat="44.034315" lon="11.1539483"><ele>282.0</ele><time>2026-03-29T08:23:10.308Z</time></trkpt><trkpt lat="44.0344233" lon="11.1539467"><ele>280.0</ele><time>2026-03-29T08:23:12.31Z</time></trkpt><trkpt lat="44.03453" lon="11.153935"><ele>278.0</ele><time>2026-03-29T08:23:14.309Z</time></trkpt><trkpt lat="44.0346333" lon="11.1539033"><ele>276.0</ele><time>2026-03-29T08:23:16.308Z</time></trkpt><trkpt lat="44.0347383" lon="11.1538683"><ele>274.0</ele><time>2026-03-29T08:23:18.31Z</time></trkpt><trkpt lat="44.034845" lon="11.1538467"><ele>272.0</ele><time>2026-03-29T08:23:20.31Z</time></trkpt><trkpt lat="44.0349567" lon="11.1538233"><ele>272.2</ele><time>2026-03-29T08:23:22.311Z</time></trkpt><trkpt lat="44.0350633" lon="11.1538017"><ele>272.4</ele><time>2026-03-29T08:23:24.312Z</time></trkpt><trkpt lat="44.0351717" lon="11.1537733"><ele>272.6</ele><time>2026-03-29T08:23:26.309Z</time></trkpt><trkpt lat="44.0352733" lon="11.1537533"><ele>272.8</ele><time>2026-03-29T08:23:28.31Z</time></trkpt><trkpt lat="44.035375" lon="11.1537317"><ele>273.0</ele><time>2026-03-29T08:23:30.309Z</time></trkpt><trkpt lat="44.0354733" lon="11.15373"><ele>273.0</ele><time>2026-03-29T08:23:32.309Z</time></trkpt><trkpt lat="44.03558" lon="11.15376"><ele>273.0</ele><time>2026-03-29T08:23:34.31Z</time></trkpt><trkpt lat="44.035685" lon="11.1538083"><ele>273.0</ele><time>2026-03-29T08:23:36.31Z</time></trkpt><trkpt lat="44.0357867" lon="11.15387"><ele>273.0</ele><time>2026-03-29T08:23:38.309Z</time></trkpt><trkpt lat="44.0358833" lon="11.1539433"><ele>273.0</ele><time>2026-03-29T08:23:40.31Z</time></trkpt><trkpt lat="44.0359767" lon="11.1540183"><ele>269.8</ele><time>2026-03-29T08:23:42.31Z</time></trkpt><trkpt lat="44.03606" lon="11.1541067"><ele>266.6</ele><time>2026-03-29T08:23:44.31Z</time></trkpt><trkpt lat="44.03614" lon="11.154195"><ele>263.4</ele><time>2026-03-29T08:23:46.309Z</time></trkpt><trkpt lat="44.0362117" lon="11.15429"><ele>260.2</ele><time>2026-03-29T08:23:48.311Z</time></trkpt><trkpt lat="44.03628" lon="11.154385"><ele>257.0</ele><time>2026-03-29T08:23:50.311Z</time></trkpt><trkpt lat="44.0363483" lon="11.1544783"><ele>257.0</ele><time>2026-03-29T08:23:52.31Z</time></trkpt><trkpt lat="44.0364283" lon="11.1545567"><ele>257.0</ele><time>2026-03-29T08:23:54.31Z</time></trkpt><trkpt lat="44.03652" lon="11.1546167"><ele>257.0</ele><time>2026-03-29T08:23:56.311Z</time></trkpt><trkpt lat="44.0366217" lon="11.15466"><ele>257.0</ele><time>2026-03-29T08:23:58.309Z</time></trkpt><trkpt lat="44.0367333" lon="11.1546867"><ele>257.0</ele><time>2026-03-29T08:24:00.311Z</time></trkpt><trkpt lat="44.036845" lon="11.1546867"><ele>258.5</ele><time>2026-03-29T08:24:02.309Z</time></trkpt><trkpt lat="44.0369533" lon="11.1546533"><ele>260.0</ele><time>2026-03-29T08:24:04.31Z</time></trkpt><trkpt lat="44.03706" lon="11.154595"><ele>261.5</ele><time>2026-03-29T08:24:06.311Z</time></trkpt><trkpt lat="44.03716" lon="11.154515"><ele>263.0</ele><time>2026-03-29T08:24:08.311Z</time></trkpt><trkpt lat="44.0372583" lon="11.1544333"><ele>263.0</ele><time>2026-03-29T08:24:10.309Z</time></trkpt><trkpt lat="44.0373467" lon="11.1543467"><ele>263.0</ele><time>2026-03-29T08:24:12.31Z</time></trkpt><trkpt lat="44.03743" lon="11.1542567"><ele>263.0</ele><time>2026-03-29T08:24:14.311Z</time></trkpt><trkpt lat="44.037515" lon="11.1541733"><ele>263.0</ele><time>2026-03-29T08:24:16.308Z</time></trkpt><trkpt lat="44.0376" lon="11.1540967"><ele>263.0</ele><time>2026-03-29T08:24:18.309Z</time></trkpt><trkpt lat="44.0376883" lon="11.1540283"><ele>264.4</ele><time>2026-03-29T08:24:20.312Z</time></trkpt><trkpt lat="44.0377783" lon="11.1539583"><ele>265.8</ele><time>2026-03-29T08:24:22.313Z</time></trkpt><trkpt lat="44.0378517" lon="11.1538733"><ele>267.2</ele><time>2026-03-29T08:24:24.311Z</time></trkpt><trkpt lat="44.03792" lon="11.1537883"><ele>268.6</ele><time>2026-03-29T08:24:26.309Z</time></trkpt><trkpt lat="44.0379917" lon="11.1537133"><ele>270.0</ele><time>2026-03-29T08:24:28.311Z</time></trkpt><trkpt lat="44.0380633" lon="11.1536417"><ele>270.0</ele><time>2026-03-29T08:24:30.309Z</time></trkpt><trkpt lat="44.0381333" lon="11.1535683"><ele>270.0</ele><time>2026-03-29T08:24:32.308Z</time></trkpt><trkpt lat="44.0382167" lon="11.1534967"><ele>270.0</ele><time>2026-03-29T08:24:34.311Z</time></trkpt><trkpt lat="44.0382883" lon="11.153425"><ele>270.0</ele><time>2026-03-29T08:24:36.31Z</time></trkpt><trkpt lat="44.0383683" lon="11.1533383"><ele>270.0</ele><time>2026-03-29T08:24:38.312Z</time></trkpt><trkpt lat="44.038445" lon="11.1532683"><ele>271.6</ele><time>2026-03-29T08:24:40.31Z</time></trkpt><trkpt lat="44.0385183" lon="11.1532"><ele>273.2</ele><time>2026-03-29T08:24:42.31Z</time></trkpt><trkpt lat="44.038595" lon="11.1531317"><ele>274.8</ele><time>2026-03-29T08:24:44.311Z</time></trkpt><trkpt lat="44.0386683" lon="11.1530667"><ele>276.4</ele><time>2026-03-29T08:24:46.31Z</time></trkpt><trkpt lat="44.0387483" lon="11.1529983"><ele>278.0</ele><time>2026-03-29T08:24:48.31Z</time></trkpt><trkpt lat="44.0388267" lon="11.1529183"><ele>278.0</ele><time>2026-03-29T08:24:50.311Z</time></trkpt><trkpt lat="44.03891" lon="11.1528383"><ele>278.0</ele><time>2026-03-29T08:24:52.312Z</time></trkpt><trkpt lat="44.038995" lon="11.1527517"><ele>278.0</ele><time>2026-03-29T08:24:54.31Z</time></trkpt><trkpt lat="44.03909" lon="11.1526633"><ele>278.0</ele><time>2026-03-29T08:24:56.312Z</time></trkpt><trkpt lat="44.039195" lon="11.1525683"><ele>278.0</ele><time>2026-03-29T08:24:58.311Z</time></trkpt><trkpt lat="44.0392483" lon="11.1525133"><ele>278.1428571428571</ele><time>2026-03-29T08:24:59.31Z</time></trkpt><trkpt lat="44.0393017" lon="11.15246"><ele>278.2857142857143</ele><time>2026-03-29T08:25:00.31Z</time></trkpt><trkpt lat="44.0393583" lon="11.1524067"><ele>278.42857142857144</ele><time>2026-03-29T08:25:01.311Z</time></trkpt><trkpt lat="44.0394167" lon="11.152355"><ele>278.57142857142856</ele><time>2026-03-29T08:25:02.311Z</time></trkpt><trkpt lat="44.039475" lon="11.1523"><ele>278.7142857142857</ele><time>2026-03-29T08:25:03.309Z</time></trkpt><trkpt lat="44.03953" lon="11.1522417"><ele>278.85714285714283</ele><time>2026-03-29T08:25:04.31Z</time></trkpt><trkpt lat="44.0395917" lon="11.1521833"><ele>279.0</ele><time>2026-03-29T08:25:05.31Z</time></trkpt><trkpt lat="44.03965" lon="11.1521217"><ele>279.0</ele><time>2026-03-29T08:25:06.309Z</time></trkpt><trkpt lat="44.0397133" lon="11.15206"><ele>279.0</ele><time>2026-03-29T08:25:07.309Z</time></trkpt><trkpt lat="44.0397767" lon="11.1519983"><ele>279.0</ele><time>2026-03-29T08:25:08.31Z</time></trkpt><trkpt lat="44.0398433" lon="11.1519333"><ele>279.0</ele><time>2026-03-29T08:25:09.31Z</time></trkpt><trkpt lat="44.0399167" lon="11.1518783"><ele>279.0</ele><time>2026-03-29T08:25:10.309Z</time></trkpt><trkpt lat="44.0399967" lon="11.1518283"><ele>279.0</ele><time>2026-03-29T08:25:11.311Z</time></trkpt><trkpt lat="44.0400783" lon="11.151785"><ele>277.6666666666667</ele><time>2026-03-29T08:25:12.309Z</time></trkpt><trkpt lat="44.0401633" lon="11.15175"><ele>276.3333333333333</ele><time>2026-03-29T08:25:13.309Z</time></trkpt><trkpt lat="44.0402483" lon="11.151715"><ele>275.0</ele><time>2026-03-29T08:25:14.309Z</time></trkpt><trkpt lat="44.040335" lon="11.151685"><ele>273.66666666666663</ele><time>2026-03-29T08:25:15.309Z</time></trkpt><trkpt lat="44.0404233" lon="11.1516533"><ele>272.3333333333333</ele><time>2026-03-29T08:25:16.308Z</time></trkpt><trkpt lat="44.0405117" lon="11.15162"><ele>271.0</ele><time>2026-03-29T08:25:17.31Z</time></trkpt><trkpt lat="44.040595" lon="11.1515733"><ele>271.8</ele><time>2026-03-29T08:25:18.309Z</time></trkpt><trkpt lat="44.0406783" lon="11.151515"><ele>272.6</ele><time>2026-03-29T08:25:19.311Z</time></trkpt><trkpt lat="44.0407517" lon="11.1514367"><ele>273.4</ele><time>2026-03-29T08:25:20.31Z</time></trkpt><trkpt lat="44.0408217" lon="11.151355"><ele>274.2</ele><time>2026-03-29T08:25:21.312Z</time></trkpt><trkpt lat="44.0408933" lon="11.151275"><ele>275.0</ele><time>2026-03-29T08:25:22.309Z</time></trkpt><trkpt lat="44.0409667" lon="11.151195"><ele>275.0</ele><time>2026-03-29T08:25:23.309Z</time></trkpt><trkpt lat="44.0410417" lon="11.1511167"><ele>275.0</ele><time>2026-03-29T08:25:24.309Z</time></trkpt><trkpt lat="44.0411133" lon="11.151035"><ele>275.0</ele><time>2026-03-29T08:25:25.311Z</time></trkpt><trkpt lat="44.0411817" lon="11.1509583"><ele>275.0</ele><time>2026-03-29T08:25:26.309Z</time></trkpt><trkpt lat="44.0412517" lon="11.15089"><ele>275.0</ele><time>2026-03-29T08:25:27.31Z</time></trkpt><trkpt lat="44.041325" lon="11.1508267"><ele>275.0</ele><time>2026-03-29T08:25:28.309Z</time></trkpt><trkpt lat="44.041405" lon="11.1507833"><ele>275.0</ele><time>2026-03-29T08:25:29.31Z</time></trkpt><trkpt lat="44.0414783" lon="11.1507467"><ele>275.0</ele><time>2026-03-29T08:25:30.309Z</time></trkpt><trkpt lat="44.04155" lon="11.1507167"><ele>275.0</ele><time>2026-03-29T08:25:31.31Z</time></trkpt><trkpt lat="44.0416183" lon="11.1506817"><ele>275.0</ele><time>2026-03-29T08:25:32.309Z</time></trkpt><trkpt lat="44.0416817" lon="11.1506467"><ele>275.0</ele><time>2026-03-29T08:25:33.312Z</time></trkpt><trkpt lat="44.041745" lon="11.1506133"><ele>275.0</ele><time>2026-03-29T08:25:34.309Z</time></trkpt><trkpt lat="44.0418083" lon="11.1506"><ele>275.0</ele><time>2026-03-29T08:25:35.311Z</time></trkpt><trkpt lat="44.0418717" lon="11.15058"><ele>274.14285714285717</ele><time>2026-03-29T08:25:36.308Z</time></trkpt><trkpt lat="44.0419317" lon="11.15055"><ele>273.2857142857143</ele><time>2026-03-29T08:25:37.309Z</time></trkpt><trkpt lat="44.0419917" lon="11.1505233"><ele>272.42857142857144</ele><time>2026-03-29T08:25:38.31Z</time></trkpt><trkpt lat="44.04205" lon="11.1504867"><ele>271.57142857142856</ele><time>2026-03-29T08:25:39.31Z</time></trkpt><trkpt lat="44.0421133" lon="11.15046"><ele>270.7142857142857</ele><time>2026-03-29T08:25:40.309Z</time></trkpt><trkpt lat="44.0421717" lon="11.1504267"><ele>269.8571428571429</ele><time>2026-03-29T08:25:41.309Z</time></trkpt><trkpt lat="44.04223" lon="11.1503867"><ele>269.0</ele><time>2026-03-29T08:25:42.31Z</time></trkpt><trkpt lat="44.0422983" lon="11.1503483"><ele>269.0</ele><time>2026-03-29T08:25:43.31Z</time></trkpt><trkpt lat="44.0423683" lon="11.1502983"><ele>269.0</ele><time>2026-03-29T08:25:44.312Z</time></trkpt><trkpt lat="44.0424333" lon="11.150225"><ele>269.0</ele><time>2026-03-29T08:25:45.309Z</time></trkpt><trkpt lat="44.0424833" lon="11.1501317"><ele>269.0</ele><time>2026-03-29T08:25:46.309Z</time></trkpt><trkpt lat="44.042515" lon="11.1500217"><ele>269.0</ele><time>2026-03-29T08:25:47.309Z</time></trkpt><trkpt lat="44.0425367" lon="11.1499017"><ele>269.0</ele><time>2026-03-29T08:25:48.308Z</time></trkpt><trkpt lat="44.04256" lon="11.149785"><ele>268.33333333333337</ele><time>2026-03-29T08:25:49.308Z</time></trkpt><trkpt lat="44.042585" lon="11.1496733"><ele>267.6666666666667</ele><time>2026-03-29T08:25:50.31Z</time></trkpt><trkpt lat="44.042625" lon="11.149565"><ele>267.0</ele><time>2026-03-29T08:25:51.31Z</time></trkpt><trkpt lat="44.0426667" lon="11.14947"><ele>266.3333333333333</ele><time>2026-03-29T08:25:52.309Z</time></trkpt><trkpt lat="44.0427117" lon="11.1493717"><ele>265.66666666666663</ele><time>2026-03-29T08:25:53.309Z</time></trkpt><trkpt lat="44.0427733" lon="11.149295"><ele>265.0</ele><time>2026-03-29T08:25:54.31Z</time></trkpt><trkpt lat="44.04285" lon="11.1492467"><ele>265.0</ele><time>2026-03-29T08:25:55.31Z</time></trkpt><trkpt lat="44.0429367" lon="11.149225"><ele>265.0</ele><time>2026-03-29T08:25:56.308Z</time></trkpt><trkpt lat="44.0430317" lon="11.149245"><ele>265.0</ele><time>2026-03-29T08:25:57.307Z</time></trkpt><trkpt lat="44.043125" lon="11.1492867"><ele>265.0</ele><time>2026-03-29T08:25:58.31Z</time></trkpt><trkpt lat="44.0432217" lon="11.149335"><ele>265.0</ele><time>2026-03-29T08:25:59.309Z</time></trkpt><trkpt lat="44.0433217" lon="11.1493717"><ele>262.2</ele><time>2026-03-29T08:26:00.31Z</time></trkpt><trkpt lat="44.0434133" lon="11.14942"><ele>259.4</ele><time>2026-03-29T08:26:01.31Z</time></trkpt><trkpt lat="44.0435017" lon="11.1494667"><ele>256.6</ele><time>2026-03-29T08:26:02.31Z</time></trkpt><trkpt lat="44.0435883" lon="11.14951"><ele>253.8</ele><time>2026-03-29T08:26:03.309Z</time></trkpt><trkpt lat="44.04367" lon="11.1495517"><ele>251.0</ele><time>2026-03-29T08:26:04.309Z</time></trkpt><trkpt lat="44.0437483" lon="11.14959"><ele>250.99999999999997</ele><time>2026-03-29T08:26:05.309Z</time></trkpt><trkpt lat="44.0438183" lon="11.149625"><ele>251.0</ele><time>2026-03-29T08:26:06.31Z</time></trkpt><trkpt lat="44.043885" lon="11.14965"><ele>250.99999999999997</ele><time>2026-03-29T08:26:07.31Z</time></trkpt><trkpt lat="44.0439517" lon="11.1496733"><ele>250.99999999999997</ele><time>2026-03-29T08:26:08.309Z</time></trkpt><trkpt lat="44.044015" lon="11.1496967"><ele>251.0</ele><time>2026-03-29T08:26:09.309Z</time></trkpt><trkpt lat="44.044075" lon="11.149725"><ele>250.99999999999997</ele><time>2026-03-29T08:26:10.309Z</time></trkpt><trkpt lat="44.0441617" lon="11.1497917"><ele>250.99999999999997</ele><time>2026-03-29T08:26:12.312Z</time></trkpt><trkpt lat="44.0442417" lon="11.1498717"><ele>250.8</ele><time>2026-03-29T08:26:14.31Z</time></trkpt><trkpt lat="44.0443117" lon="11.1499733"><ele>250.60000000000002</ele><time>2026-03-29T08:26:16.309Z</time></trkpt><trkpt lat="44.04439" lon="11.1500783"><ele>250.4</ele><time>2026-03-29T08:26:18.31Z</time></trkpt><trkpt lat="44.044475" lon="11.1501867"><ele>250.2</ele><time>2026-03-29T08:26:20.31Z</time></trkpt><trkpt lat="44.044565" lon="11.150295"><ele>250.0</ele><time>2026-03-29T08:26:22.309Z</time></trkpt><trkpt lat="44.0446617" lon="11.1503967"><ele>250.0</ele><time>2026-03-29T08:26:24.309Z</time></trkpt><trkpt lat="44.04475" lon="11.1505017"><ele>250.0</ele><time>2026-03-29T08:26:26.31Z</time></trkpt><trkpt lat="44.044835" lon="11.150585"><ele>250.0</ele><time>2026-03-29T08:26:28.31Z</time></trkpt><trkpt lat="44.0449183" lon="11.1506483"><ele>250.0</ele><time>2026-03-29T08:26:30.31Z</time></trkpt><trkpt lat="44.0449983" lon="11.15072"><ele>250.0</ele><time>2026-03-29T08:26:32.311Z</time></trkpt><trkpt lat="44.045075" lon="11.150785"><ele>250.83333333333331</ele><time>2026-03-29T08:26:34.31Z</time></trkpt><trkpt lat="44.0451433" lon="11.150835"><ele>251.66666666666666</ele><time>2026-03-29T08:26:36.309Z</time></trkpt><trkpt lat="44.0452183" lon="11.150905"><ele>252.5</ele><time>2026-03-29T08:26:38.309Z</time></trkpt><trkpt lat="44.0452933" lon="11.1509833"><ele>253.33333333333331</ele><time>2026-03-29T08:26:40.31Z</time></trkpt><trkpt lat="44.045365" lon="11.1510383"><ele>254.16666666666666</ele><time>2026-03-29T08:26:42.31Z</time></trkpt><trkpt lat="44.0454467" lon="11.151075"><ele>255.0</ele><time>2026-03-29T08:26:44.309Z</time></trkpt><trkpt lat="44.0455367" lon="11.1511083"><ele>255.0</ele><time>2026-03-29T08:26:46.309Z</time></trkpt><trkpt lat="44.0456217" lon="11.1511633"><ele>255.0</ele><time>2026-03-29T08:26:48.309Z</time></trkpt><trkpt lat="44.0457033" lon="11.1512283"><ele>255.0</ele><time>2026-03-29T08:26:50.31Z</time></trkpt><trkpt lat="44.0457933" lon="11.1512483"><ele>255.0</ele><time>2026-03-29T08:26:52.311Z</time></trkpt><trkpt lat="44.0458867" lon="11.15122"><ele>255.0</ele><time>2026-03-29T08:26:54.309Z</time></trkpt><trkpt lat="44.0459833" lon="11.15121"><ele>257.2</ele><time>2026-03-29T08:26:56.311Z</time></trkpt><trkpt lat="44.046075" lon="11.15123"><ele>259.4</ele><time>2026-03-29T08:26:58.31Z</time></trkpt><trkpt lat="44.04617" lon="11.1512483"><ele>261.6</ele><time>2026-03-29T08:27:00.309Z</time></trkpt><trkpt lat="44.0462567" lon="11.15128"><ele>263.8</ele><time>2026-03-29T08:27:02.309Z</time></trkpt><trkpt lat="44.0463367" lon="11.15133"><ele>266.0</ele><time>2026-03-29T08:27:04.31Z</time></trkpt><trkpt lat="44.0464167" lon="11.1513983"><ele>266.0</ele><time>2026-03-29T08:27:06.309Z</time></trkpt><trkpt lat="44.04651" lon="11.1514717"><ele>266.0</ele><time>2026-03-29T08:27:08.31Z</time></trkpt><trkpt lat="44.046595" lon="11.15155"><ele>266.0</ele><time>2026-03-29T08:27:10.309Z</time></trkpt><trkpt lat="44.0466733" lon="11.15163"><ele>266.0</ele><time>2026-03-29T08:27:12.31Z</time></trkpt><trkpt lat="44.0467433" lon="11.1517167"><ele>266.0</ele><time>2026-03-29T08:27:14.309Z</time></trkpt><trkpt lat="44.046805" lon="11.1518183"><ele>265.40000000000003</ele><time>2026-03-29T08:27:16.308Z</time></trkpt><trkpt lat="44.0468567" lon="11.1519217"><ele>264.8</ele><time>2026-03-29T08:27:18.309Z</time></trkpt><trkpt lat="44.0469067" lon="11.1520333"><ele>264.20000000000005</ele><time>2026-03-29T08:27:20.31Z</time></trkpt><trkpt lat="44.0469517" lon="11.1521567"><ele>263.6</ele><time>2026-03-29T08:27:22.31Z</time></trkpt><trkpt lat="44.0469933" lon="11.15228"><ele>263.0</ele><time>2026-03-29T08:27:24.309Z</time></trkpt><trkpt lat="44.04704" lon="11.1523933"><ele>263.0</ele><time>2026-03-29T08:27:26.31Z</time></trkpt><trkpt lat="44.047085" lon="11.152505"><ele>263.0</ele><time>2026-03-29T08:27:28.307Z</time></trkpt><trkpt lat="44.04714" lon="11.15261"><ele>263.0</ele><time>2026-03-29T08:27:30.31Z</time></trkpt><trkpt lat="44.047195" lon="11.1526983"><ele>263.0</ele><time>2026-03-29T08:27:32.309Z</time></trkpt><trkpt lat="44.0472467" lon="11.1527967"><ele>263.0</ele><time>2026-03-29T08:27:34.309Z</time></trkpt><trkpt lat="44.0473067" lon="11.1529033"><ele>263.0</ele><time>2026-03-29T08:27:36.313Z</time></trkpt><trkpt lat="44.0473717" lon="11.1530133"><ele>263.0</ele><time>2026-03-29T08:27:38.309Z</time></trkpt><trkpt lat="44.0474367" lon="11.1531367"><ele>263.0</ele><time>2026-03-29T08:27:40.312Z</time></trkpt><trkpt lat="44.04749" lon="11.1532733"><ele>263.0</ele><time>2026-03-29T08:27:42.309Z</time></trkpt><trkpt lat="44.0475067" lon="11.15342"><ele>263.0</ele><time>2026-03-29T08:27:44.311Z</time></trkpt><trkpt lat="44.0475367" lon="11.1535667"><ele>264.6</ele><time>2026-03-29T08:27:46.31Z</time></trkpt><trkpt lat="44.047615" lon="11.15367"><ele>266.20000000000005</ele><time>2026-03-29T08:27:48.31Z</time></trkpt><trkpt lat="44.0477333" lon="11.1537017"><ele>267.8</ele><time>2026-03-29T08:27:50.31Z</time></trkpt><trkpt lat="44.0478483" lon="11.1537583"><ele>269.40000000000003</ele><time>2026-03-29T08:27:52.309Z</time></trkpt><trkpt lat="44.0479" lon="11.1538167"><ele>271.0</ele><time>2026-03-29T08:27:53.309Z</time></trkpt><trkpt lat="44.04794" lon="11.15389"><ele>270.0</ele><time>2026-03-29T08:27:54.312Z</time></trkpt><trkpt lat="44.04799" lon="11.1540517"><ele>269.0</ele><time>2026-03-29T08:27:56.311Z</time></trkpt><trkpt lat="44.0480083" lon="11.15414"><ele>268.0</ele><time>2026-03-29T08:27:57.311Z</time></trkpt><trkpt lat="44.0480267" lon="11.15423"><ele>267.0</ele><time>2026-03-29T08:27:58.307Z</time></trkpt><trkpt lat="44.04804" lon="11.154325"><ele>266.0</ele><time>2026-03-29T08:27:59.308Z</time></trkpt><trkpt lat="44.0480517" lon="11.1544267"><ele>265.0</ele><time>2026-03-29T08:28:00.31Z</time></trkpt><trkpt lat="44.0480583" lon="11.1545267"><ele>264.99999999999994</ele><time>2026-03-29T08:28:01.307Z</time></trkpt><trkpt lat="44.0480633" lon="11.154625"><ele>265.0</ele><time>2026-03-29T08:28:02.312Z</time></trkpt><trkpt lat="44.0480583" lon="11.1547217"><ele>265.0</ele><time>2026-03-29T08:28:03.309Z</time></trkpt><trkpt lat="44.0480433" lon="11.15482"><ele>265.0</ele><time>2026-03-29T08:28:04.308Z</time></trkpt><trkpt lat="44.0480217" lon="11.154915"><ele>265.0</ele><time>2026-03-29T08:28:05.309Z</time></trkpt><trkpt lat="44.048" lon="11.1550083"><ele>264.99999999999994</ele><time>2026-03-29T08:28:06.309Z</time></trkpt><trkpt lat="44.04798" lon="11.1551017"><ele>265.0</ele><time>2026-03-29T08:28:07.309Z</time></trkpt><trkpt lat="44.0479683" lon="11.1551917"><ele>264.8</ele><time>2026-03-29T08:28:08.311Z</time></trkpt><trkpt lat="44.0479633" lon="11.1553667"><ele>264.6</ele><time>2026-03-29T08:28:10.309Z</time></trkpt><trkpt lat="44.04797" lon="11.1554567"><ele>264.4</ele><time>2026-03-29T08:28:11.311Z</time></trkpt><trkpt lat="44.04798" lon="11.1555433"><ele>264.2</ele><time>2026-03-29T08:28:12.313Z</time></trkpt><trkpt lat="44.0480217" lon="11.1557017"><ele>264.0</ele><time>2026-03-29T08:28:14.31Z</time></trkpt><trkpt lat="44.0480817" lon="11.1558467"><ele>264.3333333333333</ele><time>2026-03-29T08:28:16.313Z</time></trkpt><trkpt lat="44.0481633" lon="11.15598"><ele>264.6666666666667</ele><time>2026-03-29T08:28:18.31Z</time></trkpt><trkpt lat="44.048215" lon="11.1560367"><ele>265.0</ele><time>2026-03-29T08:28:19.309Z</time></trkpt><trkpt lat="44.04827" lon="11.1560833"><ele>265.33333333333337</ele><time>2026-03-29T08:28:20.313Z</time></trkpt><trkpt lat="44.04833" lon="11.156125"><ele>265.6666666666667</ele><time>2026-03-29T08:28:21.309Z</time></trkpt><trkpt lat="44.0483933" lon="11.15616"><ele>266.0</ele><time>2026-03-29T08:28:22.311Z</time></trkpt><trkpt lat="44.0484583" lon="11.1561917"><ele>266.7142857142857</ele><time>2026-03-29T08:28:23.31Z</time></trkpt><trkpt lat="44.0485283" lon="11.15622"><ele>267.42857142857144</ele><time>2026-03-29T08:28:24.313Z</time></trkpt><trkpt lat="44.0485983" lon="11.1562483"><ele>268.1428571428571</ele><time>2026-03-29T08:28:25.309Z</time></trkpt><trkpt lat="44.0486733" lon="11.156275"><ele>268.8571428571429</ele><time>2026-03-29T08:28:26.309Z</time></trkpt><trkpt lat="44.048745" lon="11.1563033"><ele>269.57142857142856</ele><time>2026-03-29T08:28:27.308Z</time></trkpt><trkpt lat="44.0488183" lon="11.1563267"><ele>270.2857142857143</ele><time>2026-03-29T08:28:28.309Z</time></trkpt><trkpt lat="44.0488917" lon="11.1563517"><ele>271.0</ele><time>2026-03-29T08:28:29.311Z</time></trkpt><trkpt lat="44.0489633" lon="11.1563767"><ele>271.0</ele><time>2026-03-29T08:28:30.311Z</time></trkpt><trkpt lat="44.0490367" lon="11.1564"><ele>271.0</ele><time>2026-03-29T08:28:31.311Z</time></trkpt><trkpt lat="44.0491117" lon="11.1564217"><ele>271.0</ele><time>2026-03-29T08:28:32.311Z</time></trkpt><trkpt lat="44.049185" lon="11.1564417"><ele>271.0</ele><time>2026-03-29T08:28:33.308Z</time></trkpt><trkpt lat="44.0492567" lon="11.156465"><ele>271.0</ele><time>2026-03-29T08:28:34.308Z</time></trkpt><trkpt lat="44.0493283" lon="11.15649"><ele>271.0</ele><time>2026-03-29T08:28:35.313Z</time></trkpt><trkpt lat="44.0494017" lon="11.1565117"><ele>271.0</ele><time>2026-03-29T08:28:36.312Z</time></trkpt><trkpt lat="44.049475" lon="11.1565233"><ele>273.85714285714283</ele><time>2026-03-29T08:28:37.31Z</time></trkpt><trkpt lat="44.049545" lon="11.1565267"><ele>276.7142857142857</ele><time>2026-03-29T08:28:38.309Z</time></trkpt><trkpt lat="44.0496167" lon="11.1565267"><ele>279.57142857142856</ele><time>2026-03-29T08:28:39.31Z</time></trkpt><trkpt lat="44.049685" lon="11.1565217"><ele>282.42857142857144</ele><time>2026-03-29T08:28:40.31Z</time></trkpt><trkpt lat="44.0497567" lon="11.156515"><ele>285.2857142857143</ele><time>2026-03-29T08:28:41.309Z</time></trkpt><trkpt lat="44.0498283" lon="11.1565083"><ele>288.1428571428571</ele><time>2026-03-29T08:28:42.309Z</time></trkpt><trkpt lat="44.0498983" lon="11.1565017"><ele>291.0</ele><time>2026-03-29T08:28:43.309Z</time></trkpt><trkpt lat="44.0499667" lon="11.156495"><ele>291.0</ele><time>2026-03-29T08:28:44.308Z</time></trkpt><trkpt lat="44.0500333" lon="11.156485"><ele>291.0</ele><time>2026-03-29T08:28:45.309Z</time></trkpt><trkpt lat="44.0500967" lon="11.1564767"><ele>291.0</ele><time>2026-03-29T08:28:46.31Z</time></trkpt><trkpt lat="44.0501617" lon="11.1564717"><ele>291.0</ele><time>2026-03-29T08:28:47.309Z</time></trkpt><trkpt lat="44.0502783" lon="11.156455"><ele>291.0</ele><time>2026-03-29T08:28:49.313Z</time></trkpt><trkpt lat="44.0503983" lon="11.1564367"><ele>291.0</ele><time>2026-03-29T08:28:51.309Z</time></trkpt><trkpt lat="44.0505217" lon="11.1564233"><ele>291.0</ele><time>2026-03-29T08:28:53.31Z</time></trkpt><trkpt lat="44.0505883" lon="11.156425"><ele>291.0</ele><time>2026-03-29T08:28:54.311Z</time></trkpt><trkpt lat="44.0507117" lon="11.15642"><ele>291.0</ele><time>2026-03-29T08:28:56.308Z</time></trkpt><trkpt lat="44.0508333" lon="11.156415"><ele>291.0</ele><time>2026-03-29T08:28:58.311Z</time></trkpt><trkpt lat="44.050945" lon="11.1564067"><ele>291.0</ele><time>2026-03-29T08:29:00.311Z</time></trkpt><trkpt lat="44.0510583" lon="11.1564"><ele>289.0</ele><time>2026-03-29T08:29:02.309Z</time></trkpt><trkpt lat="44.0511717" lon="11.1563983"><ele>287.0</ele><time>2026-03-29T08:29:04.309Z</time></trkpt><trkpt lat="44.051285" lon="11.1563883"><ele>285.0</ele><time>2026-03-29T08:29:06.31Z</time></trkpt><trkpt lat="44.0513967" lon="11.1563717"><ele>283.0</ele><time>2026-03-29T08:29:08.309Z</time></trkpt><trkpt lat="44.0515" lon="11.1563533"><ele>281.0</ele><time>2026-03-29T08:29:10.309Z</time></trkpt><trkpt lat="44.0515983" lon="11.1563367"><ele>281.8</ele><time>2026-03-29T08:29:12.309Z</time></trkpt><trkpt lat="44.0517067" lon="11.156315"><ele>282.6</ele><time>2026-03-29T08:29:14.31Z</time></trkpt><trkpt lat="44.05181" lon="11.1563"><ele>283.4</ele><time>2026-03-29T08:29:16.31Z</time></trkpt><trkpt lat="44.0519083" lon="11.1562617"><ele>284.2</ele><time>2026-03-29T08:29:18.31Z</time></trkpt><trkpt lat="44.0520033" lon="11.156215"><ele>285.0</ele><time>2026-03-29T08:29:20.312Z</time></trkpt><trkpt lat="44.0521033" lon="11.1561567"><ele>285.0</ele><time>2026-03-29T08:29:22.307Z</time></trkpt><trkpt lat="44.0521917" lon="11.1560933"><ele>285.0</ele><time>2026-03-29T08:29:24.309Z</time></trkpt><trkpt lat="44.0522783" lon="11.1560367"><ele>285.0</ele><time>2026-03-29T08:29:26.309Z</time></trkpt><trkpt lat="44.0523683" lon="11.155985"><ele>285.0</ele><time>2026-03-29T08:29:28.308Z</time></trkpt><trkpt lat="44.0524533" lon="11.1559283"><ele>285.0</ele><time>2026-03-29T08:29:30.31Z</time></trkpt><trkpt lat="44.052535" lon="11.1558683"><ele>284.3333333333333</ele><time>2026-03-29T08:29:32.309Z</time></trkpt><trkpt lat="44.0526167" lon="11.1558117"><ele>283.6666666666667</ele><time>2026-03-29T08:29:34.308Z</time></trkpt><trkpt lat="44.0526917" lon="11.155755"><ele>283.0</ele><time>2026-03-29T08:29:36.309Z</time></trkpt><trkpt lat="44.052765" lon="11.1557017"><ele>282.33333333333337</ele><time>2026-03-29T08:29:38.309Z</time></trkpt><trkpt lat="44.0528383" lon="11.15565"><ele>281.6666666666667</ele><time>2026-03-29T08:29:40.308Z</time></trkpt><trkpt lat="44.0529133" lon="11.15559"><ele>281.0</ele><time>2026-03-29T08:29:42.31Z</time></trkpt><trkpt lat="44.0529867" lon="11.15553"><ele>282.40000000000003</ele><time>2026-03-29T08:29:44.309Z</time></trkpt><trkpt lat="44.0530617" lon="11.1554733"><ele>283.8</ele><time>2026-03-29T08:29:46.309Z</time></trkpt><trkpt lat="44.0531417" lon="11.1554217"><ele>285.20000000000005</ele><time>2026-03-29T08:29:48.309Z</time></trkpt><trkpt lat="44.0532233" lon="11.1553617"><ele>286.6</ele><time>2026-03-29T08:29:50.31Z</time></trkpt><trkpt lat="44.0533017" lon="11.1552917"><ele>288.0</ele><time>2026-03-29T08:29:52.31Z</time></trkpt><trkpt lat="44.0533733" lon="11.1552083"><ele>288.0</ele><time>2026-03-29T08:29:54.31Z</time></trkpt><trkpt lat="44.05345" lon="11.15513"><ele>288.0</ele><time>2026-03-29T08:29:56.313Z</time></trkpt><trkpt lat="44.0535217" lon="11.1550367"><ele>288.0</ele><time>2026-03-29T08:29:58.313Z</time></trkpt><trkpt lat="44.0535967" lon="11.154945"><ele>288.0</ele><time>2026-03-29T08:30:00.31Z</time></trkpt><trkpt lat="44.0536583" lon="11.154855"><ele>288.0</ele><time>2026-03-29T08:30:02.31Z</time></trkpt><trkpt lat="44.0537183" lon="11.1547617"><ele>289.8333333333333</ele><time>2026-03-29T08:30:04.31Z</time></trkpt><trkpt lat="44.05378" lon="11.154675"><ele>291.6666666666667</ele><time>2026-03-29T08:30:06.31Z</time></trkpt><trkpt lat="44.0538267" lon="11.15458"><ele>293.5</ele><time>2026-03-29T08:30:08.309Z</time></trkpt><trkpt lat="44.0538817" lon="11.1545033"><ele>295.33333333333337</ele><time>2026-03-29T08:30:10.308Z</time></trkpt><trkpt lat="44.053935" lon="11.1544217"><ele>297.1666666666667</ele><time>2026-03-29T08:30:12.308Z</time></trkpt><trkpt lat="44.0539933" lon="11.154335"><ele>299.0</ele><time>2026-03-29T08:30:14.31Z</time></trkpt><trkpt lat="44.054045" lon="11.15425"><ele>299.0</ele><time>2026-03-29T08:30:16.31Z</time></trkpt><trkpt lat="44.0540933" lon="11.1541483"><ele>299.0</ele><time>2026-03-29T08:30:18.309Z</time></trkpt><trkpt lat="44.0541567" lon="11.154085"><ele>299.0</ele><time>2026-03-29T08:30:20.31Z</time></trkpt><trkpt lat="44.0542117" lon="11.1540183"><ele>299.0</ele><time>2026-03-29T08:30:22.307Z</time></trkpt><trkpt lat="44.0542667" lon="11.1539367"><ele>299.0</ele><time>2026-03-29T08:30:24.307Z</time></trkpt><trkpt lat="44.05432" lon="11.1538717"><ele>299.0</ele><time>2026-03-29T08:30:26.307Z</time></trkpt><trkpt lat="44.0543833" lon="11.1537733"><ele>302.1428571428571</ele><time>2026-03-29T08:30:29.307Z</time></trkpt><trkpt lat="44.0544183" lon="11.1536967"><ele>305.2857142857143</ele><time>2026-03-29T08:30:31.307Z</time></trkpt><trkpt lat="44.0544767" lon="11.15363"><ele>308.42857142857144</ele><time>2026-03-29T08:30:33.311Z</time></trkpt><trkpt lat="44.0545383" lon="11.1535583"><ele>311.57142857142856</ele><time>2026-03-29T08:30:35.31Z</time></trkpt><trkpt lat="44.0545833" lon="11.15347"><ele>314.7142857142857</ele><time>2026-03-29T08:30:37.311Z</time></trkpt><trkpt lat="44.0546217" lon="11.1533983"><ele>317.85714285714283</ele><time>2026-03-29T08:30:39.308Z</time></trkpt><trkpt lat="44.0546767" lon="11.1533267"><ele>321.0</ele><time>2026-03-29T08:30:41.31Z</time></trkpt><trkpt lat="44.0547217" lon="11.1532433"><ele>321.85714285714283</ele><time>2026-03-29T08:30:43.31Z</time></trkpt><trkpt lat="44.05477" lon="11.15317"><ele>322.7142857142857</ele><time>2026-03-29T08:30:45.311Z</time></trkpt><trkpt lat="44.0548217" lon="11.1530933"><ele>323.57142857142856</ele><time>2026-03-29T08:30:47.31Z</time></trkpt><trkpt lat="44.0548717" lon="11.1530233"><ele>324.42857142857144</ele><time>2026-03-29T08:30:49.309Z</time></trkpt><trkpt lat="44.0549267" lon="11.15295"><ele>325.2857142857143</ele><time>2026-03-29T08:30:51.309Z</time></trkpt><trkpt lat="44.0549883" lon="11.1528883"><ele>326.1428571428571</ele><time>2026-03-29T08:30:53.309Z</time></trkpt><trkpt lat="44.0550567" lon="11.15284"><ele>327.0</ele><time>2026-03-29T08:30:55.31Z</time></trkpt><trkpt lat="44.0551217" lon="11.152785"><ele>327.0</ele><time>2026-03-29T08:30:57.31Z</time></trkpt><trkpt lat="44.05518" lon="11.152725"><ele>327.0</ele><time>2026-03-29T08:30:59.309Z</time></trkpt><trkpt lat="44.0552417" lon="11.15267"><ele>327.0</ele><time>2026-03-29T08:31:01.311Z</time></trkpt><trkpt lat="44.055305" lon="11.1526117"><ele>327.0</ele><time>2026-03-29T08:31:03.31Z</time></trkpt><trkpt lat="44.055375" lon="11.1525533"><ele>327.0</ele><time>2026-03-29T08:31:05.31Z</time></trkpt><trkpt lat="44.0554433" lon="11.1524967"><ele>327.0</ele><time>2026-03-29T08:31:07.309Z</time></trkpt><trkpt lat="44.0555017" lon="11.1524367"><ele>327.0</ele><time>2026-03-29T08:31:09.309Z</time></trkpt><trkpt lat="44.05557" lon="11.1523883"><ele>327.0</ele><time>2026-03-29T08:31:11.308Z</time></trkpt><trkpt lat="44.0556383" lon="11.1523467"><ele>327.0</ele><time>2026-03-29T08:31:13.307Z</time></trkpt><trkpt lat="44.0557133" lon="11.152325"><ele>327.0</ele><time>2026-03-29T08:31:15.31Z</time></trkpt><trkpt lat="44.0557917" lon="11.1523083"><ele>327.0</ele><time>2026-03-29T08:31:17.307Z</time></trkpt><trkpt lat="44.0558683" lon="11.1522933"><ele>327.0</ele><time>2026-03-29T08:31:19.307Z</time></trkpt><trkpt lat="44.0559433" lon="11.152275"><ele>331.0</ele><time>2026-03-29T08:31:21.308Z</time></trkpt><trkpt lat="44.056025" lon="11.1522417"><ele>335.0</ele><time>2026-03-29T08:31:23.308Z</time></trkpt><trkpt lat="44.05611" lon="11.1522183"><ele>339.0</ele><time>2026-03-29T08:31:25.31Z</time></trkpt><trkpt lat="44.05619" lon="11.1522"><ele>343.0</ele><time>2026-03-29T08:31:27.308Z</time></trkpt><trkpt lat="44.0562617" lon="11.1521783"><ele>347.0</ele><time>2026-03-29T08:31:29.312Z</time></trkpt><trkpt lat="44.0563383" lon="11.1521633"><ele>351.0</ele><time>2026-03-29T08:31:31.309Z</time></trkpt><trkpt lat="44.0564667" lon="11.1521317"><ele>351.0</ele><time>2026-03-29T08:31:34.309Z</time></trkpt><trkpt lat="44.056555" lon="11.152135"><ele>351.0</ele><time>2026-03-29T08:31:36.31Z</time></trkpt><trkpt lat="44.05664" lon="11.1521483"><ele>351.0</ele><time>2026-03-29T08:31:38.309Z</time></trkpt><trkpt lat="44.056725" lon="11.1521783"><ele>351.0</ele><time>2026-03-29T08:31:40.31Z</time></trkpt><trkpt lat="44.0568133" lon="11.1522133"><ele>351.0</ele><time>2026-03-29T08:31:42.309Z</time></trkpt><trkpt lat="44.0568917" lon="11.1522483"><ele>351.0</ele><time>2026-03-29T08:31:44.308Z</time></trkpt><trkpt lat="44.0569733" lon="11.15227"><ele>348.1666666666667</ele><time>2026-03-29T08:31:46.308Z</time></trkpt><trkpt lat="44.0570633" lon="11.152275"><ele>345.3333333333333</ele><time>2026-03-29T08:31:48.309Z</time></trkpt><trkpt lat="44.0571417" lon="11.1522567"><ele>342.5</ele><time>2026-03-29T08:31:50.309Z</time></trkpt><trkpt lat="44.0572117" lon="11.152235"><ele>339.66666666666663</ele><time>2026-03-29T08:31:52.31Z</time></trkpt><trkpt lat="44.0572817" lon="11.15219"><ele>336.8333333333333</ele><time>2026-03-29T08:31:54.309Z</time></trkpt><trkpt lat="44.057355" lon="11.152145"><ele>334.0</ele><time>2026-03-29T08:31:56.31Z</time></trkpt><trkpt lat="44.05742" lon="11.1520917"><ele>333.57142857142856</ele><time>2026-03-29T08:31:58.308Z</time></trkpt><trkpt lat="44.0574833" lon="11.152035"><ele>333.14285714285717</ele><time>2026-03-29T08:32:00.308Z</time></trkpt><trkpt lat="44.057545" lon="11.1519717"><ele>332.7142857142857</ele><time>2026-03-29T08:32:02.309Z</time></trkpt><trkpt lat="44.0576033" lon="11.1519167"><ele>332.2857142857143</ele><time>2026-03-29T08:32:04.309Z</time></trkpt><trkpt lat="44.057665" lon="11.151855"><ele>331.85714285714283</ele><time>2026-03-29T08:32:06.31Z</time></trkpt><trkpt lat="44.0577283" lon="11.15181"><ele>331.42857142857144</ele><time>2026-03-29T08:32:08.308Z</time></trkpt><trkpt lat="44.05779" lon="11.15176"><ele>331.0</ele><time>2026-03-29T08:32:10.308Z</time></trkpt><trkpt lat="44.0578533" lon="11.1517167"><ele>331.0</ele><time>2026-03-29T08:32:12.308Z</time></trkpt><trkpt lat="44.0579133" lon="11.1516767"><ele>331.0</ele><time>2026-03-29T08:32:14.309Z</time></trkpt><trkpt lat="44.0579733" lon="11.1516217"><ele>331.0</ele><time>2026-03-29T08:32:16.31Z</time></trkpt><trkpt lat="44.05804" lon="11.1515783"><ele>331.0</ele><time>2026-03-29T08:32:18.309Z</time></trkpt><trkpt lat="44.05811" lon="11.1515467"><ele>331.0</ele><time>2026-03-29T08:32:20.31Z</time></trkpt><trkpt lat="44.0581683" lon="11.151505"><ele>331.0</ele><time>2026-03-29T08:32:22.309Z</time></trkpt><trkpt lat="44.0582283" lon="11.15146"><ele>331.0</ele><time>2026-03-29T08:32:24.311Z</time></trkpt><trkpt lat="44.0582933" lon="11.1514133"><ele>334.2857142857143</ele><time>2026-03-29T08:32:26.309Z</time></trkpt><trkpt lat="44.058355" lon="11.1513683"><ele>337.57142857142856</ele><time>2026-03-29T08:32:28.308Z</time></trkpt><trkpt lat="44.0584167" lon="11.1513317"><ele>340.8571428571429</ele><time>2026-03-29T08:32:30.31Z</time></trkpt><trkpt lat="44.0584783" lon="11.1512833"><ele>344.1428571428571</ele><time>2026-03-29T08:32:32.31Z</time></trkpt><trkpt lat="44.0585317" lon="11.1512217"><ele>347.4285714285714</ele><time>2026-03-29T08:32:34.309Z</time></trkpt><trkpt lat="44.0585883" lon="11.1511667"><ele>350.7142857142857</ele><time>2026-03-29T08:32:36.308Z</time></trkpt><trkpt lat="44.05865" lon="11.15112"><ele>354.0</ele><time>2026-03-29T08:32:38.311Z</time></trkpt><trkpt lat="44.0587083" lon="11.1510717"><ele>354.0</ele><time>2026-03-29T08:32:40.31Z</time></trkpt><trkpt lat="44.058765" lon="11.1510183"><ele>354.0</ele><time>2026-03-29T08:32:42.311Z</time></trkpt><trkpt lat="44.05882" lon="11.1509667"><ele>354.0</ele><time>2026-03-29T08:32:44.31Z</time></trkpt><trkpt lat="44.0588683" lon="11.15091"><ele>354.0</ele><time>2026-03-29T08:32:46.309Z</time></trkpt><trkpt lat="44.0589333" lon="11.150815"><ele>354.0</ele><time>2026-03-29T08:32:49.312Z</time></trkpt><trkpt lat="44.0589883" lon="11.1507533"><ele>354.0</ele><time>2026-03-29T08:32:51.31Z</time></trkpt><trkpt lat="44.0590467" lon="11.150705"><ele>354.0</ele><time>2026-03-29T08:32:53.308Z</time></trkpt><trkpt lat="44.059125" lon="11.1506467"><ele>355.2857142857143</ele><time>2026-03-29T08:32:56.309Z</time></trkpt><trkpt lat="44.0591883" lon="11.15061"><ele>356.57142857142856</ele><time>2026-03-29T08:32:58.311Z</time></trkpt><trkpt lat="44.0592617" lon="11.1505767"><ele>357.85714285714283</ele><time>2026-03-29T08:33:00.312Z</time></trkpt><trkpt lat="44.05933" lon="11.1505333"><ele>359.1428571428571</ele><time>2026-03-29T08:33:02.31Z</time></trkpt><trkpt lat="44.059395" lon="11.15049"><ele>360.42857142857144</ele><time>2026-03-29T08:33:04.308Z</time></trkpt><trkpt lat="44.0594533" lon="11.1504367"><ele>361.71428571428567</ele><time>2026-03-29T08:33:06.31Z</time></trkpt><trkpt lat="44.0595083" lon="11.150385"><ele>363.0</ele><time>2026-03-29T08:33:08.308Z</time></trkpt><trkpt lat="44.0595717" lon="11.1503433"><ele>362.99999999999994</ele><time>2026-03-29T08:33:10.31Z</time></trkpt><trkpt lat="44.0596333" lon="11.150295"><ele>363.0</ele><time>2026-03-29T08:33:12.308Z</time></trkpt><trkpt lat="44.0596983" lon="11.15027"><ele>363.0</ele><time>2026-03-29T08:33:14.308Z</time></trkpt><trkpt lat="44.0597683" lon="11.1502517"><ele>363.0</ele><time>2026-03-29T08:33:16.309Z</time></trkpt><trkpt lat="44.05983" lon="11.1502333"><ele>363.0</ele><time>2026-03-29T08:33:18.309Z</time></trkpt><trkpt lat="44.0598967" lon="11.1502483"><ele>362.99999999999994</ele><time>2026-03-29T08:33:20.308Z</time></trkpt><trkpt lat="44.059965" lon="11.1502483"><ele>363.0</ele><time>2026-03-29T08:33:22.309Z</time></trkpt><trkpt lat="44.0600533" lon="11.1502283"><ele>359.57142857142856</ele><time>2026-03-29T08:33:25.308Z</time></trkpt><trkpt lat="44.0601117" lon="11.1501883"><ele>356.1428571428571</ele><time>2026-03-29T08:33:27.31Z</time></trkpt><trkpt lat="44.0601683" lon="11.150135"><ele>352.71428571428567</ele><time>2026-03-29T08:33:29.31Z</time></trkpt><trkpt lat="44.0602267" lon="11.1500733"><ele>349.2857142857143</ele><time>2026-03-29T08:33:31.311Z</time></trkpt><trkpt lat="44.0602767" lon="11.14999"><ele>345.8571428571429</ele><time>2026-03-29T08:33:33.309Z</time></trkpt><trkpt lat="44.0603067" lon="11.1498967"><ele>342.4285714285714</ele><time>2026-03-29T08:33:35.309Z</time></trkpt><trkpt lat="44.06033" lon="11.1498017"><ele>339.0</ele><time>2026-03-29T08:33:37.31Z</time></trkpt><trkpt lat="44.0603667" lon="11.1497117"><ele>346.57142857142856</ele><time>2026-03-29T08:33:39.308Z</time></trkpt><trkpt lat="44.0603917" lon="11.149625"><ele>354.14285714285717</ele><time>2026-03-29T08:33:41.308Z</time></trkpt><trkpt lat="44.0604133" lon="11.1495383"><ele>361.7142857142857</ele><time>2026-03-29T08:33:43.309Z</time></trkpt><trkpt lat="44.0604383" lon="11.1494533"><ele>369.2857142857143</ele><time>2026-03-29T08:33:45.311Z</time></trkpt><trkpt lat="44.06047" lon="11.1493733"><ele>376.8571428571429</ele><time>2026-03-29T08:33:47.311Z</time></trkpt><trkpt lat="44.0605067" lon="11.1493"><ele>384.42857142857144</ele><time>2026-03-29T08:33:49.31Z</time></trkpt><trkpt lat="44.0605383" lon="11.1492217"><ele>392.0</ele><time>2026-03-29T08:33:51.311Z</time></trkpt><trkpt lat="44.060605" lon="11.1491383"><ele>392.0</ele><time>2026-03-29T08:33:54.31Z</time></trkpt><trkpt lat="44.0606567" lon="11.1490783"><ele>392.0</ele><time>2026-03-29T08:33:56.309Z</time></trkpt><trkpt lat="44.06071" lon="11.149025"><ele>392.0</ele><time>2026-03-29T08:33:58.311Z</time></trkpt><trkpt lat="44.0607767" lon="11.1489783"><ele>392.0</ele><time>2026-03-29T08:34:00.31Z</time></trkpt><trkpt lat="44.060835" lon="11.148915"><ele>392.0</ele><time>2026-03-29T08:34:02.309Z</time></trkpt><trkpt lat="44.0608833" lon="11.1488483"><ele>392.0</ele><time>2026-03-29T08:34:04.309Z</time></trkpt><trkpt lat="44.0609367" lon="11.1487917"><ele>392.0</ele><time>2026-03-29T08:34:06.311Z</time></trkpt><trkpt lat="44.0609833" lon="11.1487317"><ele>389.66666666666663</ele><time>2026-03-29T08:34:08.308Z</time></trkpt><trkpt lat="44.061035" lon="11.1486733"><ele>387.3333333333333</ele><time>2026-03-29T08:34:10.31Z</time></trkpt><trkpt lat="44.061085" lon="11.14857"><ele>385.0</ele><time>2026-03-29T08:34:13.309Z</time></trkpt><trkpt lat="44.0611183" lon="11.1484917"><ele>382.66666666666663</ele><time>2026-03-29T08:34:15.311Z</time></trkpt><trkpt lat="44.06116" lon="11.14838"><ele>380.3333333333333</ele><time>2026-03-29T08:34:18.31Z</time></trkpt><trkpt lat="44.0611983" lon="11.1482917"><ele>378.0</ele><time>2026-03-29T08:34:21.307Z</time></trkpt><trkpt lat="44.0612383" lon="11.148215"><ele>376.0</ele><time>2026-03-29T08:34:24.309Z</time></trkpt><trkpt lat="44.0613167" lon="11.1481167"><ele>374.0</ele><time>2026-03-29T08:34:57.307Z</time></trkpt><trkpt lat="44.0613683" lon="11.148045"><ele>372.0</ele><time>2026-03-29T08:35:00.308Z</time></trkpt><trkpt lat="44.06143" lon="11.1479667"><ele>370.0</ele><time>2026-03-29T08:35:03.308Z</time></trkpt><trkpt lat="44.0615" lon="11.1478767"><ele>368.0</ele><time>2026-03-29T08:35:06.31Z</time></trkpt><trkpt lat="44.061555" lon="11.1478333"><ele>366.0</ele><time>2026-03-29T08:35:08.309Z</time></trkpt><trkpt lat="44.0616167" lon="11.1477933"><ele>366.0</ele><time>2026-03-29T08:35:10.31Z</time></trkpt><trkpt lat="44.061675" lon="11.1477467"><ele>366.0</ele><time>2026-03-29T08:35:12.309Z</time></trkpt><trkpt lat="44.0617317" lon="11.14769"><ele>366.0</ele><time>2026-03-29T08:35:14.308Z</time></trkpt><trkpt lat="44.0618083" lon="11.1476117"><ele>366.0</ele><time>2026-03-29T08:35:17.307Z</time></trkpt><trkpt lat="44.061865" lon="11.1475683"><ele>366.0</ele><time>2026-03-29T08:35:19.309Z</time></trkpt><trkpt lat="44.06193" lon="11.1474883"><ele>366.0</ele><time>2026-03-29T08:35:22.309Z</time></trkpt><trkpt lat="44.0620033" lon="11.1474183"><ele>374.8333333333333</ele><time>2026-03-29T08:35:25.31Z</time></trkpt><trkpt lat="44.06208" lon="11.147355"><ele>383.66666666666663</ele><time>2026-03-29T08:35:28.309Z</time></trkpt><trkpt lat="44.06216" lon="11.1472933"><ele>392.5</ele><time>2026-03-29T08:35:31.309Z</time></trkpt><trkpt lat="44.06224" lon="11.147225"><ele>401.3333333333333</ele><time>2026-03-29T08:35:34.309Z</time></trkpt><trkpt lat="44.062295" lon="11.1471717"><ele>410.16666666666663</ele><time>2026-03-29T08:35:36.309Z</time></trkpt><trkpt lat="44.06235" lon="11.1471217"><ele>419.0</ele><time>2026-03-29T08:35:38.309Z</time></trkpt><trkpt lat="44.062415" lon="11.1470333"><ele>415.99999999999994</ele><time>2026-03-29T08:35:41.31Z</time></trkpt><trkpt lat="44.0624783" lon="11.1469533"><ele>413.0</ele><time>2026-03-29T08:35:44.31Z</time></trkpt><trkpt lat="44.0625433" lon="11.14687"><ele>410.0</ele><time>2026-03-29T08:35:47.309Z</time></trkpt><trkpt lat="44.0626133" lon="11.146785"><ele>407.0</ele><time>2026-03-29T08:35:50.309Z</time></trkpt><trkpt lat="44.0626767" lon="11.1466883"><ele>403.99999999999994</ele><time>2026-03-29T08:35:53.308Z</time></trkpt><trkpt lat="44.0627183" lon="11.1466217"><ele>401.0</ele><time>2026-03-29T08:35:55.31Z</time></trkpt><trkpt lat="44.0627617" lon="11.14651"><ele>400.99999999999994</ele><time>2026-03-29T08:35:58.308Z</time></trkpt><trkpt lat="44.0628117" lon="11.1464"><ele>401.0</ele><time>2026-03-29T08:36:01.309Z</time></trkpt><trkpt lat="44.06286" lon="11.14633"><ele>401.0</ele><time>2026-03-29T08:36:03.309Z</time></trkpt><trkpt lat="44.062885" lon="11.1462417"><ele>401.0</ele><time>2026-03-29T08:36:05.308Z</time></trkpt><trkpt lat="44.0629" lon="11.1461367"><ele>400.99999999999994</ele><time>2026-03-29T08:36:07.31Z</time></trkpt><trkpt lat="44.0629167" lon="11.1460383"><ele>401.0</ele><time>2026-03-29T08:36:09.31Z</time></trkpt><trkpt lat="44.0629433" lon="11.145935"><ele>401.0</ele><time>2026-03-29T08:36:11.31Z</time></trkpt><trkpt lat="44.06298" lon="11.14585"><ele>401.0</ele><time>2026-03-29T08:36:13.309Z</time></trkpt><trkpt lat="44.063025" lon="11.14577"><ele>401.0</ele><time>2026-03-29T08:36:15.309Z</time></trkpt><trkpt lat="44.0630683" lon="11.1456867"><ele>401.0</ele><time>2026-03-29T08:36:17.31Z</time></trkpt><trkpt lat="44.0631067" lon="11.1456"><ele>401.0</ele><time>2026-03-29T08:36:19.309Z</time></trkpt><trkpt lat="44.0631417" lon="11.1455067"><ele>401.0</ele><time>2026-03-29T08:36:21.311Z</time></trkpt><trkpt lat="44.0631967" lon="11.145435"><ele>401.0</ele><time>2026-03-29T08:36:23.309Z</time></trkpt><trkpt lat="44.0632517" lon="11.145355"><ele>398.8333333333333</ele><time>2026-03-29T08:36:25.309Z</time></trkpt><trkpt lat="44.0633133" lon="11.1452883"><ele>396.66666666666663</ele><time>2026-03-29T08:36:27.309Z</time></trkpt><trkpt lat="44.0633883" lon="11.1452633"><ele>394.5</ele><time>2026-03-29T08:36:29.31Z</time></trkpt><trkpt lat="44.06347" lon="11.1452667"><ele>392.33333333333337</ele><time>2026-03-29T08:36:31.31Z</time></trkpt><trkpt lat="44.06356" lon="11.145305"><ele>390.1666666666667</ele><time>2026-03-29T08:36:33.31Z</time></trkpt><trkpt lat="44.0636267" lon="11.1453933"><ele>388.0</ele><time>2026-03-29T08:36:35.308Z</time></trkpt><trkpt lat="44.063665" lon="11.1455"><ele>388.00000000000006</ele><time>2026-03-29T08:36:37.309Z</time></trkpt><trkpt lat="44.0637" lon="11.1456117"><ele>388.0</ele><time>2026-03-29T08:36:39.308Z</time></trkpt><trkpt lat="44.0637417" lon="11.1457183"><ele>388.0</ele><time>2026-03-29T08:36:41.309Z</time></trkpt><trkpt lat="44.0638067" lon="11.1458033"><ele>388.0</ele><time>2026-03-29T08:36:43.308Z</time></trkpt><trkpt lat="44.0638817" lon="11.1458533"><ele>388.00000000000006</ele><time>2026-03-29T08:36:45.309Z</time></trkpt><trkpt lat="44.0639683" lon="11.14587"><ele>388.0</ele><time>2026-03-29T08:36:47.31Z</time></trkpt><trkpt lat="44.0640583" lon="11.145885"><ele>385.4285714285714</ele><time>2026-03-29T08:36:49.307Z</time></trkpt><trkpt lat="44.064135" lon="11.145905"><ele>382.8571428571429</ele><time>2026-03-29T08:36:51.309Z</time></trkpt><trkpt lat="44.0642033" lon="11.1459367"><ele>380.2857142857143</ele><time>2026-03-29T08:36:53.31Z</time></trkpt><trkpt lat="44.0642833" lon="11.1459517"><ele>377.71428571428567</ele><time>2026-03-29T08:36:55.307Z</time></trkpt><trkpt lat="44.06436" lon="11.145975"><ele>375.1428571428571</ele><time>2026-03-29T08:36:57.309Z</time></trkpt><trkpt lat="44.0644233" lon="11.1460083"><ele>372.57142857142856</ele><time>2026-03-29T08:36:59.309Z</time></trkpt><trkpt lat="44.0644817" lon="11.1460517"><ele>370.0</ele><time>2026-03-29T08:37:01.31Z</time></trkpt><trkpt lat="44.06454" lon="11.14611"><ele>369.99999999999994</ele><time>2026-03-29T08:37:03.309Z</time></trkpt><trkpt lat="44.064595" lon="11.1461717"><ele>370.0</ele><time>2026-03-29T08:37:05.309Z</time></trkpt><trkpt lat="44.0646533" lon="11.14624"><ele>370.0</ele><time>2026-03-29T08:37:07.309Z</time></trkpt><trkpt lat="44.0647117" lon="11.146295"><ele>370.0</ele><time>2026-03-29T08:37:09.309Z</time></trkpt><trkpt lat="44.0647767" lon="11.146355"><ele>370.0</ele><time>2026-03-29T08:37:11.308Z</time></trkpt><trkpt lat="44.0648383" lon="11.1464033"><ele>369.99999999999994</ele><time>2026-03-29T08:37:13.309Z</time></trkpt><trkpt lat="44.064905" lon="11.1464467"><ele>370.0</ele><time>2026-03-29T08:37:15.309Z</time></trkpt><trkpt lat="44.0649633" lon="11.1464817"><ele>370.66666666666663</ele><time>2026-03-29T08:37:17.31Z</time></trkpt><trkpt lat="44.0650233" lon="11.14652"><ele>371.3333333333333</ele><time>2026-03-29T08:37:19.31Z</time></trkpt><trkpt lat="44.0650817" lon="11.1465817"><ele>372.0</ele><time>2026-03-29T08:37:21.308Z</time></trkpt><trkpt lat="44.0651317" lon="11.146685"><ele>372.6666666666667</ele><time>2026-03-29T08:37:23.309Z</time></trkpt><trkpt lat="44.06514" lon="11.146805"><ele>373.33333333333337</ele><time>2026-03-29T08:37:25.31Z</time></trkpt><trkpt lat="44.0651183" lon="11.1469383"><ele>374.0</ele><time>2026-03-29T08:37:27.308Z</time></trkpt><trkpt lat="44.0650617" lon="11.1470417"><ele>374.0</ele><time>2026-03-29T08:37:29.31Z</time></trkpt><trkpt lat="44.0649783" lon="11.1470967"><ele>374.0</ele><time>2026-03-29T08:37:31.309Z</time></trkpt><trkpt lat="44.06488" lon="11.147115"><ele>374.0</ele><time>2026-03-29T08:37:33.308Z</time></trkpt><trkpt lat="44.064795" lon="11.1471"><ele>374.0</ele><time>2026-03-29T08:37:35.309Z</time></trkpt><trkpt lat="44.0647267" lon="11.1470533"><ele>374.0</ele><time>2026-03-29T08:37:37.31Z</time></trkpt><trkpt lat="44.0646567" lon="11.147"><ele>374.0</ele><time>2026-03-29T08:37:39.31Z</time></trkpt><trkpt lat="44.0645983" lon="11.1469567"><ele>372.33333333333337</ele><time>2026-03-29T08:37:41.309Z</time></trkpt><trkpt lat="44.0645267" lon="11.1469083"><ele>370.6666666666667</ele><time>2026-03-29T08:37:44.308Z</time></trkpt><trkpt lat="44.064435" lon="11.1468817"><ele>369.0</ele><time>2026-03-29T08:37:47.309Z</time></trkpt><trkpt lat="44.06435" lon="11.1469"><ele>367.3333333333333</ele><time>2026-03-29T08:37:50.311Z</time></trkpt><trkpt lat="44.0642883" lon="11.1469883"><ele>365.66666666666663</ele><time>2026-03-29T08:37:53.309Z</time></trkpt><trkpt lat="44.064265" lon="11.1470733"><ele>364.0</ele><time>2026-03-29T08:37:55.307Z</time></trkpt><trkpt lat="44.06423" lon="11.1471567"><ele>364.0</ele><time>2026-03-29T08:37:57.308Z</time></trkpt><trkpt lat="44.064175" lon="11.1472583"><ele>364.0</ele><time>2026-03-29T08:38:00.308Z</time></trkpt><trkpt lat="44.0641117" lon="11.147325"><ele>364.0</ele><time>2026-03-29T08:38:03.308Z</time></trkpt><trkpt lat="44.06402" lon="11.1473333"><ele>364.0</ele><time>2026-03-29T08:38:06.309Z</time></trkpt><trkpt lat="44.0639567" lon="11.147315"><ele>364.0</ele><time>2026-03-29T08:38:08.31Z</time></trkpt><trkpt lat="44.0638917" lon="11.1473167"><ele>364.0</ele><time>2026-03-29T08:38:10.308Z</time></trkpt><trkpt lat="44.063825" lon="11.1473367"><ele>363.7142857142857</ele><time>2026-03-29T08:38:12.309Z</time></trkpt><trkpt lat="44.0637583" lon="11.1473617"><ele>363.42857142857144</ele><time>2026-03-29T08:38:14.311Z</time></trkpt><trkpt lat="44.0637017" lon="11.1474067"><ele>363.1428571428571</ele><time>2026-03-29T08:38:16.31Z</time></trkpt><trkpt lat="44.0636383" lon="11.1474567"><ele>362.8571428571429</ele><time>2026-03-29T08:38:18.309Z</time></trkpt><trkpt lat="44.06358" lon="11.147525"><ele>362.57142857142856</ele><time>2026-03-29T08:38:20.31Z</time></trkpt><trkpt lat="44.0635317" lon="11.147595"><ele>362.2857142857143</ele><time>2026-03-29T08:38:22.309Z</time></trkpt><trkpt lat="44.06349" lon="11.1476733"><ele>362.0</ele><time>2026-03-29T08:38:24.31Z</time></trkpt><trkpt lat="44.0634533" lon="11.1477583"><ele>362.0</ele><time>2026-03-29T08:38:26.31Z</time></trkpt><trkpt lat="44.06342" lon="11.1478367"><ele>362.0</ele><time>2026-03-29T08:38:28.309Z</time></trkpt><trkpt lat="44.063395" lon="11.1479183"><ele>362.0</ele><time>2026-03-29T08:38:30.308Z</time></trkpt><trkpt lat="44.0633633" lon="11.1480017"><ele>362.0</ele><time>2026-03-29T08:38:32.31Z</time></trkpt><trkpt lat="44.0633417" lon="11.148085"><ele>362.0</ele><time>2026-03-29T08:38:34.31Z</time></trkpt><trkpt lat="44.0633233" lon="11.1482133"><ele>362.0</ele><time>2026-03-29T08:38:37.309Z</time></trkpt><trkpt lat="44.06331" lon="11.1483"><ele>362.0</ele><time>2026-03-29T08:38:39.31Z</time></trkpt><trkpt lat="44.06329" lon="11.148385"><ele>359.83333333333337</ele><time>2026-03-29T08:38:41.308Z</time></trkpt><trkpt lat="44.06326" lon="11.1484733"><ele>357.6666666666667</ele><time>2026-03-29T08:38:43.309Z</time></trkpt><trkpt lat="44.063215" lon="11.1485817"><ele>355.5</ele><time>2026-03-29T08:38:46.308Z</time></trkpt><trkpt lat="44.0631567" lon="11.1486717"><ele>353.3333333333333</ele><time>2026-03-29T08:38:49.309Z</time></trkpt><trkpt lat="44.06311" lon="11.1487333"><ele>351.16666666666663</ele><time>2026-03-29T08:38:51.309Z</time></trkpt><trkpt lat="44.063045" lon="11.1488183"><ele>349.0</ele><time>2026-03-29T08:38:54.309Z</time></trkpt><trkpt lat="44.063" lon="11.14888"><ele>349.0</ele><time>2026-03-29T08:38:56.309Z</time></trkpt><trkpt lat="44.062955" lon="11.148985"><ele>349.0</ele><time>2026-03-29T08:38:59.31Z</time></trkpt><trkpt lat="44.06294" lon="11.1491117"><ele>349.0</ele><time>2026-03-29T08:39:02.311Z</time></trkpt><trkpt lat="44.0629533" lon="11.1492383"><ele>349.0</ele><time>2026-03-29T08:39:05.311Z</time></trkpt><trkpt lat="44.06299" lon="11.1493533"><ele>349.0</ele><time>2026-03-29T08:39:08.31Z</time></trkpt><trkpt lat="44.0630333" lon="11.1494617"><ele>352.3333333333333</ele><time>2026-03-29T08:39:11.307Z</time></trkpt><trkpt lat="44.0630683" lon="11.14957"><ele>355.66666666666663</ele><time>2026-03-29T08:39:14.309Z</time></trkpt><trkpt lat="44.063105" lon="11.1496883"><ele>359.0</ele><time>2026-03-29T08:39:17.311Z</time></trkpt><trkpt lat="44.0631367" lon="11.1498067"><ele>362.3333333333333</ele><time>2026-03-29T08:39:20.31Z</time></trkpt><trkpt lat="44.0631583" lon="11.149915"><ele>365.6666666666667</ele><time>2026-03-29T08:39:23.311Z</time></trkpt><trkpt lat="44.063155" lon="11.1500333"><ele>369.0</ele><time>2026-03-29T08:39:26.308Z</time></trkpt><trkpt lat="44.0630767" lon="11.1500733"><ele>372.0</ele><time>2026-03-29T08:39:29.31Z</time></trkpt><trkpt lat="44.06301" lon="11.1500617"><ele>375.0</ele><time>2026-03-29T08:39:31.311Z</time></trkpt><trkpt lat="44.0629417" lon="11.150015"><ele>378.0</ele><time>2026-03-29T08:39:33.31Z</time></trkpt><trkpt lat="44.0628817" lon="11.1499583"><ele>381.0</ele><time>2026-03-29T08:39:35.31Z</time></trkpt><trkpt lat="44.0628167" lon="11.1499217"><ele>384.0</ele><time>2026-03-29T08:39:37.311Z</time></trkpt><trkpt lat="44.0627433" lon="11.1499133"><ele>387.0</ele><time>2026-03-29T08:39:39.31Z</time></trkpt><trkpt lat="44.0626733" lon="11.1499267"><ele>390.0</ele><time>2026-03-29T08:39:41.31Z</time></trkpt><trkpt lat="44.0625783" lon="11.1499533"><ele>390.0</ele><time>2026-03-29T08:39:44.31Z</time></trkpt><trkpt lat="44.0625117" lon="11.1499783"><ele>390.0</ele><time>2026-03-29T08:39:46.311Z</time></trkpt><trkpt lat="44.0624467" lon="11.1500183"><ele>390.0</ele><time>2026-03-29T08:39:48.31Z</time></trkpt><trkpt lat="44.06239" lon="11.1500617"><ele>390.0</ele><time>2026-03-29T08:39:50.311Z</time></trkpt><trkpt lat="44.0623333" lon="11.150155"><ele>390.0</ele><time>2026-03-29T08:39:53.311Z</time></trkpt><trkpt lat="44.0622983" lon="11.1502333"><ele>390.0</ele><time>2026-03-29T08:39:55.309Z</time></trkpt><trkpt lat="44.0622783" lon="11.15033"><ele>390.0</ele><time>2026-03-29T08:39:57.312Z</time></trkpt><trkpt lat="44.0622733" lon="11.1504283"><ele>386.7142857142857</ele><time>2026-03-29T08:39:59.31Z</time></trkpt><trkpt lat="44.0622717" lon="11.1505267"><ele>383.42857142857144</ele><time>2026-03-29T08:40:01.311Z</time></trkpt><trkpt lat="44.06228" lon="11.1506233"><ele>380.1428571428571</ele><time>2026-03-29T08:40:03.308Z</time></trkpt><trkpt lat="44.062285" lon="11.1507233"><ele>376.8571428571429</ele><time>2026-03-29T08:40:05.31Z</time></trkpt><trkpt lat="44.06229" lon="11.1508183"><ele>373.5714285714286</ele><time>2026-03-29T08:40:07.31Z</time></trkpt><trkpt lat="44.0623083" lon="11.150935"><ele>370.2857142857143</ele><time>2026-03-29T08:40:10.31Z</time></trkpt><trkpt lat="44.0622967" lon="11.151025"><ele>367.0</ele><time>2026-03-29T08:40:12.31Z</time></trkpt><trkpt lat="44.0622867" lon="11.1511567"><ele>367.0</ele><time>2026-03-29T08:40:15.311Z</time></trkpt><trkpt lat="44.06227" lon="11.1512467"><ele>367.0</ele><time>2026-03-29T08:40:17.31Z</time></trkpt><trkpt lat="44.0622417" lon="11.1513333"><ele>367.0</ele><time>2026-03-29T08:40:19.309Z</time></trkpt><trkpt lat="44.0622117" lon="11.1514217"><ele>367.0</ele><time>2026-03-29T08:40:21.31Z</time></trkpt><trkpt lat="44.0621817" lon="11.151505"><ele>367.0</ele><time>2026-03-29T08:40:23.31Z</time></trkpt><trkpt lat="44.0621517" lon="11.1515867"><ele>367.0</ele><time>2026-03-29T08:40:25.31Z</time></trkpt><trkpt lat="44.06212" lon="11.15167"><ele>367.0</ele><time>2026-03-29T08:40:27.31Z</time></trkpt><trkpt lat="44.06209" lon="11.1517533"><ele>369.57142857142856</ele><time>2026-03-29T08:40:29.31Z</time></trkpt><trkpt lat="44.0620583" lon="11.1518783"><ele>372.14285714285717</ele><time>2026-03-29T08:40:32.309Z</time></trkpt><trkpt lat="44.062035" lon="11.1519617"><ele>374.7142857142857</ele><time>2026-03-29T08:40:34.309Z</time></trkpt><trkpt lat="44.0620167" lon="11.1520483"><ele>377.2857142857143</ele><time>2026-03-29T08:40:36.309Z</time></trkpt><trkpt lat="44.0619933" lon="11.152135"><ele>379.8571428571429</ele><time>2026-03-29T08:40:38.311Z</time></trkpt><trkpt lat="44.0619617" lon="11.1522133"><ele>382.42857142857144</ele><time>2026-03-29T08:40:40.31Z</time></trkpt><trkpt lat="44.0619067" lon="11.15231"><ele>385.0</ele><time>2026-03-29T08:40:43.31Z</time></trkpt><trkpt lat="44.0618383" lon="11.1523783"><ele>388.0</ele><time>2026-03-29T08:40:46.309Z</time></trkpt><trkpt lat="44.0617817" lon="11.1524767"><ele>391.0</ele><time>2026-03-29T08:40:49.307Z</time></trkpt><trkpt lat="44.0617483" lon="11.1525867"><ele>394.0</ele><time>2026-03-29T08:40:52.308Z</time></trkpt><trkpt lat="44.061735" lon="11.1526733"><ele>397.0</ele><time>2026-03-29T08:40:54.307Z</time></trkpt><trkpt lat="44.0617267" lon="11.152765"><ele>400.0</ele><time>2026-03-29T08:40:56.31Z</time></trkpt><trkpt lat="44.06172" lon="11.1528633"><ele>403.0</ele><time>2026-03-29T08:40:58.31Z</time></trkpt><trkpt lat="44.0617117" lon="11.1529567"><ele>406.0</ele><time>2026-03-29T08:41:00.311Z</time></trkpt><trkpt lat="44.0617067" lon="11.153055"><ele>406.00000000000006</ele><time>2026-03-29T08:41:02.311Z</time></trkpt><trkpt lat="44.0616967" lon="11.1531583"><ele>406.0</ele><time>2026-03-29T08:41:04.31Z</time></trkpt><trkpt lat="44.0616983" lon="11.1532733"><ele>406.0</ele><time>2026-03-29T08:41:06.311Z</time></trkpt><trkpt lat="44.061705" lon="11.1533767"><ele>406.0</ele><time>2026-03-29T08:41:08.309Z</time></trkpt><trkpt lat="44.0617083" lon="11.1534833"><ele>406.00000000000006</ele><time>2026-03-29T08:41:10.308Z</time></trkpt><trkpt lat="44.0617033" lon="11.15358"><ele>406.0</ele><time>2026-03-29T08:41:12.31Z</time></trkpt><trkpt lat="44.06169" lon="11.1537017"><ele>407.0</ele><time>2026-03-29T08:41:15.309Z</time></trkpt><trkpt lat="44.0616383" lon="11.1537817"><ele>408.0</ele><time>2026-03-29T08:41:18.309Z</time></trkpt><trkpt lat="44.0615717" lon="11.153815"><ele>409.0</ele><time>2026-03-29T08:41:20.311Z</time></trkpt><trkpt lat="44.0615117" lon="11.1538417"><ele>410.0</ele><time>2026-03-29T08:41:22.311Z</time></trkpt><trkpt lat="44.0614467" lon="11.15387"><ele>411.0</ele><time>2026-03-29T08:41:24.31Z</time></trkpt><trkpt lat="44.061355" lon="11.1539133"><ele>412.0</ele><time>2026-03-29T08:41:27.309Z</time></trkpt><trkpt lat="44.061285" lon="11.15394"><ele>413.0</ele><time>2026-03-29T08:41:29.31Z</time></trkpt><trkpt lat="44.0612083" lon="11.1539667"><ele>413.14285714285717</ele><time>2026-03-29T08:41:31.309Z</time></trkpt><trkpt lat="44.0611383" lon="11.1539933"><ele>413.2857142857143</ele><time>2026-03-29T08:41:33.309Z</time></trkpt><trkpt lat="44.0610767" lon="11.154015"><ele>413.42857142857144</ele><time>2026-03-29T08:41:35.311Z</time></trkpt><trkpt lat="44.061005" lon="11.1540383"><ele>413.57142857142856</ele><time>2026-03-29T08:41:37.31Z</time></trkpt><trkpt lat="44.0609333" lon="11.15406"><ele>413.7142857142857</ele><time>2026-03-29T08:41:39.309Z</time></trkpt><trkpt lat="44.06086" lon="11.1540717"><ele>413.8571428571429</ele><time>2026-03-29T08:41:41.31Z</time></trkpt><trkpt lat="44.0607883" lon="11.15408"><ele>414.0</ele><time>2026-03-29T08:41:43.31Z</time></trkpt><trkpt lat="44.06072" lon="11.15408"><ele>414.0</ele><time>2026-03-29T08:41:45.309Z</time></trkpt><trkpt lat="44.0606517" lon="11.154095"><ele>414.0</ele><time>2026-03-29T08:41:47.312Z</time></trkpt><trkpt lat="44.0605833" lon="11.15413"><ele>414.0</ele><time>2026-03-29T08:41:49.309Z</time></trkpt><trkpt lat="44.06052" lon="11.15418"><ele>414.0</ele><time>2026-03-29T08:41:51.312Z</time></trkpt><trkpt lat="44.0604683" lon="11.1542583"><ele>414.0</ele><time>2026-03-29T08:41:53.31Z</time></trkpt><trkpt lat="44.060425" lon="11.15435"><ele>414.0</ele><time>2026-03-29T08:41:55.309Z</time></trkpt><trkpt lat="44.06038" lon="11.1544433"><ele>414.00000000000006</ele><time>2026-03-29T08:41:57.309Z</time></trkpt><trkpt lat="44.0603467" lon="11.1545267"><ele>414.0</ele><time>2026-03-29T08:41:59.309Z</time></trkpt><trkpt lat="44.0603117" lon="11.1546033"><ele>414.0</ele><time>2026-03-29T08:42:01.309Z</time></trkpt><trkpt lat="44.0602733" lon="11.1546833"><ele>414.0</ele><time>2026-03-29T08:42:03.309Z</time></trkpt><trkpt lat="44.0602233" lon="11.1547683"><ele>414.0</ele><time>2026-03-29T08:42:05.309Z</time></trkpt><trkpt lat="44.06018" lon="11.154845"><ele>414.00000000000006</ele><time>2026-03-29T08:42:07.31Z</time></trkpt><trkpt lat="44.06014" lon="11.1549267"><ele>414.0</ele><time>2026-03-29T08:42:09.309Z</time></trkpt><trkpt lat="44.060105" lon="11.1550067"><ele>415.7142857142857</ele><time>2026-03-29T08:42:11.31Z</time></trkpt><trkpt lat="44.060075" lon="11.15509"><ele>417.42857142857144</ele><time>2026-03-29T08:42:13.311Z</time></trkpt><trkpt lat="44.0600533" lon="11.1551833"><ele>419.1428571428571</ele><time>2026-03-29T08:42:15.309Z</time></trkpt><trkpt lat="44.0600567" lon="11.155285"><ele>420.8571428571429</ele><time>2026-03-29T08:42:17.311Z</time></trkpt><trkpt lat="44.0600717" lon="11.155375"><ele>422.57142857142856</ele><time>2026-03-29T08:42:19.309Z</time></trkpt><trkpt lat="44.060095" lon="11.1554583"><ele>424.2857142857143</ele><time>2026-03-29T08:42:21.309Z</time></trkpt><trkpt lat="44.06012" lon="11.15554"><ele>426.0</ele><time>2026-03-29T08:42:23.31Z</time></trkpt><trkpt lat="44.06016" lon="11.155625"><ele>426.0</ele><time>2026-03-29T08:42:25.309Z</time></trkpt><trkpt lat="44.0602" lon="11.1557033"><ele>426.0</ele><time>2026-03-29T08:42:27.31Z</time></trkpt><trkpt lat="44.060245" lon="11.1557717"><ele>426.0</ele><time>2026-03-29T08:42:29.309Z</time></trkpt><trkpt lat="44.0602917" lon="11.1558317"><ele>426.0</ele><time>2026-03-29T08:42:31.31Z</time></trkpt><trkpt lat="44.0603483" lon="11.15593"><ele>426.0</ele><time>2026-03-29T08:42:34.308Z</time></trkpt><trkpt lat="44.060405" lon="11.1560317"><ele>426.0</ele><time>2026-03-29T08:42:37.308Z</time></trkpt><trkpt lat="44.06046" lon="11.1561317"><ele>426.1666666666667</ele><time>2026-03-29T08:42:40.309Z</time></trkpt><trkpt lat="44.0605183" lon="11.1562367"><ele>426.33333333333337</ele><time>2026-03-29T08:42:43.311Z</time></trkpt><trkpt lat="44.0605683" lon="11.1563467"><ele>426.5</ele><time>2026-03-29T08:42:46.311Z</time></trkpt><trkpt lat="44.060605" lon="11.1564183"><ele>426.6666666666667</ele><time>2026-03-29T08:42:48.309Z</time></trkpt><trkpt lat="44.060685" lon="11.15648"><ele>426.83333333333337</ele><time>2026-03-29T08:42:51.31Z</time></trkpt><trkpt lat="44.06075" lon="11.1564833"><ele>427.0</ele><time>2026-03-29T08:42:53.31Z</time></trkpt><trkpt lat="44.0608167" lon="11.15646"><ele>429.14285714285717</ele><time>2026-03-29T08:42:55.31Z</time></trkpt><trkpt lat="44.0608717" lon="11.1564117"><ele>431.2857142857143</ele><time>2026-03-29T08:42:57.308Z</time></trkpt><trkpt lat="44.06091" lon="11.15634"><ele>433.42857142857144</ele><time>2026-03-29T08:42:59.31Z</time></trkpt><trkpt lat="44.0609383" lon="11.1562533"><ele>435.57142857142856</ele><time>2026-03-29T08:43:01.31Z</time></trkpt><trkpt lat="44.0609617" lon="11.156165"><ele>437.7142857142857</ele><time>2026-03-29T08:43:03.309Z</time></trkpt><trkpt lat="44.0609783" lon="11.1560767"><ele>439.8571428571429</ele><time>2026-03-29T08:43:05.311Z</time></trkpt><trkpt lat="44.0609933" lon="11.1559867"><ele>442.0</ele><time>2026-03-29T08:43:07.309Z</time></trkpt><trkpt lat="44.0610067" lon="11.1558983"><ele>442.00000000000006</ele><time>2026-03-29T08:43:09.309Z</time></trkpt><trkpt lat="44.061015" lon="11.1558067"><ele>442.0</ele><time>2026-03-29T08:43:11.311Z</time></trkpt><trkpt lat="44.0610333" lon="11.1556817"><ele>442.0</ele><time>2026-03-29T08:43:14.309Z</time></trkpt><trkpt lat="44.0610517" lon="11.1555633"><ele>442.0</ele><time>2026-03-29T08:43:17.309Z</time></trkpt><trkpt lat="44.06108" lon="11.155445"><ele>442.00000000000006</ele><time>2026-03-29T08:43:20.309Z</time></trkpt><trkpt lat="44.0610983" lon="11.15536"><ele>442.0</ele><time>2026-03-29T08:43:22.309Z</time></trkpt><trkpt lat="44.06113" lon="11.1552367"><ele>441.6666666666667</ele><time>2026-03-29T08:43:25.309Z</time></trkpt><trkpt lat="44.061185" lon="11.1551333"><ele>441.33333333333337</ele><time>2026-03-29T08:43:28.309Z</time></trkpt><trkpt lat="44.0612267" lon="11.15505"><ele>441.0</ele><time>2026-03-29T08:43:30.312Z</time></trkpt><trkpt lat="44.0612683" lon="11.1549567"><ele>440.66666666666663</ele><time>2026-03-29T08:43:32.311Z</time></trkpt><trkpt lat="44.0613133" lon="11.154865"><ele>440.3333333333333</ele><time>2026-03-29T08:43:34.31Z</time></trkpt><trkpt lat="44.06136" lon="11.154785"><ele>440.0</ele><time>2026-03-29T08:43:36.311Z</time></trkpt><trkpt lat="44.0614067" lon="11.1547067"><ele>439.2857142857143</ele><time>2026-03-29T08:43:38.309Z</time></trkpt><trkpt lat="44.061445" lon="11.1546317"><ele>438.57142857142856</ele><time>2026-03-29T08:43:40.311Z</time></trkpt><trkpt lat="44.0615017" lon="11.15453"><ele>437.8571428571429</ele><time>2026-03-29T08:43:43.31Z</time></trkpt><trkpt lat="44.06156" lon="11.1544967"><ele>437.1428571428571</ele><time>2026-03-29T08:43:45.31Z</time></trkpt><trkpt lat="44.06165" lon="11.1545017"><ele>436.42857142857144</ele><time>2026-03-29T08:43:48.309Z</time></trkpt><trkpt lat="44.061715" lon="11.1545217"><ele>435.7142857142857</ele><time>2026-03-29T08:43:50.311Z</time></trkpt><trkpt lat="44.0617817" lon="11.1545467"><ele>435.0</ele><time>2026-03-29T08:43:52.309Z</time></trkpt><trkpt lat="44.0618433" lon="11.1545733"><ele>435.0</ele><time>2026-03-29T08:43:54.308Z</time></trkpt><trkpt lat="44.0619017" lon="11.1546067"><ele>435.0</ele><time>2026-03-29T08:43:56.309Z</time></trkpt><trkpt lat="44.0619567" lon="11.15466"><ele>435.0</ele><time>2026-03-29T08:43:58.308Z</time></trkpt><trkpt lat="44.06204" lon="11.1547067"><ele>435.0</ele><time>2026-03-29T08:44:01.31Z</time></trkpt><trkpt lat="44.0621083" lon="11.15473"><ele>435.0</ele><time>2026-03-29T08:44:03.308Z</time></trkpt><trkpt lat="44.0621733" lon="11.1547367"><ele>435.0</ele><time>2026-03-29T08:44:05.31Z</time></trkpt><trkpt lat="44.06227" lon="11.1547267"><ele>435.00000000000006</ele><time>2026-03-29T08:44:08.311Z</time></trkpt><trkpt lat="44.0623317" lon="11.1547"><ele>435.0</ele><time>2026-03-29T08:44:10.31Z</time></trkpt><trkpt lat="44.062385" lon="11.154645"><ele>435.0</ele><time>2026-03-29T08:44:12.308Z</time></trkpt><trkpt lat="44.0624333" lon="11.1545733"><ele>435.0</ele><time>2026-03-29T08:44:14.309Z</time></trkpt><trkpt lat="44.0624733" lon="11.1545"><ele>435.0</ele><time>2026-03-29T08:44:16.309Z</time></trkpt><trkpt lat="44.06251" lon="11.1544183"><ele>435.00000000000006</ele><time>2026-03-29T08:44:18.308Z</time></trkpt><trkpt lat="44.062535" lon="11.154315"><ele>435.0</ele><time>2026-03-29T08:44:20.309Z</time></trkpt><trkpt lat="44.0625667" lon="11.154215"><ele>437.6666666666667</ele><time>2026-03-29T08:44:22.308Z</time></trkpt><trkpt lat="44.062595" lon="11.154115"><ele>440.33333333333337</ele><time>2026-03-29T08:44:24.31Z</time></trkpt><trkpt lat="44.062625" lon="11.1540133"><ele>443.0</ele><time>2026-03-29T08:44:26.308Z</time></trkpt><trkpt lat="44.06265" lon="11.1539267"><ele>445.6666666666667</ele><time>2026-03-29T08:44:28.309Z</time></trkpt><trkpt lat="44.06267" lon="11.1538017"><ele>448.33333333333337</ele><time>2026-03-29T08:44:31.309Z</time></trkpt><trkpt lat="44.062685" lon="11.1536933"><ele>451.0</ele><time>2026-03-29T08:44:34.308Z</time></trkpt><trkpt lat="44.0627167" lon="11.1535867"><ele>451.00000000000006</ele><time>2026-03-29T08:44:37.31Z</time></trkpt><trkpt lat="44.0627417" lon="11.153505"><ele>451.0</ele><time>2026-03-29T08:44:39.31Z</time></trkpt><trkpt lat="44.06277" lon="11.15338"><ele>451.0</ele><time>2026-03-29T08:44:42.31Z</time></trkpt><trkpt lat="44.0628033" lon="11.1532583"><ele>451.0</ele><time>2026-03-29T08:44:45.31Z</time></trkpt><trkpt lat="44.0628217" lon="11.1531683"><ele>451.00000000000006</ele><time>2026-03-29T08:44:47.309Z</time></trkpt><trkpt lat="44.0628433" lon="11.153085"><ele>451.0</ele><time>2026-03-29T08:44:49.309Z</time></trkpt><trkpt lat="44.0628767" lon="11.1529667"><ele>449.6666666666667</ele><time>2026-03-29T08:44:52.31Z</time></trkpt><trkpt lat="44.0628983" lon="11.15288"><ele>448.33333333333337</ele><time>2026-03-29T08:44:54.311Z</time></trkpt><trkpt lat="44.0629283" lon="11.1527967"><ele>447.0</ele><time>2026-03-29T08:44:56.31Z</time></trkpt><trkpt lat="44.0629667" lon="11.1526867"><ele>445.66666666666663</ele><time>2026-03-29T08:44:59.31Z</time></trkpt><trkpt lat="44.0630017" lon="11.152575"><ele>444.3333333333333</ele><time>2026-03-29T08:45:02.31Z</time></trkpt><trkpt lat="44.063025" lon="11.1524683"><ele>443.0</ele><time>2026-03-29T08:45:05.311Z</time></trkpt><trkpt lat="44.06307" lon="11.152375"><ele>445.3333333333333</ele><time>2026-03-29T08:45:08.309Z</time></trkpt><trkpt lat="44.0631083" lon="11.1522817"><ele>447.66666666666663</ele><time>2026-03-29T08:45:11.309Z</time></trkpt><trkpt lat="44.063145" lon="11.1522017"><ele>450.0</ele><time>2026-03-29T08:45:13.31Z</time></trkpt><trkpt lat="44.0631983" lon="11.1521433"><ele>452.33333333333337</ele><time>2026-03-29T08:45:15.308Z</time></trkpt><trkpt lat="44.0632583" lon="11.152115"><ele>454.6666666666667</ele><time>2026-03-29T08:45:17.309Z</time></trkpt><trkpt lat="44.0633183" lon="11.1520867"><ele>457.0</ele><time>2026-03-29T08:45:19.311Z</time></trkpt><trkpt lat="44.0634367" lon="11.152055"><ele>457.0</ele><time>2026-03-29T08:45:23.309Z</time></trkpt><trkpt lat="44.06352" lon="11.1520383"><ele>457.00000000000006</ele><time>2026-03-29T08:45:26.31Z</time></trkpt><trkpt lat="44.0636017" lon="11.1520017"><ele>457.00000000000006</ele><time>2026-03-29T08:45:29.31Z</time></trkpt><trkpt lat="44.0636817" lon="11.151965"><ele>457.0</ele><time>2026-03-29T08:45:32.31Z</time></trkpt><trkpt lat="44.0637667" lon="11.151935"><ele>457.0</ele><time>2026-03-29T08:45:35.309Z</time></trkpt><trkpt lat="44.0639517" lon="11.1519317"><ele>457.00000000000006</ele><time>2026-03-29T08:45:42.31Z</time></trkpt><trkpt lat="44.0640283" lon="11.1519583"><ele>457.0</ele><time>2026-03-29T08:45:45.309Z</time></trkpt><trkpt lat="44.0641067" lon="11.152015"><ele>457.0</ele><time>2026-03-29T08:45:48.31Z</time></trkpt><trkpt lat="44.06417" lon="11.1520933"><ele>457.0</ele><time>2026-03-29T08:45:51.31Z</time></trkpt><trkpt lat="44.0642267" lon="11.1521717"><ele>457.00000000000006</ele><time>2026-03-29T08:45:54.31Z</time></trkpt><trkpt lat="44.0642817" lon="11.152245"><ele>457.0</ele><time>2026-03-29T08:45:57.31Z</time></trkpt><trkpt lat="44.0643483" lon="11.152315"><ele>462.1666666666667</ele><time>2026-03-29T08:46:00.31Z</time></trkpt><trkpt lat="44.06441" lon="11.1523767"><ele>467.33333333333337</ele><time>2026-03-29T08:46:03.311Z</time></trkpt><trkpt lat="44.06448" lon="11.1524333"><ele>472.5</ele><time>2026-03-29T08:46:06.31Z</time></trkpt><trkpt lat="44.0645633" lon="11.1524767"><ele>477.66666666666663</ele><time>2026-03-29T08:46:09.311Z</time></trkpt><trkpt lat="44.06465" lon="11.15249"><ele>482.8333333333333</ele><time>2026-03-29T08:46:12.311Z</time></trkpt><trkpt lat="44.0647333" lon="11.1524733"><ele>488.0</ele><time>2026-03-29T08:46:15.309Z</time></trkpt><trkpt lat="44.064815" lon="11.1524667"><ele>487.99999999999994</ele><time>2026-03-29T08:46:18.311Z</time></trkpt><trkpt lat="44.064885" lon="11.1524167"><ele>488.0</ele><time>2026-03-29T08:46:21.309Z</time></trkpt><trkpt lat="44.06495" lon="11.1523533"><ele>488.0</ele><time>2026-03-29T08:46:24.31Z</time></trkpt><trkpt lat="44.0650233" lon="11.1522967"><ele>488.0</ele><time>2026-03-29T08:46:27.31Z</time></trkpt><trkpt lat="44.065095" lon="11.152245"><ele>487.99999999999994</ele><time>2026-03-29T08:46:30.31Z</time></trkpt><trkpt lat="44.065165" lon="11.1522033"><ele>488.0</ele><time>2026-03-29T08:46:33.31Z</time></trkpt><trkpt lat="44.0652417" lon="11.1521633"><ele>486.16666666666663</ele><time>2026-03-29T08:46:36.31Z</time></trkpt><trkpt lat="44.065325" lon="11.1521417"><ele>484.3333333333333</ele><time>2026-03-29T08:46:39.31Z</time></trkpt><trkpt lat="44.0654133" lon="11.1521283"><ele>482.5</ele><time>2026-03-29T08:46:42.31Z</time></trkpt><trkpt lat="44.0654983" lon="11.1521183"><ele>480.66666666666663</ele><time>2026-03-29T08:46:45.311Z</time></trkpt><trkpt lat="44.065585" lon="11.1521283"><ele>478.8333333333333</ele><time>2026-03-29T08:46:48.311Z</time></trkpt><trkpt lat="44.065665" lon="11.1521433"><ele>477.0</ele><time>2026-03-29T08:46:51.312Z</time></trkpt><trkpt lat="44.0657533" lon="11.15217"><ele>478.5</ele><time>2026-03-29T08:46:54.31Z</time></trkpt><trkpt lat="44.0658233" lon="11.1522033"><ele>480.0</ele><time>2026-03-29T08:46:56.309Z</time></trkpt><trkpt lat="44.0659117" lon="11.1521933"><ele>481.5</ele><time>2026-03-29T08:46:59.31Z</time></trkpt><trkpt lat="44.0659733" lon="11.152175"><ele>483.0</ele><time>2026-03-29T08:47:01.308Z</time></trkpt><trkpt lat="44.06606" lon="11.1521467"><ele>484.5</ele><time>2026-03-29T08:47:04.31Z</time></trkpt><trkpt lat="44.0661383" lon="11.1520983"><ele>486.0</ele><time>2026-03-29T08:47:07.308Z</time></trkpt><trkpt lat="44.0662083" lon="11.15202"><ele>486.0</ele><time>2026-03-29T08:47:10.308Z</time></trkpt><trkpt lat="44.0662733" lon="11.1519317"><ele>486.0</ele><time>2026-03-29T08:47:13.309Z</time></trkpt><trkpt lat="44.0663367" lon="11.1518467"><ele>486.0</ele><time>2026-03-29T08:47:16.313Z</time></trkpt><trkpt lat="44.0664067" lon="11.15178"><ele>486.0</ele><time>2026-03-29T08:47:19.308Z</time></trkpt><trkpt lat="44.0664767" lon="11.1517117"><ele>486.0</ele><time>2026-03-29T08:47:22.308Z</time></trkpt><trkpt lat="44.0665517" lon="11.1516383"><ele>486.0</ele><time>2026-03-29T08:47:25.309Z</time></trkpt><trkpt lat="44.0666167" lon="11.1515667"><ele>486.1666666666667</ele><time>2026-03-29T08:47:28.311Z</time></trkpt><trkpt lat="44.06669" lon="11.1515017"><ele>486.33333333333337</ele><time>2026-03-29T08:47:31.309Z</time></trkpt><trkpt lat="44.06676" lon="11.1514433"><ele>486.5</ele><time>2026-03-29T08:47:34.307Z</time></trkpt><trkpt lat="44.0668267" lon="11.1513833"><ele>486.6666666666667</ele><time>2026-03-29T08:47:37.31Z</time></trkpt><trkpt lat="44.06689" lon="11.15131"><ele>486.83333333333337</ele><time>2026-03-29T08:47:40.312Z</time></trkpt><trkpt lat="44.0669667" lon="11.15126"><ele>487.0</ele><time>2026-03-29T08:47:43.31Z</time></trkpt><trkpt lat="44.0670433" lon="11.15121"><ele>487.00000000000006</ele><time>2026-03-29T08:47:46.309Z</time></trkpt><trkpt lat="44.0671133" lon="11.15116"><ele>487.0</ele><time>2026-03-29T08:47:49.311Z</time></trkpt><trkpt lat="44.06719" lon="11.15111"><ele>487.0</ele><time>2026-03-29T08:47:52.309Z</time></trkpt><trkpt lat="44.0672717" lon="11.1510583"><ele>487.0</ele><time>2026-03-29T08:47:55.309Z</time></trkpt><trkpt lat="44.067345" lon="11.1510167"><ele>487.00000000000006</ele><time>2026-03-29T08:47:58.308Z</time></trkpt><trkpt lat="44.0674183" lon="11.1509483"><ele>487.0</ele><time>2026-03-29T08:48:01.31Z</time></trkpt><trkpt lat="44.067495" lon="11.1508767"><ele>490.40000000000003</ele><time>2026-03-29T08:48:04.308Z</time></trkpt><trkpt lat="44.0675717" lon="11.15083"><ele>493.80000000000007</ele><time>2026-03-29T08:48:07.31Z</time></trkpt><trkpt lat="44.0677333" lon="11.1508433"><ele>497.2</ele><time>2026-03-29T08:48:13.311Z</time></trkpt><trkpt lat="44.067805" lon="11.1509067"><ele>500.6</ele><time>2026-03-29T08:48:16.309Z</time></trkpt><trkpt lat="44.0678817" lon="11.1509517"><ele>504.0</ele><time>2026-03-29T08:48:19.31Z</time></trkpt><trkpt lat="44.06796" lon="11.1509783"><ele>504.0</ele><time>2026-03-29T08:48:22.31Z</time></trkpt><trkpt lat="44.0680383" lon="11.150965"><ele>504.0</ele><time>2026-03-29T08:48:25.311Z</time></trkpt><trkpt lat="44.0681167" lon="11.1509017"><ele>504.0</ele><time>2026-03-29T08:48:28.308Z</time></trkpt><trkpt lat="44.0681633" lon="11.1508383"><ele>504.0</ele><time>2026-03-29T08:48:30.311Z</time></trkpt><trkpt lat="44.0682267" lon="11.150745"><ele>504.0</ele><time>2026-03-29T08:48:33.311Z</time></trkpt><trkpt lat="44.0682833" lon="11.150645"><ele>504.0</ele><time>2026-03-29T08:48:36.31Z</time></trkpt><trkpt lat="44.06834" lon="11.150545"><ele>503.1666666666667</ele><time>2026-03-29T08:48:39.309Z</time></trkpt><trkpt lat="44.0683783" lon="11.150475"><ele>502.33333333333337</ele><time>2026-03-29T08:48:41.308Z</time></trkpt><trkpt lat="44.06843" lon="11.1504167"><ele>501.5</ele><time>2026-03-29T08:48:43.311Z</time></trkpt><trkpt lat="44.0684817" lon="11.1503567"><ele>500.6666666666667</ele><time>2026-03-29T08:48:45.31Z</time></trkpt><trkpt lat="44.0685533" lon="11.1503167"><ele>499.83333333333337</ele><time>2026-03-29T08:48:48.31Z</time></trkpt><trkpt lat="44.0686867" lon="11.15031"><ele>499.0</ele><time>2026-03-29T08:48:53.311Z</time></trkpt><trkpt lat="44.06877" lon="11.150285"><ele>499.0</ele><time>2026-03-29T08:48:56.309Z</time></trkpt><trkpt lat="44.068895" lon="11.1502783"><ele>499.0</ele><time>2026-03-29T08:49:00.309Z</time></trkpt><trkpt lat="44.0689833" lon="11.1502767"><ele>499.0</ele><time>2026-03-29T08:49:03.307Z</time></trkpt><trkpt lat="44.06913" lon="11.1502783"><ele>499.0</ele><time>2026-03-29T08:49:08.309Z</time></trkpt><trkpt lat="44.0693233" lon="11.1502767"><ele>502.1666666666667</ele><time>2026-03-29T08:49:15.309Z</time></trkpt><trkpt lat="44.069425" lon="11.150255"><ele>505.33333333333337</ele><time>2026-03-29T08:49:19.311Z</time></trkpt><trkpt lat="44.0694967" lon="11.150225"><ele>508.5</ele><time>2026-03-29T08:49:22.308Z</time></trkpt><trkpt lat="44.0695733" lon="11.150175"><ele>511.66666666666663</ele><time>2026-03-29T08:49:25.31Z</time></trkpt><trkpt lat="44.0696483" lon="11.1501283"><ele>514.8333333333333</ele><time>2026-03-29T08:49:28.309Z</time></trkpt><trkpt lat="44.0697267" lon="11.150075"><ele>518.0</ele><time>2026-03-29T08:49:31.309Z</time></trkpt><trkpt lat="44.0697917" lon="11.1499983"><ele>518.0</ele><time>2026-03-29T08:49:34.309Z</time></trkpt><trkpt lat="44.0698533" lon="11.1499233"><ele>518.0</ele><time>2026-03-29T08:49:37.309Z</time></trkpt><trkpt lat="44.06991" lon="11.14983"><ele>518.0</ele><time>2026-03-29T08:49:40.309Z</time></trkpt><trkpt lat="44.0699717" lon="11.1497367"><ele>518.0</ele><time>2026-03-29T08:49:43.31Z</time></trkpt><trkpt lat="44.07005" lon="11.1496683"><ele>518.0</ele><time>2026-03-29T08:49:46.309Z</time></trkpt><trkpt lat="44.0701417" lon="11.14966"><ele>518.0</ele><time>2026-03-29T08:49:49.309Z</time></trkpt><trkpt lat="44.070205" lon="11.1496617"><ele>515.3333333333333</ele><time>2026-03-29T08:49:51.309Z</time></trkpt><trkpt lat="44.0702917" lon="11.1496933"><ele>512.6666666666666</ele><time>2026-03-29T08:49:54.309Z</time></trkpt><trkpt lat="44.0703717" lon="11.1497233"><ele>510.0</ele><time>2026-03-29T08:49:57.309Z</time></trkpt><trkpt lat="44.0704633" lon="11.149755"><ele>507.33333333333337</ele><time>2026-03-29T08:50:00.308Z</time></trkpt><trkpt lat="44.0705333" lon="11.14977"><ele>504.6666666666667</ele><time>2026-03-29T08:50:02.31Z</time></trkpt><trkpt lat="44.0706033" lon="11.1497783"><ele>502.0</ele><time>2026-03-29T08:50:04.308Z</time></trkpt><trkpt lat="44.07074" lon="11.1497733"><ele>504.00000000000006</ele><time>2026-03-29T08:50:08.311Z</time></trkpt><trkpt lat="44.070835" lon="11.1497583"><ele>506.0</ele><time>2026-03-29T08:50:11.308Z</time></trkpt><trkpt lat="44.070925" lon="11.1497267"><ele>508.0</ele><time>2026-03-29T08:50:14.308Z</time></trkpt><trkpt lat="44.0709933" lon="11.149705"><ele>510.0</ele><time>2026-03-29T08:50:16.309Z</time></trkpt><trkpt lat="44.0710567" lon="11.1496883"><ele>512.0</ele><time>2026-03-29T08:50:18.31Z</time></trkpt><trkpt lat="44.0711267" lon="11.1496817"><ele>514.0</ele><time>2026-03-29T08:50:20.31Z</time></trkpt><trkpt lat="44.071195" lon="11.1496867"><ele>514.0</ele><time>2026-03-29T08:50:22.308Z</time></trkpt><trkpt lat="44.0712583" lon="11.1496867"><ele>514.0</ele><time>2026-03-29T08:50:24.309Z</time></trkpt><trkpt lat="44.0713467" lon="11.149675"><ele>514.0</ele><time>2026-03-29T08:50:27.309Z</time></trkpt><trkpt lat="44.0714317" lon="11.1496383"><ele>514.0</ele><time>2026-03-29T08:50:30.309Z</time></trkpt><trkpt lat="44.07152" lon="11.1496133"><ele>514.0</ele><time>2026-03-29T08:50:33.31Z</time></trkpt><trkpt lat="44.071585" lon="11.1496067"><ele>514.0</ele><time>2026-03-29T08:50:35.309Z</time></trkpt><trkpt lat="44.07165" lon="11.1495883"><ele>516.0</ele><time>2026-03-29T08:50:37.31Z</time></trkpt><trkpt lat="44.0717167" lon="11.14957"><ele>518.0</ele><time>2026-03-29T08:50:39.31Z</time></trkpt><trkpt lat="44.071785" lon="11.1495583"><ele>520.0</ele><time>2026-03-29T08:50:41.308Z</time></trkpt><trkpt lat="44.07189" lon="11.1495517"><ele>522.0</ele><time>2026-03-29T08:50:44.309Z</time></trkpt><trkpt lat="44.071955" lon="11.1495417"><ele>524.0</ele><time>2026-03-29T08:50:46.308Z</time></trkpt><trkpt lat="44.0720467" lon="11.1495217"><ele>526.0</ele><time>2026-03-29T08:50:49.309Z</time></trkpt><trkpt lat="44.072135" lon="11.1494983"><ele>526.0</ele><time>2026-03-29T08:50:52.31Z</time></trkpt><trkpt lat="44.0722033" lon="11.149495"><ele>526.0</ele><time>2026-03-29T08:50:54.308Z</time></trkpt><trkpt lat="44.0723533" lon="11.1495017"><ele>526.0</ele><time>2026-03-29T08:50:59.308Z</time></trkpt><trkpt lat="44.0724183" lon="11.1495083"><ele>526.0</ele><time>2026-03-29T08:51:01.308Z</time></trkpt><trkpt lat="44.0725083" lon="11.1495317"><ele>526.0</ele><time>2026-03-29T08:51:04.309Z</time></trkpt><trkpt lat="44.07259" lon="11.1495517"><ele>527.1666666666667</ele><time>2026-03-29T08:51:07.309Z</time></trkpt><trkpt lat="44.072675" lon="11.1495733"><ele>528.3333333333334</ele><time>2026-03-29T08:51:10.308Z</time></trkpt><trkpt lat="44.072755" lon="11.1496"><ele>529.5</ele><time>2026-03-29T08:51:13.311Z</time></trkpt><trkpt lat="44.0728417" lon="11.14963"><ele>530.6666666666666</ele><time>2026-03-29T08:51:16.309Z</time></trkpt><trkpt lat="44.072925" lon="11.14965"><ele>531.8333333333333</ele><time>2026-03-29T08:51:19.31Z</time></trkpt><trkpt lat="44.0730183" lon="11.1496767"><ele>533.0</ele><time>2026-03-29T08:51:22.311Z</time></trkpt><trkpt lat="44.07308" lon="11.1497017"><ele>533.0</ele><time>2026-03-29T08:51:24.31Z</time></trkpt><trkpt lat="44.073165" lon="11.1497267"><ele>533.0</ele><time>2026-03-29T08:51:27.309Z</time></trkpt><trkpt lat="44.0732517" lon="11.1497667"><ele>533.0</ele><time>2026-03-29T08:51:30.31Z</time></trkpt><trkpt lat="44.0733417" lon="11.149795"><ele>533.0</ele><time>2026-03-29T08:51:33.309Z</time></trkpt><trkpt lat="44.0734233" lon="11.14982"><ele>533.0</ele><time>2026-03-29T08:51:36.31Z</time></trkpt><trkpt lat="44.073485" lon="11.1498383"><ele>533.0</ele><time>2026-03-29T08:51:38.309Z</time></trkpt><trkpt lat="44.0735733" lon="11.1498717"><ele>537.0</ele><time>2026-03-29T08:51:41.309Z</time></trkpt><trkpt lat="44.0736567" lon="11.1499183"><ele>541.0</ele><time>2026-03-29T08:51:44.309Z</time></trkpt><trkpt lat="44.073715" lon="11.1499667"><ele>545.0</ele><time>2026-03-29T08:51:46.31Z</time></trkpt><trkpt lat="44.0737733" lon="11.1500283"><ele>549.0</ele><time>2026-03-29T08:51:48.309Z</time></trkpt><trkpt lat="44.0738233" lon="11.1501033"><ele>553.0</ele><time>2026-03-29T08:51:50.309Z</time></trkpt><trkpt lat="44.07387" lon="11.1501717"><ele>557.0</ele><time>2026-03-29T08:51:52.309Z</time></trkpt><trkpt lat="44.0739167" lon="11.150235"><ele>561.0</ele><time>2026-03-29T08:51:54.31Z</time></trkpt><trkpt lat="44.0739617" lon="11.1503033"><ele>561.0</ele><time>2026-03-29T08:51:56.309Z</time></trkpt><trkpt lat="44.0740067" lon="11.150375"><ele>561.0</ele><time>2026-03-29T08:51:58.31Z</time></trkpt><trkpt lat="44.0740533" lon="11.1504417"><ele>561.0</ele><time>2026-03-29T08:52:00.31Z</time></trkpt><trkpt lat="44.0741183" lon="11.1505383"><ele>561.0</ele><time>2026-03-29T08:52:03.31Z</time></trkpt><trkpt lat="44.0741883" lon="11.1506217"><ele>561.0</ele><time>2026-03-29T08:52:06.311Z</time></trkpt><trkpt lat="44.07425" lon="11.15066"><ele>561.0</ele><time>2026-03-29T08:52:08.31Z</time></trkpt><trkpt lat="44.0743233" lon="11.150675"><ele>558.1428571428571</ele><time>2026-03-29T08:52:10.31Z</time></trkpt><trkpt lat="44.0744" lon="11.150675"><ele>555.2857142857142</ele><time>2026-03-29T08:52:12.312Z</time></trkpt><trkpt lat="44.0744683" lon="11.15064"><ele>552.4285714285714</ele><time>2026-03-29T08:52:14.31Z</time></trkpt><trkpt lat="44.0745183" lon="11.150585"><ele>549.5714285714286</ele><time>2026-03-29T08:52:16.31Z</time></trkpt><trkpt lat="44.07457" lon="11.1505033"><ele>546.7142857142858</ele><time>2026-03-29T08:52:18.309Z</time></trkpt><trkpt lat="44.074615" lon="11.1504333"><ele>543.8571428571429</ele><time>2026-03-29T08:52:20.31Z</time></trkpt><trkpt lat="44.074665" lon="11.1503583"><ele>541.0</ele><time>2026-03-29T08:52:22.31Z</time></trkpt><trkpt lat="44.0747217" lon="11.1502817"><ele>541.0000000000001</ele><time>2026-03-29T08:52:24.31Z</time></trkpt><trkpt lat="44.074785" lon="11.1502283"><ele>541.0</ele><time>2026-03-29T08:52:26.309Z</time></trkpt><trkpt lat="44.074855" lon="11.150205"><ele>541.0</ele><time>2026-03-29T08:52:28.309Z</time></trkpt><trkpt lat="44.0749283" lon="11.1501933"><ele>541.0</ele><time>2026-03-29T08:52:30.311Z</time></trkpt><trkpt lat="44.0749967" lon="11.1502"><ele>541.0</ele><time>2026-03-29T08:52:32.309Z</time></trkpt><trkpt lat="44.07508" lon="11.1502467"><ele>541.0000000000001</ele><time>2026-03-29T08:52:35.311Z</time></trkpt><trkpt lat="44.0751383" lon="11.15029"><ele>541.0</ele><time>2026-03-29T08:52:37.309Z</time></trkpt><trkpt lat="44.0752" lon="11.1503333"><ele>541.8571428571429</ele><time>2026-03-29T08:52:39.31Z</time></trkpt><trkpt lat="44.0752733" lon="11.1503617"><ele>542.7142857142858</ele><time>2026-03-29T08:52:41.311Z</time></trkpt><trkpt lat="44.07535" lon="11.1503767"><ele>543.5714285714286</ele><time>2026-03-29T08:52:43.311Z</time></trkpt><trkpt lat="44.0754267" lon="11.1503633"><ele>544.4285714285714</ele><time>2026-03-29T08:52:45.309Z</time></trkpt><trkpt lat="44.0755" lon="11.15034"><ele>545.2857142857142</ele><time>2026-03-29T08:52:47.31Z</time></trkpt><trkpt lat="44.075565" lon="11.1503417"><ele>546.1428571428571</ele><time>2026-03-29T08:52:49.309Z</time></trkpt><trkpt lat="44.0756317" lon="11.150375"><ele>547.0</ele><time>2026-03-29T08:52:51.311Z</time></trkpt><trkpt lat="44.075695" lon="11.1504533"><ele>547.0</ele><time>2026-03-29T08:52:53.309Z</time></trkpt><trkpt lat="44.0757383" lon="11.15055"><ele>547.0</ele><time>2026-03-29T08:52:55.31Z</time></trkpt><trkpt lat="44.0757617" lon="11.15066"><ele>547.0</ele><time>2026-03-29T08:52:57.309Z</time></trkpt><trkpt lat="44.07579" lon="11.1507783"><ele>547.0</ele><time>2026-03-29T08:52:59.31Z</time></trkpt><trkpt lat="44.075805" lon="11.1508933"><ele>547.0</ele><time>2026-03-29T08:53:01.311Z</time></trkpt><trkpt lat="44.0758417" lon="11.1510033"><ele>547.0</ele><time>2026-03-29T08:53:03.311Z</time></trkpt><trkpt lat="44.0759017" lon="11.15109"><ele>551.2</ele><time>2026-03-29T08:53:05.31Z</time></trkpt><trkpt lat="44.0759883" lon="11.1511233"><ele>555.4000000000001</ele><time>2026-03-29T08:53:07.31Z</time></trkpt><trkpt lat="44.0760933" lon="11.1511283"><ele>559.5999999999999</ele><time>2026-03-29T08:53:09.31Z</time></trkpt><trkpt lat="44.07619" lon="11.1511083"><ele>563.8</ele><time>2026-03-29T08:53:11.309Z</time></trkpt><trkpt lat="44.0762883" lon="11.1510833"><ele>568.0</ele><time>2026-03-29T08:53:13.312Z</time></trkpt><trkpt lat="44.0763917" lon="11.1510667"><ele>568.0</ele><time>2026-03-29T08:53:15.31Z</time></trkpt><trkpt lat="44.0764833" lon="11.1510567"><ele>568.0</ele><time>2026-03-29T08:53:17.31Z</time></trkpt><trkpt lat="44.07657" lon="11.15105"><ele>568.0</ele><time>2026-03-29T08:53:19.311Z</time></trkpt><trkpt lat="44.0766583" lon="11.1510517"><ele>568.0</ele><time>2026-03-29T08:53:21.309Z</time></trkpt><trkpt lat="44.0767533" lon="11.151095"><ele>568.0</ele><time>2026-03-29T08:53:23.311Z</time></trkpt><trkpt lat="44.076835" lon="11.1511667"><ele>564.8333333333334</ele><time>2026-03-29T08:53:25.313Z</time></trkpt><trkpt lat="44.0768933" lon="11.1512683"><ele>561.6666666666667</ele><time>2026-03-29T08:53:27.308Z</time></trkpt><trkpt lat="44.0769283" lon="11.151375"><ele>558.5</ele><time>2026-03-29T08:53:29.309Z</time></trkpt><trkpt lat="44.0769567" lon="11.1514817"><ele>555.3333333333334</ele><time>2026-03-29T08:53:31.31Z</time></trkpt><trkpt lat="44.0770083" lon="11.1515733"><ele>552.1666666666666</ele><time>2026-03-29T08:53:33.31Z</time></trkpt><trkpt lat="44.0770933" lon="11.151615"><ele>549.0</ele><time>2026-03-29T08:53:35.313Z</time></trkpt><trkpt lat="44.077185" lon="11.151605"><ele>554.0</ele><time>2026-03-29T08:53:37.309Z</time></trkpt><trkpt lat="44.0772717" lon="11.1515717"><ele>559.0</ele><time>2026-03-29T08:53:39.309Z</time></trkpt><trkpt lat="44.0773533" lon="11.1515467"><ele>564.0</ele><time>2026-03-29T08:53:41.311Z</time></trkpt><trkpt lat="44.0775417" lon="11.15156"><ele>569.0</ele><time>2026-03-29T08:53:46.311Z</time></trkpt><trkpt lat="44.077595" lon="11.1516317"><ele>574.0</ele><time>2026-03-29T08:53:48.31Z</time></trkpt><trkpt lat="44.0776383" lon="11.151715"><ele>574.0</ele><time>2026-03-29T08:53:50.31Z</time></trkpt><trkpt lat="44.077685" lon="11.1517933"><ele>574.0</ele><time>2026-03-29T08:53:52.309Z</time></trkpt><trkpt lat="44.077735" lon="11.1518683"><ele>574.0</ele><time>2026-03-29T08:53:54.311Z</time></trkpt><trkpt lat="44.07779" lon="11.15193"><ele>574.0</ele><time>2026-03-29T08:53:56.309Z</time></trkpt><trkpt lat="44.0778517" lon="11.1519833"><ele>574.0</ele><time>2026-03-29T08:53:58.309Z</time></trkpt><trkpt lat="44.0779117" lon="11.1520467"><ele>574.0</ele><time>2026-03-29T08:54:00.31Z</time></trkpt><trkpt lat="44.077975" lon="11.1521067"><ele>574.0</ele><time>2026-03-29T08:54:02.309Z</time></trkpt><trkpt lat="44.0780167" lon="11.1521817"><ele>574.0</ele><time>2026-03-29T08:54:04.309Z</time></trkpt><trkpt lat="44.0780517" lon="11.1522867"><ele>574.0</ele><time>2026-03-29T08:54:06.309Z</time></trkpt><trkpt lat="44.0780817" lon="11.1523917"><ele>574.0</ele><time>2026-03-29T08:54:08.309Z</time></trkpt><trkpt lat="44.078105" lon="11.1524767"><ele>574.0</ele><time>2026-03-29T08:54:10.31Z</time></trkpt><trkpt lat="44.078155" lon="11.1525383"><ele>574.0</ele><time>2026-03-29T08:54:12.31Z</time></trkpt><trkpt lat="44.0782433" lon="11.152575"><ele>574.0</ele><time>2026-03-29T08:54:14.309Z</time></trkpt><trkpt lat="44.07833" lon="11.1526033"><ele>574.2857142857143</ele><time>2026-03-29T08:54:16.308Z</time></trkpt><trkpt lat="44.07841" lon="11.1526233"><ele>574.5714285714286</ele><time>2026-03-29T08:54:18.308Z</time></trkpt><trkpt lat="44.07847" lon="11.1526533"><ele>574.8571428571429</ele><time>2026-03-29T08:54:20.31Z</time></trkpt><trkpt lat="44.07852" lon="11.1527117"><ele>575.1428571428571</ele><time>2026-03-29T08:54:22.311Z</time></trkpt><trkpt lat="44.0785683" lon="11.1527983"><ele>575.4285714285714</ele><time>2026-03-29T08:54:24.31Z</time></trkpt><trkpt lat="44.078605" lon="11.15288"><ele>575.7142857142858</ele><time>2026-03-29T08:54:26.311Z</time></trkpt><trkpt lat="44.0786367" lon="11.1529833"><ele>576.0</ele><time>2026-03-29T08:54:28.309Z</time></trkpt><trkpt lat="44.0786367" lon="11.15309"><ele>576.0000000000001</ele><time>2026-03-29T08:54:30.31Z</time></trkpt><trkpt lat="44.0786233" lon="11.1531833"><ele>576.0</ele><time>2026-03-29T08:54:32.311Z</time></trkpt><trkpt lat="44.0786133" lon="11.1532733"><ele>576.0</ele><time>2026-03-29T08:54:34.308Z</time></trkpt><trkpt lat="44.078595" lon="11.1533683"><ele>576.0</ele><time>2026-03-29T08:54:36.31Z</time></trkpt><trkpt lat="44.0785917" lon="11.1534567"><ele>576.0</ele><time>2026-03-29T08:54:38.311Z</time></trkpt><trkpt lat="44.0786017" lon="11.1535467"><ele>576.0000000000001</ele><time>2026-03-29T08:54:40.312Z</time></trkpt><trkpt lat="44.0786483" lon="11.1536533"><ele>576.0</ele><time>2026-03-29T08:54:43.31Z</time></trkpt><trkpt lat="44.0787217" lon="11.1537067"><ele>576.6</ele><time>2026-03-29T08:54:45.308Z</time></trkpt><trkpt lat="44.078805" lon="11.1537"><ele>577.2</ele><time>2026-03-29T08:54:47.31Z</time></trkpt><trkpt lat="44.078895" lon="11.1536683"><ele>577.8</ele><time>2026-03-29T08:54:49.314Z</time></trkpt><trkpt lat="44.07899" lon="11.1536417"><ele>578.4</ele><time>2026-03-29T08:54:51.308Z</time></trkpt><trkpt lat="44.079075" lon="11.1536417"><ele>579.0</ele><time>2026-03-29T08:54:53.307Z</time></trkpt><trkpt lat="44.0792067" lon="11.1536483"><ele>579.0</ele><time>2026-03-29T08:54:56.308Z</time></trkpt><trkpt lat="44.0793" lon="11.153645"><ele>579.0</ele><time>2026-03-29T08:54:58.309Z</time></trkpt><trkpt lat="44.0794267" lon="11.1536317"><ele>579.0</ele><time>2026-03-29T08:55:01.312Z</time></trkpt><trkpt lat="44.07951" lon="11.153635"><ele>579.0</ele><time>2026-03-29T08:55:03.309Z</time></trkpt><trkpt lat="44.0795917" lon="11.1536533"><ele>579.0</ele><time>2026-03-29T08:55:05.309Z</time></trkpt><trkpt lat="44.0796483" lon="11.1537083"><ele>579.0</ele><time>2026-03-29T08:55:07.311Z</time></trkpt><trkpt lat="44.0796933" lon="11.1537983"><ele>579.0</ele><time>2026-03-29T08:55:09.308Z</time></trkpt><trkpt lat="44.07973" lon="11.153895"><ele>579.0</ele><time>2026-03-29T08:55:11.312Z</time></trkpt><trkpt lat="44.0797667" lon="11.1539917"><ele>579.0</ele><time>2026-03-29T08:55:13.311Z</time></trkpt><trkpt lat="44.0798117" lon="11.1540767"><ele>579.0</ele><time>2026-03-29T08:55:15.309Z</time></trkpt><trkpt lat="44.0798617" lon="11.154145"><ele>579.0</ele><time>2026-03-29T08:55:17.309Z</time></trkpt><trkpt lat="44.079925" lon="11.1542083"><ele>580.7142857142857</ele><time>2026-03-29T08:55:19.307Z</time></trkpt><trkpt lat="44.0799867" lon="11.154255"><ele>582.4285714285714</ele><time>2026-03-29T08:55:21.308Z</time></trkpt><trkpt lat="44.0800517" lon="11.1543117"><ele>584.1428571428571</ele><time>2026-03-29T08:55:23.311Z</time></trkpt><trkpt lat="44.0801033" lon="11.15438"><ele>585.8571428571429</ele><time>2026-03-29T08:55:25.311Z</time></trkpt><trkpt lat="44.0801517" lon="11.1544533"><ele>587.5714285714286</ele><time>2026-03-29T08:55:27.311Z</time></trkpt><trkpt lat="44.0802033" lon="11.1545367"><ele>589.2857142857142</ele><time>2026-03-29T08:55:29.31Z</time></trkpt><trkpt lat="44.0802417" lon="11.154625"><ele>591.0</ele><time>2026-03-29T08:55:31.31Z</time></trkpt><trkpt lat="44.0802933" lon="11.1547283"><ele>591.0</ele><time>2026-03-29T08:55:34.308Z</time></trkpt><trkpt lat="44.0803367" lon="11.1548"><ele>591.0</ele><time>2026-03-29T08:55:36.311Z</time></trkpt><trkpt lat="44.0803833" lon="11.1548817"><ele>591.0</ele><time>2026-03-29T08:55:38.308Z</time></trkpt><trkpt lat="44.080415" lon="11.1549717"><ele>591.0</ele><time>2026-03-29T08:55:40.308Z</time></trkpt><trkpt lat="44.0804417" lon="11.1550583"><ele>591.0</ele><time>2026-03-29T08:55:42.311Z</time></trkpt><trkpt lat="44.0804783" lon="11.1551433"><ele>591.0</ele><time>2026-03-29T08:55:44.31Z</time></trkpt><trkpt lat="44.0804817" lon="11.1552617"><ele>591.0</ele><time>2026-03-29T08:55:46.309Z</time></trkpt><trkpt lat="44.0804733" lon="11.1553717"><ele>595.8571428571429</ele><time>2026-03-29T08:55:48.311Z</time></trkpt><trkpt lat="44.080465" lon="11.1554867"><ele>600.7142857142858</ele><time>2026-03-29T08:55:50.308Z</time></trkpt><trkpt lat="44.0804483" lon="11.1555833"><ele>605.5714285714287</ele><time>2026-03-29T08:55:52.307Z</time></trkpt><trkpt lat="44.0804367" lon="11.155685"><ele>610.4285714285714</ele><time>2026-03-29T08:55:54.309Z</time></trkpt><trkpt lat="44.0804267" lon="11.15578"><ele>615.2857142857143</ele><time>2026-03-29T08:55:56.309Z</time></trkpt><trkpt lat="44.0804033" lon="11.1558683"><ele>620.1428571428572</ele><time>2026-03-29T08:55:58.309Z</time></trkpt><trkpt lat="44.0803733" lon="11.1559767"><ele>625.0</ele><time>2026-03-29T08:56:00.309Z</time></trkpt><trkpt lat="44.0803383" lon="11.1560717"><ele>626.3333333333334</ele><time>2026-03-29T08:56:02.31Z</time></trkpt><trkpt lat="44.0803033" lon="11.1561617"><ele>627.6666666666667</ele><time>2026-03-29T08:56:04.309Z</time></trkpt><trkpt lat="44.08027" lon="11.156255"><ele>629.0</ele><time>2026-03-29T08:56:06.309Z</time></trkpt><trkpt lat="44.0802317" lon="11.15635"><ele>630.3333333333334</ele><time>2026-03-29T08:56:08.309Z</time></trkpt><trkpt lat="44.0801917" lon="11.1564417"><ele>631.6666666666666</ele><time>2026-03-29T08:56:10.307Z</time></trkpt><trkpt lat="44.0801567" lon="11.1565367"><ele>633.0</ele><time>2026-03-29T08:56:12.308Z</time></trkpt><trkpt lat="44.0801417" lon="11.1566417"><ele>633.0</ele><time>2026-03-29T08:56:14.309Z</time></trkpt><trkpt lat="44.0801383" lon="11.1567383"><ele>633.0</ele><time>2026-03-29T08:56:16.309Z</time></trkpt><trkpt lat="44.0801417" lon="11.15685"><ele>633.0</ele><time>2026-03-29T08:56:18.309Z</time></trkpt><trkpt lat="44.080155" lon="11.1569567"><ele>633.0</ele><time>2026-03-29T08:56:20.309Z</time></trkpt><trkpt lat="44.0801833" lon="11.1570733"><ele>633.0</ele><time>2026-03-29T08:56:22.309Z</time></trkpt><trkpt lat="44.08021" lon="11.1571817"><ele>633.0</ele><time>2026-03-29T08:56:24.309Z</time></trkpt><trkpt lat="44.08023" lon="11.1572917"><ele>632.6666666666666</ele><time>2026-03-29T08:56:26.308Z</time></trkpt><trkpt lat="44.0802483" lon="11.1574"><ele>632.3333333333334</ele><time>2026-03-29T08:56:28.31Z</time></trkpt><trkpt lat="44.0802567" lon="11.15751"><ele>632.0</ele><time>2026-03-29T08:56:30.309Z</time></trkpt><trkpt lat="44.08025" lon="11.15762"><ele>631.6666666666667</ele><time>2026-03-29T08:56:32.31Z</time></trkpt><trkpt lat="44.0802383" lon="11.1577333"><ele>631.3333333333334</ele><time>2026-03-29T08:56:34.308Z</time></trkpt><trkpt lat="44.0802283" lon="11.1578417"><ele>631.0</ele><time>2026-03-29T08:56:36.31Z</time></trkpt><trkpt lat="44.08022" lon="11.1579567"><ele>631.0</ele><time>2026-03-29T08:56:38.31Z</time></trkpt><trkpt lat="44.0802117" lon="11.1580717"><ele>631.0</ele><time>2026-03-29T08:56:40.308Z</time></trkpt><trkpt lat="44.0802017" lon="11.1581783"><ele>631.0</ele><time>2026-03-29T08:56:42.308Z</time></trkpt><trkpt lat="44.0801883" lon="11.15829"><ele>631.0</ele><time>2026-03-29T08:56:44.309Z</time></trkpt><trkpt lat="44.0801767" lon="11.1584067"><ele>631.0</ele><time>2026-03-29T08:56:46.308Z</time></trkpt><trkpt lat="44.08015" lon="11.15852"><ele>631.0</ele><time>2026-03-29T08:56:48.309Z</time></trkpt><trkpt lat="44.0801217" lon="11.158635"><ele>630.0</ele><time>2026-03-29T08:56:50.309Z</time></trkpt><trkpt lat="44.0800733" lon="11.1587433"><ele>629.0</ele><time>2026-03-29T08:56:52.309Z</time></trkpt><trkpt lat="44.08001" lon="11.1588133"><ele>628.0</ele><time>2026-03-29T08:56:54.309Z</time></trkpt><trkpt lat="44.0799333" lon="11.1588483"><ele>627.0</ele><time>2026-03-29T08:56:56.309Z</time></trkpt><trkpt lat="44.0798467" lon="11.1588633"><ele>626.0</ele><time>2026-03-29T08:56:58.31Z</time></trkpt><trkpt lat="44.0797583" lon="11.158865"><ele>625.0</ele><time>2026-03-29T08:57:00.31Z</time></trkpt><trkpt lat="44.079675" lon="11.1588517"><ele>625.6666666666667</ele><time>2026-03-29T08:57:02.31Z</time></trkpt><trkpt lat="44.0795917" lon="11.15885"><ele>626.3333333333334</ele><time>2026-03-29T08:57:04.31Z</time></trkpt><trkpt lat="44.0795117" lon="11.1588633"><ele>627.0</ele><time>2026-03-29T08:57:06.309Z</time></trkpt><trkpt lat="44.0794417" lon="11.1588933"><ele>627.6666666666666</ele><time>2026-03-29T08:57:08.309Z</time></trkpt><trkpt lat="44.0793667" lon="11.158935"><ele>628.3333333333333</ele><time>2026-03-29T08:57:10.309Z</time></trkpt><trkpt lat="44.079285" lon="11.1589867"><ele>629.0</ele><time>2026-03-29T08:57:12.31Z</time></trkpt><trkpt lat="44.0792" lon="11.159045"><ele>629.0</ele><time>2026-03-29T08:57:14.311Z</time></trkpt><trkpt lat="44.079125" lon="11.159065"><ele>629.0</ele><time>2026-03-29T08:57:16.309Z</time></trkpt><trkpt lat="44.0790483" lon="11.15906"><ele>629.0</ele><time>2026-03-29T08:57:18.309Z</time></trkpt><trkpt lat="44.07897" lon="11.1590517"><ele>629.0</ele><time>2026-03-29T08:57:20.309Z</time></trkpt><trkpt lat="44.078895" lon="11.1590817"><ele>629.0</ele><time>2026-03-29T08:57:22.308Z</time></trkpt><trkpt lat="44.0788383" lon="11.1591567"><ele>629.0</ele><time>2026-03-29T08:57:24.309Z</time></trkpt><trkpt lat="44.0788133" lon="11.1592617"><ele>629.0</ele><time>2026-03-29T08:57:26.31Z</time></trkpt><trkpt lat="44.0788333" lon="11.1593767"><ele>629.0</ele><time>2026-03-29T08:57:28.31Z</time></trkpt><trkpt lat="44.0788867" lon="11.1594667"><ele>629.0</ele><time>2026-03-29T08:57:30.31Z</time></trkpt><trkpt lat="44.0789717" lon="11.1595217"><ele>629.0</ele><time>2026-03-29T08:57:32.309Z</time></trkpt><trkpt lat="44.0790517" lon="11.1595533"><ele>629.0</ele><time>2026-03-29T08:57:34.311Z</time></trkpt><trkpt lat="44.0791267" lon="11.159575"><ele>629.0</ele><time>2026-03-29T08:57:36.31Z</time></trkpt><trkpt lat="44.0792067" lon="11.159595"><ele>629.0</ele><time>2026-03-29T08:57:38.309Z</time></trkpt><trkpt lat="44.0792783" lon="11.159625"><ele>629.0</ele><time>2026-03-29T08:57:40.308Z</time></trkpt><trkpt lat="44.079345" lon="11.1596683"><ele>629.0</ele><time>2026-03-29T08:57:42.309Z</time></trkpt><trkpt lat="44.07939" lon="11.1597417"><ele>629.0</ele><time>2026-03-29T08:57:44.31Z</time></trkpt><trkpt lat="44.079415" lon="11.1598233"><ele>629.0</ele><time>2026-03-29T08:57:46.309Z</time></trkpt><trkpt lat="44.07941" lon="11.1599233"><ele>629.0</ele><time>2026-03-29T08:57:48.309Z</time></trkpt><trkpt lat="44.0793933" lon="11.1600183"><ele>629.0</ele><time>2026-03-29T08:57:50.309Z</time></trkpt><trkpt lat="44.07937" lon="11.1601183"><ele>628.8333333333333</ele><time>2026-03-29T08:57:52.31Z</time></trkpt><trkpt lat="44.0793333" lon="11.1602033"><ele>628.6666666666666</ele><time>2026-03-29T08:57:54.312Z</time></trkpt><trkpt lat="44.079295" lon="11.16029"><ele>628.5</ele><time>2026-03-29T08:57:56.31Z</time></trkpt><trkpt lat="44.0792733" lon="11.1603833"><ele>628.3333333333334</ele><time>2026-03-29T08:57:58.309Z</time></trkpt><trkpt lat="44.079265" lon="11.160495"><ele>628.1666666666667</ele><time>2026-03-29T08:58:00.31Z</time></trkpt><trkpt lat="44.0792567" lon="11.160605"><ele>628.0</ele><time>2026-03-29T08:58:02.311Z</time></trkpt><trkpt lat="44.0792567" lon="11.1607117"><ele>629.6666666666667</ele><time>2026-03-29T08:58:04.31Z</time></trkpt><trkpt lat="44.0792583" lon="11.160815"><ele>631.3333333333334</ele><time>2026-03-29T08:58:06.311Z</time></trkpt><trkpt lat="44.0792567" lon="11.1609283"><ele>633.0</ele><time>2026-03-29T08:58:08.31Z</time></trkpt><trkpt lat="44.0792517" lon="11.16104"><ele>634.6666666666666</ele><time>2026-03-29T08:58:10.31Z</time></trkpt><trkpt lat="44.079245" lon="11.1611467"><ele>636.3333333333333</ele><time>2026-03-29T08:58:12.309Z</time></trkpt><trkpt lat="44.0792367" lon="11.1612533"><ele>638.0</ele><time>2026-03-29T08:58:14.309Z</time></trkpt><trkpt lat="44.0792383" lon="11.161375"><ele>638.0</ele><time>2026-03-29T08:58:16.309Z</time></trkpt><trkpt lat="44.079235" lon="11.1614917"><ele>638.0</ele><time>2026-03-29T08:58:18.308Z</time></trkpt><trkpt lat="44.0792283" lon="11.16162"><ele>638.0</ele><time>2026-03-29T08:58:20.309Z</time></trkpt><trkpt lat="44.0792217" lon="11.161735"><ele>638.0</ele><time>2026-03-29T08:58:22.308Z</time></trkpt><trkpt lat="44.0792183" lon="11.161845"><ele>638.0</ele><time>2026-03-29T08:58:24.308Z</time></trkpt><trkpt lat="44.0792183" lon="11.1619583"><ele>638.0</ele><time>2026-03-29T08:58:26.312Z</time></trkpt><trkpt lat="44.0792183" lon="11.16207"><ele>637.8333333333333</ele><time>2026-03-29T08:58:28.311Z</time></trkpt><trkpt lat="44.0792483" lon="11.1621833"><ele>637.6666666666666</ele><time>2026-03-29T08:58:30.31Z</time></trkpt><trkpt lat="44.0792967" lon="11.162285"><ele>637.5</ele><time>2026-03-29T08:58:32.308Z</time></trkpt><trkpt lat="44.079355" lon="11.1623633"><ele>637.3333333333334</ele><time>2026-03-29T08:58:34.31Z</time></trkpt><trkpt lat="44.079435" lon="11.1624183"><ele>637.1666666666667</ele><time>2026-03-29T08:58:36.309Z</time></trkpt><trkpt lat="44.0795217" lon="11.162455"><ele>637.0</ele><time>2026-03-29T08:58:38.31Z</time></trkpt><trkpt lat="44.079615" lon="11.1624933"><ele>637.6666666666667</ele><time>2026-03-29T08:58:40.31Z</time></trkpt><trkpt lat="44.0796967" lon="11.16254"><ele>638.3333333333334</ele><time>2026-03-29T08:58:42.31Z</time></trkpt><trkpt lat="44.07978" lon="11.1625833"><ele>639.0</ele><time>2026-03-29T08:58:44.312Z</time></trkpt><trkpt lat="44.0798633" lon="11.162625"><ele>639.6666666666666</ele><time>2026-03-29T08:58:46.31Z</time></trkpt><trkpt lat="44.07994" lon="11.162675"><ele>640.3333333333333</ele><time>2026-03-29T08:58:48.309Z</time></trkpt><trkpt lat="44.080005" lon="11.1627317"><ele>641.0</ele><time>2026-03-29T08:58:50.312Z</time></trkpt><trkpt lat="44.0800583" lon="11.1627933"><ele>639.1666666666666</ele><time>2026-03-29T08:58:52.309Z</time></trkpt><trkpt lat="44.080115" lon="11.1628617"><ele>637.3333333333333</ele><time>2026-03-29T08:58:54.31Z</time></trkpt><trkpt lat="44.080165" lon="11.1629233"><ele>635.5</ele><time>2026-03-29T08:58:56.309Z</time></trkpt><trkpt lat="44.0802317" lon="11.1629767"><ele>633.6666666666666</ele><time>2026-03-29T08:58:58.31Z</time></trkpt><trkpt lat="44.080305" lon="11.1629767"><ele>631.8333333333334</ele><time>2026-03-29T08:59:00.309Z</time></trkpt><trkpt lat="44.080375" lon="11.16292"><ele>630.0</ele><time>2026-03-29T08:59:02.311Z</time></trkpt><trkpt lat="44.08044" lon="11.1628183"><ele>630.0</ele><time>2026-03-29T08:59:04.31Z</time></trkpt><trkpt lat="44.0804767" lon="11.1627033"><ele>630.0</ele><time>2026-03-29T08:59:06.311Z</time></trkpt><trkpt lat="44.0804617" lon="11.162585"><ele>630.0</ele><time>2026-03-29T08:59:08.31Z</time></trkpt><trkpt lat="44.080415" lon="11.1624733"><ele>630.0</ele><time>2026-03-29T08:59:10.31Z</time></trkpt><trkpt lat="44.0803617" lon="11.162355"><ele>630.0</ele><time>2026-03-29T08:59:12.311Z</time></trkpt><trkpt lat="44.0803083" lon="11.1622517"><ele>629.2</ele><time>2026-03-29T08:59:14.31Z</time></trkpt><trkpt lat="44.0802567" lon="11.1621583"><ele>628.4</ele><time>2026-03-29T08:59:16.31Z</time></trkpt><trkpt lat="44.08022" lon="11.1620483"><ele>627.6</ele><time>2026-03-29T08:59:18.311Z</time></trkpt><trkpt lat="44.0801933" lon="11.1619283"><ele>626.8</ele><time>2026-03-29T08:59:20.309Z</time></trkpt><trkpt lat="44.08018" lon="11.1618017"><ele>626.0</ele><time>2026-03-29T08:59:22.309Z</time></trkpt><trkpt lat="44.0801783" lon="11.1616683"><ele>626.0</ele><time>2026-03-29T08:59:24.31Z</time></trkpt><trkpt lat="44.080195" lon="11.1615567"><ele>626.0</ele><time>2026-03-29T08:59:26.311Z</time></trkpt><trkpt lat="44.08023" lon="11.1614467"><ele>626.0</ele><time>2026-03-29T08:59:28.31Z</time></trkpt><trkpt lat="44.08027" lon="11.1613417"><ele>626.0</ele><time>2026-03-29T08:59:30.309Z</time></trkpt><trkpt lat="44.0803117" lon="11.161225"><ele>626.0</ele><time>2026-03-29T08:59:32.309Z</time></trkpt><trkpt lat="44.0803533" lon="11.1611267"><ele>626.0</ele><time>2026-03-29T08:59:34.31Z</time></trkpt><trkpt lat="44.08039" lon="11.161025"><ele>624.5</ele><time>2026-03-29T08:59:36.309Z</time></trkpt><trkpt lat="44.0804283" lon="11.160925"><ele>623.0</ele><time>2026-03-29T08:59:38.311Z</time></trkpt><trkpt lat="44.0804733" lon="11.1608267"><ele>621.5</ele><time>2026-03-29T08:59:40.31Z</time></trkpt><trkpt lat="44.0805267" lon="11.16073"><ele>620.0</ele><time>2026-03-29T08:59:42.31Z</time></trkpt><trkpt lat="44.080585" lon="11.1606417"><ele>618.5</ele><time>2026-03-29T08:59:44.31Z</time></trkpt><trkpt lat="44.0806517" lon="11.160565"><ele>617.0</ele><time>2026-03-29T08:59:46.31Z</time></trkpt><trkpt lat="44.08072" lon="11.1604967"><ele>618.2</ele><time>2026-03-29T08:59:48.311Z</time></trkpt><trkpt lat="44.0808017" lon="11.1604267"><ele>619.4000000000001</ele><time>2026-03-29T08:59:50.31Z</time></trkpt><trkpt lat="44.0808717" lon="11.160355"><ele>620.5999999999999</ele><time>2026-03-29T08:59:52.309Z</time></trkpt><trkpt lat="44.0809467" lon="11.16029"><ele>621.8</ele><time>2026-03-29T08:59:54.31Z</time></trkpt><trkpt lat="44.0810217" lon="11.1602133"><ele>623.0</ele><time>2026-03-29T08:59:56.311Z</time></trkpt><trkpt lat="44.0810933" lon="11.1601333"><ele>623.0</ele><time>2026-03-29T08:59:58.31Z</time></trkpt><trkpt lat="44.0811633" lon="11.1600633"><ele>623.0</ele><time>2026-03-29T09:00:00.309Z</time></trkpt><trkpt lat="44.0812267" lon="11.1600033"><ele>623.0</ele><time>2026-03-29T09:00:02.31Z</time></trkpt><trkpt lat="44.0813" lon="11.159945"><ele>623.0</ele><time>2026-03-29T09:00:04.309Z</time></trkpt><trkpt lat="44.081375" lon="11.1598917"><ele>623.0</ele><time>2026-03-29T09:00:06.31Z</time></trkpt><trkpt lat="44.081455" lon="11.15985"><ele>623.0</ele><time>2026-03-29T09:00:08.31Z</time></trkpt><trkpt lat="44.0815433" lon="11.159815"><ele>623.6666666666666</ele><time>2026-03-29T09:00:10.309Z</time></trkpt><trkpt lat="44.0816267" lon="11.1597867"><ele>624.3333333333333</ele><time>2026-03-29T09:00:12.309Z</time></trkpt><trkpt lat="44.0817083" lon="11.1597583"><ele>625.0</ele><time>2026-03-29T09:00:14.31Z</time></trkpt><trkpt lat="44.081795" lon="11.1597483"><ele>625.6666666666666</ele><time>2026-03-29T09:00:16.31Z</time></trkpt><trkpt lat="44.081885" lon="11.159735"><ele>626.3333333333334</ele><time>2026-03-29T09:00:18.312Z</time></trkpt><trkpt lat="44.0819783" lon="11.1597217"><ele>627.0</ele><time>2026-03-29T09:00:20.311Z</time></trkpt><trkpt lat="44.082075" lon="11.1597083"><ele>627.0</ele><time>2026-03-29T09:00:22.311Z</time></trkpt><trkpt lat="44.0821667" lon="11.1596767"><ele>627.0</ele><time>2026-03-29T09:00:24.31Z</time></trkpt><trkpt lat="44.0822567" lon="11.1596417"><ele>627.0</ele><time>2026-03-29T09:00:26.311Z</time></trkpt><trkpt lat="44.08233" lon="11.15959"><ele>627.0</ele><time>2026-03-29T09:00:28.31Z</time></trkpt><trkpt lat="44.0823967" lon="11.1595283"><ele>627.0</ele><time>2026-03-29T09:00:30.311Z</time></trkpt><trkpt lat="44.0824567" lon="11.1594567"><ele>627.0</ele><time>2026-03-29T09:00:32.31Z</time></trkpt><trkpt lat="44.0825167" lon="11.1593733"><ele>627.5</ele><time>2026-03-29T09:00:34.309Z</time></trkpt><trkpt lat="44.0825833" lon="11.159295"><ele>628.0</ele><time>2026-03-29T09:00:36.31Z</time></trkpt><trkpt lat="44.0826433" lon="11.15921"><ele>628.5</ele><time>2026-03-29T09:00:38.31Z</time></trkpt><trkpt lat="44.0827" lon="11.15912"><ele>629.0</ele><time>2026-03-29T09:00:40.31Z</time></trkpt><trkpt lat="44.0827717" lon="11.1590517"><ele>629.5</ele><time>2026-03-29T09:00:42.31Z</time></trkpt><trkpt lat="44.0828467" lon="11.1589817"><ele>630.0</ele><time>2026-03-29T09:00:44.31Z</time></trkpt><trkpt lat="44.0829183" lon="11.1589117"><ele>630.0</ele><time>2026-03-29T09:00:46.31Z</time></trkpt><trkpt lat="44.0829883" lon="11.1588583"><ele>630.0</ele><time>2026-03-29T09:00:48.309Z</time></trkpt><trkpt lat="44.0830517" lon="11.1588117"><ele>630.0</ele><time>2026-03-29T09:00:50.31Z</time></trkpt><trkpt lat="44.083115" lon="11.1587583"><ele>630.0</ele><time>2026-03-29T09:00:52.309Z</time></trkpt><trkpt lat="44.0831733" lon="11.1586933"><ele>630.0</ele><time>2026-03-29T09:00:54.309Z</time></trkpt><trkpt lat="44.0832367" lon="11.158635"><ele>630.0</ele><time>2026-03-29T09:00:56.309Z</time></trkpt><trkpt lat="44.0833" lon="11.1585767"><ele>631.7142857142857</ele><time>2026-03-29T09:00:58.309Z</time></trkpt><trkpt lat="44.08337" lon="11.15853"><ele>633.4285714285714</ele><time>2026-03-29T09:01:00.308Z</time></trkpt><trkpt lat="44.0834383" lon="11.1585017"><ele>635.1428571428571</ele><time>2026-03-29T09:01:02.31Z</time></trkpt><trkpt lat="44.0835067" lon="11.1584917"><ele>636.8571428571429</ele><time>2026-03-29T09:01:04.31Z</time></trkpt><trkpt lat="44.0835733" lon="11.1584933"><ele>638.5714285714286</ele><time>2026-03-29T09:01:06.31Z</time></trkpt><trkpt lat="44.083635" lon="11.1585183"><ele>640.2857142857142</ele><time>2026-03-29T09:01:08.31Z</time></trkpt><trkpt lat="44.0836933" lon="11.158565"><ele>642.0</ele><time>2026-03-29T09:01:10.309Z</time></trkpt><trkpt lat="44.083755" lon="11.1586383"><ele>642.0</ele><time>2026-03-29T09:01:12.311Z</time></trkpt><trkpt lat="44.083815" lon="11.1587167"><ele>642.0</ele><time>2026-03-29T09:01:14.309Z</time></trkpt><trkpt lat="44.08386" lon="11.158805"><ele>642.0</ele><time>2026-03-29T09:01:16.309Z</time></trkpt><trkpt lat="44.0838983" lon="11.1588833"><ele>642.0</ele><time>2026-03-29T09:01:18.311Z</time></trkpt><trkpt lat="44.0839467" lon="11.1589733"><ele>642.0</ele><time>2026-03-29T09:01:20.31Z</time></trkpt><trkpt lat="44.0839983" lon="11.1590567"><ele>642.0</ele><time>2026-03-29T09:01:22.311Z</time></trkpt><trkpt lat="44.08405" lon="11.1591433"><ele>644.5</ele><time>2026-03-29T09:01:24.31Z</time></trkpt><trkpt lat="44.0841067" lon="11.1592283"><ele>647.0</ele><time>2026-03-29T09:01:26.31Z</time></trkpt><trkpt lat="44.0841583" lon="11.159315"><ele>649.5</ele><time>2026-03-29T09:01:28.31Z</time></trkpt><trkpt lat="44.0842083" lon="11.1593933"><ele>652.0</ele><time>2026-03-29T09:01:30.311Z</time></trkpt><trkpt lat="44.0842567" lon="11.1594683"><ele>654.5</ele><time>2026-03-29T09:01:32.31Z</time></trkpt><trkpt lat="44.0842983" lon="11.15956"><ele>657.0</ele><time>2026-03-29T09:01:34.308Z</time></trkpt><trkpt lat="44.0843417" lon="11.15966"><ele>657.0</ele><time>2026-03-29T09:01:36.31Z</time></trkpt><trkpt lat="44.0843833" lon="11.15976"><ele>657.0</ele><time>2026-03-29T09:01:38.31Z</time></trkpt><trkpt lat="44.0844283" lon="11.1598583"><ele>657.0</ele><time>2026-03-29T09:01:40.31Z</time></trkpt><trkpt lat="44.08447" lon="11.1599517"><ele>657.0</ele><time>2026-03-29T09:01:42.312Z</time></trkpt><trkpt lat="44.08451" lon="11.1600333"><ele>657.0</ele><time>2026-03-29T09:01:44.311Z</time></trkpt><trkpt lat="44.08455" lon="11.1601183"><ele>657.0</ele><time>2026-03-29T09:01:46.308Z</time></trkpt><trkpt lat="44.0845833" lon="11.1601967"><ele>657.2857142857142</ele><time>2026-03-29T09:01:48.31Z</time></trkpt><trkpt lat="44.0846183" lon="11.1602767"><ele>657.5714285714287</ele><time>2026-03-29T09:01:50.311Z</time></trkpt><trkpt lat="44.0846667" lon="11.1603517"><ele>657.8571428571429</ele><time>2026-03-29T09:01:52.31Z</time></trkpt><trkpt lat="44.0847233" lon="11.160425"><ele>658.1428571428571</ele><time>2026-03-29T09:01:54.311Z</time></trkpt><trkpt lat="44.08477" lon="11.160485"><ele>658.4285714285713</ele><time>2026-03-29T09:01:56.309Z</time></trkpt><trkpt lat="44.0848267" lon="11.1605333"><ele>658.7142857142858</ele><time>2026-03-29T09:01:58.311Z</time></trkpt><trkpt lat="44.08489" lon="11.1605667"><ele>659.0</ele><time>2026-03-29T09:02:00.31Z</time></trkpt><trkpt lat="44.0849583" lon="11.1605817"><ele>659.0</ele><time>2026-03-29T09:02:02.31Z</time></trkpt><trkpt lat="44.0850333" lon="11.1605833"><ele>659.0</ele><time>2026-03-29T09:02:04.309Z</time></trkpt><trkpt lat="44.0851183" lon="11.160565"><ele>659.0</ele><time>2026-03-29T09:02:06.31Z</time></trkpt><trkpt lat="44.0851933" lon="11.1605367"><ele>659.0</ele><time>2026-03-29T09:02:08.31Z</time></trkpt><trkpt lat="44.0852717" lon="11.160485"><ele>659.0</ele><time>2026-03-29T09:02:10.309Z</time></trkpt><trkpt lat="44.0853533" lon="11.1604433"><ele>659.0</ele><time>2026-03-29T09:02:12.31Z</time></trkpt><trkpt lat="44.0854333" lon="11.1604133"><ele>659.0</ele><time>2026-03-29T09:02:14.309Z</time></trkpt><trkpt lat="44.0855117" lon="11.1603933"><ele>659.0</ele><time>2026-03-29T09:02:16.31Z</time></trkpt><trkpt lat="44.08559" lon="11.16038"><ele>659.0</ele><time>2026-03-29T09:02:18.308Z</time></trkpt><trkpt lat="44.0856667" lon="11.1603933"><ele>659.0</ele><time>2026-03-29T09:02:20.309Z</time></trkpt><trkpt lat="44.0857383" lon="11.1604117"><ele>659.0</ele><time>2026-03-29T09:02:22.309Z</time></trkpt><trkpt lat="44.08581" lon="11.1604467"><ele>659.0</ele><time>2026-03-29T09:02:24.311Z</time></trkpt><trkpt lat="44.0858717" lon="11.1605033"><ele>659.1666666666666</ele><time>2026-03-29T09:02:26.309Z</time></trkpt><trkpt lat="44.0859217" lon="11.1605683"><ele>659.3333333333333</ele><time>2026-03-29T09:02:28.31Z</time></trkpt><trkpt lat="44.0859667" lon="11.16064"><ele>659.5</ele><time>2026-03-29T09:02:30.311Z</time></trkpt><trkpt lat="44.0860233" lon="11.1607067"><ele>659.6666666666666</ele><time>2026-03-29T09:02:32.31Z</time></trkpt><trkpt lat="44.08608" lon="11.1607783"><ele>659.8333333333334</ele><time>2026-03-29T09:02:34.307Z</time></trkpt><trkpt lat="44.0861367" lon="11.1608583"><ele>660.0</ele><time>2026-03-29T09:02:36.31Z</time></trkpt><trkpt lat="44.08619" lon="11.1609467"><ele>662.8333333333334</ele><time>2026-03-29T09:02:38.308Z</time></trkpt><trkpt lat="44.0862317" lon="11.161035"><ele>665.6666666666666</ele><time>2026-03-29T09:02:40.308Z</time></trkpt><trkpt lat="44.086275" lon="11.1611217"><ele>668.5</ele><time>2026-03-29T09:02:42.31Z</time></trkpt><trkpt lat="44.0863233" lon="11.161195"><ele>671.3333333333333</ele><time>2026-03-29T09:02:44.31Z</time></trkpt><trkpt lat="44.086375" lon="11.1612667"><ele>674.1666666666666</ele><time>2026-03-29T09:02:46.309Z</time></trkpt><trkpt lat="44.086415" lon="11.1613367"><ele>677.0</ele><time>2026-03-29T09:02:48.311Z</time></trkpt><trkpt lat="44.0864733" lon="11.1614417"><ele>677.0</ele><time>2026-03-29T09:02:51.309Z</time></trkpt><trkpt lat="44.0865233" lon="11.161515"><ele>677.0</ele><time>2026-03-29T09:02:53.311Z</time></trkpt><trkpt lat="44.0865833" lon="11.1616183"><ele>677.0</ele><time>2026-03-29T09:02:56.31Z</time></trkpt><trkpt lat="44.0866283" lon="11.161705"><ele>677.0</ele><time>2026-03-29T09:02:58.309Z</time></trkpt><trkpt lat="44.0866717" lon="11.1617883"><ele>677.0</ele><time>2026-03-29T09:03:00.31Z</time></trkpt><trkpt lat="44.0867183" lon="11.1618583"><ele>677.0</ele><time>2026-03-29T09:03:02.309Z</time></trkpt><trkpt lat="44.0867617" lon="11.161935"><ele>677.6666666666666</ele><time>2026-03-29T09:03:04.309Z</time></trkpt><trkpt lat="44.0868067" lon="11.1620117"><ele>678.3333333333333</ele><time>2026-03-29T09:03:06.309Z</time></trkpt><trkpt lat="44.086855" lon="11.1620867"><ele>679.0</ele><time>2026-03-29T09:03:08.31Z</time></trkpt><trkpt lat="44.0868967" lon="11.1621583"><ele>679.6666666666666</ele><time>2026-03-29T09:03:10.308Z</time></trkpt><trkpt lat="44.0869483" lon="11.162265"><ele>680.3333333333334</ele><time>2026-03-29T09:03:13.31Z</time></trkpt><trkpt lat="44.0869933" lon="11.1623467"><ele>681.0</ele><time>2026-03-29T09:03:15.31Z</time></trkpt><trkpt lat="44.0870583" lon="11.1624333"><ele>685.0</ele><time>2026-03-29T09:03:17.309Z</time></trkpt><trkpt lat="44.0871233" lon="11.162515"><ele>689.0</ele><time>2026-03-29T09:03:19.309Z</time></trkpt><trkpt lat="44.087175" lon="11.162605"><ele>693.0</ele><time>2026-03-29T09:03:21.308Z</time></trkpt><trkpt lat="44.08722" lon="11.1626967"><ele>697.0</ele><time>2026-03-29T09:03:23.311Z</time></trkpt><trkpt lat="44.08727" lon="11.162795"><ele>701.0</ele><time>2026-03-29T09:03:25.307Z</time></trkpt><trkpt lat="44.087335" lon="11.1628833"><ele>705.0</ele><time>2026-03-29T09:03:27.31Z</time></trkpt><trkpt lat="44.0873867" lon="11.16297"><ele>703.1666666666666</ele><time>2026-03-29T09:03:29.309Z</time></trkpt><trkpt lat="44.0874383" lon="11.1630483"><ele>701.3333333333334</ele><time>2026-03-29T09:03:31.307Z</time></trkpt><trkpt lat="44.0874883" lon="11.1631267"><ele>699.5</ele><time>2026-03-29T09:03:33.31Z</time></trkpt><trkpt lat="44.0875433" lon="11.1632"><ele>697.6666666666667</ele><time>2026-03-29T09:03:35.308Z</time></trkpt><trkpt lat="44.0876067" lon="11.163255"><ele>695.8333333333334</ele><time>2026-03-29T09:03:37.309Z</time></trkpt><trkpt lat="44.08768" lon="11.1632817"><ele>694.0</ele><time>2026-03-29T09:03:39.309Z</time></trkpt><trkpt lat="44.0877583" lon="11.1632883"><ele>694.0</ele><time>2026-03-29T09:03:41.31Z</time></trkpt><trkpt lat="44.0878433" lon="11.163275"><ele>694.0</ele><time>2026-03-29T09:03:43.31Z</time></trkpt><trkpt lat="44.0879167" lon="11.1632117"><ele>694.0</ele><time>2026-03-29T09:03:45.308Z</time></trkpt><trkpt lat="44.0879717" lon="11.163125"><ele>694.0</ele><time>2026-03-29T09:03:47.309Z</time></trkpt><trkpt lat="44.0880033" lon="11.16302"><ele>694.0</ele><time>2026-03-29T09:03:49.308Z</time></trkpt><trkpt lat="44.088015" lon="11.1629083"><ele>694.0</ele><time>2026-03-29T09:03:51.31Z</time></trkpt><trkpt lat="44.0880117" lon="11.1628"><ele>691.6666666666667</ele><time>2026-03-29T09:03:53.311Z</time></trkpt><trkpt lat="44.0880033" lon="11.1626883"><ele>689.3333333333334</ele><time>2026-03-29T09:03:55.309Z</time></trkpt><trkpt lat="44.0879833" lon="11.16257"><ele>687.0</ele><time>2026-03-29T09:03:57.309Z</time></trkpt><trkpt lat="44.0879733" lon="11.16246"><ele>684.6666666666666</ele><time>2026-03-29T09:03:59.309Z</time></trkpt><trkpt lat="44.08798" lon="11.1623483"><ele>682.3333333333333</ele><time>2026-03-29T09:04:01.309Z</time></trkpt><trkpt lat="44.088005" lon="11.1622567"><ele>680.0</ele><time>2026-03-29T09:04:03.309Z</time></trkpt><trkpt lat="44.0880467" lon="11.1621783"><ele>679.5714285714286</ele><time>2026-03-29T09:04:05.309Z</time></trkpt><trkpt lat="44.0881" lon="11.1621067"><ele>679.1428571428571</ele><time>2026-03-29T09:04:07.31Z</time></trkpt><trkpt lat="44.08816" lon="11.1620383"><ele>678.7142857142857</ele><time>2026-03-29T09:04:09.309Z</time></trkpt><trkpt lat="44.0882217" lon="11.1619683"><ele>678.2857142857142</ele><time>2026-03-29T09:04:11.31Z</time></trkpt><trkpt lat="44.0882833" lon="11.161905"><ele>677.8571428571429</ele><time>2026-03-29T09:04:13.309Z</time></trkpt><trkpt lat="44.08834" lon="11.1618417"><ele>677.4285714285713</ele><time>2026-03-29T09:04:15.309Z</time></trkpt><trkpt lat="44.08839" lon="11.1617817"><ele>677.0</ele><time>2026-03-29T09:04:17.307Z</time></trkpt><trkpt lat="44.0884417" lon="11.1617283"><ele>679.3333333333333</ele><time>2026-03-29T09:04:19.308Z</time></trkpt><trkpt lat="44.0885383" lon="11.1617017"><ele>681.6666666666666</ele><time>2026-03-29T09:04:22.308Z</time></trkpt><trkpt lat="44.0886117" lon="11.1617033"><ele>684.0</ele><time>2026-03-29T09:04:24.308Z</time></trkpt><trkpt lat="44.088685" lon="11.161715"><ele>686.3333333333334</ele><time>2026-03-29T09:04:26.309Z</time></trkpt><trkpt lat="44.0887567" lon="11.1617417"><ele>688.6666666666667</ele><time>2026-03-29T09:04:28.31Z</time></trkpt><trkpt lat="44.0888317" lon="11.1617733"><ele>691.0</ele><time>2026-03-29T09:04:30.308Z</time></trkpt><trkpt lat="44.0889033" lon="11.1617983"><ele>691.0</ele><time>2026-03-29T09:04:32.31Z</time></trkpt><trkpt lat="44.0889783" lon="11.1618183"><ele>691.0</ele><time>2026-03-29T09:04:34.308Z</time></trkpt><trkpt lat="44.0890583" lon="11.1618367"><ele>691.0</ele><time>2026-03-29T09:04:36.31Z</time></trkpt><trkpt lat="44.0891333" lon="11.1618517"><ele>691.0</ele><time>2026-03-29T09:04:38.309Z</time></trkpt><trkpt lat="44.0892083" lon="11.1618367"><ele>691.0</ele><time>2026-03-29T09:04:40.309Z</time></trkpt><trkpt lat="44.0892933" lon="11.1618017"><ele>691.0</ele><time>2026-03-29T09:04:42.308Z</time></trkpt><trkpt lat="44.0893717" lon="11.1617517"><ele>692.0</ele><time>2026-03-29T09:04:44.309Z</time></trkpt><trkpt lat="44.0894317" lon="11.1616767"><ele>693.0</ele><time>2026-03-29T09:04:46.309Z</time></trkpt><trkpt lat="44.0894733" lon="11.16158"><ele>694.0</ele><time>2026-03-29T09:04:48.309Z</time></trkpt><trkpt lat="44.0895033" lon="11.1614717"><ele>695.0</ele><time>2026-03-29T09:04:50.31Z</time></trkpt><trkpt lat="44.0895183" lon="11.1613633"><ele>696.0</ele><time>2026-03-29T09:04:52.309Z</time></trkpt><trkpt lat="44.08952" lon="11.1612533"><ele>697.0</ele><time>2026-03-29T09:04:54.309Z</time></trkpt><trkpt lat="44.0895067" lon="11.1611433"><ele>698.0</ele><time>2026-03-29T09:04:56.309Z</time></trkpt><trkpt lat="44.0894717" lon="11.1610333"><ele>699.0</ele><time>2026-03-29T09:04:58.308Z</time></trkpt><trkpt lat="44.0894233" lon="11.160935"><ele>700.0</ele><time>2026-03-29T09:05:00.31Z</time></trkpt><trkpt lat="44.0893633" lon="11.160845"><ele>701.0</ele><time>2026-03-29T09:05:02.31Z</time></trkpt><trkpt lat="44.08929" lon="11.16077"><ele>702.0</ele><time>2026-03-29T09:05:04.308Z</time></trkpt><trkpt lat="44.0892083" lon="11.16071"><ele>703.0</ele><time>2026-03-29T09:05:06.309Z</time></trkpt><trkpt lat="44.0891233" lon="11.1606517"><ele>702.2</ele><time>2026-03-29T09:05:08.311Z</time></trkpt><trkpt lat="44.0890367" lon="11.1605867"><ele>701.4</ele><time>2026-03-29T09:05:10.31Z</time></trkpt><trkpt lat="44.0889467" lon="11.1605233"><ele>700.6</ele><time>2026-03-29T09:05:12.31Z</time></trkpt><trkpt lat="44.088855" lon="11.160455"><ele>699.8000000000001</ele><time>2026-03-29T09:05:14.31Z</time></trkpt><trkpt lat="44.0887667" lon="11.16037"><ele>699.0</ele><time>2026-03-29T09:05:16.31Z</time></trkpt><trkpt lat="44.08869" lon="11.16026"><ele>699.0</ele><time>2026-03-29T09:05:18.309Z</time></trkpt><trkpt lat="44.08863" lon="11.1601283"><ele>699.0</ele><time>2026-03-29T09:05:20.311Z</time></trkpt><trkpt lat="44.088585" lon="11.1599833"><ele>699.0</ele><time>2026-03-29T09:05:22.31Z</time></trkpt><trkpt lat="44.0885583" lon="11.1598367"><ele>699.0</ele><time>2026-03-29T09:05:24.31Z</time></trkpt><trkpt lat="44.0885517" lon="11.1596867"><ele>699.0</ele><time>2026-03-29T09:05:26.31Z</time></trkpt><trkpt lat="44.0885633" lon="11.1595333"><ele>699.4000000000001</ele><time>2026-03-29T09:05:28.31Z</time></trkpt><trkpt lat="44.0885967" lon="11.159385"><ele>699.8</ele><time>2026-03-29T09:05:30.31Z</time></trkpt><trkpt lat="44.08864" lon="11.1592483"><ele>700.2</ele><time>2026-03-29T09:05:32.311Z</time></trkpt><trkpt lat="44.0886917" lon="11.15913"><ele>700.5999999999999</ele><time>2026-03-29T09:05:34.309Z</time></trkpt><trkpt lat="44.0887667" lon="11.1590283"><ele>701.0</ele><time>2026-03-29T09:05:36.311Z</time></trkpt><trkpt lat="44.0888567" lon="11.1589517"><ele>701.0</ele><time>2026-03-29T09:05:38.309Z</time></trkpt><trkpt lat="44.0889583" lon="11.1589067"><ele>701.0</ele><time>2026-03-29T09:05:40.309Z</time></trkpt><trkpt lat="44.089065" lon="11.15889"><ele>701.0</ele><time>2026-03-29T09:05:42.31Z</time></trkpt><trkpt lat="44.0891733" lon="11.1588983"><ele>701.0</ele><time>2026-03-29T09:05:44.311Z</time></trkpt><trkpt lat="44.0892783" lon="11.1589333"><ele>701.0</ele><time>2026-03-29T09:05:46.307Z</time></trkpt><trkpt lat="44.089375" lon="11.1589967"><ele>702.8</ele><time>2026-03-29T09:05:48.311Z</time></trkpt><trkpt lat="44.0894683" lon="11.15907"><ele>704.5999999999999</ele><time>2026-03-29T09:05:50.31Z</time></trkpt><trkpt lat="44.0895583" lon="11.15915"><ele>706.4</ele><time>2026-03-29T09:05:52.309Z</time></trkpt><trkpt lat="44.0896483" lon="11.1592283"><ele>708.2</ele><time>2026-03-29T09:05:54.309Z</time></trkpt><trkpt lat="44.08974" lon="11.1593067"><ele>710.0</ele><time>2026-03-29T09:05:56.311Z</time></trkpt><trkpt lat="44.0898283" lon="11.1593933"><ele>710.0</ele><time>2026-03-29T09:05:58.309Z</time></trkpt><trkpt lat="44.0899167" lon="11.15948"><ele>710.0</ele><time>2026-03-29T09:06:00.311Z</time></trkpt><trkpt lat="44.0900117" lon="11.1595667"><ele>710.0</ele><time>2026-03-29T09:06:02.311Z</time></trkpt><trkpt lat="44.090105" lon="11.1596483"><ele>710.0</ele><time>2026-03-29T09:06:04.31Z</time></trkpt><trkpt lat="44.0902" lon="11.1597333"><ele>710.0</ele><time>2026-03-29T09:06:06.31Z</time></trkpt><trkpt lat="44.0902967" lon="11.1598217"><ele>709.4</ele><time>2026-03-29T09:06:08.311Z</time></trkpt><trkpt lat="44.090385" lon="11.1599083"><ele>708.8</ele><time>2026-03-29T09:06:10.31Z</time></trkpt><trkpt lat="44.090475" lon="11.159975"><ele>708.2</ele><time>2026-03-29T09:06:12.31Z</time></trkpt><trkpt lat="44.090565" lon="11.160055"><ele>707.6</ele><time>2026-03-29T09:06:14.31Z</time></trkpt><trkpt lat="44.0906467" lon="11.16013"><ele>707.0</ele><time>2026-03-29T09:06:16.309Z</time></trkpt><trkpt lat="44.0907417" lon="11.1602167"><ele>706.4000000000001</ele><time>2026-03-29T09:06:18.311Z</time></trkpt><trkpt lat="44.0908417" lon="11.1603067"><ele>705.8000000000001</ele><time>2026-03-29T09:06:20.31Z</time></trkpt><trkpt lat="44.09094" lon="11.1604033"><ele>705.2</ele><time>2026-03-29T09:06:22.31Z</time></trkpt><trkpt lat="44.091035" lon="11.1604983"><ele>704.6</ele><time>2026-03-29T09:06:24.31Z</time></trkpt><trkpt lat="44.0910883" lon="11.1605483"><ele>704.0</ele><time>2026-03-29T09:06:25.309Z</time></trkpt><trkpt lat="44.0911417" lon="11.1606"><ele>704.0</ele><time>2026-03-29T09:06:26.311Z</time></trkpt><trkpt lat="44.0911933" lon="11.1606533"><ele>704.0</ele><time>2026-03-29T09:06:27.31Z</time></trkpt><trkpt lat="44.0912917" lon="11.1607467"><ele>704.0</ele><time>2026-03-29T09:06:29.311Z</time></trkpt><trkpt lat="44.0913883" lon="11.1608333"><ele>704.0</ele><time>2026-03-29T09:06:31.311Z</time></trkpt><trkpt lat="44.0914867" lon="11.1609233"><ele>704.0</ele><time>2026-03-29T09:06:33.308Z</time></trkpt><trkpt lat="44.0915817" lon="11.161015"><ele>703.8000000000001</ele><time>2026-03-29T09:06:35.31Z</time></trkpt><trkpt lat="44.0916817" lon="11.1611"><ele>703.6</ele><time>2026-03-29T09:06:37.309Z</time></trkpt><trkpt lat="44.091735" lon="11.1611467"><ele>703.4</ele><time>2026-03-29T09:06:38.31Z</time></trkpt><trkpt lat="44.0918433" lon="11.1612417"><ele>703.2</ele><time>2026-03-29T09:06:40.31Z</time></trkpt><trkpt lat="44.091945" lon="11.1613317"><ele>703.0</ele><time>2026-03-29T09:06:42.31Z</time></trkpt><trkpt lat="44.0920433" lon="11.1614217"><ele>703.0</ele><time>2026-03-29T09:06:44.31Z</time></trkpt><trkpt lat="44.0921367" lon="11.1615083"><ele>703.0</ele><time>2026-03-29T09:06:46.31Z</time></trkpt><trkpt lat="44.09222" lon="11.1616067"><ele>703.0</ele><time>2026-03-29T09:06:48.31Z</time></trkpt><trkpt lat="44.0923033" lon="11.1617067"><ele>703.0</ele><time>2026-03-29T09:06:50.31Z</time></trkpt><trkpt lat="44.0923917" lon="11.161815"><ele>703.0</ele><time>2026-03-29T09:06:52.31Z</time></trkpt><trkpt lat="44.0924617" lon="11.16195"><ele>703.0</ele><time>2026-03-29T09:06:54.31Z</time></trkpt><trkpt lat="44.0925233" lon="11.16208"><ele>703.0</ele><time>2026-03-29T09:06:56.309Z</time></trkpt><trkpt lat="44.0925917" lon="11.16219"><ele>703.0</ele><time>2026-03-29T09:06:58.31Z</time></trkpt><trkpt lat="44.092645" lon="11.1623117"><ele>703.0</ele><time>2026-03-29T09:07:00.312Z</time></trkpt><trkpt lat="44.0926933" lon="11.1624467"><ele>703.0</ele><time>2026-03-29T09:07:02.31Z</time></trkpt><trkpt lat="44.09275" lon="11.162555"><ele>703.0</ele><time>2026-03-29T09:07:04.31Z</time></trkpt><trkpt lat="44.0928233" lon="11.1626267"><ele>703.0</ele><time>2026-03-29T09:07:06.31Z</time></trkpt><trkpt lat="44.0929083" lon="11.1626833"><ele>703.0</ele><time>2026-03-29T09:07:08.31Z</time></trkpt><trkpt lat="44.0930017" lon="11.1627367"><ele>703.0</ele><time>2026-03-29T09:07:10.309Z</time></trkpt><trkpt lat="44.0931" lon="11.1627683"><ele>703.0</ele><time>2026-03-29T09:07:12.312Z</time></trkpt><trkpt lat="44.0932067" lon="11.1628"><ele>701.8333333333334</ele><time>2026-03-29T09:07:14.309Z</time></trkpt><trkpt lat="44.0933083" lon="11.1628083"><ele>700.6666666666667</ele><time>2026-03-29T09:07:16.31Z</time></trkpt><trkpt lat="44.0933933" lon="11.162805"><ele>699.5</ele><time>2026-03-29T09:07:18.31Z</time></trkpt><trkpt lat="44.093465" lon="11.1627917"><ele>698.3333333333334</ele><time>2026-03-29T09:07:20.308Z</time></trkpt><trkpt lat="44.093525" lon="11.1627567"><ele>697.1666666666666</ele><time>2026-03-29T09:12:13.309Z</time></trkpt><trkpt lat="44.0935917" lon="11.1626883"><ele>696.0</ele><time>2026-03-29T09:12:16.31Z</time></trkpt><trkpt lat="44.0936583" lon="11.1626"><ele>696.0</ele><time>2026-03-29T09:12:19.31Z</time></trkpt><trkpt lat="44.093705" lon="11.1625367"><ele>696.0</ele><time>2026-03-29T09:12:21.311Z</time></trkpt><trkpt lat="44.0937583" lon="11.1624783"><ele>696.0</ele><time>2026-03-29T09:12:23.31Z</time></trkpt><trkpt lat="44.0938217" lon="11.16243"><ele>696.0</ele><time>2026-03-29T09:12:25.31Z</time></trkpt><trkpt lat="44.0938783" lon="11.1623767"><ele>696.0</ele><time>2026-03-29T09:12:27.309Z</time></trkpt><trkpt lat="44.0939483" lon="11.1623617"><ele>696.0</ele><time>2026-03-29T09:12:29.312Z</time></trkpt><trkpt lat="44.094025" lon="11.1623917"><ele>696.0</ele><time>2026-03-29T09:12:31.313Z</time></trkpt><trkpt lat="44.0941067" lon="11.1624433"><ele>697.4</ele><time>2026-03-29T09:12:33.31Z</time></trkpt><trkpt lat="44.094185" lon="11.1624983"><ele>698.8</ele><time>2026-03-29T09:12:35.311Z</time></trkpt><trkpt lat="44.0942633" lon="11.1625617"><ele>700.1999999999999</ele><time>2026-03-29T09:12:37.31Z</time></trkpt><trkpt lat="44.09434" lon="11.162635"><ele>701.5999999999999</ele><time>2026-03-29T09:12:39.31Z</time></trkpt><trkpt lat="44.0944183" lon="11.1627133"><ele>703.0</ele><time>2026-03-29T09:12:41.311Z</time></trkpt><trkpt lat="44.094505" lon="11.16279"><ele>703.0</ele><time>2026-03-29T09:12:43.309Z</time></trkpt><trkpt lat="44.0945883" lon="11.1628733"><ele>703.0</ele><time>2026-03-29T09:12:45.311Z</time></trkpt><trkpt lat="44.0946667" lon="11.1629533"><ele>703.0</ele><time>2026-03-29T09:12:47.312Z</time></trkpt><trkpt lat="44.0947467" lon="11.1630283"><ele>703.0</ele><time>2026-03-29T09:12:49.31Z</time></trkpt><trkpt lat="44.0948317" lon="11.1631017"><ele>703.0</ele><time>2026-03-29T09:12:51.31Z</time></trkpt><trkpt lat="44.0949233" lon="11.1631517"><ele>702.5999999999999</ele><time>2026-03-29T09:12:53.309Z</time></trkpt><trkpt lat="44.0950167" lon="11.1632183"><ele>702.1999999999999</ele><time>2026-03-29T09:12:55.311Z</time></trkpt><trkpt lat="44.0951067" lon="11.1633"><ele>701.8</ele><time>2026-03-29T09:12:57.308Z</time></trkpt><trkpt lat="44.0951983" lon="11.1633817"><ele>701.4</ele><time>2026-03-29T09:12:59.309Z</time></trkpt><trkpt lat="44.0952883" lon="11.1634733"><ele>701.0</ele><time>2026-03-29T09:13:01.308Z</time></trkpt><trkpt lat="44.0953733" lon="11.1635667"><ele>701.0</ele><time>2026-03-29T09:13:03.312Z</time></trkpt><trkpt lat="44.095465" lon="11.163645"><ele>701.0</ele><time>2026-03-29T09:13:05.31Z</time></trkpt><trkpt lat="44.095555" lon="11.16372"><ele>701.0</ele><time>2026-03-29T09:13:07.31Z</time></trkpt><trkpt lat="44.0956467" lon="11.1637833"><ele>701.0</ele><time>2026-03-29T09:13:09.31Z</time></trkpt><trkpt lat="44.0957467" lon="11.1638367"><ele>701.0</ele><time>2026-03-29T09:13:11.311Z</time></trkpt><trkpt lat="44.09585" lon="11.1638867"><ele>704.5</ele><time>2026-03-29T09:13:13.311Z</time></trkpt><trkpt lat="44.0959567" lon="11.163925"><ele>708.0</ele><time>2026-03-29T09:13:15.311Z</time></trkpt><trkpt lat="44.0960733" lon="11.16396"><ele>711.5</ele><time>2026-03-29T09:13:17.311Z</time></trkpt><trkpt lat="44.096195" lon="11.1639983"><ele>715.0</ele><time>2026-03-29T09:13:19.311Z</time></trkpt><trkpt lat="44.096315" lon="11.1640217"><ele>711.8</ele><time>2026-03-29T09:13:21.31Z</time></trkpt><trkpt lat="44.0964367" lon="11.1640483"><ele>708.6</ele><time>2026-03-29T09:13:23.308Z</time></trkpt><trkpt lat="44.09656" lon="11.1640717"><ele>705.4000000000001</ele><time>2026-03-29T09:13:25.309Z</time></trkpt><trkpt lat="44.0966233" lon="11.1640767"><ele>702.2</ele><time>2026-03-29T09:13:26.309Z</time></trkpt><trkpt lat="44.09675" lon="11.1640583"><ele>699.0</ele><time>2026-03-29T09:13:28.308Z</time></trkpt><trkpt lat="44.096815" lon="11.1640383"><ele>703.0</ele><time>2026-03-29T09:13:29.308Z</time></trkpt><trkpt lat="44.0969383" lon="11.1639883"><ele>707.0</ele><time>2026-03-29T09:13:31.308Z</time></trkpt><trkpt lat="44.097005" lon="11.163965"><ele>711.0</ele><time>2026-03-29T09:13:32.311Z</time></trkpt><trkpt lat="44.09707" lon="11.1639483"><ele>715.0</ele><time>2026-03-29T09:13:33.309Z</time></trkpt><trkpt lat="44.0971383" lon="11.16393"><ele>719.0</ele><time>2026-03-29T09:13:34.31Z</time></trkpt><trkpt lat="44.097205" lon="11.1639133"><ele>723.0</ele><time>2026-03-29T09:13:35.309Z</time></trkpt><trkpt lat="44.0972717" lon="11.1639"><ele>723.0000000000001</ele><time>2026-03-29T09:13:36.311Z</time></trkpt><trkpt lat="44.0973417" lon="11.1638917"><ele>723.0</ele><time>2026-03-29T09:13:37.311Z</time></trkpt><trkpt lat="44.0974133" lon="11.1638917"><ele>723.0</ele><time>2026-03-29T09:13:38.309Z</time></trkpt><trkpt lat="44.0974833" lon="11.1639"><ele>723.0</ele><time>2026-03-29T09:13:39.31Z</time></trkpt><trkpt lat="44.097555" lon="11.163915"><ele>723.0</ele><time>2026-03-29T09:13:40.312Z</time></trkpt><trkpt lat="44.097625" lon="11.163935"><ele>723.0000000000001</ele><time>2026-03-29T09:13:41.309Z</time></trkpt><trkpt lat="44.0976967" lon="11.163955"><ele>723.0</ele><time>2026-03-29T09:13:42.311Z</time></trkpt><trkpt lat="44.0977683" lon="11.1639717"><ele>723.2857142857143</ele><time>2026-03-29T09:13:43.31Z</time></trkpt><trkpt lat="44.0978383" lon="11.163985"><ele>723.5714285714286</ele><time>2026-03-29T09:13:44.311Z</time></trkpt><trkpt lat="44.09791" lon="11.16399"><ele>723.8571428571429</ele><time>2026-03-29T09:13:45.311Z</time></trkpt><trkpt lat="44.09798" lon="11.1639833"><ele>724.1428571428571</ele><time>2026-03-29T09:13:46.31Z</time></trkpt><trkpt lat="44.0980483" lon="11.163965"><ele>724.4285714285714</ele><time>2026-03-29T09:13:47.31Z</time></trkpt><trkpt lat="44.0981167" lon="11.1639383"><ele>724.7142857142858</ele><time>2026-03-29T09:13:48.309Z</time></trkpt><trkpt lat="44.098185" lon="11.163905"><ele>725.0</ele><time>2026-03-29T09:13:49.309Z</time></trkpt><trkpt lat="44.0982617" lon="11.16388"><ele>726.0</ele><time>2026-03-29T09:13:50.31Z</time></trkpt><trkpt lat="44.0983367" lon="11.1638617"><ele>727.0</ele><time>2026-03-29T09:13:51.31Z</time></trkpt><trkpt lat="44.0984133" lon="11.1638483"><ele>728.0</ele><time>2026-03-29T09:13:52.308Z</time></trkpt><trkpt lat="44.0984867" lon="11.163845"><ele>729.0</ele><time>2026-03-29T09:13:53.311Z</time></trkpt><trkpt lat="44.09856" lon="11.1638433"><ele>730.0</ele><time>2026-03-29T09:13:54.309Z</time></trkpt><trkpt lat="44.0986333" lon="11.1638483"><ele>731.0</ele><time>2026-03-29T09:13:55.311Z</time></trkpt><trkpt lat="44.0987" lon="11.16386"><ele>732.0</ele><time>2026-03-29T09:13:56.309Z</time></trkpt><trkpt lat="44.0987683" lon="11.1638783"><ele>732.0</ele><time>2026-03-29T09:13:57.311Z</time></trkpt><trkpt lat="44.0988367" lon="11.1638967"><ele>732.0</ele><time>2026-03-29T09:13:58.311Z</time></trkpt><trkpt lat="44.0989033" lon="11.1639167"><ele>732.0</ele><time>2026-03-29T09:13:59.309Z</time></trkpt><trkpt lat="44.0989717" lon="11.16393"><ele>732.0</ele><time>2026-03-29T09:14:00.309Z</time></trkpt><trkpt lat="44.09904" lon="11.1639367"><ele>732.0</ele><time>2026-03-29T09:14:01.312Z</time></trkpt><trkpt lat="44.0991083" lon="11.1639367"><ele>732.0</ele><time>2026-03-29T09:14:02.311Z</time></trkpt><trkpt lat="44.0991817" lon="11.16393"><ele>732.0</ele><time>2026-03-29T09:14:03.311Z</time></trkpt><trkpt lat="44.0992533" lon="11.163915"><ele>731.4285714285714</ele><time>2026-03-29T09:14:04.312Z</time></trkpt><trkpt lat="44.09932" lon="11.1639"><ele>730.8571428571429</ele><time>2026-03-29T09:14:05.31Z</time></trkpt><trkpt lat="44.0993867" lon="11.1638833"><ele>730.2857142857142</ele><time>2026-03-29T09:14:06.31Z</time></trkpt><trkpt lat="44.0994533" lon="11.163865"><ele>729.7142857142858</ele><time>2026-03-29T09:14:07.312Z</time></trkpt><trkpt lat="44.09952" lon="11.1638467"><ele>729.1428571428571</ele><time>2026-03-29T09:14:08.311Z</time></trkpt><trkpt lat="44.0995867" lon="11.1638267"><ele>728.5714285714286</ele><time>2026-03-29T09:14:09.31Z</time></trkpt><trkpt lat="44.0996517" lon="11.16381"><ele>728.0</ele><time>2026-03-29T09:14:10.309Z</time></trkpt><trkpt lat="44.0997183" lon="11.1637983"><ele>728.0</ele><time>2026-03-29T09:14:11.311Z</time></trkpt><trkpt lat="44.0997833" lon="11.1637983"><ele>728.0</ele><time>2026-03-29T09:14:12.309Z</time></trkpt><trkpt lat="44.099905" lon="11.1638167"><ele>728.0</ele><time>2026-03-29T09:14:14.31Z</time></trkpt><trkpt lat="44.0999683" lon="11.1638317"><ele>728.0</ele><time>2026-03-29T09:14:15.309Z</time></trkpt><trkpt lat="44.1000883" lon="11.16386"><ele>728.0</ele><time>2026-03-29T09:14:17.311Z</time></trkpt><trkpt lat="44.10021" lon="11.16388"><ele>727.0</ele><time>2026-03-29T09:14:19.311Z</time></trkpt><trkpt lat="44.1002733" lon="11.1638817"><ele>726.0</ele><time>2026-03-29T09:14:20.31Z</time></trkpt><trkpt lat="44.1003917" lon="11.1638767"><ele>725.0</ele><time>2026-03-29T09:14:22.31Z</time></trkpt><trkpt lat="44.1005" lon="11.16385"><ele>724.0</ele><time>2026-03-29T09:14:24.311Z</time></trkpt><trkpt lat="44.1006083" lon="11.1638183"><ele>723.0</ele><time>2026-03-29T09:14:26.311Z</time></trkpt><trkpt lat="44.1007267" lon="11.163775"><ele>722.2</ele><time>2026-03-29T09:14:28.31Z</time></trkpt><trkpt lat="44.100785" lon="11.1637417"><ele>721.4</ele><time>2026-03-29T09:14:29.311Z</time></trkpt><trkpt lat="44.1008417" lon="11.1636967"><ele>720.6</ele><time>2026-03-29T09:14:30.309Z</time></trkpt><trkpt lat="44.1009383" lon="11.1635917"><ele>719.8000000000001</ele><time>2026-03-29T09:14:32.311Z</time></trkpt><trkpt lat="44.10103" lon="11.163485"><ele>719.0</ele><time>2026-03-29T09:14:34.309Z</time></trkpt><trkpt lat="44.1011217" lon="11.1633667"><ele>719.0</ele><time>2026-03-29T09:14:36.309Z</time></trkpt><trkpt lat="44.1012033" lon="11.1632483"><ele>719.0</ele><time>2026-03-29T09:14:38.311Z</time></trkpt><trkpt lat="44.1012833" lon="11.1631317"><ele>719.0</ele><time>2026-03-29T09:14:40.311Z</time></trkpt><trkpt lat="44.101375" lon="11.163015"><ele>719.0</ele><time>2026-03-29T09:14:42.311Z</time></trkpt><trkpt lat="44.10146" lon="11.16289"><ele>719.0</ele><time>2026-03-29T09:14:44.309Z</time></trkpt><trkpt lat="44.10154" lon="11.1627633"><ele>719.0</ele><time>2026-03-29T09:14:46.308Z</time></trkpt><trkpt lat="44.1016367" lon="11.1626583"><ele>719.0</ele><time>2026-03-29T09:14:48.309Z</time></trkpt><trkpt lat="44.1017317" lon="11.16254"><ele>719.0</ele><time>2026-03-29T09:14:50.309Z</time></trkpt><trkpt lat="44.10178" lon="11.1624783"><ele>719.0</ele><time>2026-03-29T09:14:51.309Z</time></trkpt><trkpt lat="44.10188" lon="11.1623617"><ele>723.1428571428571</ele><time>2026-03-29T09:14:53.31Z</time></trkpt><trkpt lat="44.1019383" lon="11.1623083"><ele>727.2857142857142</ele><time>2026-03-29T09:14:54.311Z</time></trkpt><trkpt lat="44.1019967" lon="11.1622583"><ele>731.4285714285713</ele><time>2026-03-29T09:14:55.312Z</time></trkpt><trkpt lat="44.102055" lon="11.1622133"><ele>735.5714285714286</ele><time>2026-03-29T09:14:56.312Z</time></trkpt><trkpt lat="44.102115" lon="11.1621717"><ele>739.7142857142858</ele><time>2026-03-29T09:14:57.309Z</time></trkpt><trkpt lat="44.1021783" lon="11.162125"><ele>743.8571428571428</ele><time>2026-03-29T09:14:58.309Z</time></trkpt><trkpt lat="44.10224" lon="11.1620733"><ele>748.0</ele><time>2026-03-29T09:14:59.313Z</time></trkpt><trkpt lat="44.1023" lon="11.1620167"><ele>748.0</ele><time>2026-03-29T09:15:00.308Z</time></trkpt><trkpt lat="44.1023617" lon="11.16196"><ele>748.0</ele><time>2026-03-29T09:15:01.309Z</time></trkpt><trkpt lat="44.1024233" lon="11.1619017"><ele>748.0</ele><time>2026-03-29T09:15:02.309Z</time></trkpt><trkpt lat="44.1024833" lon="11.1618417"><ele>748.0</ele><time>2026-03-29T09:15:03.31Z</time></trkpt><trkpt lat="44.102545" lon="11.1617933"><ele>748.0</ele><time>2026-03-29T09:15:04.311Z</time></trkpt><trkpt lat="44.1026083" lon="11.1617417"><ele>748.0</ele><time>2026-03-29T09:15:05.311Z</time></trkpt><trkpt lat="44.1026733" lon="11.1616983"><ele>748.0</ele><time>2026-03-29T09:15:06.311Z</time></trkpt><trkpt lat="44.10274" lon="11.1616633"><ele>742.7142857142857</ele><time>2026-03-29T09:15:07.312Z</time></trkpt><trkpt lat="44.1028067" lon="11.1616317"><ele>737.4285714285714</ele><time>2026-03-29T09:15:08.31Z</time></trkpt><trkpt lat="44.102875" lon="11.1616067"><ele>732.1428571428571</ele><time>2026-03-29T09:15:09.312Z</time></trkpt><trkpt lat="44.102945" lon="11.1615917"><ele>726.8571428571429</ele><time>2026-03-29T09:15:10.311Z</time></trkpt><trkpt lat="44.1030167" lon="11.1615817"><ele>721.5714285714286</ele><time>2026-03-29T09:15:11.31Z</time></trkpt><trkpt lat="44.1030917" lon="11.1615783"><ele>716.2857142857143</ele><time>2026-03-29T09:15:12.31Z</time></trkpt><trkpt lat="44.1031667" lon="11.161585"><ele>711.0</ele><time>2026-03-29T09:15:13.311Z</time></trkpt><trkpt lat="44.1032433" lon="11.1615967"><ele>708.5714285714286</ele><time>2026-03-29T09:15:14.311Z</time></trkpt><trkpt lat="44.1033167" lon="11.1616117"><ele>706.1428571428571</ele><time>2026-03-29T09:15:15.311Z</time></trkpt><trkpt lat="44.1033883" lon="11.1616233"><ele>703.7142857142858</ele><time>2026-03-29T09:15:16.31Z</time></trkpt><trkpt lat="44.1034567" lon="11.161635"><ele>701.2857142857142</ele><time>2026-03-29T09:15:17.311Z</time></trkpt><trkpt lat="44.103525" lon="11.16165"><ele>698.8571428571428</ele><time>2026-03-29T09:15:18.31Z</time></trkpt><trkpt lat="44.1035933" lon="11.1616583"><ele>696.4285714285714</ele><time>2026-03-29T09:15:19.312Z</time></trkpt><trkpt lat="44.1036617" lon="11.1616667"><ele>694.0</ele><time>2026-03-29T09:15:20.312Z</time></trkpt><trkpt lat="44.1037283" lon="11.1616717"><ele>694.0</ele><time>2026-03-29T09:15:21.31Z</time></trkpt><trkpt lat="44.1037983" lon="11.161675"><ele>694.0</ele><time>2026-03-29T09:15:22.311Z</time></trkpt><trkpt lat="44.1038667" lon="11.1616683"><ele>694.0</ele><time>2026-03-29T09:15:23.311Z</time></trkpt><trkpt lat="44.1039367" lon="11.1616533"><ele>694.0</ele><time>2026-03-29T09:15:24.31Z</time></trkpt><trkpt lat="44.1040067" lon="11.1616333"><ele>694.0</ele><time>2026-03-29T09:15:25.311Z</time></trkpt><trkpt lat="44.1040817" lon="11.1616217"><ele>694.0</ele><time>2026-03-29T09:15:26.309Z</time></trkpt><trkpt lat="44.1041617" lon="11.161615"><ele>694.0</ele><time>2026-03-29T09:15:27.309Z</time></trkpt><trkpt lat="44.1042383" lon="11.1616283"><ele>694.3333333333334</ele><time>2026-03-29T09:15:28.308Z</time></trkpt><trkpt lat="44.1043133" lon="11.1616617"><ele>694.6666666666667</ele><time>2026-03-29T09:15:29.31Z</time></trkpt><trkpt lat="44.10438" lon="11.1617133"><ele>695.0</ele><time>2026-03-29T09:15:30.309Z</time></trkpt><trkpt lat="44.1044417" lon="11.1617717"><ele>695.3333333333334</ele><time>2026-03-29T09:15:31.311Z</time></trkpt><trkpt lat="44.1045" lon="11.1618433"><ele>695.6666666666666</ele><time>2026-03-29T09:15:32.31Z</time></trkpt><trkpt lat="44.1045533" lon="11.1619217"><ele>696.0</ele><time>2026-03-29T09:15:33.31Z</time></trkpt><trkpt lat="44.1046033" lon="11.162"><ele>696.0</ele><time>2026-03-29T09:15:34.309Z</time></trkpt><trkpt lat="44.10465" lon="11.162085"><ele>696.0</ele><time>2026-03-29T09:15:35.31Z</time></trkpt><trkpt lat="44.1046933" lon="11.1621683"><ele>696.0</ele><time>2026-03-29T09:15:36.31Z</time></trkpt><trkpt lat="44.1047367" lon="11.1622517"><ele>696.0</ele><time>2026-03-29T09:15:37.31Z</time></trkpt><trkpt lat="44.1047817" lon="11.16233"><ele>696.0</ele><time>2026-03-29T09:15:38.308Z</time></trkpt><trkpt lat="44.1048317" lon="11.1624017"><ele>696.0</ele><time>2026-03-29T09:15:39.311Z</time></trkpt><trkpt lat="44.10489" lon="11.1624683"><ele>696.0</ele><time>2026-03-29T09:15:40.31Z</time></trkpt><trkpt lat="44.1049483" lon="11.16253"><ele>696.0</ele><time>2026-03-29T09:15:41.311Z</time></trkpt><trkpt lat="44.1050117" lon="11.1625817"><ele>696.0</ele><time>2026-03-29T09:15:42.311Z</time></trkpt><trkpt lat="44.10508" lon="11.1626233"><ele>696.0</ele><time>2026-03-29T09:15:43.31Z</time></trkpt><trkpt lat="44.10515" lon="11.162655"><ele>696.0</ele><time>2026-03-29T09:15:44.313Z</time></trkpt><trkpt lat="44.1052233" lon="11.16268"><ele>696.0</ele><time>2026-03-29T09:15:45.311Z</time></trkpt><trkpt lat="44.1052967" lon="11.1627017"><ele>696.0</ele><time>2026-03-29T09:15:46.31Z</time></trkpt><trkpt lat="44.1053683" lon="11.16272"><ele>696.0</ele><time>2026-03-29T09:15:47.311Z</time></trkpt><trkpt lat="44.1054433" lon="11.1627283"><ele>696.0</ele><time>2026-03-29T09:15:48.31Z</time></trkpt><trkpt lat="44.10552" lon="11.1627367"><ele>696.0</ele><time>2026-03-29T09:15:49.311Z</time></trkpt><trkpt lat="44.1055933" lon="11.16275"><ele>696.0</ele><time>2026-03-29T09:15:50.31Z</time></trkpt><trkpt lat="44.10567" lon="11.1627617"><ele>696.0</ele><time>2026-03-29T09:15:51.311Z</time></trkpt><trkpt lat="44.10574" lon="11.16277"><ele>696.0</ele><time>2026-03-29T09:15:52.311Z</time></trkpt><trkpt lat="44.1058133" lon="11.1627783"><ele>696.0</ele><time>2026-03-29T09:15:53.31Z</time></trkpt><trkpt lat="44.1058867" lon="11.1627867"><ele>696.0</ele><time>2026-03-29T09:15:54.311Z</time></trkpt><trkpt lat="44.1059567" lon="11.1627967"><ele>697.1428571428571</ele><time>2026-03-29T09:15:55.311Z</time></trkpt><trkpt lat="44.1060283" lon="11.1628133"><ele>698.2857142857143</ele><time>2026-03-29T09:15:56.311Z</time></trkpt><trkpt lat="44.1060983" lon="11.1628367"><ele>699.4285714285714</ele><time>2026-03-29T09:15:57.311Z</time></trkpt><trkpt lat="44.1061633" lon="11.1628683"><ele>700.5714285714286</ele><time>2026-03-29T09:15:58.311Z</time></trkpt><trkpt lat="44.10623" lon="11.16291"><ele>701.7142857142857</ele><time>2026-03-29T09:15:59.311Z</time></trkpt><trkpt lat="44.1062967" lon="11.16296"><ele>702.8571428571429</ele><time>2026-03-29T09:16:00.31Z</time></trkpt><trkpt lat="44.1063567" lon="11.163015"><ele>704.0</ele><time>2026-03-29T09:16:01.312Z</time></trkpt><trkpt lat="44.106415" lon="11.1630767"><ele>704.0</ele><time>2026-03-29T09:16:02.31Z</time></trkpt><trkpt lat="44.1064667" lon="11.1631467"><ele>704.0</ele><time>2026-03-29T09:16:03.309Z</time></trkpt><trkpt lat="44.1065133" lon="11.1632217"><ele>704.0</ele><time>2026-03-29T09:16:04.309Z</time></trkpt><trkpt lat="44.1065633" lon="11.1633033"><ele>704.0</ele><time>2026-03-29T09:16:05.309Z</time></trkpt><trkpt lat="44.1066117" lon="11.1633883"><ele>704.0</ele><time>2026-03-29T09:16:06.308Z</time></trkpt><trkpt lat="44.1066483" lon="11.1634767"><ele>704.0</ele><time>2026-03-29T09:16:07.308Z</time></trkpt><trkpt lat="44.106675" lon="11.16357"><ele>704.0</ele><time>2026-03-29T09:16:08.31Z</time></trkpt><trkpt lat="44.1066983" lon="11.16367"><ele>703.0</ele><time>2026-03-29T09:16:09.308Z</time></trkpt><trkpt lat="44.1067133" lon="11.1637733"><ele>702.0</ele><time>2026-03-29T09:16:10.308Z</time></trkpt><trkpt lat="44.106725" lon="11.1638733"><ele>701.0</ele><time>2026-03-29T09:16:11.309Z</time></trkpt><trkpt lat="44.10674" lon="11.1639767"><ele>700.0</ele><time>2026-03-29T09:16:12.307Z</time></trkpt><trkpt lat="44.1067617" lon="11.1640717"><ele>699.0</ele><time>2026-03-29T09:16:13.308Z</time></trkpt><trkpt lat="44.1067883" lon="11.1641533"><ele>698.0</ele><time>2026-03-29T09:16:14.31Z</time></trkpt><trkpt lat="44.1068267" lon="11.1642317"><ele>697.0</ele><time>2026-03-29T09:16:15.31Z</time></trkpt><trkpt lat="44.1068667" lon="11.1643017"><ele>695.7142857142858</ele><time>2026-03-29T09:16:16.309Z</time></trkpt><trkpt lat="44.1069183" lon="11.1643633"><ele>694.4285714285714</ele><time>2026-03-29T09:16:17.311Z</time></trkpt><trkpt lat="44.1069733" lon="11.1644183"><ele>693.1428571428571</ele><time>2026-03-29T09:16:18.308Z</time></trkpt><trkpt lat="44.1070333" lon="11.1644667"><ele>691.8571428571429</ele><time>2026-03-29T09:16:19.309Z</time></trkpt><trkpt lat="44.1071" lon="11.1645133"><ele>690.5714285714286</ele><time>2026-03-29T09:16:20.309Z</time></trkpt><trkpt lat="44.1071683" lon="11.1645517"><ele>689.2857142857143</ele><time>2026-03-29T09:16:21.309Z</time></trkpt><trkpt lat="44.10724" lon="11.1645817"><ele>688.0</ele><time>2026-03-29T09:16:22.309Z</time></trkpt><trkpt lat="44.1073133" lon="11.1646017"><ele>688.0000000000001</ele><time>2026-03-29T09:16:23.31Z</time></trkpt><trkpt lat="44.107385" lon="11.1646117"><ele>688.0</ele><time>2026-03-29T09:16:24.309Z</time></trkpt><trkpt lat="44.107455" lon="11.1646083"><ele>688.0</ele><time>2026-03-29T09:16:25.308Z</time></trkpt><trkpt lat="44.10752" lon="11.1645933"><ele>688.0</ele><time>2026-03-29T09:16:26.31Z</time></trkpt><trkpt lat="44.1075867" lon="11.16457"><ele>688.0</ele><time>2026-03-29T09:16:27.308Z</time></trkpt><trkpt lat="44.10765" lon="11.16454"><ele>688.0000000000001</ele><time>2026-03-29T09:16:28.311Z</time></trkpt><trkpt lat="44.1077083" lon="11.1644933"><ele>688.0</ele><time>2026-03-29T09:16:29.31Z</time></trkpt><trkpt lat="44.107765" lon="11.16444"><ele>689.7142857142858</ele><time>2026-03-29T09:16:30.308Z</time></trkpt><trkpt lat="44.1078167" lon="11.164375"><ele>691.4285714285714</ele><time>2026-03-29T09:16:31.31Z</time></trkpt><trkpt lat="44.1078617" lon="11.1643017"><ele>693.1428571428571</ele><time>2026-03-29T09:16:32.31Z</time></trkpt><trkpt lat="44.1079" lon="11.1642083"><ele>694.8571428571429</ele><time>2026-03-29T09:16:33.309Z</time></trkpt><trkpt lat="44.1079333" lon="11.164125"><ele>696.5714285714286</ele><time>2026-03-29T09:16:34.309Z</time></trkpt><trkpt lat="44.107965" lon="11.164045"><ele>698.2857142857143</ele><time>2026-03-29T09:16:35.31Z</time></trkpt><trkpt lat="44.108" lon="11.1639633"><ele>700.0</ele><time>2026-03-29T09:16:36.31Z</time></trkpt><trkpt lat="44.1080367" lon="11.16388"><ele>700.0</ele><time>2026-03-29T09:16:37.308Z</time></trkpt><trkpt lat="44.10807" lon="11.1637917"><ele>700.0</ele><time>2026-03-29T09:16:38.309Z</time></trkpt><trkpt lat="44.1081033" lon="11.1637083"><ele>700.0</ele><time>2026-03-29T09:16:39.31Z</time></trkpt><trkpt lat="44.10814" lon="11.16363"><ele>700.0</ele><time>2026-03-29T09:16:40.307Z</time></trkpt><trkpt lat="44.1081833" lon="11.1635533"><ele>700.0</ele><time>2026-03-29T09:16:41.309Z</time></trkpt><trkpt lat="44.108235" lon="11.1634867"><ele>700.0</ele><time>2026-03-29T09:16:42.308Z</time></trkpt><trkpt lat="44.1083" lon="11.16344"><ele>700.0</ele><time>2026-03-29T09:16:43.308Z</time></trkpt><trkpt lat="44.10837" lon="11.1634133"><ele>700.0</ele><time>2026-03-29T09:16:44.31Z</time></trkpt><trkpt lat="44.1084433" lon="11.1634083"><ele>700.0</ele><time>2026-03-29T09:16:45.311Z</time></trkpt><trkpt lat="44.10851" lon="11.16344"><ele>700.0</ele><time>2026-03-29T09:16:46.309Z</time></trkpt><trkpt lat="44.1085683" lon="11.1634933"><ele>700.0</ele><time>2026-03-29T09:16:47.31Z</time></trkpt><trkpt lat="44.1086167" lon="11.16357"><ele>700.0</ele><time>2026-03-29T09:16:48.309Z</time></trkpt><trkpt lat="44.108655" lon="11.1636617"><ele>700.0</ele><time>2026-03-29T09:16:49.31Z</time></trkpt><trkpt lat="44.1086883" lon="11.163755"><ele>700.0</ele><time>2026-03-29T09:16:50.308Z</time></trkpt><trkpt lat="44.1087183" lon="11.1638467"><ele>700.0</ele><time>2026-03-29T09:16:51.309Z</time></trkpt><trkpt lat="44.1087517" lon="11.1639367"><ele>700.0</ele><time>2026-03-29T09:16:52.31Z</time></trkpt><trkpt lat="44.1087933" lon="11.1640167"><ele>700.0</ele><time>2026-03-29T09:16:53.309Z</time></trkpt><trkpt lat="44.1088383" lon="11.16409"><ele>700.0</ele><time>2026-03-29T09:16:54.309Z</time></trkpt><trkpt lat="44.10889" lon="11.1641483"><ele>700.0</ele><time>2026-03-29T09:16:55.309Z</time></trkpt><trkpt lat="44.108955" lon="11.1641883"><ele>700.0</ele><time>2026-03-29T09:16:56.309Z</time></trkpt><trkpt lat="44.1090233" lon="11.164215"><ele>700.0</ele><time>2026-03-29T09:16:57.309Z</time></trkpt><trkpt lat="44.1090967" lon="11.16423"><ele>700.7142857142857</ele><time>2026-03-29T09:16:58.309Z</time></trkpt><trkpt lat="44.10917" lon="11.1642317"><ele>701.4285714285714</ele><time>2026-03-29T09:16:59.31Z</time></trkpt><trkpt lat="44.109245" lon="11.1642167"><ele>702.1428571428571</ele><time>2026-03-29T09:17:00.308Z</time></trkpt><trkpt lat="44.1093167" lon="11.1641833"><ele>702.8571428571429</ele><time>2026-03-29T09:17:01.311Z</time></trkpt><trkpt lat="44.109385" lon="11.16414"><ele>703.5714285714286</ele><time>2026-03-29T09:17:02.31Z</time></trkpt><trkpt lat="44.1094483" lon="11.164095"><ele>704.2857142857142</ele><time>2026-03-29T09:17:03.309Z</time></trkpt><trkpt lat="44.1095083" lon="11.16405"><ele>705.0</ele><time>2026-03-29T09:17:04.309Z</time></trkpt><trkpt lat="44.1095667" lon="11.1640083"><ele>704.9999999999999</ele><time>2026-03-29T09:17:05.31Z</time></trkpt><trkpt lat="44.1096217" lon="11.1639567"><ele>705.0</ele><time>2026-03-29T09:17:06.309Z</time></trkpt><trkpt lat="44.1096717" lon="11.1638933"><ele>705.0</ele><time>2026-03-29T09:17:07.309Z</time></trkpt><trkpt lat="44.109715" lon="11.1638117"><ele>705.0</ele><time>2026-03-29T09:17:08.311Z</time></trkpt><trkpt lat="44.1097483" lon="11.163725"><ele>705.0</ele><time>2026-03-29T09:17:09.309Z</time></trkpt><trkpt lat="44.1097767" lon="11.1636383"><ele>704.9999999999999</ele><time>2026-03-29T09:17:10.309Z</time></trkpt><trkpt lat="44.1098" lon="11.1635517"><ele>705.0</ele><time>2026-03-29T09:17:11.31Z</time></trkpt><trkpt lat="44.1098167" lon="11.1634567"><ele>704.9999999999999</ele><time>2026-03-29T09:17:12.31Z</time></trkpt><trkpt lat="44.1098317" lon="11.1633617"><ele>705.0</ele><time>2026-03-29T09:17:13.311Z</time></trkpt><trkpt lat="44.109845" lon="11.1632667"><ele>705.0</ele><time>2026-03-29T09:17:14.31Z</time></trkpt><trkpt lat="44.109855" lon="11.1631733"><ele>705.0</ele><time>2026-03-29T09:17:15.309Z</time></trkpt><trkpt lat="44.10986" lon="11.163085"><ele>705.0</ele><time>2026-03-29T09:17:16.309Z</time></trkpt><trkpt lat="44.1098617" lon="11.1629967"><ele>704.9999999999999</ele><time>2026-03-29T09:17:17.31Z</time></trkpt><trkpt lat="44.1098617" lon="11.1629033"><ele>705.0</ele><time>2026-03-29T09:17:18.31Z</time></trkpt><trkpt lat="44.1098667" lon="11.162805"><ele>705.4285714285713</ele><time>2026-03-29T09:17:19.308Z</time></trkpt><trkpt lat="44.1098733" lon="11.1627067"><ele>705.8571428571429</ele><time>2026-03-29T09:17:20.309Z</time></trkpt><trkpt lat="44.1098933" lon="11.1626117"><ele>706.2857142857142</ele><time>2026-03-29T09:17:21.31Z</time></trkpt><trkpt lat="44.1099217" lon="11.1625217"><ele>706.7142857142857</ele><time>2026-03-29T09:17:22.308Z</time></trkpt><trkpt lat="44.109965" lon="11.1624383"><ele>707.1428571428571</ele><time>2026-03-29T09:17:23.31Z</time></trkpt><trkpt lat="44.1100183" lon="11.1623667"><ele>707.5714285714286</ele><time>2026-03-29T09:17:24.31Z</time></trkpt><trkpt lat="44.1100767" lon="11.1623133"><ele>708.0</ele><time>2026-03-29T09:17:25.309Z</time></trkpt><trkpt lat="44.11014" lon="11.1622683"><ele>708.0</ele><time>2026-03-29T09:17:26.31Z</time></trkpt><trkpt lat="44.1102033" lon="11.1622283"><ele>708.0</ele><time>2026-03-29T09:17:27.309Z</time></trkpt><trkpt lat="44.1102683" lon="11.1621917"><ele>708.0</ele><time>2026-03-29T09:17:28.31Z</time></trkpt><trkpt lat="44.1103333" lon="11.16215"><ele>708.0</ele><time>2026-03-29T09:17:29.31Z</time></trkpt><trkpt lat="44.1104033" lon="11.162115"><ele>708.0</ele><time>2026-03-29T09:17:30.31Z</time></trkpt><trkpt lat="44.1104717" lon="11.1620767"><ele>708.0</ele><time>2026-03-29T09:17:31.31Z</time></trkpt><trkpt lat="44.11054" lon="11.1620433"><ele>708.0</ele><time>2026-03-29T09:17:32.31Z</time></trkpt><trkpt lat="44.11061" lon="11.1620083"><ele>708.0</ele><time>2026-03-29T09:17:33.309Z</time></trkpt><trkpt lat="44.1106817" lon="11.1619783"><ele>708.0</ele><time>2026-03-29T09:17:34.31Z</time></trkpt><trkpt lat="44.11075" lon="11.1619417"><ele>708.0</ele><time>2026-03-29T09:17:35.308Z</time></trkpt><trkpt lat="44.1108167" lon="11.1619017"><ele>708.0</ele><time>2026-03-29T09:17:36.31Z</time></trkpt><trkpt lat="44.1108833" lon="11.161865"><ele>708.0</ele><time>2026-03-29T09:17:37.309Z</time></trkpt><trkpt lat="44.1109483" lon="11.1618317"><ele>708.0</ele><time>2026-03-29T09:17:38.31Z</time></trkpt><trkpt lat="44.1110117" lon="11.16179"><ele>708.0</ele><time>2026-03-29T09:17:39.311Z</time></trkpt><trkpt lat="44.111075" lon="11.161755"><ele>707.5714285714286</ele><time>2026-03-29T09:17:40.31Z</time></trkpt><trkpt lat="44.1111383" lon="11.161715"><ele>707.1428571428571</ele><time>2026-03-29T09:17:41.311Z</time></trkpt><trkpt lat="44.1112017" lon="11.161675"><ele>706.7142857142857</ele><time>2026-03-29T09:17:42.309Z</time></trkpt><trkpt lat="44.111265" lon="11.1616333"><ele>706.2857142857142</ele><time>2026-03-29T09:17:43.309Z</time></trkpt><trkpt lat="44.1113317" lon="11.1615933"><ele>705.8571428571429</ele><time>2026-03-29T09:17:44.312Z</time></trkpt><trkpt lat="44.1114" lon="11.1615517"><ele>705.4285714285713</ele><time>2026-03-29T09:17:45.31Z</time></trkpt><trkpt lat="44.1114683" lon="11.1615017"><ele>705.0</ele><time>2026-03-29T09:17:46.31Z</time></trkpt><trkpt lat="44.1115367" lon="11.1614483"><ele>703.3333333333334</ele><time>2026-03-29T09:17:47.31Z</time></trkpt><trkpt lat="44.1116033" lon="11.1613883"><ele>701.6666666666666</ele><time>2026-03-29T09:17:48.309Z</time></trkpt><trkpt lat="44.111665" lon="11.1613267"><ele>700.0</ele><time>2026-03-29T09:17:49.312Z</time></trkpt><trkpt lat="44.1117233" lon="11.1612517"><ele>698.3333333333333</ele><time>2026-03-29T09:17:50.31Z</time></trkpt><trkpt lat="44.1117767" lon="11.1611767"><ele>696.6666666666666</ele><time>2026-03-29T09:17:51.312Z</time></trkpt><trkpt lat="44.11182" lon="11.16109"><ele>695.0</ele><time>2026-03-29T09:17:52.31Z</time></trkpt><trkpt lat="44.1118567" lon="11.1610033"><ele>695.0</ele><time>2026-03-29T09:17:53.309Z</time></trkpt><trkpt lat="44.11189" lon="11.1609067"><ele>695.0</ele><time>2026-03-29T09:17:54.307Z</time></trkpt><trkpt lat="44.111915" lon="11.160805"><ele>695.0</ele><time>2026-03-29T09:17:55.309Z</time></trkpt><trkpt lat="44.1119283" lon="11.1606967"><ele>695.0</ele><time>2026-03-29T09:17:56.309Z</time></trkpt><trkpt lat="44.1119367" lon="11.1605833"><ele>695.0</ele><time>2026-03-29T09:17:57.309Z</time></trkpt><trkpt lat="44.1119367" lon="11.1604717"><ele>695.0</ele><time>2026-03-29T09:17:58.312Z</time></trkpt><trkpt lat="44.11193" lon="11.1603583"><ele>695.3333333333333</ele><time>2026-03-29T09:17:59.31Z</time></trkpt><trkpt lat="44.1119233" lon="11.1602467"><ele>695.6666666666666</ele><time>2026-03-29T09:18:00.309Z</time></trkpt><trkpt lat="44.11192" lon="11.160135"><ele>696.0</ele><time>2026-03-29T09:18:01.311Z</time></trkpt><trkpt lat="44.1119167" lon="11.1600217"><ele>696.3333333333334</ele><time>2026-03-29T09:18:02.309Z</time></trkpt><trkpt lat="44.1119117" lon="11.1599117"><ele>696.6666666666667</ele><time>2026-03-29T09:18:03.309Z</time></trkpt><trkpt lat="44.1119117" lon="11.1598067"><ele>697.0</ele><time>2026-03-29T09:18:04.311Z</time></trkpt><trkpt lat="44.1119083" lon="11.159705"><ele>697.0</ele><time>2026-03-29T09:18:05.31Z</time></trkpt><trkpt lat="44.111905" lon="11.1596083"><ele>697.0</ele><time>2026-03-29T09:18:06.309Z</time></trkpt><trkpt lat="44.1119067" lon="11.159515"><ele>697.0</ele><time>2026-03-29T09:18:07.309Z</time></trkpt><trkpt lat="44.1119067" lon="11.159425"><ele>697.0</ele><time>2026-03-29T09:18:08.31Z</time></trkpt><trkpt lat="44.1119083" lon="11.159335"><ele>697.0</ele><time>2026-03-29T09:18:09.312Z</time></trkpt><trkpt lat="44.1119067" lon="11.1591633"><ele>697.0</ele><time>2026-03-29T09:18:11.312Z</time></trkpt><trkpt lat="44.1119033" lon="11.158995"><ele>697.8</ele><time>2026-03-29T09:18:13.308Z</time></trkpt><trkpt lat="44.1119067" lon="11.1588267"><ele>698.6</ele><time>2026-03-29T09:18:15.309Z</time></trkpt><trkpt lat="44.111915" lon="11.1586567"><ele>699.4</ele><time>2026-03-29T09:18:17.311Z</time></trkpt><trkpt lat="44.111925" lon="11.15857"><ele>700.1999999999999</ele><time>2026-03-29T09:18:18.31Z</time></trkpt><trkpt lat="44.1119517" lon="11.1584033"><ele>701.0</ele><time>2026-03-29T09:18:20.31Z</time></trkpt><trkpt lat="44.111985" lon="11.15824"><ele>702.0</ele><time>2026-03-29T09:18:22.31Z</time></trkpt><trkpt lat="44.1120167" lon="11.158085"><ele>703.0</ele><time>2026-03-29T09:18:24.311Z</time></trkpt><trkpt lat="44.1120517" lon="11.1579367"><ele>704.0</ele><time>2026-03-29T09:18:26.312Z</time></trkpt><trkpt lat="44.112085" lon="11.1578017"><ele>705.0</ele><time>2026-03-29T09:18:28.312Z</time></trkpt><trkpt lat="44.1121117" lon="11.15768"><ele>706.0</ele><time>2026-03-29T09:18:30.309Z</time></trkpt><trkpt lat="44.1121367" lon="11.1575617"><ele>706.0</ele><time>2026-03-29T09:18:32.309Z</time></trkpt><trkpt lat="44.1121667" lon="11.1574467"><ele>706.0</ele><time>2026-03-29T09:18:34.31Z</time></trkpt><trkpt lat="44.1121983" lon="11.1573467"><ele>706.0</ele><time>2026-03-29T09:18:36.31Z</time></trkpt><trkpt lat="44.1122433" lon="11.157245"><ele>706.0</ele><time>2026-03-29T09:18:38.31Z</time></trkpt><trkpt lat="44.1122833" lon="11.1571483"><ele>706.0</ele><time>2026-03-29T09:18:40.307Z</time></trkpt><trkpt lat="44.1123217" lon="11.157045"><ele>706.0</ele><time>2026-03-29T09:18:42.307Z</time></trkpt><trkpt lat="44.11235" lon="11.1569417"><ele>705.5</ele><time>2026-03-29T09:18:44.311Z</time></trkpt><trkpt lat="44.1123583" lon="11.1568383"><ele>705.0</ele><time>2026-03-29T09:18:46.308Z</time></trkpt><trkpt lat="44.11234" lon="11.1567333"><ele>704.5</ele><time>2026-03-29T09:18:48.308Z</time></trkpt><trkpt lat="44.112305" lon="11.1566267"><ele>704.0</ele><time>2026-03-29T09:18:50.309Z</time></trkpt><trkpt lat="44.11226" lon="11.156535"><ele>703.5</ele><time>2026-03-29T09:18:52.31Z</time></trkpt><trkpt lat="44.1122183" lon="11.1564433"><ele>703.0</ele><time>2026-03-29T09:18:54.31Z</time></trkpt><trkpt lat="44.1121783" lon="11.1563483"><ele>704.0</ele><time>2026-03-29T09:18:56.31Z</time></trkpt><trkpt lat="44.112155" lon="11.1562483"><ele>705.0</ele><time>2026-03-29T09:18:58.308Z</time></trkpt><trkpt lat="44.11215" lon="11.15614"><ele>706.0</ele><time>2026-03-29T09:19:00.309Z</time></trkpt><trkpt lat="44.11218" lon="11.1560333"><ele>707.0</ele><time>2026-03-29T09:19:02.307Z</time></trkpt><trkpt lat="44.112235" lon="11.1559617"><ele>708.0</ele><time>2026-03-29T09:19:04.307Z</time></trkpt><trkpt lat="44.1123067" lon="11.1559567"><ele>709.0</ele><time>2026-03-29T09:19:06.307Z</time></trkpt><trkpt lat="44.1123583" lon="11.1560083"><ele>710.0</ele><time>2026-03-29T09:19:08.307Z</time></trkpt><trkpt lat="44.11238" lon="11.15615"><ele>710.0</ele><time>2026-03-29T09:19:11.309Z</time></trkpt><trkpt lat="44.11239" lon="11.1562633"><ele>710.0</ele><time>2026-03-29T09:19:13.308Z</time></trkpt><trkpt lat="44.1124033" lon="11.1563733"><ele>710.0</ele><time>2026-03-29T09:19:15.31Z</time></trkpt><trkpt lat="44.112425" lon="11.1564767"><ele>710.0</ele><time>2026-03-29T09:19:17.31Z</time></trkpt><trkpt lat="44.112455" lon="11.156565"><ele>710.0</ele><time>2026-03-29T09:19:19.309Z</time></trkpt><trkpt lat="44.1124933" lon="11.1566517"><ele>710.0</ele><time>2026-03-29T09:19:21.309Z</time></trkpt><trkpt lat="44.1125367" lon="11.15673"><ele>708.1666666666666</ele><time>2026-03-29T09:19:23.311Z</time></trkpt><trkpt lat="44.1125783" lon="11.15682"><ele>706.3333333333333</ele><time>2026-03-29T09:19:25.308Z</time></trkpt><trkpt lat="44.1126167" lon="11.1569167"><ele>704.5</ele><time>2026-03-29T09:19:27.308Z</time></trkpt><trkpt lat="44.1126533" lon="11.157015"><ele>702.6666666666666</ele><time>2026-03-29T09:19:29.308Z</time></trkpt><trkpt lat="44.11268" lon="11.15711"><ele>700.8333333333334</ele><time>2026-03-29T09:19:31.31Z</time></trkpt><trkpt lat="44.112705" lon="11.15721"><ele>699.0</ele><time>2026-03-29T09:19:33.309Z</time></trkpt><trkpt lat="44.1127283" lon="11.157315"><ele>698.3333333333334</ele><time>2026-03-29T09:19:35.308Z</time></trkpt><trkpt lat="44.1127617" lon="11.157415"><ele>697.6666666666666</ele><time>2026-03-29T09:19:37.307Z</time></trkpt><trkpt lat="44.1128017" lon="11.15751"><ele>697.0</ele><time>2026-03-29T09:19:39.31Z</time></trkpt><trkpt lat="44.11285" lon="11.157605"><ele>696.3333333333333</ele><time>2026-03-29T09:19:41.31Z</time></trkpt><trkpt lat="44.1129017" lon="11.157695"><ele>695.6666666666666</ele><time>2026-03-29T09:19:43.31Z</time></trkpt><trkpt lat="44.1129483" lon="11.1577867"><ele>695.0</ele><time>2026-03-29T09:19:45.309Z</time></trkpt><trkpt lat="44.1129917" lon="11.15788"><ele>695.0</ele><time>2026-03-29T09:19:47.31Z</time></trkpt><trkpt lat="44.1130333" lon="11.157975"><ele>695.0</ele><time>2026-03-29T09:19:49.309Z</time></trkpt><trkpt lat="44.11307" lon="11.1580783"><ele>695.0</ele><time>2026-03-29T09:19:51.309Z</time></trkpt><trkpt lat="44.1130917" lon="11.1581833"><ele>695.0</ele><time>2026-03-29T09:19:53.31Z</time></trkpt><trkpt lat="44.113095" lon="11.158285"><ele>695.0</ele><time>2026-03-29T09:19:55.31Z</time></trkpt><trkpt lat="44.1130883" lon="11.1583817"><ele>695.0</ele><time>2026-03-29T09:19:57.309Z</time></trkpt><trkpt lat="44.1130967" lon="11.15848"><ele>694.6666666666666</ele><time>2026-03-29T09:19:59.31Z</time></trkpt><trkpt lat="44.1130983" lon="11.1585817"><ele>694.3333333333333</ele><time>2026-03-29T09:20:01.31Z</time></trkpt><trkpt lat="44.1131083" lon="11.1586817"><ele>694.0</ele><time>2026-03-29T09:20:03.31Z</time></trkpt><trkpt lat="44.1131167" lon="11.1587933"><ele>693.6666666666666</ele><time>2026-03-29T09:20:05.309Z</time></trkpt><trkpt lat="44.1131083" lon="11.1589017"><ele>693.3333333333334</ele><time>2026-03-29T09:20:07.309Z</time></trkpt><trkpt lat="44.113095" lon="11.159005"><ele>693.0</ele><time>2026-03-29T09:20:09.309Z</time></trkpt><trkpt lat="44.11308" lon="11.159105"><ele>692.8333333333334</ele><time>2026-03-29T09:20:11.311Z</time></trkpt><trkpt lat="44.1130617" lon="11.1592133"><ele>692.6666666666666</ele><time>2026-03-29T09:20:13.309Z</time></trkpt><trkpt lat="44.1130467" lon="11.1593233"><ele>692.5</ele><time>2026-03-29T09:20:15.309Z</time></trkpt><trkpt lat="44.1130267" lon="11.1594317"><ele>692.3333333333333</ele><time>2026-03-29T09:20:17.308Z</time></trkpt><trkpt lat="44.1130067" lon="11.1595517"><ele>692.1666666666666</ele><time>2026-03-29T09:20:19.309Z</time></trkpt><trkpt lat="44.1129833" lon="11.159675"><ele>692.0</ele><time>2026-03-29T09:20:21.309Z</time></trkpt><trkpt lat="44.1129517" lon="11.1597883"><ele>692.0</ele><time>2026-03-29T09:20:23.309Z</time></trkpt><trkpt lat="44.1129233" lon="11.159905"><ele>692.0</ele><time>2026-03-29T09:20:25.309Z</time></trkpt><trkpt lat="44.1128967" lon="11.1600133"><ele>692.0</ele><time>2026-03-29T09:20:27.309Z</time></trkpt><trkpt lat="44.11287" lon="11.1601183"><ele>692.0</ele><time>2026-03-29T09:20:29.31Z</time></trkpt><trkpt lat="44.1128717" lon="11.160225"><ele>692.0</ele><time>2026-03-29T09:20:31.309Z</time></trkpt><trkpt lat="44.1128967" lon="11.16033"><ele>692.0</ele><time>2026-03-29T09:20:33.31Z</time></trkpt><trkpt lat="44.112945" lon="11.16043"><ele>692.0</ele><time>2026-03-29T09:20:35.31Z</time></trkpt><trkpt lat="44.1130117" lon="11.1605083"><ele>692.0</ele><time>2026-03-29T09:20:37.31Z</time></trkpt><trkpt lat="44.1130867" lon="11.16058"><ele>692.0</ele><time>2026-03-29T09:20:39.311Z</time></trkpt><trkpt lat="44.1131567" lon="11.1606633"><ele>692.0</ele><time>2026-03-29T09:20:41.312Z</time></trkpt><trkpt lat="44.113225" lon="11.160745"><ele>692.0</ele><time>2026-03-29T09:20:43.311Z</time></trkpt><trkpt lat="44.1132817" lon="11.1608233"><ele>692.0</ele><time>2026-03-29T09:20:45.311Z</time></trkpt><trkpt lat="44.1133367" lon="11.1609133"><ele>695.8333333333333</ele><time>2026-03-29T09:20:47.31Z</time></trkpt><trkpt lat="44.1133867" lon="11.1610183"><ele>699.6666666666666</ele><time>2026-03-29T09:20:49.309Z</time></trkpt><trkpt lat="44.1134183" lon="11.1611317"><ele>703.5</ele><time>2026-03-29T09:20:51.31Z</time></trkpt><trkpt lat="44.1134233" lon="11.1612517"><ele>707.3333333333334</ele><time>2026-03-29T09:20:53.309Z</time></trkpt><trkpt lat="44.1134117" lon="11.1613767"><ele>711.1666666666667</ele><time>2026-03-29T09:20:55.309Z</time></trkpt><trkpt lat="44.11339" lon="11.1614933"><ele>715.0</ele><time>2026-03-29T09:20:57.309Z</time></trkpt><trkpt lat="44.1133683" lon="11.161605"><ele>715.5</ele><time>2026-03-29T09:20:59.31Z</time></trkpt><trkpt lat="44.1133483" lon="11.16172"><ele>716.0</ele><time>2026-03-29T09:21:01.311Z</time></trkpt><trkpt lat="44.1133267" lon="11.1618333"><ele>716.5</ele><time>2026-03-29T09:21:03.308Z</time></trkpt><trkpt lat="44.11331" lon="11.1619433"><ele>717.0</ele><time>2026-03-29T09:21:05.308Z</time></trkpt><trkpt lat="44.1132833" lon="11.1620433"><ele>717.5</ele><time>2026-03-29T09:21:07.308Z</time></trkpt><trkpt lat="44.1132533" lon="11.1621467"><ele>718.0</ele><time>2026-03-29T09:21:09.308Z</time></trkpt><trkpt lat="44.1132067" lon="11.162245"><ele>713.0</ele><time>2026-03-29T09:21:11.309Z</time></trkpt><trkpt lat="44.1131633" lon="11.1623483"><ele>708.0</ele><time>2026-03-29T09:21:13.308Z</time></trkpt><trkpt lat="44.1131283" lon="11.1624483"><ele>703.0</ele><time>2026-03-29T09:21:15.309Z</time></trkpt><trkpt lat="44.1131017" lon="11.1625583"><ele>698.0</ele><time>2026-03-29T09:21:17.31Z</time></trkpt><trkpt lat="44.113095" lon="11.16267"><ele>693.0</ele><time>2026-03-29T09:21:19.31Z</time></trkpt><trkpt lat="44.1131017" lon="11.1627767"><ele>688.0</ele><time>2026-03-29T09:21:21.308Z</time></trkpt><trkpt lat="44.1131233" lon="11.1628817"><ele>688.0</ele><time>2026-03-29T09:21:23.31Z</time></trkpt><trkpt lat="44.1131417" lon="11.1629717"><ele>688.0</ele><time>2026-03-29T09:21:25.311Z</time></trkpt><trkpt lat="44.1131733" lon="11.163065"><ele>688.0</ele><time>2026-03-29T09:21:27.309Z</time></trkpt><trkpt lat="44.1132083" lon="11.1631767"><ele>688.0</ele><time>2026-03-29T09:21:29.311Z</time></trkpt><trkpt lat="44.113255" lon="11.1632867"><ele>688.0</ele><time>2026-03-29T09:21:31.311Z</time></trkpt><trkpt lat="44.1132917" lon="11.1633983"><ele>688.0</ele><time>2026-03-29T09:21:33.31Z</time></trkpt><trkpt lat="44.1133367" lon="11.1635033"><ele>691.6666666666667</ele><time>2026-03-29T09:21:35.309Z</time></trkpt><trkpt lat="44.1133817" lon="11.163605"><ele>695.3333333333334</ele><time>2026-03-29T09:21:37.309Z</time></trkpt><trkpt lat="44.113425" lon="11.1637117"><ele>699.0</ele><time>2026-03-29T09:21:39.311Z</time></trkpt><trkpt lat="44.113465" lon="11.1638233"><ele>702.6666666666666</ele><time>2026-03-29T09:21:41.31Z</time></trkpt><trkpt lat="44.1135083" lon="11.1639367"><ele>706.3333333333333</ele><time>2026-03-29T09:21:43.311Z</time></trkpt><trkpt lat="44.1135617" lon="11.1640417"><ele>710.0</ele><time>2026-03-29T09:21:45.308Z</time></trkpt><trkpt lat="44.1136183" lon="11.1641417"><ele>710.0</ele><time>2026-03-29T09:21:47.312Z</time></trkpt><trkpt lat="44.1136767" lon="11.1642417"><ele>710.0</ele><time>2026-03-29T09:21:49.31Z</time></trkpt><trkpt lat="44.11374" lon="11.1643317"><ele>710.0</ele><time>2026-03-29T09:21:51.309Z</time></trkpt><trkpt lat="44.113805" lon="11.164425"><ele>710.0</ele><time>2026-03-29T09:21:53.311Z</time></trkpt><trkpt lat="44.1138683" lon="11.1645117"><ele>710.0</ele><time>2026-03-29T09:21:55.309Z</time></trkpt><trkpt lat="44.1139233" lon="11.1646117"><ele>710.0</ele><time>2026-03-29T09:21:57.31Z</time></trkpt><trkpt lat="44.11398" lon="11.1647083"><ele>710.0</ele><time>2026-03-29T09:21:59.31Z</time></trkpt><trkpt lat="44.11404" lon="11.1648017"><ele>710.0</ele><time>2026-03-29T09:22:01.311Z</time></trkpt><trkpt lat="44.114095" lon="11.1648967"><ele>710.0</ele><time>2026-03-29T09:22:03.31Z</time></trkpt><trkpt lat="44.1141483" lon="11.1649967"><ele>710.0</ele><time>2026-03-29T09:22:05.31Z</time></trkpt><trkpt lat="44.1142067" lon="11.1650917"><ele>710.0</ele><time>2026-03-29T09:22:07.309Z</time></trkpt><trkpt lat="44.1142767" lon="11.165175"><ele>713.6</ele><time>2026-03-29T09:22:09.312Z</time></trkpt><trkpt lat="44.1143567" lon="11.16525"><ele>717.2</ele><time>2026-03-29T09:22:11.312Z</time></trkpt><trkpt lat="44.1144467" lon="11.1653017"><ele>720.8</ele><time>2026-03-29T09:22:13.311Z</time></trkpt><trkpt lat="44.1145317" lon="11.1653533"><ele>724.4</ele><time>2026-03-29T09:22:15.311Z</time></trkpt><trkpt lat="44.1146117" lon="11.16541"><ele>728.0</ele><time>2026-03-29T09:22:17.311Z</time></trkpt><trkpt lat="44.1147017" lon="11.165455"><ele>728.0</ele><time>2026-03-29T09:22:19.31Z</time></trkpt><trkpt lat="44.1147883" lon="11.1654917"><ele>728.0</ele><time>2026-03-29T09:22:21.31Z</time></trkpt><trkpt lat="44.114875" lon="11.1655267"><ele>728.0</ele><time>2026-03-29T09:22:23.308Z</time></trkpt><trkpt lat="44.11496" lon="11.165555"><ele>728.0</ele><time>2026-03-29T09:22:25.311Z</time></trkpt><trkpt lat="44.1150467" lon="11.1655883"><ele>728.0</ele><time>2026-03-29T09:22:27.312Z</time></trkpt><trkpt lat="44.1151333" lon="11.1655967"><ele>728.0</ele><time>2026-03-29T09:22:29.311Z</time></trkpt><trkpt lat="44.1152267" lon="11.1656083"><ele>725.4</ele><time>2026-03-29T09:22:31.312Z</time></trkpt><trkpt lat="44.1153217" lon="11.1656117"><ele>722.8</ele><time>2026-03-29T09:22:33.314Z</time></trkpt><trkpt lat="44.1154267" lon="11.16563"><ele>720.2</ele><time>2026-03-29T09:22:35.312Z</time></trkpt><trkpt lat="44.1155233" lon="11.1656867"><ele>717.6</ele><time>2026-03-29T09:22:37.311Z</time></trkpt><trkpt lat="44.11561" lon="11.1657567"><ele>715.0</ele><time>2026-03-29T09:22:39.313Z</time></trkpt><trkpt lat="44.1156917" lon="11.1658283"><ele>721.6</ele><time>2026-03-29T09:22:41.313Z</time></trkpt><trkpt lat="44.1157583" lon="11.16591"><ele>728.2</ele><time>2026-03-29T09:22:43.309Z</time></trkpt><trkpt lat="44.1158417" lon="11.1659667"><ele>734.8</ele><time>2026-03-29T09:22:45.31Z</time></trkpt><trkpt lat="44.115925" lon="11.16602"><ele>741.4</ele><time>2026-03-29T09:22:47.308Z</time></trkpt><trkpt lat="44.11601" lon="11.16606"><ele>748.0</ele><time>2026-03-29T09:22:49.309Z</time></trkpt><trkpt lat="44.1160983" lon="11.1661067"><ele>748.0</ele><time>2026-03-29T09:22:51.308Z</time></trkpt><trkpt lat="44.116175" lon="11.16617"><ele>748.0</ele><time>2026-03-29T09:22:53.308Z</time></trkpt><trkpt lat="44.1162333" lon="11.1662283"><ele>748.0</ele><time>2026-03-29T09:22:55.311Z</time></trkpt><trkpt lat="44.1162833" lon="11.1662883"><ele>748.0</ele><time>2026-03-29T09:22:57.312Z</time></trkpt><trkpt lat="44.1163267" lon="11.1663533"><ele>748.0</ele><time>2026-03-29T09:22:59.309Z</time></trkpt><trkpt lat="44.1163883" lon="11.1664233"><ele>748.0</ele><time>2026-03-29T09:23:01.309Z</time></trkpt><trkpt lat="44.1164383" lon="11.1665017"><ele>748.0</ele><time>2026-03-29T09:23:03.307Z</time></trkpt><trkpt lat="44.1164817" lon="11.16658"><ele>745.8</ele><time>2026-03-29T09:23:06.307Z</time></trkpt><trkpt lat="44.116545" lon="11.1666317"><ele>743.5999999999999</ele><time>2026-03-29T09:24:36.309Z</time></trkpt><trkpt lat="44.1165983" lon="11.16672"><ele>741.4000000000001</ele><time>2026-03-29T09:24:38.311Z</time></trkpt><trkpt lat="44.1166667" lon="11.1668017"><ele>739.2</ele><time>2026-03-29T09:24:40.308Z</time></trkpt><trkpt lat="44.1167533" lon="11.166875"><ele>737.0</ele><time>2026-03-29T09:24:42.309Z</time></trkpt><trkpt lat="44.1168533" lon="11.1669433"><ele>737.0</ele><time>2026-03-29T09:24:44.309Z</time></trkpt><trkpt lat="44.1169517" lon="11.1669817"><ele>737.0</ele><time>2026-03-29T09:24:46.31Z</time></trkpt><trkpt lat="44.11705" lon="11.1670033"><ele>737.0</ele><time>2026-03-29T09:24:48.309Z</time></trkpt><trkpt lat="44.1171567" lon="11.16701"><ele>737.0</ele><time>2026-03-29T09:24:50.309Z</time></trkpt><trkpt lat="44.1172483" lon="11.1670233"><ele>737.0</ele><time>2026-03-29T09:24:52.31Z</time></trkpt><trkpt lat="44.1173417" lon="11.1670567"><ele>741.1666666666666</ele><time>2026-03-29T09:24:54.31Z</time></trkpt><trkpt lat="44.1174283" lon="11.1671033"><ele>745.3333333333333</ele><time>2026-03-29T09:24:56.311Z</time></trkpt><trkpt lat="44.1175167" lon="11.1671467"><ele>749.5</ele><time>2026-03-29T09:24:58.309Z</time></trkpt><trkpt lat="44.1175933" lon="11.167175"><ele>753.6666666666666</ele><time>2026-03-29T09:25:00.31Z</time></trkpt><trkpt lat="44.1176617" lon="11.1671933"><ele>757.8333333333334</ele><time>2026-03-29T09:25:02.309Z</time></trkpt><trkpt lat="44.117735" lon="11.167235"><ele>762.0</ele><time>2026-03-29T09:25:04.312Z</time></trkpt><trkpt lat="44.117815" lon="11.16728"><ele>762.0</ele><time>2026-03-29T09:25:06.309Z</time></trkpt><trkpt lat="44.1179117" lon="11.1673"><ele>762.0</ele><time>2026-03-29T09:25:08.31Z</time></trkpt><trkpt lat="44.1179983" lon="11.1673367"><ele>762.0</ele><time>2026-03-29T09:25:10.307Z</time></trkpt><trkpt lat="44.11809" lon="11.16733"><ele>762.0</ele><time>2026-03-29T09:25:12.309Z</time></trkpt><trkpt lat="44.118195" lon="11.1673067"><ele>762.0</ele><time>2026-03-29T09:25:14.308Z</time></trkpt><trkpt lat="44.118305" lon="11.1672883"><ele>762.2</ele><time>2026-03-29T09:25:16.307Z</time></trkpt><trkpt lat="44.118405" lon="11.1672633"><ele>762.4000000000001</ele><time>2026-03-29T09:25:18.309Z</time></trkpt><trkpt lat="44.1185067" lon="11.16721"><ele>762.5999999999999</ele><time>2026-03-29T09:25:20.309Z</time></trkpt><trkpt lat="44.1186083" lon="11.1671567"><ele>762.8</ele><time>2026-03-29T09:25:22.311Z</time></trkpt><trkpt lat="44.1186767" lon="11.1670983"><ele>763.0</ele><time>2026-03-29T09:25:23.31Z</time></trkpt><trkpt lat="44.1187367" lon="11.1670467"><ele>763.0</ele><time>2026-03-29T09:25:24.31Z</time></trkpt><trkpt lat="44.1188333" lon="11.1669567"><ele>763.0</ele><time>2026-03-29T09:25:26.31Z</time></trkpt><trkpt lat="44.1189067" lon="11.16686"><ele>763.0</ele><time>2026-03-29T09:25:28.309Z</time></trkpt><trkpt lat="44.1189717" lon="11.1667783"><ele>763.0</ele><time>2026-03-29T09:25:30.308Z</time></trkpt><trkpt lat="44.11904" lon="11.16669"><ele>763.0</ele><time>2026-03-29T09:25:32.31Z</time></trkpt><trkpt lat="44.1191067" lon="11.1666167"><ele>759.8</ele><time>2026-03-29T09:25:34.31Z</time></trkpt><trkpt lat="44.11919" lon="11.1665833"><ele>756.5999999999999</ele><time>2026-03-29T09:25:36.31Z</time></trkpt><trkpt lat="44.1192867" lon="11.1665983"><ele>753.4000000000001</ele><time>2026-03-29T09:25:38.308Z</time></trkpt><trkpt lat="44.1193817" lon="11.1666367"><ele>750.2</ele><time>2026-03-29T09:25:40.31Z</time></trkpt><trkpt lat="44.1194667" lon="11.16668"><ele>747.0</ele><time>2026-03-29T09:25:42.309Z</time></trkpt><trkpt lat="44.1195533" lon="11.1667017"><ele>747.0</ele><time>2026-03-29T09:25:44.31Z</time></trkpt><trkpt lat="44.11964" lon="11.1667083"><ele>747.0</ele><time>2026-03-29T09:25:46.308Z</time></trkpt><trkpt lat="44.1197333" lon="11.1666933"><ele>747.0</ele><time>2026-03-29T09:25:48.31Z</time></trkpt><trkpt lat="44.1198267" lon="11.1666617"><ele>747.0</ele><time>2026-03-29T09:25:50.308Z</time></trkpt><trkpt lat="44.1199117" lon="11.16662"><ele>747.0</ele><time>2026-03-29T09:25:52.31Z</time></trkpt><trkpt lat="44.119985" lon="11.1665417"><ele>749.2</ele><time>2026-03-29T09:25:54.309Z</time></trkpt><trkpt lat="44.1200467" lon="11.1664417"><ele>751.4000000000001</ele><time>2026-03-29T09:25:56.309Z</time></trkpt><trkpt lat="44.1201067" lon="11.16633"><ele>753.5999999999999</ele><time>2026-03-29T09:25:58.31Z</time></trkpt><trkpt lat="44.1201617" lon="11.1662017"><ele>755.8</ele><time>2026-03-29T09:26:00.309Z</time></trkpt><trkpt lat="44.1202117" lon="11.1660767"><ele>758.0</ele><time>2026-03-29T09:26:02.309Z</time></trkpt><trkpt lat="44.1202533" lon="11.1659567"><ele>758.0</ele><time>2026-03-29T09:26:04.309Z</time></trkpt><trkpt lat="44.12029" lon="11.16583"><ele>758.0</ele><time>2026-03-29T09:26:06.309Z</time></trkpt><trkpt lat="44.1203267" lon="11.1657"><ele>758.0</ele><time>2026-03-29T09:26:08.31Z</time></trkpt><trkpt lat="44.120365" lon="11.16557"><ele>758.0</ele><time>2026-03-29T09:26:10.309Z</time></trkpt><trkpt lat="44.1204017" lon="11.1654367"><ele>758.0</ele><time>2026-03-29T09:26:12.31Z</time></trkpt><trkpt lat="44.12042" lon="11.16531"><ele>763.2</ele><time>2026-03-29T09:26:14.311Z</time></trkpt><trkpt lat="44.1204417" lon="11.1651933"><ele>768.4</ele><time>2026-03-29T09:26:16.309Z</time></trkpt><trkpt lat="44.1204783" lon="11.1650733"><ele>773.6</ele><time>2026-03-29T09:26:18.309Z</time></trkpt><trkpt lat="44.12051" lon="11.1649483"><ele>778.8000000000001</ele><time>2026-03-29T09:26:20.31Z</time></trkpt><trkpt lat="44.1205517" lon="11.1648367"><ele>784.0</ele><time>2026-03-29T09:26:22.309Z</time></trkpt><trkpt lat="44.1206117" lon="11.1647433"><ele>782.0</ele><time>2026-03-29T09:26:24.311Z</time></trkpt><trkpt lat="44.120695" lon="11.1646767"><ele>780.0</ele><time>2026-03-29T09:26:26.31Z</time></trkpt><trkpt lat="44.12079" lon="11.1646583"><ele>778.0</ele><time>2026-03-29T09:26:28.307Z</time></trkpt><trkpt lat="44.12089" lon="11.1647317"><ele>776.0</ele><time>2026-03-29T09:26:30.309Z</time></trkpt><trkpt lat="44.1209717" lon="11.1648383"><ele>774.0</ele><time>2026-03-29T09:26:32.31Z</time></trkpt><trkpt lat="44.120995" lon="11.1649867"><ele>767.5</ele><time>2026-03-29T09:26:34.309Z</time></trkpt><trkpt lat="44.1209833" lon="11.16515"><ele>761.0</ele><time>2026-03-29T09:26:36.311Z</time></trkpt><trkpt lat="44.1209733" lon="11.16531"><ele>754.5</ele><time>2026-03-29T09:26:38.309Z</time></trkpt><trkpt lat="44.1209733" lon="11.1654583"><ele>748.0</ele><time>2026-03-29T09:26:40.309Z</time></trkpt><trkpt lat="44.12098" lon="11.165615"><ele>746.5999999999999</ele><time>2026-03-29T09:26:42.309Z</time></trkpt><trkpt lat="44.1209817" lon="11.1657633"><ele>745.1999999999999</ele><time>2026-03-29T09:26:44.312Z</time></trkpt><trkpt lat="44.120985" lon="11.16591"><ele>743.8</ele><time>2026-03-29T09:26:46.31Z</time></trkpt><trkpt lat="44.1210083" lon="11.1660483"><ele>742.4</ele><time>2026-03-29T09:26:48.31Z</time></trkpt><trkpt lat="44.1210233" lon="11.1661833"><ele>741.0</ele><time>2026-03-29T09:26:50.311Z</time></trkpt><trkpt lat="44.1210367" lon="11.1663183"><ele>741.0</ele><time>2026-03-29T09:26:52.309Z</time></trkpt><trkpt lat="44.1210417" lon="11.16647"><ele>741.0</ele><time>2026-03-29T09:26:54.308Z</time></trkpt><trkpt lat="44.1210333" lon="11.1666117"><ele>741.0</ele><time>2026-03-29T09:26:56.312Z</time></trkpt><trkpt lat="44.12103" lon="11.1667517"><ele>741.0</ele><time>2026-03-29T09:26:58.309Z</time></trkpt><trkpt lat="44.121025" lon="11.1668933"><ele>741.0</ele><time>2026-03-29T09:27:00.311Z</time></trkpt><trkpt lat="44.1210317" lon="11.167035"><ele>740.0</ele><time>2026-03-29T09:27:02.308Z</time></trkpt><trkpt lat="44.121075" lon="11.1671583"><ele>739.0</ele><time>2026-03-29T09:27:04.308Z</time></trkpt><trkpt lat="44.12115" lon="11.16727"><ele>738.0</ele><time>2026-03-29T09:27:06.307Z</time></trkpt><trkpt lat="44.1212" lon="11.167325"><ele>737.0</ele><time>2026-03-29T09:27:07.308Z</time></trkpt><trkpt lat="44.12125" lon="11.1673817"><ele>736.0</ele><time>2026-03-29T09:27:08.307Z</time></trkpt><trkpt lat="44.121335" lon="11.1674883"><ele>734.8</ele><time>2026-03-29T09:27:10.311Z</time></trkpt><trkpt lat="44.12141" lon="11.1676017"><ele>733.5999999999999</ele><time>2026-03-29T09:27:12.312Z</time></trkpt><trkpt lat="44.12146" lon="11.16774"><ele>732.4</ele><time>2026-03-29T09:27:14.311Z</time></trkpt><trkpt lat="44.12148" lon="11.1678933"><ele>731.2</ele><time>2026-03-29T09:27:16.313Z</time></trkpt><trkpt lat="44.121475" lon="11.16805"><ele>730.0</ele><time>2026-03-29T09:27:18.311Z</time></trkpt><trkpt lat="44.121465" lon="11.168205"><ele>730.0</ele><time>2026-03-29T09:27:20.312Z</time></trkpt><trkpt lat="44.1214533" lon="11.1683567"><ele>730.0</ele><time>2026-03-29T09:27:22.31Z</time></trkpt><trkpt lat="44.1214533" lon="11.1685067"><ele>730.0</ele><time>2026-03-29T09:27:24.311Z</time></trkpt><trkpt lat="44.1214717" lon="11.168655"><ele>730.0</ele><time>2026-03-29T09:27:26.311Z</time></trkpt><trkpt lat="44.1215017" lon="11.1688033"><ele>730.0</ele><time>2026-03-29T09:27:28.311Z</time></trkpt><trkpt lat="44.12153" lon="11.168945"><ele>728.8</ele><time>2026-03-29T09:27:30.311Z</time></trkpt><trkpt lat="44.12156" lon="11.1690833"><ele>727.6</ele><time>2026-03-29T09:27:32.313Z</time></trkpt><trkpt lat="44.1215967" lon="11.1692117"><ele>726.4000000000001</ele><time>2026-03-29T09:27:34.311Z</time></trkpt><trkpt lat="44.1216333" lon="11.169345"><ele>725.2</ele><time>2026-03-29T09:27:36.31Z</time></trkpt><trkpt lat="44.1216667" lon="11.1694833"><ele>724.0</ele><time>2026-03-29T09:27:38.311Z</time></trkpt><trkpt lat="44.1216967" lon="11.1696183"><ele>727.8000000000001</ele><time>2026-03-29T09:27:40.313Z</time></trkpt><trkpt lat="44.1217433" lon="11.16974"><ele>731.6</ele><time>2026-03-29T09:27:42.31Z</time></trkpt><trkpt lat="44.1217783" lon="11.16987"><ele>735.4</ele><time>2026-03-29T09:27:44.31Z</time></trkpt><trkpt lat="44.1217883" lon="11.1700117"><ele>739.2</ele><time>2026-03-29T09:27:46.312Z</time></trkpt><trkpt lat="44.1217817" lon="11.17015"><ele>743.0</ele><time>2026-03-29T09:27:48.311Z</time></trkpt><trkpt lat="44.1217867" lon="11.17029"><ele>743.0</ele><time>2026-03-29T09:27:50.311Z</time></trkpt><trkpt lat="44.1218217" lon="11.1704167"><ele>743.0</ele><time>2026-03-29T09:27:52.31Z</time></trkpt><trkpt lat="44.1218867" lon="11.17053"><ele>743.0</ele><time>2026-03-29T09:27:54.312Z</time></trkpt><trkpt lat="44.1219683" lon="11.1706267"><ele>743.0</ele><time>2026-03-29T09:27:56.313Z</time></trkpt><trkpt lat="44.1220517" lon="11.1707133"><ele>743.0</ele><time>2026-03-29T09:27:58.311Z</time></trkpt><trkpt lat="44.122135" lon="11.170805"><ele>741.0</ele><time>2026-03-29T09:28:00.311Z</time></trkpt><trkpt lat="44.1222217" lon="11.17089"><ele>739.0</ele><time>2026-03-29T09:28:02.312Z</time></trkpt><trkpt lat="44.1223083" lon="11.1709667"><ele>737.0</ele><time>2026-03-29T09:28:04.313Z</time></trkpt><trkpt lat="44.1223983" lon="11.171025"><ele>735.0</ele><time>2026-03-29T09:28:06.31Z</time></trkpt><trkpt lat="44.12249" lon="11.1710633"><ele>733.0</ele><time>2026-03-29T09:28:08.311Z</time></trkpt><trkpt lat="44.1225867" lon="11.1710783"><ele>737.8</ele><time>2026-03-29T09:28:10.311Z</time></trkpt><trkpt lat="44.1226867" lon="11.1710833"><ele>742.5999999999999</ele><time>2026-03-29T09:28:12.313Z</time></trkpt><trkpt lat="44.12279" lon="11.1710717"><ele>747.4000000000001</ele><time>2026-03-29T09:28:14.311Z</time></trkpt><trkpt lat="44.1228933" lon="11.1710667"><ele>752.2</ele><time>2026-03-29T09:28:16.309Z</time></trkpt><trkpt lat="44.1229933" lon="11.1710983"><ele>757.0</ele><time>2026-03-29T09:28:18.31Z</time></trkpt><trkpt lat="44.123095" lon="11.1711417"><ele>757.0</ele><time>2026-03-29T09:28:20.31Z</time></trkpt><trkpt lat="44.1231967" lon="11.1711867"><ele>757.0</ele><time>2026-03-29T09:28:22.31Z</time></trkpt><trkpt lat="44.1232883" lon="11.1712383"><ele>757.0</ele><time>2026-03-29T09:28:24.309Z</time></trkpt><trkpt lat="44.1233983" lon="11.17127"><ele>757.0</ele><time>2026-03-29T09:28:26.309Z</time></trkpt><trkpt lat="44.1235083" lon="11.17129"><ele>757.0</ele><time>2026-03-29T09:28:28.31Z</time></trkpt><trkpt lat="44.1236133" lon="11.1712967"><ele>761.5</ele><time>2026-03-29T09:28:30.311Z</time></trkpt><trkpt lat="44.1237217" lon="11.1712967"><ele>766.0</ele><time>2026-03-29T09:28:32.309Z</time></trkpt><trkpt lat="44.1238333" lon="11.1713033"><ele>770.5</ele><time>2026-03-29T09:28:34.309Z</time></trkpt><trkpt lat="44.1239567" lon="11.17132"><ele>775.0</ele><time>2026-03-29T09:28:36.31Z</time></trkpt><trkpt lat="44.12407" lon="11.171365"><ele>777.75</ele><time>2026-03-29T09:28:38.31Z</time></trkpt><trkpt lat="44.12418" lon="11.17143"><ele>780.5</ele><time>2026-03-29T09:28:40.308Z</time></trkpt><trkpt lat="44.1242833" lon="11.1715083"><ele>783.25</ele><time>2026-03-29T09:28:42.309Z</time></trkpt><trkpt lat="44.1243867" lon="11.1715867"><ele>786.0</ele><time>2026-03-29T09:28:44.31Z</time></trkpt><trkpt lat="44.1244867" lon="11.17166"><ele>783.8</ele><time>2026-03-29T09:28:46.311Z</time></trkpt><trkpt lat="44.1245833" lon="11.1717217"><ele>781.5999999999999</ele><time>2026-03-29T09:28:48.309Z</time></trkpt><trkpt lat="44.1246833" lon="11.1717783"><ele>779.4</ele><time>2026-03-29T09:28:50.31Z</time></trkpt><trkpt lat="44.12478" lon="11.1718367"><ele>777.2</ele><time>2026-03-29T09:28:52.308Z</time></trkpt><trkpt lat="44.1248767" lon="11.171895"><ele>775.0</ele><time>2026-03-29T09:28:54.309Z</time></trkpt><trkpt lat="44.12498" lon="11.1719417"><ele>775.0</ele><time>2026-03-29T09:28:56.31Z</time></trkpt><trkpt lat="44.1250817" lon="11.171985"><ele>775.0</ele><time>2026-03-29T09:28:58.31Z</time></trkpt><trkpt lat="44.1251867" lon="11.1720383"><ele>775.0</ele><time>2026-03-29T09:29:00.312Z</time></trkpt><trkpt lat="44.1252917" lon="11.1720733"><ele>775.0</ele><time>2026-03-29T09:29:02.309Z</time></trkpt><trkpt lat="44.1254017" lon="11.1720917"><ele>775.0</ele><time>2026-03-29T09:29:04.309Z</time></trkpt><trkpt lat="44.1255117" lon="11.1721"><ele>775.0</ele><time>2026-03-29T09:29:06.31Z</time></trkpt><trkpt lat="44.1256133" lon="11.17209"><ele>775.0</ele><time>2026-03-29T09:29:08.311Z</time></trkpt><trkpt lat="44.125715" lon="11.1720733"><ele>775.0</ele><time>2026-03-29T09:29:10.31Z</time></trkpt><trkpt lat="44.1258" lon="11.1720517"><ele>775.0</ele><time>2026-03-29T09:29:12.309Z</time></trkpt><trkpt lat="44.1258983" lon="11.17202"><ele>775.0</ele><time>2026-03-29T09:29:14.31Z</time></trkpt><trkpt lat="44.125975" lon="11.1720017"><ele>775.6</ele><time>2026-03-29T09:29:16.31Z</time></trkpt><trkpt lat="44.126055" lon="11.17197"><ele>776.2</ele><time>2026-03-29T09:29:18.31Z</time></trkpt><trkpt lat="44.1261467" lon="11.1719467"><ele>776.8</ele><time>2026-03-29T09:29:20.31Z</time></trkpt><trkpt lat="44.126245" lon="11.171935"><ele>777.4</ele><time>2026-03-29T09:29:22.31Z</time></trkpt><trkpt lat="44.1263467" lon="11.1719167"><ele>778.0</ele><time>2026-03-29T09:29:24.309Z</time></trkpt><trkpt lat="44.1264317" lon="11.1718983"><ele>778.0</ele><time>2026-03-29T09:29:26.311Z</time></trkpt><trkpt lat="44.1264967" lon="11.1718783"><ele>778.0</ele><time>2026-03-29T09:29:28.31Z</time></trkpt><trkpt lat="44.1265717" lon="11.17187"><ele>778.0</ele><time>2026-03-29T09:29:31.31Z</time></trkpt><trkpt lat="44.12673" lon="11.1718083"><ele>778.0</ele><time>2026-03-29T09:29:59.31Z</time></trkpt><trkpt lat="44.1267973" lon="11.1717837"><ele>778.0</ele><time>2026-03-29T09:33:16.404Z</time></trkpt><trkpt lat="44.1269054" lon="11.1717472"><ele>776.75</ele><time>2026-03-29T09:33:20.342Z</time></trkpt><trkpt lat="44.1270427" lon="11.1717398"><ele>775.5</ele><time>2026-03-29T09:33:25.32Z</time></trkpt><trkpt lat="44.1271767" lon="11.1717583"><ele>774.25</ele><time>2026-03-29T09:33:26.311Z</time></trkpt><trkpt lat="44.1272633" lon="11.1717917"><ele>773.0</ele><time>2026-03-29T09:33:28.309Z</time></trkpt><trkpt lat="44.127345" lon="11.17185"><ele>776.1666666666667</ele><time>2026-03-29T09:33:30.31Z</time></trkpt><trkpt lat="44.12742" lon="11.1719317"><ele>779.3333333333334</ele><time>2026-03-29T09:33:32.31Z</time></trkpt><trkpt lat="44.1274883" lon="11.1720133"><ele>782.5</ele><time>2026-03-29T09:33:34.31Z</time></trkpt><trkpt lat="44.127545" lon="11.1721017"><ele>785.6666666666667</ele><time>2026-03-29T09:33:36.312Z</time></trkpt><trkpt lat="44.1276017" lon="11.1721967"><ele>788.8333333333334</ele><time>2026-03-29T09:33:38.31Z</time></trkpt><trkpt lat="44.1276567" lon="11.172285"><ele>792.0</ele><time>2026-03-29T09:33:40.308Z</time></trkpt><trkpt lat="44.1277133" lon="11.1723783"><ele>784.2</ele><time>2026-03-29T09:33:42.308Z</time></trkpt><trkpt lat="44.1277717" lon="11.17247"><ele>776.4000000000001</ele><time>2026-03-29T09:33:44.31Z</time></trkpt><trkpt lat="44.1278367" lon="11.17255"><ele>768.5999999999999</ele><time>2026-03-29T09:33:46.309Z</time></trkpt><trkpt lat="44.127915" lon="11.1726133"><ele>760.8</ele><time>2026-03-29T09:33:48.311Z</time></trkpt><trkpt lat="44.1280033" lon="11.1726667"><ele>753.0</ele><time>2026-03-29T09:33:50.308Z</time></trkpt><trkpt lat="44.1280833" lon="11.172735"><ele>753.0</ele><time>2026-03-29T09:33:52.31Z</time></trkpt><trkpt lat="44.12817" lon="11.17279"><ele>753.0</ele><time>2026-03-29T09:33:54.308Z</time></trkpt><trkpt lat="44.1282633" lon="11.172835"><ele>753.0</ele><time>2026-03-29T09:33:56.311Z</time></trkpt><trkpt lat="44.1283483" lon="11.1728633"><ele>753.0</ele><time>2026-03-29T09:33:58.309Z</time></trkpt><trkpt lat="44.1284367" lon="11.172885"><ele>753.0</ele><time>2026-03-29T09:34:00.309Z</time></trkpt><trkpt lat="44.1285133" lon="11.17291"><ele>759.0</ele><time>2026-03-29T09:34:02.31Z</time></trkpt><trkpt lat="44.1285983" lon="11.1729267"><ele>765.0</ele><time>2026-03-29T09:34:04.31Z</time></trkpt><trkpt lat="44.128685" lon="11.1729517"><ele>771.0</ele><time>2026-03-29T09:34:06.31Z</time></trkpt><trkpt lat="44.1287667" lon="11.1729917"><ele>777.0</ele><time>2026-03-29T09:34:08.309Z</time></trkpt><trkpt lat="44.1288567" lon="11.1730217"><ele>783.0</ele><time>2026-03-29T09:34:10.309Z</time></trkpt><trkpt lat="44.1289583" lon="11.1730533"><ele>783.0</ele><time>2026-03-29T09:34:12.311Z</time></trkpt><trkpt lat="44.1290417" lon="11.173075"><ele>783.0</ele><time>2026-03-29T09:34:14.307Z</time></trkpt><trkpt lat="44.129115" lon="11.1731333"><ele>783.0</ele><time>2026-03-29T09:34:16.308Z</time></trkpt><trkpt lat="44.1291683" lon="11.173225"><ele>783.0</ele><time>2026-03-29T09:34:18.309Z</time></trkpt><trkpt lat="44.1292133" lon="11.173335"><ele>783.0</ele><time>2026-03-29T09:34:20.308Z</time></trkpt><trkpt lat="44.1292617" lon="11.1734533"><ele>783.0</ele><time>2026-03-29T09:34:22.311Z</time></trkpt><trkpt lat="44.1293117" lon="11.1735617"><ele>781.5</ele><time>2026-03-29T09:34:24.308Z</time></trkpt><trkpt lat="44.12937" lon="11.173655"><ele>780.0</ele><time>2026-03-29T09:34:26.308Z</time></trkpt><trkpt lat="44.1294383" lon="11.1737233"><ele>778.5</ele><time>2026-03-29T09:34:28.308Z</time></trkpt><trkpt lat="44.1295067" lon="11.1737733"><ele>777.0</ele><time>2026-03-29T09:34:30.314Z</time></trkpt><trkpt lat="44.1295783" lon="11.1737733"><ele>775.5</ele><time>2026-03-29T09:34:32.309Z</time></trkpt><trkpt lat="44.1296417" lon="11.1737317"><ele>774.0</ele><time>2026-03-29T09:34:35.309Z</time></trkpt><trkpt lat="44.129675" lon="11.173655"><ele>774.0</ele><time>2026-03-29T09:34:38.309Z</time></trkpt><trkpt lat="44.12971" lon="11.1735767"><ele>774.0</ele><time>2026-03-29T09:34:41.308Z</time></trkpt><trkpt lat="44.1297467" lon="11.1734833"><ele>774.0</ele><time>2026-03-29T09:35:22.309Z</time></trkpt><trkpt lat="44.129785" lon="11.1733883"><ele>774.0</ele><time>2026-03-29T09:35:25.308Z</time></trkpt><trkpt lat="44.1298233" lon="11.1732933"><ele>774.0</ele><time>2026-03-29T09:35:27.31Z</time></trkpt><trkpt lat="44.1298717" lon="11.1731833"><ele>774.0</ele><time>2026-03-29T09:35:29.309Z</time></trkpt><trkpt lat="44.1299133" lon="11.173085"><ele>774.5</ele><time>2026-03-29T09:35:31.309Z</time></trkpt><trkpt lat="44.1299517" lon="11.1729817"><ele>775.0</ele><time>2026-03-29T09:35:33.311Z</time></trkpt><trkpt lat="44.1299733" lon="11.1728717"><ele>775.5</ele><time>2026-03-29T09:35:35.31Z</time></trkpt><trkpt lat="44.129965" lon="11.1727567"><ele>776.0</ele><time>2026-03-29T09:35:37.31Z</time></trkpt><trkpt lat="44.1299433" lon="11.1726267"><ele>776.5</ele><time>2026-03-29T09:35:39.309Z</time></trkpt><trkpt lat="44.12992" lon="11.1724883"><ele>777.0</ele><time>2026-03-29T09:35:41.31Z</time></trkpt><trkpt lat="44.1299017" lon="11.1723483"><ele>778.0</ele><time>2026-03-29T09:35:43.31Z</time></trkpt><trkpt lat="44.1299017" lon="11.172205"><ele>779.0</ele><time>2026-03-29T09:35:45.31Z</time></trkpt><trkpt lat="44.1299217" lon="11.1720717"><ele>780.0</ele><time>2026-03-29T09:35:47.31Z</time></trkpt><trkpt lat="44.1299467" lon="11.1719417"><ele>781.0</ele><time>2026-03-29T09:35:49.312Z</time></trkpt><trkpt lat="44.1299717" lon="11.17181"><ele>782.0</ele><time>2026-03-29T09:35:51.31Z</time></trkpt><trkpt lat="44.1299967" lon="11.17168"><ele>782.0</ele><time>2026-03-29T09:35:53.31Z</time></trkpt><trkpt lat="44.1300233" lon="11.171545"><ele>782.0</ele><time>2026-03-29T09:35:55.311Z</time></trkpt><trkpt lat="44.1300533" lon="11.1714067"><ele>782.0</ele><time>2026-03-29T09:35:57.309Z</time></trkpt><trkpt lat="44.1300967" lon="11.1712767"><ele>782.0</ele><time>2026-03-29T09:35:59.311Z</time></trkpt><trkpt lat="44.1301533" lon="11.171175"><ele>782.0</ele><time>2026-03-29T09:36:01.309Z</time></trkpt><trkpt lat="44.1302183" lon="11.171095"><ele>784.1666666666667</ele><time>2026-03-29T09:36:03.309Z</time></trkpt><trkpt lat="44.1302867" lon="11.1710267"><ele>786.3333333333334</ele><time>2026-03-29T09:36:05.311Z</time></trkpt><trkpt lat="44.1303583" lon="11.170965"><ele>788.5</ele><time>2026-03-29T09:36:07.309Z</time></trkpt><trkpt lat="44.1304317" lon="11.1709083"><ele>790.6666666666667</ele><time>2026-03-29T09:36:09.309Z</time></trkpt><trkpt lat="44.130505" lon="11.1708483"><ele>792.8333333333334</ele><time>2026-03-29T09:36:11.31Z</time></trkpt><trkpt lat="44.130585" lon="11.1707783"><ele>795.0</ele><time>2026-03-29T09:36:13.31Z</time></trkpt><trkpt lat="44.1306633" lon="11.170705"><ele>795.3333333333334</ele><time>2026-03-29T09:36:15.311Z</time></trkpt><trkpt lat="44.1307433" lon="11.1706317"><ele>795.6666666666667</ele><time>2026-03-29T09:36:17.31Z</time></trkpt><trkpt lat="44.1308367" lon="11.1705667"><ele>796.0</ele><time>2026-03-29T09:36:19.311Z</time></trkpt><trkpt lat="44.1309367" lon="11.1704917"><ele>796.3333333333334</ele><time>2026-03-29T09:36:21.309Z</time></trkpt><trkpt lat="44.1309933" lon="11.1704533"><ele>796.6666666666667</ele><time>2026-03-29T09:36:22.31Z</time></trkpt><trkpt lat="44.1310533" lon="11.17041"><ele>797.0</ele><time>2026-03-29T09:36:23.311Z</time></trkpt><trkpt lat="44.1311617" lon="11.17033"><ele>797.0</ele><time>2026-03-29T09:36:25.31Z</time></trkpt><trkpt lat="44.1312217" lon="11.1702917"><ele>797.0</ele><time>2026-03-29T09:36:26.311Z</time></trkpt><trkpt lat="44.1312867" lon="11.1702517"><ele>797.0</ele><time>2026-03-29T09:36:27.311Z</time></trkpt><trkpt lat="44.131355" lon="11.1702183"><ele>797.0</ele><time>2026-03-29T09:36:28.312Z</time></trkpt><trkpt lat="44.1314283" lon="11.17019"><ele>797.0</ele><time>2026-03-29T09:36:29.312Z</time></trkpt><trkpt lat="44.1315" lon="11.170165"><ele>797.0</ele><time>2026-03-29T09:36:30.311Z</time></trkpt><trkpt lat="44.1315767" lon="11.1701467"><ele>797.0</ele><time>2026-03-29T09:36:31.309Z</time></trkpt><trkpt lat="44.1316567" lon="11.1701333"><ele>795.1666666666667</ele><time>2026-03-29T09:36:32.313Z</time></trkpt><trkpt lat="44.13174" lon="11.170125"><ele>793.3333333333334</ele><time>2026-03-29T09:36:33.31Z</time></trkpt><trkpt lat="44.1318233" lon="11.1701283"><ele>791.5</ele><time>2026-03-29T09:36:34.31Z</time></trkpt><trkpt lat="44.1319017" lon="11.1701417"><ele>789.6666666666667</ele><time>2026-03-29T09:36:35.311Z</time></trkpt><trkpt lat="44.1319783" lon="11.170165"><ele>787.8333333333334</ele><time>2026-03-29T09:36:36.31Z</time></trkpt><trkpt lat="44.13205" lon="11.1702017"><ele>786.0</ele><time>2026-03-29T09:36:37.311Z</time></trkpt><trkpt lat="44.1321183" lon="11.1702383"><ele>786.0</ele><time>2026-03-29T09:36:38.311Z</time></trkpt><trkpt lat="44.1321833" lon="11.1702767"><ele>786.0</ele><time>2026-03-29T09:36:39.311Z</time></trkpt><trkpt lat="44.1322533" lon="11.170305"><ele>786.0</ele><time>2026-03-29T09:36:40.313Z</time></trkpt><trkpt lat="44.1323283" lon="11.170315"><ele>786.0</ele><time>2026-03-29T09:36:41.31Z</time></trkpt><trkpt lat="44.1324067" lon="11.1703133"><ele>786.0</ele><time>2026-03-29T09:36:42.308Z</time></trkpt><trkpt lat="44.1324867" lon="11.1702833"><ele>786.0</ele><time>2026-03-29T09:36:43.311Z</time></trkpt><trkpt lat="44.1325567" lon="11.1702367"><ele>785.7142857142858</ele><time>2026-03-29T09:36:44.312Z</time></trkpt><trkpt lat="44.1326217" lon="11.1701917"><ele>785.4285714285714</ele><time>2026-03-29T09:36:45.312Z</time></trkpt><trkpt lat="44.1326883" lon="11.1701533"><ele>785.1428571428571</ele><time>2026-03-29T09:36:46.312Z</time></trkpt><trkpt lat="44.1327517" lon="11.170125"><ele>784.8571428571429</ele><time>2026-03-29T09:36:47.311Z</time></trkpt><trkpt lat="44.1328217" lon="11.1701183"><ele>784.5714285714286</ele><time>2026-03-29T09:36:48.31Z</time></trkpt><trkpt lat="44.13289" lon="11.1701383"><ele>784.2857142857143</ele><time>2026-03-29T09:36:49.311Z</time></trkpt><trkpt lat="44.132955" lon="11.1701883"><ele>784.0</ele><time>2026-03-29T09:36:50.31Z</time></trkpt><trkpt lat="44.1330183" lon="11.1702533"><ele>784.0</ele><time>2026-03-29T09:36:51.309Z</time></trkpt><trkpt lat="44.133075" lon="11.1703267"><ele>784.0</ele><time>2026-03-29T09:36:52.31Z</time></trkpt><trkpt lat="44.1331367" lon="11.1703867"><ele>784.0</ele><time>2026-03-29T09:36:53.31Z</time></trkpt><trkpt lat="44.1332" lon="11.1704317"><ele>784.0</ele><time>2026-03-29T09:36:54.309Z</time></trkpt><trkpt lat="44.1332683" lon="11.1704633"><ele>784.0</ele><time>2026-03-29T09:36:55.309Z</time></trkpt><trkpt lat="44.133335" lon="11.17048"><ele>784.0</ele><time>2026-03-29T09:36:56.31Z</time></trkpt><trkpt lat="44.13341" lon="11.17047"><ele>784.0</ele><time>2026-03-29T09:36:57.308Z</time></trkpt><trkpt lat="44.1334883" lon="11.1704317"><ele>784.8333333333333</ele><time>2026-03-29T09:36:58.31Z</time></trkpt><trkpt lat="44.1335633" lon="11.1703783"><ele>785.6666666666666</ele><time>2026-03-29T09:36:59.311Z</time></trkpt><trkpt lat="44.13364" lon="11.170325"><ele>786.5</ele><time>2026-03-29T09:37:00.31Z</time></trkpt><trkpt lat="44.13372" lon="11.1702733"><ele>787.3333333333333</ele><time>2026-03-29T09:37:01.31Z</time></trkpt><trkpt lat="44.1338033" lon="11.1702367"><ele>788.1666666666666</ele><time>2026-03-29T09:37:02.312Z</time></trkpt><trkpt lat="44.1338883" lon="11.1702167"><ele>789.0</ele><time>2026-03-29T09:37:03.309Z</time></trkpt><trkpt lat="44.133975" lon="11.1702183"><ele>789.4000000000001</ele><time>2026-03-29T09:37:04.309Z</time></trkpt><trkpt lat="44.1340633" lon="11.170245"><ele>789.8</ele><time>2026-03-29T09:37:05.309Z</time></trkpt><trkpt lat="44.1341467" lon="11.170295"><ele>790.2</ele><time>2026-03-29T09:37:06.309Z</time></trkpt><trkpt lat="44.1342233" lon="11.1703633"><ele>790.5999999999999</ele><time>2026-03-29T09:37:07.31Z</time></trkpt><trkpt lat="44.1342933" lon="11.1704433"><ele>791.0</ele><time>2026-03-29T09:37:08.31Z</time></trkpt><trkpt lat="44.134365" lon="11.1705167"><ele>791.0000000000001</ele><time>2026-03-29T09:37:09.309Z</time></trkpt><trkpt lat="44.1344333" lon="11.1705883"><ele>791.0</ele><time>2026-03-29T09:37:10.31Z</time></trkpt><trkpt lat="44.1345017" lon="11.1706533"><ele>791.0</ele><time>2026-03-29T09:37:11.312Z</time></trkpt><trkpt lat="44.1345667" lon="11.1707117"><ele>791.0</ele><time>2026-03-29T09:37:12.309Z</time></trkpt><trkpt lat="44.1346317" lon="11.1707617"><ele>791.0000000000001</ele><time>2026-03-29T09:37:13.308Z</time></trkpt><trkpt lat="44.134695" lon="11.170795"><ele>791.0</ele><time>2026-03-29T09:37:14.31Z</time></trkpt><trkpt lat="44.13477" lon="11.1707983"><ele>790.8</ele><time>2026-03-29T09:37:15.311Z</time></trkpt><trkpt lat="44.13485" lon="11.1707767"><ele>790.5999999999999</ele><time>2026-03-29T09:37:16.309Z</time></trkpt><trkpt lat="44.134935" lon="11.1707233"><ele>790.4</ele><time>2026-03-29T09:37:17.308Z</time></trkpt><trkpt lat="44.13502" lon="11.1706583"><ele>790.2</ele><time>2026-03-29T09:37:18.31Z</time></trkpt><trkpt lat="44.1350967" lon="11.17059"><ele>790.0</ele><time>2026-03-29T09:37:19.312Z</time></trkpt><trkpt lat="44.1351717" lon="11.1705083"><ele>790.0</ele><time>2026-03-29T09:37:20.31Z</time></trkpt><trkpt lat="44.1352483" lon="11.17043"><ele>790.0</ele><time>2026-03-29T09:37:21.311Z</time></trkpt><trkpt lat="44.135325" lon="11.17035"><ele>790.0</ele><time>2026-03-29T09:37:22.309Z</time></trkpt><trkpt lat="44.135405" lon="11.1702783"><ele>790.0</ele><time>2026-03-29T09:37:23.31Z</time></trkpt><trkpt lat="44.135485" lon="11.1702083"><ele>790.0</ele><time>2026-03-29T09:37:24.31Z</time></trkpt><trkpt lat="44.1355683" lon="11.1701467"><ele>790.0</ele><time>2026-03-29T09:37:25.31Z</time></trkpt><trkpt lat="44.1356567" lon="11.1701033"><ele>790.0</ele><time>2026-03-29T09:37:26.31Z</time></trkpt><trkpt lat="44.13575" lon="11.170075"><ele>790.0</ele><time>2026-03-29T09:37:27.311Z</time></trkpt><trkpt lat="44.1358433" lon="11.170065"><ele>790.0</ele><time>2026-03-29T09:37:28.311Z</time></trkpt><trkpt lat="44.13594" lon="11.170075"><ele>790.0</ele><time>2026-03-29T09:37:29.31Z</time></trkpt><trkpt lat="44.1360383" lon="11.170095"><ele>784.4</ele><time>2026-03-29T09:37:30.31Z</time></trkpt><trkpt lat="44.1361333" lon="11.1701233"><ele>778.8</ele><time>2026-03-29T09:37:31.308Z</time></trkpt><trkpt lat="44.136225" lon="11.1701583"><ele>773.2</ele><time>2026-03-29T09:37:32.31Z</time></trkpt><trkpt lat="44.1363133" lon="11.17021"><ele>767.6</ele><time>2026-03-29T09:37:33.311Z</time></trkpt><trkpt lat="44.1363983" lon="11.1702767"><ele>762.0</ele><time>2026-03-29T09:37:34.309Z</time></trkpt><trkpt lat="44.13648" lon="11.1703517"><ele>761.4000000000001</ele><time>2026-03-29T09:37:35.31Z</time></trkpt><trkpt lat="44.13656" lon="11.1704267"><ele>760.8000000000001</ele><time>2026-03-29T09:37:36.311Z</time></trkpt><trkpt lat="44.1366367" lon="11.1704967"><ele>760.2</ele><time>2026-03-29T09:37:37.311Z</time></trkpt><trkpt lat="44.136725" lon="11.1705467"><ele>759.6</ele><time>2026-03-29T09:37:38.309Z</time></trkpt><trkpt lat="44.1368217" lon="11.17058"><ele>759.0</ele><time>2026-03-29T09:37:39.31Z</time></trkpt><trkpt lat="44.1369217" lon="11.1706"><ele>759.0</ele><time>2026-03-29T09:37:40.309Z</time></trkpt><trkpt lat="44.1370233" lon="11.1706117"><ele>759.0</ele><time>2026-03-29T09:37:41.31Z</time></trkpt><trkpt lat="44.1371267" lon="11.1706167"><ele>759.0</ele><time>2026-03-29T09:37:42.31Z</time></trkpt><trkpt lat="44.1372267" lon="11.1706217"><ele>759.0</ele><time>2026-03-29T09:37:43.31Z</time></trkpt><trkpt lat="44.137325" lon="11.1706333"><ele>759.0</ele><time>2026-03-29T09:37:44.312Z</time></trkpt><trkpt lat="44.13742" lon="11.170655"><ele>756.0</ele><time>2026-03-29T09:37:45.309Z</time></trkpt><trkpt lat="44.1375133" lon="11.170695"><ele>753.0</ele><time>2026-03-29T09:37:46.31Z</time></trkpt><trkpt lat="44.1375983" lon="11.170755"><ele>750.0</ele><time>2026-03-29T09:37:47.311Z</time></trkpt><trkpt lat="44.1376733" lon="11.1708333"><ele>747.0</ele><time>2026-03-29T09:37:48.312Z</time></trkpt><trkpt lat="44.1377333" lon="11.170935"><ele>744.0</ele><time>2026-03-29T09:37:49.312Z</time></trkpt><trkpt lat="44.1377833" lon="11.1710467"><ele>744.0</ele><time>2026-03-29T09:37:50.31Z</time></trkpt><trkpt lat="44.137825" lon="11.1711533"><ele>744.0</ele><time>2026-03-29T09:37:51.312Z</time></trkpt><trkpt lat="44.1378683" lon="11.1712467"><ele>744.0</ele><time>2026-03-29T09:37:52.309Z</time></trkpt><trkpt lat="44.1379167" lon="11.17133"><ele>744.0</ele><time>2026-03-29T09:37:53.31Z</time></trkpt><trkpt lat="44.137975" lon="11.1713967"><ele>744.0</ele><time>2026-03-29T09:37:54.311Z</time></trkpt><trkpt lat="44.1380467" lon="11.17144"><ele>744.0</ele><time>2026-03-29T09:37:55.307Z</time></trkpt><trkpt lat="44.13813" lon="11.171465"><ele>744.0</ele><time>2026-03-29T09:37:56.311Z</time></trkpt><trkpt lat="44.138215" lon="11.1714833"><ele>744.0</ele><time>2026-03-29T09:37:57.31Z</time></trkpt><trkpt lat="44.1382983" lon="11.171505"><ele>744.0</ele><time>2026-03-29T09:37:58.313Z</time></trkpt><trkpt lat="44.13838" lon="11.1715433"><ele>744.0</ele><time>2026-03-29T09:37:59.313Z</time></trkpt><trkpt lat="44.1384633" lon="11.1715933"><ele>744.0</ele><time>2026-03-29T09:38:00.311Z</time></trkpt><trkpt lat="44.13854" lon="11.17166"><ele>744.0</ele><time>2026-03-29T09:38:01.311Z</time></trkpt><trkpt lat="44.1386083" lon="11.1717433"><ele>742.6</ele><time>2026-03-29T09:38:02.31Z</time></trkpt><trkpt lat="44.1386733" lon="11.1718367"><ele>741.2</ele><time>2026-03-29T09:38:03.312Z</time></trkpt><trkpt lat="44.1387333" lon="11.1719417"><ele>739.8000000000001</ele><time>2026-03-29T09:38:04.309Z</time></trkpt><trkpt lat="44.1387917" lon="11.172045"><ele>738.4000000000001</ele><time>2026-03-29T09:38:05.312Z</time></trkpt><trkpt lat="44.1388517" lon="11.1721517"><ele>737.0</ele><time>2026-03-29T09:38:06.314Z</time></trkpt><trkpt lat="44.1389133" lon="11.1722617"><ele>736.1666666666666</ele><time>2026-03-29T09:38:07.312Z</time></trkpt><trkpt lat="44.1389767" lon="11.1723633"><ele>735.3333333333333</ele><time>2026-03-29T09:38:08.312Z</time></trkpt><trkpt lat="44.1390383" lon="11.1724617"><ele>734.5</ele><time>2026-03-29T09:38:09.311Z</time></trkpt><trkpt lat="44.139095" lon="11.1725533"><ele>733.6666666666666</ele><time>2026-03-29T09:38:10.311Z</time></trkpt><trkpt lat="44.13915" lon="11.17264"><ele>732.8333333333334</ele><time>2026-03-29T09:38:11.313Z</time></trkpt><trkpt lat="44.1392017" lon="11.172715"><ele>732.0</ele><time>2026-03-29T09:38:12.311Z</time></trkpt><trkpt lat="44.1392583" lon="11.1727733"><ele>732.0</ele><time>2026-03-29T09:38:13.312Z</time></trkpt><trkpt lat="44.13932" lon="11.17282"><ele>732.0</ele><time>2026-03-29T09:38:14.311Z</time></trkpt><trkpt lat="44.1393883" lon="11.1728483"><ele>732.0</ele><time>2026-03-29T09:38:15.312Z</time></trkpt><trkpt lat="44.1394633" lon="11.172855"><ele>732.0</ele><time>2026-03-29T09:38:16.311Z</time></trkpt><trkpt lat="44.139545" lon="11.172835"><ele>732.0</ele><time>2026-03-29T09:38:17.312Z</time></trkpt><trkpt lat="44.139625" lon="11.1727983"><ele>732.0</ele><time>2026-03-29T09:38:18.312Z</time></trkpt><trkpt lat="44.1397083" lon="11.1727383"><ele>732.0</ele><time>2026-03-29T09:38:19.311Z</time></trkpt><trkpt lat="44.1397933" lon="11.1726717"><ele>732.0</ele><time>2026-03-29T09:38:20.311Z</time></trkpt><trkpt lat="44.1398767" lon="11.1725983"><ele>732.0</ele><time>2026-03-29T09:38:21.311Z</time></trkpt><trkpt lat="44.13996" lon="11.17252"><ele>732.0</ele><time>2026-03-29T09:38:22.311Z</time></trkpt><trkpt lat="44.1400417" lon="11.1724367"><ele>732.0</ele><time>2026-03-29T09:38:23.312Z</time></trkpt><trkpt lat="44.140115" lon="11.1723417"><ele>733.8</ele><time>2026-03-29T09:38:24.312Z</time></trkpt><trkpt lat="44.1401783" lon="11.172235"><ele>735.6</ele><time>2026-03-29T09:38:25.311Z</time></trkpt><trkpt lat="44.1402333" lon="11.1721217"><ele>737.4</ele><time>2026-03-29T09:38:26.314Z</time></trkpt><trkpt lat="44.1402833" lon="11.1720033"><ele>739.1999999999999</ele><time>2026-03-29T09:38:27.311Z</time></trkpt><trkpt lat="44.140335" lon="11.1718833"><ele>741.0</ele><time>2026-03-29T09:38:28.311Z</time></trkpt><trkpt lat="44.1403983" lon="11.1717733"><ele>741.0</ele><time>2026-03-29T09:38:29.309Z</time></trkpt><trkpt lat="44.14047" lon="11.1716783"><ele>741.0</ele><time>2026-03-29T09:38:30.311Z</time></trkpt><trkpt lat="44.1405533" lon="11.1715983"><ele>741.0</ele><time>2026-03-29T09:38:31.312Z</time></trkpt><trkpt lat="44.1406417" lon="11.171535"><ele>741.0</ele><time>2026-03-29T09:38:32.314Z</time></trkpt><trkpt lat="44.1407367" lon="11.17148"><ele>741.0</ele><time>2026-03-29T09:38:33.31Z</time></trkpt><trkpt lat="44.1408283" lon="11.1714283"><ele>741.1999999999999</ele><time>2026-03-29T09:38:34.311Z</time></trkpt><trkpt lat="44.1409233" lon="11.1713783"><ele>741.4</ele><time>2026-03-29T09:38:35.311Z</time></trkpt><trkpt lat="44.141015" lon="11.171325"><ele>741.6</ele><time>2026-03-29T09:38:36.31Z</time></trkpt><trkpt lat="44.1411033" lon="11.1712733"><ele>741.8</ele><time>2026-03-29T09:38:37.31Z</time></trkpt><trkpt lat="44.1411867" lon="11.1712183"><ele>742.0</ele><time>2026-03-29T09:38:38.309Z</time></trkpt><trkpt lat="44.141265" lon="11.1711567"><ele>742.0</ele><time>2026-03-29T09:38:39.311Z</time></trkpt><trkpt lat="44.1413367" lon="11.1710883"><ele>742.0</ele><time>2026-03-29T09:38:40.31Z</time></trkpt><trkpt lat="44.1414033" lon="11.1710183"><ele>742.0</ele><time>2026-03-29T09:38:41.309Z</time></trkpt><trkpt lat="44.1414667" lon="11.1709467"><ele>742.0</ele><time>2026-03-29T09:38:42.312Z</time></trkpt><trkpt lat="44.1415283" lon="11.1708683"><ele>742.0</ele><time>2026-03-29T09:38:43.312Z</time></trkpt><trkpt lat="44.1415883" lon="11.1707933"><ele>742.0</ele><time>2026-03-29T09:38:44.312Z</time></trkpt><trkpt lat="44.1416467" lon="11.1707283"><ele>741.4285714285714</ele><time>2026-03-29T09:38:45.311Z</time></trkpt><trkpt lat="44.1417117" lon="11.1706733"><ele>740.8571428571429</ele><time>2026-03-29T09:38:46.31Z</time></trkpt><trkpt lat="44.14178" lon="11.1706333"><ele>740.2857142857142</ele><time>2026-03-29T09:38:47.31Z</time></trkpt><trkpt lat="44.1418483" lon="11.170605"><ele>739.7142857142858</ele><time>2026-03-29T09:38:48.311Z</time></trkpt><trkpt lat="44.1419183" lon="11.1705783"><ele>739.1428571428571</ele><time>2026-03-29T09:38:49.311Z</time></trkpt><trkpt lat="44.1419867" lon="11.170555"><ele>738.5714285714286</ele><time>2026-03-29T09:38:50.312Z</time></trkpt><trkpt lat="44.1420517" lon="11.17053"><ele>738.0</ele><time>2026-03-29T09:38:51.311Z</time></trkpt><trkpt lat="44.14211" lon="11.1704967"><ele>738.0</ele><time>2026-03-29T09:38:52.312Z</time></trkpt><trkpt lat="44.1421633" lon="11.17045"><ele>738.0</ele><time>2026-03-29T09:38:53.31Z</time></trkpt><trkpt lat="44.1422133" lon="11.1702933"><ele>738.0</ele><time>2026-03-29T09:38:55.312Z</time></trkpt><trkpt lat="44.1422317" lon="11.170125"><ele>738.0</ele><time>2026-03-29T09:38:57.311Z</time></trkpt><trkpt lat="44.14223" lon="11.170035"><ele>738.0</ele><time>2026-03-29T09:38:58.31Z</time></trkpt><trkpt lat="44.1422267" lon="11.169945"><ele>738.0</ele><time>2026-03-29T09:38:59.311Z</time></trkpt><trkpt lat="44.1422233" lon="11.169855"><ele>737.1428571428571</ele><time>2026-03-29T09:39:00.309Z</time></trkpt><trkpt lat="44.1422133" lon="11.169765"><ele>736.2857142857142</ele><time>2026-03-29T09:39:01.31Z</time></trkpt><trkpt lat="44.142205" lon="11.1696767"><ele>735.4285714285714</ele><time>2026-03-29T09:39:02.309Z</time></trkpt><trkpt lat="44.1421983" lon="11.1695867"><ele>734.5714285714286</ele><time>2026-03-29T09:39:03.31Z</time></trkpt><trkpt lat="44.1421917" lon="11.1694967"><ele>733.7142857142858</ele><time>2026-03-29T09:39:04.308Z</time></trkpt><trkpt lat="44.142175" lon="11.1694017"><ele>732.8571428571429</ele><time>2026-03-29T09:39:05.308Z</time></trkpt><trkpt lat="44.1421533" lon="11.169305"><ele>732.0</ele><time>2026-03-29T09:39:06.313Z</time></trkpt><trkpt lat="44.1421267" lon="11.1692117"><ele>732.0</ele><time>2026-03-29T09:39:07.31Z</time></trkpt><trkpt lat="44.14209" lon="11.169125"><ele>732.0</ele><time>2026-03-29T09:39:08.31Z</time></trkpt><trkpt lat="44.1420483" lon="11.1690383"><ele>732.0</ele><time>2026-03-29T09:39:09.311Z</time></trkpt><trkpt lat="44.1420117" lon="11.168945"><ele>732.0</ele><time>2026-03-29T09:39:10.308Z</time></trkpt><trkpt lat="44.1419733" lon="11.1688467"><ele>732.0</ele><time>2026-03-29T09:39:11.309Z</time></trkpt><trkpt lat="44.1419333" lon="11.168745"><ele>732.0</ele><time>2026-03-29T09:39:12.31Z</time></trkpt><trkpt lat="44.1418867" lon="11.1686417"><ele>730.6666666666666</ele><time>2026-03-29T09:39:13.309Z</time></trkpt><trkpt lat="44.1418417" lon="11.1685383"><ele>729.3333333333334</ele><time>2026-03-29T09:39:14.31Z</time></trkpt><trkpt lat="44.1417933" lon="11.168435"><ele>728.0</ele><time>2026-03-29T09:39:15.309Z</time></trkpt><trkpt lat="44.1417483" lon="11.1683317"><ele>726.6666666666667</ele><time>2026-03-29T09:39:16.309Z</time></trkpt><trkpt lat="44.1417067" lon="11.1682317"><ele>725.3333333333334</ele><time>2026-03-29T09:39:17.31Z</time></trkpt><trkpt lat="44.14166" lon="11.1681333"><ele>724.0</ele><time>2026-03-29T09:39:18.309Z</time></trkpt><trkpt lat="44.1416167" lon="11.1680417"><ele>723.3333333333334</ele><time>2026-03-29T09:39:19.312Z</time></trkpt><trkpt lat="44.1415733" lon="11.1679583"><ele>722.6666666666667</ele><time>2026-03-29T09:39:20.31Z</time></trkpt><trkpt lat="44.14153" lon="11.1678817"><ele>722.0</ele><time>2026-03-29T09:39:21.31Z</time></trkpt><trkpt lat="44.1414833" lon="11.1678083"><ele>721.3333333333334</ele><time>2026-03-29T09:39:22.308Z</time></trkpt><trkpt lat="44.1414217" lon="11.1677467"><ele>720.6666666666666</ele><time>2026-03-29T09:39:23.309Z</time></trkpt><trkpt lat="44.1413517" lon="11.1676967"><ele>720.0</ele><time>2026-03-29T09:39:24.31Z</time></trkpt><trkpt lat="44.1412717" lon="11.167665"><ele>720.0</ele><time>2026-03-29T09:39:25.309Z</time></trkpt><trkpt lat="44.14119" lon="11.1676367"><ele>720.0</ele><time>2026-03-29T09:39:26.309Z</time></trkpt><trkpt lat="44.1411117" lon="11.1675983"><ele>720.0</ele><time>2026-03-29T09:39:27.31Z</time></trkpt><trkpt lat="44.141035" lon="11.1675383"><ele>720.0</ele><time>2026-03-29T09:39:28.31Z</time></trkpt><trkpt lat="44.140965" lon="11.16747"><ele>720.0</ele><time>2026-03-29T09:39:29.31Z</time></trkpt><trkpt lat="44.140905" lon="11.1673983"><ele>720.0</ele><time>2026-03-29T09:39:30.308Z</time></trkpt><trkpt lat="44.1408533" lon="11.1673233"><ele>718.4</ele><time>2026-03-29T09:39:31.309Z</time></trkpt><trkpt lat="44.1408083" lon="11.16725"><ele>716.8</ele><time>2026-03-29T09:39:32.31Z</time></trkpt><trkpt lat="44.1407617" lon="11.1671183"><ele>715.2</ele><time>2026-03-29T09:39:34.308Z</time></trkpt><trkpt lat="44.1407733" lon="11.1669817"><ele>713.6</ele><time>2026-03-29T09:39:36.308Z</time></trkpt><trkpt lat="44.1408517" lon="11.16688"><ele>712.0</ele><time>2026-03-29T09:39:38.308Z</time></trkpt><trkpt lat="44.1409883" lon="11.1668567"><ele>712.0</ele><time>2026-03-29T09:39:40.309Z</time></trkpt><trkpt lat="44.1410717" lon="11.16687"><ele>712.0</ele><time>2026-03-29T09:39:41.308Z</time></trkpt><trkpt lat="44.1411567" lon="11.1668867"><ele>712.0</ele><time>2026-03-29T09:39:42.31Z</time></trkpt><trkpt lat="44.1412433" lon="11.1669033"><ele>712.0</ele><time>2026-03-29T09:39:43.309Z</time></trkpt><trkpt lat="44.14134" lon="11.166925"><ele>712.0</ele><time>2026-03-29T09:39:44.309Z</time></trkpt><trkpt lat="44.1414383" lon="11.1669483"><ele>712.0</ele><time>2026-03-29T09:39:45.311Z</time></trkpt><trkpt lat="44.1415383" lon="11.16697"><ele>712.0</ele><time>2026-03-29T09:39:46.309Z</time></trkpt><trkpt lat="44.141645" lon="11.1669933"><ele>712.0</ele><time>2026-03-29T09:39:47.311Z</time></trkpt><trkpt lat="44.141755" lon="11.167015"><ele>712.0</ele><time>2026-03-29T09:39:48.312Z</time></trkpt><trkpt lat="44.1418683" lon="11.1670383"><ele>712.0</ele><time>2026-03-29T09:39:49.311Z</time></trkpt><trkpt lat="44.1419817" lon="11.1670583"><ele>709.5</ele><time>2026-03-29T09:39:50.309Z</time></trkpt><trkpt lat="44.1420983" lon="11.1670833"><ele>707.0</ele><time>2026-03-29T09:39:51.309Z</time></trkpt><trkpt lat="44.1422183" lon="11.167115"><ele>704.5</ele><time>2026-03-29T09:39:52.309Z</time></trkpt><trkpt lat="44.1423333" lon="11.167155"><ele>702.0</ele><time>2026-03-29T09:39:53.31Z</time></trkpt><trkpt lat="44.14245" lon="11.1672083"><ele>703.5</ele><time>2026-03-29T09:39:54.31Z</time></trkpt><trkpt lat="44.14256" lon="11.1672667"><ele>705.0</ele><time>2026-03-29T09:39:55.309Z</time></trkpt><trkpt lat="44.14267" lon="11.1673283"><ele>706.5</ele><time>2026-03-29T09:39:56.311Z</time></trkpt><trkpt lat="44.1427783" lon="11.1673917"><ele>708.0</ele><time>2026-03-29T09:39:57.311Z</time></trkpt><trkpt lat="44.1428833" lon="11.1674567"><ele>708.0</ele><time>2026-03-29T09:39:58.31Z</time></trkpt><trkpt lat="44.14299" lon="11.1675267"><ele>708.0</ele><time>2026-03-29T09:39:59.309Z</time></trkpt><trkpt lat="44.1431" lon="11.1675933"><ele>708.0</ele><time>2026-03-29T09:40:00.31Z</time></trkpt><trkpt lat="44.143205" lon="11.1676617"><ele>708.0</ele><time>2026-03-29T09:40:01.311Z</time></trkpt><trkpt lat="44.1433117" lon="11.1677217"><ele>704.25</ele><time>2026-03-29T09:40:02.309Z</time></trkpt><trkpt lat="44.1434183" lon="11.16778"><ele>700.5</ele><time>2026-03-29T09:40:03.31Z</time></trkpt><trkpt lat="44.1435233" lon="11.1678383"><ele>696.75</ele><time>2026-03-29T09:40:04.31Z</time></trkpt><trkpt lat="44.1436283" lon="11.1678917"><ele>693.0</ele><time>2026-03-29T09:40:05.308Z</time></trkpt><trkpt lat="44.143735" lon="11.1679383"><ele>693.0</ele><time>2026-03-29T09:40:06.309Z</time></trkpt><trkpt lat="44.14384" lon="11.16798"><ele>693.0</ele><time>2026-03-29T09:40:07.309Z</time></trkpt><trkpt lat="44.1439383" lon="11.1680117"><ele>693.0</ele><time>2026-03-29T09:40:08.312Z</time></trkpt><trkpt lat="44.14404" lon="11.1680383"><ele>693.0</ele><time>2026-03-29T09:40:09.309Z</time></trkpt><trkpt lat="44.1441367" lon="11.1680717"><ele>693.0</ele><time>2026-03-29T09:40:10.309Z</time></trkpt><trkpt lat="44.1442333" lon="11.1681017"><ele>693.3333333333334</ele><time>2026-03-29T09:40:11.31Z</time></trkpt><trkpt lat="44.144325" lon="11.1681317"><ele>693.6666666666666</ele><time>2026-03-29T09:40:12.308Z</time></trkpt><trkpt lat="44.1444083" lon="11.1681567"><ele>694.0</ele><time>2026-03-29T09:40:13.31Z</time></trkpt><trkpt lat="44.1444883" lon="11.168175"><ele>694.3333333333333</ele><time>2026-03-29T09:40:14.308Z</time></trkpt><trkpt lat="44.1445667" lon="11.1681917"><ele>694.6666666666666</ele><time>2026-03-29T09:40:15.31Z</time></trkpt><trkpt lat="44.1446383" lon="11.168195"><ele>695.0</ele><time>2026-03-29T09:40:16.309Z</time></trkpt><trkpt lat="44.144705" lon="11.1681783"><ele>692.3333333333333</ele><time>2026-03-29T09:40:17.31Z</time></trkpt><trkpt lat="44.14477" lon="11.1681567"><ele>689.6666666666666</ele><time>2026-03-29T09:40:18.311Z</time></trkpt><trkpt lat="44.1448717" lon="11.1680833"><ele>687.0</ele><time>2026-03-29T09:40:20.309Z</time></trkpt><trkpt lat="44.1449033" lon="11.1679683"><ele>684.3333333333334</ele><time>2026-03-29T09:40:22.307Z</time></trkpt><trkpt lat="44.1448517" lon="11.1678417"><ele>681.6666666666667</ele><time>2026-03-29T09:40:24.31Z</time></trkpt><trkpt lat="44.1448" lon="11.167785"><ele>679.0</ele><time>2026-03-29T09:40:25.309Z</time></trkpt><trkpt lat="44.1447367" lon="11.1677367"><ele>679.0</ele><time>2026-03-29T09:40:26.31Z</time></trkpt><trkpt lat="44.14467" lon="11.1676917"><ele>679.0</ele><time>2026-03-29T09:40:27.31Z</time></trkpt><trkpt lat="44.144595" lon="11.1676433"><ele>679.0</ele><time>2026-03-29T09:40:28.312Z</time></trkpt><trkpt lat="44.144515" lon="11.1675917"><ele>679.0</ele><time>2026-03-29T09:40:29.31Z</time></trkpt><trkpt lat="44.1444333" lon="11.1675367"><ele>679.0</ele><time>2026-03-29T09:40:30.309Z</time></trkpt><trkpt lat="44.14435" lon="11.16748"><ele>679.0</ele><time>2026-03-29T09:40:31.31Z</time></trkpt><trkpt lat="44.144265" lon="11.16742"><ele>679.0</ele><time>2026-03-29T09:40:32.311Z</time></trkpt><trkpt lat="44.1441767" lon="11.1673583"><ele>679.0</ele><time>2026-03-29T09:40:33.309Z</time></trkpt><trkpt lat="44.14409" lon="11.1672933"><ele>679.0</ele><time>2026-03-29T09:40:34.309Z</time></trkpt><trkpt lat="44.1439967" lon="11.1672283"><ele>679.0</ele><time>2026-03-29T09:40:35.309Z</time></trkpt><trkpt lat="44.1439083" lon="11.167165"><ele>679.0</ele><time>2026-03-29T09:40:36.309Z</time></trkpt><trkpt lat="44.14382" lon="11.167105"><ele>679.0</ele><time>2026-03-29T09:40:37.311Z</time></trkpt><trkpt lat="44.1437317" lon="11.1670433"><ele>679.0</ele><time>2026-03-29T09:40:38.31Z</time></trkpt><trkpt lat="44.1436467" lon="11.1669783"><ele>679.0</ele><time>2026-03-29T09:40:39.311Z</time></trkpt><trkpt lat="44.143565" lon="11.1669117"><ele>679.0</ele><time>2026-03-29T09:40:40.312Z</time></trkpt><trkpt lat="44.1434867" lon="11.1668467"><ele>679.0</ele><time>2026-03-29T09:40:41.31Z</time></trkpt><trkpt lat="44.143415" lon="11.1667817"><ele>679.0</ele><time>2026-03-29T09:40:42.309Z</time></trkpt><trkpt lat="44.1433567" lon="11.16672"><ele>679.0</ele><time>2026-03-29T09:40:43.313Z</time></trkpt><trkpt lat="44.1433217" lon="11.1666467"><ele>679.0</ele><time>2026-03-29T09:40:44.311Z</time></trkpt><trkpt lat="44.1433133" lon="11.1664933"><ele>679.0</ele><time>2026-03-29T09:40:46.308Z</time></trkpt><trkpt lat="44.1433617" lon="11.16636"><ele>679.0</ele><time>2026-03-29T09:40:48.31Z</time></trkpt><trkpt lat="44.14341" lon="11.16623"><ele>678.0</ele><time>2026-03-29T09:40:50.308Z</time></trkpt><trkpt lat="44.143405" lon="11.1660617"><ele>677.0</ele><time>2026-03-29T09:40:52.308Z</time></trkpt><trkpt lat="44.14338" lon="11.1659767"><ele>676.0</ele><time>2026-03-29T09:40:53.309Z</time></trkpt><trkpt lat="44.143345" lon="11.1658917"><ele>675.0</ele><time>2026-03-29T09:40:54.309Z</time></trkpt><trkpt lat="44.1433067" lon="11.1658083"><ele>674.0</ele><time>2026-03-29T09:40:55.311Z</time></trkpt><trkpt lat="44.1432717" lon="11.16572"><ele>673.0</ele><time>2026-03-29T09:40:56.312Z</time></trkpt><trkpt lat="44.1432433" lon="11.16563"><ele>672.8571428571429</ele><time>2026-03-29T09:40:57.31Z</time></trkpt><trkpt lat="44.143215" lon="11.165535"><ele>672.7142857142857</ele><time>2026-03-29T09:40:58.308Z</time></trkpt><trkpt lat="44.1431917" lon="11.1654383"><ele>672.5714285714286</ele><time>2026-03-29T09:40:59.31Z</time></trkpt><trkpt lat="44.1431717" lon="11.16534"><ele>672.4285714285714</ele><time>2026-03-29T09:41:00.308Z</time></trkpt><trkpt lat="44.1431533" lon="11.1652433"><ele>672.2857142857142</ele><time>2026-03-29T09:41:01.309Z</time></trkpt><trkpt lat="44.1431317" lon="11.16515"><ele>672.1428571428571</ele><time>2026-03-29T09:41:02.309Z</time></trkpt><trkpt lat="44.143115" lon="11.1650583"><ele>672.0</ele><time>2026-03-29T09:41:03.31Z</time></trkpt><trkpt lat="44.1431017" lon="11.1649683"><ele>674.2</ele><time>2026-03-29T09:41:04.309Z</time></trkpt><trkpt lat="44.143095" lon="11.1648783"><ele>676.4000000000001</ele><time>2026-03-29T09:41:05.307Z</time></trkpt><trkpt lat="44.14309" lon="11.16479"><ele>678.5999999999999</ele><time>2026-03-29T09:41:06.309Z</time></trkpt><trkpt lat="44.1430883" lon="11.1646167"><ele>680.8</ele><time>2026-03-29T09:41:08.311Z</time></trkpt><trkpt lat="44.143095" lon="11.16445"><ele>683.0</ele><time>2026-03-29T09:41:10.309Z</time></trkpt><trkpt lat="44.1431" lon="11.1642983"><ele>683.8</ele><time>2026-03-29T09:41:12.31Z</time></trkpt><trkpt lat="44.1431017" lon="11.1641633"><ele>684.5999999999999</ele><time>2026-03-29T09:41:14.308Z</time></trkpt><trkpt lat="44.14311" lon="11.1640317"><ele>685.4000000000001</ele><time>2026-03-29T09:41:16.309Z</time></trkpt><trkpt lat="44.14312" lon="11.1639"><ele>686.2</ele><time>2026-03-29T09:41:18.31Z</time></trkpt><trkpt lat="44.143135" lon="11.1637767"><ele>687.0</ele><time>2026-03-29T09:41:20.309Z</time></trkpt><trkpt lat="44.143145" lon="11.1636517"><ele>687.0</ele><time>2026-03-29T09:41:22.309Z</time></trkpt><trkpt lat="44.14315" lon="11.1635267"><ele>687.0</ele><time>2026-03-29T09:41:24.311Z</time></trkpt><trkpt lat="44.1431533" lon="11.1633983"><ele>687.0</ele><time>2026-03-29T09:41:26.311Z</time></trkpt><trkpt lat="44.143155" lon="11.1632633"><ele>687.0</ele><time>2026-03-29T09:41:28.312Z</time></trkpt><trkpt lat="44.143165" lon="11.163125"><ele>687.0</ele><time>2026-03-29T09:41:30.312Z</time></trkpt><trkpt lat="44.1431717" lon="11.1629783"><ele>688.5</ele><time>2026-03-29T09:41:32.309Z</time></trkpt><trkpt lat="44.1431733" lon="11.1628267"><ele>690.0</ele><time>2026-03-29T09:41:34.312Z</time></trkpt><trkpt lat="44.1431867" lon="11.162675"><ele>691.5</ele><time>2026-03-29T09:41:36.311Z</time></trkpt><trkpt lat="44.143225" lon="11.1625183"><ele>693.0</ele><time>2026-03-29T09:41:38.309Z</time></trkpt><trkpt lat="44.1433033" lon="11.1623883"><ele>692.5</ele><time>2026-03-29T09:41:40.31Z</time></trkpt><trkpt lat="44.1434" lon="11.16229"><ele>692.0</ele><time>2026-03-29T09:41:42.311Z</time></trkpt><trkpt lat="44.14349" lon="11.1621983"><ele>691.5</ele><time>2026-03-29T09:41:44.312Z</time></trkpt><trkpt lat="44.143585" lon="11.1621183"><ele>691.0</ele><time>2026-03-29T09:41:46.312Z</time></trkpt><trkpt lat="44.143685" lon="11.162045"><ele>691.0</ele><time>2026-03-29T09:41:48.312Z</time></trkpt><trkpt lat="44.1437817" lon="11.161965"><ele>691.0</ele><time>2026-03-29T09:41:50.311Z</time></trkpt><trkpt lat="44.1438717" lon="11.161885"><ele>691.0</ele><time>2026-03-29T09:41:52.312Z</time></trkpt><trkpt lat="44.1439267" lon="11.1617783"><ele>691.0</ele><time>2026-03-29T09:41:54.311Z</time></trkpt><trkpt lat="44.1439583" lon="11.1616483"><ele>691.0</ele><time>2026-03-29T09:41:56.311Z</time></trkpt><trkpt lat="44.1439667" lon="11.161505"><ele>692.1999999999999</ele><time>2026-03-29T09:41:58.311Z</time></trkpt><trkpt lat="44.1439783" lon="11.1613583"><ele>693.4</ele><time>2026-03-29T09:42:00.312Z</time></trkpt><trkpt lat="44.144" lon="11.1612067"><ele>694.6</ele><time>2026-03-29T09:42:02.311Z</time></trkpt><trkpt lat="44.1440333" lon="11.1610633"><ele>695.8</ele><time>2026-03-29T09:42:04.311Z</time></trkpt><trkpt lat="44.1440767" lon="11.1609283"><ele>697.0</ele><time>2026-03-29T09:42:06.312Z</time></trkpt><trkpt lat="44.1441167" lon="11.1607983"><ele>693.2</ele><time>2026-03-29T09:42:08.312Z</time></trkpt><trkpt lat="44.144145" lon="11.1606717"><ele>689.4000000000001</ele><time>2026-03-29T09:42:10.313Z</time></trkpt><trkpt lat="44.1441667" lon="11.1605467"><ele>685.5999999999999</ele><time>2026-03-29T09:42:12.311Z</time></trkpt><trkpt lat="44.14417" lon="11.1604133"><ele>681.8</ele><time>2026-03-29T09:42:14.31Z</time></trkpt><trkpt lat="44.1441383" lon="11.160295"><ele>678.0</ele><time>2026-03-29T09:42:16.311Z</time></trkpt><trkpt lat="44.1440683" lon="11.160195"><ele>680.8</ele><time>2026-03-29T09:42:18.314Z</time></trkpt><trkpt lat="44.143975" lon="11.160135"><ele>683.5999999999999</ele><time>2026-03-29T09:42:20.312Z</time></trkpt><trkpt lat="44.143875" lon="11.1601033"><ele>686.4000000000001</ele><time>2026-03-29T09:42:22.312Z</time></trkpt><trkpt lat="44.14378" lon="11.160085"><ele>689.2</ele><time>2026-03-29T09:42:24.311Z</time></trkpt><trkpt lat="44.1436883" lon="11.1600617"><ele>692.0</ele><time>2026-03-29T09:42:26.315Z</time></trkpt><trkpt lat="44.1436" lon="11.160025"><ele>692.0</ele><time>2026-03-29T09:42:28.311Z</time></trkpt><trkpt lat="44.1435233" lon="11.1599633"><ele>692.0</ele><time>2026-03-29T09:42:30.312Z</time></trkpt><trkpt lat="44.1434717" lon="11.1598717"><ele>692.0</ele><time>2026-03-29T09:42:32.309Z</time></trkpt><trkpt lat="44.143425" lon="11.1597767"><ele>692.0</ele><time>2026-03-29T09:42:34.309Z</time></trkpt><trkpt lat="44.1433733" lon="11.159685"><ele>692.0</ele><time>2026-03-29T09:42:36.31Z</time></trkpt><trkpt lat="44.1433333" lon="11.1595817"><ele>692.0</ele><time>2026-03-29T09:42:38.311Z</time></trkpt><trkpt lat="44.1432983" lon="11.1594767"><ele>692.3333333333333</ele><time>2026-03-29T09:42:40.309Z</time></trkpt><trkpt lat="44.1432583" lon="11.1593767"><ele>692.6666666666666</ele><time>2026-03-29T09:42:42.311Z</time></trkpt><trkpt lat="44.1432183" lon="11.1592783"><ele>693.0</ele><time>2026-03-29T09:42:44.311Z</time></trkpt><trkpt lat="44.1431717" lon="11.159175"><ele>693.3333333333334</ele><time>2026-03-29T09:42:46.309Z</time></trkpt><trkpt lat="44.143115" lon="11.159075"><ele>693.6666666666667</ele><time>2026-03-29T09:42:48.311Z</time></trkpt><trkpt lat="44.1430533" lon="11.1589917"><ele>694.0</ele><time>2026-03-29T09:42:50.309Z</time></trkpt><trkpt lat="44.142985" lon="11.1589217"><ele>692.8000000000001</ele><time>2026-03-29T09:42:52.31Z</time></trkpt><trkpt lat="44.1429117" lon="11.1588483"><ele>691.6</ele><time>2026-03-29T09:42:54.309Z</time></trkpt><trkpt lat="44.1428333" lon="11.1587717"><ele>690.4</ele><time>2026-03-29T09:42:56.311Z</time></trkpt><trkpt lat="44.1427633" lon="11.1586883"><ele>689.2</ele><time>2026-03-29T09:42:58.31Z</time></trkpt><trkpt lat="44.1426883" lon="11.1586017"><ele>688.0</ele><time>2026-03-29T09:43:00.31Z</time></trkpt><trkpt lat="44.1426083" lon="11.15852"><ele>688.0</ele><time>2026-03-29T09:43:02.311Z</time></trkpt><trkpt lat="44.1425283" lon="11.1584617"><ele>688.0</ele><time>2026-03-29T09:43:04.31Z</time></trkpt><trkpt lat="44.1424533" lon="11.15841"><ele>688.0</ele><time>2026-03-29T09:43:06.309Z</time></trkpt><trkpt lat="44.1423767" lon="11.1583517"><ele>688.0</ele><time>2026-03-29T09:43:08.308Z</time></trkpt><trkpt lat="44.1423083" lon="11.15828"><ele>688.0</ele><time>2026-03-29T09:43:10.31Z</time></trkpt><trkpt lat="44.1422467" lon="11.15819"><ele>688.0</ele><time>2026-03-29T09:43:12.309Z</time></trkpt><trkpt lat="44.1421917" lon="11.1580667"><ele>688.5999999999999</ele><time>2026-03-29T09:43:14.31Z</time></trkpt><trkpt lat="44.1421417" lon="11.1579167"><ele>689.1999999999999</ele><time>2026-03-29T09:43:16.31Z</time></trkpt><trkpt lat="44.1421133" lon="11.1578383"><ele>689.8</ele><time>2026-03-29T09:43:17.31Z</time></trkpt><trkpt lat="44.1420483" lon="11.15768"><ele>690.4</ele><time>2026-03-29T09:43:19.309Z</time></trkpt><trkpt lat="44.1420083" lon="11.1575917"><ele>691.0</ele><time>2026-03-29T09:43:20.31Z</time></trkpt><trkpt lat="44.1419683" lon="11.1574983"><ele>691.0</ele><time>2026-03-29T09:43:21.308Z</time></trkpt><trkpt lat="44.1419283" lon="11.1574"><ele>691.0</ele><time>2026-03-29T09:43:22.309Z</time></trkpt><trkpt lat="44.1418867" lon="11.1573"><ele>691.0</ele><time>2026-03-29T09:43:23.311Z</time></trkpt><trkpt lat="44.1418483" lon="11.1572017"><ele>691.0</ele><time>2026-03-29T09:43:24.31Z</time></trkpt><trkpt lat="44.141815" lon="11.1571"><ele>691.0</ele><time>2026-03-29T09:43:25.311Z</time></trkpt><trkpt lat="44.1417733" lon="11.1570083"><ele>691.0</ele><time>2026-03-29T09:43:26.31Z</time></trkpt><trkpt lat="44.1417333" lon="11.1569217"><ele>690.2857142857142</ele><time>2026-03-29T09:43:27.312Z</time></trkpt><trkpt lat="44.1417017" lon="11.15683"><ele>689.5714285714286</ele><time>2026-03-29T09:43:28.312Z</time></trkpt><trkpt lat="44.1416683" lon="11.1567283"><ele>688.8571428571429</ele><time>2026-03-29T09:43:29.311Z</time></trkpt><trkpt lat="44.141635" lon="11.1566367"><ele>688.1428571428571</ele><time>2026-03-29T09:43:30.31Z</time></trkpt><trkpt lat="44.1416083" lon="11.15655"><ele>687.4285714285714</ele><time>2026-03-29T09:43:31.309Z</time></trkpt><trkpt lat="44.14158" lon="11.1564583"><ele>686.7142857142857</ele><time>2026-03-29T09:43:32.311Z</time></trkpt><trkpt lat="44.1415533" lon="11.1563767"><ele>686.0</ele><time>2026-03-29T09:43:33.309Z</time></trkpt><trkpt lat="44.14153" lon="11.1562867"><ele>689.0</ele><time>2026-03-29T09:43:34.31Z</time></trkpt><trkpt lat="44.1415083" lon="11.1562033"><ele>692.0</ele><time>2026-03-29T09:43:35.309Z</time></trkpt><trkpt lat="44.1414683" lon="11.1560617"><ele>695.0</ele><time>2026-03-29T09:43:37.311Z</time></trkpt><trkpt lat="44.14144" lon="11.1559367"><ele>698.0</ele><time>2026-03-29T09:43:39.312Z</time></trkpt><trkpt lat="44.1414183" lon="11.15584"><ele>701.0</ele><time>2026-03-29T09:43:41.309Z</time></trkpt><trkpt lat="44.141405" lon="11.1557483"><ele>704.0</ele><time>2026-03-29T09:43:43.31Z</time></trkpt><trkpt lat="44.141385" lon="11.1556567"><ele>704.5</ele><time>2026-03-29T09:43:45.31Z</time></trkpt><trkpt lat="44.1413667" lon="11.15557"><ele>705.0</ele><time>2026-03-29T09:43:47.309Z</time></trkpt><trkpt lat="44.1413533" lon="11.1554567"><ele>705.5</ele><time>2026-03-29T09:43:50.311Z</time></trkpt><trkpt lat="44.141365" lon="11.1553467"><ele>706.0</ele><time>2026-03-29T09:43:53.31Z</time></trkpt><trkpt lat="44.141385" lon="11.15522"><ele>706.5</ele><time>2026-03-29T09:43:56.309Z</time></trkpt><trkpt lat="44.1414017" lon="11.1551133"><ele>707.0</ele><time>2026-03-29T09:43:58.307Z</time></trkpt><trkpt lat="44.1414167" lon="11.1550183"><ele>707.0</ele><time>2026-03-29T09:44:00.31Z</time></trkpt><trkpt lat="44.1414383" lon="11.1549133"><ele>707.0</ele><time>2026-03-29T09:44:02.308Z</time></trkpt><trkpt lat="44.14145" lon="11.154795"><ele>707.0</ele><time>2026-03-29T09:44:04.31Z</time></trkpt><trkpt lat="44.1414817" lon="11.1546783"><ele>707.0</ele><time>2026-03-29T09:44:06.308Z</time></trkpt><trkpt lat="44.14152" lon="11.154555"><ele>707.0</ele><time>2026-03-29T09:44:08.309Z</time></trkpt><trkpt lat="44.1415283" lon="11.1544417"><ele>707.0</ele><time>2026-03-29T09:44:10.31Z</time></trkpt><trkpt lat="44.1415283" lon="11.154325"><ele>708.0</ele><time>2026-03-29T09:44:12.311Z</time></trkpt><trkpt lat="44.1415183" lon="11.154235"><ele>709.0</ele><time>2026-03-29T09:44:14.308Z</time></trkpt><trkpt lat="44.14153" lon="11.15413"><ele>710.0</ele><time>2026-03-29T09:44:17.31Z</time></trkpt><trkpt lat="44.1415317" lon="11.15401"><ele>711.0</ele><time>2026-03-29T09:44:20.309Z</time></trkpt><trkpt lat="44.14155" lon="11.1539217"><ele>712.0</ele><time>2026-03-29T09:44:22.309Z</time></trkpt><trkpt lat="44.1415733" lon="11.15382"><ele>713.0</ele><time>2026-03-29T09:44:24.31Z</time></trkpt><trkpt lat="44.1415883" lon="11.1537133"><ele>714.0</ele><time>2026-03-29T09:44:26.309Z</time></trkpt><trkpt lat="44.1415917" lon="11.1536083"><ele>711.8571428571429</ele><time>2026-03-29T09:44:28.308Z</time></trkpt><trkpt lat="44.1415967" lon="11.15352"><ele>709.7142857142858</ele><time>2026-03-29T09:44:30.308Z</time></trkpt><trkpt lat="44.141575" lon="11.1534333"><ele>707.5714285714286</ele><time>2026-03-29T09:44:32.31Z</time></trkpt><trkpt lat="44.1415683" lon="11.1533233"><ele>705.4285714285714</ele><time>2026-03-29T09:44:34.309Z</time></trkpt><trkpt lat="44.141605" lon="11.15323"><ele>703.2857142857143</ele><time>2026-03-29T09:44:36.312Z</time></trkpt><trkpt lat="44.1416383" lon="11.1531267"><ele>701.1428571428571</ele><time>2026-03-29T09:44:38.308Z</time></trkpt><trkpt lat="44.1416667" lon="11.1530267"><ele>699.0</ele><time>2026-03-29T09:44:40.309Z</time></trkpt><trkpt lat="44.14167" lon="11.1529233"><ele>699.0</ele><time>2026-03-29T09:44:43.31Z</time></trkpt><trkpt lat="44.141605" lon="11.152855"><ele>699.0</ele><time>2026-03-29T09:44:46.31Z</time></trkpt><trkpt lat="44.1416167" lon="11.1527533"><ele>699.0</ele><time>2026-03-29T09:44:48.309Z</time></trkpt><trkpt lat="44.1416517" lon="11.1526367"><ele>699.0</ele><time>2026-03-29T09:44:50.31Z</time></trkpt><trkpt lat="44.14168" lon="11.1525267"><ele>699.0</ele><time>2026-03-29T09:44:52.309Z</time></trkpt><trkpt lat="44.14169" lon="11.152435"><ele>699.0</ele><time>2026-03-29T09:44:54.308Z</time></trkpt><trkpt lat="44.1416983" lon="11.152345"><ele>699.0</ele><time>2026-03-29T09:44:56.31Z</time></trkpt><trkpt lat="44.1417117" lon="11.1522417"><ele>699.0</ele><time>2026-03-29T09:44:58.311Z</time></trkpt><trkpt lat="44.1417067" lon="11.15215"><ele>699.0</ele><time>2026-03-29T09:45:00.31Z</time></trkpt><trkpt lat="44.1417017" lon="11.1520617"><ele>699.0</ele><time>2026-03-29T09:45:02.308Z</time></trkpt><trkpt lat="44.1417133" lon="11.1519367"><ele>699.0</ele><time>2026-03-29T09:45:05.308Z</time></trkpt><trkpt lat="44.14172" lon="11.1518367"><ele>699.0</ele><time>2026-03-29T09:45:07.31Z</time></trkpt><trkpt lat="44.141705" lon="11.1517233"><ele>699.0</ele><time>2026-03-29T09:45:09.31Z</time></trkpt><trkpt lat="44.1417183" lon="11.1516033"><ele>699.0</ele><time>2026-03-29T09:45:11.308Z</time></trkpt><trkpt lat="44.141725" lon="11.15146"><ele>699.0</ele><time>2026-03-29T09:45:13.31Z</time></trkpt><trkpt lat="44.1417233" lon="11.1513183"><ele>699.0</ele><time>2026-03-29T09:45:15.309Z</time></trkpt><trkpt lat="44.141735" lon="11.151165"><ele>699.0</ele><time>2026-03-29T09:45:17.309Z</time></trkpt><trkpt lat="44.1417567" lon="11.151025"><ele>700.6</ele><time>2026-03-29T09:45:19.307Z</time></trkpt><trkpt lat="44.1417967" lon="11.150905"><ele>702.2</ele><time>2026-03-29T09:45:21.309Z</time></trkpt><trkpt lat="44.1418567" lon="11.1507983"><ele>703.8000000000001</ele><time>2026-03-29T09:45:23.309Z</time></trkpt><trkpt lat="44.1419183" lon="11.15071"><ele>705.4000000000001</ele><time>2026-03-29T09:45:25.31Z</time></trkpt><trkpt lat="44.1419767" lon="11.1506217"><ele>707.0</ele><time>2026-03-29T09:45:27.309Z</time></trkpt><trkpt lat="44.1420317" lon="11.1505317"><ele>709.6666666666666</ele><time>2026-03-29T09:45:29.308Z</time></trkpt><trkpt lat="44.1420867" lon="11.150445"><ele>712.3333333333333</ele><time>2026-03-29T09:45:31.307Z</time></trkpt><trkpt lat="44.1421383" lon="11.15035"><ele>715.0</ele><time>2026-03-29T09:45:33.309Z</time></trkpt><trkpt lat="44.142185" lon="11.1502633"><ele>717.6666666666666</ele><time>2026-03-29T09:45:35.31Z</time></trkpt><trkpt lat="44.1422333" lon="11.150175"><ele>720.3333333333334</ele><time>2026-03-29T09:45:37.31Z</time></trkpt><trkpt lat="44.1422783" lon="11.1500767"><ele>723.0</ele><time>2026-03-29T09:45:39.308Z</time></trkpt><trkpt lat="44.14232" lon="11.1499683"><ele>722.3333333333334</ele><time>2026-03-29T09:45:41.308Z</time></trkpt><trkpt lat="44.1423617" lon="11.1498567"><ele>721.6666666666666</ele><time>2026-03-29T09:45:43.307Z</time></trkpt><trkpt lat="44.1424033" lon="11.1497483"><ele>721.0</ele><time>2026-03-29T09:45:45.31Z</time></trkpt><trkpt lat="44.1424367" lon="11.1496483"><ele>720.3333333333333</ele><time>2026-03-29T09:45:47.308Z</time></trkpt><trkpt lat="44.1424733" lon="11.1495483"><ele>719.6666666666666</ele><time>2026-03-29T09:45:49.31Z</time></trkpt><trkpt lat="44.14251" lon="11.1494417"><ele>719.0</ele><time>2026-03-29T09:45:51.309Z</time></trkpt><trkpt lat="44.1425467" lon="11.14933"><ele>719.8333333333333</ele><time>2026-03-29T09:45:53.308Z</time></trkpt><trkpt lat="44.1425767" lon="11.1492233"><ele>720.6666666666666</ele><time>2026-03-29T09:45:55.307Z</time></trkpt><trkpt lat="44.1425783" lon="11.1491083"><ele>721.5</ele><time>2026-03-29T09:45:57.309Z</time></trkpt><trkpt lat="44.142555" lon="11.1489967"><ele>722.3333333333334</ele><time>2026-03-29T09:45:59.308Z</time></trkpt><trkpt lat="44.1425117" lon="11.148895"><ele>723.1666666666667</ele><time>2026-03-29T09:46:01.308Z</time></trkpt><trkpt lat="44.142455" lon="11.1488067"><ele>724.0</ele><time>2026-03-29T09:46:03.308Z</time></trkpt><trkpt lat="44.1423783" lon="11.1487583"><ele>724.0</ele><time>2026-03-29T09:46:05.308Z</time></trkpt><trkpt lat="44.14229" lon="11.14874"><ele>724.0</ele><time>2026-03-29T09:46:07.307Z</time></trkpt><trkpt lat="44.1422" lon="11.1487483"><ele>724.0</ele><time>2026-03-29T09:46:09.308Z</time></trkpt><trkpt lat="44.1421167" lon="11.1487633"><ele>724.0</ele><time>2026-03-29T09:46:11.307Z</time></trkpt><trkpt lat="44.1420417" lon="11.1487833"><ele>724.0</ele><time>2026-03-29T09:46:13.308Z</time></trkpt><trkpt lat="44.1419667" lon="11.1487933"><ele>724.0</ele><time>2026-03-29T09:46:15.307Z</time></trkpt><trkpt lat="44.1418933" lon="11.1487733"><ele>724.0</ele><time>2026-03-29T09:46:17.309Z</time></trkpt><trkpt lat="44.141825" lon="11.14872"><ele>724.0</ele><time>2026-03-29T09:46:19.308Z</time></trkpt><trkpt lat="44.14178" lon="11.1486367"><ele>724.0</ele><time>2026-03-29T09:46:21.309Z</time></trkpt><trkpt lat="44.1417583" lon="11.1485417"><ele>724.0</ele><time>2026-03-29T09:46:23.31Z</time></trkpt><trkpt lat="44.1417667" lon="11.1484383"><ele>724.0</ele><time>2026-03-29T09:46:25.309Z</time></trkpt><trkpt lat="44.1418" lon="11.1483367"><ele>724.0</ele><time>2026-03-29T09:46:27.308Z</time></trkpt><trkpt lat="44.141855" lon="11.148245"><ele>728.6666666666667</ele><time>2026-03-29T09:46:29.307Z</time></trkpt><trkpt lat="44.141915" lon="11.14817"><ele>733.3333333333334</ele><time>2026-03-29T09:46:31.308Z</time></trkpt><trkpt lat="44.14197" lon="11.1480967"><ele>738.0</ele><time>2026-03-29T09:46:33.309Z</time></trkpt><trkpt lat="44.1420283" lon="11.1480133"><ele>742.6666666666666</ele><time>2026-03-29T09:46:35.31Z</time></trkpt><trkpt lat="44.1420867" lon="11.1479367"><ele>747.3333333333333</ele><time>2026-03-29T09:46:37.31Z</time></trkpt><trkpt lat="44.1421483" lon="11.1478583"><ele>752.0</ele><time>2026-03-29T09:46:39.309Z</time></trkpt><trkpt lat="44.142215" lon="11.147795"><ele>752.0</ele><time>2026-03-29T09:46:41.308Z</time></trkpt><trkpt lat="44.1422933" lon="11.1477417"><ele>752.0</ele><time>2026-03-29T09:46:43.309Z</time></trkpt><trkpt lat="44.1423767" lon="11.1476883"><ele>752.0</ele><time>2026-03-29T09:46:45.308Z</time></trkpt><trkpt lat="44.1424583" lon="11.147645"><ele>752.0</ele><time>2026-03-29T09:46:47.308Z</time></trkpt><trkpt lat="44.1425267" lon="11.1476067"><ele>752.0</ele><time>2026-03-29T09:46:49.307Z</time></trkpt><trkpt lat="44.1426067" lon="11.1475583"><ele>752.0</ele><time>2026-03-29T09:46:51.31Z</time></trkpt><trkpt lat="44.1426833" lon="11.1475117"><ele>750.0</ele><time>2026-03-29T09:46:53.308Z</time></trkpt><trkpt lat="44.1427617" lon="11.1474617"><ele>748.0</ele><time>2026-03-29T09:46:55.308Z</time></trkpt><trkpt lat="44.1428317" lon="11.1473967"><ele>746.0</ele><time>2026-03-29T09:46:57.309Z</time></trkpt><trkpt lat="44.1428917" lon="11.1473283"><ele>744.0</ele><time>2026-03-29T09:46:59.309Z</time></trkpt><trkpt lat="44.142945" lon="11.1472383"><ele>742.0</ele><time>2026-03-29T09:47:01.309Z</time></trkpt><trkpt lat="44.1429917" lon="11.1471333"><ele>740.0</ele><time>2026-03-29T09:47:03.309Z</time></trkpt><trkpt lat="44.14303" lon="11.1470267"><ele>740.0</ele><time>2026-03-29T09:47:05.31Z</time></trkpt><trkpt lat="44.1430633" lon="11.1469267"><ele>740.0</ele><time>2026-03-29T09:47:07.308Z</time></trkpt><trkpt lat="44.1430967" lon="11.1468233"><ele>740.0</ele><time>2026-03-29T09:47:09.306Z</time></trkpt><trkpt lat="44.1431233" lon="11.14672"><ele>740.0</ele><time>2026-03-29T09:47:11.308Z</time></trkpt><trkpt lat="44.143145" lon="11.1466183"><ele>740.0</ele><time>2026-03-29T09:47:13.308Z</time></trkpt><trkpt lat="44.1431733" lon="11.1465167"><ele>740.0</ele><time>2026-03-29T09:47:15.309Z</time></trkpt><trkpt lat="44.143195" lon="11.1463967"><ele>740.5</ele><time>2026-03-29T09:47:17.308Z</time></trkpt><trkpt lat="44.1432067" lon="11.1462867"><ele>741.0</ele><time>2026-03-29T09:47:19.309Z</time></trkpt><trkpt lat="44.1432133" lon="11.1461833"><ele>741.5</ele><time>2026-03-29T09:47:21.308Z</time></trkpt><trkpt lat="44.1432183" lon="11.14608"><ele>742.0</ele><time>2026-03-29T09:47:23.309Z</time></trkpt><trkpt lat="44.1432267" lon="11.1459667"><ele>742.5</ele><time>2026-03-29T09:47:25.309Z</time></trkpt><trkpt lat="44.1432583" lon="11.1458633"><ele>743.0</ele><time>2026-03-29T09:47:27.31Z</time></trkpt><trkpt lat="44.1432967" lon="11.1457533"><ele>739.8</ele><time>2026-03-29T09:47:29.308Z</time></trkpt><trkpt lat="44.143335" lon="11.1456367"><ele>736.5999999999999</ele><time>2026-03-29T09:47:31.308Z</time></trkpt><trkpt lat="44.143375" lon="11.1455183"><ele>733.4000000000001</ele><time>2026-03-29T09:47:33.308Z</time></trkpt><trkpt lat="44.14341" lon="11.1453967"><ele>730.2</ele><time>2026-03-29T09:47:35.31Z</time></trkpt><trkpt lat="44.143445" lon="11.1452833"><ele>727.0</ele><time>2026-03-29T09:47:37.309Z</time></trkpt><trkpt lat="44.14348" lon="11.1451733"><ele>727.0</ele><time>2026-03-29T09:47:39.31Z</time></trkpt><trkpt lat="44.1435167" lon="11.14507"><ele>727.0</ele><time>2026-03-29T09:47:41.309Z</time></trkpt><trkpt lat="44.1435467" lon="11.1449533"><ele>727.0</ele><time>2026-03-29T09:47:43.309Z</time></trkpt><trkpt lat="44.1435817" lon="11.144845"><ele>727.0</ele><time>2026-03-29T09:47:45.31Z</time></trkpt><trkpt lat="44.1436133" lon="11.1447367"><ele>727.0</ele><time>2026-03-29T09:47:47.308Z</time></trkpt><trkpt lat="44.1436367" lon="11.14463"><ele>727.0</ele><time>2026-03-29T09:47:49.309Z</time></trkpt><trkpt lat="44.143655" lon="11.144525"><ele>728.3333333333334</ele><time>2026-03-29T09:47:51.309Z</time></trkpt><trkpt lat="44.1436783" lon="11.1444217"><ele>729.6666666666667</ele><time>2026-03-29T09:47:53.311Z</time></trkpt><trkpt lat="44.1436967" lon="11.1443117"><ele>731.0</ele><time>2026-03-29T09:47:55.308Z</time></trkpt><trkpt lat="44.143715" lon="11.144205"><ele>732.3333333333334</ele><time>2026-03-29T09:47:57.308Z</time></trkpt><trkpt lat="44.1437367" lon="11.1441017"><ele>733.6666666666666</ele><time>2026-03-29T09:47:59.308Z</time></trkpt><trkpt lat="44.143765" lon="11.1440083"><ele>735.0</ele><time>2026-03-29T09:48:01.309Z</time></trkpt><trkpt lat="44.1437867" lon="11.143915"><ele>736.5</ele><time>2026-03-29T09:48:03.309Z</time></trkpt><trkpt lat="44.1438183" lon="11.1437917"><ele>738.0</ele><time>2026-03-29T09:48:06.311Z</time></trkpt><trkpt lat="44.14384" lon="11.1437"><ele>739.5</ele><time>2026-03-29T09:48:08.309Z</time></trkpt><trkpt lat="44.14386" lon="11.1436033"><ele>741.0</ele><time>2026-03-29T09:48:10.311Z</time></trkpt><trkpt lat="44.1438717" lon="11.1435083"><ele>742.5</ele><time>2026-03-29T09:48:12.31Z</time></trkpt><trkpt lat="44.1438717" lon="11.143405"><ele>744.0</ele><time>2026-03-29T09:48:14.31Z</time></trkpt><trkpt lat="44.1438717" lon="11.1433"><ele>745.4285714285714</ele><time>2026-03-29T09:48:16.31Z</time></trkpt><trkpt lat="44.1438683" lon="11.143195"><ele>746.8571428571429</ele><time>2026-03-29T09:48:18.311Z</time></trkpt><trkpt lat="44.14386" lon="11.1431017"><ele>748.2857142857142</ele><time>2026-03-29T09:48:20.31Z</time></trkpt><trkpt lat="44.143845" lon="11.1430083"><ele>749.7142857142858</ele><time>2026-03-29T09:48:22.308Z</time></trkpt><trkpt lat="44.14384" lon="11.1428783"><ele>751.1428571428571</ele><time>2026-03-29T09:48:25.31Z</time></trkpt><trkpt lat="44.14383" lon="11.142785"><ele>752.5714285714286</ele><time>2026-03-29T09:48:27.308Z</time></trkpt><trkpt lat="44.1438267" lon="11.1426933"><ele>754.0</ele><time>2026-03-29T09:48:29.307Z</time></trkpt><trkpt lat="44.1438117" lon="11.1425917"><ele>754.0</ele><time>2026-03-29T09:48:31.308Z</time></trkpt><trkpt lat="44.1438083" lon="11.142485"><ele>754.0</ele><time>2026-03-29T09:48:33.309Z</time></trkpt><trkpt lat="44.1438167" lon="11.14237"><ele>754.0</ele><time>2026-03-29T09:48:35.309Z</time></trkpt><trkpt lat="44.143835" lon="11.14225"><ele>754.0</ele><time>2026-03-29T09:48:37.309Z</time></trkpt><trkpt lat="44.1438633" lon="11.14214"><ele>754.0</ele><time>2026-03-29T09:48:39.308Z</time></trkpt><trkpt lat="44.1438967" lon="11.1420383"><ele>754.0</ele><time>2026-03-29T09:48:41.308Z</time></trkpt><trkpt lat="44.1439267" lon="11.1419583"><ele>753.3333333333334</ele><time>2026-03-29T09:48:43.307Z</time></trkpt><trkpt lat="44.1439533" lon="11.1418717"><ele>752.6666666666667</ele><time>2026-03-29T09:48:45.308Z</time></trkpt><trkpt lat="44.1439867" lon="11.1417633"><ele>752.0</ele><time>2026-03-29T09:48:47.307Z</time></trkpt><trkpt lat="44.144035" lon="11.1416667"><ele>751.3333333333334</ele><time>2026-03-29T09:48:49.311Z</time></trkpt><trkpt lat="44.1441017" lon="11.1415817"><ele>750.6666666666666</ele><time>2026-03-29T09:48:51.309Z</time></trkpt><trkpt lat="44.1441717" lon="11.1415067"><ele>750.0</ele><time>2026-03-29T09:48:53.309Z</time></trkpt><trkpt lat="44.144245" lon="11.141415"><ele>750.0</ele><time>2026-03-29T09:48:55.309Z</time></trkpt><trkpt lat="44.1443167" lon="11.1413267"><ele>750.0</ele><time>2026-03-29T09:48:57.309Z</time></trkpt><trkpt lat="44.1443883" lon="11.1412467"><ele>750.0</ele><time>2026-03-29T09:48:59.31Z</time></trkpt><trkpt lat="44.144455" lon="11.1411667"><ele>750.0</ele><time>2026-03-29T09:49:01.309Z</time></trkpt><trkpt lat="44.14453" lon="11.1410867"><ele>750.0</ele><time>2026-03-29T09:49:03.309Z</time></trkpt><trkpt lat="44.1446033" lon="11.1410133"><ele>750.0</ele><time>2026-03-29T09:49:05.311Z</time></trkpt><trkpt lat="44.1446767" lon="11.14096"><ele>750.0</ele><time>2026-03-29T09:49:07.311Z</time></trkpt><trkpt lat="44.1447533" lon="11.1409067"><ele>750.0</ele><time>2026-03-29T09:49:09.309Z</time></trkpt><trkpt lat="44.14483" lon="11.14086"><ele>750.0</ele><time>2026-03-29T09:49:11.31Z</time></trkpt><trkpt lat="44.14491" lon="11.1407883"><ele>750.0</ele><time>2026-03-29T09:49:13.311Z</time></trkpt><trkpt lat="44.144975" lon="11.1407067"><ele>750.0</ele><time>2026-03-29T09:49:15.309Z</time></trkpt><trkpt lat="44.14502" lon="11.1406033"><ele>746.6</ele><time>2026-03-29T09:49:17.311Z</time></trkpt><trkpt lat="44.145035" lon="11.140475"><ele>743.2</ele><time>2026-03-29T09:49:19.311Z</time></trkpt><trkpt lat="44.1450167" lon="11.1403367"><ele>739.8</ele><time>2026-03-29T09:49:21.309Z</time></trkpt><trkpt lat="44.1449917" lon="11.1402067"><ele>736.4</ele><time>2026-03-29T09:49:23.309Z</time></trkpt><trkpt lat="44.1449717" lon="11.1400783"><ele>733.0</ele><time>2026-03-29T09:49:25.309Z</time></trkpt><trkpt lat="44.144965" lon="11.1399517"><ele>734.0</ele><time>2026-03-29T09:49:27.309Z</time></trkpt><trkpt lat="44.1449683" lon="11.1398183"><ele>735.0</ele><time>2026-03-29T09:49:29.312Z</time></trkpt><trkpt lat="44.1449883" lon="11.1396883"><ele>736.0</ele><time>2026-03-29T09:49:31.312Z</time></trkpt><trkpt lat="44.1450067" lon="11.13956"><ele>737.0</ele><time>2026-03-29T09:49:33.312Z</time></trkpt><trkpt lat="44.1450317" lon="11.1394283"><ele>738.0</ele><time>2026-03-29T09:49:35.312Z</time></trkpt><trkpt lat="44.1450617" lon="11.1393083"><ele>738.0</ele><time>2026-03-29T09:49:37.311Z</time></trkpt><trkpt lat="44.1450767" lon="11.1391917"><ele>738.0</ele><time>2026-03-29T09:49:39.313Z</time></trkpt><trkpt lat="44.1450883" lon="11.1390683"><ele>738.0</ele><time>2026-03-29T09:49:41.312Z</time></trkpt><trkpt lat="44.1450883" lon="11.1389433"><ele>738.0</ele><time>2026-03-29T09:49:43.311Z</time></trkpt><trkpt lat="44.1450867" lon="11.1388233"><ele>738.0</ele><time>2026-03-29T09:49:45.311Z</time></trkpt><trkpt lat="44.145085" lon="11.1386933"><ele>738.0</ele><time>2026-03-29T09:49:47.313Z</time></trkpt><trkpt lat="44.1450867" lon="11.13856"><ele>737.5999999999999</ele><time>2026-03-29T09:49:49.309Z</time></trkpt><trkpt lat="44.1450817" lon="11.138435"><ele>737.1999999999999</ele><time>2026-03-29T09:49:51.312Z</time></trkpt><trkpt lat="44.1450517" lon="11.13831"><ele>736.8</ele><time>2026-03-29T09:49:53.311Z</time></trkpt><trkpt lat="44.1450117" lon="11.1381933"><ele>736.4</ele><time>2026-03-29T09:49:55.311Z</time></trkpt><trkpt lat="44.1449667" lon="11.1380783"><ele>736.0</ele><time>2026-03-29T09:49:57.312Z</time></trkpt><trkpt lat="44.144915" lon="11.13796"><ele>745.0</ele><time>2026-03-29T09:49:59.313Z</time></trkpt><trkpt lat="44.144865" lon="11.1378433"><ele>754.0</ele><time>2026-03-29T09:50:01.311Z</time></trkpt><trkpt lat="44.1448283" lon="11.1377333"><ele>763.0</ele><time>2026-03-29T09:50:03.311Z</time></trkpt><trkpt lat="44.1448033" lon="11.1376117"><ele>772.0</ele><time>2026-03-29T09:50:05.311Z</time></trkpt><trkpt lat="44.144785" lon="11.1374833"><ele>781.0</ele><time>2026-03-29T09:50:07.311Z</time></trkpt><trkpt lat="44.144775" lon="11.1373533"><ele>781.0</ele><time>2026-03-29T09:50:09.312Z</time></trkpt><trkpt lat="44.1447683" lon="11.1372283"><ele>781.0</ele><time>2026-03-29T09:50:11.312Z</time></trkpt><trkpt lat="44.1447633" lon="11.1370983"><ele>781.0</ele><time>2026-03-29T09:50:13.312Z</time></trkpt><trkpt lat="44.1447567" lon="11.1369667"><ele>781.0</ele><time>2026-03-29T09:50:15.31Z</time></trkpt><trkpt lat="44.1447417" lon="11.1368317"><ele>781.0</ele><time>2026-03-29T09:50:17.311Z</time></trkpt><trkpt lat="44.144725" lon="11.1367033"><ele>781.0</ele><time>2026-03-29T09:50:19.311Z</time></trkpt><trkpt lat="44.1446983" lon="11.1365683"><ele>781.0</ele><time>2026-03-29T09:50:21.309Z</time></trkpt><trkpt lat="44.1446683" lon="11.1364417"><ele>781.0</ele><time>2026-03-29T09:50:23.309Z</time></trkpt><trkpt lat="44.1446517" lon="11.136315"><ele>781.0</ele><time>2026-03-29T09:50:25.309Z</time></trkpt><trkpt lat="44.1446367" lon="11.1361817"><ele>781.0</ele><time>2026-03-29T09:50:27.31Z</time></trkpt><trkpt lat="44.1446283" lon="11.1360483"><ele>781.1999999999999</ele><time>2026-03-29T09:50:29.308Z</time></trkpt><trkpt lat="44.14463" lon="11.135925"><ele>781.4</ele><time>2026-03-29T09:50:31.309Z</time></trkpt><trkpt lat="44.1446317" lon="11.135795"><ele>781.6</ele><time>2026-03-29T09:50:33.311Z</time></trkpt><trkpt lat="44.1446417" lon="11.1356633"><ele>781.8</ele><time>2026-03-29T09:50:35.309Z</time></trkpt><trkpt lat="44.144665" lon="11.135535"><ele>782.0</ele><time>2026-03-29T09:50:37.31Z</time></trkpt><trkpt lat="44.1446733" lon="11.1354067"><ele>782.0</ele><time>2026-03-29T09:50:39.309Z</time></trkpt><trkpt lat="44.1446783" lon="11.13528"><ele>782.0</ele><time>2026-03-29T09:50:41.308Z</time></trkpt><trkpt lat="44.1446917" lon="11.1351533"><ele>782.0</ele><time>2026-03-29T09:50:43.308Z</time></trkpt><trkpt lat="44.1447117" lon="11.1350233"><ele>782.0</ele><time>2026-03-29T09:50:45.308Z</time></trkpt><trkpt lat="44.144745" lon="11.13489"><ele>782.0</ele><time>2026-03-29T09:50:47.309Z</time></trkpt><trkpt lat="44.1447817" lon="11.1347583"><ele>782.0</ele><time>2026-03-29T09:50:49.309Z</time></trkpt><trkpt lat="44.1448233" lon="11.1346267"><ele>782.0</ele><time>2026-03-29T09:50:51.308Z</time></trkpt><trkpt lat="44.144855" lon="11.134485"><ele>782.0</ele><time>2026-03-29T09:50:53.31Z</time></trkpt><trkpt lat="44.144865" lon="11.1343567"><ele>782.0</ele><time>2026-03-29T09:50:55.308Z</time></trkpt><trkpt lat="44.1448617" lon="11.134225"><ele>782.0</ele><time>2026-03-29T09:50:57.31Z</time></trkpt><trkpt lat="44.144845" lon="11.134085"><ele>780.8</ele><time>2026-03-29T09:50:59.309Z</time></trkpt><trkpt lat="44.144805" lon="11.1339483"><ele>779.6</ele><time>2026-03-29T09:51:01.31Z</time></trkpt><trkpt lat="44.1447683" lon="11.1338083"><ele>778.4</ele><time>2026-03-29T09:51:03.31Z</time></trkpt><trkpt lat="44.1447233" lon="11.133675"><ele>777.1999999999999</ele><time>2026-03-29T09:51:05.31Z</time></trkpt><trkpt lat="44.14467" lon="11.13356"><ele>776.0</ele><time>2026-03-29T09:51:07.31Z</time></trkpt><trkpt lat="44.1446317" lon="11.1334417"><ele>776.0000000000001</ele><time>2026-03-29T09:51:09.31Z</time></trkpt><trkpt lat="44.1445983" lon="11.1333283"><ele>776.0</ele><time>2026-03-29T09:51:11.31Z</time></trkpt><trkpt lat="44.14456" lon="11.1332167"><ele>776.0</ele><time>2026-03-29T09:51:13.312Z</time></trkpt><trkpt lat="44.14454" lon="11.1330883"><ele>776.0</ele><time>2026-03-29T09:51:15.31Z</time></trkpt><trkpt lat="44.1445333" lon="11.132965"><ele>776.0000000000001</ele><time>2026-03-29T09:51:17.309Z</time></trkpt><trkpt lat="44.1445333" lon="11.1328417"><ele>776.0</ele><time>2026-03-29T09:51:19.31Z</time></trkpt><trkpt lat="44.1445433" lon="11.1327117"><ele>775.4</ele><time>2026-03-29T09:51:21.31Z</time></trkpt><trkpt lat="44.14456" lon="11.1325917"><ele>774.8</ele><time>2026-03-29T09:51:23.31Z</time></trkpt><trkpt lat="44.1445783" lon="11.1324683"><ele>774.1999999999999</ele><time>2026-03-29T09:51:25.309Z</time></trkpt><trkpt lat="44.1445817" lon="11.1323417"><ele>773.5999999999999</ele><time>2026-03-29T09:51:27.309Z</time></trkpt><trkpt lat="44.1445667" lon="11.132215"><ele>773.0</ele><time>2026-03-29T09:51:29.309Z</time></trkpt><trkpt lat="44.1445283" lon="11.1320867"><ele>770.0</ele><time>2026-03-29T09:51:31.311Z</time></trkpt><trkpt lat="44.1444733" lon="11.1319683"><ele>767.0</ele><time>2026-03-29T09:51:33.31Z</time></trkpt><trkpt lat="44.1444017" lon="11.13187"><ele>764.0</ele><time>2026-03-29T09:51:35.311Z</time></trkpt><trkpt lat="44.144315" lon="11.1317967"><ele>761.0</ele><time>2026-03-29T09:51:37.309Z</time></trkpt><trkpt lat="44.1442283" lon="11.1317267"><ele>758.0</ele><time>2026-03-29T09:51:39.31Z</time></trkpt><trkpt lat="44.1441367" lon="11.1316533"><ele>754.8</ele><time>2026-03-29T09:51:41.31Z</time></trkpt><trkpt lat="44.1440667" lon="11.1315533"><ele>751.5999999999999</ele><time>2026-03-29T09:51:43.31Z</time></trkpt><trkpt lat="44.1440117" lon="11.131445"><ele>748.4000000000001</ele><time>2026-03-29T09:51:45.309Z</time></trkpt><trkpt lat="44.1439667" lon="11.131335"><ele>745.2</ele><time>2026-03-29T09:51:47.312Z</time></trkpt><trkpt lat="44.1439183" lon="11.1312283"><ele>742.0</ele><time>2026-03-29T09:51:49.31Z</time></trkpt><trkpt lat="44.14386" lon="11.1311367"><ele>748.8</ele><time>2026-03-29T09:51:51.31Z</time></trkpt><trkpt lat="44.1437967" lon="11.1310417"><ele>755.6</ele><time>2026-03-29T09:51:53.311Z</time></trkpt><trkpt lat="44.1437483" lon="11.1309283"><ele>762.4</ele><time>2026-03-29T09:51:55.31Z</time></trkpt><trkpt lat="44.1437467" lon="11.1307917"><ele>769.1999999999999</ele><time>2026-03-29T09:51:57.31Z</time></trkpt><trkpt lat="44.1437633" lon="11.1306667"><ele>776.0</ele><time>2026-03-29T09:51:59.311Z</time></trkpt><trkpt lat="44.1437633" lon="11.1305383"><ele>776.0</ele><time>2026-03-29T09:52:01.309Z</time></trkpt><trkpt lat="44.1437617" lon="11.1304117"><ele>776.0</ele><time>2026-03-29T09:52:03.311Z</time></trkpt><trkpt lat="44.1437483" lon="11.1302967"><ele>776.0</ele><time>2026-03-29T09:52:05.309Z</time></trkpt><trkpt lat="44.14373" lon="11.1301783"><ele>776.0</ele><time>2026-03-29T09:52:07.309Z</time></trkpt><trkpt lat="44.1437017" lon="11.13005"><ele>776.0</ele><time>2026-03-29T09:52:09.311Z</time></trkpt><trkpt lat="44.1436683" lon="11.1299183"><ele>774.4</ele><time>2026-03-29T09:52:11.31Z</time></trkpt><trkpt lat="44.1436583" lon="11.1297933"><ele>772.8</ele><time>2026-03-29T09:52:13.31Z</time></trkpt><trkpt lat="44.14366" lon="11.1296717"><ele>771.1999999999999</ele><time>2026-03-29T09:52:15.312Z</time></trkpt><trkpt lat="44.143645" lon="11.1295467"><ele>769.5999999999999</ele><time>2026-03-29T09:52:17.31Z</time></trkpt><trkpt lat="44.1436233" lon="11.1294217"><ele>768.0</ele><time>2026-03-29T09:52:19.311Z</time></trkpt><trkpt lat="44.143595" lon="11.1293017"><ele>768.0</ele><time>2026-03-29T09:52:21.309Z</time></trkpt><trkpt lat="44.1435517" lon="11.1291983"><ele>768.0</ele><time>2026-03-29T09:52:23.309Z</time></trkpt><trkpt lat="44.1434883" lon="11.12911"><ele>768.0</ele><time>2026-03-29T09:52:25.308Z</time></trkpt><trkpt lat="44.1434133" lon="11.1290183"><ele>768.0</ele><time>2026-03-29T09:52:27.306Z</time></trkpt><trkpt lat="44.1433333" lon="11.12893"><ele>768.0</ele><time>2026-03-29T09:52:29.309Z</time></trkpt><trkpt lat="44.1432617" lon="11.1288367"><ele>771.5999999999999</ele><time>2026-03-29T09:52:31.309Z</time></trkpt><trkpt lat="44.1432017" lon="11.1287433"><ele>775.1999999999999</ele><time>2026-03-29T09:52:33.31Z</time></trkpt><trkpt lat="44.143155" lon="11.1286283"><ele>778.8</ele><time>2026-03-29T09:52:35.31Z</time></trkpt><trkpt lat="44.1431133" lon="11.1285083"><ele>782.4</ele><time>2026-03-29T09:52:37.311Z</time></trkpt><trkpt lat="44.14308" lon="11.1283817"><ele>786.0</ele><time>2026-03-29T09:52:39.309Z</time></trkpt><trkpt lat="44.1430433" lon="11.1282583"><ele>781.8</ele><time>2026-03-29T09:52:41.31Z</time></trkpt><trkpt lat="44.143005" lon="11.1281367"><ele>777.5999999999999</ele><time>2026-03-29T09:52:43.311Z</time></trkpt><trkpt lat="44.1429533" lon="11.1280217"><ele>773.4</ele><time>2026-03-29T09:52:45.31Z</time></trkpt><trkpt lat="44.1428883" lon="11.1279267"><ele>769.2</ele><time>2026-03-29T09:52:47.311Z</time></trkpt><trkpt lat="44.1428167" lon="11.1278367"><ele>765.0</ele><time>2026-03-29T09:52:49.311Z</time></trkpt><trkpt lat="44.1427333" lon="11.12776"><ele>765.0</ele><time>2026-03-29T09:52:51.311Z</time></trkpt><trkpt lat="44.1426517" lon="11.1276883"><ele>765.0</ele><time>2026-03-29T09:52:53.311Z</time></trkpt><trkpt lat="44.1425667" lon="11.1276267"><ele>765.0</ele><time>2026-03-29T09:52:55.311Z</time></trkpt><trkpt lat="44.1424767" lon="11.1275733"><ele>765.0</ele><time>2026-03-29T09:52:57.311Z</time></trkpt><trkpt lat="44.1423833" lon="11.12752"><ele>765.0</ele><time>2026-03-29T09:52:59.312Z</time></trkpt><trkpt lat="44.1423117" lon="11.1274283"><ele>768.8</ele><time>2026-03-29T09:53:01.311Z</time></trkpt><trkpt lat="44.1422567" lon="11.1273183"><ele>772.6</ele><time>2026-03-29T09:53:03.31Z</time></trkpt><trkpt lat="44.142205" lon="11.127205"><ele>776.4000000000001</ele><time>2026-03-29T09:53:05.309Z</time></trkpt><trkpt lat="44.1421633" lon="11.1270817"><ele>780.2</ele><time>2026-03-29T09:53:07.31Z</time></trkpt><trkpt lat="44.1421383" lon="11.12695"><ele>784.0</ele><time>2026-03-29T09:53:09.309Z</time></trkpt><trkpt lat="44.142115" lon="11.126825"><ele>784.0</ele><time>2026-03-29T09:53:11.311Z</time></trkpt><trkpt lat="44.1420867" lon="11.126705"><ele>784.0</ele><time>2026-03-29T09:53:13.309Z</time></trkpt><trkpt lat="44.14205" lon="11.1265917"><ele>784.0</ele><time>2026-03-29T09:53:15.311Z</time></trkpt><trkpt lat="44.141995" lon="11.1264967"><ele>784.0</ele><time>2026-03-29T09:53:17.31Z</time></trkpt><trkpt lat="44.1419267" lon="11.12641"><ele>784.0</ele><time>2026-03-29T09:53:19.31Z</time></trkpt><trkpt lat="44.141855" lon="11.12633"><ele>779.4000000000001</ele><time>2026-03-29T09:53:21.31Z</time></trkpt><trkpt lat="44.141785" lon="11.126245"><ele>774.8</ele><time>2026-03-29T09:53:23.31Z</time></trkpt><trkpt lat="44.1417" lon="11.1261733"><ele>770.2</ele><time>2026-03-29T09:53:25.31Z</time></trkpt><trkpt lat="44.141615" lon="11.1261"><ele>765.5999999999999</ele><time>2026-03-29T09:53:27.311Z</time></trkpt><trkpt lat="44.141525" lon="11.1260267"><ele>761.0</ele><time>2026-03-29T09:53:29.31Z</time></trkpt><trkpt lat="44.1414417" lon="11.12594"><ele>766.1999999999999</ele><time>2026-03-29T09:53:31.31Z</time></trkpt><trkpt lat="44.1413717" lon="11.1258317"><ele>771.4</ele><time>2026-03-29T09:53:33.31Z</time></trkpt><trkpt lat="44.1413167" lon="11.1257283"><ele>776.6</ele><time>2026-03-29T09:53:35.309Z</time></trkpt><trkpt lat="44.141265" lon="11.1256267"><ele>781.8</ele><time>2026-03-29T09:53:37.31Z</time></trkpt><trkpt lat="44.141225" lon="11.125515"><ele>787.0</ele><time>2026-03-29T09:53:39.309Z</time></trkpt><trkpt lat="44.141195" lon="11.1253983"><ele>786.9999999999999</ele><time>2026-03-29T09:53:41.309Z</time></trkpt><trkpt lat="44.1411767" lon="11.12528"><ele>787.0</ele><time>2026-03-29T09:53:43.31Z</time></trkpt><trkpt lat="44.1411617" lon="11.125165"><ele>787.0</ele><time>2026-03-29T09:53:45.309Z</time></trkpt><trkpt lat="44.141155" lon="11.125055"><ele>787.0</ele><time>2026-03-29T09:53:47.31Z</time></trkpt><trkpt lat="44.1411517" lon="11.124945"><ele>786.9999999999999</ele><time>2026-03-29T09:53:49.309Z</time></trkpt><trkpt lat="44.1411417" lon="11.1248367"><ele>787.0</ele><time>2026-03-29T09:53:51.311Z</time></trkpt><trkpt lat="44.1411167" lon="11.1247317"><ele>783.2</ele><time>2026-03-29T09:53:53.309Z</time></trkpt><trkpt lat="44.1410633" lon="11.1246317"><ele>779.4000000000001</ele><time>2026-03-29T09:53:55.309Z</time></trkpt><trkpt lat="44.1409967" lon="11.1245483"><ele>775.5999999999999</ele><time>2026-03-29T09:53:57.311Z</time></trkpt><trkpt lat="44.1409117" lon="11.1244883"><ele>771.8</ele><time>2026-03-29T09:53:59.311Z</time></trkpt><trkpt lat="44.1408267" lon="11.1244367"><ele>768.0</ele><time>2026-03-29T09:54:01.31Z</time></trkpt><trkpt lat="44.1407433" lon="11.124375"><ele>770.0</ele><time>2026-03-29T09:54:03.311Z</time></trkpt><trkpt lat="44.1406617" lon="11.12431"><ele>772.0</ele><time>2026-03-29T09:54:05.309Z</time></trkpt><trkpt lat="44.1405883" lon="11.124235"><ele>774.0</ele><time>2026-03-29T09:54:07.311Z</time></trkpt><trkpt lat="44.1405133" lon="11.1241567"><ele>776.0</ele><time>2026-03-29T09:54:09.31Z</time></trkpt><trkpt lat="44.1404617" lon="11.1240633"><ele>778.0</ele><time>2026-03-29T09:54:11.309Z</time></trkpt><trkpt lat="44.1404083" lon="11.1239733"><ele>780.0</ele><time>2026-03-29T09:54:13.309Z</time></trkpt><trkpt lat="44.1403633" lon="11.1238717"><ele>780.0</ele><time>2026-03-29T09:54:15.308Z</time></trkpt><trkpt lat="44.1403217" lon="11.12376"><ele>780.0</ele><time>2026-03-29T09:54:17.307Z</time></trkpt><trkpt lat="44.1402717" lon="11.123655"><ele>780.0</ele><time>2026-03-29T09:54:19.307Z</time></trkpt><trkpt lat="44.1402133" lon="11.1235517"><ele>780.0</ele><time>2026-03-29T09:54:21.308Z</time></trkpt><trkpt lat="44.1401483" lon="11.1234667"><ele>780.0</ele><time>2026-03-29T09:54:23.308Z</time></trkpt><trkpt lat="44.14007" lon="11.12339"><ele>780.0</ele><time>2026-03-29T09:54:25.308Z</time></trkpt><trkpt lat="44.1399867" lon="11.1233067"><ele>780.0</ele><time>2026-03-29T09:54:27.311Z</time></trkpt><trkpt lat="44.1398967" lon="11.1232383"><ele>780.0</ele><time>2026-03-29T09:54:29.31Z</time></trkpt><trkpt lat="44.139815" lon="11.1231733"><ele>780.0</ele><time>2026-03-29T09:54:31.31Z</time></trkpt><trkpt lat="44.13974" lon="11.1231167"><ele>780.0</ele><time>2026-03-29T09:54:33.309Z</time></trkpt><trkpt lat="44.13966" lon="11.1230633"><ele>779.0</ele><time>2026-03-29T09:54:35.31Z</time></trkpt><trkpt lat="44.1395783" lon="11.1230183"><ele>778.0</ele><time>2026-03-29T09:54:37.311Z</time></trkpt><trkpt lat="44.1394917" lon="11.1229683"><ele>777.0</ele><time>2026-03-29T09:54:39.311Z</time></trkpt><trkpt lat="44.1394133" lon="11.122925"><ele>776.0</ele><time>2026-03-29T09:54:41.309Z</time></trkpt><trkpt lat="44.1393233" lon="11.122875"><ele>775.0</ele><time>2026-03-29T09:54:43.311Z</time></trkpt><trkpt lat="44.1392417" lon="11.1228183"><ele>774.9999999999999</ele><time>2026-03-29T09:54:45.312Z</time></trkpt><trkpt lat="44.139155" lon="11.122765"><ele>775.0</ele><time>2026-03-29T09:54:47.31Z</time></trkpt><trkpt lat="44.1390683" lon="11.12272"><ele>775.0</ele><time>2026-03-29T09:54:49.31Z</time></trkpt><trkpt lat="44.138985" lon="11.1226767"><ele>775.0</ele><time>2026-03-29T09:54:51.309Z</time></trkpt><trkpt lat="44.1389183" lon="11.1226233"><ele>774.9999999999999</ele><time>2026-03-29T09:54:53.311Z</time></trkpt><trkpt lat="44.1388417" lon="11.1225833"><ele>775.0</ele><time>2026-03-29T09:54:55.31Z</time></trkpt><trkpt lat="44.1387633" lon="11.122555"><ele>775.4</ele><time>2026-03-29T09:54:57.309Z</time></trkpt><trkpt lat="44.1386833" lon="11.1225283"><ele>775.8</ele><time>2026-03-29T09:54:59.311Z</time></trkpt><trkpt lat="44.1386" lon="11.12251"><ele>776.2</ele><time>2026-03-29T09:55:01.309Z</time></trkpt><trkpt lat="44.1385133" lon="11.1224833"><ele>776.6</ele><time>2026-03-29T09:55:03.309Z</time></trkpt><trkpt lat="44.1384217" lon="11.1224467"><ele>777.0</ele><time>2026-03-29T09:55:05.309Z</time></trkpt><trkpt lat="44.1383267" lon="11.1223967"><ele>777.0</ele><time>2026-03-29T09:55:07.308Z</time></trkpt><trkpt lat="44.1382433" lon="11.1223367"><ele>777.0</ele><time>2026-03-29T09:55:09.309Z</time></trkpt><trkpt lat="44.13819" lon="11.12226"><ele>777.0</ele><time>2026-03-29T09:55:11.311Z</time></trkpt><trkpt lat="44.1381367" lon="11.1221767"><ele>777.0</ele><time>2026-03-29T09:55:13.309Z</time></trkpt><trkpt lat="44.1380883" lon="11.1220917"><ele>777.0</ele><time>2026-03-29T09:55:15.311Z</time></trkpt><trkpt lat="44.1380567" lon="11.1219983"><ele>777.0</ele><time>2026-03-29T09:55:17.31Z</time></trkpt><trkpt lat="44.138025" lon="11.1219017"><ele>779.8333333333334</ele><time>2026-03-29T09:55:19.311Z</time></trkpt><trkpt lat="44.1379767" lon="11.12181"><ele>782.6666666666667</ele><time>2026-03-29T09:55:21.309Z</time></trkpt><trkpt lat="44.1379383" lon="11.1217167"><ele>785.5</ele><time>2026-03-29T09:55:23.309Z</time></trkpt><trkpt lat="44.137915" lon="11.121615"><ele>788.3333333333334</ele><time>2026-03-29T09:55:25.311Z</time></trkpt><trkpt lat="44.13788" lon="11.1215233"><ele>791.1666666666667</ele><time>2026-03-29T09:55:27.309Z</time></trkpt><trkpt lat="44.1378467" lon="11.1214367"><ele>794.0</ele><time>2026-03-29T09:55:29.311Z</time></trkpt><trkpt lat="44.13781" lon="11.121355"><ele>794.0</ele><time>2026-03-29T09:55:31.31Z</time></trkpt><trkpt lat="44.137765" lon="11.121275"><ele>794.0</ele><time>2026-03-29T09:55:33.311Z</time></trkpt><trkpt lat="44.1377183" lon="11.1211917"><ele>794.0</ele><time>2026-03-29T09:55:35.309Z</time></trkpt><trkpt lat="44.1376817" lon="11.1211133"><ele>794.0</ele><time>2026-03-29T09:55:37.31Z</time></trkpt><trkpt lat="44.137645" lon="11.12103"><ele>794.0</ele><time>2026-03-29T09:55:39.312Z</time></trkpt><trkpt lat="44.1376167" lon="11.1209433"><ele>794.0</ele><time>2026-03-29T09:55:41.31Z</time></trkpt><trkpt lat="44.13757" lon="11.1208683"><ele>794.0</ele><time>2026-03-29T09:55:43.311Z</time></trkpt><trkpt lat="44.1375233" lon="11.1208017"><ele>794.0</ele><time>2026-03-29T09:55:45.309Z</time></trkpt><trkpt lat="44.137475" lon="11.12074"><ele>794.0</ele><time>2026-03-29T09:55:47.312Z</time></trkpt><trkpt lat="44.13742" lon="11.1206817"><ele>794.0</ele><time>2026-03-29T09:55:49.31Z</time></trkpt><trkpt lat="44.137365" lon="11.12063"><ele>794.0</ele><time>2026-03-29T09:55:51.309Z</time></trkpt><trkpt lat="44.1373" lon="11.1205767"><ele>794.0</ele><time>2026-03-29T09:55:53.308Z</time></trkpt><trkpt lat="44.1372367" lon="11.1205267"><ele>794.0</ele><time>2026-03-29T09:55:55.31Z</time></trkpt><trkpt lat="44.1371767" lon="11.1204833"><ele>794.0</ele><time>2026-03-29T09:55:57.308Z</time></trkpt><trkpt lat="44.1371117" lon="11.1204483"><ele>795.4285714285714</ele><time>2026-03-29T09:55:59.307Z</time></trkpt><trkpt lat="44.1370533" lon="11.1203967"><ele>796.8571428571429</ele><time>2026-03-29T09:56:01.31Z</time></trkpt><trkpt lat="44.1369867" lon="11.12035"><ele>798.2857142857142</ele><time>2026-03-29T09:56:03.31Z</time></trkpt><trkpt lat="44.13692" lon="11.1203033"><ele>799.7142857142858</ele><time>2026-03-29T09:56:05.311Z</time></trkpt><trkpt lat="44.1368533" lon="11.1202417"><ele>801.1428571428572</ele><time>2026-03-29T09:56:07.312Z</time></trkpt><trkpt lat="44.136795" lon="11.1201733"><ele>802.5714285714286</ele><time>2026-03-29T09:56:09.311Z</time></trkpt><trkpt lat="44.1367383" lon="11.1201117"><ele>804.0</ele><time>2026-03-29T09:56:11.313Z</time></trkpt><trkpt lat="44.1366883" lon="11.1200367"><ele>804.0</ele><time>2026-03-29T09:56:13.312Z</time></trkpt><trkpt lat="44.13664" lon="11.1199617"><ele>804.0</ele><time>2026-03-29T09:56:15.311Z</time></trkpt><trkpt lat="44.1365933" lon="11.1198817"><ele>804.0</ele><time>2026-03-29T09:56:17.311Z</time></trkpt><trkpt lat="44.136545" lon="11.1198033"><ele>804.0</ele><time>2026-03-29T09:56:19.31Z</time></trkpt><trkpt lat="44.13649" lon="11.11973"><ele>804.0</ele><time>2026-03-29T09:56:21.313Z</time></trkpt><trkpt lat="44.1364383" lon="11.1196567"><ele>804.0</ele><time>2026-03-29T09:56:23.311Z</time></trkpt><trkpt lat="44.1363933" lon="11.119585"><ele>804.0</ele><time>2026-03-29T09:56:25.31Z</time></trkpt><trkpt lat="44.1363367" lon="11.119525"><ele>802.4285714285714</ele><time>2026-03-29T09:56:27.309Z</time></trkpt><trkpt lat="44.13627" lon="11.1194983"><ele>800.8571428571429</ele><time>2026-03-29T09:56:29.313Z</time></trkpt><trkpt lat="44.1361967" lon="11.1194817"><ele>799.2857142857143</ele><time>2026-03-29T09:56:31.312Z</time></trkpt><trkpt lat="44.1361267" lon="11.1194833"><ele>797.7142857142858</ele><time>2026-03-29T09:56:33.311Z</time></trkpt><trkpt lat="44.136055" lon="11.1194967"><ele>796.1428571428571</ele><time>2026-03-29T09:56:35.311Z</time></trkpt><trkpt lat="44.1359867" lon="11.1195"><ele>794.5714285714287</ele><time>2026-03-29T09:56:37.31Z</time></trkpt><trkpt lat="44.135915" lon="11.1195117"><ele>793.0</ele><time>2026-03-29T09:56:39.31Z</time></trkpt><trkpt lat="44.1358417" lon="11.1195033"><ele>793.0000000000001</ele><time>2026-03-29T09:56:41.31Z</time></trkpt><trkpt lat="44.13577" lon="11.11949"><ele>793.0</ele><time>2026-03-29T09:56:43.311Z</time></trkpt><trkpt lat="44.1356967" lon="11.11947"><ele>793.0</ele><time>2026-03-29T09:56:45.31Z</time></trkpt><trkpt lat="44.135625" lon="11.1194467"><ele>793.0</ele><time>2026-03-29T09:56:47.311Z</time></trkpt><trkpt lat="44.1355567" lon="11.1194283"><ele>793.0</ele><time>2026-03-29T09:56:49.312Z</time></trkpt><trkpt lat="44.1354817" lon="11.1194167"><ele>793.0000000000001</ele><time>2026-03-29T09:56:51.309Z</time></trkpt><trkpt lat="44.13541" lon="11.1194133"><ele>793.0</ele><time>2026-03-29T09:56:53.309Z</time></trkpt><trkpt lat="44.1353417" lon="11.119405"><ele>794.4285714285714</ele><time>2026-03-29T09:56:55.312Z</time></trkpt><trkpt lat="44.1352767" lon="11.1194117"><ele>795.8571428571429</ele><time>2026-03-29T09:56:57.31Z</time></trkpt><trkpt lat="44.1352083" lon="11.11942"><ele>797.2857142857142</ele><time>2026-03-29T09:56:59.311Z</time></trkpt><trkpt lat="44.1351333" lon="11.1194217"><ele>798.7142857142858</ele><time>2026-03-29T09:57:01.313Z</time></trkpt><trkpt lat="44.1350567" lon="11.11941"><ele>800.1428571428571</ele><time>2026-03-29T09:57:03.31Z</time></trkpt><trkpt lat="44.1349783" lon="11.11938"><ele>801.5714285714286</ele><time>2026-03-29T09:57:05.311Z</time></trkpt><trkpt lat="44.134905" lon="11.1193533"><ele>803.0</ele><time>2026-03-29T09:57:07.312Z</time></trkpt><trkpt lat="44.1348367" lon="11.119315"><ele>801.5000000000001</ele><time>2026-03-29T09:57:09.31Z</time></trkpt><trkpt lat="44.134765" lon="11.119275"><ele>800.0</ele><time>2026-03-29T09:57:11.31Z</time></trkpt><trkpt lat="44.1347" lon="11.1192083"><ele>798.5</ele><time>2026-03-29T09:57:13.311Z</time></trkpt><trkpt lat="44.1346367" lon="11.1191317"><ele>797.0</ele><time>2026-03-29T09:57:15.31Z</time></trkpt><trkpt lat="44.1345633" lon="11.119065"><ele>795.5000000000001</ele><time>2026-03-29T09:57:17.31Z</time></trkpt><trkpt lat="44.13449" lon="11.1190117"><ele>794.0</ele><time>2026-03-29T09:57:19.312Z</time></trkpt><trkpt lat="44.1344217" lon="11.1189533"><ele>794.0000000000001</ele><time>2026-03-29T09:57:21.31Z</time></trkpt><trkpt lat="44.1343517" lon="11.1188967"><ele>794.0</ele><time>2026-03-29T09:57:23.31Z</time></trkpt><trkpt lat="44.1342717" lon="11.1188483"><ele>794.0</ele><time>2026-03-29T09:57:25.311Z</time></trkpt><trkpt lat="44.1341917" lon="11.1188017"><ele>794.0</ele><time>2026-03-29T09:57:27.31Z</time></trkpt><trkpt lat="44.1341183" lon="11.1187533"><ele>794.0000000000001</ele><time>2026-03-29T09:57:29.312Z</time></trkpt><trkpt lat="44.1340483" lon="11.11871"><ele>794.0</ele><time>2026-03-29T09:57:31.311Z</time></trkpt><trkpt lat="44.1339783" lon="11.11865"><ele>795.6666666666667</ele><time>2026-03-29T09:57:33.311Z</time></trkpt><trkpt lat="44.1339117" lon="11.1185867"><ele>797.3333333333334</ele><time>2026-03-29T09:57:35.314Z</time></trkpt><trkpt lat="44.1338417" lon="11.1185117"><ele>799.0</ele><time>2026-03-29T09:57:37.31Z</time></trkpt><trkpt lat="44.13377" lon="11.11843"><ele>800.6666666666667</ele><time>2026-03-29T09:57:39.31Z</time></trkpt><trkpt lat="44.1336967" lon="11.1183517"><ele>802.3333333333334</ele><time>2026-03-29T09:57:41.311Z</time></trkpt><trkpt lat="44.1336317" lon="11.1182733"><ele>804.0</ele><time>2026-03-29T09:57:43.312Z</time></trkpt><trkpt lat="44.13357" lon="11.1181883"><ele>804.0</ele><time>2026-03-29T09:57:45.31Z</time></trkpt><trkpt lat="44.13352" lon="11.1181017"><ele>804.0</ele><time>2026-03-29T09:57:47.31Z</time></trkpt><trkpt lat="44.1334633" lon="11.1180283"><ele>804.0</ele><time>2026-03-29T09:57:49.312Z</time></trkpt><trkpt lat="44.1334083" lon="11.11796"><ele>804.0</ele><time>2026-03-29T09:57:51.311Z</time></trkpt><trkpt lat="44.133355" lon="11.1178867"><ele>804.0</ele><time>2026-03-29T09:57:53.309Z</time></trkpt><trkpt lat="44.1333033" lon="11.117825"><ele>804.0</ele><time>2026-03-29T09:57:55.31Z</time></trkpt><trkpt lat="44.1332467" lon="11.1177717"><ele>804.0</ele><time>2026-03-29T09:57:57.31Z</time></trkpt><trkpt lat="44.13319" lon="11.117725"><ele>808.0</ele><time>2026-03-29T09:57:59.311Z</time></trkpt><trkpt lat="44.13313" lon="11.117665"><ele>812.0</ele><time>2026-03-29T09:58:01.313Z</time></trkpt><trkpt lat="44.1330683" lon="11.1176217"><ele>816.0</ele><time>2026-03-29T09:58:03.31Z</time></trkpt><trkpt lat="44.133005" lon="11.11757"><ele>820.0</ele><time>2026-03-29T09:58:05.31Z</time></trkpt><trkpt lat="44.1329367" lon="11.117535"><ele>824.0</ele><time>2026-03-29T09:58:07.311Z</time></trkpt><trkpt lat="44.13288" lon="11.1174883"><ele>828.0</ele><time>2026-03-29T09:58:09.311Z</time></trkpt><trkpt lat="44.132815" lon="11.117455"><ele>832.0</ele><time>2026-03-29T09:58:11.312Z</time></trkpt><trkpt lat="44.1327533" lon="11.1174317"><ele>830.0</ele><time>2026-03-29T09:58:13.311Z</time></trkpt><trkpt lat="44.1326917" lon="11.1173933"><ele>828.0</ele><time>2026-03-29T09:58:15.311Z</time></trkpt><trkpt lat="44.132625" lon="11.1173533"><ele>826.0</ele><time>2026-03-29T09:58:17.312Z</time></trkpt><trkpt lat="44.1325567" lon="11.11732"><ele>824.0</ele><time>2026-03-29T09:58:19.31Z</time></trkpt><trkpt lat="44.1324983" lon="11.11727"><ele>822.0</ele><time>2026-03-29T09:58:21.31Z</time></trkpt><trkpt lat="44.1324283" lon="11.1172267"><ele>820.0</ele><time>2026-03-29T09:58:23.31Z</time></trkpt><trkpt lat="44.1323533" lon="11.1171733"><ele>818.0</ele><time>2026-03-29T09:58:25.31Z</time></trkpt><trkpt lat="44.1322967" lon="11.117115"><ele>818.0</ele><time>2026-03-29T09:58:27.31Z</time></trkpt><trkpt lat="44.1322383" lon="11.117045"><ele>818.0</ele><time>2026-03-29T09:58:29.312Z</time></trkpt><trkpt lat="44.1321733" lon="11.1170017"><ele>818.0</ele><time>2026-03-29T09:58:31.313Z</time></trkpt><trkpt lat="44.1321" lon="11.1169733"><ele>818.0</ele><time>2026-03-29T09:58:33.31Z</time></trkpt><trkpt lat="44.1320317" lon="11.1169567"><ele>818.0</ele><time>2026-03-29T09:58:35.309Z</time></trkpt><trkpt lat="44.1319667" lon="11.116945"><ele>818.0</ele><time>2026-03-29T09:58:37.311Z</time></trkpt><trkpt lat="44.1318983" lon="11.116945"><ele>818.0</ele><time>2026-03-29T09:58:39.312Z</time></trkpt><trkpt lat="44.1318233" lon="11.1169467"><ele>818.0</ele><time>2026-03-29T09:58:41.31Z</time></trkpt><trkpt lat="44.13175" lon="11.1169483"><ele>818.0</ele><time>2026-03-29T09:58:43.309Z</time></trkpt><trkpt lat="44.13168" lon="11.1169633"><ele>818.0</ele><time>2026-03-29T09:58:45.308Z</time></trkpt><trkpt lat="44.1316133" lon="11.116985"><ele>818.0</ele><time>2026-03-29T09:58:47.309Z</time></trkpt><trkpt lat="44.1315517" lon="11.1170083"><ele>818.0</ele><time>2026-03-29T09:58:49.309Z</time></trkpt><trkpt lat="44.131495" lon="11.11707"><ele>818.0</ele><time>2026-03-29T09:58:51.31Z</time></trkpt><trkpt lat="44.1314383" lon="11.1171367"><ele>818.0</ele><time>2026-03-29T09:58:53.31Z</time></trkpt><trkpt lat="44.13138" lon="11.117205"><ele>820.1666666666667</ele><time>2026-03-29T09:58:55.31Z</time></trkpt><trkpt lat="44.1313167" lon="11.1172667"><ele>822.3333333333334</ele><time>2026-03-29T09:58:57.31Z</time></trkpt><trkpt lat="44.1312583" lon="11.117345"><ele>824.5</ele><time>2026-03-29T09:58:59.309Z</time></trkpt><trkpt lat="44.1312117" lon="11.1174383"><ele>826.6666666666667</ele><time>2026-03-29T09:59:01.309Z</time></trkpt><trkpt lat="44.1311617" lon="11.1175133"><ele>828.8333333333334</ele><time>2026-03-29T09:59:03.312Z</time></trkpt><trkpt lat="44.1311017" lon="11.1175683"><ele>831.0</ele><time>2026-03-29T09:59:05.31Z</time></trkpt><trkpt lat="44.1310417" lon="11.1176167"><ele>830.9999999999999</ele><time>2026-03-29T09:59:07.309Z</time></trkpt><trkpt lat="44.1309817" lon="11.11767"><ele>831.0</ele><time>2026-03-29T09:59:09.311Z</time></trkpt><trkpt lat="44.1309233" lon="11.1177317"><ele>831.0</ele><time>2026-03-29T09:59:11.312Z</time></trkpt><trkpt lat="44.1308633" lon="11.1177733"><ele>831.0</ele><time>2026-03-29T09:59:13.311Z</time></trkpt><trkpt lat="44.1308067" lon="11.1178167"><ele>831.0</ele><time>2026-03-29T09:59:15.31Z</time></trkpt><trkpt lat="44.1307417" lon="11.1178617"><ele>830.9999999999999</ele><time>2026-03-29T09:59:17.31Z</time></trkpt><trkpt lat="44.1306783" lon="11.1178983"><ele>831.0</ele><time>2026-03-29T09:59:19.312Z</time></trkpt><trkpt lat="44.1306167" lon="11.11794"><ele>830.7142857142857</ele><time>2026-03-29T09:59:21.313Z</time></trkpt><trkpt lat="44.130555" lon="11.11798"><ele>830.4285714285714</ele><time>2026-03-29T09:59:23.311Z</time></trkpt><trkpt lat="44.1304933" lon="11.1180267"><ele>830.1428571428571</ele><time>2026-03-29T09:59:25.31Z</time></trkpt><trkpt lat="44.1304267" lon="11.1180683"><ele>829.8571428571429</ele><time>2026-03-29T09:59:27.31Z</time></trkpt><trkpt lat="44.1303567" lon="11.1181083"><ele>829.5714285714286</ele><time>2026-03-29T09:59:29.312Z</time></trkpt><trkpt lat="44.130285" lon="11.1181383"><ele>829.2857142857142</ele><time>2026-03-29T09:59:31.311Z</time></trkpt><trkpt lat="44.1302067" lon="11.1181633"><ele>829.0</ele><time>2026-03-29T09:59:33.311Z</time></trkpt><trkpt lat="44.13012" lon="11.1181517"><ele>828.9999999999999</ele><time>2026-03-29T09:59:35.312Z</time></trkpt><trkpt lat="44.1300383" lon="11.1181283"><ele>829.0</ele><time>2026-03-29T09:59:37.312Z</time></trkpt><trkpt lat="44.1299567" lon="11.1180883"><ele>829.0</ele><time>2026-03-29T09:59:39.31Z</time></trkpt><trkpt lat="44.12988" lon="11.1180367"><ele>829.0</ele><time>2026-03-29T09:59:41.311Z</time></trkpt><trkpt lat="44.1298033" lon="11.117975"><ele>828.9999999999999</ele><time>2026-03-29T09:59:43.311Z</time></trkpt><trkpt lat="44.1297267" lon="11.1179117"><ele>829.0</ele><time>2026-03-29T09:59:45.309Z</time></trkpt><trkpt lat="44.1296533" lon="11.1178483"><ele>830.6</ele><time>2026-03-29T09:59:47.312Z</time></trkpt><trkpt lat="44.1295783" lon="11.1177933"><ele>832.2</ele><time>2026-03-29T09:59:49.31Z</time></trkpt><trkpt lat="44.1294933" lon="11.1177667"><ele>833.8000000000001</ele><time>2026-03-29T09:59:51.311Z</time></trkpt><trkpt lat="44.1293967" lon="11.1177667"><ele>835.4000000000001</ele><time>2026-03-29T09:59:53.311Z</time></trkpt><trkpt lat="44.129305" lon="11.1177883"><ele>837.0</ele><time>2026-03-29T09:59:55.312Z</time></trkpt><trkpt lat="44.129215" lon="11.117825"><ele>837.0</ele><time>2026-03-29T09:59:57.31Z</time></trkpt><trkpt lat="44.129125" lon="11.1178683"><ele>837.0</ele><time>2026-03-29T09:59:59.312Z</time></trkpt><trkpt lat="44.1290283" lon="11.1179033"><ele>837.0</ele><time>2026-03-29T10:00:01.311Z</time></trkpt><trkpt lat="44.1289283" lon="11.1178933"><ele>837.0</ele><time>2026-03-29T10:00:03.311Z</time></trkpt><trkpt lat="44.1288433" lon="11.1178433"><ele>837.0</ele><time>2026-03-29T10:00:05.311Z</time></trkpt><trkpt lat="44.1287733" lon="11.1178267"><ele>837.6666666666666</ele><time>2026-03-29T10:00:07.312Z</time></trkpt><trkpt lat="44.128705" lon="11.1178817"><ele>838.3333333333333</ele><time>2026-03-29T10:00:10.311Z</time></trkpt><trkpt lat="44.1286567" lon="11.1179667"><ele>839.0</ele><time>2026-03-29T10:00:14.312Z</time></trkpt><trkpt lat="44.128625" lon="11.118075"><ele>839.6666666666666</ele><time>2026-03-29T10:02:34.311Z</time></trkpt><trkpt lat="44.1285867" lon="11.1181767"><ele>840.3333333333333</ele><time>2026-03-29T10:02:37.311Z</time></trkpt><trkpt lat="44.128545" lon="11.1182733"><ele>841.0</ele><time>2026-03-29T10:02:40.31Z</time></trkpt><trkpt lat="44.12849" lon="11.118345"><ele>840.9999999999999</ele><time>2026-03-29T10:02:43.311Z</time></trkpt><trkpt lat="44.1284283" lon="11.1183733"><ele>841.0</ele><time>2026-03-29T10:02:47.311Z</time></trkpt><trkpt lat="44.128375" lon="11.1184633"><ele>841.0</ele><time>2026-03-29T10:04:46.311Z</time></trkpt><trkpt lat="44.1284333" lon="11.1184067"><ele>841.0</ele><time>2026-03-29T10:04:50.31Z</time></trkpt><trkpt lat="44.1284983" lon="11.1183083"><ele>840.9999999999999</ele><time>2026-03-29T10:04:53.309Z</time></trkpt><trkpt lat="44.12855" lon="11.1182133"><ele>841.0</ele><time>2026-03-29T10:04:55.309Z</time></trkpt><trkpt lat="44.12858" lon="11.1180967"><ele>840.9999999999999</ele><time>2026-03-29T10:04:57.309Z</time></trkpt><trkpt lat="44.1286167" lon="11.1179817"><ele>841.0</ele><time>2026-03-29T10:04:59.311Z</time></trkpt><trkpt lat="44.1286633" lon="11.1178967"><ele>841.0</ele><time>2026-03-29T10:05:01.309Z</time></trkpt><trkpt lat="44.1287183" lon="11.11781"><ele>841.0</ele><time>2026-03-29T10:05:04.31Z</time></trkpt><trkpt lat="44.1287283" lon="11.1176883"><ele>840.9999999999999</ele><time>2026-03-29T10:05:07.309Z</time></trkpt><trkpt lat="44.12872" lon="11.1175733"><ele>841.0</ele><time>2026-03-29T10:05:09.308Z</time></trkpt><trkpt lat="44.1287117" lon="11.117445"><ele>840.8</ele><time>2026-03-29T10:05:11.309Z</time></trkpt><trkpt lat="44.12871" lon="11.1173083"><ele>840.5999999999999</ele><time>2026-03-29T10:05:13.309Z</time></trkpt><trkpt lat="44.12872" lon="11.1171667"><ele>840.4</ele><time>2026-03-29T10:05:15.31Z</time></trkpt><trkpt lat="44.1287467" lon="11.1170133"><ele>840.2</ele><time>2026-03-29T10:05:17.31Z</time></trkpt><trkpt lat="44.1287967" lon="11.116865"><ele>840.0</ele><time>2026-03-29T10:05:19.309Z</time></trkpt><trkpt lat="44.128835" lon="11.1167917"><ele>840.0</ele><time>2026-03-29T10:05:20.31Z</time></trkpt><trkpt lat="44.1289233" lon="11.1166583"><ele>840.0</ele><time>2026-03-29T10:05:22.311Z</time></trkpt><trkpt lat="44.1289783" lon="11.1165933"><ele>840.0</ele><time>2026-03-29T10:05:23.308Z</time></trkpt><trkpt lat="44.1290367" lon="11.1165383"><ele>840.0</ele><time>2026-03-29T10:05:24.311Z</time></trkpt><trkpt lat="44.1290983" lon="11.1164933"><ele>840.0</ele><time>2026-03-29T10:05:25.311Z</time></trkpt><trkpt lat="44.1291633" lon="11.116455"><ele>840.0</ele><time>2026-03-29T10:05:26.311Z</time></trkpt><trkpt lat="44.1292317" lon="11.1164267"><ele>840.5714285714286</ele><time>2026-03-29T10:05:27.311Z</time></trkpt><trkpt lat="44.1293017" lon="11.1164067"><ele>841.1428571428571</ele><time>2026-03-29T10:05:28.311Z</time></trkpt><trkpt lat="44.12937" lon="11.1164"><ele>841.7142857142858</ele><time>2026-03-29T10:05:29.312Z</time></trkpt><trkpt lat="44.1294367" lon="11.116405"><ele>842.2857142857142</ele><time>2026-03-29T10:05:30.309Z</time></trkpt><trkpt lat="44.1295033" lon="11.1164217"><ele>842.8571428571429</ele><time>2026-03-29T10:05:31.311Z</time></trkpt><trkpt lat="44.1295683" lon="11.1164417"><ele>843.4285714285714</ele><time>2026-03-29T10:05:32.309Z</time></trkpt><trkpt lat="44.12963" lon="11.11647"><ele>844.0</ele><time>2026-03-29T10:05:33.309Z</time></trkpt><trkpt lat="44.12969" lon="11.1164983"><ele>844.0</ele><time>2026-03-29T10:05:34.309Z</time></trkpt><trkpt lat="44.1297933" lon="11.1165233"><ele>844.0</ele><time>2026-03-29T10:05:36.308Z</time></trkpt><trkpt lat="44.1298767" lon="11.1164583"><ele>844.0</ele><time>2026-03-29T10:05:38.31Z</time></trkpt><trkpt lat="44.1299383" lon="11.1163317"><ele>844.0</ele><time>2026-03-29T10:05:40.31Z</time></trkpt><trkpt lat="44.1299617" lon="11.1161833"><ele>844.0</ele><time>2026-03-29T10:05:42.312Z</time></trkpt><trkpt lat="44.129955" lon="11.1160433"><ele>845.6666666666666</ele><time>2026-03-29T10:05:44.312Z</time></trkpt><trkpt lat="44.1299417" lon="11.1159167"><ele>847.3333333333333</ele><time>2026-03-29T10:05:46.31Z</time></trkpt><trkpt lat="44.12992" lon="11.1157933"><ele>849.0</ele><time>2026-03-29T10:05:48.312Z</time></trkpt><trkpt lat="44.1298917" lon="11.11568"><ele>850.6666666666667</ele><time>2026-03-29T10:05:50.312Z</time></trkpt><trkpt lat="44.1298467" lon="11.1155733"><ele>852.3333333333334</ele><time>2026-03-29T10:05:52.312Z</time></trkpt><trkpt lat="44.1298017" lon="11.1154817"><ele>854.0</ele><time>2026-03-29T10:05:54.31Z</time></trkpt><trkpt lat="44.1297267" lon="11.1154217"><ele>854.0000000000001</ele><time>2026-03-29T10:05:56.31Z</time></trkpt><trkpt lat="44.1296467" lon="11.11536"><ele>854.0</ele><time>2026-03-29T10:05:58.311Z</time></trkpt><trkpt lat="44.1295683" lon="11.1153183"><ele>854.0</ele><time>2026-03-29T10:06:00.311Z</time></trkpt><trkpt lat="44.1294883" lon="11.115275"><ele>854.0</ele><time>2026-03-29T10:06:02.311Z</time></trkpt><trkpt lat="44.1294033" lon="11.1152633"><ele>854.0000000000001</ele><time>2026-03-29T10:06:04.309Z</time></trkpt><trkpt lat="44.1293083" lon="11.1152517"><ele>854.0</ele><time>2026-03-29T10:06:06.311Z</time></trkpt><trkpt lat="44.1292233" lon="11.1151967"><ele>854.0000000000001</ele><time>2026-03-29T10:06:08.311Z</time></trkpt><trkpt lat="44.129145" lon="11.115155"><ele>854.0</ele><time>2026-03-29T10:06:10.31Z</time></trkpt><trkpt lat="44.1290767" lon="11.1150917"><ele>854.0</ele><time>2026-03-29T10:06:12.31Z</time></trkpt><trkpt lat="44.1290133" lon="11.1150233"><ele>854.0</ele><time>2026-03-29T10:06:14.31Z</time></trkpt><trkpt lat="44.128955" lon="11.1149483"><ele>854.0000000000001</ele><time>2026-03-29T10:06:16.312Z</time></trkpt><trkpt lat="44.1289" lon="11.1148667"><ele>854.0</ele><time>2026-03-29T10:06:18.311Z</time></trkpt><trkpt lat="44.1288533" lon="11.114775"><ele>853.6666666666667</ele><time>2026-03-29T10:06:20.31Z</time></trkpt><trkpt lat="44.128815" lon="11.1146883"><ele>853.3333333333334</ele><time>2026-03-29T10:06:22.311Z</time></trkpt><trkpt lat="44.1287667" lon="11.1146267"><ele>853.0</ele><time>2026-03-29T10:06:24.311Z</time></trkpt><trkpt lat="44.12869" lon="11.11456"><ele>852.6666666666667</ele><time>2026-03-29T10:06:27.309Z</time></trkpt><trkpt lat="44.12863" lon="11.1144933"><ele>852.3333333333334</ele><time>2026-03-29T10:06:29.309Z</time></trkpt><trkpt lat="44.1285417" lon="11.1143817"><ele>852.0</ele><time>2026-03-29T10:06:31.308Z</time></trkpt><trkpt lat="44.1284917" lon="11.1143167"><ele>852.0</ele><time>2026-03-29T10:06:32.307Z</time></trkpt><trkpt lat="44.1284383" lon="11.1142417"><ele>852.0</ele><time>2026-03-29T10:06:33.308Z</time></trkpt><trkpt lat="44.1283817" lon="11.1141433"><ele>852.0</ele><time>2026-03-29T10:06:34.308Z</time></trkpt><trkpt lat="44.128325" lon="11.1140367"><ele>852.0</ele><time>2026-03-29T10:06:35.31Z</time></trkpt><trkpt lat="44.12827" lon="11.1139233"><ele>852.0</ele><time>2026-03-29T10:06:36.31Z</time></trkpt><trkpt lat="44.1282183" lon="11.1138"><ele>852.3333333333334</ele><time>2026-03-29T10:06:37.309Z</time></trkpt><trkpt lat="44.1281667" lon="11.1136817"><ele>852.6666666666667</ele><time>2026-03-29T10:06:38.31Z</time></trkpt><trkpt lat="44.1281183" lon="11.113575"><ele>853.0</ele><time>2026-03-29T10:06:39.31Z</time></trkpt><trkpt lat="44.128075" lon="11.1134717"><ele>853.3333333333334</ele><time>2026-03-29T10:06:40.308Z</time></trkpt><trkpt lat="44.1280383" lon="11.11338"><ele>853.6666666666667</ele><time>2026-03-29T10:06:41.31Z</time></trkpt><trkpt lat="44.1280117" lon="11.113295"><ele>854.0</ele><time>2026-03-29T10:06:42.309Z</time></trkpt><trkpt lat="44.1279383" lon="11.11316"><ele>854.0</ele><time>2026-03-29T10:06:44.31Z</time></trkpt><trkpt lat="44.1278417" lon="11.1131133"><ele>854.0000000000001</ele><time>2026-03-29T10:06:46.31Z</time></trkpt><trkpt lat="44.1277517" lon="11.11315"><ele>854.0000000000001</ele><time>2026-03-29T10:06:48.309Z</time></trkpt><trkpt lat="44.127645" lon="11.11321"><ele>854.0</ele><time>2026-03-29T10:06:50.311Z</time></trkpt><trkpt lat="44.12756" lon="11.1132667"><ele>854.0</ele><time>2026-03-29T10:06:52.31Z</time></trkpt><trkpt lat="44.1274683" lon="11.1133267"><ele>854.0</ele><time>2026-03-29T10:06:54.309Z</time></trkpt><trkpt lat="44.1274017" lon="11.1134333"><ele>854.0000000000001</ele><time>2026-03-29T10:06:56.31Z</time></trkpt><trkpt lat="44.1273383" lon="11.1135483"><ele>854.0000000000001</ele><time>2026-03-29T10:06:58.31Z</time></trkpt><trkpt lat="44.12728" lon="11.11365"><ele>854.0</ele><time>2026-03-29T10:07:00.309Z</time></trkpt><trkpt lat="44.1271983" lon="11.1136833"><ele>854.0</ele><time>2026-03-29T10:07:02.309Z</time></trkpt><trkpt lat="44.1271017" lon="11.1136833"><ele>853.5714285714286</ele><time>2026-03-29T10:07:04.309Z</time></trkpt><trkpt lat="44.127035" lon="11.1136683"><ele>853.1428571428571</ele><time>2026-03-29T10:07:05.31Z</time></trkpt><trkpt lat="44.1269733" lon="11.11364"><ele>852.7142857142858</ele><time>2026-03-29T10:07:06.309Z</time></trkpt><trkpt lat="44.1269183" lon="11.11359"><ele>852.2857142857142</ele><time>2026-03-29T10:07:07.31Z</time></trkpt><trkpt lat="44.126865" lon="11.1135333"><ele>851.8571428571429</ele><time>2026-03-29T10:07:08.309Z</time></trkpt><trkpt lat="44.1268183" lon="11.1134717"><ele>851.4285714285714</ele><time>2026-03-29T10:07:09.309Z</time></trkpt><trkpt lat="44.1267733" lon="11.1134067"><ele>851.0</ele><time>2026-03-29T10:07:10.309Z</time></trkpt><trkpt lat="44.1266767" lon="11.1132983"><ele>850.0</ele><time>2026-03-29T10:07:12.308Z</time></trkpt><trkpt lat="44.1265683" lon="11.1132283"><ele>849.0</ele><time>2026-03-29T10:07:14.31Z</time></trkpt><trkpt lat="44.126465" lon="11.1131917"><ele>848.0</ele><time>2026-03-29T10:07:16.309Z</time></trkpt><trkpt lat="44.12637" lon="11.1131517"><ele>847.0</ele><time>2026-03-29T10:07:18.309Z</time></trkpt><trkpt lat="44.1262717" lon="11.11315"><ele>846.0</ele><time>2026-03-29T10:07:20.31Z</time></trkpt><trkpt lat="44.1261917" lon="11.113105"><ele>846.0</ele><time>2026-03-29T10:07:22.309Z</time></trkpt><trkpt lat="44.1261417" lon="11.1130133"><ele>846.0</ele><time>2026-03-29T10:07:24.309Z</time></trkpt><trkpt lat="44.1261117" lon="11.1129033"><ele>846.0</ele><time>2026-03-29T10:07:26.308Z</time></trkpt><trkpt lat="44.1260983" lon="11.1127883"><ele>846.0</ele><time>2026-03-29T10:07:28.31Z</time></trkpt><trkpt lat="44.1260867" lon="11.1126817"><ele>846.0</ele><time>2026-03-29T10:07:30.308Z</time></trkpt><trkpt lat="44.126075" lon="11.1125783"><ele>846.0</ele><time>2026-03-29T10:07:32.308Z</time></trkpt><trkpt lat="44.1260717" lon="11.112465"><ele>846.8333333333334</ele><time>2026-03-29T10:07:34.31Z</time></trkpt><trkpt lat="44.1260767" lon="11.1123533"><ele>847.6666666666667</ele><time>2026-03-29T10:07:36.307Z</time></trkpt><trkpt lat="44.1260983" lon="11.11226"><ele>848.5</ele><time>2026-03-29T10:07:38.31Z</time></trkpt><trkpt lat="44.1261333" lon="11.11217"><ele>849.3333333333334</ele><time>2026-03-29T10:07:40.309Z</time></trkpt><trkpt lat="44.1261733" lon="11.112085"><ele>850.1666666666667</ele><time>2026-03-29T10:07:42.31Z</time></trkpt><trkpt lat="44.1262183" lon="11.112005"><ele>851.0</ele><time>2026-03-29T10:07:44.31Z</time></trkpt><trkpt lat="44.1262717" lon="11.11192"><ele>851.0</ele><time>2026-03-29T10:07:46.311Z</time></trkpt><trkpt lat="44.126325" lon="11.1118167"><ele>851.0</ele><time>2026-03-29T10:07:48.311Z</time></trkpt><trkpt lat="44.1263767" lon="11.1116967"><ele>851.0</ele><time>2026-03-29T10:07:50.311Z</time></trkpt><trkpt lat="44.126415" lon="11.111575"><ele>851.0</ele><time>2026-03-29T10:07:52.309Z</time></trkpt><trkpt lat="44.1264517" lon="11.11145"><ele>851.0</ele><time>2026-03-29T10:07:54.31Z</time></trkpt><trkpt lat="44.1264917" lon="11.1113267"><ele>852.4</ele><time>2026-03-29T10:07:56.309Z</time></trkpt><trkpt lat="44.126535" lon="11.1112083"><ele>853.8</ele><time>2026-03-29T10:07:58.31Z</time></trkpt><trkpt lat="44.1265867" lon="11.1110917"><ele>855.1999999999999</ele><time>2026-03-29T10:08:00.311Z</time></trkpt><trkpt lat="44.1266533" lon="11.1109783"><ele>856.5999999999999</ele><time>2026-03-29T10:08:02.309Z</time></trkpt><trkpt lat="44.12668" lon="11.1108717"><ele>858.0</ele><time>2026-03-29T10:08:04.311Z</time></trkpt><trkpt lat="44.1266317" lon="11.110795"><ele>858.1666666666666</ele><time>2026-03-29T10:08:06.309Z</time></trkpt><trkpt lat="44.126555" lon="11.11077"><ele>858.3333333333333</ele><time>2026-03-29T10:08:08.311Z</time></trkpt><trkpt lat="44.1264767" lon="11.1108033"><ele>858.5</ele><time>2026-03-29T10:08:10.309Z</time></trkpt><trkpt lat="44.1264033" lon="11.11081"><ele>858.6666666666666</ele><time>2026-03-29T10:08:14.31Z</time></trkpt><trkpt lat="44.1263283" lon="11.1108133"><ele>858.8333333333333</ele><time>2026-03-29T10:08:18.309Z</time></trkpt><trkpt lat="44.12623" lon="11.110805"><ele>859.0</ele><time>2026-03-29T10:08:21.312Z</time></trkpt><trkpt lat="44.1261433" lon="11.11079"><ele>859.0</ele><time>2026-03-29T10:08:23.313Z</time></trkpt><trkpt lat="44.1260617" lon="11.1107767"><ele>859.0000000000001</ele><time>2026-03-29T10:08:25.308Z</time></trkpt><trkpt lat="44.1259883" lon="11.1107533"><ele>859.0000000000001</ele><time>2026-03-29T10:08:27.31Z</time></trkpt><trkpt lat="44.1259083" lon="11.1107217"><ele>859.0</ele><time>2026-03-29T10:08:29.309Z</time></trkpt><trkpt lat="44.1258117" lon="11.1106733"><ele>859.0</ele><time>2026-03-29T10:08:31.31Z</time></trkpt><trkpt lat="44.1257267" lon="11.1105617"><ele>858.8571428571428</ele><time>2026-03-29T10:08:33.309Z</time></trkpt><trkpt lat="44.1257017" lon="11.1104717"><ele>858.7142857142857</ele><time>2026-03-29T10:08:34.309Z</time></trkpt><trkpt lat="44.1256867" lon="11.1103733"><ele>858.5714285714286</ele><time>2026-03-29T10:08:35.314Z</time></trkpt><trkpt lat="44.1256767" lon="11.1102783"><ele>858.4285714285713</ele><time>2026-03-29T10:08:36.309Z</time></trkpt><trkpt lat="44.125665" lon="11.11018"><ele>858.2857142857143</ele><time>2026-03-29T10:08:37.309Z</time></trkpt><trkpt lat="44.1256567" lon="11.110085"><ele>858.1428571428571</ele><time>2026-03-29T10:08:38.31Z</time></trkpt><trkpt lat="44.125645" lon="11.10999"><ele>858.0</ele><time>2026-03-29T10:08:39.31Z</time></trkpt><trkpt lat="44.1255917" lon="11.10985"><ele>858.0</ele><time>2026-03-29T10:08:41.311Z</time></trkpt><trkpt lat="44.1255117" lon="11.109775"><ele>858.0</ele><time>2026-03-29T10:08:43.309Z</time></trkpt><trkpt lat="44.1254167" lon="11.1097583"><ele>858.0</ele><time>2026-03-29T10:08:45.31Z</time></trkpt><trkpt lat="44.1253233" lon="11.10976"><ele>858.0</ele><time>2026-03-29T10:08:47.309Z</time></trkpt><trkpt lat="44.1252083" lon="11.1097533"><ele>858.0</ele><time>2026-03-29T10:08:49.31Z</time></trkpt><trkpt lat="44.12509" lon="11.1097233"><ele>858.0</ele><time>2026-03-29T10:08:51.311Z</time></trkpt><trkpt lat="44.1249733" lon="11.1097017"><ele>858.0</ele><time>2026-03-29T10:08:53.31Z</time></trkpt><trkpt lat="44.1248633" lon="11.1096917"><ele>858.0</ele><time>2026-03-29T10:08:55.311Z</time></trkpt><trkpt lat="44.1247567" lon="11.1096967"><ele>858.0</ele><time>2026-03-29T10:08:57.312Z</time></trkpt><trkpt lat="44.1246717" lon="11.10972"><ele>858.0</ele><time>2026-03-29T10:08:59.31Z</time></trkpt><trkpt lat="44.1245867" lon="11.1097317"><ele>856.5</ele><time>2026-03-29T10:09:01.31Z</time></trkpt><trkpt lat="44.12452" lon="11.1096967"><ele>855.0</ele><time>2026-03-29T10:09:03.31Z</time></trkpt><trkpt lat="44.12448" lon="11.1096017"><ele>853.5</ele><time>2026-03-29T10:09:05.312Z</time></trkpt><trkpt lat="44.1244433" lon="11.1095067"><ele>852.0</ele><time>2026-03-29T10:09:07.308Z</time></trkpt><trkpt lat="44.1243917" lon="11.109415"><ele>850.5</ele><time>2026-03-29T10:09:09.31Z</time></trkpt><trkpt lat="44.1243367" lon="11.1093367"><ele>849.0</ele><time>2026-03-29T10:09:11.311Z</time></trkpt><trkpt lat="44.1242883" lon="11.10924"><ele>849.0</ele><time>2026-03-29T10:09:13.31Z</time></trkpt><trkpt lat="44.1242467" lon="11.10912"><ele>849.0</ele><time>2026-03-29T10:09:15.311Z</time></trkpt><trkpt lat="44.1242183" lon="11.1089917"><ele>849.0</ele><time>2026-03-29T10:09:17.307Z</time></trkpt><trkpt lat="44.1242083" lon="11.108855"><ele>849.0</ele><time>2026-03-29T10:09:19.309Z</time></trkpt><trkpt lat="44.1241833" lon="11.1087283"><ele>849.0</ele><time>2026-03-29T10:09:21.31Z</time></trkpt><trkpt lat="44.1241267" lon="11.1086383"><ele>847.6</ele><time>2026-03-29T10:09:23.311Z</time></trkpt><trkpt lat="44.12405" lon="11.1085967"><ele>846.2</ele><time>2026-03-29T10:09:25.31Z</time></trkpt><trkpt lat="44.1239617" lon="11.1085933"><ele>844.8000000000001</ele><time>2026-03-29T10:09:27.311Z</time></trkpt><trkpt lat="44.1238767" lon="11.10857"><ele>843.4000000000001</ele><time>2026-03-29T10:09:29.313Z</time></trkpt><trkpt lat="44.1237917" lon="11.1084983"><ele>842.0</ele><time>2026-03-29T10:09:31.311Z</time></trkpt><trkpt lat="44.1237167" lon="11.108405"><ele>842.0</ele><time>2026-03-29T10:09:33.309Z</time></trkpt><trkpt lat="44.1236533" lon="11.1082683"><ele>842.0</ele><time>2026-03-29T10:09:35.312Z</time></trkpt><trkpt lat="44.12359" lon="11.1081417"><ele>842.0</ele><time>2026-03-29T10:09:37.312Z</time></trkpt><trkpt lat="44.1235583" lon="11.1079767"><ele>842.0</ele><time>2026-03-29T10:09:39.31Z</time></trkpt><trkpt lat="44.1235567" lon="11.1078833"><ele>842.0</ele><time>2026-03-29T10:09:40.309Z</time></trkpt><trkpt lat="44.1235683" lon="11.10779"><ele>841.8</ele><time>2026-03-29T10:09:41.311Z</time></trkpt><trkpt lat="44.1235867" lon="11.107705"><ele>841.6</ele><time>2026-03-29T10:09:42.31Z</time></trkpt><trkpt lat="44.1236317" lon="11.1075633"><ele>841.4</ele><time>2026-03-29T10:09:44.312Z</time></trkpt><trkpt lat="44.1236983" lon="11.10745"><ele>841.1999999999999</ele><time>2026-03-29T10:09:46.311Z</time></trkpt><trkpt lat="44.123765" lon="11.1073617"><ele>841.0</ele><time>2026-03-29T10:09:48.312Z</time></trkpt><trkpt lat="44.12379" lon="11.10724"><ele>841.8</ele><time>2026-03-29T10:09:50.312Z</time></trkpt><trkpt lat="44.1238017" lon="11.1071017"><ele>842.5999999999999</ele><time>2026-03-29T10:09:52.31Z</time></trkpt><trkpt lat="44.1237533" lon="11.1069717"><ele>843.4</ele><time>2026-03-29T10:09:54.311Z</time></trkpt><trkpt lat="44.12371" lon="11.10684"><ele>844.2</ele><time>2026-03-29T10:09:56.311Z</time></trkpt><trkpt lat="44.1236733" lon="11.1067117"><ele>845.0</ele><time>2026-03-29T10:09:58.311Z</time></trkpt><trkpt lat="44.1236517" lon="11.1065717"><ele>845.4</ele><time>2026-03-29T10:10:00.31Z</time></trkpt><trkpt lat="44.1236283" lon="11.106445"><ele>845.8</ele><time>2026-03-29T10:10:02.311Z</time></trkpt><trkpt lat="44.1236267" lon="11.1062867"><ele>846.2</ele><time>2026-03-29T10:10:04.311Z</time></trkpt><trkpt lat="44.123625" lon="11.1061167"><ele>846.6</ele><time>2026-03-29T10:10:06.311Z</time></trkpt><trkpt lat="44.12362" lon="11.1060283"><ele>847.0</ele><time>2026-03-29T10:10:07.311Z</time></trkpt><trkpt lat="44.1235983" lon="11.1058817"><ele>847.5</ele><time>2026-03-29T10:10:09.311Z</time></trkpt><trkpt lat="44.12355" lon="11.1057317"><ele>848.0</ele><time>2026-03-29T10:10:11.311Z</time></trkpt><trkpt lat="44.12347" lon="11.1056033"><ele>848.5</ele><time>2026-03-29T10:10:13.31Z</time></trkpt><trkpt lat="44.1234033" lon="11.1054583"><ele>849.0</ele><time>2026-03-29T10:10:15.31Z</time></trkpt><trkpt lat="44.1233417" lon="11.1053083"><ele>849.0</ele><time>2026-03-29T10:10:17.311Z</time></trkpt><trkpt lat="44.1232883" lon="11.105155"><ele>849.0</ele><time>2026-03-29T10:10:19.309Z</time></trkpt><trkpt lat="44.1232333" lon="11.1050117"><ele>849.0</ele><time>2026-03-29T10:10:21.31Z</time></trkpt><trkpt lat="44.1231783" lon="11.1048733"><ele>849.0</ele><time>2026-03-29T10:10:23.31Z</time></trkpt><trkpt lat="44.1231233" lon="11.1047367"><ele>848.2</ele><time>2026-03-29T10:10:25.31Z</time></trkpt><trkpt lat="44.1230733" lon="11.1046017"><ele>847.4000000000001</ele><time>2026-03-29T10:10:27.311Z</time></trkpt><trkpt lat="44.123035" lon="11.1044667"><ele>846.6</ele><time>2026-03-29T10:10:29.31Z</time></trkpt><trkpt lat="44.123025" lon="11.1043217"><ele>845.8</ele><time>2026-03-29T10:10:31.311Z</time></trkpt><trkpt lat="44.12302" lon="11.1041967"><ele>845.0</ele><time>2026-03-29T10:10:33.311Z</time></trkpt><trkpt lat="44.1229933" lon="11.1041067"><ele>848.25</ele><time>2026-03-29T10:10:35.31Z</time></trkpt><trkpt lat="44.12289" lon="11.1040367"><ele>851.5</ele><time>2026-03-29T10:10:37.311Z</time></trkpt><trkpt lat="44.12278" lon="11.1039867"><ele>854.75</ele><time>2026-03-29T10:10:39.313Z</time></trkpt><trkpt lat="44.1226833" lon="11.1039183"><ele>858.0</ele><time>2026-03-29T10:10:41.311Z</time></trkpt><trkpt lat="44.1226017" lon="11.1038"><ele>858.0</ele><time>2026-03-29T10:10:43.311Z</time></trkpt><trkpt lat="44.1225533" lon="11.1036967"><ele>858.0</ele><time>2026-03-29T10:10:45.312Z</time></trkpt><trkpt lat="44.1225283" lon="11.1035833"><ele>858.0</ele><time>2026-03-29T10:10:47.311Z</time></trkpt><trkpt lat="44.1225283" lon="11.1034683"><ele>858.0</ele><time>2026-03-29T10:10:49.31Z</time></trkpt><trkpt lat="44.1225367" lon="11.1033567"><ele>858.0</ele><time>2026-03-29T10:10:51.312Z</time></trkpt><trkpt lat="44.12251" lon="11.1032417"><ele>858.0</ele><time>2026-03-29T10:10:53.312Z</time></trkpt><trkpt lat="44.1224467" lon="11.103175"><ele>857.2</ele><time>2026-03-29T10:10:55.311Z</time></trkpt><trkpt lat="44.1223517" lon="11.1031983"><ele>856.4</ele><time>2026-03-29T10:10:58.31Z</time></trkpt><trkpt lat="44.1222717" lon="11.1032867"><ele>855.6000000000001</ele><time>2026-03-29T10:11:00.312Z</time></trkpt><trkpt lat="44.1221917" lon="11.1033383"><ele>854.8000000000001</ele><time>2026-03-29T10:11:02.311Z</time></trkpt><trkpt lat="44.1221" lon="11.1033717"><ele>854.0</ele><time>2026-03-29T10:11:04.312Z</time></trkpt><trkpt lat="44.1219883" lon="11.1034133"><ele>854.0</ele><time>2026-03-29T10:11:06.313Z</time></trkpt><trkpt lat="44.1218867" lon="11.103365"><ele>854.0000000000001</ele><time>2026-03-29T10:11:08.311Z</time></trkpt><trkpt lat="44.1217833" lon="11.1032967"><ele>854.0000000000001</ele><time>2026-03-29T10:11:10.311Z</time></trkpt><trkpt lat="44.121695" lon="11.1032167"><ele>854.0</ele><time>2026-03-29T10:11:12.312Z</time></trkpt><trkpt lat="44.1216283" lon="11.1031517"><ele>854.0</ele><time>2026-03-29T10:11:14.312Z</time></trkpt><trkpt lat="44.1215517" lon="11.1030867"><ele>856.3333333333334</ele><time>2026-03-29T10:11:17.311Z</time></trkpt><trkpt lat="44.1214683" lon="11.103075"><ele>858.6666666666667</ele><time>2026-03-29T10:11:20.311Z</time></trkpt><trkpt lat="44.1213967" lon="11.103045"><ele>861.0</ele><time>2026-03-29T10:11:23.311Z</time></trkpt><trkpt lat="44.12132" lon="11.1030683"><ele>863.3333333333333</ele><time>2026-03-29T10:11:26.31Z</time></trkpt><trkpt lat="44.1211983" lon="11.103065"><ele>865.6666666666666</ele><time>2026-03-29T10:11:28.31Z</time></trkpt><trkpt lat="44.1211117" lon="11.103045"><ele>868.0</ele><time>2026-03-29T10:11:29.309Z</time></trkpt><trkpt lat="44.1210317" lon="11.1030183"><ele>867.9999999999999</ele><time>2026-03-29T10:11:30.312Z</time></trkpt><trkpt lat="44.120955" lon="11.1029983"><ele>868.0</ele><time>2026-03-29T10:11:31.312Z</time></trkpt><trkpt lat="44.1208783" lon="11.1029483"><ele>868.0</ele><time>2026-03-29T10:11:32.311Z</time></trkpt><trkpt lat="44.1208083" lon="11.1028883"><ele>868.0</ele><time>2026-03-29T10:11:33.311Z</time></trkpt><trkpt lat="44.1207467" lon="11.102825"><ele>867.9999999999999</ele><time>2026-03-29T10:11:34.312Z</time></trkpt><trkpt lat="44.120695" lon="11.102755"><ele>868.0</ele><time>2026-03-29T10:11:35.311Z</time></trkpt><trkpt lat="44.1206517" lon="11.102685"><ele>868.2</ele><time>2026-03-29T10:11:36.311Z</time></trkpt><trkpt lat="44.1205883" lon="11.1025633"><ele>868.4</ele><time>2026-03-29T10:11:38.312Z</time></trkpt><trkpt lat="44.12052" lon="11.1024417"><ele>868.6000000000001</ele><time>2026-03-29T10:11:40.311Z</time></trkpt><trkpt lat="44.1204483" lon="11.1023417"><ele>868.8000000000001</ele><time>2026-03-29T10:11:42.311Z</time></trkpt><trkpt lat="44.1203733" lon="11.1022517"><ele>869.0</ele><time>2026-03-29T10:11:44.313Z</time></trkpt><trkpt lat="44.1202867" lon="11.10218"><ele>869.0</ele><time>2026-03-29T10:11:46.311Z</time></trkpt><trkpt lat="44.1202017" lon="11.1020767"><ele>869.0000000000001</ele><time>2026-03-29T10:11:48.312Z</time></trkpt><trkpt lat="44.12012" lon="11.1019583"><ele>869.0000000000001</ele><time>2026-03-29T10:11:50.312Z</time></trkpt><trkpt lat="44.1200533" lon="11.1018283"><ele>869.0</ele><time>2026-03-29T10:11:52.313Z</time></trkpt><trkpt lat="44.1199817" lon="11.1017383"><ele>869.0</ele><time>2026-03-29T10:11:54.311Z</time></trkpt><trkpt lat="44.1199067" lon="11.101685"><ele>868.2</ele><time>2026-03-29T10:11:56.311Z</time></trkpt><trkpt lat="44.1198333" lon="11.1016417"><ele>867.4000000000001</ele><time>2026-03-29T10:11:58.311Z</time></trkpt><trkpt lat="44.1197567" lon="11.101595"><ele>866.6</ele><time>2026-03-29T10:12:00.31Z</time></trkpt><trkpt lat="44.11968" lon="11.1015517"><ele>865.8</ele><time>2026-03-29T10:12:02.309Z</time></trkpt><trkpt lat="44.1195967" lon="11.1014733"><ele>865.0</ele><time>2026-03-29T10:12:04.31Z</time></trkpt><trkpt lat="44.119495" lon="11.1013767"><ele>865.0</ele><time>2026-03-29T10:12:06.31Z</time></trkpt><trkpt lat="44.119445" lon="11.10132"><ele>865.0</ele><time>2026-03-29T10:12:07.309Z</time></trkpt><trkpt lat="44.1193983" lon="11.1012583"><ele>865.0</ele><time>2026-03-29T10:12:08.31Z</time></trkpt><trkpt lat="44.11932" lon="11.1011367"><ele>865.0</ele><time>2026-03-29T10:12:10.309Z</time></trkpt><trkpt lat="44.1192833" lon="11.10106"><ele>865.0</ele><time>2026-03-29T10:12:11.31Z</time></trkpt><trkpt lat="44.1192467" lon="11.1009883"><ele>865.0</ele><time>2026-03-29T10:12:12.309Z</time></trkpt><trkpt lat="44.1192133" lon="11.1009033"><ele>865.0</ele><time>2026-03-29T10:12:13.31Z</time></trkpt><trkpt lat="44.1191733" lon="11.1008133"><ele>865.8</ele><time>2026-03-29T10:12:14.311Z</time></trkpt><trkpt lat="44.1191467" lon="11.1007283"><ele>866.6</ele><time>2026-03-29T10:12:15.309Z</time></trkpt><trkpt lat="44.1191233" lon="11.1006417"><ele>867.4000000000001</ele><time>2026-03-29T10:12:16.309Z</time></trkpt><trkpt lat="44.1190783" lon="11.1004783"><ele>868.2</ele><time>2026-03-29T10:12:18.31Z</time></trkpt><trkpt lat="44.1190417" lon="11.1003217"><ele>869.0</ele><time>2026-03-29T10:12:20.311Z</time></trkpt><trkpt lat="44.119015" lon="11.10018"><ele>869.4000000000001</ele><time>2026-03-29T10:12:22.309Z</time></trkpt><trkpt lat="44.1190033" lon="11.10002"><ele>869.8000000000001</ele><time>2026-03-29T10:12:24.31Z</time></trkpt><trkpt lat="44.1190017" lon="11.099875"><ele>870.1999999999999</ele><time>2026-03-29T10:12:26.311Z</time></trkpt><trkpt lat="44.119" lon="11.099735"><ele>870.5999999999999</ele><time>2026-03-29T10:12:28.31Z</time></trkpt><trkpt lat="44.118975" lon="11.099575"><ele>871.0</ele><time>2026-03-29T10:12:30.309Z</time></trkpt><trkpt lat="44.1189333" lon="11.0994133"><ele>871.0</ele><time>2026-03-29T10:12:32.309Z</time></trkpt><trkpt lat="44.1188867" lon="11.0992567"><ele>871.0</ele><time>2026-03-29T10:12:34.308Z</time></trkpt><trkpt lat="44.1188183" lon="11.0991183"><ele>871.0</ele><time>2026-03-29T10:12:36.31Z</time></trkpt><trkpt lat="44.118745" lon="11.0989917"><ele>871.0</ele><time>2026-03-29T10:12:38.311Z</time></trkpt><trkpt lat="44.1186817" lon="11.0988617"><ele>869.8</ele><time>2026-03-29T10:12:40.309Z</time></trkpt><trkpt lat="44.1186083" lon="11.0987433"><ele>868.5999999999999</ele><time>2026-03-29T10:12:42.311Z</time></trkpt><trkpt lat="44.118535" lon="11.0986533"><ele>867.4</ele><time>2026-03-29T10:12:44.312Z</time></trkpt><trkpt lat="44.1184517" lon="11.0985717"><ele>866.2</ele><time>2026-03-29T10:12:46.309Z</time></trkpt><trkpt lat="44.1183617" lon="11.0985067"><ele>865.0</ele><time>2026-03-29T10:12:48.31Z</time></trkpt><trkpt lat="44.11827" lon="11.0984433"><ele>865.4</ele><time>2026-03-29T10:12:50.312Z</time></trkpt><trkpt lat="44.1181783" lon="11.09837"><ele>865.8</ele><time>2026-03-29T10:12:52.309Z</time></trkpt><trkpt lat="44.1180717" lon="11.0982983"><ele>866.2</ele><time>2026-03-29T10:12:54.311Z</time></trkpt><trkpt lat="44.1179917" lon="11.09822"><ele>866.6</ele><time>2026-03-29T10:12:56.31Z</time></trkpt><trkpt lat="44.1179283" lon="11.09812"><ele>867.0</ele><time>2026-03-29T10:12:58.311Z</time></trkpt><trkpt lat="44.1178433" lon="11.0980317"><ele>867.0</ele><time>2026-03-29T10:13:00.308Z</time></trkpt><trkpt lat="44.1178167" lon="11.0978733"><ele>867.0</ele><time>2026-03-29T10:13:02.311Z</time></trkpt><trkpt lat="44.1177967" lon="11.0977233"><ele>867.0</ele><time>2026-03-29T10:13:04.309Z</time></trkpt><trkpt lat="44.11782" lon="11.0976033"><ele>867.0</ele><time>2026-03-29T10:13:06.308Z</time></trkpt><trkpt lat="44.117885" lon="11.0975433"><ele>867.0</ele><time>2026-03-29T10:13:08.307Z</time></trkpt><trkpt lat="44.11796" lon="11.0974933"><ele>867.0</ele><time>2026-03-29T10:13:10.309Z</time></trkpt><trkpt lat="44.1180167" lon="11.0974383"><ele>867.0</ele><time>2026-03-29T10:13:12.31Z</time></trkpt><trkpt lat="44.1180583" lon="11.0973717"><ele>867.0</ele><time>2026-03-29T10:13:14.309Z</time></trkpt><trkpt lat="44.1181" lon="11.097285"><ele>867.0</ele><time>2026-03-29T10:13:17.311Z</time></trkpt><trkpt lat="44.1181383" lon="11.0971967"><ele>867.0</ele><time>2026-03-29T10:13:19.31Z</time></trkpt><trkpt lat="44.1181733" lon="11.0970983"><ele>867.0</ele><time>2026-03-29T10:13:21.309Z</time></trkpt><trkpt lat="44.1182117" lon="11.0969917"><ele>867.0</ele><time>2026-03-29T10:13:23.308Z</time></trkpt><trkpt lat="44.1182583" lon="11.0968817"><ele>868.1666666666666</ele><time>2026-03-29T10:13:25.308Z</time></trkpt><trkpt lat="44.1183017" lon="11.0967817"><ele>869.3333333333333</ele><time>2026-03-29T10:13:27.309Z</time></trkpt><trkpt lat="44.118345" lon="11.0966783"><ele>870.5</ele><time>2026-03-29T10:13:29.31Z</time></trkpt><trkpt lat="44.118395" lon="11.0965733"><ele>871.6666666666666</ele><time>2026-03-29T10:13:31.308Z</time></trkpt><trkpt lat="44.1184517" lon="11.09647"><ele>872.8333333333333</ele><time>2026-03-29T10:13:33.309Z</time></trkpt><trkpt lat="44.11851" lon="11.0963733"><ele>874.0</ele><time>2026-03-29T10:13:35.309Z</time></trkpt><trkpt lat="44.1185617" lon="11.0962933"><ele>875.8333333333333</ele><time>2026-03-29T10:13:37.309Z</time></trkpt><trkpt lat="44.1186233" lon="11.0962333"><ele>877.6666666666666</ele><time>2026-03-29T10:13:39.309Z</time></trkpt><trkpt lat="44.1186917" lon="11.0961583"><ele>879.5</ele><time>2026-03-29T10:13:42.309Z</time></trkpt><trkpt lat="44.1187583" lon="11.0960983"><ele>881.3333333333333</ele><time>2026-03-29T10:13:45.309Z</time></trkpt><trkpt lat="44.1188167" lon="11.096045"><ele>883.1666666666666</ele><time>2026-03-29T10:13:48.309Z</time></trkpt><trkpt lat="44.11888" lon="11.096015"><ele>885.0</ele><time>2026-03-29T10:13:51.309Z</time></trkpt><trkpt lat="44.11895" lon="11.095975"><ele>885.0</ele><time>2026-03-29T10:13:54.31Z</time></trkpt><trkpt lat="44.1190167" lon="11.0959883"><ele>885.0</ele><time>2026-03-29T10:13:56.311Z</time></trkpt><trkpt lat="44.1191017" lon="11.0960067"><ele>885.0</ele><time>2026-03-29T10:13:59.311Z</time></trkpt><trkpt lat="44.11917" lon="11.0959817"><ele>885.0</ele><time>2026-03-29T10:14:02.309Z</time></trkpt><trkpt lat="44.119375" lon="11.0959783"><ele>885.0</ele><time>2026-03-29T10:14:11.31Z</time></trkpt><trkpt lat="44.1194417" lon="11.09593"><ele>885.1666666666666</ele><time>2026-03-29T10:14:14.309Z</time></trkpt><trkpt lat="44.1195017" lon="11.0958567"><ele>885.3333333333333</ele><time>2026-03-29T10:14:17.309Z</time></trkpt><trkpt lat="44.1195567" lon="11.095775"><ele>885.5</ele><time>2026-03-29T10:14:20.309Z</time></trkpt><trkpt lat="44.1196317" lon="11.0957183"><ele>885.6666666666666</ele><time>2026-03-29T10:14:23.311Z</time></trkpt><trkpt lat="44.1197067" lon="11.095675"><ele>885.8333333333333</ele><time>2026-03-29T10:14:26.31Z</time></trkpt><trkpt lat="44.1197883" lon="11.0956367"><ele>886.0</ele><time>2026-03-29T10:14:29.31Z</time></trkpt><trkpt lat="44.11986" lon="11.0956017"><ele>887.5714285714286</ele><time>2026-03-29T10:14:31.312Z</time></trkpt><trkpt lat="44.1199267" lon="11.0955667"><ele>889.1428571428571</ele><time>2026-03-29T10:14:33.312Z</time></trkpt><trkpt lat="44.1199883" lon="11.0955117"><ele>890.7142857142858</ele><time>2026-03-29T10:14:36.309Z</time></trkpt><trkpt lat="44.12004" lon="11.095455"><ele>892.2857142857142</ele><time>2026-03-29T10:14:39.31Z</time></trkpt><trkpt lat="44.1200933" lon="11.0953567"><ele>893.8571428571428</ele><time>2026-03-29T10:14:43.309Z</time></trkpt><trkpt lat="44.1201567" lon="11.09528"><ele>895.4285714285714</ele><time>2026-03-29T10:14:46.308Z</time></trkpt><trkpt lat="44.12019" lon="11.095205"><ele>897.0</ele><time>2026-03-29T10:14:49.31Z</time></trkpt><trkpt lat="44.12023" lon="11.0951133"><ele>897.0</ele><time>2026-03-29T10:14:53.31Z</time></trkpt><trkpt lat="44.1202483" lon="11.0950183"><ele>897.0</ele><time>2026-03-29T10:14:56.311Z</time></trkpt><trkpt lat="44.1202683" lon="11.0949017"><ele>897.0</ele><time>2026-03-29T10:14:59.311Z</time></trkpt><trkpt lat="44.120305" lon="11.0947933"><ele>897.0</ele><time>2026-03-29T10:15:02.31Z</time></trkpt><trkpt lat="44.1203483" lon="11.0946917"><ele>897.0</ele><time>2026-03-29T10:15:05.308Z</time></trkpt><trkpt lat="44.1203817" lon="11.0946167"><ele>897.0</ele><time>2026-03-29T10:15:08.31Z</time></trkpt><trkpt lat="44.1204067" lon="11.0945133"><ele>898.0</ele><time>2026-03-29T10:15:11.311Z</time></trkpt><trkpt lat="44.120445" lon="11.0944217"><ele>899.0</ele><time>2026-03-29T10:15:14.311Z</time></trkpt><trkpt lat="44.1205017" lon="11.094365"><ele>900.0</ele><time>2026-03-29T10:15:18.31Z</time></trkpt><trkpt lat="44.1205533" lon="11.0942733"><ele>901.0</ele><time>2026-03-29T10:15:22.311Z</time></trkpt><trkpt lat="44.1206033" lon="11.0942017"><ele>902.0</ele><time>2026-03-29T10:15:25.313Z</time></trkpt><trkpt lat="44.1206633" lon="11.0941417"><ele>903.0</ele><time>2026-03-29T10:15:28.31Z</time></trkpt><trkpt lat="44.1207233" lon="11.0940867"><ele>904.0</ele><time>2026-03-29T10:15:31.31Z</time></trkpt><trkpt lat="44.120805" lon="11.09406"><ele>904.0</ele><time>2026-03-29T10:15:34.311Z</time></trkpt><trkpt lat="44.1203483" lon="11.0946917"><ele>904.0</ele><time>2026-03-29T10:15:05.308Z</time></trkpt><trkpt lat="44.1203817" lon="11.0946167"><ele>904.0</ele><time>2026-03-29T10:15:08.31Z</time></trkpt><trkpt lat="44.1204067" lon="11.0945133"><ele>904.0</ele><time>2026-03-29T10:15:11.311Z</time></trkpt><trkpt lat="44.120445" lon="11.0944217"><ele>904.0</ele><time>2026-03-29T10:15:14.311Z</time></trkpt><trkpt lat="44.1205017" lon="11.094365"><ele>904.0</ele><time>2026-03-29T10:15:18.31Z</time></trkpt><trkpt lat="44.1205533" lon="11.0942733"><ele>904.0</ele><time>2026-03-29T10:15:22.311Z</time></trkpt><trkpt lat="44.1206033" lon="11.0942017"><ele>904.0</ele><time>2026-03-29T10:15:25.313Z</time></trkpt><trkpt lat="44.1206633" lon="11.0941417"><ele>905.3333333333333</ele><time>2026-03-29T10:15:28.31Z</time></trkpt><trkpt lat="44.1207233" lon="11.0940867"><ele>906.6666666666666</ele><time>2026-03-29T10:15:31.31Z</time></trkpt><trkpt lat="44.120805" lon="11.09406"><ele>908.0</ele><time>2026-03-29T10:15:34.311Z</time></trkpt><trkpt lat="44.12088" lon="11.0940067"><ele>909.3333333333333</ele><time>2026-03-29T10:15:37.31Z</time></trkpt><trkpt lat="44.1209233" lon="11.09393"><ele>910.6666666666666</ele><time>2026-03-29T10:15:40.31Z</time></trkpt><trkpt lat="44.1209483" lon="11.093825"><ele>912.0</ele><time>2026-03-29T10:15:44.311Z</time></trkpt><trkpt lat="44.1209667" lon="11.0937383"><ele>912.0</ele><time>2026-03-29T10:15:47.311Z</time></trkpt><trkpt lat="44.1209783" lon="11.09362"><ele>911.9999999999999</ele><time>2026-03-29T10:15:50.311Z</time></trkpt><trkpt lat="44.1210033" lon="11.0935267"><ele>912.0</ele><time>2026-03-29T10:15:54.31Z</time></trkpt><trkpt lat="44.1210367" lon="11.0934167"><ele>912.0</ele><time>2026-03-29T10:15:58.311Z</time></trkpt><trkpt lat="44.1210533" lon="11.0933283"><ele>911.9999999999999</ele><time>2026-03-29T10:16:01.31Z</time></trkpt><trkpt lat="44.121065" lon="11.0932417"><ele>912.0</ele><time>2026-03-29T10:16:04.31Z</time></trkpt><trkpt lat="44.121095" lon="11.0931467"><ele>912.0</ele><time>2026-03-29T10:16:07.31Z</time></trkpt><trkpt lat="44.1211317" lon="11.0930533"><ele>912.5</ele><time>2026-03-29T10:16:10.309Z</time></trkpt><trkpt lat="44.1211717" lon="11.09296"><ele>913.0</ele><time>2026-03-29T10:16:14.311Z</time></trkpt><trkpt lat="44.12122" lon="11.0928667"><ele>913.5</ele><time>2026-03-29T10:16:17.31Z</time></trkpt><trkpt lat="44.1212567" lon="11.09276"><ele>914.0</ele><time>2026-03-29T10:16:20.309Z</time></trkpt><trkpt lat="44.1212833" lon="11.092635"><ele>914.5</ele><time>2026-03-29T10:16:23.311Z</time></trkpt><trkpt lat="44.12129" lon="11.0925283"><ele>915.0</ele><time>2026-03-29T10:16:25.309Z</time></trkpt><trkpt lat="44.1212967" lon="11.0924267"><ele>912.6666666666666</ele><time>2026-03-29T10:16:27.31Z</time></trkpt><trkpt lat="44.1212833" lon="11.0923383"><ele>910.3333333333333</ele><time>2026-03-29T10:16:29.31Z</time></trkpt><trkpt lat="44.121255" lon="11.092255"><ele>908.0</ele><time>2026-03-29T10:16:31.311Z</time></trkpt><trkpt lat="44.1212017" lon="11.092155"><ele>905.6666666666666</ele><time>2026-03-29T10:16:34.309Z</time></trkpt><trkpt lat="44.121165" lon="11.09208"><ele>903.3333333333333</ele><time>2026-03-29T10:16:36.311Z</time></trkpt><trkpt lat="44.121135" lon="11.0919583"><ele>901.0</ele><time>2026-03-29T10:16:38.313Z</time></trkpt><trkpt lat="44.1211183" lon="11.0918317"><ele>901.0</ele><time>2026-03-29T10:16:40.31Z</time></trkpt><trkpt lat="44.1210917" lon="11.0916867"><ele>900.9999999999999</ele><time>2026-03-29T10:16:42.311Z</time></trkpt><trkpt lat="44.121055" lon="11.0915267"><ele>900.9999999999999</ele><time>2026-03-29T10:16:44.311Z</time></trkpt><trkpt lat="44.1210383" lon="11.09144"><ele>901.0</ele><time>2026-03-29T10:16:45.31Z</time></trkpt><trkpt lat="44.121025" lon="11.091285"><ele>901.0</ele><time>2026-03-29T10:16:47.31Z</time></trkpt><trkpt lat="44.12102" lon="11.09115"><ele>899.8333333333333</ele><time>2026-03-29T10:16:49.31Z</time></trkpt><trkpt lat="44.1210033" lon="11.0910383"><ele>898.6666666666666</ele><time>2026-03-29T10:16:51.31Z</time></trkpt><trkpt lat="44.1209867" lon="11.0908933"><ele>897.5</ele><time>2026-03-29T10:16:53.31Z</time></trkpt><trkpt lat="44.1209617" lon="11.09076"><ele>896.3333333333333</ele><time>2026-03-29T10:16:55.311Z</time></trkpt><trkpt lat="44.1209467" lon="11.09065"><ele>895.1666666666666</ele><time>2026-03-29T10:16:57.311Z</time></trkpt><trkpt lat="44.1209417" lon="11.0905367"><ele>894.0</ele><time>2026-03-29T10:16:59.311Z</time></trkpt><trkpt lat="44.1209533" lon="11.0904167"><ele>893.0</ele><time>2026-03-29T10:17:01.311Z</time></trkpt><trkpt lat="44.1209633" lon="11.090305"><ele>892.0000000000001</ele><time>2026-03-29T10:17:03.31Z</time></trkpt><trkpt lat="44.1209617" lon="11.0901833"><ele>891.0000000000001</ele><time>2026-03-29T10:17:05.31Z</time></trkpt><trkpt lat="44.12096" lon="11.0900483"><ele>890.0</ele><time>2026-03-29T10:17:07.31Z</time></trkpt><trkpt lat="44.120985" lon="11.0898767"><ele>889.0</ele><time>2026-03-29T10:17:09.309Z</time></trkpt><trkpt lat="44.1210083" lon="11.0897833"><ele>886.4000000000001</ele><time>2026-03-29T10:17:10.311Z</time></trkpt><trkpt lat="44.1210483" lon="11.0896417"><ele>883.8000000000001</ele><time>2026-03-29T10:17:12.311Z</time></trkpt><trkpt lat="44.1210783" lon="11.08952"><ele>881.1999999999999</ele><time>2026-03-29T10:17:14.31Z</time></trkpt><trkpt lat="44.1210983" lon="11.0894033"><ele>878.5999999999999</ele><time>2026-03-29T10:17:16.31Z</time></trkpt><trkpt lat="44.1210983" lon="11.0892867"><ele>876.0</ele><time>2026-03-29T10:17:18.311Z</time></trkpt><trkpt lat="44.1210883" lon="11.0891667"><ele>873.1666666666666</ele><time>2026-03-29T10:17:20.309Z</time></trkpt><trkpt lat="44.1210617" lon="11.08906"><ele>870.3333333333333</ele><time>2026-03-29T10:17:22.309Z</time></trkpt><trkpt lat="44.1210317" lon="11.0889683"><ele>867.5</ele><time>2026-03-29T10:17:24.308Z</time></trkpt><trkpt lat="44.121" lon="11.0888833"><ele>864.6666666666666</ele><time>2026-03-29T10:17:26.309Z</time></trkpt><trkpt lat="44.1209883" lon="11.0887667"><ele>861.8333333333333</ele><time>2026-03-29T10:17:29.31Z</time></trkpt><trkpt lat="44.1210417" lon="11.08867"><ele>859.0</ele><time>2026-03-29T10:17:32.309Z</time></trkpt><trkpt lat="44.1211117" lon="11.0886767"><ele>858.9999999999999</ele><time>2026-03-29T10:17:34.309Z</time></trkpt><trkpt lat="44.1211867" lon="11.0887083"><ele>859.0</ele><time>2026-03-29T10:17:36.309Z</time></trkpt><trkpt lat="44.121255" lon="11.0887217"><ele>859.0</ele><time>2026-03-29T10:17:38.31Z</time></trkpt><trkpt lat="44.121325" lon="11.0887033"><ele>859.0</ele><time>2026-03-29T10:17:40.309Z</time></trkpt><trkpt lat="44.12139" lon="11.0887"><ele>859.0</ele><time>2026-03-29T10:17:42.309Z</time></trkpt><trkpt lat="44.121445" lon="11.0887433"><ele>858.9999999999999</ele><time>2026-03-29T10:17:44.31Z</time></trkpt><trkpt lat="44.121485" lon="11.088845"><ele>859.0</ele><time>2026-03-29T10:17:47.31Z</time></trkpt><trkpt lat="44.12151" lon="11.088975"><ele>859.0</ele><time>2026-03-29T10:17:50.307Z</time></trkpt><trkpt lat="44.1215333" lon="11.0890867"><ele>859.0000000000001</ele><time>2026-03-29T10:17:52.308Z</time></trkpt><trkpt lat="44.1215767" lon="11.0892017"><ele>859.0000000000001</ele><time>2026-03-29T10:17:54.31Z</time></trkpt><trkpt lat="44.1216583" lon="11.089295"><ele>859.0</ele><time>2026-03-29T10:17:56.308Z</time></trkpt><trkpt lat="44.1217567" lon="11.0893883"><ele>859.0</ele><time>2026-03-29T10:17:58.309Z</time></trkpt><trkpt lat="44.1218533" lon="11.0894733"><ele>857.2</ele><time>2026-03-29T10:18:00.309Z</time></trkpt><trkpt lat="44.1219583" lon="11.089535"><ele>855.4000000000001</ele><time>2026-03-29T10:18:02.309Z</time></trkpt><trkpt lat="44.1220517" lon="11.0895783"><ele>853.6</ele><time>2026-03-29T10:18:04.31Z</time></trkpt><trkpt lat="44.1221467" lon="11.0896333"><ele>851.8</ele><time>2026-03-29T10:18:06.308Z</time></trkpt><trkpt lat="44.122245" lon="11.0896867"><ele>850.0</ele><time>2026-03-29T10:18:08.31Z</time></trkpt><trkpt lat="44.12234" lon="11.0897233"><ele>846.3333333333333</ele><time>2026-03-29T10:18:10.309Z</time></trkpt><trkpt lat="44.122425" lon="11.0897617"><ele>842.6666666666666</ele><time>2026-03-29T10:18:12.309Z</time></trkpt><trkpt lat="44.1224933" lon="11.0898183"><ele>839.0</ele><time>2026-03-29T10:18:14.309Z</time></trkpt><trkpt lat="44.1225667" lon="11.0898333"><ele>835.3333333333333</ele><time>2026-03-29T10:18:16.309Z</time></trkpt><trkpt lat="44.122645" lon="11.0897817"><ele>831.6666666666666</ele><time>2026-03-29T10:18:18.311Z</time></trkpt><trkpt lat="44.1226933" lon="11.0896983"><ele>828.0</ele><time>2026-03-29T10:18:20.309Z</time></trkpt><trkpt lat="44.12274" lon="11.08963"><ele>828.0</ele><time>2026-03-29T10:18:22.309Z</time></trkpt><trkpt lat="44.1228133" lon="11.089575"><ele>828.0</ele><time>2026-03-29T10:18:24.309Z</time></trkpt><trkpt lat="44.1229233" lon="11.089555"><ele>828.0</ele><time>2026-03-29T10:18:26.309Z</time></trkpt><trkpt lat="44.1230417" lon="11.08951"><ele>828.0</ele><time>2026-03-29T10:18:28.309Z</time></trkpt><trkpt lat="44.1231367" lon="11.0894333"><ele>828.0</ele><time>2026-03-29T10:18:30.31Z</time></trkpt><trkpt lat="44.12322" lon="11.0893417"><ele>827.75</ele><time>2026-03-29T10:18:32.31Z</time></trkpt><trkpt lat="44.1233133" lon="11.08923"><ele>827.5</ele><time>2026-03-29T10:18:34.309Z</time></trkpt><trkpt lat="44.1234117" lon="11.0891333"><ele>827.25</ele><time>2026-03-29T10:18:36.31Z</time></trkpt><trkpt lat="44.1235133" lon="11.08904"><ele>827.0</ele><time>2026-03-29T10:18:38.31Z</time></trkpt><trkpt lat="44.123605" lon="11.088965"><ele>823.75</ele><time>2026-03-29T10:18:40.31Z</time></trkpt><trkpt lat="44.1236967" lon="11.088895"><ele>820.5</ele><time>2026-03-29T10:18:42.31Z</time></trkpt><trkpt lat="44.1238033" lon="11.08881"><ele>817.25</ele><time>2026-03-29T10:18:44.309Z</time></trkpt><trkpt lat="44.1239083" lon="11.0887317"><ele>814.0</ele><time>2026-03-29T10:18:46.31Z</time></trkpt><trkpt lat="44.1240133" lon="11.088675"><ele>813.1666666666666</ele><time>2026-03-29T10:18:48.309Z</time></trkpt><trkpt lat="44.1241083" lon="11.0886433"><ele>812.3333333333333</ele><time>2026-03-29T10:18:50.309Z</time></trkpt><trkpt lat="44.1241917" lon="11.088615"><ele>811.5</ele><time>2026-03-29T10:18:52.308Z</time></trkpt><trkpt lat="44.1242617" lon="11.0885817"><ele>810.6666666666667</ele><time>2026-03-29T10:18:54.309Z</time></trkpt><trkpt lat="44.1243067" lon="11.0885133"><ele>809.8333333333334</ele><time>2026-03-29T10:18:56.31Z</time></trkpt><trkpt lat="44.124325" lon="11.0884067"><ele>809.0</ele><time>2026-03-29T10:18:58.309Z</time></trkpt><trkpt lat="44.124325" lon="11.0882783"><ele>807.5000000000001</ele><time>2026-03-29T10:19:00.311Z</time></trkpt><trkpt lat="44.1243233" lon="11.08814"><ele>806.0</ele><time>2026-03-29T10:19:02.308Z</time></trkpt><trkpt lat="44.1243083" lon="11.088035"><ele>804.5</ele><time>2026-03-29T10:19:04.309Z</time></trkpt><trkpt lat="44.1242367" lon="11.08797"><ele>803.0</ele><time>2026-03-29T10:19:07.308Z</time></trkpt><trkpt lat="44.1241683" lon="11.0879883"><ele>801.5000000000001</ele><time>2026-03-29T10:19:09.31Z</time></trkpt><trkpt lat="44.1240967" lon="11.0880133"><ele>800.0</ele><time>2026-03-29T10:19:11.31Z</time></trkpt><trkpt lat="44.1240283" lon="11.0879883"><ele>800.0000000000001</ele><time>2026-03-29T10:19:13.31Z</time></trkpt><trkpt lat="44.1240167" lon="11.0878967"><ele>800.0</ele><time>2026-03-29T10:19:15.31Z</time></trkpt><trkpt lat="44.12408" lon="11.0877583"><ele>800.0</ele><time>2026-03-29T10:19:17.309Z</time></trkpt><trkpt lat="44.12413" lon="11.087675"><ele>800.0</ele><time>2026-03-29T10:19:18.311Z</time></trkpt><trkpt lat="44.12418" lon="11.0875883"><ele>800.0000000000001</ele><time>2026-03-29T10:19:19.311Z</time></trkpt><trkpt lat="44.1242267" lon="11.0875017"><ele>800.0</ele><time>2026-03-29T10:19:20.31Z</time></trkpt><trkpt lat="44.124285" lon="11.08741"><ele>797.8333333333334</ele><time>2026-03-29T10:19:21.309Z</time></trkpt><trkpt lat="44.1243433" lon="11.087315"><ele>795.6666666666667</ele><time>2026-03-29T10:19:22.309Z</time></trkpt><trkpt lat="44.1244017" lon="11.087225"><ele>793.5</ele><time>2026-03-29T10:19:23.31Z</time></trkpt><trkpt lat="44.1244617" lon="11.0871383"><ele>791.3333333333333</ele><time>2026-03-29T10:19:24.309Z</time></trkpt><trkpt lat="44.1245117" lon="11.0870567"><ele>789.1666666666666</ele><time>2026-03-29T10:19:25.31Z</time></trkpt><trkpt lat="44.1245583" lon="11.0869783"><ele>787.0</ele><time>2026-03-29T10:19:26.309Z</time></trkpt><trkpt lat="44.124595" lon="11.0869033"><ele>787.0</ele><time>2026-03-29T10:19:27.31Z</time></trkpt><trkpt lat="44.1246567" lon="11.0867517"><ele>787.0</ele><time>2026-03-29T10:19:29.309Z</time></trkpt><trkpt lat="44.12471" lon="11.0866183"><ele>787.0</ele><time>2026-03-29T10:19:31.31Z</time></trkpt><trkpt lat="44.1247883" lon="11.086495"><ele>787.0</ele><time>2026-03-29T10:19:33.31Z</time></trkpt><trkpt lat="44.124835" lon="11.0864233"><ele>787.0</ele><time>2026-03-29T10:19:34.309Z</time></trkpt><trkpt lat="44.12488" lon="11.0863567"><ele>784.4999999999999</ele><time>2026-03-29T10:19:35.31Z</time></trkpt><trkpt lat="44.12493" lon="11.0863"><ele>782.0</ele><time>2026-03-29T10:19:36.31Z</time></trkpt><trkpt lat="44.1250267" lon="11.0861883"><ele>779.5</ele><time>2026-03-29T10:19:38.311Z</time></trkpt><trkpt lat="44.125075" lon="11.08613"><ele>777.0</ele><time>2026-03-29T10:19:39.309Z</time></trkpt><trkpt lat="44.1251233" lon="11.0860717"><ele>774.4999999999999</ele><time>2026-03-29T10:19:40.31Z</time></trkpt><trkpt lat="44.1252167" lon="11.0859583"><ele>772.0</ele><time>2026-03-29T10:19:42.311Z</time></trkpt><trkpt lat="44.1252683" lon="11.085895"><ele>772.0000000000001</ele><time>2026-03-29T10:19:43.309Z</time></trkpt><trkpt lat="44.12532" lon="11.0858283"><ele>772.0</ele><time>2026-03-29T10:19:44.31Z</time></trkpt><trkpt lat="44.1253683" lon="11.0857717"><ele>772.0</ele><time>2026-03-29T10:19:45.311Z</time></trkpt><trkpt lat="44.1254417" lon="11.0856733"><ele>772.0</ele><time>2026-03-29T10:19:47.309Z</time></trkpt><trkpt lat="44.1254917" lon="11.08559"><ele>772.0</ele><time>2026-03-29T10:19:49.31Z</time></trkpt><trkpt lat="44.125525" lon="11.085515"><ele>772.0000000000001</ele><time>2026-03-29T10:19:51.311Z</time></trkpt><trkpt lat="44.1254833" lon="11.085445"><ele>772.0</ele><time>2026-03-29T10:19:54.311Z</time></trkpt><trkpt lat="44.125395" lon="11.0855067"><ele>769.8333333333333</ele><time>2026-03-29T10:19:58.311Z</time></trkpt><trkpt lat="44.1253433" lon="11.0855767"><ele>767.6666666666666</ele><time>2026-03-29T10:20:00.31Z</time></trkpt><trkpt lat="44.1253033" lon="11.0856533"><ele>765.5</ele><time>2026-03-29T10:20:03.309Z</time></trkpt><trkpt lat="44.125235" lon="11.08563"><ele>763.3333333333333</ele><time>2026-03-29T10:20:06.311Z</time></trkpt><trkpt lat="44.1252033" lon="11.0855133"><ele>761.1666666666666</ele><time>2026-03-29T10:20:09.309Z</time></trkpt><trkpt lat="44.1252333" lon="11.0854233"><ele>759.0</ele><time>2026-03-29T10:20:11.31Z</time></trkpt><trkpt lat="44.1252817" lon="11.085305"><ele>759.0</ele><time>2026-03-29T10:20:13.311Z</time></trkpt><trkpt lat="44.1253367" lon="11.085185"><ele>759.0</ele><time>2026-03-29T10:20:15.31Z</time></trkpt><trkpt lat="44.1254" lon="11.08507"><ele>759.0</ele><time>2026-03-29T10:20:17.31Z</time></trkpt><trkpt lat="44.12546" lon="11.08499"><ele>759.0</ele><time>2026-03-29T10:20:19.309Z</time></trkpt><trkpt lat="44.125545" lon="11.0848967"><ele>759.0</ele><time>2026-03-29T10:20:21.309Z</time></trkpt><trkpt lat="44.12561" lon="11.0848433"><ele>756.2</ele><time>2026-03-29T10:20:22.31Z</time></trkpt><trkpt lat="44.1256767" lon="11.084815"><ele>753.4000000000001</ele><time>2026-03-29T10:20:23.311Z</time></trkpt><trkpt lat="44.12579" lon="11.084795"><ele>750.6</ele><time>2026-03-29T10:20:25.311Z</time></trkpt><trkpt lat="44.1258833" lon="11.0847967"><ele>747.8</ele><time>2026-03-29T10:20:27.31Z</time></trkpt><trkpt lat="44.125965" lon="11.0847467"><ele>745.0</ele><time>2026-03-29T10:20:29.311Z</time></trkpt><trkpt lat="44.12603" lon="11.0846633"><ele>744.3333333333334</ele><time>2026-03-29T10:20:31.31Z</time></trkpt><trkpt lat="44.1260833" lon="11.0845733"><ele>743.6666666666667</ele><time>2026-03-29T10:20:33.31Z</time></trkpt><trkpt lat="44.126105" lon="11.0844883"><ele>743.0</ele><time>2026-03-29T10:20:35.309Z</time></trkpt><trkpt lat="44.1260433" lon="11.0843933"><ele>742.3333333333334</ele><time>2026-03-29T10:20:38.31Z</time></trkpt><trkpt lat="44.1259633" lon="11.0843367"><ele>741.6666666666666</ele><time>2026-03-29T10:20:40.31Z</time></trkpt><trkpt lat="44.1258767" lon="11.0842867"><ele>741.0</ele><time>2026-03-29T10:20:42.309Z</time></trkpt><trkpt lat="44.125815" lon="11.084205"><ele>741.0</ele><time>2026-03-29T10:20:44.31Z</time></trkpt><trkpt lat="44.1257717" lon="11.0841167"><ele>741.0</ele><time>2026-03-29T10:20:46.31Z</time></trkpt><trkpt lat="44.125795" lon="11.08397"><ele>741.0</ele><time>2026-03-29T10:20:48.31Z</time></trkpt><trkpt lat="44.125805" lon="11.0838117"><ele>741.0</ele><time>2026-03-29T10:20:50.31Z</time></trkpt><trkpt lat="44.125805" lon="11.0836467"><ele>741.0</ele><time>2026-03-29T10:20:52.311Z</time></trkpt><trkpt lat="44.125805" lon="11.083505"><ele>738.8</ele><time>2026-03-29T10:20:54.31Z</time></trkpt><trkpt lat="44.1258183" lon="11.083365"><ele>736.5999999999999</ele><time>2026-03-29T10:20:56.31Z</time></trkpt><trkpt lat="44.1258517" lon="11.0832217"><ele>734.4</ele><time>2026-03-29T10:20:58.31Z</time></trkpt><trkpt lat="44.1259" lon="11.0830783"><ele>732.2</ele><time>2026-03-29T10:21:00.309Z</time></trkpt><trkpt lat="44.12595" lon="11.082935"><ele>730.0</ele><time>2026-03-29T10:21:02.31Z</time></trkpt><trkpt lat="44.1260017" lon="11.0827967"><ele>727.6</ele><time>2026-03-29T10:21:04.31Z</time></trkpt><trkpt lat="44.12607" lon="11.0826633"><ele>725.2</ele><time>2026-03-29T10:21:06.311Z</time></trkpt><trkpt lat="44.1261417" lon="11.08254"><ele>722.8</ele><time>2026-03-29T10:21:08.311Z</time></trkpt><trkpt lat="44.1262083" lon="11.0824167"><ele>720.4</ele><time>2026-03-29T10:21:10.31Z</time></trkpt><trkpt lat="44.1262767" lon="11.0823067"><ele>718.0</ele><time>2026-03-29T10:21:12.311Z</time></trkpt><trkpt lat="44.1263467" lon="11.0822033"><ele>715.8333333333334</ele><time>2026-03-29T10:21:14.311Z</time></trkpt><trkpt lat="44.126425" lon="11.0821067"><ele>713.6666666666667</ele><time>2026-03-29T10:21:16.31Z</time></trkpt><trkpt lat="44.12649" lon="11.08201"><ele>711.5</ele><time>2026-03-29T10:21:18.311Z</time></trkpt><trkpt lat="44.1265733" lon="11.0819417"><ele>709.3333333333334</ele><time>2026-03-29T10:21:20.31Z</time></trkpt><trkpt lat="44.1266567" lon="11.0819567"><ele>707.1666666666666</ele><time>2026-03-29T10:21:22.309Z</time></trkpt><trkpt lat="44.1267133" lon="11.08201"><ele>705.0</ele><time>2026-03-29T10:21:24.311Z</time></trkpt><trkpt lat="44.1267867" lon="11.082065"><ele>704.7142857142857</ele><time>2026-03-29T10:21:27.309Z</time></trkpt><trkpt lat="44.1268333" lon="11.082005"><ele>704.4285714285714</ele><time>2026-03-29T10:21:31.31Z</time></trkpt><trkpt lat="44.12682" lon="11.0819167"><ele>704.1428571428571</ele><time>2026-03-29T10:21:54.311Z</time></trkpt><trkpt lat="44.1267733" lon="11.0818183"><ele>703.8571428571429</ele><time>2026-03-29T10:21:58.309Z</time></trkpt><trkpt lat="44.1267383" lon="11.0817433"><ele>703.5714285714286</ele><time>2026-03-29T10:22:00.308Z</time></trkpt><trkpt lat="44.1266917" lon="11.0816783"><ele>703.2857142857142</ele><time>2026-03-29T10:22:02.311Z</time></trkpt><trkpt lat="44.1266383" lon="11.081605"><ele>703.0</ele><time>2026-03-29T10:22:04.309Z</time></trkpt><trkpt lat="44.1265633" lon="11.0815267"><ele>701.5</ele><time>2026-03-29T10:22:06.311Z</time></trkpt><trkpt lat="44.1264633" lon="11.08148"><ele>700.0</ele><time>2026-03-29T10:22:08.311Z</time></trkpt><trkpt lat="44.1263467" lon="11.0814317"><ele>698.5</ele><time>2026-03-29T10:22:10.309Z</time></trkpt><trkpt lat="44.1262817" lon="11.0814183"><ele>697.0</ele><time>2026-03-29T10:22:11.309Z</time></trkpt><trkpt lat="44.1262167" lon="11.0814067"><ele>695.5</ele><time>2026-03-29T10:22:12.31Z</time></trkpt><trkpt lat="44.126145" lon="11.081395"><ele>694.0</ele><time>2026-03-29T10:22:13.309Z</time></trkpt><trkpt lat="44.1260783" lon="11.08138"><ele>694.0</ele><time>2026-03-29T10:22:14.31Z</time></trkpt><trkpt lat="44.1260083" lon="11.0813683"><ele>694.0</ele><time>2026-03-29T10:22:15.31Z</time></trkpt><trkpt lat="44.12594" lon="11.0813483"><ele>694.0</ele><time>2026-03-29T10:22:16.311Z</time></trkpt><trkpt lat="44.1258683" lon="11.0813367"><ele>694.0</ele><time>2026-03-29T10:22:17.309Z</time></trkpt><trkpt lat="44.12579" lon="11.0813183"><ele>694.0</ele><time>2026-03-29T10:22:18.309Z</time></trkpt><trkpt lat="44.125725" lon="11.0812867"><ele>694.0</ele><time>2026-03-29T10:22:19.31Z</time></trkpt><trkpt lat="44.1256767" lon="11.0812267"><ele>694.0</ele><time>2026-03-29T10:22:20.311Z</time></trkpt><trkpt lat="44.1256533" lon="11.08105"><ele>698.0</ele><time>2026-03-29T10:22:22.31Z</time></trkpt><trkpt lat="44.1256567" lon="11.0809467"><ele>702.0</ele><time>2026-03-29T10:22:23.314Z</time></trkpt><trkpt lat="44.1256633" lon="11.080835"><ele>706.0</ele><time>2026-03-29T10:22:24.31Z</time></trkpt><trkpt lat="44.1256733" lon="11.08073"><ele>710.0</ele><time>2026-03-29T10:22:25.311Z</time></trkpt><trkpt lat="44.1256917" lon="11.0806267"><ele>714.0</ele><time>2026-03-29T10:22:26.312Z</time></trkpt><trkpt lat="44.1257083" lon="11.0805267"><ele>718.0</ele><time>2026-03-29T10:22:27.31Z</time></trkpt><trkpt lat="44.1257283" lon="11.08043"><ele>714.8333333333334</ele><time>2026-03-29T10:22:28.31Z</time></trkpt><trkpt lat="44.12575" lon="11.0803283"><ele>711.6666666666667</ele><time>2026-03-29T10:22:29.312Z</time></trkpt><trkpt lat="44.1257667" lon="11.0802283"><ele>708.5</ele><time>2026-03-29T10:22:30.311Z</time></trkpt><trkpt lat="44.1257767" lon="11.08013"><ele>705.3333333333334</ele><time>2026-03-29T10:22:31.312Z</time></trkpt><trkpt lat="44.1257833" lon="11.0800267"><ele>702.1666666666666</ele><time>2026-03-29T10:22:32.314Z</time></trkpt><trkpt lat="44.125785" lon="11.0799233"><ele>699.0</ele><time>2026-03-29T10:22:33.312Z</time></trkpt><trkpt lat="44.1257883" lon="11.0798117"><ele>699.0</ele><time>2026-03-29T10:22:34.312Z</time></trkpt><trkpt lat="44.125795" lon="11.0797"><ele>699.0</ele><time>2026-03-29T10:22:35.311Z</time></trkpt><trkpt lat="44.1258117" lon="11.0796"><ele>699.0</ele><time>2026-03-29T10:22:36.31Z</time></trkpt><trkpt lat="44.1258367" lon="11.0795067"><ele>699.0</ele><time>2026-03-29T10:22:37.31Z</time></trkpt><trkpt lat="44.125875" lon="11.07942"><ele>699.0</ele><time>2026-03-29T10:22:38.31Z</time></trkpt><trkpt lat="44.1259133" lon="11.0793483"><ele>699.0</ele><time>2026-03-29T10:22:39.31Z</time></trkpt><trkpt lat="44.125995" lon="11.0792183"><ele>698.8000000000001</ele><time>2026-03-29T10:22:41.311Z</time></trkpt><trkpt lat="44.1260683" lon="11.0790817"><ele>698.6</ele><time>2026-03-29T10:22:43.313Z</time></trkpt><trkpt lat="44.1261267" lon="11.0789267"><ele>698.4</ele><time>2026-03-29T10:22:45.311Z</time></trkpt><trkpt lat="44.1261433" lon="11.07884"><ele>698.2</ele><time>2026-03-29T10:22:46.313Z</time></trkpt><trkpt lat="44.1261567" lon="11.0786733"><ele>698.0</ele><time>2026-03-29T10:22:48.312Z</time></trkpt><trkpt lat="44.1261267" lon="11.07851"><ele>698.0</ele><time>2026-03-29T10:22:50.31Z</time></trkpt><trkpt lat="44.1260633" lon="11.0783617"><ele>698.0</ele><time>2026-03-29T10:22:52.309Z</time></trkpt><trkpt lat="44.12597" lon="11.07825"><ele>698.0</ele><time>2026-03-29T10:22:54.31Z</time></trkpt><trkpt lat="44.125875" lon="11.0781467"><ele>698.0</ele><time>2026-03-29T10:22:56.311Z</time></trkpt><trkpt lat="44.125785" lon="11.078045"><ele>698.3333333333333</ele><time>2026-03-29T10:22:58.309Z</time></trkpt><trkpt lat="44.1257183" lon="11.0779067"><ele>698.6666666666666</ele><time>2026-03-29T10:23:00.309Z</time></trkpt><trkpt lat="44.1256883" lon="11.0777333"><ele>699.0</ele><time>2026-03-29T10:23:02.31Z</time></trkpt><trkpt lat="44.1256917" lon="11.077645"><ele>699.3333333333334</ele><time>2026-03-29T10:23:03.31Z</time></trkpt><trkpt lat="44.1257067" lon="11.0775583"><ele>699.6666666666667</ele><time>2026-03-29T10:23:04.31Z</time></trkpt><trkpt lat="44.1257283" lon="11.077475"><ele>700.0</ele><time>2026-03-29T10:23:05.308Z</time></trkpt><trkpt lat="44.1257783" lon="11.0773167"><ele>700.0</ele><time>2026-03-29T10:23:07.309Z</time></trkpt><trkpt lat="44.1258017" lon="11.0772317"><ele>700.0</ele><time>2026-03-29T10:23:08.309Z</time></trkpt><trkpt lat="44.1258267" lon="11.07714"><ele>700.0</ele><time>2026-03-29T10:23:09.312Z</time></trkpt><trkpt lat="44.12585" lon="11.077055"><ele>700.0</ele><time>2026-03-29T10:23:10.306Z</time></trkpt><trkpt lat="44.12588" lon="11.0769683"><ele>700.0</ele><time>2026-03-29T10:23:11.307Z</time></trkpt><trkpt lat="44.1259167" lon="11.0768833"><ele>700.0</ele><time>2026-03-29T10:23:12.307Z</time></trkpt><trkpt lat="44.1259567" lon="11.0768083"><ele>700.0</ele><time>2026-03-29T10:23:13.306Z</time></trkpt><trkpt lat="44.1259983" lon="11.0767283"><ele>700.0</ele><time>2026-03-29T10:23:14.307Z</time></trkpt><trkpt lat="44.1260383" lon="11.0766433"><ele>700.0</ele><time>2026-03-29T10:23:15.307Z</time></trkpt><trkpt lat="44.12608" lon="11.0765583"><ele>700.0</ele><time>2026-03-29T10:23:16.306Z</time></trkpt><trkpt lat="44.1261183" lon="11.07647"><ele>700.0</ele><time>2026-03-29T10:23:17.307Z</time></trkpt><trkpt lat="44.126155" lon="11.0763833"><ele>700.0</ele><time>2026-03-29T10:23:18.307Z</time></trkpt><trkpt lat="44.1261933" lon="11.0763"><ele>700.0</ele><time>2026-03-29T10:23:19.308Z</time></trkpt><trkpt lat="44.1262283" lon="11.0762167"><ele>700.0</ele><time>2026-03-29T10:23:20.307Z</time></trkpt><trkpt lat="44.1262633" lon="11.076125"><ele>701.1666666666667</ele><time>2026-03-29T10:23:21.31Z</time></trkpt><trkpt lat="44.1262967" lon="11.0760317"><ele>702.3333333333334</ele><time>2026-03-29T10:23:22.308Z</time></trkpt><trkpt lat="44.1263283" lon="11.0759317"><ele>703.5</ele><time>2026-03-29T10:23:23.309Z</time></trkpt><trkpt lat="44.126355" lon="11.07583"><ele>704.6666666666666</ele><time>2026-03-29T10:23:24.309Z</time></trkpt><trkpt lat="44.1263783" lon="11.0757267"><ele>705.8333333333333</ele><time>2026-03-29T10:23:25.309Z</time></trkpt><trkpt lat="44.1264" lon="11.075625"><ele>707.0</ele><time>2026-03-29T10:23:26.31Z</time></trkpt><trkpt lat="44.12642" lon="11.075525"><ele>707.0</ele><time>2026-03-29T10:23:27.31Z</time></trkpt><trkpt lat="44.1264367" lon="11.075425"><ele>707.0</ele><time>2026-03-29T10:23:28.31Z</time></trkpt><trkpt lat="44.126445" lon="11.0753267"><ele>707.0</ele><time>2026-03-29T10:23:29.309Z</time></trkpt><trkpt lat="44.1264467" lon="11.07523"><ele>707.0</ele><time>2026-03-29T10:23:30.311Z</time></trkpt><trkpt lat="44.1264383" lon="11.0751367"><ele>707.0</ele><time>2026-03-29T10:23:31.31Z</time></trkpt><trkpt lat="44.1264117" lon="11.0750567"><ele>707.0</ele><time>2026-03-29T10:23:32.31Z</time></trkpt><trkpt lat="44.1263367" lon="11.074915"><ele>705.0</ele><time>2026-03-29T10:23:34.308Z</time></trkpt><trkpt lat="44.12629" lon="11.0748517"><ele>703.0</ele><time>2026-03-29T10:23:35.309Z</time></trkpt><trkpt lat="44.1262433" lon="11.0747867"><ele>701.0</ele><time>2026-03-29T10:23:36.31Z</time></trkpt><trkpt lat="44.1261983" lon="11.074715"><ele>699.0</ele><time>2026-03-29T10:23:37.31Z</time></trkpt><trkpt lat="44.1261617" lon="11.0746333"><ele>697.0</ele><time>2026-03-29T10:23:38.309Z</time></trkpt><trkpt lat="44.1261333" lon="11.0745433"><ele>695.0</ele><time>2026-03-29T10:23:39.308Z</time></trkpt><trkpt lat="44.1261067" lon="11.074455"><ele>693.0</ele><time>2026-03-29T10:23:40.309Z</time></trkpt><trkpt lat="44.12608" lon="11.0743683"><ele>693.0</ele><time>2026-03-29T10:23:41.31Z</time></trkpt><trkpt lat="44.1260467" lon="11.0742817"><ele>693.0</ele><time>2026-03-29T10:23:42.312Z</time></trkpt><trkpt lat="44.126" lon="11.07421"><ele>693.0</ele><time>2026-03-29T10:23:43.31Z</time></trkpt><trkpt lat="44.1259483" lon="11.0741533"><ele>693.0</ele><time>2026-03-29T10:23:44.308Z</time></trkpt><trkpt lat="44.1258917" lon="11.0741067"><ele>693.0</ele><time>2026-03-29T10:23:45.31Z</time></trkpt><trkpt lat="44.1257917" lon="11.07404"><ele>693.0</ele><time>2026-03-29T10:23:47.31Z</time></trkpt><trkpt lat="44.1257133" lon="11.0739183"><ele>693.1666666666666</ele><time>2026-03-29T10:23:49.311Z</time></trkpt><trkpt lat="44.1256833" lon="11.0738217"><ele>693.3333333333334</ele><time>2026-03-29T10:23:50.309Z</time></trkpt><trkpt lat="44.1256583" lon="11.0737183"><ele>693.5</ele><time>2026-03-29T10:23:51.308Z</time></trkpt><trkpt lat="44.1256333" lon="11.07361"><ele>693.6666666666667</ele><time>2026-03-29T10:23:52.308Z</time></trkpt><trkpt lat="44.125605" lon="11.0735067"><ele>693.8333333333334</ele><time>2026-03-29T10:23:53.31Z</time></trkpt><trkpt lat="44.1255667" lon="11.07341"><ele>694.0</ele><time>2026-03-29T10:23:54.309Z</time></trkpt><trkpt lat="44.1255117" lon="11.0733317"><ele>694.0</ele><time>2026-03-29T10:23:55.31Z</time></trkpt><trkpt lat="44.1254433" lon="11.073275"><ele>694.0</ele><time>2026-03-29T10:23:56.311Z</time></trkpt><trkpt lat="44.1253683" lon="11.0732317"><ele>694.0</ele><time>2026-03-29T10:23:57.31Z</time></trkpt><trkpt lat="44.1252883" lon="11.0731967"><ele>694.0</ele><time>2026-03-29T10:23:58.308Z</time></trkpt><trkpt lat="44.1252067" lon="11.0731683"><ele>694.0</ele><time>2026-03-29T10:23:59.31Z</time></trkpt><trkpt lat="44.12513" lon="11.07315"><ele>694.0</ele><time>2026-03-29T10:24:00.31Z</time></trkpt><trkpt lat="44.1250567" lon="11.07312"><ele>691.0</ele><time>2026-03-29T10:24:01.309Z</time></trkpt><trkpt lat="44.1249733" lon="11.0730483"><ele>688.0</ele><time>2026-03-29T10:24:03.309Z</time></trkpt><trkpt lat="44.1248817" lon="11.0729517"><ele>685.0</ele><time>2026-03-29T10:24:05.309Z</time></trkpt><trkpt lat="44.1247883" lon="11.07285"><ele>682.0</ele><time>2026-03-29T10:24:07.31Z</time></trkpt><trkpt lat="44.12469" lon="11.0727433"><ele>685.5</ele><time>2026-03-29T10:24:09.309Z</time></trkpt><trkpt lat="44.124645" lon="11.0726817"><ele>689.0</ele><time>2026-03-29T10:24:10.31Z</time></trkpt><trkpt lat="44.124595" lon="11.0725683"><ele>692.5</ele><time>2026-03-29T10:24:12.309Z</time></trkpt><trkpt lat="44.1246" lon="11.072475"><ele>696.0</ele><time>2026-03-29T10:24:13.31Z</time></trkpt><trkpt lat="44.1246183" lon="11.07237"><ele>699.5</ele><time>2026-03-29T10:24:14.309Z</time></trkpt><trkpt lat="44.1246567" lon="11.0722467"><ele>703.0</ele><time>2026-03-29T10:24:15.311Z</time></trkpt><trkpt lat="44.1247117" lon="11.0721383"><ele>703.0</ele><time>2026-03-29T10:24:16.309Z</time></trkpt><trkpt lat="44.1247683" lon="11.0720417"><ele>703.0</ele><time>2026-03-29T10:24:17.309Z</time></trkpt><trkpt lat="44.1248233" lon="11.07195"><ele>703.0</ele><time>2026-03-29T10:24:18.31Z</time></trkpt><trkpt lat="44.124875" lon="11.0718583"><ele>703.0</ele><time>2026-03-29T10:24:19.31Z</time></trkpt><trkpt lat="44.1249217" lon="11.0717833"><ele>703.0</ele><time>2026-03-29T10:24:20.31Z</time></trkpt><trkpt lat="44.1249667" lon="11.0717017"><ele>703.0</ele><time>2026-03-29T10:24:21.309Z</time></trkpt><trkpt lat="44.125" lon="11.0716217"><ele>697.8333333333334</ele><time>2026-03-29T10:24:22.309Z</time></trkpt><trkpt lat="44.1250383" lon="11.07147"><ele>692.6666666666667</ele><time>2026-03-29T10:24:24.308Z</time></trkpt><trkpt lat="44.125035" lon="11.0713783"><ele>687.5</ele><time>2026-03-29T10:24:25.309Z</time></trkpt><trkpt lat="44.1250167" lon="11.0712933"><ele>682.3333333333334</ele><time>2026-03-29T10:24:26.309Z</time></trkpt><trkpt lat="44.1249867" lon="11.07121"><ele>677.1666666666666</ele><time>2026-03-29T10:24:27.309Z</time></trkpt><trkpt lat="44.1249533" lon="11.0711117"><ele>672.0</ele><time>2026-03-29T10:24:28.312Z</time></trkpt><trkpt lat="44.12493" lon="11.071"><ele>672.0</ele><time>2026-03-29T10:24:29.311Z</time></trkpt><trkpt lat="44.1249133" lon="11.0708767"><ele>672.0</ele><time>2026-03-29T10:24:30.309Z</time></trkpt><trkpt lat="44.1249033" lon="11.0707467"><ele>672.0</ele><time>2026-03-29T10:24:31.309Z</time></trkpt><trkpt lat="44.1248883" lon="11.0706183"><ele>672.0</ele><time>2026-03-29T10:24:32.309Z</time></trkpt><trkpt lat="44.1248683" lon="11.0704883"><ele>672.0</ele><time>2026-03-29T10:24:33.309Z</time></trkpt><trkpt lat="44.1248417" lon="11.0703583"><ele>673.2</ele><time>2026-03-29T10:24:34.31Z</time></trkpt><trkpt lat="44.1248083" lon="11.0702267"><ele>674.4000000000001</ele><time>2026-03-29T10:24:35.31Z</time></trkpt><trkpt lat="44.1247733" lon="11.0700883"><ele>675.5999999999999</ele><time>2026-03-29T10:24:36.31Z</time></trkpt><trkpt lat="44.1247383" lon="11.06996"><ele>676.8</ele><time>2026-03-29T10:24:37.311Z</time></trkpt><trkpt lat="44.124705" lon="11.069835"><ele>678.0</ele><time>2026-03-29T10:24:38.31Z</time></trkpt><trkpt lat="44.1246717" lon="11.0697117"><ele>678.0</ele><time>2026-03-29T10:24:39.311Z</time></trkpt><trkpt lat="44.1246367" lon="11.069595"><ele>678.0</ele><time>2026-03-29T10:24:40.311Z</time></trkpt><trkpt lat="44.1246" lon="11.0694967"><ele>678.0</ele><time>2026-03-29T10:24:41.309Z</time></trkpt><trkpt lat="44.124565" lon="11.069395"><ele>678.0</ele><time>2026-03-29T10:24:42.309Z</time></trkpt><trkpt lat="44.1245317" lon="11.069295"><ele>678.0</ele><time>2026-03-29T10:24:43.309Z</time></trkpt><trkpt lat="44.1245" lon="11.0692"><ele>678.0</ele><time>2026-03-29T10:24:44.312Z</time></trkpt><trkpt lat="44.1244717" lon="11.0691083"><ele>677.8571428571428</ele><time>2026-03-29T10:24:45.309Z</time></trkpt><trkpt lat="44.124445" lon="11.0690183"><ele>677.7142857142858</ele><time>2026-03-29T10:24:46.311Z</time></trkpt><trkpt lat="44.1244183" lon="11.06893"><ele>677.5714285714286</ele><time>2026-03-29T10:24:47.307Z</time></trkpt><trkpt lat="44.1243933" lon="11.068845"><ele>677.4285714285713</ele><time>2026-03-29T10:24:48.31Z</time></trkpt><trkpt lat="44.1243667" lon="11.0687633"><ele>677.2857142857142</ele><time>2026-03-29T10:24:49.309Z</time></trkpt><trkpt lat="44.1243417" lon="11.0686817"><ele>677.1428571428571</ele><time>2026-03-29T10:24:50.311Z</time></trkpt><trkpt lat="44.124295" lon="11.068535"><ele>677.0</ele><time>2026-03-29T10:24:52.311Z</time></trkpt><trkpt lat="44.1242533" lon="11.06839"><ele>677.2</ele><time>2026-03-29T10:24:54.31Z</time></trkpt><trkpt lat="44.1242167" lon="11.0682483"><ele>677.4000000000001</ele><time>2026-03-29T10:24:56.31Z</time></trkpt><trkpt lat="44.12419" lon="11.0681167"><ele>677.5999999999999</ele><time>2026-03-29T10:24:58.309Z</time></trkpt><trkpt lat="44.124165" lon="11.0679917"><ele>677.8</ele><time>2026-03-29T10:25:00.31Z</time></trkpt><trkpt lat="44.1241483" lon="11.0678583"><ele>678.0</ele><time>2026-03-29T10:25:02.31Z</time></trkpt><trkpt lat="44.1241383" lon="11.0677333"><ele>678.0</ele><time>2026-03-29T10:25:04.308Z</time></trkpt><trkpt lat="44.1241367" lon="11.067605"><ele>678.0</ele><time>2026-03-29T10:25:06.31Z</time></trkpt><trkpt lat="44.1241417" lon="11.0674767"><ele>678.0</ele><time>2026-03-29T10:25:08.309Z</time></trkpt><trkpt lat="44.12417" lon="11.0673417"><ele>678.0</ele><time>2026-03-29T10:25:10.308Z</time></trkpt><trkpt lat="44.124245" lon="11.0672133"><ele>678.0</ele><time>2026-03-29T10:25:12.308Z</time></trkpt><trkpt lat="44.1243" lon="11.06716"><ele>678.8571428571428</ele><time>2026-03-29T10:25:13.31Z</time></trkpt><trkpt lat="44.12436" lon="11.06711"><ele>679.7142857142858</ele><time>2026-03-29T10:25:14.309Z</time></trkpt><trkpt lat="44.1244217" lon="11.0670583"><ele>680.5714285714286</ele><time>2026-03-29T10:25:15.31Z</time></trkpt><trkpt lat="44.12448" lon="11.0669967"><ele>681.4285714285713</ele><time>2026-03-29T10:25:16.31Z</time></trkpt><trkpt lat="44.12453" lon="11.0669217"><ele>682.2857142857142</ele><time>2026-03-29T10:25:17.311Z</time></trkpt><trkpt lat="44.1245717" lon="11.0668333"><ele>683.1428571428571</ele><time>2026-03-29T10:25:18.31Z</time></trkpt><trkpt lat="44.1246033" lon="11.0667317"><ele>684.0</ele><time>2026-03-29T10:25:19.31Z</time></trkpt><trkpt lat="44.1246233" lon="11.0666233"><ele>685.3333333333334</ele><time>2026-03-29T10:25:20.31Z</time></trkpt><trkpt lat="44.12464" lon="11.066505"><ele>686.6666666666666</ele><time>2026-03-29T10:25:21.31Z</time></trkpt><trkpt lat="44.1246567" lon="11.066385"><ele>688.0</ele><time>2026-03-29T10:25:22.31Z</time></trkpt><trkpt lat="44.124675" lon="11.0662633"><ele>689.3333333333333</ele><time>2026-03-29T10:25:23.308Z</time></trkpt><trkpt lat="44.1246933" lon="11.0661417"><ele>690.6666666666666</ele><time>2026-03-29T10:25:24.31Z</time></trkpt><trkpt lat="44.12471" lon="11.066025"><ele>692.0</ele><time>2026-03-29T10:25:25.31Z</time></trkpt><trkpt lat="44.1247283" lon="11.0659167"><ele>692.0</ele><time>2026-03-29T10:25:26.311Z</time></trkpt><trkpt lat="44.1247533" lon="11.065815"><ele>692.0</ele><time>2026-03-29T10:25:27.309Z</time></trkpt><trkpt lat="44.1247833" lon="11.0657167"><ele>692.0</ele><time>2026-03-29T10:25:28.31Z</time></trkpt><trkpt lat="44.1248133" lon="11.0656233"><ele>692.0</ele><time>2026-03-29T10:25:29.309Z</time></trkpt><trkpt lat="44.124845" lon="11.0655367"><ele>692.0</ele><time>2026-03-29T10:25:30.311Z</time></trkpt><trkpt lat="44.12488" lon="11.0654467"><ele>692.0</ele><time>2026-03-29T10:25:31.309Z</time></trkpt><trkpt lat="44.1249133" lon="11.065355"><ele>692.0</ele><time>2026-03-29T10:25:32.311Z</time></trkpt><trkpt lat="44.1249483" lon="11.0652633"><ele>692.7142857142857</ele><time>2026-03-29T10:25:33.311Z</time></trkpt><trkpt lat="44.1249933" lon="11.0651767"><ele>693.4285714285714</ele><time>2026-03-29T10:25:34.311Z</time></trkpt><trkpt lat="44.125045" lon="11.0651"><ele>694.1428571428571</ele><time>2026-03-29T10:25:35.311Z</time></trkpt><trkpt lat="44.1250967" lon="11.06504"><ele>694.8571428571429</ele><time>2026-03-29T10:25:36.312Z</time></trkpt><trkpt lat="44.1251533" lon="11.0649883"><ele>695.5714285714286</ele><time>2026-03-29T10:25:37.311Z</time></trkpt><trkpt lat="44.1252117" lon="11.0649417"><ele>696.2857142857143</ele><time>2026-03-29T10:25:38.312Z</time></trkpt><trkpt lat="44.12527" lon="11.0649017"><ele>697.0</ele><time>2026-03-29T10:25:39.311Z</time></trkpt><trkpt lat="44.1253333" lon="11.0648683"><ele>697.0</ele><time>2026-03-29T10:25:40.311Z</time></trkpt><trkpt lat="44.1253983" lon="11.0648483"><ele>697.0</ele><time>2026-03-29T10:25:41.311Z</time></trkpt><trkpt lat="44.125465" lon="11.0648383"><ele>697.0</ele><time>2026-03-29T10:25:42.312Z</time></trkpt><trkpt lat="44.125535" lon="11.0648367"><ele>697.0</ele><time>2026-03-29T10:25:43.31Z</time></trkpt><trkpt lat="44.1256067" lon="11.0648383"><ele>697.0</ele><time>2026-03-29T10:25:44.313Z</time></trkpt><trkpt lat="44.125675" lon="11.064835"><ele>697.0</ele><time>2026-03-29T10:25:45.311Z</time></trkpt><trkpt lat="44.1257417" lon="11.06482"><ele>697.0</ele><time>2026-03-29T10:25:46.31Z</time></trkpt><trkpt lat="44.125805" lon="11.0647933"><ele>696.0</ele><time>2026-03-29T10:25:47.311Z</time></trkpt><trkpt lat="44.125865" lon="11.0647533"><ele>695.0</ele><time>2026-03-29T10:25:48.31Z</time></trkpt><trkpt lat="44.125925" lon="11.0647017"><ele>694.0</ele><time>2026-03-29T10:25:49.31Z</time></trkpt><trkpt lat="44.12598" lon="11.0646433"><ele>693.0</ele><time>2026-03-29T10:25:50.311Z</time></trkpt><trkpt lat="44.1260383" lon="11.0645783"><ele>692.0</ele><time>2026-03-29T10:25:51.31Z</time></trkpt><trkpt lat="44.1260967" lon="11.0645217"><ele>691.0</ele><time>2026-03-29T10:25:52.311Z</time></trkpt><trkpt lat="44.1261583" lon="11.0644783"><ele>690.0</ele><time>2026-03-29T10:25:53.31Z</time></trkpt><trkpt lat="44.12622" lon="11.0644517"><ele>690.0</ele><time>2026-03-29T10:25:54.311Z</time></trkpt><trkpt lat="44.1262883" lon="11.0644317"><ele>690.0</ele><time>2026-03-29T10:25:55.31Z</time></trkpt><trkpt lat="44.1263517" lon="11.06441"><ele>690.0</ele><time>2026-03-29T10:25:56.312Z</time></trkpt><trkpt lat="44.1264617" lon="11.064345"><ele>690.0</ele><time>2026-03-29T10:25:58.31Z</time></trkpt><trkpt lat="44.1265183" lon="11.0642167"><ele>690.0</ele><time>2026-03-29T10:26:00.309Z</time></trkpt><trkpt lat="44.126525" lon="11.0640533"><ele>689.4285714285714</ele><time>2026-03-29T10:26:02.308Z</time></trkpt><trkpt lat="44.1265283" lon="11.06396"><ele>688.8571428571429</ele><time>2026-03-29T10:26:03.308Z</time></trkpt><trkpt lat="44.1265367" lon="11.0638583"><ele>688.2857142857142</ele><time>2026-03-29T10:26:04.309Z</time></trkpt><trkpt lat="44.126555" lon="11.0637517"><ele>687.7142857142858</ele><time>2026-03-29T10:26:05.31Z</time></trkpt><trkpt lat="44.1265667" lon="11.063665"><ele>687.1428571428571</ele><time>2026-03-29T10:26:06.307Z</time></trkpt><trkpt lat="44.1265867" lon="11.0635633"><ele>686.5714285714286</ele><time>2026-03-29T10:26:07.308Z</time></trkpt><trkpt lat="44.1266117" lon="11.063455"><ele>686.0</ele><time>2026-03-29T10:26:08.308Z</time></trkpt><trkpt lat="44.1266333" lon="11.0633517"><ele>683.0</ele><time>2026-03-29T10:26:09.308Z</time></trkpt><trkpt lat="44.1266667" lon="11.063235"><ele>680.0</ele><time>2026-03-29T10:26:10.311Z</time></trkpt><trkpt lat="44.1267033" lon="11.0631183"><ele>677.0</ele><time>2026-03-29T10:26:11.311Z</time></trkpt><trkpt lat="44.1267533" lon="11.0630117"><ele>674.0</ele><time>2026-03-29T10:26:12.309Z</time></trkpt><trkpt lat="44.1268217" lon="11.0629167"><ele>671.0</ele><time>2026-03-29T10:26:13.31Z</time></trkpt><trkpt lat="44.1268917" lon="11.0628333"><ele>671.0</ele><time>2026-03-29T10:26:14.31Z</time></trkpt><trkpt lat="44.1269617" lon="11.06275"><ele>671.0</ele><time>2026-03-29T10:26:15.309Z</time></trkpt><trkpt lat="44.1270233" lon="11.0626617"><ele>671.0</ele><time>2026-03-29T10:26:16.309Z</time></trkpt><trkpt lat="44.1270767" lon="11.062565"><ele>671.0</ele><time>2026-03-29T10:26:17.308Z</time></trkpt><trkpt lat="44.1271233" lon="11.0624633"><ele>671.0</ele><time>2026-03-29T10:26:18.309Z</time></trkpt><trkpt lat="44.1271583" lon="11.062355"><ele>671.0</ele><time>2026-03-29T10:26:19.309Z</time></trkpt><trkpt lat="44.1271733" lon="11.062245"><ele>670.6666666666666</ele><time>2026-03-29T10:26:20.31Z</time></trkpt><trkpt lat="44.12717" lon="11.062135"><ele>670.3333333333333</ele><time>2026-03-29T10:26:21.308Z</time></trkpt><trkpt lat="44.127145" lon="11.0620333"><ele>670.0</ele><time>2026-03-29T10:26:22.31Z</time></trkpt><trkpt lat="44.1271017" lon="11.0619417"><ele>669.6666666666666</ele><time>2026-03-29T10:26:23.31Z</time></trkpt><trkpt lat="44.127045" lon="11.0618617"><ele>669.3333333333334</ele><time>2026-03-29T10:26:24.31Z</time></trkpt><trkpt lat="44.1269867" lon="11.061785"><ele>669.0</ele><time>2026-03-29T10:26:25.308Z</time></trkpt><trkpt lat="44.126925" lon="11.06172"><ele>669.0</ele><time>2026-03-29T10:26:26.31Z</time></trkpt><trkpt lat="44.12686" lon="11.061665"><ele>669.0</ele><time>2026-03-29T10:26:27.31Z</time></trkpt><trkpt lat="44.1267917" lon="11.0616133"><ele>669.0</ele><time>2026-03-29T10:26:28.308Z</time></trkpt><trkpt lat="44.1267233" lon="11.0615567"><ele>669.0</ele><time>2026-03-29T10:26:29.311Z</time></trkpt><trkpt lat="44.1266533" lon="11.0615033"><ele>669.0</ele><time>2026-03-29T10:26:30.31Z</time></trkpt><trkpt lat="44.12658" lon="11.0614517"><ele>669.0</ele><time>2026-03-29T10:26:31.311Z</time></trkpt><trkpt lat="44.1265067" lon="11.061405"><ele>667.1666666666666</ele><time>2026-03-29T10:26:32.31Z</time></trkpt><trkpt lat="44.12643" lon="11.0613583"><ele>665.3333333333334</ele><time>2026-03-29T10:26:33.31Z</time></trkpt><trkpt lat="44.1263517" lon="11.0613267"><ele>663.5</ele><time>2026-03-29T10:26:34.311Z</time></trkpt><trkpt lat="44.1262733" lon="11.0613033"><ele>661.6666666666667</ele><time>2026-03-29T10:26:35.309Z</time></trkpt><trkpt lat="44.1261917" lon="11.0612917"><ele>659.8333333333334</ele><time>2026-03-29T10:26:36.309Z</time></trkpt><trkpt lat="44.1261083" lon="11.06129"><ele>658.0</ele><time>2026-03-29T10:26:37.312Z</time></trkpt><trkpt lat="44.126025" lon="11.061285"><ele>658.0</ele><time>2026-03-29T10:26:38.31Z</time></trkpt><trkpt lat="44.1259433" lon="11.0612783"><ele>658.0</ele><time>2026-03-29T10:26:39.309Z</time></trkpt><trkpt lat="44.1258667" lon="11.061275"><ele>658.0</ele><time>2026-03-29T10:26:40.309Z</time></trkpt><trkpt lat="44.1258017" lon="11.0612617"><ele>658.0</ele><time>2026-03-29T10:26:41.31Z</time></trkpt><trkpt lat="44.12574" lon="11.0612433"><ele>658.0</ele><time>2026-03-29T10:26:42.31Z</time></trkpt><trkpt lat="44.1256383" lon="11.0611617"><ele>658.0</ele><time>2026-03-29T10:26:44.309Z</time></trkpt><trkpt lat="44.1256233" lon="11.0610333"><ele>658.0</ele><time>2026-03-29T10:26:46.31Z</time></trkpt><trkpt lat="44.125685" lon="11.0609217"><ele>658.0</ele><time>2026-03-29T10:26:48.311Z</time></trkpt><trkpt lat="44.1257867" lon="11.060865"><ele>658.0</ele><time>2026-03-29T10:26:50.309Z</time></trkpt><trkpt lat="44.1258467" lon="11.0608317"><ele>658.0</ele><time>2026-03-29T10:26:51.31Z</time></trkpt><trkpt lat="44.1259083" lon="11.060795"><ele>658.0</ele><time>2026-03-29T10:26:52.31Z</time></trkpt><trkpt lat="44.1259683" lon="11.0607617"><ele>658.0</ele><time>2026-03-29T10:26:53.31Z</time></trkpt><trkpt lat="44.1260383" lon="11.0607217"><ele>656.5</ele><time>2026-03-29T10:26:54.31Z</time></trkpt><trkpt lat="44.12611" lon="11.0606917"><ele>655.0</ele><time>2026-03-29T10:26:55.308Z</time></trkpt><trkpt lat="44.1261833" lon="11.0606583"><ele>653.5</ele><time>2026-03-29T10:26:56.311Z</time></trkpt><trkpt lat="44.1262583" lon="11.0606133"><ele>652.0</ele><time>2026-03-29T10:26:57.311Z</time></trkpt><trkpt lat="44.126335" lon="11.0605717"><ele>650.5</ele><time>2026-03-29T10:26:58.31Z</time></trkpt><trkpt lat="44.1264167" lon="11.0605383"><ele>649.0</ele><time>2026-03-29T10:26:59.31Z</time></trkpt><trkpt lat="44.1264983" lon="11.0605067"><ele>649.2</ele><time>2026-03-29T10:27:00.309Z</time></trkpt><trkpt lat="44.1265883" lon="11.060485"><ele>649.4000000000001</ele><time>2026-03-29T10:27:01.311Z</time></trkpt><trkpt lat="44.1266883" lon="11.0604633"><ele>649.6</ele><time>2026-03-29T10:27:02.311Z</time></trkpt><trkpt lat="44.1267867" lon="11.0604583"><ele>649.8</ele><time>2026-03-29T10:27:03.31Z</time></trkpt><trkpt lat="44.1268833" lon="11.0604667"><ele>650.0</ele><time>2026-03-29T10:27:04.308Z</time></trkpt><trkpt lat="44.1269783" lon="11.0604733"><ele>650.0</ele><time>2026-03-29T10:27:05.31Z</time></trkpt><trkpt lat="44.12707" lon="11.06047"><ele>650.0</ele><time>2026-03-29T10:27:06.308Z</time></trkpt><trkpt lat="44.1271633" lon="11.060455"><ele>650.0</ele><time>2026-03-29T10:27:07.309Z</time></trkpt><trkpt lat="44.12726" lon="11.060415"><ele>650.0</ele><time>2026-03-29T10:27:08.309Z</time></trkpt><trkpt lat="44.1273533" lon="11.060365"><ele>650.0</ele><time>2026-03-29T10:27:09.31Z</time></trkpt><trkpt lat="44.1274433" lon="11.060295"><ele>649.0</ele><time>2026-03-29T10:27:10.309Z</time></trkpt><trkpt lat="44.1275367" lon="11.06022"><ele>648.0</ele><time>2026-03-29T10:27:11.311Z</time></trkpt><trkpt lat="44.1276317" lon="11.060145"><ele>647.0</ele><time>2026-03-29T10:27:12.308Z</time></trkpt><trkpt lat="44.1277283" lon="11.06007"><ele>646.0</ele><time>2026-03-29T10:27:13.309Z</time></trkpt><trkpt lat="44.1278217" lon="11.0599917"><ele>645.0</ele><time>2026-03-29T10:27:14.312Z</time></trkpt><trkpt lat="44.1279167" lon="11.05991"><ele>643.2</ele><time>2026-03-29T10:27:15.31Z</time></trkpt><trkpt lat="44.128005" lon="11.0598283"><ele>641.4</ele><time>2026-03-29T10:27:16.31Z</time></trkpt><trkpt lat="44.1280933" lon="11.0597617"><ele>639.6</ele><time>2026-03-29T10:27:17.311Z</time></trkpt><trkpt lat="44.1281833" lon="11.0597017"><ele>637.8</ele><time>2026-03-29T10:27:18.311Z</time></trkpt><trkpt lat="44.1282667" lon="11.059645"><ele>636.0</ele><time>2026-03-29T10:27:19.311Z</time></trkpt><trkpt lat="44.1283617" lon="11.0596167"><ele>635.2</ele><time>2026-03-29T10:27:20.311Z</time></trkpt><trkpt lat="44.1284567" lon="11.0596067"><ele>634.4000000000001</ele><time>2026-03-29T10:27:21.311Z</time></trkpt><trkpt lat="44.1285583" lon="11.0596017"><ele>633.6</ele><time>2026-03-29T10:27:22.309Z</time></trkpt><trkpt lat="44.12866" lon="11.0595983"><ele>632.8000000000001</ele><time>2026-03-29T10:27:23.311Z</time></trkpt><trkpt lat="44.1287617" lon="11.0595967"><ele>632.0</ele><time>2026-03-29T10:27:24.311Z</time></trkpt><trkpt lat="44.12886" lon="11.0595883"><ele>632.0</ele><time>2026-03-29T10:27:25.311Z</time></trkpt><trkpt lat="44.12896" lon="11.0595817"><ele>632.0</ele><time>2026-03-29T10:27:26.31Z</time></trkpt><trkpt lat="44.129055" lon="11.0595683"><ele>632.0</ele><time>2026-03-29T10:27:27.31Z</time></trkpt><trkpt lat="44.12914" lon="11.0595483"><ele>632.0</ele><time>2026-03-29T10:27:28.312Z</time></trkpt><trkpt lat="44.1292133" lon="11.0595233"><ele>632.0</ele><time>2026-03-29T10:27:29.31Z</time></trkpt><trkpt lat="44.1292783" lon="11.059495"><ele>632.0</ele><time>2026-03-29T10:27:30.31Z</time></trkpt><trkpt lat="44.1293783" lon="11.05946"><ele>632.2857142857143</ele><time>2026-03-29T10:27:32.309Z</time></trkpt><trkpt lat="44.12943" lon="11.0594033"><ele>632.5714285714286</ele><time>2026-03-29T10:27:34.311Z</time></trkpt><trkpt lat="44.129485" lon="11.0593467"><ele>632.8571428571429</ele><time>2026-03-29T10:27:36.311Z</time></trkpt><trkpt lat="44.12952" lon="11.0592517"><ele>633.1428571428571</ele><time>2026-03-29T10:27:38.31Z</time></trkpt><trkpt lat="44.1295533" lon="11.059115"><ele>633.4285714285714</ele><time>2026-03-29T10:27:40.31Z</time></trkpt><trkpt lat="44.1295767" lon="11.05903"><ele>633.7142857142858</ele><time>2026-03-29T10:27:41.311Z</time></trkpt><trkpt lat="44.1296033" lon="11.0589433"><ele>634.0</ele><time>2026-03-29T10:27:42.309Z</time></trkpt><trkpt lat="44.1296317" lon="11.058855"><ele>632.6666666666667</ele><time>2026-03-29T10:27:43.309Z</time></trkpt><trkpt lat="44.12966" lon="11.058765"><ele>631.3333333333334</ele><time>2026-03-29T10:27:44.311Z</time></trkpt><trkpt lat="44.129685" lon="11.05868"><ele>630.0</ele><time>2026-03-29T10:27:45.311Z</time></trkpt><trkpt lat="44.1297167" lon="11.0585533"><ele>628.6666666666666</ele><time>2026-03-29T10:27:47.311Z</time></trkpt><trkpt lat="44.1296633" lon="11.058495"><ele>627.3333333333333</ele><time>2026-03-29T10:31:53.308Z</time></trkpt><trkpt lat="44.1295967" lon="11.058455"><ele>626.0</ele><time>2026-03-29T10:31:55.312Z</time></trkpt><trkpt lat="44.1295017" lon="11.0585217"><ele>626.0</ele><time>2026-03-29T10:31:57.31Z</time></trkpt><trkpt lat="44.1294" lon="11.0586133"><ele>626.0</ele><time>2026-03-29T10:31:59.31Z</time></trkpt><trkpt lat="44.12929" lon="11.0587133"><ele>626.0</ele><time>2026-03-29T10:32:01.312Z</time></trkpt><trkpt lat="44.12923" lon="11.058765"><ele>626.0</ele><time>2026-03-29T10:32:02.311Z</time></trkpt><trkpt lat="44.12917" lon="11.0588067"><ele>626.0</ele><time>2026-03-29T10:32:03.312Z</time></trkpt><trkpt lat="44.1291067" lon="11.058835"><ele>625.2857142857142</ele><time>2026-03-29T10:32:04.311Z</time></trkpt><trkpt lat="44.1290367" lon="11.0588483"><ele>624.5714285714286</ele><time>2026-03-29T10:32:05.31Z</time></trkpt><trkpt lat="44.1289667" lon="11.058845"><ele>623.8571428571429</ele><time>2026-03-29T10:32:06.313Z</time></trkpt><trkpt lat="44.1288983" lon="11.0588233"><ele>623.1428571428571</ele><time>2026-03-29T10:32:07.311Z</time></trkpt><trkpt lat="44.12884" lon="11.0587867"><ele>622.4285714285714</ele><time>2026-03-29T10:32:08.311Z</time></trkpt><trkpt lat="44.1287817" lon="11.0587417"><ele>621.7142857142857</ele><time>2026-03-29T10:32:09.308Z</time></trkpt><trkpt lat="44.12872" lon="11.0586883"><ele>621.0</ele><time>2026-03-29T10:32:10.308Z</time></trkpt><trkpt lat="44.128655" lon="11.0586367"><ele>621.0</ele><time>2026-03-29T10:32:11.31Z</time></trkpt><trkpt lat="44.1285867" lon="11.0585833"><ele>621.0</ele><time>2026-03-29T10:32:12.31Z</time></trkpt><trkpt lat="44.12852" lon="11.05852"><ele>621.0</ele><time>2026-03-29T10:32:13.31Z</time></trkpt><trkpt lat="44.1284317" lon="11.0584633"><ele>621.0</ele><time>2026-03-29T10:32:14.308Z</time></trkpt><trkpt lat="44.1283633" lon="11.0584017"><ele>621.0</ele><time>2026-03-29T10:32:15.31Z</time></trkpt><trkpt lat="44.1282967" lon="11.0583433"><ele>621.0</ele><time>2026-03-29T10:32:16.308Z</time></trkpt><trkpt lat="44.1282317" lon="11.0582883"><ele>620.2</ele><time>2026-03-29T10:32:17.31Z</time></trkpt><trkpt lat="44.1281717" lon="11.0582367"><ele>619.4000000000001</ele><time>2026-03-29T10:32:18.31Z</time></trkpt><trkpt lat="44.1281167" lon="11.058185"><ele>618.6</ele><time>2026-03-29T10:32:19.309Z</time></trkpt><trkpt lat="44.128015" lon="11.0580883"><ele>617.8000000000001</ele><time>2026-03-29T10:32:21.309Z</time></trkpt><trkpt lat="44.12794" lon="11.0579883"><ele>617.0</ele><time>2026-03-29T10:32:23.31Z</time></trkpt><trkpt lat="44.12794" lon="11.057845"><ele>617.0</ele><time>2026-03-29T10:32:25.31Z</time></trkpt><trkpt lat="44.12803" lon="11.0577417"><ele>617.0</ele><time>2026-03-29T10:32:27.31Z</time></trkpt><trkpt lat="44.1281017" lon="11.0577283"><ele>617.0</ele><time>2026-03-29T10:32:28.309Z</time></trkpt><trkpt lat="44.1281783" lon="11.0577217"><ele>617.0</ele><time>2026-03-29T10:32:29.31Z</time></trkpt><trkpt lat="44.1282633" lon="11.0577117"><ele>617.0</ele><time>2026-03-29T10:32:30.309Z</time></trkpt><trkpt lat="44.1283517" lon="11.0576933"><ele>617.0</ele><time>2026-03-29T10:32:31.31Z</time></trkpt><trkpt lat="44.1284417" lon="11.0576683"><ele>615.6</ele><time>2026-03-29T10:32:32.311Z</time></trkpt><trkpt lat="44.1285333" lon="11.05763"><ele>614.2</ele><time>2026-03-29T10:32:33.308Z</time></trkpt><trkpt lat="44.1286217" lon="11.0575733"><ele>612.8</ele><time>2026-03-29T10:32:34.309Z</time></trkpt><trkpt lat="44.128705" lon="11.057495"><ele>611.4</ele><time>2026-03-29T10:32:35.31Z</time></trkpt><trkpt lat="44.12878" lon="11.0574"><ele>610.0</ele><time>2026-03-29T10:32:36.31Z</time></trkpt><trkpt lat="44.1288517" lon="11.05729"><ele>608.6</ele><time>2026-03-29T10:32:37.31Z</time></trkpt><trkpt lat="44.1289233" lon="11.0571733"><ele>607.2</ele><time>2026-03-29T10:32:38.31Z</time></trkpt><trkpt lat="44.1289967" lon="11.057055"><ele>605.8</ele><time>2026-03-29T10:32:39.31Z</time></trkpt><trkpt lat="44.1290667" lon="11.056935"><ele>604.4</ele><time>2026-03-29T10:32:40.311Z</time></trkpt><trkpt lat="44.1291317" lon="11.0568167"><ele>603.0</ele><time>2026-03-29T10:32:41.312Z</time></trkpt><trkpt lat="44.129195" lon="11.056695"><ele>601.4</ele><time>2026-03-29T10:32:42.31Z</time></trkpt><trkpt lat="44.1292567" lon="11.056575"><ele>599.8</ele><time>2026-03-29T10:32:43.308Z</time></trkpt><trkpt lat="44.129315" lon="11.0564567"><ele>598.2</ele><time>2026-03-29T10:32:44.311Z</time></trkpt><trkpt lat="44.1293667" lon="11.0563367"><ele>596.6</ele><time>2026-03-29T10:32:45.312Z</time></trkpt><trkpt lat="44.129415" lon="11.0562133"><ele>595.0</ele><time>2026-03-29T10:32:46.31Z</time></trkpt><trkpt lat="44.1294533" lon="11.0560883"><ele>595.0</ele><time>2026-03-29T10:32:47.309Z</time></trkpt><trkpt lat="44.1294917" lon="11.05596"><ele>595.0</ele><time>2026-03-29T10:32:48.311Z</time></trkpt><trkpt lat="44.1295233" lon="11.05583"><ele>595.0</ele><time>2026-03-29T10:32:49.308Z</time></trkpt><trkpt lat="44.12955" lon="11.0557033"><ele>595.0</ele><time>2026-03-29T10:32:50.31Z</time></trkpt><trkpt lat="44.1295767" lon="11.055575"><ele>595.0</ele><time>2026-03-29T10:32:51.309Z</time></trkpt><trkpt lat="44.129605" lon="11.0554467"><ele>593.4</ele><time>2026-03-29T10:32:52.31Z</time></trkpt><trkpt lat="44.1296333" lon="11.0553217"><ele>591.8</ele><time>2026-03-29T10:32:53.31Z</time></trkpt><trkpt lat="44.1296583" lon="11.055205"><ele>590.2</ele><time>2026-03-29T10:32:54.31Z</time></trkpt><trkpt lat="44.1296883" lon="11.05509"><ele>588.6</ele><time>2026-03-29T10:32:55.311Z</time></trkpt><trkpt lat="44.1297267" lon="11.054975"><ele>587.0</ele><time>2026-03-29T10:32:56.311Z</time></trkpt><trkpt lat="44.1297767" lon="11.0548683"><ele>586.4</ele><time>2026-03-29T10:32:57.312Z</time></trkpt><trkpt lat="44.1298417" lon="11.054775"><ele>585.8000000000001</ele><time>2026-03-29T10:32:58.311Z</time></trkpt><trkpt lat="44.1299167" lon="11.054695"><ele>585.2</ele><time>2026-03-29T10:32:59.31Z</time></trkpt><trkpt lat="44.1300017" lon="11.054615"><ele>584.6</ele><time>2026-03-29T10:33:00.31Z</time></trkpt><trkpt lat="44.1300883" lon="11.0545383"><ele>584.0</ele><time>2026-03-29T10:33:01.309Z</time></trkpt><trkpt lat="44.1301783" lon="11.05446"><ele>584.0</ele><time>2026-03-29T10:33:02.31Z</time></trkpt><trkpt lat="44.130265" lon="11.0543783"><ele>584.0</ele><time>2026-03-29T10:33:03.31Z</time></trkpt><trkpt lat="44.130355" lon="11.05429"><ele>584.0</ele><time>2026-03-29T10:33:04.311Z</time></trkpt><trkpt lat="44.1304433" lon="11.054205"><ele>584.0</ele><time>2026-03-29T10:33:05.311Z</time></trkpt><trkpt lat="44.1305267" lon="11.0541133"><ele>584.0</ele><time>2026-03-29T10:33:06.309Z</time></trkpt><trkpt lat="44.1306067" lon="11.0540167"><ele>583.0</ele><time>2026-03-29T10:33:07.31Z</time></trkpt><trkpt lat="44.1306783" lon="11.0539183"><ele>582.0</ele><time>2026-03-29T10:33:08.311Z</time></trkpt><trkpt lat="44.1307467" lon="11.0538217"><ele>581.0</ele><time>2026-03-29T10:33:09.312Z</time></trkpt><trkpt lat="44.130815" lon="11.0537383"><ele>580.0</ele><time>2026-03-29T10:33:10.31Z</time></trkpt><trkpt lat="44.1308867" lon="11.0536717"><ele>579.0</ele><time>2026-03-29T10:33:11.31Z</time></trkpt><trkpt lat="44.1309717" lon="11.0536217"><ele>579.0</ele><time>2026-03-29T10:33:12.308Z</time></trkpt><trkpt lat="44.1310633" lon="11.0535933"><ele>579.0</ele><time>2026-03-29T10:33:13.308Z</time></trkpt><trkpt lat="44.1311533" lon="11.0535783"><ele>579.0</ele><time>2026-03-29T10:33:14.309Z</time></trkpt><trkpt lat="44.1312417" lon="11.0535533"><ele>579.0</ele><time>2026-03-29T10:33:15.308Z</time></trkpt><trkpt lat="44.13132" lon="11.0535083"><ele>579.0</ele><time>2026-03-29T10:33:16.31Z</time></trkpt><trkpt lat="44.1313867" lon="11.053445"><ele>579.0</ele><time>2026-03-29T10:33:17.31Z</time></trkpt><trkpt lat="44.13145" lon="11.0533683"><ele>578.3333333333334</ele><time>2026-03-29T10:33:18.308Z</time></trkpt><trkpt lat="44.1315033" lon="11.05327"><ele>577.6666666666666</ele><time>2026-03-29T10:33:19.31Z</time></trkpt><trkpt lat="44.1315567" lon="11.0531733"><ele>577.0</ele><time>2026-03-29T10:33:20.313Z</time></trkpt><trkpt lat="44.131615" lon="11.0530783"><ele>576.3333333333333</ele><time>2026-03-29T10:33:21.31Z</time></trkpt><trkpt lat="44.1316733" lon="11.0529833"><ele>575.6666666666666</ele><time>2026-03-29T10:33:22.309Z</time></trkpt><trkpt lat="44.1317333" lon="11.0528883"><ele>575.0</ele><time>2026-03-29T10:33:23.311Z</time></trkpt><trkpt lat="44.131795" lon="11.0527933"><ele>575.0</ele><time>2026-03-29T10:33:24.31Z</time></trkpt><trkpt lat="44.13186" lon="11.0526983"><ele>575.0</ele><time>2026-03-29T10:33:25.308Z</time></trkpt><trkpt lat="44.1319267" lon="11.0525967"><ele>575.0</ele><time>2026-03-29T10:33:26.308Z</time></trkpt><trkpt lat="44.132" lon="11.0524917"><ele>575.0</ele><time>2026-03-29T10:33:27.309Z</time></trkpt><trkpt lat="44.1320733" lon="11.0523883"><ele>575.0</ele><time>2026-03-29T10:33:28.311Z</time></trkpt><trkpt lat="44.1321517" lon="11.05229"><ele>574.2</ele><time>2026-03-29T10:33:29.314Z</time></trkpt><trkpt lat="44.1322433" lon="11.0522"><ele>573.4</ele><time>2026-03-29T10:33:30.31Z</time></trkpt><trkpt lat="44.1323417" lon="11.05213"><ele>572.6</ele><time>2026-03-29T10:33:31.312Z</time></trkpt><trkpt lat="44.1324417" lon="11.0520667"><ele>571.8</ele><time>2026-03-29T10:33:32.312Z</time></trkpt><trkpt lat="44.1325367" lon="11.0520017"><ele>571.0</ele><time>2026-03-29T10:33:33.311Z</time></trkpt><trkpt lat="44.132625" lon="11.0519267"><ele>571.0</ele><time>2026-03-29T10:33:34.31Z</time></trkpt><trkpt lat="44.1327083" lon="11.0518367"><ele>571.0</ele><time>2026-03-29T10:33:35.312Z</time></trkpt><trkpt lat="44.13279" lon="11.0517367"><ele>571.0</ele><time>2026-03-29T10:33:36.31Z</time></trkpt><trkpt lat="44.132865" lon="11.0516217"><ele>571.0</ele><time>2026-03-29T10:33:37.31Z</time></trkpt><trkpt lat="44.13293" lon="11.0515033"><ele>571.0</ele><time>2026-03-29T10:33:38.309Z</time></trkpt><trkpt lat="44.1329917" lon="11.051385"><ele>570.0</ele><time>2026-03-29T10:33:39.31Z</time></trkpt><trkpt lat="44.133055" lon="11.0512617"><ele>569.0</ele><time>2026-03-29T10:33:40.31Z</time></trkpt><trkpt lat="44.133125" lon="11.05114"><ele>568.0</ele><time>2026-03-29T10:33:41.31Z</time></trkpt><trkpt lat="44.1332" lon="11.0510233"><ele>567.0</ele><time>2026-03-29T10:33:42.309Z</time></trkpt><trkpt lat="44.1332717" lon="11.0509167"><ele>566.0</ele><time>2026-03-29T10:33:43.308Z</time></trkpt><trkpt lat="44.13334" lon="11.0508167"><ele>564.0</ele><time>2026-03-29T10:33:44.308Z</time></trkpt><trkpt lat="44.133405" lon="11.0507217"><ele>562.0</ele><time>2026-03-29T10:33:45.31Z</time></trkpt><trkpt lat="44.13346" lon="11.0506283"><ele>560.0</ele><time>2026-03-29T10:33:46.309Z</time></trkpt><trkpt lat="44.1335117" lon="11.0505283"><ele>558.0</ele><time>2026-03-29T10:33:47.309Z</time></trkpt><trkpt lat="44.13356" lon="11.05042"><ele>556.0</ele><time>2026-03-29T10:33:48.31Z</time></trkpt><trkpt lat="44.1336033" lon="11.0503033"><ele>556.0</ele><time>2026-03-29T10:33:49.308Z</time></trkpt><trkpt lat="44.133635" lon="11.0501733"><ele>556.0</ele><time>2026-03-29T10:33:50.31Z</time></trkpt><trkpt lat="44.1336617" lon="11.050035"><ele>556.0</ele><time>2026-03-29T10:33:51.308Z</time></trkpt><trkpt lat="44.13368" lon="11.04989"><ele>556.0</ele><time>2026-03-29T10:33:52.31Z</time></trkpt><trkpt lat="44.1336933" lon="11.0497433"><ele>556.0</ele><time>2026-03-29T10:33:53.31Z</time></trkpt><trkpt lat="44.133705" lon="11.0495983"><ele>554.4</ele><time>2026-03-29T10:33:54.309Z</time></trkpt><trkpt lat="44.133715" lon="11.0494583"><ele>552.8</ele><time>2026-03-29T10:33:55.31Z</time></trkpt><trkpt lat="44.133725" lon="11.0493267"><ele>551.1999999999999</ele><time>2026-03-29T10:33:56.311Z</time></trkpt><trkpt lat="44.1337317" lon="11.0491983"><ele>549.6</ele><time>2026-03-29T10:33:57.311Z</time></trkpt><trkpt lat="44.133735" lon="11.0490683"><ele>548.0</ele><time>2026-03-29T10:33:58.311Z</time></trkpt><trkpt lat="44.1337233" lon="11.04894"><ele>546.4</ele><time>2026-03-29T10:33:59.31Z</time></trkpt><trkpt lat="44.133705" lon="11.048815"><ele>544.8</ele><time>2026-03-29T10:34:00.31Z</time></trkpt><trkpt lat="44.1336817" lon="11.0486933"><ele>543.2</ele><time>2026-03-29T10:34:01.309Z</time></trkpt><trkpt lat="44.1336633" lon="11.0485717"><ele>541.6</ele><time>2026-03-29T10:34:02.309Z</time></trkpt><trkpt lat="44.1336583" lon="11.048445"><ele>540.0</ele><time>2026-03-29T10:34:03.309Z</time></trkpt><trkpt lat="44.1336717" lon="11.048315"><ele>538.1666666666666</ele><time>2026-03-29T10:34:04.31Z</time></trkpt><trkpt lat="44.133695" lon="11.0481867"><ele>536.3333333333334</ele><time>2026-03-29T10:34:05.31Z</time></trkpt><trkpt lat="44.133725" lon="11.0480667"><ele>534.5</ele><time>2026-03-29T10:34:06.31Z</time></trkpt><trkpt lat="44.1337533" lon="11.0479567"><ele>532.6666666666667</ele><time>2026-03-29T10:34:07.309Z</time></trkpt><trkpt lat="44.1337767" lon="11.047855"><ele>530.8333333333334</ele><time>2026-03-29T10:34:08.31Z</time></trkpt><trkpt lat="44.1337983" lon="11.0477567"><ele>529.0</ele><time>2026-03-29T10:34:09.31Z</time></trkpt><trkpt lat="44.1338167" lon="11.0476683"><ele>529.0</ele><time>2026-03-29T10:34:10.311Z</time></trkpt><trkpt lat="44.13381" lon="11.04751"><ele>529.0</ele><time>2026-03-29T10:34:12.31Z</time></trkpt><trkpt lat="44.1337367" lon="11.0474283"><ele>529.0</ele><time>2026-03-29T10:34:14.311Z</time></trkpt><trkpt lat="44.13365" lon="11.0475317"><ele>529.0</ele><time>2026-03-29T10:34:16.31Z</time></trkpt><trkpt lat="44.1336267" lon="11.0476217"><ele>529.0</ele><time>2026-03-29T10:34:17.314Z</time></trkpt><trkpt lat="44.13361" lon="11.0477233"><ele>529.0</ele><time>2026-03-29T10:34:18.311Z</time></trkpt><trkpt lat="44.1336" lon="11.0478267"><ele>529.0</ele><time>2026-03-29T10:34:19.31Z</time></trkpt><trkpt lat="44.1335817" lon="11.0479367"><ele>529.0</ele><time>2026-03-29T10:34:20.311Z</time></trkpt><trkpt lat="44.1335567" lon="11.0480533"><ele>529.0</ele><time>2026-03-29T10:34:21.309Z</time></trkpt><trkpt lat="44.1335267" lon="11.0481717"><ele>529.0</ele><time>2026-03-29T10:34:22.309Z</time></trkpt><trkpt lat="44.1334883" lon="11.0482983"><ele>529.0</ele><time>2026-03-29T10:34:23.31Z</time></trkpt><trkpt lat="44.133445" lon="11.0484283"><ele>531.2</ele><time>2026-03-29T10:34:24.31Z</time></trkpt><trkpt lat="44.1334" lon="11.0485583"><ele>533.4</ele><time>2026-03-29T10:34:25.309Z</time></trkpt><trkpt lat="44.1333567" lon="11.0486917"><ele>535.6</ele><time>2026-03-29T10:34:26.311Z</time></trkpt><trkpt lat="44.13331" lon="11.0488167"><ele>537.8</ele><time>2026-03-29T10:34:27.31Z</time></trkpt><trkpt lat="44.133255" lon="11.04893"><ele>540.0</ele><time>2026-03-29T10:34:28.309Z</time></trkpt><trkpt lat="44.1331883" lon="11.049035"><ele>538.4</ele><time>2026-03-29T10:34:29.31Z</time></trkpt><trkpt lat="44.133105" lon="11.04912"><ele>536.8</ele><time>2026-03-29T10:34:30.31Z</time></trkpt><trkpt lat="44.1330117" lon="11.0491867"><ele>535.2</ele><time>2026-03-29T10:34:31.309Z</time></trkpt><trkpt lat="44.1329117" lon="11.0492383"><ele>533.6</ele><time>2026-03-29T10:34:32.31Z</time></trkpt><trkpt lat="44.132815" lon="11.0492833"><ele>532.0</ele><time>2026-03-29T10:34:33.309Z</time></trkpt><trkpt lat="44.132725" lon="11.0493333"><ele>532.0</ele><time>2026-03-29T10:34:34.308Z</time></trkpt><trkpt lat="44.1326467" lon="11.0493883"><ele>532.0</ele><time>2026-03-29T10:34:35.308Z</time></trkpt><trkpt lat="44.1325817" lon="11.0494433"><ele>532.0</ele><time>2026-03-29T10:34:36.308Z</time></trkpt><trkpt lat="44.1325217" lon="11.0494883"><ele>532.0</ele><time>2026-03-29T10:34:37.307Z</time></trkpt><trkpt lat="44.1324133" lon="11.0494983"><ele>532.0</ele><time>2026-03-29T10:34:39.308Z</time></trkpt><trkpt lat="44.13237" lon="11.0493717"><ele>532.0</ele><time>2026-03-29T10:34:41.309Z</time></trkpt><trkpt lat="44.1324467" lon="11.049215"><ele>532.0</ele><time>2026-03-29T10:34:43.309Z</time></trkpt><trkpt lat="44.13252" lon="11.049155"><ele>532.0</ele><time>2026-03-29T10:34:44.308Z</time></trkpt><trkpt lat="44.1326067" lon="11.049115"><ele>532.0</ele><time>2026-03-29T10:34:45.309Z</time></trkpt><trkpt lat="44.1327" lon="11.04908"><ele>532.0</ele><time>2026-03-29T10:34:46.309Z</time></trkpt><trkpt lat="44.1327883" lon="11.04904"><ele>532.0</ele><time>2026-03-29T10:34:47.309Z</time></trkpt><trkpt lat="44.1328683" lon="11.048975"><ele>528.4</ele><time>2026-03-29T10:34:48.307Z</time></trkpt><trkpt lat="44.132935" lon="11.0488817"><ele>524.8000000000001</ele><time>2026-03-29T10:34:49.309Z</time></trkpt><trkpt lat="44.132985" lon="11.0487683"><ele>521.2</ele><time>2026-03-29T10:34:50.31Z</time></trkpt><trkpt lat="44.13302" lon="11.0486383"><ele>517.6</ele><time>2026-03-29T10:34:51.308Z</time></trkpt><trkpt lat="44.1330417" lon="11.048495"><ele>514.0</ele><time>2026-03-29T10:34:52.31Z</time></trkpt><trkpt lat="44.133055" lon="11.0483433"><ele>510.0</ele><time>2026-03-29T10:34:53.311Z</time></trkpt><trkpt lat="44.13306" lon="11.048185"><ele>506.0</ele><time>2026-03-29T10:34:54.309Z</time></trkpt><trkpt lat="44.13307" lon="11.048025"><ele>502.0</ele><time>2026-03-29T10:34:55.31Z</time></trkpt><trkpt lat="44.1330933" lon="11.04787"><ele>498.0</ele><time>2026-03-29T10:34:56.309Z</time></trkpt><trkpt lat="44.13312" lon="11.0477233"><ele>498.0</ele><time>2026-03-29T10:34:57.307Z</time></trkpt><trkpt lat="44.1331433" lon="11.0475917"><ele>497.99999999999994</ele><time>2026-03-29T10:34:58.31Z</time></trkpt><trkpt lat="44.1331667" lon="11.0474667"><ele>497.99999999999994</ele><time>2026-03-29T10:34:59.31Z</time></trkpt><trkpt lat="44.1332" lon="11.0473467"><ele>498.0</ele><time>2026-03-29T10:35:00.31Z</time></trkpt><trkpt lat="44.13325" lon="11.047235"><ele>498.0</ele><time>2026-03-29T10:35:01.309Z</time></trkpt><trkpt lat="44.1333183" lon="11.0471367"><ele>500.2</ele><time>2026-03-29T10:35:02.308Z</time></trkpt><trkpt lat="44.1334" lon="11.0470517"><ele>502.4</ele><time>2026-03-29T10:35:03.309Z</time></trkpt><trkpt lat="44.1334783" lon="11.04697"><ele>504.59999999999997</ele><time>2026-03-29T10:35:04.309Z</time></trkpt><trkpt lat="44.1335567" lon="11.04688"><ele>506.79999999999995</ele><time>2026-03-29T10:35:05.309Z</time></trkpt><trkpt lat="44.1336267" lon="11.0467733"><ele>509.0</ele><time>2026-03-29T10:35:06.309Z</time></trkpt><trkpt lat="44.1336883" lon="11.0466467"><ele>509.2</ele><time>2026-03-29T10:35:07.309Z</time></trkpt><trkpt lat="44.133745" lon="11.0465167"><ele>509.4</ele><time>2026-03-29T10:35:08.309Z</time></trkpt><trkpt lat="44.1338067" lon="11.0463983"><ele>509.6</ele><time>2026-03-29T10:35:09.308Z</time></trkpt><trkpt lat="44.133885" lon="11.0462983"><ele>509.8</ele><time>2026-03-29T10:35:10.309Z</time></trkpt><trkpt lat="44.1339767" lon="11.0462183"><ele>510.0</ele><time>2026-03-29T10:35:11.31Z</time></trkpt><trkpt lat="44.134075" lon="11.046145"><ele>510.0</ele><time>2026-03-29T10:35:12.309Z</time></trkpt><trkpt lat="44.1341683" lon="11.046065"><ele>510.0</ele><time>2026-03-29T10:35:13.309Z</time></trkpt><trkpt lat="44.1342567" lon="11.045965"><ele>510.0</ele><time>2026-03-29T10:35:14.31Z</time></trkpt><trkpt lat="44.1343367" lon="11.0458417"><ele>510.0</ele><time>2026-03-29T10:35:15.307Z</time></trkpt><trkpt lat="44.1344167" lon="11.0457133"><ele>506.2</ele><time>2026-03-29T10:35:16.308Z</time></trkpt><trkpt lat="44.1344967" lon="11.04559"><ele>502.4</ele><time>2026-03-29T10:35:17.308Z</time></trkpt><trkpt lat="44.1345633" lon="11.0454683"><ele>498.6</ele><time>2026-03-29T10:35:18.308Z</time></trkpt><trkpt lat="44.1346183" lon="11.0453467"><ele>494.8</ele><time>2026-03-29T10:35:19.31Z</time></trkpt><trkpt lat="44.1346717" lon="11.0452233"><ele>491.0</ele><time>2026-03-29T10:35:20.311Z</time></trkpt><trkpt lat="44.1347133" lon="11.0450867"><ele>488.75</ele><time>2026-03-29T10:35:21.311Z</time></trkpt><trkpt lat="44.1347467" lon="11.044945"><ele>486.5</ele><time>2026-03-29T10:35:22.309Z</time></trkpt><trkpt lat="44.1347767" lon="11.0447917"><ele>484.25</ele><time>2026-03-29T10:35:23.311Z</time></trkpt><trkpt lat="44.1347983" lon="11.04463"><ele>482.0</ele><time>2026-03-29T10:35:24.31Z</time></trkpt><trkpt lat="44.1348133" lon="11.0444717"><ele>482.0</ele><time>2026-03-29T10:35:25.311Z</time></trkpt><trkpt lat="44.1348267" lon="11.0443233"><ele>482.00000000000006</ele><time>2026-03-29T10:35:26.31Z</time></trkpt><trkpt lat="44.13484" lon="11.0441917"><ele>482.00000000000006</ele><time>2026-03-29T10:35:27.311Z</time></trkpt><trkpt lat="44.1348433" lon="11.0440717"><ele>482.0</ele><time>2026-03-29T10:35:28.312Z</time></trkpt><trkpt lat="44.1348167" lon="11.0439483"><ele>482.0</ele><time>2026-03-29T10:35:29.312Z</time></trkpt><trkpt lat="44.1347717" lon="11.043835"><ele>482.6</ele><time>2026-03-29T10:35:30.311Z</time></trkpt><trkpt lat="44.134695" lon="11.0437517"><ele>483.20000000000005</ele><time>2026-03-29T10:35:31.312Z</time></trkpt><trkpt lat="44.134605" lon="11.0436917"><ele>483.8</ele><time>2026-03-29T10:35:32.31Z</time></trkpt><trkpt lat="44.134515" lon="11.0436317"><ele>484.4</ele><time>2026-03-29T10:35:33.31Z</time></trkpt><trkpt lat="44.1344333" lon="11.043565"><ele>485.0</ele><time>2026-03-29T10:35:34.31Z</time></trkpt><trkpt lat="44.1343617" lon="11.0434733"><ele>485.0</ele><time>2026-03-29T10:35:35.311Z</time></trkpt><trkpt lat="44.1343033" lon="11.043355"><ele>485.0</ele><time>2026-03-29T10:35:36.308Z</time></trkpt><trkpt lat="44.1342617" lon="11.0432233"><ele>485.0</ele><time>2026-03-29T10:35:37.309Z</time></trkpt><trkpt lat="44.134235" lon="11.0430933"><ele>485.0</ele><time>2026-03-29T10:35:38.309Z</time></trkpt><trkpt lat="44.134225" lon="11.0429633"><ele>485.0</ele><time>2026-03-29T10:35:39.309Z</time></trkpt><trkpt lat="44.134235" lon="11.04284"><ele>483.49999999999994</ele><time>2026-03-29T10:35:40.31Z</time></trkpt><trkpt lat="44.1342667" lon="11.042725"><ele>482.0</ele><time>2026-03-29T10:35:41.312Z</time></trkpt><trkpt lat="44.1343183" lon="11.0426283"><ele>480.5</ele><time>2026-03-29T10:35:42.312Z</time></trkpt><trkpt lat="44.1343783" lon="11.0425517"><ele>479.0</ele><time>2026-03-29T10:35:43.313Z</time></trkpt><trkpt lat="44.1344433" lon="11.0424883"><ele>477.49999999999994</ele><time>2026-03-29T10:35:44.312Z</time></trkpt><trkpt lat="44.1345317" lon="11.042455"><ele>476.0</ele><time>2026-03-29T10:35:45.312Z</time></trkpt><trkpt lat="44.134625" lon="11.042445"><ele>476.0</ele><time>2026-03-29T10:35:46.311Z</time></trkpt><trkpt lat="44.1347283" lon="11.0424533"><ele>476.0</ele><time>2026-03-29T10:35:47.311Z</time></trkpt><trkpt lat="44.134835" lon="11.04247"><ele>476.0</ele><time>2026-03-29T10:35:48.312Z</time></trkpt><trkpt lat="44.13494" lon="11.04248"><ele>476.0</ele><time>2026-03-29T10:35:49.309Z</time></trkpt><trkpt lat="44.1350433" lon="11.0425"><ele>476.0</ele><time>2026-03-29T10:35:50.308Z</time></trkpt><trkpt lat="44.135135" lon="11.042515"><ele>477.16666666666663</ele><time>2026-03-29T10:35:51.309Z</time></trkpt><trkpt lat="44.13522" lon="11.0425283"><ele>478.3333333333333</ele><time>2026-03-29T10:35:52.308Z</time></trkpt><trkpt lat="44.1352983" lon="11.0425517"><ele>479.5</ele><time>2026-03-29T10:35:53.308Z</time></trkpt><trkpt lat="44.1353683" lon="11.0426017"><ele>480.66666666666663</ele><time>2026-03-29T10:35:54.309Z</time></trkpt><trkpt lat="44.1354317" lon="11.042675"><ele>481.8333333333333</ele><time>2026-03-29T10:35:55.309Z</time></trkpt><trkpt lat="44.1354783" lon="11.04275"><ele>483.0</ele><time>2026-03-29T10:35:56.31Z</time></trkpt><trkpt lat="44.1355233" lon="11.042815"><ele>483.0</ele><time>2026-03-29T10:35:57.311Z</time></trkpt><trkpt lat="44.135625" lon="11.0428833"><ele>482.99999999999994</ele><time>2026-03-29T10:35:59.309Z</time></trkpt><trkpt lat="44.13571" lon="11.0428167"><ele>482.99999999999994</ele><time>2026-03-29T10:36:01.309Z</time></trkpt><trkpt lat="44.1357067" lon="11.0426483"><ele>483.0</ele><time>2026-03-29T10:36:03.308Z</time></trkpt><trkpt lat="44.1356667" lon="11.0425483"><ele>483.0</ele><time>2026-03-29T10:36:04.309Z</time></trkpt><trkpt lat="44.1356083" lon="11.0424517"><ele>477.2</ele><time>2026-03-29T10:36:05.311Z</time></trkpt><trkpt lat="44.135535" lon="11.0423817"><ele>471.4</ele><time>2026-03-29T10:36:06.31Z</time></trkpt><trkpt lat="44.135455" lon="11.042325"><ele>465.59999999999997</ele><time>2026-03-29T10:36:07.31Z</time></trkpt><trkpt lat="44.13536" lon="11.0422933"><ele>459.79999999999995</ele><time>2026-03-29T10:36:08.31Z</time></trkpt><trkpt lat="44.13527" lon="11.0422617"><ele>454.0</ele><time>2026-03-29T10:36:09.309Z</time></trkpt><trkpt lat="44.1351833" lon="11.0422367"><ele>454.00000000000006</ele><time>2026-03-29T10:36:10.31Z</time></trkpt><trkpt lat="44.1350983" lon="11.04221"><ele>454.0</ele><time>2026-03-29T10:36:11.309Z</time></trkpt><trkpt lat="44.1350233" lon="11.0421783"><ele>454.0</ele><time>2026-03-29T10:36:12.31Z</time></trkpt><trkpt lat="44.1349483" lon="11.0421283"><ele>454.0</ele><time>2026-03-29T10:36:13.31Z</time></trkpt><trkpt lat="44.1348817" lon="11.04205"><ele>454.00000000000006</ele><time>2026-03-29T10:36:14.309Z</time></trkpt><trkpt lat="44.1348283" lon="11.0419433"><ele>454.0</ele><time>2026-03-29T10:36:15.311Z</time></trkpt><trkpt lat="44.1347867" lon="11.0418217"><ele>455.83333333333337</ele><time>2026-03-29T10:36:16.309Z</time></trkpt><trkpt lat="44.1347467" lon="11.0417"><ele>457.6666666666667</ele><time>2026-03-29T10:36:17.31Z</time></trkpt><trkpt lat="44.13471" lon="11.0415817"><ele>459.5</ele><time>2026-03-29T10:36:18.31Z</time></trkpt><trkpt lat="44.1346717" lon="11.0414717"><ele>461.33333333333337</ele><time>2026-03-29T10:36:19.309Z</time></trkpt><trkpt lat="44.1346367" lon="11.0413717"><ele>463.1666666666667</ele><time>2026-03-29T10:36:20.309Z</time></trkpt><trkpt lat="44.134605" lon="11.0412717"><ele>465.0</ele><time>2026-03-29T10:36:21.308Z</time></trkpt><trkpt lat="44.1345767" lon="11.04117"><ele>465.0</ele><time>2026-03-29T10:36:22.31Z</time></trkpt><trkpt lat="44.1345467" lon="11.0410717"><ele>465.0</ele><time>2026-03-29T10:36:23.31Z</time></trkpt><trkpt lat="44.13452" lon="11.0409683"><ele>465.0</ele><time>2026-03-29T10:36:24.31Z</time></trkpt><trkpt lat="44.134495" lon="11.0408667"><ele>465.0</ele><time>2026-03-29T10:36:25.309Z</time></trkpt><trkpt lat="44.134475" lon="11.0407617"><ele>465.0</ele><time>2026-03-29T10:36:26.31Z</time></trkpt><trkpt lat="44.1344567" lon="11.0406517"><ele>465.0</ele><time>2026-03-29T10:36:27.309Z</time></trkpt><trkpt lat="44.1344383" lon="11.04054"><ele>465.0</ele><time>2026-03-29T10:36:28.31Z</time></trkpt><trkpt lat="44.1344233" lon="11.040425"><ele>465.0</ele><time>2026-03-29T10:36:29.308Z</time></trkpt><trkpt lat="44.1344067" lon="11.0403167"><ele>465.0</ele><time>2026-03-29T10:36:30.31Z</time></trkpt><trkpt lat="44.1343867" lon="11.0402117"><ele>465.0</ele><time>2026-03-29T10:36:31.309Z</time></trkpt><trkpt lat="44.13437" lon="11.040095"><ele>465.0</ele><time>2026-03-29T10:36:32.31Z</time></trkpt><trkpt lat="44.134355" lon="11.0399733"><ele>465.0</ele><time>2026-03-29T10:36:33.31Z</time></trkpt><trkpt lat="44.134345" lon="11.0398517"><ele>465.0</ele><time>2026-03-29T10:36:34.31Z</time></trkpt><trkpt lat="44.134335" lon="11.0397383"><ele>465.0</ele><time>2026-03-29T10:36:35.312Z</time></trkpt><trkpt lat="44.1343267" lon="11.0396233"><ele>465.0</ele><time>2026-03-29T10:36:36.309Z</time></trkpt><trkpt lat="44.1343167" lon="11.03951"><ele>465.0</ele><time>2026-03-29T10:36:37.31Z</time></trkpt><trkpt lat="44.1343067" lon="11.0394033"><ele>465.0</ele><time>2026-03-29T10:36:38.31Z</time></trkpt><trkpt lat="44.134295" lon="11.0392983"><ele>465.0</ele><time>2026-03-29T10:36:39.308Z</time></trkpt><trkpt lat="44.134275" lon="11.0391983"><ele>466.5</ele><time>2026-03-29T10:36:40.31Z</time></trkpt><trkpt lat="44.1342433" lon="11.0391"><ele>468.0</ele><time>2026-03-29T10:36:41.311Z</time></trkpt><trkpt lat="44.1342" lon="11.039015"><ele>469.5</ele><time>2026-03-29T10:36:42.31Z</time></trkpt><trkpt lat="44.1341467" lon="11.0389483"><ele>471.0</ele><time>2026-03-29T10:36:43.309Z</time></trkpt><trkpt lat="44.1340833" lon="11.03889"><ele>472.5</ele><time>2026-03-29T10:36:44.312Z</time></trkpt><trkpt lat="44.1340133" lon="11.038845"><ele>474.0</ele><time>2026-03-29T10:36:45.312Z</time></trkpt><trkpt lat="44.1339383" lon="11.0387967"><ele>474.2</ele><time>2026-03-29T10:36:46.309Z</time></trkpt><trkpt lat="44.1338583" lon="11.03874"><ele>474.4</ele><time>2026-03-29T10:36:47.309Z</time></trkpt><trkpt lat="44.1337767" lon="11.0386733"><ele>474.6</ele><time>2026-03-29T10:36:48.309Z</time></trkpt><trkpt lat="44.1336983" lon="11.038595"><ele>474.8</ele><time>2026-03-29T10:36:49.31Z</time></trkpt><trkpt lat="44.133625" lon="11.03851"><ele>475.0</ele><time>2026-03-29T10:36:50.31Z</time></trkpt><trkpt lat="44.13356" lon="11.0384117"><ele>475.00000000000006</ele><time>2026-03-29T10:36:51.31Z</time></trkpt><trkpt lat="44.1335" lon="11.0383083"><ele>475.0</ele><time>2026-03-29T10:36:52.311Z</time></trkpt><trkpt lat="44.1334433" lon="11.0382067"><ele>475.0</ele><time>2026-03-29T10:36:53.311Z</time></trkpt><trkpt lat="44.1333883" lon="11.0381083"><ele>475.0</ele><time>2026-03-29T10:36:54.314Z</time></trkpt><trkpt lat="44.1333383" lon="11.0380117"><ele>475.00000000000006</ele><time>2026-03-29T10:36:55.312Z</time></trkpt><trkpt lat="44.1332917" lon="11.0379167"><ele>475.0</ele><time>2026-03-29T10:36:56.31Z</time></trkpt><trkpt lat="44.133245" lon="11.0378233"><ele>475.50000000000006</ele><time>2026-03-29T10:36:57.311Z</time></trkpt><trkpt lat="44.1332033" lon="11.037735"><ele>476.0</ele><time>2026-03-29T10:36:58.314Z</time></trkpt><trkpt lat="44.1331633" lon="11.037645"><ele>476.5</ele><time>2026-03-29T10:36:59.31Z</time></trkpt><trkpt lat="44.1331267" lon="11.0375617"><ele>477.0</ele><time>2026-03-29T10:37:00.311Z</time></trkpt><trkpt lat="44.1330917" lon="11.037485"><ele>477.50000000000006</ele><time>2026-03-29T10:37:01.311Z</time></trkpt><trkpt lat="44.1330567" lon="11.0374117"><ele>478.0</ele><time>2026-03-29T10:37:02.311Z</time></trkpt><trkpt lat="44.1329883" lon="11.03728"><ele>478.0</ele><time>2026-03-29T10:37:04.31Z</time></trkpt><trkpt lat="44.132915" lon="11.0371517"><ele>478.0</ele><time>2026-03-29T10:37:06.31Z</time></trkpt><trkpt lat="44.1328467" lon="11.03702"><ele>478.0</ele><time>2026-03-29T10:37:08.312Z</time></trkpt><trkpt lat="44.132775" lon="11.0368883"><ele>478.0</ele><time>2026-03-29T10:37:10.31Z</time></trkpt><trkpt lat="44.132715" lon="11.0367467"><ele>480.4</ele><time>2026-03-29T10:37:12.308Z</time></trkpt><trkpt lat="44.1326467" lon="11.0366"><ele>482.79999999999995</ele><time>2026-03-29T10:37:14.312Z</time></trkpt><trkpt lat="44.1325733" lon="11.03645"><ele>485.2</ele><time>2026-03-29T10:37:16.311Z</time></trkpt><trkpt lat="44.1325317" lon="11.0363717"><ele>487.6</ele><time>2026-03-29T10:37:17.31Z</time></trkpt><trkpt lat="44.1324883" lon="11.0362933"><ele>490.0</ele><time>2026-03-29T10:37:18.309Z</time></trkpt><trkpt lat="44.132445" lon="11.0362183"><ele>490.0</ele><time>2026-03-29T10:37:19.309Z</time></trkpt><trkpt lat="44.1323983" lon="11.03614"><ele>490.0</ele><time>2026-03-29T10:37:20.311Z</time></trkpt><trkpt lat="44.1323517" lon="11.0360583"><ele>490.0</ele><time>2026-03-29T10:37:21.31Z</time></trkpt><trkpt lat="44.1323067" lon="11.0359767"><ele>490.0</ele><time>2026-03-29T10:37:22.31Z</time></trkpt><trkpt lat="44.1322583" lon="11.0359017"><ele>490.0</ele><time>2026-03-29T10:37:23.309Z</time></trkpt><trkpt lat="44.132205" lon="11.0358267"><ele>490.0</ele><time>2026-03-29T10:37:24.311Z</time></trkpt><trkpt lat="44.13215" lon="11.0357467"><ele>490.0</ele><time>2026-03-29T10:37:25.312Z</time></trkpt><trkpt lat="44.1320917" lon="11.0356617"><ele>487.6666666666667</ele><time>2026-03-29T10:37:26.31Z</time></trkpt><trkpt lat="44.1320333" lon="11.0355833"><ele>485.33333333333337</ele><time>2026-03-29T10:37:27.309Z</time></trkpt><trkpt lat="44.1319683" lon="11.0355117"><ele>483.0</ele><time>2026-03-29T10:37:28.311Z</time></trkpt><trkpt lat="44.1319033" lon="11.0354367"><ele>480.66666666666663</ele><time>2026-03-29T10:37:29.31Z</time></trkpt><trkpt lat="44.13184" lon="11.035365"><ele>478.3333333333333</ele><time>2026-03-29T10:37:30.308Z</time></trkpt><trkpt lat="44.1317767" lon="11.0353017"><ele>476.0</ele><time>2026-03-29T10:37:31.309Z</time></trkpt><trkpt lat="44.1317117" lon="11.0352367"><ele>475.99999999999994</ele><time>2026-03-29T10:37:32.31Z</time></trkpt><trkpt lat="44.1316433" lon="11.03517"><ele>476.0</ele><time>2026-03-29T10:37:33.31Z</time></trkpt><trkpt lat="44.1315767" lon="11.0350983"><ele>476.0</ele><time>2026-03-29T10:37:34.308Z</time></trkpt><trkpt lat="44.1315133" lon="11.0350383"><ele>476.0</ele><time>2026-03-29T10:37:35.309Z</time></trkpt><trkpt lat="44.1314467" lon="11.034985"><ele>475.99999999999994</ele><time>2026-03-29T10:37:36.309Z</time></trkpt><trkpt lat="44.13138" lon="11.0349417"><ele>476.0</ele><time>2026-03-29T10:37:37.308Z</time></trkpt><trkpt lat="44.1313183" lon="11.03491"><ele>478.6</ele><time>2026-03-29T10:37:38.311Z</time></trkpt><trkpt lat="44.131205" lon="11.03488"><ele>481.20000000000005</ele><time>2026-03-29T10:37:40.309Z</time></trkpt><trkpt lat="44.1311033" lon="11.0348683"><ele>483.79999999999995</ele><time>2026-03-29T10:37:42.31Z</time></trkpt><trkpt lat="44.13101" lon="11.0348683"><ele>486.4</ele><time>2026-03-29T10:37:44.309Z</time></trkpt><trkpt lat="44.1309283" lon="11.03489"><ele>489.0</ele><time>2026-03-29T10:37:46.308Z</time></trkpt><trkpt lat="44.1308567" lon="11.0349283"><ele>489.0</ele><time>2026-03-29T10:37:48.308Z</time></trkpt><trkpt lat="44.1307983" lon="11.0349683"><ele>489.0</ele><time>2026-03-29T10:37:50.31Z</time></trkpt><trkpt lat="44.1307183" lon="11.0350067"><ele>489.0</ele><time>2026-03-29T10:37:52.308Z</time></trkpt><trkpt lat="44.1306167" lon="11.0350183"><ele>489.0</ele><time>2026-03-29T10:37:55.309Z</time></trkpt><trkpt lat="44.130525" lon="11.0350117"><ele>489.0</ele><time>2026-03-29T10:37:57.311Z</time></trkpt><trkpt lat="44.1304083" lon="11.0349767"><ele>487.6666666666667</ele><time>2026-03-29T10:37:59.309Z</time></trkpt><trkpt lat="44.1303483" lon="11.0349467"><ele>486.33333333333337</ele><time>2026-03-29T10:38:00.31Z</time></trkpt><trkpt lat="44.1302717" lon="11.03483"><ele>485.0</ele><time>2026-03-29T10:38:02.308Z</time></trkpt><trkpt lat="44.1302417" lon="11.0347483"><ele>483.6666666666667</ele><time>2026-03-29T10:38:03.309Z</time></trkpt><trkpt lat="44.1302133" lon="11.034665"><ele>482.33333333333337</ele><time>2026-03-29T10:38:04.309Z</time></trkpt><trkpt lat="44.130185" lon="11.0345767"><ele>481.0</ele><time>2026-03-29T10:38:05.31Z</time></trkpt><trkpt lat="44.1301567" lon="11.03448"><ele>481.00000000000006</ele><time>2026-03-29T10:38:06.311Z</time></trkpt><trkpt lat="44.130125" lon="11.03438"><ele>481.0</ele><time>2026-03-29T10:38:07.31Z</time></trkpt><trkpt lat="44.13009" lon="11.034275"><ele>481.0</ele><time>2026-03-29T10:38:08.309Z</time></trkpt><trkpt lat="44.1300433" lon="11.0341817"><ele>481.0</ele><time>2026-03-29T10:38:09.31Z</time></trkpt><trkpt lat="44.1299933" lon="11.0340833"><ele>481.00000000000006</ele><time>2026-03-29T10:38:10.309Z</time></trkpt><trkpt lat="44.1299383" lon="11.0339967"><ele>481.0</ele><time>2026-03-29T10:38:11.31Z</time></trkpt><trkpt lat="44.1298767" lon="11.0339117"><ele>480.50000000000006</ele><time>2026-03-29T10:38:12.312Z</time></trkpt><trkpt lat="44.12981" lon="11.033845"><ele>480.0</ele><time>2026-03-29T10:38:13.311Z</time></trkpt><trkpt lat="44.1297433" lon="11.0337833"><ele>479.5</ele><time>2026-03-29T10:38:14.309Z</time></trkpt><trkpt lat="44.1296767" lon="11.03373"><ele>479.0</ele><time>2026-03-29T10:38:15.311Z</time></trkpt><trkpt lat="44.1296067" lon="11.0336817"><ele>478.50000000000006</ele><time>2026-03-29T10:38:16.309Z</time></trkpt><trkpt lat="44.129545" lon="11.0336267"><ele>478.0</ele><time>2026-03-29T10:38:17.308Z</time></trkpt><trkpt lat="44.12949" lon="11.033565"><ele>478.00000000000006</ele><time>2026-03-29T10:38:18.308Z</time></trkpt><trkpt lat="44.129435" lon="11.0334967"><ele>478.0</ele><time>2026-03-29T10:38:19.309Z</time></trkpt><trkpt lat="44.12939" lon="11.0334233"><ele>478.00000000000006</ele><time>2026-03-29T10:38:20.311Z</time></trkpt><trkpt lat="44.12935" lon="11.0333483"><ele>478.00000000000006</ele><time>2026-03-29T10:38:21.31Z</time></trkpt><trkpt lat="44.1293133" lon="11.0332633"><ele>478.0</ele><time>2026-03-29T10:38:22.31Z</time></trkpt><trkpt lat="44.129275" lon="11.033175"><ele>478.00000000000006</ele><time>2026-03-29T10:38:23.309Z</time></trkpt><trkpt lat="44.1292417" lon="11.033085"><ele>478.00000000000006</ele><time>2026-03-29T10:38:24.31Z</time></trkpt><trkpt lat="44.1292083" lon="11.032995"><ele>478.00000000000006</ele><time>2026-03-29T10:38:25.307Z</time></trkpt><trkpt lat="44.1291783" lon="11.0329033"><ele>478.0</ele><time>2026-03-29T10:38:26.311Z</time></trkpt><trkpt lat="44.1291517" lon="11.0328183"><ele>478.00000000000006</ele><time>2026-03-29T10:38:27.309Z</time></trkpt><trkpt lat="44.1291267" lon="11.0327367"><ele>478.00000000000006</ele><time>2026-03-29T10:38:28.312Z</time></trkpt><trkpt lat="44.129105" lon="11.03265"><ele>478.0</ele><time>2026-03-29T10:38:29.31Z</time></trkpt><trkpt lat="44.129085" lon="11.0325617"><ele>478.00000000000006</ele><time>2026-03-29T10:38:30.31Z</time></trkpt><trkpt lat="44.1290683" lon="11.032475"><ele>478.00000000000006</ele><time>2026-03-29T10:38:31.312Z</time></trkpt><trkpt lat="44.129045" lon="11.0323317"><ele>478.0</ele><time>2026-03-29T10:38:33.31Z</time></trkpt><trkpt lat="44.1290233" lon="11.0322083"><ele>477.99999999999994</ele><time>2026-03-29T10:38:35.309Z</time></trkpt><trkpt lat="44.1290083" lon="11.0320683"><ele>477.99999999999994</ele><time>2026-03-29T10:38:37.308Z</time></trkpt><trkpt lat="44.1290033" lon="11.0319133"><ele>478.0</ele><time>2026-03-29T10:38:39.309Z</time></trkpt><trkpt lat="44.1290083" lon="11.03174"><ele>478.0</ele><time>2026-03-29T10:38:41.31Z</time></trkpt><trkpt lat="44.1289817" lon="11.031575"><ele>480.0</ele><time>2026-03-29T10:38:43.311Z</time></trkpt><trkpt lat="44.1289333" lon="11.03142"><ele>481.99999999999994</ele><time>2026-03-29T10:38:45.311Z</time></trkpt><trkpt lat="44.1288617" lon="11.0313"><ele>483.99999999999994</ele><time>2026-03-29T10:38:47.31Z</time></trkpt><trkpt lat="44.1287933" lon="11.0312083"><ele>486.0</ele><time>2026-03-29T10:38:49.307Z</time></trkpt><trkpt lat="44.128695" lon="11.03119"><ele>488.0</ele><time>2026-03-29T10:38:51.307Z</time></trkpt><trkpt lat="44.1286" lon="11.0312233"><ele>487.99999999999994</ele><time>2026-03-29T10:38:53.308Z</time></trkpt><trkpt lat="44.1285417" lon="11.0312783"><ele>488.0</ele><time>2026-03-29T10:38:54.309Z</time></trkpt><trkpt lat="44.1284817" lon="11.031325"><ele>488.0</ele><time>2026-03-29T10:38:55.307Z</time></trkpt><trkpt lat="44.1284217" lon="11.0313617"><ele>488.0</ele><time>2026-03-29T10:38:56.308Z</time></trkpt><trkpt lat="44.1283167" lon="11.0314033"><ele>487.99999999999994</ele><time>2026-03-29T10:38:58.307Z</time></trkpt><trkpt lat="44.1282117" lon="11.03142"><ele>488.0</ele><time>2026-03-29T10:39:00.31Z</time></trkpt><trkpt lat="44.1280983" lon="11.031415"><ele>488.0</ele><time>2026-03-29T10:39:02.309Z</time></trkpt><trkpt lat="44.1279817" lon="11.0314033"><ele>487.99999999999994</ele><time>2026-03-29T10:39:04.309Z</time></trkpt><trkpt lat="44.1278733" lon="11.0314"><ele>487.99999999999994</ele><time>2026-03-29T10:39:06.311Z</time></trkpt><trkpt lat="44.1277917" lon="11.03142"><ele>488.0</ele><time>2026-03-29T10:39:08.311Z</time></trkpt><trkpt lat="44.1277033" lon="11.0314283"><ele>488.0</ele><time>2026-03-29T10:39:10.308Z</time></trkpt><trkpt lat="44.12761" lon="11.0314267"><ele>487.99999999999994</ele><time>2026-03-29T10:39:12.311Z</time></trkpt><trkpt lat="44.1275017" lon="11.0314267"><ele>488.0</ele><time>2026-03-29T10:39:14.31Z</time></trkpt><trkpt lat="44.1273833" lon="11.031415"><ele>488.0</ele><time>2026-03-29T10:39:16.31Z</time></trkpt><trkpt lat="44.12732" lon="11.031395"><ele>488.0</ele><time>2026-03-29T10:39:17.309Z</time></trkpt><trkpt lat="44.1272517" lon="11.03137"><ele>487.99999999999994</ele><time>2026-03-29T10:39:18.309Z</time></trkpt><trkpt lat="44.1271883" lon="11.0313483"><ele>488.0</ele><time>2026-03-29T10:39:19.308Z</time></trkpt><trkpt lat="44.1271267" lon="11.0313183"><ele>488.42857142857133</ele><time>2026-03-29T10:39:20.31Z</time></trkpt><trkpt lat="44.1270617" lon="11.0312833"><ele>488.85714285714283</ele><time>2026-03-29T10:39:21.308Z</time></trkpt><trkpt lat="44.1270017" lon="11.0312433"><ele>489.2857142857142</ele><time>2026-03-29T10:39:22.31Z</time></trkpt><trkpt lat="44.126935" lon="11.031205"><ele>489.71428571428567</ele><time>2026-03-29T10:39:23.309Z</time></trkpt><trkpt lat="44.1268667" lon="11.0311567"><ele>490.1428571428571</ele><time>2026-03-29T10:39:24.309Z</time></trkpt><trkpt lat="44.1268017" lon="11.0311167"><ele>490.57142857142856</ele><time>2026-03-29T10:39:25.311Z</time></trkpt><trkpt lat="44.1267333" lon="11.0310933"><ele>491.0</ele><time>2026-03-29T10:39:26.31Z</time></trkpt><trkpt lat="44.12667" lon="11.0310733"><ele>493.0</ele><time>2026-03-29T10:39:27.31Z</time></trkpt><trkpt lat="44.12655" lon="11.0310817"><ele>495.0</ele><time>2026-03-29T10:39:29.311Z</time></trkpt><trkpt lat="44.1264883" lon="11.0311033"><ele>497.0</ele><time>2026-03-29T10:39:30.31Z</time></trkpt><trkpt lat="44.1264267" lon="11.0311267"><ele>499.0</ele><time>2026-03-29T10:39:31.311Z</time></trkpt><trkpt lat="44.126315" lon="11.031165"><ele>501.0</ele><time>2026-03-29T10:39:33.311Z</time></trkpt><trkpt lat="44.1262033" lon="11.0312033"><ele>501.0</ele><time>2026-03-29T10:39:35.311Z</time></trkpt><trkpt lat="44.126095" lon="11.0312383"><ele>501.0</ele><time>2026-03-29T10:39:37.312Z</time></trkpt><trkpt lat="44.12601" lon="11.0312917"><ele>501.0</ele><time>2026-03-29T10:39:39.31Z</time></trkpt><trkpt lat="44.1259183" lon="11.0313517"><ele>501.0</ele><time>2026-03-29T10:39:41.312Z</time></trkpt><trkpt lat="44.1258417" lon="11.0314267"><ele>501.0</ele><time>2026-03-29T10:39:43.311Z</time></trkpt><trkpt lat="44.1257483" lon="11.0315033"><ele>501.8</ele><time>2026-03-29T10:39:45.309Z</time></trkpt><trkpt lat="44.1256767" lon="11.03157"><ele>502.6</ele><time>2026-03-29T10:39:47.311Z</time></trkpt><trkpt lat="44.1256033" lon="11.0316417"><ele>503.4</ele><time>2026-03-29T10:39:49.31Z</time></trkpt><trkpt lat="44.1255467" lon="11.0316833"><ele>504.2</ele><time>2026-03-29T10:39:50.31Z</time></trkpt><trkpt lat="44.1254383" lon="11.03176"><ele>505.0</ele><time>2026-03-29T10:39:52.309Z</time></trkpt><trkpt lat="44.1253317" lon="11.0318367"><ele>503.0</ele><time>2026-03-29T10:39:54.311Z</time></trkpt><trkpt lat="44.1252267" lon="11.0319117"><ele>501.0</ele><time>2026-03-29T10:39:56.311Z</time></trkpt><trkpt lat="44.1251417" lon="11.03198"><ele>499.0</ele><time>2026-03-29T10:39:58.311Z</time></trkpt><trkpt lat="44.1250717" lon="11.0320683"><ele>497.0</ele><time>2026-03-29T10:40:00.31Z</time></trkpt><trkpt lat="44.125015" lon="11.0321883"><ele>495.0</ele><time>2026-03-29T10:40:02.31Z</time></trkpt><trkpt lat="44.124975" lon="11.0323217"><ele>495.0</ele><time>2026-03-29T10:40:04.309Z</time></trkpt><trkpt lat="44.12496" lon="11.0324533"><ele>495.0</ele><time>2026-03-29T10:40:06.311Z</time></trkpt><trkpt lat="44.1249533" lon="11.0325867"><ele>495.0</ele><time>2026-03-29T10:40:08.31Z</time></trkpt><trkpt lat="44.1249367" lon="11.0327067"><ele>495.0</ele><time>2026-03-29T10:40:10.309Z</time></trkpt><trkpt lat="44.1248983" lon="11.0328433"><ele>495.0</ele><time>2026-03-29T10:40:12.309Z</time></trkpt><trkpt lat="44.1248517" lon="11.0329833"><ele>495.8</ele><time>2026-03-29T10:40:14.31Z</time></trkpt><trkpt lat="44.1247817" lon="11.0331117"><ele>496.6</ele><time>2026-03-29T10:40:16.308Z</time></trkpt><trkpt lat="44.1247383" lon="11.0331767"><ele>497.4</ele><time>2026-03-29T10:40:17.309Z</time></trkpt><trkpt lat="44.1246517" lon="11.033305"><ele>498.2</ele><time>2026-03-29T10:40:19.31Z</time></trkpt><trkpt lat="44.1245533" lon="11.033425"><ele>499.0</ele><time>2026-03-29T10:40:21.308Z</time></trkpt><trkpt lat="44.1244967" lon="11.0334817"><ele>499.0</ele><time>2026-03-29T10:40:22.308Z</time></trkpt><trkpt lat="44.124445" lon="11.0335367"><ele>499.0</ele><time>2026-03-29T10:40:23.309Z</time></trkpt><trkpt lat="44.12435" lon="11.0336433"><ele>499.0</ele><time>2026-03-29T10:40:25.308Z</time></trkpt><trkpt lat="44.1242483" lon="11.03374"><ele>499.0</ele><time>2026-03-29T10:40:27.311Z</time></trkpt><trkpt lat="44.124155" lon="11.0338483"><ele>499.0</ele><time>2026-03-29T10:40:29.309Z</time></trkpt><trkpt lat="44.1240683" lon="11.03395"><ele>500.2</ele><time>2026-03-29T10:40:31.309Z</time></trkpt><trkpt lat="44.1239867" lon="11.0340433"><ele>501.4</ele><time>2026-03-29T10:40:33.309Z</time></trkpt><trkpt lat="44.1239017" lon="11.034145"><ele>502.6</ele><time>2026-03-29T10:40:35.307Z</time></trkpt><trkpt lat="44.1238133" lon="11.0342433"><ele>503.8</ele><time>2026-03-29T10:40:37.31Z</time></trkpt><trkpt lat="44.1237233" lon="11.0343433"><ele>505.0</ele><time>2026-03-29T10:40:39.309Z</time></trkpt><trkpt lat="44.123635" lon="11.03445"><ele>505.0</ele><time>2026-03-29T10:40:41.309Z</time></trkpt><trkpt lat="44.123555" lon="11.03455"><ele>505.0</ele><time>2026-03-29T10:40:43.31Z</time></trkpt><trkpt lat="44.1235383" lon="11.0346417"><ele>505.0</ele><time>2026-03-29T10:40:45.308Z</time></trkpt><trkpt lat="44.1234783" lon="11.0347317"><ele>505.0</ele><time>2026-03-29T10:40:47.308Z</time></trkpt><trkpt lat="44.1233967" lon="11.0348133"><ele>505.0</ele><time>2026-03-29T10:40:49.31Z</time></trkpt><trkpt lat="44.1233367" lon="11.0349017"><ele>504.8</ele><time>2026-03-29T10:40:51.31Z</time></trkpt><trkpt lat="44.123285" lon="11.0349833"><ele>504.6</ele><time>2026-03-29T10:40:53.31Z</time></trkpt><trkpt lat="44.1231933" lon="11.0350533"><ele>504.4</ele><time>2026-03-29T10:40:55.309Z</time></trkpt><trkpt lat="44.123095" lon="11.03512"><ele>504.2</ele><time>2026-03-29T10:40:57.31Z</time></trkpt><trkpt lat="44.1230317" lon="11.03515"><ele>504.0</ele><time>2026-03-29T10:40:58.308Z</time></trkpt><trkpt lat="44.1229383" lon="11.0352"><ele>504.0</ele><time>2026-03-29T10:41:00.31Z</time></trkpt><trkpt lat="44.1228517" lon="11.03526"><ele>504.0</ele><time>2026-03-29T10:41:02.31Z</time></trkpt><trkpt lat="44.1227283" lon="11.0353433"><ele>504.0</ele><time>2026-03-29T10:41:04.31Z</time></trkpt><trkpt lat="44.1226733" lon="11.0353867"><ele>504.0</ele><time>2026-03-29T10:41:05.309Z</time></trkpt><trkpt lat="44.122585" lon="11.0354767"><ele>504.0</ele><time>2026-03-29T10:41:07.31Z</time></trkpt><trkpt lat="44.1225317" lon="11.035585"><ele>504.0</ele><time>2026-03-29T10:41:09.309Z</time></trkpt><trkpt lat="44.1224633" lon="11.0356967"><ele>504.0</ele><time>2026-03-29T10:41:11.309Z</time></trkpt><trkpt lat="44.12239" lon="11.035815"><ele>504.0</ele><time>2026-03-29T10:41:13.31Z</time></trkpt><trkpt lat="44.1223333" lon="11.0359367"><ele>504.0</ele><time>2026-03-29T10:41:15.311Z</time></trkpt><trkpt lat="44.1222683" lon="11.0360517"><ele>504.0</ele><time>2026-03-29T10:41:17.311Z</time></trkpt><trkpt lat="44.122205" lon="11.03618"><ele>507.0</ele><time>2026-03-29T10:41:19.309Z</time></trkpt><trkpt lat="44.1221383" lon="11.0362983"><ele>510.0</ele><time>2026-03-29T10:41:21.31Z</time></trkpt><trkpt lat="44.1220533" lon="11.0364"><ele>513.0</ele><time>2026-03-29T10:41:23.309Z</time></trkpt><trkpt lat="44.121965" lon="11.036485"><ele>516.0</ele><time>2026-03-29T10:41:25.31Z</time></trkpt><trkpt lat="44.1218417" lon="11.03654"><ele>516.0</ele><time>2026-03-29T10:41:27.31Z</time></trkpt><trkpt lat="44.12178" lon="11.0365583"><ele>516.0</ele><time>2026-03-29T10:41:28.31Z</time></trkpt><trkpt lat="44.12166" lon="11.036565"><ele>516.0</ele><time>2026-03-29T10:41:30.308Z</time></trkpt><trkpt lat="44.12155" lon="11.0365667"><ele>516.0</ele><time>2026-03-29T10:41:32.31Z</time></trkpt><trkpt lat="44.121435" lon="11.036575"><ele>516.0</ele><time>2026-03-29T10:41:34.308Z</time></trkpt><trkpt lat="44.1213467" lon="11.03659"><ele>515.1666666666666</ele><time>2026-03-29T10:41:36.31Z</time></trkpt><trkpt lat="44.1212383" lon="11.0366217"><ele>514.3333333333334</ele><time>2026-03-29T10:41:38.308Z</time></trkpt><trkpt lat="44.1211467" lon="11.0366483"><ele>513.5</ele><time>2026-03-29T10:41:40.309Z</time></trkpt><trkpt lat="44.121075" lon="11.0366767"><ele>512.6666666666667</ele><time>2026-03-29T10:41:41.309Z</time></trkpt><trkpt lat="44.1210083" lon="11.036705"><ele>511.83333333333337</ele><time>2026-03-29T10:41:42.309Z</time></trkpt><trkpt lat="44.1209333" lon="11.036725"><ele>511.0</ele><time>2026-03-29T10:41:43.31Z</time></trkpt><trkpt lat="44.120865" lon="11.03675"><ele>511.00000000000006</ele><time>2026-03-29T10:41:44.31Z</time></trkpt><trkpt lat="44.1207983" lon="11.0367683"><ele>511.0</ele><time>2026-03-29T10:41:45.31Z</time></trkpt><trkpt lat="44.1206917" lon="11.036815"><ele>511.0</ele><time>2026-03-29T10:41:47.308Z</time></trkpt><trkpt lat="44.12062" lon="11.03686"><ele>511.0</ele><time>2026-03-29T10:41:49.309Z</time></trkpt><trkpt lat="44.120535" lon="11.036895"><ele>511.00000000000006</ele><time>2026-03-29T10:41:52.308Z</time></trkpt><trkpt lat="44.120455" lon="11.0369333"><ele>511.0</ele><time>2026-03-29T10:41:55.308Z</time></trkpt><trkpt lat="44.1203867" lon="11.0370017"><ele>511.6666666666667</ele><time>2026-03-29T10:41:58.31Z</time></trkpt><trkpt lat="44.1203167" lon="11.0370267"><ele>512.3333333333334</ele><time>2026-03-29T10:42:01.309Z</time></trkpt><trkpt lat="44.12023" lon="11.0370183"><ele>513.0</ele><time>2026-03-29T10:42:03.308Z</time></trkpt><trkpt lat="44.1201467" lon="11.036995"><ele>513.6666666666666</ele><time>2026-03-29T10:42:05.31Z</time></trkpt><trkpt lat="44.1200733" lon="11.0369267"><ele>514.3333333333333</ele><time>2026-03-29T10:42:08.311Z</time></trkpt><trkpt lat="44.1200083" lon="11.03685"><ele>515.0</ele><time>2026-03-29T10:42:11.308Z</time></trkpt><trkpt lat="44.1199483" lon="11.0367917"><ele>515.2857142857143</ele><time>2026-03-29T10:42:14.308Z</time></trkpt><trkpt lat="44.1198867" lon="11.0367533"><ele>515.5714285714286</ele><time>2026-03-29T10:42:17.309Z</time></trkpt><trkpt lat="44.1198217" lon="11.0367017"><ele>515.8571428571429</ele><time>2026-03-29T10:42:20.31Z</time></trkpt><trkpt lat="44.119755" lon="11.0366433"><ele>516.1428571428571</ele><time>2026-03-29T10:42:24.308Z</time></trkpt><trkpt lat="44.1196833" lon="11.036595"><ele>516.4285714285714</ele><time>2026-03-29T10:42:28.308Z</time></trkpt><trkpt lat="44.1196183" lon="11.03656"><ele>516.7142857142858</ele><time>2026-03-29T10:42:31.308Z</time></trkpt><trkpt lat="44.119545" lon="11.0365217"><ele>517.0</ele><time>2026-03-29T10:42:35.309Z</time></trkpt><trkpt lat="44.1194767" lon="11.0365"><ele>518.8333333333334</ele><time>2026-03-29T10:42:38.308Z</time></trkpt><trkpt lat="44.1193933" lon="11.036475"><ele>520.6666666666667</ele><time>2026-03-29T10:42:41.31Z</time></trkpt><trkpt lat="44.11933" lon="11.0364183"><ele>522.5</ele><time>2026-03-29T10:42:44.31Z</time></trkpt><trkpt lat="44.1192683" lon="11.0363633"><ele>524.3333333333334</ele><time>2026-03-29T10:42:47.309Z</time></trkpt><trkpt lat="44.119215" lon="11.0362833"><ele>526.1666666666666</ele><time>2026-03-29T10:42:50.309Z</time></trkpt><trkpt lat="44.11917" lon="11.036195"><ele>528.0</ele><time>2026-03-29T10:42:53.31Z</time></trkpt><trkpt lat="44.1191167" lon="11.036115"><ele>527.1428571428571</ele><time>2026-03-29T10:42:57.31Z</time></trkpt><trkpt lat="44.1190667" lon="11.0360417"><ele>526.2857142857143</ele><time>2026-03-29T10:43:01.309Z</time></trkpt><trkpt lat="44.1190183" lon="11.035955"><ele>525.4285714285714</ele><time>2026-03-29T10:43:05.308Z</time></trkpt><trkpt lat="44.118985" lon="11.035875"><ele>524.5714285714286</ele><time>2026-03-29T10:43:08.307Z</time></trkpt><trkpt lat="44.118955" lon="11.0357933"><ele>523.7142857142857</ele><time>2026-03-29T10:43:12.309Z</time></trkpt><trkpt lat="44.1189233" lon="11.0357083"><ele>522.8571428571429</ele><time>2026-03-29T10:43:16.308Z</time></trkpt><trkpt lat="44.1188667" lon="11.0356417"><ele>522.0</ele><time>2026-03-29T10:43:20.307Z</time></trkpt><trkpt lat="44.1188117" lon="11.0355717"><ele>524.0</ele><time>2026-03-29T10:43:23.309Z</time></trkpt><trkpt lat="44.1187633" lon="11.0355017"><ele>526.0</ele><time>2026-03-29T10:43:26.31Z</time></trkpt><trkpt lat="44.1187167" lon="11.0354183"><ele>528.0</ele><time>2026-03-29T10:43:29.309Z</time></trkpt><trkpt lat="44.1186533" lon="11.0353533"><ele>530.0</ele><time>2026-03-29T10:43:32.309Z</time></trkpt><trkpt lat="44.1185983" lon="11.0352683"><ele>532.0</ele><time>2026-03-29T10:43:35.31Z</time></trkpt><trkpt lat="44.1185467" lon="11.0351883"><ele>534.0</ele><time>2026-03-29T10:43:38.309Z</time></trkpt><trkpt lat="44.1185" lon="11.0351117"><ele>534.0</ele><time>2026-03-29T10:43:41.31Z</time></trkpt><trkpt lat="44.118455" lon="11.0350167"><ele>534.0</ele><time>2026-03-29T10:43:44.312Z</time></trkpt><trkpt lat="44.1184217" lon="11.0349217"><ele>534.0</ele><time>2026-03-29T10:43:47.309Z</time></trkpt><trkpt lat="44.11842" lon="11.0348167"><ele>534.0</ele><time>2026-03-29T10:43:50.308Z</time></trkpt><trkpt lat="44.1184383" lon="11.0347317"><ele>534.0</ele><time>2026-03-29T10:43:52.31Z</time></trkpt><trkpt lat="44.1184833" lon="11.03463"><ele>534.0</ele><time>2026-03-29T10:43:55.311Z</time></trkpt><trkpt lat="44.1185367" lon="11.034565"><ele>536.1428571428572</ele><time>2026-03-29T10:43:58.309Z</time></trkpt><trkpt lat="44.1185883" lon="11.0345133"><ele>538.2857142857143</ele><time>2026-03-29T10:44:02.309Z</time></trkpt><trkpt lat="44.1186617" lon="11.0345517"><ele>540.4285714285714</ele><time>2026-03-29T10:44:06.311Z</time></trkpt><trkpt lat="44.1187267" lon="11.0345967"><ele>542.5714285714287</ele><time>2026-03-29T10:44:10.309Z</time></trkpt><trkpt lat="44.118785" lon="11.0346583"><ele>544.7142857142858</ele><time>2026-03-29T10:44:14.31Z</time></trkpt><trkpt lat="44.1188417" lon="11.03471"><ele>546.8571428571429</ele><time>2026-03-29T10:44:18.311Z</time></trkpt><trkpt lat="44.11889" lon="11.0347683"><ele>549.0</ele><time>2026-03-29T10:44:21.308Z</time></trkpt><trkpt lat="44.1189383" lon="11.034825"><ele>549.0</ele><time>2026-03-29T10:44:23.31Z</time></trkpt><trkpt lat="44.11902" lon="11.0348883"><ele>549.0</ele><time>2026-03-29T10:44:26.311Z</time></trkpt><trkpt lat="44.1190817" lon="11.03493"><ele>549.0</ele><time>2026-03-29T10:44:28.31Z</time></trkpt><trkpt lat="44.119145" lon="11.0349633"><ele>549.0</ele><time>2026-03-29T10:44:30.312Z</time></trkpt><trkpt lat="44.119215" lon="11.0349833"><ele>549.0</ele><time>2026-03-29T10:44:33.311Z</time></trkpt><trkpt lat="44.1192833" lon="11.0349717"><ele>549.0</ele><time>2026-03-29T10:44:36.31Z</time></trkpt><trkpt lat="44.119345" lon="11.0349383"><ele>549.0</ele><time>2026-03-29T10:44:40.31Z</time></trkpt><trkpt lat="44.119345" lon="11.0348417"><ele>548.8333333333334</ele><time>2026-03-29T10:44:48.309Z</time></trkpt><trkpt lat="44.1193217" lon="11.03475"><ele>548.6666666666666</ele><time>2026-03-29T10:44:53.309Z</time></trkpt><trkpt lat="44.1192967" lon="11.0346467"><ele>548.5</ele><time>2026-03-29T10:44:58.311Z</time></trkpt><trkpt lat="44.1192467" lon="11.0345517"><ele>548.3333333333333</ele><time>2026-03-29T10:45:02.31Z</time></trkpt><trkpt lat="44.1191883" lon="11.034475"><ele>548.1666666666666</ele><time>2026-03-29T10:45:05.308Z</time></trkpt><trkpt lat="44.11913" lon="11.034415"><ele>548.0</ele><time>2026-03-29T10:45:08.31Z</time></trkpt><trkpt lat="44.1190717" lon="11.0343383"><ele>548.1428571428572</ele><time>2026-03-29T10:45:11.311Z</time></trkpt><trkpt lat="44.11901" lon="11.0342783"><ele>548.2857142857143</ele><time>2026-03-29T10:45:14.311Z</time></trkpt><trkpt lat="44.118945" lon="11.0342067"><ele>548.4285714285714</ele><time>2026-03-29T10:45:18.31Z</time></trkpt><trkpt lat="44.1189017" lon="11.03414"><ele>548.5714285714287</ele><time>2026-03-29T10:45:21.307Z</time></trkpt><trkpt lat="44.1188283" lon="11.03411"><ele>548.7142857142858</ele><time>2026-03-29T10:45:25.309Z</time></trkpt><trkpt lat="44.1187717" lon="11.0340583"><ele>548.8571428571429</ele><time>2026-03-29T10:45:28.31Z</time></trkpt><trkpt lat="44.1187183" lon="11.0339767"><ele>549.0</ele><time>2026-03-29T10:45:32.31Z</time></trkpt><trkpt lat="44.11866" lon="11.0339283"><ele>551.1428571428571</ele><time>2026-03-29T10:45:35.31Z</time></trkpt><trkpt lat="44.118625" lon="11.0338367"><ele>553.2857142857143</ele><time>2026-03-29T10:45:39.309Z</time></trkpt><trkpt lat="44.118645" lon="11.0337433"><ele>555.4285714285714</ele><time>2026-03-29T10:45:43.308Z</time></trkpt><trkpt lat="44.1186733" lon="11.0336383"><ele>557.5714285714286</ele><time>2026-03-29T10:45:47.308Z</time></trkpt><trkpt lat="44.1187167" lon="11.0335567"><ele>559.7142857142857</ele><time>2026-03-29T10:45:50.311Z</time></trkpt><trkpt lat="44.11876" lon="11.0334783"><ele>561.8571428571429</ele><time>2026-03-29T10:45:53.311Z</time></trkpt><trkpt lat="44.118795" lon="11.0334033"><ele>564.0</ele><time>2026-03-29T10:45:56.311Z</time></trkpt><trkpt lat="44.1188617" lon="11.0333483"><ele>565.6666666666666</ele><time>2026-03-29T10:45:59.309Z</time></trkpt><trkpt lat="44.1189317" lon="11.03329"><ele>567.3333333333334</ele><time>2026-03-29T10:46:02.312Z</time></trkpt><trkpt lat="44.1190167" lon="11.0332417"><ele>569.0</ele><time>2026-03-29T10:46:05.311Z</time></trkpt><trkpt lat="44.119085" lon="11.0331967"><ele>570.6666666666667</ele><time>2026-03-29T10:46:08.311Z</time></trkpt><trkpt lat="44.1191517" lon="11.0331567"><ele>572.3333333333334</ele><time>2026-03-29T10:46:11.311Z</time></trkpt><trkpt lat="44.11921" lon="11.0331217"><ele>574.0</ele><time>2026-03-29T10:46:13.309Z</time></trkpt><trkpt lat="44.119275" lon="11.0330667"><ele>574.0</ele><time>2026-03-29T10:46:16.307Z</time></trkpt><trkpt lat="44.1193183" lon="11.0330017"><ele>574.0</ele><time>2026-03-29T10:46:19.309Z</time></trkpt><trkpt lat="44.1193567" lon="11.0329233"><ele>574.0</ele><time>2026-03-29T10:46:23.31Z</time></trkpt><trkpt lat="44.1193867" lon="11.0328317"><ele>574.0</ele><time>2026-03-29T10:46:26.309Z</time></trkpt><trkpt lat="44.1194" lon="11.0327417"><ele>574.0</ele><time>2026-03-29T10:46:29.309Z</time></trkpt><trkpt lat="44.1194183" lon="11.0326517"><ele>574.0</ele><time>2026-03-29T10:46:32.31Z</time></trkpt><trkpt lat="44.1194217" lon="11.0325583"><ele>574.0</ele><time>2026-03-29T10:46:35.309Z</time></trkpt><trkpt lat="44.1194317" lon="11.0324333"><ele>575.8333333333334</ele><time>2026-03-29T10:46:38.311Z</time></trkpt><trkpt lat="44.11944" lon="11.0323433"><ele>577.6666666666667</ele><time>2026-03-29T10:46:40.309Z</time></trkpt><trkpt lat="44.1194517" lon="11.03225"><ele>579.5</ele><time>2026-03-29T10:46:42.31Z</time></trkpt><trkpt lat="44.11946" lon="11.0321517"><ele>581.3333333333334</ele><time>2026-03-29T10:46:44.311Z</time></trkpt><trkpt lat="44.1194733" lon="11.0320433"><ele>583.1666666666666</ele><time>2026-03-29T10:46:46.309Z</time></trkpt><trkpt lat="44.1194917" lon="11.03193"><ele>585.0</ele><time>2026-03-29T10:46:48.31Z</time></trkpt><trkpt lat="44.1195183" lon="11.0318183"><ele>585.0</ele><time>2026-03-29T10:46:50.308Z</time></trkpt><trkpt lat="44.11954" lon="11.031695"><ele>585.0</ele><time>2026-03-29T10:46:52.309Z</time></trkpt><trkpt lat="44.11957" lon="11.0315617"><ele>585.0</ele><time>2026-03-29T10:46:54.309Z</time></trkpt><trkpt lat="44.1196017" lon="11.03145"><ele>585.0</ele><time>2026-03-29T10:46:56.31Z</time></trkpt><trkpt lat="44.1196367" lon="11.0313333"><ele>585.0</ele><time>2026-03-29T10:46:58.311Z</time></trkpt><trkpt lat="44.119685" lon="11.03121"><ele>584.5</ele><time>2026-03-29T10:47:00.309Z</time></trkpt><trkpt lat="44.1197283" lon="11.0310933"><ele>584.0</ele><time>2026-03-29T10:47:02.309Z</time></trkpt><trkpt lat="44.1197683" lon="11.031005"><ele>583.5</ele><time>2026-03-29T10:47:04.308Z</time></trkpt><trkpt lat="44.1198167" lon="11.0309083"><ele>583.0</ele><time>2026-03-29T10:47:06.308Z</time></trkpt><trkpt lat="44.1198683" lon="11.0308133"><ele>582.5</ele><time>2026-03-29T10:47:08.308Z</time></trkpt><trkpt lat="44.1199217" lon="11.0307333"><ele>582.0</ele><time>2026-03-29T10:47:10.308Z</time></trkpt><trkpt lat="44.1199767" lon="11.03064"><ele>582.0</ele><time>2026-03-29T10:47:12.311Z</time></trkpt><trkpt lat="44.1200267" lon="11.0305567"><ele>582.0</ele><time>2026-03-29T10:47:14.309Z</time></trkpt><trkpt lat="44.12008" lon="11.0304783"><ele>582.0</ele><time>2026-03-29T10:47:16.309Z</time></trkpt><trkpt lat="44.12013" lon="11.0304033"><ele>582.0</ele><time>2026-03-29T10:47:18.309Z</time></trkpt><trkpt lat="44.1201817" lon="11.0303367"><ele>582.0</ele><time>2026-03-29T10:47:20.309Z</time></trkpt><trkpt lat="44.1202333" lon="11.0302783"><ele>582.0</ele><time>2026-03-29T10:47:22.31Z</time></trkpt><trkpt lat="44.1203" lon="11.0301867"><ele>582.0</ele><time>2026-03-29T10:47:25.31Z</time></trkpt><trkpt lat="44.1203467" lon="11.0301233"><ele>582.0</ele><time>2026-03-29T10:47:27.309Z</time></trkpt><trkpt lat="44.1204167" lon="11.0300533"><ele>582.0</ele><time>2026-03-29T10:47:30.307Z</time></trkpt><trkpt lat="44.1204783" lon="11.0299783"><ele>582.0</ele><time>2026-03-29T10:47:33.309Z</time></trkpt><trkpt lat="44.1205317" lon="11.0299033"><ele>582.0</ele><time>2026-03-29T10:47:36.31Z</time></trkpt><trkpt lat="44.1205783" lon="11.0298267"><ele>582.0</ele><time>2026-03-29T10:47:39.306Z</time></trkpt><trkpt lat="44.1206167" lon="11.0297367"><ele>582.5</ele><time>2026-03-29T10:47:42.31Z</time></trkpt><trkpt lat="44.1206417" lon="11.029655"><ele>583.0</ele><time>2026-03-29T10:47:45.309Z</time></trkpt><trkpt lat="44.1206833" lon="11.029545"><ele>583.5</ele><time>2026-03-29T10:47:48.308Z</time></trkpt><trkpt lat="44.1207217" lon="11.0294433"><ele>584.0</ele><time>2026-03-29T10:47:51.308Z</time></trkpt><trkpt lat="44.1207483" lon="11.0293433"><ele>584.5</ele><time>2026-03-29T10:47:54.308Z</time></trkpt><trkpt lat="44.1207717" lon="11.0292483"><ele>585.0</ele><time>2026-03-29T10:47:57.309Z</time></trkpt><trkpt lat="44.1207817" lon="11.0291517"><ele>586.0</ele><time>2026-03-29T10:48:00.309Z</time></trkpt><trkpt lat="44.1207667" lon="11.0290483"><ele>587.0</ele><time>2026-03-29T10:48:03.309Z</time></trkpt><trkpt lat="44.120735" lon="11.028965"><ele>588.0</ele><time>2026-03-29T10:48:06.31Z</time></trkpt><trkpt lat="44.12066" lon="11.0289317"><ele>589.0</ele><time>2026-03-29T10:48:11.309Z</time></trkpt><trkpt lat="44.1205883" lon="11.0289383"><ele>590.0</ele><time>2026-03-29T10:48:16.309Z</time></trkpt><trkpt lat="44.12052" lon="11.028935"><ele>591.0</ele><time>2026-03-29T10:48:21.309Z</time></trkpt><trkpt lat="44.1204483" lon="11.028925"><ele>592.0</ele><time>2026-03-29T10:48:27.309Z</time></trkpt><trkpt lat="44.1203833" lon="11.0289367"><ele>593.7142857142858</ele><time>2026-03-29T10:48:31.312Z</time></trkpt><trkpt lat="44.1203083" lon="11.0289467"><ele>595.4285714285714</ele><time>2026-03-29T10:48:35.309Z</time></trkpt><trkpt lat="44.1202367" lon="11.0289517"><ele>597.1428571428571</ele><time>2026-03-29T10:48:39.309Z</time></trkpt><trkpt lat="44.12017" lon="11.0289633"><ele>598.8571428571429</ele><time>2026-03-29T10:48:43.31Z</time></trkpt><trkpt lat="44.1200933" lon="11.02897"><ele>600.5714285714286</ele><time>2026-03-29T10:48:48.308Z</time></trkpt><trkpt lat="44.1200217" lon="11.028955"><ele>602.2857142857143</ele><time>2026-03-29T10:48:53.31Z</time></trkpt><trkpt lat="44.1199483" lon="11.02895"><ele>604.0</ele><time>2026-03-29T10:48:57.309Z</time></trkpt><trkpt lat="44.1198683" lon="11.02895"><ele>605.2857142857143</ele><time>2026-03-29T10:49:00.309Z</time></trkpt><trkpt lat="44.1198017" lon="11.028945"><ele>606.5714285714286</ele><time>2026-03-29T10:49:03.309Z</time></trkpt><trkpt lat="44.1197333" lon="11.0289417"><ele>607.8571428571429</ele><time>2026-03-29T10:49:06.309Z</time></trkpt><trkpt lat="44.1196683" lon="11.0289383"><ele>609.1428571428571</ele><time>2026-03-29T10:49:09.31Z</time></trkpt><trkpt lat="44.1195933" lon="11.0289183"><ele>610.4285714285714</ele><time>2026-03-29T10:49:12.309Z</time></trkpt><trkpt lat="44.1195283" lon="11.0288817"><ele>611.7142857142858</ele><time>2026-03-29T10:49:15.309Z</time></trkpt><trkpt lat="44.1194617" lon="11.0288583"><ele>613.0</ele><time>2026-03-29T10:49:18.307Z</time></trkpt><trkpt lat="44.1193883" lon="11.028815"><ele>613.0</ele><time>2026-03-29T10:49:21.309Z</time></trkpt><trkpt lat="44.1193317" lon="11.028765"><ele>613.0</ele><time>2026-03-29T10:49:24.308Z</time></trkpt><trkpt lat="44.1192717" lon="11.0287"><ele>613.0</ele><time>2026-03-29T10:49:28.308Z</time></trkpt><trkpt lat="44.1192067" lon="11.028635"><ele>613.0</ele><time>2026-03-29T10:49:32.309Z</time></trkpt><trkpt lat="44.1191717" lon="11.0285567"><ele>613.0</ele><time>2026-03-29T10:49:35.308Z</time></trkpt><trkpt lat="44.11914" lon="11.0284583"><ele>613.0</ele><time>2026-03-29T10:49:39.31Z</time></trkpt><trkpt lat="44.1191183" lon="11.0283517"><ele>613.0</ele><time>2026-03-29T10:49:43.309Z</time></trkpt><trkpt lat="44.1190983" lon="11.02825"><ele>614.1666666666667</ele><time>2026-03-29T10:49:47.309Z</time></trkpt><trkpt lat="44.1191083" lon="11.028145"><ele>615.3333333333334</ele><time>2026-03-29T10:49:50.31Z</time></trkpt><trkpt lat="44.119135" lon="11.0280433"><ele>616.5</ele><time>2026-03-29T10:49:53.31Z</time></trkpt><trkpt lat="44.119175" lon="11.0279517"><ele>617.6666666666666</ele><time>2026-03-29T10:49:56.312Z</time></trkpt><trkpt lat="44.1192233" lon="11.0278633"><ele>618.8333333333333</ele><time>2026-03-29T10:49:59.31Z</time></trkpt><trkpt lat="44.119275" lon="11.0277817"><ele>620.0</ele><time>2026-03-29T10:50:02.309Z</time></trkpt><trkpt lat="44.119325" lon="11.02772"><ele>620.0</ele><time>2026-03-29T10:50:05.31Z</time></trkpt><trkpt lat="44.1193883" lon="11.0276517"><ele>620.0</ele><time>2026-03-29T10:50:08.309Z</time></trkpt><trkpt lat="44.119445" lon="11.0275783"><ele>620.0</ele><time>2026-03-29T10:50:11.312Z</time></trkpt><trkpt lat="44.11949" lon="11.0274983"><ele>620.0</ele><time>2026-03-29T10:50:14.31Z</time></trkpt><trkpt lat="44.1195317" lon="11.0274183"><ele>620.0</ele><time>2026-03-29T10:50:17.309Z</time></trkpt><trkpt lat="44.1195717" lon="11.0273367"><ele>620.0</ele><time>2026-03-29T10:50:20.31Z</time></trkpt><trkpt lat="44.11963" lon="11.02724"><ele>620.4</ele><time>2026-03-29T10:53:58.308Z</time></trkpt><trkpt lat="44.1196917" lon="11.0271433"><ele>620.8</ele><time>2026-03-29T10:54:01.31Z</time></trkpt><trkpt lat="44.119745" lon="11.0270767"><ele>621.2</ele><time>2026-03-29T10:54:03.309Z</time></trkpt><trkpt lat="44.119815" lon="11.0269933"><ele>621.6</ele><time>2026-03-29T10:54:05.31Z</time></trkpt><trkpt lat="44.1198883" lon="11.0268983"><ele>622.0</ele><time>2026-03-29T10:54:07.31Z</time></trkpt><trkpt lat="44.1199633" lon="11.026805"><ele>622.0</ele><time>2026-03-29T10:54:09.31Z</time></trkpt><trkpt lat="44.1200433" lon="11.02671"><ele>622.0</ele><time>2026-03-29T10:54:11.308Z</time></trkpt><trkpt lat="44.1201217" lon="11.0266133"><ele>622.0</ele><time>2026-03-29T10:54:13.309Z</time></trkpt><trkpt lat="44.120205" lon="11.02652"><ele>622.0</ele><time>2026-03-29T10:54:15.311Z</time></trkpt><trkpt lat="44.1202883" lon="11.0264167"><ele>622.0</ele><time>2026-03-29T10:54:17.309Z</time></trkpt><trkpt lat="44.120375" lon="11.0263117"><ele>624.0</ele><time>2026-03-29T10:54:19.311Z</time></trkpt><trkpt lat="44.1204567" lon="11.026205"><ele>626.0</ele><time>2026-03-29T10:54:21.311Z</time></trkpt><trkpt lat="44.1205433" lon="11.0261"><ele>628.0</ele><time>2026-03-29T10:54:23.309Z</time></trkpt><trkpt lat="44.1206317" lon="11.0259983"><ele>630.0</ele><time>2026-03-29T10:54:25.31Z</time></trkpt><trkpt lat="44.1207133" lon="11.0258883"><ele>629.5</ele><time>2026-03-29T10:54:27.309Z</time></trkpt><trkpt lat="44.1208" lon="11.0257817"><ele>629.0</ele><time>2026-03-29T10:54:29.309Z</time></trkpt><trkpt lat="44.1208867" lon="11.0256833"><ele>628.5</ele><time>2026-03-29T10:54:31.31Z</time></trkpt><trkpt lat="44.1209783" lon="11.0255733"><ele>628.0</ele><time>2026-03-29T10:54:33.308Z</time></trkpt><trkpt lat="44.12107" lon="11.0254633"><ele>628.0</ele><time>2026-03-29T10:54:35.309Z</time></trkpt><trkpt lat="44.1211683" lon="11.025355"><ele>628.0</ele><time>2026-03-29T10:54:37.308Z</time></trkpt><trkpt lat="44.1212233" lon="11.02531"><ele>628.0</ele><time>2026-03-29T10:54:38.307Z</time></trkpt><trkpt lat="44.12128" lon="11.0252583"><ele>628.0</ele><time>2026-03-29T10:54:39.308Z</time></trkpt><trkpt lat="44.1213367" lon="11.0252133"><ele>628.0</ele><time>2026-03-29T10:54:40.307Z</time></trkpt><trkpt lat="44.121405" lon="11.0251767"><ele>628.0</ele><time>2026-03-29T10:54:41.309Z</time></trkpt><trkpt lat="44.12147" lon="11.02515"><ele>627.9999999999999</ele><time>2026-03-29T10:54:42.309Z</time></trkpt><trkpt lat="44.12154" lon="11.0251217"><ele>628.0</ele><time>2026-03-29T10:54:43.309Z</time></trkpt><trkpt lat="44.1216133" lon="11.025095"><ele>628.0</ele><time>2026-03-29T10:54:44.31Z</time></trkpt><trkpt lat="44.1216867" lon="11.02507"><ele>628.0</ele><time>2026-03-29T10:54:45.31Z</time></trkpt><trkpt lat="44.1217517" lon="11.0250483"><ele>628.0</ele><time>2026-03-29T10:54:46.309Z</time></trkpt><trkpt lat="44.121815" lon="11.0250267"><ele>627.9999999999999</ele><time>2026-03-29T10:54:47.31Z</time></trkpt><trkpt lat="44.1218767" lon="11.025005"><ele>628.0</ele><time>2026-03-29T10:54:48.308Z</time></trkpt><trkpt lat="44.1219883" lon="11.024955"><ele>628.6</ele><time>2026-03-29T10:54:50.307Z</time></trkpt><trkpt lat="44.1220867" lon="11.0249033"><ele>629.1999999999999</ele><time>2026-03-29T10:54:52.309Z</time></trkpt><trkpt lat="44.1221867" lon="11.0248433"><ele>629.8</ele><time>2026-03-29T10:54:54.308Z</time></trkpt><trkpt lat="44.1222817" lon="11.02477"><ele>630.4</ele><time>2026-03-29T10:54:56.308Z</time></trkpt><trkpt lat="44.122375" lon="11.0246883"><ele>631.0</ele><time>2026-03-29T10:54:58.31Z</time></trkpt><trkpt lat="44.122465" lon="11.0246067"><ele>631.0</ele><time>2026-03-29T10:55:00.308Z</time></trkpt><trkpt lat="44.12255" lon="11.02452"><ele>631.0</ele><time>2026-03-29T10:55:02.31Z</time></trkpt><trkpt lat="44.122625" lon="11.0244267"><ele>631.0</ele><time>2026-03-29T10:55:04.307Z</time></trkpt><trkpt lat="44.1226883" lon="11.024335"><ele>631.0</ele><time>2026-03-29T10:55:06.309Z</time></trkpt><trkpt lat="44.1227367" lon="11.024235"><ele>631.0</ele><time>2026-03-29T10:55:08.309Z</time></trkpt><trkpt lat="44.122775" lon="11.024125"><ele>632.6666666666667</ele><time>2026-03-29T10:55:10.308Z</time></trkpt><trkpt lat="44.1228" lon="11.0240067"><ele>634.3333333333334</ele><time>2026-03-29T10:55:12.31Z</time></trkpt><trkpt lat="44.1228317" lon="11.0238883"><ele>636.0</ele><time>2026-03-29T10:55:14.309Z</time></trkpt><trkpt lat="44.1228567" lon="11.02378"><ele>637.6666666666666</ele><time>2026-03-29T10:55:16.308Z</time></trkpt><trkpt lat="44.122885" lon="11.0236733"><ele>639.3333333333333</ele><time>2026-03-29T10:55:18.307Z</time></trkpt><trkpt lat="44.1229217" lon="11.0235567"><ele>641.0</ele><time>2026-03-29T10:55:20.308Z</time></trkpt><trkpt lat="44.1229583" lon="11.0234467"><ele>641.0</ele><time>2026-03-29T10:55:22.308Z</time></trkpt><trkpt lat="44.1230083" lon="11.0233383"><ele>641.0</ele><time>2026-03-29T10:55:24.308Z</time></trkpt><trkpt lat="44.1230617" lon="11.02324"><ele>641.0</ele><time>2026-03-29T10:55:26.31Z</time></trkpt><trkpt lat="44.1231183" lon="11.0231533"><ele>641.0</ele><time>2026-03-29T10:55:28.309Z</time></trkpt><trkpt lat="44.1231783" lon="11.02308"><ele>641.0</ele><time>2026-03-29T10:55:30.31Z</time></trkpt><trkpt lat="44.1232417" lon="11.023005"><ele>641.0</ele><time>2026-03-29T10:55:32.31Z</time></trkpt><trkpt lat="44.1233033" lon="11.02293"><ele>640.3333333333333</ele><time>2026-03-29T10:55:34.308Z</time></trkpt><trkpt lat="44.12337" lon="11.022845"><ele>639.6666666666666</ele><time>2026-03-29T10:55:36.308Z</time></trkpt><trkpt lat="44.1234433" lon="11.0227667"><ele>639.0</ele><time>2026-03-29T10:55:38.31Z</time></trkpt><trkpt lat="44.1235133" lon="11.0227033"><ele>638.3333333333334</ele><time>2026-03-29T10:55:40.31Z</time></trkpt><trkpt lat="44.1235833" lon="11.0226433"><ele>637.6666666666667</ele><time>2026-03-29T10:55:42.309Z</time></trkpt><trkpt lat="44.123655" lon="11.0225883"><ele>637.0</ele><time>2026-03-29T10:55:44.311Z</time></trkpt><trkpt lat="44.1237317" lon="11.0225483"><ele>637.0</ele><time>2026-03-29T10:55:46.307Z</time></trkpt><trkpt lat="44.1238083" lon="11.02252"><ele>637.0</ele><time>2026-03-29T10:55:48.31Z</time></trkpt><trkpt lat="44.1238783" lon="11.022485"><ele>637.0</ele><time>2026-03-29T10:55:50.308Z</time></trkpt><trkpt lat="44.1239383" lon="11.0224317"><ele>637.0</ele><time>2026-03-29T10:55:52.31Z</time></trkpt><trkpt lat="44.123985" lon="11.0223517"><ele>637.0</ele><time>2026-03-29T10:55:54.308Z</time></trkpt><trkpt lat="44.1240117" lon="11.02224"><ele>637.0</ele><time>2026-03-29T10:55:56.308Z</time></trkpt><trkpt lat="44.12401" lon="11.0221183"><ele>639.0</ele><time>2026-03-29T10:55:58.31Z</time></trkpt><trkpt lat="44.1239983" lon="11.0219983"><ele>641.0</ele><time>2026-03-29T10:56:00.31Z</time></trkpt><trkpt lat="44.1239817" lon="11.021885"><ele>643.0</ele><time>2026-03-29T10:56:02.308Z</time></trkpt><trkpt lat="44.123965" lon="11.021765"><ele>645.0</ele><time>2026-03-29T10:56:04.31Z</time></trkpt><trkpt lat="44.123945" lon="11.0216433"><ele>647.0</ele><time>2026-03-29T10:56:06.309Z</time></trkpt><trkpt lat="44.1239283" lon="11.0215183"><ele>649.0</ele><time>2026-03-29T10:56:08.311Z</time></trkpt><trkpt lat="44.1239117" lon="11.02139"><ele>649.8333333333334</ele><time>2026-03-29T10:56:10.309Z</time></trkpt><trkpt lat="44.1239067" lon="11.0212567"><ele>650.6666666666667</ele><time>2026-03-29T10:56:12.311Z</time></trkpt><trkpt lat="44.1238983" lon="11.0211417"><ele>651.5</ele><time>2026-03-29T10:56:14.311Z</time></trkpt><trkpt lat="44.1239117" lon="11.0210433"><ele>652.3333333333334</ele><time>2026-03-29T10:56:16.309Z</time></trkpt><trkpt lat="44.1239417" lon="11.020935"><ele>653.1666666666666</ele><time>2026-03-29T10:56:18.31Z</time></trkpt><trkpt lat="44.1239867" lon="11.0208333"><ele>654.0</ele><time>2026-03-29T10:56:20.311Z</time></trkpt><trkpt lat="44.12404" lon="11.02075"><ele>651.0</ele><time>2026-03-29T10:56:22.309Z</time></trkpt><trkpt lat="44.1240883" lon="11.02069"><ele>648.0</ele><time>2026-03-29T10:56:24.31Z</time></trkpt><trkpt lat="44.124145" lon="11.0206333"><ele>645.0</ele><time>2026-03-29T10:56:27.31Z</time></trkpt><trkpt lat="44.124205" lon="11.0205533"><ele>642.0</ele><time>2026-03-29T10:56:42.31Z</time></trkpt><trkpt lat="44.124265" lon="11.0205017"><ele>639.0</ele><time>2026-03-29T10:56:44.309Z</time></trkpt><trkpt lat="44.12434" lon="11.02045"><ele>636.0</ele><time>2026-03-29T10:56:46.311Z</time></trkpt><trkpt lat="44.1244" lon="11.0203833"><ele>633.0</ele><time>2026-03-29T10:56:48.308Z</time></trkpt><trkpt lat="44.1244517" lon="11.020325"><ele>633.0</ele><time>2026-03-29T10:56:50.31Z</time></trkpt><trkpt lat="44.1245133" lon="11.0202583"><ele>633.0</ele><time>2026-03-29T10:56:53.31Z</time></trkpt><trkpt lat="44.12454" lon="11.0201617"><ele>633.0</ele><time>2026-03-29T10:56:56.309Z</time></trkpt><trkpt lat="44.124485" lon="11.0200817"><ele>633.0</ele><time>2026-03-29T10:56:59.309Z</time></trkpt><trkpt lat="44.1243933" lon="11.020075"><ele>633.0</ele><time>2026-03-29T10:57:01.308Z</time></trkpt><trkpt lat="44.1243017" lon="11.0200517"><ele>633.0</ele><time>2026-03-29T10:57:03.308Z</time></trkpt><trkpt lat="44.1242183" lon="11.0200167"><ele>633.3333333333334</ele><time>2026-03-29T10:57:05.309Z</time></trkpt><trkpt lat="44.1241533" lon="11.0199817"><ele>633.6666666666666</ele><time>2026-03-29T10:57:07.308Z</time></trkpt><trkpt lat="44.1240817" lon="11.0199483"><ele>634.0</ele><time>2026-03-29T10:57:09.31Z</time></trkpt><trkpt lat="44.12401" lon="11.0199083"><ele>634.3333333333333</ele><time>2026-03-29T10:57:11.309Z</time></trkpt><trkpt lat="44.1239267" lon="11.0198733"><ele>634.6666666666666</ele><time>2026-03-29T10:57:13.31Z</time></trkpt><trkpt lat="44.1238467" lon="11.0198433"><ele>635.0</ele><time>2026-03-29T10:57:15.309Z</time></trkpt><trkpt lat="44.1237683" lon="11.0198083"><ele>635.0</ele><time>2026-03-29T10:57:17.31Z</time></trkpt><trkpt lat="44.12368" lon="11.01977"><ele>635.0</ele><time>2026-03-29T10:57:19.307Z</time></trkpt><trkpt lat="44.1235817" lon="11.0197333"><ele>635.0</ele><time>2026-03-29T10:57:21.309Z</time></trkpt><trkpt lat="44.1234817" lon="11.0197033"><ele>635.0</ele><time>2026-03-29T10:57:23.308Z</time></trkpt><trkpt lat="44.123385" lon="11.0196667"><ele>635.0</ele><time>2026-03-29T10:57:25.307Z</time></trkpt><trkpt lat="44.123325" lon="11.0196333"><ele>635.0</ele><time>2026-03-29T10:57:26.308Z</time></trkpt><trkpt lat="44.1232933" lon="11.01955"><ele>635.0</ele><time>2026-03-29T10:57:28.306Z</time></trkpt><trkpt lat="44.12319" lon="11.01949"><ele>635.0</ele><time>2026-03-29T10:57:29.308Z</time></trkpt><trkpt lat="44.12314" lon="11.0194283"><ele>635.0</ele><time>2026-03-29T10:57:30.306Z</time></trkpt><trkpt lat="44.1231" lon="11.0193517"><ele>635.0</ele><time>2026-03-29T10:57:31.31Z</time></trkpt><trkpt lat="44.1230617" lon="11.0192717"><ele>635.0</ele><time>2026-03-29T10:57:32.31Z</time></trkpt><trkpt lat="44.12305" lon="11.0191767"><ele>634.1428571428571</ele><time>2026-03-29T10:57:33.309Z</time></trkpt><trkpt lat="44.1230683" lon="11.01907"><ele>633.2857142857142</ele><time>2026-03-29T10:57:34.308Z</time></trkpt><trkpt lat="44.1230667" lon="11.0189683"><ele>632.4285714285713</ele><time>2026-03-29T10:57:35.31Z</time></trkpt><trkpt lat="44.12305" lon="11.0188783"><ele>631.5714285714286</ele><time>2026-03-29T10:57:36.309Z</time></trkpt><trkpt lat="44.1230217" lon="11.018795"><ele>630.7142857142858</ele><time>2026-03-29T10:57:37.308Z</time></trkpt><trkpt lat="44.12298" lon="11.01872"><ele>629.8571428571428</ele><time>2026-03-29T10:57:38.309Z</time></trkpt><trkpt lat="44.122935" lon="11.018645"><ele>629.0</ele><time>2026-03-29T10:57:39.309Z</time></trkpt><trkpt lat="44.122885" lon="11.0185733"><ele>629.0</ele><time>2026-03-29T10:57:40.307Z</time></trkpt><trkpt lat="44.122825" lon="11.0184983"><ele>629.0</ele><time>2026-03-29T10:57:41.31Z</time></trkpt><trkpt lat="44.12277" lon="11.018425"><ele>629.0</ele><time>2026-03-29T10:57:42.31Z</time></trkpt><trkpt lat="44.1227183" lon="11.0183633"><ele>629.0</ele><time>2026-03-29T10:57:43.308Z</time></trkpt><trkpt lat="44.1226617" lon="11.0183117"><ele>629.0</ele><time>2026-03-29T10:57:44.31Z</time></trkpt><trkpt lat="44.1225983" lon="11.01827"><ele>629.0</ele><time>2026-03-29T10:57:45.31Z</time></trkpt><trkpt lat="44.1225233" lon="11.0182433"><ele>629.0</ele><time>2026-03-29T10:57:46.31Z</time></trkpt><trkpt lat="44.1224433" lon="11.018245"><ele>628.6666666666666</ele><time>2026-03-29T10:57:47.309Z</time></trkpt><trkpt lat="44.1223667" lon="11.0182583"><ele>628.3333333333333</ele><time>2026-03-29T10:57:48.308Z</time></trkpt><trkpt lat="44.12229" lon="11.0182867"><ele>628.0</ele><time>2026-03-29T10:57:49.309Z</time></trkpt><trkpt lat="44.1222133" lon="11.0183333"><ele>627.6666666666666</ele><time>2026-03-29T10:57:50.31Z</time></trkpt><trkpt lat="44.1221333" lon="11.01838"><ele>627.3333333333334</ele><time>2026-03-29T10:57:51.307Z</time></trkpt><trkpt lat="44.1220483" lon="11.01842"><ele>627.0</ele><time>2026-03-29T10:57:52.307Z</time></trkpt><trkpt lat="44.12196" lon="11.0184417"><ele>627.0</ele><time>2026-03-29T10:57:53.308Z</time></trkpt><trkpt lat="44.1218683" lon="11.018455"><ele>627.0</ele><time>2026-03-29T10:57:54.309Z</time></trkpt><trkpt lat="44.1217767" lon="11.01846"><ele>627.0</ele><time>2026-03-29T10:57:55.309Z</time></trkpt><trkpt lat="44.12169" lon="11.0184583"><ele>627.0</ele><time>2026-03-29T10:57:56.311Z</time></trkpt><trkpt lat="44.1216033" lon="11.018465"><ele>627.0</ele><time>2026-03-29T10:57:57.31Z</time></trkpt><trkpt lat="44.12152" lon="11.0184717"><ele>627.0</ele><time>2026-03-29T10:57:58.309Z</time></trkpt><trkpt lat="44.1214367" lon="11.0184717"><ele>628.0</ele><time>2026-03-29T10:57:59.307Z</time></trkpt><trkpt lat="44.12135" lon="11.0184633"><ele>629.0</ele><time>2026-03-29T10:58:00.31Z</time></trkpt><trkpt lat="44.1212667" lon="11.01845"><ele>630.0</ele><time>2026-03-29T10:58:01.309Z</time></trkpt><trkpt lat="44.1211833" lon="11.0184333"><ele>631.0</ele><time>2026-03-29T10:58:02.309Z</time></trkpt><trkpt lat="44.121095" lon="11.0184117"><ele>632.0</ele><time>2026-03-29T10:58:03.31Z</time></trkpt><trkpt lat="44.1210083" lon="11.01839"><ele>633.0</ele><time>2026-03-29T10:58:04.309Z</time></trkpt><trkpt lat="44.1209283" lon="11.0183767"><ele>633.0</ele><time>2026-03-29T10:58:05.308Z</time></trkpt><trkpt lat="44.1208467" lon="11.018365"><ele>633.0</ele><time>2026-03-29T10:58:06.31Z</time></trkpt><trkpt lat="44.1207683" lon="11.0183583"><ele>633.0</ele><time>2026-03-29T10:58:07.309Z</time></trkpt><trkpt lat="44.1206883" lon="11.0183333"><ele>633.0</ele><time>2026-03-29T10:58:08.31Z</time></trkpt><trkpt lat="44.120605" lon="11.0182933"><ele>633.0</ele><time>2026-03-29T10:58:09.309Z</time></trkpt><trkpt lat="44.1205267" lon="11.018245"><ele>633.0</ele><time>2026-03-29T10:58:10.307Z</time></trkpt><trkpt lat="44.1204517" lon="11.018175"><ele>632.4</ele><time>2026-03-29T10:58:11.309Z</time></trkpt><trkpt lat="44.1203783" lon="11.0180867"><ele>631.8</ele><time>2026-03-29T10:58:12.308Z</time></trkpt><trkpt lat="44.1203183" lon="11.0179833"><ele>631.2</ele><time>2026-03-29T10:58:13.31Z</time></trkpt><trkpt lat="44.1202733" lon="11.0178617"><ele>630.6</ele><time>2026-03-29T10:58:14.308Z</time></trkpt><trkpt lat="44.1202333" lon="11.0177333"><ele>630.0</ele><time>2026-03-29T10:58:15.31Z</time></trkpt><trkpt lat="44.1201983" lon="11.0176"><ele>629.4</ele><time>2026-03-29T10:58:16.308Z</time></trkpt><trkpt lat="44.120155" lon="11.017485"><ele>628.8</ele><time>2026-03-29T10:58:17.309Z</time></trkpt><trkpt lat="44.1200933" lon="11.0173967"><ele>628.2</ele><time>2026-03-29T10:58:18.31Z</time></trkpt><trkpt lat="44.12002" lon="11.0173167"><ele>627.6</ele><time>2026-03-29T10:58:19.309Z</time></trkpt><trkpt lat="44.1199417" lon="11.0172467"><ele>627.0</ele><time>2026-03-29T10:58:20.31Z</time></trkpt><trkpt lat="44.11986" lon="11.01719"><ele>627.0</ele><time>2026-03-29T10:58:21.308Z</time></trkpt><trkpt lat="44.1197783" lon="11.01713"><ele>627.0</ele><time>2026-03-29T10:58:22.31Z</time></trkpt><trkpt lat="44.1196967" lon="11.0170667"><ele>627.0</ele><time>2026-03-29T10:58:23.309Z</time></trkpt><trkpt lat="44.119615" lon="11.0169983"><ele>627.0</ele><time>2026-03-29T10:58:24.31Z</time></trkpt><trkpt lat="44.1195333" lon="11.016925"><ele>627.0</ele><time>2026-03-29T10:58:25.308Z</time></trkpt><trkpt lat="44.119455" lon="11.01685"><ele>627.0</ele><time>2026-03-29T10:58:26.31Z</time></trkpt><trkpt lat="44.11938" lon="11.0167683"><ele>627.0</ele><time>2026-03-29T10:58:27.309Z</time></trkpt><trkpt lat="44.1193033" lon="11.0166783"><ele>627.0</ele><time>2026-03-29T10:58:28.308Z</time></trkpt><trkpt lat="44.11923" lon="11.0166"><ele>627.0</ele><time>2026-03-29T10:58:29.308Z</time></trkpt><trkpt lat="44.11915" lon="11.0165317"><ele>627.0</ele><time>2026-03-29T10:58:30.308Z</time></trkpt><trkpt lat="44.119065" lon="11.0164883"><ele>630.6</ele><time>2026-03-29T10:58:31.309Z</time></trkpt><trkpt lat="44.1189733" lon="11.01646"><ele>634.2</ele><time>2026-03-29T10:58:32.31Z</time></trkpt><trkpt lat="44.1188833" lon="11.0164467"><ele>637.8</ele><time>2026-03-29T10:58:33.307Z</time></trkpt><trkpt lat="44.1187917" lon="11.016425"><ele>641.4</ele><time>2026-03-29T10:58:34.308Z</time></trkpt><trkpt lat="44.1187083" lon="11.0163683"><ele>645.0</ele><time>2026-03-29T10:58:35.31Z</time></trkpt><trkpt lat="44.1186383" lon="11.0162867"><ele>645.0</ele><time>2026-03-29T10:58:36.309Z</time></trkpt><trkpt lat="44.11858" lon="11.016195"><ele>645.0</ele><time>2026-03-29T10:58:37.309Z</time></trkpt><trkpt lat="44.11854" lon="11.0160983"><ele>645.0</ele><time>2026-03-29T10:58:38.31Z</time></trkpt><trkpt lat="44.1185183" lon="11.015995"><ele>645.0</ele><time>2026-03-29T10:58:39.309Z</time></trkpt><trkpt lat="44.1185" lon="11.0158983"><ele>645.0</ele><time>2026-03-29T10:58:40.31Z</time></trkpt><trkpt lat="44.1184883" lon="11.0157967"><ele>645.0</ele><time>2026-03-29T10:58:41.308Z</time></trkpt><trkpt lat="44.1184817" lon="11.0156883"><ele>643.8333333333334</ele><time>2026-03-29T10:58:42.309Z</time></trkpt><trkpt lat="44.118475" lon="11.0155833"><ele>642.6666666666666</ele><time>2026-03-29T10:58:43.309Z</time></trkpt><trkpt lat="44.1184717" lon="11.0154817"><ele>641.5</ele><time>2026-03-29T10:58:44.309Z</time></trkpt><trkpt lat="44.11847" lon="11.01538"><ele>640.3333333333333</ele><time>2026-03-29T10:58:45.309Z</time></trkpt><trkpt lat="44.1184683" lon="11.0152717"><ele>639.1666666666666</ele><time>2026-03-29T10:58:46.308Z</time></trkpt><trkpt lat="44.1184667" lon="11.01516"><ele>638.0</ele><time>2026-03-29T10:58:47.308Z</time></trkpt><trkpt lat="44.1184633" lon="11.0150533"><ele>635.5</ele><time>2026-03-29T10:58:48.31Z</time></trkpt><trkpt lat="44.118445" lon="11.0149567"><ele>633.0</ele><time>2026-03-29T10:58:49.308Z</time></trkpt><trkpt lat="44.1184167" lon="11.0148567"><ele>630.5</ele><time>2026-03-29T10:58:50.308Z</time></trkpt><trkpt lat="44.1183717" lon="11.0147767"><ele>628.0</ele><time>2026-03-29T10:58:51.308Z</time></trkpt><trkpt lat="44.11831" lon="11.01471"><ele>625.5</ele><time>2026-03-29T10:58:52.307Z</time></trkpt><trkpt lat="44.118255" lon="11.01464"><ele>623.0</ele><time>2026-03-29T10:58:53.308Z</time></trkpt><trkpt lat="44.118195" lon="11.0145733"><ele>625.6666666666666</ele><time>2026-03-29T10:58:54.309Z</time></trkpt><trkpt lat="44.1181383" lon="11.0145033"><ele>628.3333333333333</ele><time>2026-03-29T10:58:55.307Z</time></trkpt><trkpt lat="44.118095" lon="11.014425"><ele>631.0</ele><time>2026-03-29T10:58:56.309Z</time></trkpt><trkpt lat="44.1180617" lon="11.0143333"><ele>633.6666666666666</ele><time>2026-03-29T10:58:57.307Z</time></trkpt><trkpt lat="44.1180317" lon="11.0142367"><ele>636.3333333333334</ele><time>2026-03-29T10:58:58.308Z</time></trkpt><trkpt lat="44.118005" lon="11.014135"><ele>639.0</ele><time>2026-03-29T10:58:59.308Z</time></trkpt><trkpt lat="44.1179833" lon="11.0140283"><ele>639.0000000000001</ele><time>2026-03-29T10:59:00.309Z</time></trkpt><trkpt lat="44.117965" lon="11.013925"><ele>639.0</ele><time>2026-03-29T10:59:01.309Z</time></trkpt><trkpt lat="44.117945" lon="11.0138183"><ele>639.0</ele><time>2026-03-29T10:59:02.31Z</time></trkpt><trkpt lat="44.117935" lon="11.0137167"><ele>639.0</ele><time>2026-03-29T10:59:03.311Z</time></trkpt><trkpt lat="44.117925" lon="11.0136133"><ele>639.0</ele><time>2026-03-29T10:59:04.308Z</time></trkpt><trkpt lat="44.11791" lon="11.0135117"><ele>639.0000000000001</ele><time>2026-03-29T10:59:05.309Z</time></trkpt><trkpt lat="44.1178817" lon="11.0134233"><ele>639.0</ele><time>2026-03-29T10:59:06.309Z</time></trkpt><trkpt lat="44.1178367" lon="11.0133467"><ele>635.2857142857143</ele><time>2026-03-29T10:59:07.308Z</time></trkpt><trkpt lat="44.117785" lon="11.0132833"><ele>631.5714285714286</ele><time>2026-03-29T10:59:08.31Z</time></trkpt><trkpt lat="44.1177233" lon="11.0132367"><ele>627.8571428571429</ele><time>2026-03-29T10:59:09.309Z</time></trkpt><trkpt lat="44.1176583" lon="11.0131917"><ele>624.1428571428571</ele><time>2026-03-29T10:59:10.312Z</time></trkpt><trkpt lat="44.117595" lon="11.0131417"><ele>620.4285714285714</ele><time>2026-03-29T10:59:11.309Z</time></trkpt><trkpt lat="44.1175317" lon="11.0130933"><ele>616.7142857142858</ele><time>2026-03-29T10:59:12.31Z</time></trkpt><trkpt lat="44.117465" lon="11.0130433"><ele>613.0</ele><time>2026-03-29T10:59:13.31Z</time></trkpt><trkpt lat="44.1173933" lon="11.0130017"><ele>613.0</ele><time>2026-03-29T10:59:14.31Z</time></trkpt><trkpt lat="44.1173267" lon="11.0129683"><ele>613.0</ele><time>2026-03-29T10:59:15.308Z</time></trkpt><trkpt lat="44.1172533" lon="11.012945"><ele>613.0</ele><time>2026-03-29T10:59:16.308Z</time></trkpt><trkpt lat="44.1171733" lon="11.012925"><ele>613.0</ele><time>2026-03-29T10:59:17.309Z</time></trkpt><trkpt lat="44.1170833" lon="11.0129133"><ele>613.0</ele><time>2026-03-29T10:59:18.309Z</time></trkpt><trkpt lat="44.11699" lon="11.0129133"><ele>613.0</ele><time>2026-03-29T10:59:19.309Z</time></trkpt><trkpt lat="44.116895" lon="11.01293"><ele>613.0</ele><time>2026-03-29T10:59:20.31Z</time></trkpt><trkpt lat="44.11681" lon="11.012965"><ele>613.0</ele><time>2026-03-29T10:59:21.309Z</time></trkpt><trkpt lat="44.1167117" lon="11.0130067"><ele>613.0</ele><time>2026-03-29T10:59:22.307Z</time></trkpt><trkpt lat="44.116605" lon="11.0130483"><ele>613.0</ele><time>2026-03-29T10:59:23.309Z</time></trkpt><trkpt lat="44.1164983" lon="11.0130983"><ele>613.0</ele><time>2026-03-29T10:59:24.309Z</time></trkpt><trkpt lat="44.1163833" lon="11.0131383"><ele>612.0</ele><time>2026-03-29T10:59:25.308Z</time></trkpt><trkpt lat="44.11627" lon="11.0131767"><ele>611.0</ele><time>2026-03-29T10:59:26.31Z</time></trkpt><trkpt lat="44.1161617" lon="11.013225"><ele>610.0</ele><time>2026-03-29T10:59:27.309Z</time></trkpt><trkpt lat="44.11607" lon="11.013275"><ele>609.0</ele><time>2026-03-29T10:59:28.308Z</time></trkpt><trkpt lat="44.1159867" lon="11.0133183"><ele>608.0</ele><time>2026-03-29T10:59:29.31Z</time></trkpt><trkpt lat="44.1159083" lon="11.01335"><ele>609.1666666666666</ele><time>2026-03-29T10:59:30.308Z</time></trkpt><trkpt lat="44.1158283" lon="11.0133683"><ele>610.3333333333333</ele><time>2026-03-29T10:59:31.309Z</time></trkpt><trkpt lat="44.115755" lon="11.013345"><ele>611.5</ele><time>2026-03-29T10:59:32.31Z</time></trkpt><trkpt lat="44.1156783" lon="11.0133067"><ele>612.6666666666666</ele><time>2026-03-29T10:59:33.309Z</time></trkpt><trkpt lat="44.1156067" lon="11.0132483"><ele>613.8333333333334</ele><time>2026-03-29T10:59:34.31Z</time></trkpt><trkpt lat="44.1155483" lon="11.0131583"><ele>615.0</ele><time>2026-03-29T10:59:35.308Z</time></trkpt><trkpt lat="44.1154967" lon="11.0130883"><ele>615.0</ele><time>2026-03-29T10:59:36.308Z</time></trkpt><trkpt lat="44.115425" lon="11.0130367"><ele>615.0</ele><time>2026-03-29T10:59:37.31Z</time></trkpt><trkpt lat="44.115345" lon="11.0129883"><ele>615.0</ele><time>2026-03-29T10:59:38.309Z</time></trkpt><trkpt lat="44.115255" lon="11.01297"><ele>615.0</ele><time>2026-03-29T10:59:39.309Z</time></trkpt><trkpt lat="44.1151717" lon="11.01295"><ele>615.0</ele><time>2026-03-29T10:59:40.309Z</time></trkpt><trkpt lat="44.115085" lon="11.0129133"><ele>615.0</ele><time>2026-03-29T10:59:41.31Z</time></trkpt><trkpt lat="44.114995" lon="11.0128667"><ele>615.0</ele><time>2026-03-29T10:59:42.308Z</time></trkpt><trkpt lat="44.1149083" lon="11.012815"><ele>615.0</ele><time>2026-03-29T10:59:43.31Z</time></trkpt><trkpt lat="44.114825" lon="11.0127617"><ele>615.0</ele><time>2026-03-29T10:59:44.309Z</time></trkpt><trkpt lat="44.1147417" lon="11.012715"><ele>615.0</ele><time>2026-03-29T10:59:45.311Z</time></trkpt><trkpt lat="44.1146583" lon="11.0126767"><ele>615.0</ele><time>2026-03-29T10:59:46.307Z</time></trkpt><trkpt lat="44.114575" lon="11.0126517"><ele>615.0</ele><time>2026-03-29T10:59:47.308Z</time></trkpt><trkpt lat="44.11449" lon="11.0126417"><ele>615.6666666666666</ele><time>2026-03-29T10:59:48.309Z</time></trkpt><trkpt lat="44.1144067" lon="11.0126533"><ele>616.3333333333334</ele><time>2026-03-29T10:59:49.309Z</time></trkpt><trkpt lat="44.1143233" lon="11.0126767"><ele>617.0</ele><time>2026-03-29T10:59:50.311Z</time></trkpt><trkpt lat="44.11424" lon="11.0127083"><ele>617.6666666666667</ele><time>2026-03-29T10:59:51.307Z</time></trkpt><trkpt lat="44.1141567" lon="11.0127417"><ele>618.3333333333334</ele><time>2026-03-29T10:59:52.31Z</time></trkpt><trkpt lat="44.1140767" lon="11.0127667"><ele>619.0</ele><time>2026-03-29T10:59:53.31Z</time></trkpt><trkpt lat="44.1139933" lon="11.01278"><ele>621.6666666666667</ele><time>2026-03-29T10:59:54.307Z</time></trkpt><trkpt lat="44.11391" lon="11.01277"><ele>624.3333333333334</ele><time>2026-03-29T10:59:55.31Z</time></trkpt><trkpt lat="44.11383" lon="11.0127417"><ele>627.0</ele><time>2026-03-29T10:59:56.309Z</time></trkpt><trkpt lat="44.1137617" lon="11.012695"><ele>629.6666666666666</ele><time>2026-03-29T10:59:57.309Z</time></trkpt><trkpt lat="44.1137017" lon="11.0126383"><ele>632.3333333333333</ele><time>2026-03-29T10:59:58.309Z</time></trkpt><trkpt lat="44.113645" lon="11.01257"><ele>635.0</ele><time>2026-03-29T10:59:59.311Z</time></trkpt><trkpt lat="44.1135883" lon="11.0124967"><ele>632.9999999999999</ele><time>2026-03-29T11:00:00.311Z</time></trkpt><trkpt lat="44.113535" lon="11.0124233"><ele>631.0</ele><time>2026-03-29T11:00:01.309Z</time></trkpt><trkpt lat="44.1134817" lon="11.0123567"><ele>629.0</ele><time>2026-03-29T11:00:02.312Z</time></trkpt><trkpt lat="44.1134283" lon="11.0122933"><ele>627.0</ele><time>2026-03-29T11:00:03.31Z</time></trkpt><trkpt lat="44.113375" lon="11.0122367"><ele>625.0</ele><time>2026-03-29T11:00:04.311Z</time></trkpt><trkpt lat="44.1133183" lon="11.0121867"><ele>622.9999999999999</ele><time>2026-03-29T11:00:05.31Z</time></trkpt><trkpt lat="44.1132567" lon="11.0121383"><ele>621.0</ele><time>2026-03-29T11:00:06.311Z</time></trkpt><trkpt lat="44.1132017" lon="11.0120933"><ele>625.2</ele><time>2026-03-29T11:00:07.309Z</time></trkpt><trkpt lat="44.1131483" lon="11.0120417"><ele>629.4000000000001</ele><time>2026-03-29T11:00:08.31Z</time></trkpt><trkpt lat="44.1130983" lon="11.0119883"><ele>633.6</ele><time>2026-03-29T11:00:09.31Z</time></trkpt><trkpt lat="44.1130117" lon="11.0118617"><ele>637.8000000000001</ele><time>2026-03-29T11:00:11.311Z</time></trkpt><trkpt lat="44.1129417" lon="11.0117233"><ele>642.0</ele><time>2026-03-29T11:00:13.309Z</time></trkpt><trkpt lat="44.1128817" lon="11.0115733"><ele>642.0</ele><time>2026-03-29T11:00:15.309Z</time></trkpt><trkpt lat="44.1128417" lon="11.011405"><ele>642.0</ele><time>2026-03-29T11:00:17.31Z</time></trkpt><trkpt lat="44.1128283" lon="11.0113167"><ele>642.0</ele><time>2026-03-29T11:00:18.311Z</time></trkpt><trkpt lat="44.1128167" lon="11.0112233"><ele>642.0</ele><time>2026-03-29T11:00:19.312Z</time></trkpt><trkpt lat="44.1128167" lon="11.0111283"><ele>642.0</ele><time>2026-03-29T11:00:20.31Z</time></trkpt><trkpt lat="44.11282" lon="11.0110267"><ele>642.0</ele><time>2026-03-29T11:00:21.31Z</time></trkpt><trkpt lat="44.1128167" lon="11.0109283"><ele>642.0</ele><time>2026-03-29T11:00:22.308Z</time></trkpt><trkpt lat="44.11282" lon="11.0108333"><ele>642.0</ele><time>2026-03-29T11:00:23.312Z</time></trkpt><trkpt lat="44.11282" lon="11.0107383"><ele>642.0</ele><time>2026-03-29T11:00:24.311Z</time></trkpt><trkpt lat="44.1128067" lon="11.010575"><ele>642.0</ele><time>2026-03-29T11:00:26.311Z</time></trkpt><trkpt lat="44.1128" lon="11.01048"><ele>642.0</ele><time>2026-03-29T11:00:27.309Z</time></trkpt><trkpt lat="44.1127933" lon="11.0103917"><ele>642.0</ele><time>2026-03-29T11:00:28.31Z</time></trkpt><trkpt lat="44.1128017" lon="11.0102967"><ele>641.1666666666666</ele><time>2026-03-29T11:00:29.31Z</time></trkpt><trkpt lat="44.1128183" lon="11.0102017"><ele>640.3333333333334</ele><time>2026-03-29T11:00:30.31Z</time></trkpt><trkpt lat="44.11284" lon="11.01011"><ele>639.5</ele><time>2026-03-29T11:00:31.31Z</time></trkpt><trkpt lat="44.112865" lon="11.0100267"><ele>638.6666666666667</ele><time>2026-03-29T11:00:32.311Z</time></trkpt><trkpt lat="44.1129183" lon="11.0098733"><ele>637.8333333333334</ele><time>2026-03-29T11:00:34.311Z</time></trkpt><trkpt lat="44.1129517" lon="11.0097967"><ele>637.0</ele><time>2026-03-29T11:00:35.31Z</time></trkpt><trkpt lat="44.1130267" lon="11.0096617"><ele>636.5</ele><time>2026-03-29T11:00:37.311Z</time></trkpt><trkpt lat="44.1130717" lon="11.009595"><ele>636.0</ele><time>2026-03-29T11:00:38.312Z</time></trkpt><trkpt lat="44.11315" lon="11.0094683"><ele>635.5</ele><time>2026-03-29T11:00:40.31Z</time></trkpt><trkpt lat="44.1131967" lon="11.0093117"><ele>635.0</ele><time>2026-03-29T11:00:42.311Z</time></trkpt><trkpt lat="44.1132067" lon="11.0092233"><ele>634.5</ele><time>2026-03-29T11:00:43.31Z</time></trkpt><trkpt lat="44.1132" lon="11.0091283"><ele>634.0</ele><time>2026-03-29T11:00:44.31Z</time></trkpt><trkpt lat="44.1131883" lon="11.0090383"><ele>632.5</ele><time>2026-03-29T11:00:45.31Z</time></trkpt><trkpt lat="44.1131667" lon="11.008955"><ele>631.0</ele><time>2026-03-29T11:00:46.311Z</time></trkpt><trkpt lat="44.113135" lon="11.008875"><ele>629.5</ele><time>2026-03-29T11:00:47.311Z</time></trkpt><trkpt lat="44.1130983" lon="11.008795"><ele>628.0</ele><time>2026-03-29T11:00:48.311Z</time></trkpt><trkpt lat="44.1130583" lon="11.0087183"><ele>626.5</ele><time>2026-03-29T11:00:49.312Z</time></trkpt><trkpt lat="44.11302" lon="11.0086467"><ele>625.0</ele><time>2026-03-29T11:00:50.311Z</time></trkpt><trkpt lat="44.1129417" lon="11.0085183"><ele>625.0</ele><time>2026-03-29T11:00:52.31Z</time></trkpt><trkpt lat="44.1128667" lon="11.0083717"><ele>625.0</ele><time>2026-03-29T11:00:54.309Z</time></trkpt><trkpt lat="44.1128217" lon="11.008295"><ele>625.0</ele><time>2026-03-29T11:00:55.309Z</time></trkpt><trkpt lat="44.11277" lon="11.0082217"><ele>625.0</ele><time>2026-03-29T11:00:56.311Z</time></trkpt><trkpt lat="44.1127133" lon="11.0081383"><ele>625.0</ele><time>2026-03-29T11:00:57.311Z</time></trkpt><trkpt lat="44.1126533" lon="11.0080617"><ele>625.0</ele><time>2026-03-29T11:00:58.309Z</time></trkpt><trkpt lat="44.112595" lon="11.007985"><ele>625.1666666666667</ele><time>2026-03-29T11:00:59.309Z</time></trkpt><trkpt lat="44.1125367" lon="11.007915"><ele>625.3333333333334</ele><time>2026-03-29T11:01:00.309Z</time></trkpt><trkpt lat="44.1124817" lon="11.0078517"><ele>625.5</ele><time>2026-03-29T11:01:01.31Z</time></trkpt><trkpt lat="44.1124283" lon="11.0077967"><ele>625.6666666666666</ele><time>2026-03-29T11:01:02.312Z</time></trkpt><trkpt lat="44.1123233" lon="11.00775"><ele>625.8333333333333</ele><time>2026-03-29T11:01:04.31Z</time></trkpt><trkpt lat="44.1122167" lon="11.007785"><ele>626.0</ele><time>2026-03-29T11:01:06.31Z</time></trkpt><trkpt lat="44.1121617" lon="11.00786"><ele>624.2</ele><time>2026-03-29T11:01:07.311Z</time></trkpt><trkpt lat="44.112105" lon="11.0079517"><ele>622.4000000000001</ele><time>2026-03-29T11:01:08.311Z</time></trkpt><trkpt lat="44.11204" lon="11.0080417"><ele>620.6</ele><time>2026-03-29T11:01:09.311Z</time></trkpt><trkpt lat="44.11197" lon="11.0081383"><ele>618.8000000000001</ele><time>2026-03-29T11:01:10.31Z</time></trkpt><trkpt lat="44.1119083" lon="11.0082367"><ele>617.0</ele><time>2026-03-29T11:01:11.309Z</time></trkpt><trkpt lat="44.111855" lon="11.00834"><ele>617.0</ele><time>2026-03-29T11:01:12.31Z</time></trkpt><trkpt lat="44.11181" lon="11.008435"><ele>617.0</ele><time>2026-03-29T11:01:13.311Z</time></trkpt><trkpt lat="44.1117733" lon="11.008525"><ele>617.0</ele><time>2026-03-29T11:01:14.311Z</time></trkpt><trkpt lat="44.1117367" lon="11.0086067"><ele>617.0</ele><time>2026-03-29T11:01:15.31Z</time></trkpt><trkpt lat="44.1116983" lon="11.00868"><ele>617.0</ele><time>2026-03-29T11:01:16.31Z</time></trkpt><trkpt lat="44.111625" lon="11.0087317"><ele>617.0</ele><time>2026-03-29T11:01:17.312Z</time></trkpt><trkpt lat="44.1115483" lon="11.0087367"><ele>617.0</ele><time>2026-03-29T11:01:18.312Z</time></trkpt><trkpt lat="44.1114583" lon="11.0087083"><ele>616.4</ele><time>2026-03-29T11:01:19.307Z</time></trkpt><trkpt lat="44.1113783" lon="11.0086583"><ele>615.8000000000001</ele><time>2026-03-29T11:01:20.309Z</time></trkpt><trkpt lat="44.111295" lon="11.0086067"><ele>615.2</ele><time>2026-03-29T11:01:21.309Z</time></trkpt><trkpt lat="44.1112233" lon="11.0085533"><ele>614.6</ele><time>2026-03-29T11:01:22.307Z</time></trkpt><trkpt lat="44.111155" lon="11.008505"><ele>614.0</ele><time>2026-03-29T11:01:23.311Z</time></trkpt><trkpt lat="44.111055" lon="11.0084017"><ele>614.0</ele><time>2026-03-29T11:01:25.308Z</time></trkpt><trkpt lat="44.11102" lon="11.0083267"><ele>614.0</ele><time>2026-03-29T11:01:26.309Z</time></trkpt><trkpt lat="44.111005" lon="11.0082367"><ele>614.0</ele><time>2026-03-29T11:01:27.308Z</time></trkpt><trkpt lat="44.1109967" lon="11.00813"><ele>614.0</ele><time>2026-03-29T11:01:28.309Z</time></trkpt><trkpt lat="44.111025" lon="11.0080333"><ele>614.0</ele><time>2026-03-29T11:01:29.309Z</time></trkpt><trkpt lat="44.111075" lon="11.0079333"><ele>614.0</ele><time>2026-03-29T11:01:30.311Z</time></trkpt><trkpt lat="44.11114" lon="11.0078267"><ele>611.8</ele><time>2026-03-29T11:01:31.31Z</time></trkpt><trkpt lat="44.1112017" lon="11.0077233"><ele>609.5999999999999</ele><time>2026-03-29T11:01:32.311Z</time></trkpt><trkpt lat="44.1112567" lon="11.0076033"><ele>607.4</ele><time>2026-03-29T11:01:33.309Z</time></trkpt><trkpt lat="44.111295" lon="11.0074767"><ele>605.1999999999999</ele><time>2026-03-29T11:01:34.309Z</time></trkpt><trkpt lat="44.111315" lon="11.0073467"><ele>603.0</ele><time>2026-03-29T11:01:35.31Z</time></trkpt><trkpt lat="44.1113233" lon="11.0072167"><ele>600.5</ele><time>2026-03-29T11:01:36.309Z</time></trkpt><trkpt lat="44.1113233" lon="11.00709"><ele>598.0</ele><time>2026-03-29T11:01:37.309Z</time></trkpt><trkpt lat="44.1113183" lon="11.0069717"><ele>595.5</ele><time>2026-03-29T11:01:38.311Z</time></trkpt><trkpt lat="44.111315" lon="11.006855"><ele>593.0</ele><time>2026-03-29T11:01:39.309Z</time></trkpt><trkpt lat="44.1113133" lon="11.006745"><ele>590.5</ele><time>2026-03-29T11:01:40.308Z</time></trkpt><trkpt lat="44.1113167" lon="11.0066383"><ele>588.0</ele><time>2026-03-29T11:01:41.31Z</time></trkpt><trkpt lat="44.1113283" lon="11.006535"><ele>589.3333333333334</ele><time>2026-03-29T11:01:42.311Z</time></trkpt><trkpt lat="44.1113533" lon="11.0064317"><ele>590.6666666666666</ele><time>2026-03-29T11:01:43.31Z</time></trkpt><trkpt lat="44.1113967" lon="11.0063317"><ele>592.0</ele><time>2026-03-29T11:01:44.309Z</time></trkpt><trkpt lat="44.1114533" lon="11.0062367"><ele>593.3333333333333</ele><time>2026-03-29T11:01:45.309Z</time></trkpt><trkpt lat="44.1115067" lon="11.00614"><ele>594.6666666666666</ele><time>2026-03-29T11:01:46.311Z</time></trkpt><trkpt lat="44.11155" lon="11.0060367"><ele>596.0</ele><time>2026-03-29T11:01:47.311Z</time></trkpt><trkpt lat="44.1115767" lon="11.0059167"><ele>593.8</ele><time>2026-03-29T11:01:48.31Z</time></trkpt><trkpt lat="44.1115933" lon="11.0057933"><ele>591.6</ele><time>2026-03-29T11:01:49.312Z</time></trkpt><trkpt lat="44.111595" lon="11.0056633"><ele>589.4</ele><time>2026-03-29T11:01:50.31Z</time></trkpt><trkpt lat="44.1115867" lon="11.0055267"><ele>587.2</ele><time>2026-03-29T11:01:51.309Z</time></trkpt><trkpt lat="44.1115783" lon="11.0053817"><ele>585.0</ele><time>2026-03-29T11:01:52.308Z</time></trkpt><trkpt lat="44.1115683" lon="11.00524"><ele>581.0</ele><time>2026-03-29T11:01:53.309Z</time></trkpt><trkpt lat="44.1115583" lon="11.0051"><ele>577.0</ele><time>2026-03-29T11:01:54.312Z</time></trkpt><trkpt lat="44.111555" lon="11.00496"><ele>573.0</ele><time>2026-03-29T11:01:55.31Z</time></trkpt><trkpt lat="44.1115633" lon="11.00483"><ele>569.0</ele><time>2026-03-29T11:01:56.311Z</time></trkpt><trkpt lat="44.1115833" lon="11.0047167"><ele>565.0</ele><time>2026-03-29T11:01:57.309Z</time></trkpt><trkpt lat="44.1116117" lon="11.0046183"><ele>565.0</ele><time>2026-03-29T11:01:58.308Z</time></trkpt><trkpt lat="44.11165" lon="11.00447"><ele>565.0</ele><time>2026-03-29T11:02:00.308Z</time></trkpt><trkpt lat="44.1116117" lon="11.0043833"><ele>565.0</ele><time>2026-03-29T11:02:02.31Z</time></trkpt><trkpt lat="44.1115167" lon="11.0044783"><ele>565.0</ele><time>2026-03-29T11:02:04.309Z</time></trkpt><trkpt lat="44.11149" lon="11.0045767"><ele>565.0</ele><time>2026-03-29T11:02:05.308Z</time></trkpt><trkpt lat="44.1114683" lon="11.0046933"><ele>564.0</ele><time>2026-03-29T11:02:06.31Z</time></trkpt><trkpt lat="44.1114417" lon="11.0048183"><ele>563.0</ele><time>2026-03-29T11:02:07.307Z</time></trkpt><trkpt lat="44.111415" lon="11.0049433"><ele>562.0</ele><time>2026-03-29T11:02:08.31Z</time></trkpt><trkpt lat="44.1113833" lon="11.00507"><ele>561.0</ele><time>2026-03-29T11:02:09.31Z</time></trkpt><trkpt lat="44.1113383" lon="11.0051983"><ele>560.0</ele><time>2026-03-29T11:02:10.31Z</time></trkpt><trkpt lat="44.1112767" lon="11.00533"><ele>560.0</ele><time>2026-03-29T11:02:11.311Z</time></trkpt><trkpt lat="44.1112033" lon="11.0054517"><ele>560.0</ele><time>2026-03-29T11:02:12.308Z</time></trkpt><trkpt lat="44.1111283" lon="11.0055633"><ele>560.0</ele><time>2026-03-29T11:02:13.309Z</time></trkpt><trkpt lat="44.1110483" lon="11.0056617"><ele>560.0</ele><time>2026-03-29T11:02:14.309Z</time></trkpt><trkpt lat="44.1109667" lon="11.0057533"><ele>560.0</ele><time>2026-03-29T11:02:15.308Z</time></trkpt><trkpt lat="44.110885" lon="11.0058283"><ele>562.8</ele><time>2026-03-29T11:02:16.308Z</time></trkpt><trkpt lat="44.1107917" lon="11.0058833"><ele>565.6</ele><time>2026-03-29T11:02:17.31Z</time></trkpt><trkpt lat="44.1106917" lon="11.0059167"><ele>568.4</ele><time>2026-03-29T11:02:18.309Z</time></trkpt><trkpt lat="44.1105867" lon="11.0059317"><ele>571.2</ele><time>2026-03-29T11:02:19.31Z</time></trkpt><trkpt lat="44.11048" lon="11.00593"><ele>574.0</ele><time>2026-03-29T11:02:20.307Z</time></trkpt><trkpt lat="44.1103767" lon="11.00592"><ele>574.8333333333334</ele><time>2026-03-29T11:02:21.308Z</time></trkpt><trkpt lat="44.110285" lon="11.0059067"><ele>575.6666666666667</ele><time>2026-03-29T11:02:22.307Z</time></trkpt><trkpt lat="44.1102" lon="11.0058883"><ele>576.5</ele><time>2026-03-29T11:02:23.308Z</time></trkpt><trkpt lat="44.1101233" lon="11.005855"><ele>577.3333333333334</ele><time>2026-03-29T11:02:24.308Z</time></trkpt><trkpt lat="44.11005" lon="11.00578"><ele>578.1666666666666</ele><time>2026-03-29T11:02:25.309Z</time></trkpt><trkpt lat="44.1100033" lon="11.0056683"><ele>579.0</ele><time>2026-03-29T11:02:26.309Z</time></trkpt><trkpt lat="44.1099667" lon="11.0055517"><ele>579.4</ele><time>2026-03-29T11:02:27.307Z</time></trkpt><trkpt lat="44.10993" lon="11.005435"><ele>579.8</ele><time>2026-03-29T11:02:28.308Z</time></trkpt><trkpt lat="44.1098867" lon="11.0053183"><ele>580.2</ele><time>2026-03-29T11:02:29.308Z</time></trkpt><trkpt lat="44.1098433" lon="11.0051967"><ele>580.6</ele><time>2026-03-29T11:02:30.307Z</time></trkpt><trkpt lat="44.1098017" lon="11.0050867"><ele>581.0</ele><time>2026-03-29T11:02:31.308Z</time></trkpt><trkpt lat="44.109765" lon="11.0049783"><ele>571.8333333333333</ele><time>2026-03-29T11:02:32.311Z</time></trkpt><trkpt lat="44.1097283" lon="11.00488"><ele>562.6666666666666</ele><time>2026-03-29T11:02:33.308Z</time></trkpt><trkpt lat="44.1096883" lon="11.004795"><ele>553.5</ele><time>2026-03-29T11:02:34.308Z</time></trkpt><trkpt lat="44.1096483" lon="11.0047267"><ele>544.3333333333334</ele><time>2026-03-29T11:02:35.31Z</time></trkpt><trkpt lat="44.1095517" lon="11.0046417"><ele>535.1666666666667</ele><time>2026-03-29T11:02:37.309Z</time></trkpt><trkpt lat="44.1094883" lon="11.0046183"><ele>526.0</ele><time>2026-03-29T11:02:38.31Z</time></trkpt><trkpt lat="44.1094167" lon="11.0046017"><ele>526.0</ele><time>2026-03-29T11:02:39.307Z</time></trkpt><trkpt lat="44.1093383" lon="11.0045917"><ele>526.0</ele><time>2026-03-29T11:02:40.308Z</time></trkpt><trkpt lat="44.1092483" lon="11.0046033"><ele>526.0</ele><time>2026-03-29T11:02:41.307Z</time></trkpt><trkpt lat="44.1091583" lon="11.00463"><ele>526.0</ele><time>2026-03-29T11:02:42.309Z</time></trkpt><trkpt lat="44.1090633" lon="11.0046583"><ele>526.0</ele><time>2026-03-29T11:02:43.31Z</time></trkpt><trkpt lat="44.108975" lon="11.00468"><ele>526.0</ele><time>2026-03-29T11:02:44.31Z</time></trkpt><trkpt lat="44.108885" lon="11.004685"><ele>526.0</ele><time>2026-03-29T11:02:45.308Z</time></trkpt><trkpt lat="44.1087917" lon="11.004685"><ele>526.0</ele><time>2026-03-29T11:02:46.307Z</time></trkpt><trkpt lat="44.1086967" lon="11.00467"><ele>526.0</ele><time>2026-03-29T11:02:47.309Z</time></trkpt><trkpt lat="44.1085933" lon="11.0046683"><ele>526.0</ele><time>2026-03-29T11:02:48.31Z</time></trkpt><trkpt lat="44.108495" lon="11.0046717"><ele>526.0</ele><time>2026-03-29T11:02:49.309Z</time></trkpt><trkpt lat="44.108405" lon="11.0046633"><ele>526.0</ele><time>2026-03-29T11:02:50.309Z</time></trkpt><trkpt lat="44.10832" lon="11.0046517"><ele>526.0</ele><time>2026-03-29T11:02:51.307Z</time></trkpt><trkpt lat="44.1082467" lon="11.0046367"><ele>526.0</ele><time>2026-03-29T11:02:52.31Z</time></trkpt><trkpt lat="44.1081767" lon="11.004635"><ele>526.0</ele><time>2026-03-29T11:02:53.311Z</time></trkpt><trkpt lat="44.1081117" lon="11.0046317"><ele>526.0</ele><time>2026-03-29T11:02:54.309Z</time></trkpt><trkpt lat="44.1080083" lon="11.0046683"><ele>526.0</ele><time>2026-03-29T11:02:56.309Z</time></trkpt><trkpt lat="44.1079467" lon="11.0047"><ele>525.8333333333334</ele><time>2026-03-29T11:02:57.307Z</time></trkpt><trkpt lat="44.107875" lon="11.00474"><ele>525.6666666666667</ele><time>2026-03-29T11:02:58.307Z</time></trkpt><trkpt lat="44.1077983" lon="11.0047883"><ele>525.5</ele><time>2026-03-29T11:02:59.307Z</time></trkpt><trkpt lat="44.10772" lon="11.0048283"><ele>525.3333333333334</ele><time>2026-03-29T11:03:00.309Z</time></trkpt><trkpt lat="44.1076367" lon="11.0048567"><ele>525.1666666666666</ele><time>2026-03-29T11:03:01.31Z</time></trkpt><trkpt lat="44.107545" lon="11.004855"><ele>525.0</ele><time>2026-03-29T11:03:02.309Z</time></trkpt><trkpt lat="44.1074533" lon="11.0048233"><ele>530.6666666666666</ele><time>2026-03-29T11:03:03.308Z</time></trkpt><trkpt lat="44.1073667" lon="11.0047817"><ele>536.3333333333334</ele><time>2026-03-29T11:03:04.307Z</time></trkpt><trkpt lat="44.1072967" lon="11.0047467"><ele>542.0</ele><time>2026-03-29T11:03:05.308Z</time></trkpt><trkpt lat="44.1072267" lon="11.004725"><ele>547.6666666666667</ele><time>2026-03-29T11:03:06.307Z</time></trkpt><trkpt lat="44.1071583" lon="11.0046967"><ele>553.3333333333334</ele><time>2026-03-29T11:03:07.311Z</time></trkpt><trkpt lat="44.1070817" lon="11.0045817"><ele>559.0</ele><time>2026-03-29T11:03:09.308Z</time></trkpt><trkpt lat="44.1070517" lon="11.0045"><ele>559.0</ele><time>2026-03-29T11:03:10.308Z</time></trkpt><trkpt lat="44.107045" lon="11.0043233"><ele>559.0</ele><time>2026-03-29T11:03:12.308Z</time></trkpt><trkpt lat="44.1070417" lon="11.0041633"><ele>559.0</ele><time>2026-03-29T11:03:14.31Z</time></trkpt><trkpt lat="44.1069583" lon="11.004035"><ele>559.0</ele><time>2026-03-29T11:03:16.308Z</time></trkpt><trkpt lat="44.1069083" lon="11.0039683"><ele>559.0</ele><time>2026-03-29T11:03:17.31Z</time></trkpt><trkpt lat="44.1068483" lon="11.0039083"><ele>564.2</ele><time>2026-03-29T11:03:18.308Z</time></trkpt><trkpt lat="44.1067733" lon="11.0038433"><ele>569.4</ele><time>2026-03-29T11:03:19.309Z</time></trkpt><trkpt lat="44.1066917" lon="11.0037683"><ele>574.6</ele><time>2026-03-29T11:03:20.308Z</time></trkpt><trkpt lat="44.1066117" lon="11.0036667"><ele>579.8</ele><time>2026-03-29T11:03:21.307Z</time></trkpt><trkpt lat="44.1065467" lon="11.0035567"><ele>585.0</ele><time>2026-03-29T11:03:22.309Z</time></trkpt><trkpt lat="44.106505" lon="11.00343"><ele>580.2</ele><time>2026-03-29T11:03:23.309Z</time></trkpt><trkpt lat="44.1064783" lon="11.0033"><ele>575.4</ele><time>2026-03-29T11:03:24.31Z</time></trkpt><trkpt lat="44.1064567" lon="11.003175"><ele>570.6</ele><time>2026-03-29T11:03:25.308Z</time></trkpt><trkpt lat="44.1064233" lon="11.00304"><ele>565.8</ele><time>2026-03-29T11:03:26.308Z</time></trkpt><trkpt lat="44.1063833" lon="11.00291"><ele>561.0</ele><time>2026-03-29T11:03:27.309Z</time></trkpt><trkpt lat="44.1063483" lon="11.0027833"><ele>561.0</ele><time>2026-03-29T11:03:28.307Z</time></trkpt><trkpt lat="44.1063233" lon="11.0026467"><ele>561.0</ele><time>2026-03-29T11:03:29.309Z</time></trkpt><trkpt lat="44.106295" lon="11.0025267"><ele>561.0</ele><time>2026-03-29T11:03:30.309Z</time></trkpt><trkpt lat="44.1062683" lon="11.0024117"><ele>561.0</ele><time>2026-03-29T11:03:31.309Z</time></trkpt><trkpt lat="44.1062317" lon="11.0023083"><ele>561.0</ele><time>2026-03-29T11:03:32.308Z</time></trkpt><trkpt lat="44.1061917" lon="11.0022017"><ele>561.0</ele><time>2026-03-29T11:03:33.309Z</time></trkpt><trkpt lat="44.106145" lon="11.002095"><ele>555.2</ele><time>2026-03-29T11:03:34.309Z</time></trkpt><trkpt lat="44.106095" lon="11.001985"><ele>549.4000000000001</ele><time>2026-03-29T11:03:35.309Z</time></trkpt><trkpt lat="44.106055" lon="11.0018867"><ele>543.6</ele><time>2026-03-29T11:03:36.309Z</time></trkpt><trkpt lat="44.1059983" lon="11.0017767"><ele>537.8000000000001</ele><time>2026-03-29T11:03:37.308Z</time></trkpt><trkpt lat="44.1059483" lon="11.0016667"><ele>532.0</ele><time>2026-03-29T11:03:38.309Z</time></trkpt><trkpt lat="44.1059033" lon="11.0015333"><ele>529.0</ele><time>2026-03-29T11:03:39.308Z</time></trkpt><trkpt lat="44.1058717" lon="11.0014133"><ele>526.0</ele><time>2026-03-29T11:03:40.31Z</time></trkpt><trkpt lat="44.10584" lon="11.0013033"><ele>523.0</ele><time>2026-03-29T11:03:41.31Z</time></trkpt><trkpt lat="44.1058067" lon="11.0012083"><ele>520.0</ele><time>2026-03-29T11:03:42.308Z</time></trkpt><trkpt lat="44.1057333" lon="11.0010683"><ele>517.0</ele><time>2026-03-29T11:03:44.308Z</time></trkpt><trkpt lat="44.105625" lon="11.0010267"><ele>517.0</ele><time>2026-03-29T11:03:46.308Z</time></trkpt><trkpt lat="44.1055533" lon="11.0010683"><ele>517.0</ele><time>2026-03-29T11:03:47.309Z</time></trkpt><trkpt lat="44.10547" lon="11.0011317"><ele>517.0</ele><time>2026-03-29T11:03:48.31Z</time></trkpt><trkpt lat="44.10539" lon="11.0011883"><ele>517.0</ele><time>2026-03-29T11:03:49.309Z</time></trkpt><trkpt lat="44.1053167" lon="11.00124"><ele>517.0</ele><time>2026-03-29T11:03:50.31Z</time></trkpt><trkpt lat="44.105205" lon="11.00128"><ele>517.0</ele><time>2026-03-29T11:03:52.309Z</time></trkpt><trkpt lat="44.1051417" lon="11.0012617"><ele>517.0</ele><time>2026-03-29T11:03:53.308Z</time></trkpt><trkpt lat="44.1050467" lon="11.0011383"><ele>517.0</ele><time>2026-03-29T11:03:55.307Z</time></trkpt><trkpt lat="44.1050417" lon="11.0009567"><ele>517.0</ele><time>2026-03-29T11:03:57.307Z</time></trkpt><trkpt lat="44.10506" lon="11.0008633"><ele>517.0</ele><time>2026-03-29T11:03:58.309Z</time></trkpt><trkpt lat="44.1050833" lon="11.0007683"><ele>516.1428571428571</ele><time>2026-03-29T11:03:59.308Z</time></trkpt><trkpt lat="44.1051033" lon="11.0006767"><ele>515.2857142857143</ele><time>2026-03-29T11:04:00.307Z</time></trkpt><trkpt lat="44.1051117" lon="11.000585"><ele>514.4285714285714</ele><time>2026-03-29T11:04:01.307Z</time></trkpt><trkpt lat="44.1050983" lon="11.00049"><ele>513.5714285714286</ele><time>2026-03-29T11:04:02.308Z</time></trkpt><trkpt lat="44.1050683" lon="11.0004117"><ele>512.7142857142858</ele><time>2026-03-29T11:04:03.306Z</time></trkpt><trkpt lat="44.1050117" lon="11.00034"><ele>511.8571428571429</ele><time>2026-03-29T11:04:05.307Z</time></trkpt><trkpt lat="44.10492" lon="11.00032"><ele>511.0</ele><time>2026-03-29T11:04:07.308Z</time></trkpt><trkpt lat="44.1048217" lon="11.00028"><ele>511.0</ele><time>2026-03-29T11:04:09.306Z</time></trkpt><trkpt lat="44.1047533" lon="11.0002533"><ele>511.0</ele><time>2026-03-29T11:04:10.308Z</time></trkpt><trkpt lat="44.1046367" lon="11.00016"><ele>511.0</ele><time>2026-03-29T11:04:12.307Z</time></trkpt><trkpt lat="44.10458" lon="11.00011"><ele>511.0</ele><time>2026-03-29T11:04:13.307Z</time></trkpt><trkpt lat="44.104515" lon="11.000005"><ele>511.0</ele><time>2026-03-29T11:04:15.308Z</time></trkpt><trkpt lat="44.10444" lon="10.999945"><ele>511.00000000000006</ele><time>2026-03-29T11:04:17.311Z</time></trkpt><trkpt lat="44.1043617" lon="10.9999017"><ele>511.0</ele><time>2026-03-29T11:04:19.31Z</time></trkpt><trkpt lat="44.10428" lon="10.9999"><ele>511.0</ele><time>2026-03-29T11:04:21.308Z</time></trkpt><trkpt lat="44.1042" lon="10.9999283"><ele>511.0</ele><time>2026-03-29T11:04:23.309Z</time></trkpt><trkpt lat="44.1041333" lon="10.999975"><ele>511.00000000000006</ele><time>2026-03-29T11:04:25.309Z</time></trkpt><trkpt lat="44.1040733" lon="11.0000217"><ele>511.0</ele><time>2026-03-29T11:04:27.311Z</time></trkpt><trkpt lat="44.1040017" lon="11.0000767"><ele>514.2</ele><time>2026-03-29T11:04:29.309Z</time></trkpt><trkpt lat="44.1039183" lon="11.0001217"><ele>517.4000000000001</ele><time>2026-03-29T11:04:31.309Z</time></trkpt><trkpt lat="44.10383" lon="11.00011"><ele>520.6</ele><time>2026-03-29T11:04:33.309Z</time></trkpt><trkpt lat="44.103735" lon="11.0000733"><ele>523.8000000000001</ele><time>2026-03-29T11:04:35.309Z</time></trkpt><trkpt lat="44.1036483" lon="11.000015"><ele>527.0</ele><time>2026-03-29T11:04:37.31Z</time></trkpt><trkpt lat="44.1035783" lon="10.999945"><ele>527.0</ele><time>2026-03-29T11:04:39.309Z</time></trkpt><trkpt lat="44.10352" lon="10.9998633"><ele>527.0</ele><time>2026-03-29T11:04:41.308Z</time></trkpt><trkpt lat="44.1034183" lon="10.999825"><ele>527.0</ele><time>2026-03-29T11:04:43.312Z</time></trkpt><trkpt lat="44.1033117" lon="10.999795"><ele>527.0</ele><time>2026-03-29T11:04:45.31Z</time></trkpt><trkpt lat="44.1032217" lon="10.9997533"><ele>527.0</ele><time>2026-03-29T11:04:47.309Z</time></trkpt><trkpt lat="44.10321" lon="10.99965"><ele>525.8333333333333</ele><time>2026-03-29T11:04:49.309Z</time></trkpt><trkpt lat="44.1031683" lon="10.9995483"><ele>524.6666666666666</ele><time>2026-03-29T11:04:51.309Z</time></trkpt><trkpt lat="44.1031467" lon="10.9994067"><ele>523.5</ele><time>2026-03-29T11:04:53.308Z</time></trkpt><trkpt lat="44.1031233" lon="10.9992833"><ele>522.3333333333334</ele><time>2026-03-29T11:04:55.31Z</time></trkpt><trkpt lat="44.1030883" lon="10.99919"><ele>521.1666666666667</ele><time>2026-03-29T11:04:57.309Z</time></trkpt><trkpt lat="44.1030317" lon="10.9991483"><ele>520.0</ele><time>2026-03-29T11:04:59.309Z</time></trkpt><trkpt lat="44.1029567" lon="10.9991133"><ele>520.0</ele><time>2026-03-29T11:05:02.309Z</time></trkpt><trkpt lat="44.1028533" lon="10.9991133"><ele>520.0</ele><time>2026-03-29T11:05:06.309Z</time></trkpt><trkpt lat="44.10277" lon="10.999145"><ele>520.0</ele><time>2026-03-29T11:05:08.31Z</time></trkpt><trkpt lat="44.1026917" lon="10.9991917"><ele>520.0</ele><time>2026-03-29T11:05:10.307Z</time></trkpt><trkpt lat="44.1025967" lon="10.9992283"><ele>520.0</ele><time>2026-03-29T11:05:12.31Z</time></trkpt><trkpt lat="44.1025017" lon="10.9992467"><ele>522.6</ele><time>2026-03-29T11:05:14.309Z</time></trkpt><trkpt lat="44.1024" lon="10.99926"><ele>525.2</ele><time>2026-03-29T11:05:16.307Z</time></trkpt><trkpt lat="44.102295" lon="10.9992633"><ele>527.8</ele><time>2026-03-29T11:05:18.31Z</time></trkpt><trkpt lat="44.1021933" lon="10.999245"><ele>530.4</ele><time>2026-03-29T11:05:20.313Z</time></trkpt><trkpt lat="44.1021017" lon="10.9991883"><ele>533.0</ele><time>2026-03-29T11:05:22.308Z</time></trkpt><trkpt lat="44.1020467" lon="10.9991417"><ele>533.0</ele><time>2026-03-29T11:05:23.308Z</time></trkpt><trkpt lat="44.101955" lon="10.9990633"><ele>533.0</ele><time>2026-03-29T11:05:25.309Z</time></trkpt><trkpt lat="44.1018667" lon="10.998975"><ele>533.0</ele><time>2026-03-29T11:05:27.311Z</time></trkpt><trkpt lat="44.1017767" lon="10.9988733"><ele>533.0</ele><time>2026-03-29T11:05:29.31Z</time></trkpt><trkpt lat="44.10169" lon="10.9987617"><ele>533.0</ele><time>2026-03-29T11:05:31.308Z</time></trkpt><trkpt lat="44.1015933" lon="10.998655"><ele>533.0</ele><time>2026-03-29T11:05:33.309Z</time></trkpt><trkpt lat="44.101495" lon="10.9985483"><ele>533.0</ele><time>2026-03-29T11:05:35.311Z</time></trkpt><trkpt lat="44.10144" lon="10.9985"><ele>533.0</ele><time>2026-03-29T11:05:36.31Z</time></trkpt><trkpt lat="44.1013767" lon="10.9984517"><ele>533.0</ele><time>2026-03-29T11:05:37.31Z</time></trkpt><trkpt lat="44.10132" lon="10.9984067"><ele>531.6666666666666</ele><time>2026-03-29T11:05:38.311Z</time></trkpt><trkpt lat="44.1012133" lon="10.9983233"><ele>530.3333333333333</ele><time>2026-03-29T11:05:40.31Z</time></trkpt><trkpt lat="44.1011583" lon="10.99828"><ele>529.0</ele><time>2026-03-29T11:05:41.309Z</time></trkpt><trkpt lat="44.1011033" lon="10.9982333"><ele>527.6666666666666</ele><time>2026-03-29T11:05:42.31Z</time></trkpt><trkpt lat="44.1010433" lon="10.9981883"><ele>526.3333333333334</ele><time>2026-03-29T11:05:43.309Z</time></trkpt><trkpt lat="44.1009817" lon="10.9981433"><ele>525.0</ele><time>2026-03-29T11:05:44.308Z</time></trkpt><trkpt lat="44.1009233" lon="10.998105"><ele>525.0</ele><time>2026-03-29T11:05:45.309Z</time></trkpt><trkpt lat="44.10086" lon="10.9980633"><ele>525.0</ele><time>2026-03-29T11:05:46.309Z</time></trkpt><trkpt lat="44.1007983" lon="10.9980283"><ele>525.0</ele><time>2026-03-29T11:05:47.309Z</time></trkpt><trkpt lat="44.1007367" lon="10.9979967"><ele>525.0</ele><time>2026-03-29T11:05:48.309Z</time></trkpt><trkpt lat="44.100675" lon="10.997965"><ele>525.0</ele><time>2026-03-29T11:05:49.308Z</time></trkpt><trkpt lat="44.100615" lon="10.99793"><ele>525.0</ele><time>2026-03-29T11:05:50.309Z</time></trkpt><trkpt lat="44.100555" lon="10.9979"><ele>525.0</ele><time>2026-03-29T11:05:51.309Z</time></trkpt><trkpt lat="44.1004933" lon="10.9978667"><ele>528.2857142857143</ele><time>2026-03-29T11:05:52.309Z</time></trkpt><trkpt lat="44.1004317" lon="10.9978333"><ele>531.5714285714286</ele><time>2026-03-29T11:05:53.31Z</time></trkpt><trkpt lat="44.10037" lon="10.9977983"><ele>534.8571428571429</ele><time>2026-03-29T11:05:54.308Z</time></trkpt><trkpt lat="44.1003083" lon="10.9977617"><ele>538.1428571428571</ele><time>2026-03-29T11:05:55.31Z</time></trkpt><trkpt lat="44.1002433" lon="10.9977283"><ele>541.4285714285714</ele><time>2026-03-29T11:05:56.31Z</time></trkpt><trkpt lat="44.1001733" lon="10.997695"><ele>544.7142857142858</ele><time>2026-03-29T11:05:57.311Z</time></trkpt><trkpt lat="44.1001033" lon="10.9976567"><ele>548.0</ele><time>2026-03-29T11:05:58.31Z</time></trkpt><trkpt lat="44.10003" lon="10.997615"><ele>548.0</ele><time>2026-03-29T11:05:59.31Z</time></trkpt><trkpt lat="44.0999583" lon="10.997575"><ele>548.0</ele><time>2026-03-29T11:06:00.308Z</time></trkpt><trkpt lat="44.0998967" lon="10.9975433"><ele>548.0</ele><time>2026-03-29T11:06:01.309Z</time></trkpt><trkpt lat="44.0998333" lon="10.997515"><ele>548.0</ele><time>2026-03-29T11:06:02.308Z</time></trkpt><trkpt lat="44.0997167" lon="10.997465"><ele>548.0</ele><time>2026-03-29T11:06:04.311Z</time></trkpt><trkpt lat="44.0996433" lon="10.99743"><ele>548.0</ele><time>2026-03-29T11:06:05.31Z</time></trkpt><trkpt lat="44.099575" lon="10.9973867"><ele>547.6666666666666</ele><time>2026-03-29T11:06:06.31Z</time></trkpt><trkpt lat="44.0995067" lon="10.9973433"><ele>547.3333333333333</ele><time>2026-03-29T11:06:07.307Z</time></trkpt><trkpt lat="44.099445" lon="10.9972867"><ele>547.0</ele><time>2026-03-29T11:06:08.308Z</time></trkpt><trkpt lat="44.0993883" lon="10.9972117"><ele>546.6666666666666</ele><time>2026-03-29T11:06:09.31Z</time></trkpt><trkpt lat="44.099325" lon="10.9971317"><ele>546.3333333333334</ele><time>2026-03-29T11:06:10.31Z</time></trkpt><trkpt lat="44.0992983" lon="10.9970367"><ele>546.0</ele><time>2026-03-29T11:06:11.309Z</time></trkpt><trkpt lat="44.0992883" lon="10.99693"><ele>546.0</ele><time>2026-03-29T11:06:12.31Z</time></trkpt><trkpt lat="44.099275" lon="10.9968217"><ele>546.0</ele><time>2026-03-29T11:06:13.311Z</time></trkpt><trkpt lat="44.09925" lon="10.9967083"><ele>546.0</ele><time>2026-03-29T11:06:14.311Z</time></trkpt><trkpt lat="44.0992183" lon="10.9965933"><ele>546.0</ele><time>2026-03-29T11:06:15.31Z</time></trkpt><trkpt lat="44.0991717" lon="10.9964933"><ele>546.0</ele><time>2026-03-29T11:06:16.311Z</time></trkpt><trkpt lat="44.0991233" lon="10.9963967"><ele>546.0</ele><time>2026-03-29T11:06:17.307Z</time></trkpt><trkpt lat="44.09907" lon="10.9963017"><ele>545.6</ele><time>2026-03-29T11:06:18.308Z</time></trkpt><trkpt lat="44.099015" lon="10.9962067"><ele>545.2</ele><time>2026-03-29T11:06:19.31Z</time></trkpt><trkpt lat="44.0989633" lon="10.9961067"><ele>544.8</ele><time>2026-03-29T11:06:20.311Z</time></trkpt><trkpt lat="44.0989083" lon="10.996"><ele>544.4</ele><time>2026-03-29T11:06:21.309Z</time></trkpt><trkpt lat="44.0988533" lon="10.99589"><ele>544.0</ele><time>2026-03-29T11:06:22.31Z</time></trkpt><trkpt lat="44.0987967" lon="10.9957917"><ele>542.0</ele><time>2026-03-29T11:06:23.31Z</time></trkpt><trkpt lat="44.0987367" lon="10.9957"><ele>540.0</ele><time>2026-03-29T11:06:24.307Z</time></trkpt><trkpt lat="44.098675" lon="10.9956183"><ele>538.0</ele><time>2026-03-29T11:06:25.309Z</time></trkpt><trkpt lat="44.098615" lon="10.9955267"><ele>536.0</ele><time>2026-03-29T11:06:26.31Z</time></trkpt><trkpt lat="44.0985533" lon="10.99544"><ele>534.0</ele><time>2026-03-29T11:06:27.31Z</time></trkpt><trkpt lat="44.0984883" lon="10.99536"><ele>532.0</ele><time>2026-03-29T11:06:28.308Z</time></trkpt><trkpt lat="44.0984217" lon="10.9952833"><ele>532.0</ele><time>2026-03-29T11:06:29.309Z</time></trkpt><trkpt lat="44.0983517" lon="10.99521"><ele>532.0</ele><time>2026-03-29T11:06:30.308Z</time></trkpt><trkpt lat="44.09828" lon="10.9951417"><ele>532.0</ele><time>2026-03-29T11:06:31.309Z</time></trkpt><trkpt lat="44.098205" lon="10.9950733"><ele>532.0</ele><time>2026-03-29T11:06:32.31Z</time></trkpt><trkpt lat="44.0981333" lon="10.995015"><ele>532.0</ele><time>2026-03-29T11:06:33.309Z</time></trkpt><trkpt lat="44.09806" lon="10.9949633"><ele>532.0</ele><time>2026-03-29T11:06:34.31Z</time></trkpt><trkpt lat="44.0979883" lon="10.9949033"><ele>531.8333333333334</ele><time>2026-03-29T11:06:35.31Z</time></trkpt><trkpt lat="44.09792" lon="10.9948467"><ele>531.6666666666667</ele><time>2026-03-29T11:06:36.31Z</time></trkpt><trkpt lat="44.097855" lon="10.99479"><ele>531.5</ele><time>2026-03-29T11:06:37.312Z</time></trkpt><trkpt lat="44.0977867" lon="10.9947333"><ele>531.3333333333334</ele><time>2026-03-29T11:06:38.311Z</time></trkpt><trkpt lat="44.09772" lon="10.99468"><ele>531.1666666666666</ele><time>2026-03-29T11:06:39.31Z</time></trkpt><trkpt lat="44.097655" lon="10.994625"><ele>531.0</ele><time>2026-03-29T11:06:40.31Z</time></trkpt><trkpt lat="44.0975867" lon="10.9945717"><ele>531.0</ele><time>2026-03-29T11:06:41.311Z</time></trkpt><trkpt lat="44.0975167" lon="10.9945133"><ele>531.0</ele><time>2026-03-29T11:06:42.309Z</time></trkpt><trkpt lat="44.09745" lon="10.9944567"><ele>531.0</ele><time>2026-03-29T11:06:43.308Z</time></trkpt><trkpt lat="44.09738" lon="10.9944017"><ele>531.0</ele><time>2026-03-29T11:06:44.31Z</time></trkpt><trkpt lat="44.09731" lon="10.9943317"><ele>531.0</ele><time>2026-03-29T11:06:45.311Z</time></trkpt><trkpt lat="44.097235" lon="10.99426"><ele>531.0</ele><time>2026-03-29T11:06:46.309Z</time></trkpt><trkpt lat="44.0971617" lon="10.994195"><ele>531.0</ele><time>2026-03-29T11:06:47.31Z</time></trkpt><trkpt lat="44.0970883" lon="10.9941367"><ele>531.0</ele><time>2026-03-29T11:06:48.31Z</time></trkpt><trkpt lat="44.0970167" lon="10.9940833"><ele>531.0</ele><time>2026-03-29T11:06:49.308Z</time></trkpt><trkpt lat="44.0969467" lon="10.9940267"><ele>531.0</ele><time>2026-03-29T11:06:50.309Z</time></trkpt><trkpt lat="44.0968783" lon="10.99397"><ele>531.0</ele><time>2026-03-29T11:06:51.308Z</time></trkpt><trkpt lat="44.09681" lon="10.9939183"><ele>531.0</ele><time>2026-03-29T11:06:52.307Z</time></trkpt><trkpt lat="44.0967417" lon="10.9938667"><ele>531.0</ele><time>2026-03-29T11:06:53.311Z</time></trkpt><trkpt lat="44.09668" lon="10.993825"><ele>531.0</ele><time>2026-03-29T11:06:54.309Z</time></trkpt><trkpt lat="44.0966233" lon="10.9937833"><ele>531.0</ele><time>2026-03-29T11:06:55.311Z</time></trkpt><trkpt lat="44.0965667" lon="10.99374"><ele>531.0</ele><time>2026-03-29T11:06:56.31Z</time></trkpt><trkpt lat="44.09651" lon="10.9937"><ele>531.0</ele><time>2026-03-29T11:06:57.31Z</time></trkpt><trkpt lat="44.0964533" lon="10.993655"><ele>531.0</ele><time>2026-03-29T11:06:58.31Z</time></trkpt><trkpt lat="44.0963967" lon="10.993615"><ele>531.0</ele><time>2026-03-29T11:06:59.311Z</time></trkpt><trkpt lat="44.09634" lon="10.9935733"><ele>531.1666666666666</ele><time>2026-03-29T11:07:00.31Z</time></trkpt><trkpt lat="44.0962817" lon="10.99353"><ele>531.3333333333334</ele><time>2026-03-29T11:07:01.311Z</time></trkpt><trkpt lat="44.0962233" lon="10.99349"><ele>531.5</ele><time>2026-03-29T11:07:02.31Z</time></trkpt><trkpt lat="44.096165" lon="10.99345"><ele>531.6666666666667</ele><time>2026-03-29T11:07:03.311Z</time></trkpt><trkpt lat="44.096105" lon="10.99341"><ele>531.8333333333334</ele><time>2026-03-29T11:07:04.31Z</time></trkpt><trkpt lat="44.09599" lon="10.9933383"><ele>532.0</ele><time>2026-03-29T11:07:06.311Z</time></trkpt><trkpt lat="44.0959333" lon="10.9933"><ele>532.0</ele><time>2026-03-29T11:07:07.311Z</time></trkpt><trkpt lat="44.0958733" lon="10.9932567"><ele>532.0</ele><time>2026-03-29T11:07:08.309Z</time></trkpt><trkpt lat="44.0958117" lon="10.9932133"><ele>532.0</ele><time>2026-03-29T11:07:09.31Z</time></trkpt><trkpt lat="44.0957483" lon="10.99317"><ele>532.0</ele><time>2026-03-29T11:07:10.309Z</time></trkpt><trkpt lat="44.0956833" lon="10.9931283"><ele>532.0</ele><time>2026-03-29T11:07:11.311Z</time></trkpt><trkpt lat="44.0956217" lon="10.99309"><ele>532.0</ele><time>2026-03-29T11:07:12.309Z</time></trkpt><trkpt lat="44.09556" lon="10.99305"><ele>532.0</ele><time>2026-03-29T11:07:13.312Z</time></trkpt><trkpt lat="44.095445" lon="10.9929767"><ele>532.3333333333334</ele><time>2026-03-29T11:07:15.31Z</time></trkpt><trkpt lat="44.0953833" lon="10.99294"><ele>532.6666666666667</ele><time>2026-03-29T11:07:16.309Z</time></trkpt><trkpt lat="44.0953233" lon="10.9929033"><ele>533.0</ele><time>2026-03-29T11:07:17.309Z</time></trkpt><trkpt lat="44.0952117" lon="10.992835"><ele>533.3333333333334</ele><time>2026-03-29T11:07:19.31Z</time></trkpt><trkpt lat="44.0951517" lon="10.9927933"><ele>533.6666666666666</ele><time>2026-03-29T11:07:20.311Z</time></trkpt><trkpt lat="44.0950933" lon="10.9927417"><ele>534.0</ele><time>2026-03-29T11:07:21.309Z</time></trkpt><trkpt lat="44.0950333" lon="10.9926833"><ele>534.0000000000001</ele><time>2026-03-29T11:07:22.31Z</time></trkpt><trkpt lat="44.0949783" lon="10.99262"><ele>534.0</ele><time>2026-03-29T11:07:23.311Z</time></trkpt><trkpt lat="44.094925" lon="10.9925483"><ele>534.0</ele><time>2026-03-29T11:07:24.309Z</time></trkpt><trkpt lat="44.0948733" lon="10.9924717"><ele>534.0</ele><time>2026-03-29T11:07:25.31Z</time></trkpt><trkpt lat="44.0948267" lon="10.9923967"><ele>534.0</ele><time>2026-03-29T11:07:26.31Z</time></trkpt><trkpt lat="44.0947733" lon="10.9923217"><ele>534.0000000000001</ele><time>2026-03-29T11:07:27.311Z</time></trkpt><trkpt lat="44.0947267" lon="10.9922517"><ele>534.0</ele><time>2026-03-29T11:07:28.309Z</time></trkpt><trkpt lat="44.0946817" lon="10.992175"><ele>533.8333333333334</ele><time>2026-03-29T11:07:29.309Z</time></trkpt><trkpt lat="44.0946417" lon="10.9921017"><ele>533.6666666666666</ele><time>2026-03-29T11:07:30.308Z</time></trkpt><trkpt lat="44.0946067" lon="10.9920233"><ele>533.5</ele><time>2026-03-29T11:07:31.308Z</time></trkpt><trkpt lat="44.09457" lon="10.991945"><ele>533.3333333333333</ele><time>2026-03-29T11:07:32.311Z</time></trkpt><trkpt lat="44.09453" lon="10.991875"><ele>533.1666666666666</ele><time>2026-03-29T11:07:33.308Z</time></trkpt><trkpt lat="44.0944917" lon="10.9918033"><ele>533.0</ele><time>2026-03-29T11:07:34.309Z</time></trkpt><trkpt lat="44.094425" lon="10.9916567"><ele>534.6</ele><time>2026-03-29T11:07:36.309Z</time></trkpt><trkpt lat="44.0943583" lon="10.9915283"><ele>536.1999999999999</ele><time>2026-03-29T11:07:38.306Z</time></trkpt><trkpt lat="44.09428" lon="10.9914517"><ele>537.8</ele><time>2026-03-29T11:07:40.308Z</time></trkpt><trkpt lat="44.0941883" lon="10.9914033"><ele>539.4</ele><time>2026-03-29T11:07:42.308Z</time></trkpt><trkpt lat="44.0941" lon="10.991395"><ele>541.0</ele><time>2026-03-29T11:07:44.308Z</time></trkpt><trkpt lat="44.0940167" lon="10.9914033"><ele>541.0</ele><time>2026-03-29T11:07:46.308Z</time></trkpt><trkpt lat="44.0939333" lon="10.9914167"><ele>541.0</ele><time>2026-03-29T11:07:48.309Z</time></trkpt><trkpt lat="44.093845" lon="10.991415"><ele>541.0</ele><time>2026-03-29T11:07:50.309Z</time></trkpt><trkpt lat="44.0937683" lon="10.9914183"><ele>541.0</ele><time>2026-03-29T11:07:52.308Z</time></trkpt><trkpt lat="44.09368" lon="10.9914233"><ele>541.0</ele><time>2026-03-29T11:07:54.309Z</time></trkpt><trkpt lat="44.0935983" lon="10.99139"><ele>541.0</ele><time>2026-03-29T11:07:56.309Z</time></trkpt><trkpt lat="44.0935183" lon="10.9913767"><ele>541.0</ele><time>2026-03-29T11:07:58.307Z</time></trkpt><trkpt lat="44.0934533" lon="10.9913683"><ele>541.0</ele><time>2026-03-29T11:08:00.307Z</time></trkpt><trkpt lat="44.0933767" lon="10.991325"><ele>541.0</ele><time>2026-03-29T11:08:02.311Z</time></trkpt><trkpt lat="44.093295" lon="10.991265"><ele>541.0</ele><time>2026-03-29T11:08:04.307Z</time></trkpt><trkpt lat="44.0932183" lon="10.9912"><ele>541.0</ele><time>2026-03-29T11:08:06.309Z</time></trkpt><trkpt lat="44.0931433" lon="10.9911333"><ele>541.0</ele><time>2026-03-29T11:08:08.309Z</time></trkpt><trkpt lat="44.0930767" lon="10.9910683"><ele>541.1666666666667</ele><time>2026-03-29T11:08:10.307Z</time></trkpt><trkpt lat="44.093005" lon="10.9910017"><ele>541.3333333333334</ele><time>2026-03-29T11:08:12.307Z</time></trkpt><trkpt lat="44.0929383" lon="10.9909283"><ele>541.5</ele><time>2026-03-29T11:08:14.31Z</time></trkpt><trkpt lat="44.0928733" lon="10.99086"><ele>541.6666666666666</ele><time>2026-03-29T11:08:16.308Z</time></trkpt><trkpt lat="44.0927967" lon="10.9907783"><ele>541.8333333333333</ele><time>2026-03-29T11:08:18.308Z</time></trkpt><trkpt lat="44.0927283" lon="10.9906933"><ele>542.0</ele><time>2026-03-29T11:08:20.308Z</time></trkpt><trkpt lat="44.0926583" lon="10.990595"><ele>542.0</ele><time>2026-03-29T11:08:22.309Z</time></trkpt><trkpt lat="44.0925883" lon="10.9904717"><ele>542.0</ele><time>2026-03-29T11:08:24.309Z</time></trkpt><trkpt lat="44.0925167" lon="10.9903433"><ele>542.0</ele><time>2026-03-29T11:08:26.308Z</time></trkpt><trkpt lat="44.0924433" lon="10.9902133"><ele>542.0</ele><time>2026-03-29T11:08:28.308Z</time></trkpt><trkpt lat="44.09237" lon="10.9900833"><ele>542.5</ele><time>2026-03-29T11:08:30.307Z</time></trkpt><trkpt lat="44.0922833" lon="10.989975"><ele>543.0</ele><time>2026-03-29T11:08:32.308Z</time></trkpt><trkpt lat="44.092195" lon="10.989875"><ele>543.5</ele><time>2026-03-29T11:08:34.31Z</time></trkpt><trkpt lat="44.0921" lon="10.98979"><ele>544.0</ele><time>2026-03-29T11:08:36.311Z</time></trkpt><trkpt lat="44.0920033" lon="10.9897017"><ele>544.0</ele><time>2026-03-29T11:08:38.308Z</time></trkpt><trkpt lat="44.0919" lon="10.9896183"><ele>544.0</ele><time>2026-03-29T11:08:40.308Z</time></trkpt><trkpt lat="44.09179" lon="10.9895333"><ele>544.0</ele><time>2026-03-29T11:08:42.31Z</time></trkpt><trkpt lat="44.0916783" lon="10.9894683"><ele>544.0</ele><time>2026-03-29T11:08:44.309Z</time></trkpt><trkpt lat="44.09158" lon="10.98943"><ele>544.0</ele><time>2026-03-29T11:08:46.309Z</time></trkpt><trkpt lat="44.0914817" lon="10.989385"><ele>544.0</ele><time>2026-03-29T11:08:48.309Z</time></trkpt><trkpt lat="44.0913917" lon="10.9893483"><ele>544.0</ele><time>2026-03-29T11:08:50.31Z</time></trkpt><trkpt lat="44.0913033" lon="10.9893067"><ele>544.0</ele><time>2026-03-29T11:08:52.307Z</time></trkpt><trkpt lat="44.0912167" lon="10.9892883"><ele>544.0</ele><time>2026-03-29T11:08:54.309Z</time></trkpt><trkpt lat="44.0911033" lon="10.9892817"><ele>544.0</ele><time>2026-03-29T11:08:56.309Z</time></trkpt><trkpt lat="44.0909917" lon="10.9892733"><ele>544.0</ele><time>2026-03-29T11:08:58.309Z</time></trkpt><trkpt lat="44.09088" lon="10.9892717"><ele>544.0</ele><time>2026-03-29T11:09:00.31Z</time></trkpt><trkpt lat="44.0907767" lon="10.98928"><ele>544.0</ele><time>2026-03-29T11:09:02.309Z</time></trkpt><trkpt lat="44.0906667" lon="10.9892833"><ele>544.0</ele><time>2026-03-29T11:09:04.308Z</time></trkpt><trkpt lat="44.09056" lon="10.9892883"><ele>545.8</ele><time>2026-03-29T11:09:06.308Z</time></trkpt><trkpt lat="44.09046" lon="10.9893033"><ele>547.5999999999999</ele><time>2026-03-29T11:09:08.31Z</time></trkpt><trkpt lat="44.09036" lon="10.9893383"><ele>549.4</ele><time>2026-03-29T11:09:10.308Z</time></trkpt><trkpt lat="44.09025" lon="10.98937"><ele>551.1999999999999</ele><time>2026-03-29T11:09:12.308Z</time></trkpt><trkpt lat="44.0901433" lon="10.9894033"><ele>553.0</ele><time>2026-03-29T11:09:14.311Z</time></trkpt><trkpt lat="44.0900383" lon="10.9894483"><ele>553.0</ele><time>2026-03-29T11:09:16.307Z</time></trkpt><trkpt lat="44.089935" lon="10.989475"><ele>553.0</ele><time>2026-03-29T11:09:18.31Z</time></trkpt><trkpt lat="44.0898283" lon="10.9895033"><ele>553.0</ele><time>2026-03-29T11:09:20.31Z</time></trkpt><trkpt lat="44.089735" lon="10.9895517"><ele>553.0</ele><time>2026-03-29T11:09:22.312Z</time></trkpt><trkpt lat="44.08963" lon="10.9895867"><ele>553.0</ele><time>2026-03-29T11:09:24.311Z</time></trkpt><trkpt lat="44.0895233" lon="10.9895867"><ele>554.3333333333334</ele><time>2026-03-29T11:09:26.31Z</time></trkpt><trkpt lat="44.0894117" lon="10.989515"><ele>555.6666666666667</ele><time>2026-03-29T11:09:28.308Z</time></trkpt><trkpt lat="44.08936" lon="10.98946"><ele>557.0</ele><time>2026-03-29T11:09:29.308Z</time></trkpt><trkpt lat="44.0893133" lon="10.9893933"><ele>558.3333333333334</ele><time>2026-03-29T11:09:30.308Z</time></trkpt><trkpt lat="44.0892717" lon="10.989315"><ele>559.6666666666666</ele><time>2026-03-29T11:09:31.31Z</time></trkpt><trkpt lat="44.089205" lon="10.9891783"><ele>561.0</ele><time>2026-03-29T11:09:33.307Z</time></trkpt><trkpt lat="44.0891367" lon="10.9890433"><ele>562.0</ele><time>2026-03-29T11:09:35.309Z</time></trkpt><trkpt lat="44.089055" lon="10.9889183"><ele>563.0</ele><time>2026-03-29T11:09:37.31Z</time></trkpt><trkpt lat="44.088955" lon="10.9888133"><ele>564.0</ele><time>2026-03-29T11:09:39.307Z</time></trkpt><trkpt lat="44.0888967" lon="10.9887633"><ele>565.0</ele><time>2026-03-29T11:09:40.308Z</time></trkpt><trkpt lat="44.0888333" lon="10.9887217"><ele>566.0</ele><time>2026-03-29T11:09:41.309Z</time></trkpt><trkpt lat="44.088765" lon="10.9886967"><ele>566.0</ele><time>2026-03-29T11:09:42.308Z</time></trkpt><trkpt lat="44.0886933" lon="10.9886767"><ele>566.0</ele><time>2026-03-29T11:09:43.31Z</time></trkpt><trkpt lat="44.0886217" lon="10.9886683"><ele>566.0</ele><time>2026-03-29T11:09:44.309Z</time></trkpt><trkpt lat="44.088555" lon="10.9886633"><ele>566.0</ele><time>2026-03-29T11:09:45.312Z</time></trkpt><trkpt lat="44.0884267" lon="10.98866"><ele>566.0</ele><time>2026-03-29T11:09:47.309Z</time></trkpt><trkpt lat="44.0883583" lon="10.98866"><ele>566.0</ele><time>2026-03-29T11:09:48.308Z</time></trkpt><trkpt lat="44.0882867" lon="10.988655"><ele>566.4285714285714</ele><time>2026-03-29T11:09:49.31Z</time></trkpt><trkpt lat="44.0882183" lon="10.988655"><ele>566.8571428571429</ele><time>2026-03-29T11:09:50.311Z</time></trkpt><trkpt lat="44.08815" lon="10.9886517"><ele>567.2857142857143</ele><time>2026-03-29T11:09:51.307Z</time></trkpt><trkpt lat="44.0880817" lon="10.988645"><ele>567.7142857142858</ele><time>2026-03-29T11:09:52.31Z</time></trkpt><trkpt lat="44.0880083" lon="10.98864"><ele>568.1428571428571</ele><time>2026-03-29T11:09:53.311Z</time></trkpt><trkpt lat="44.087945" lon="10.9886433"><ele>568.5714285714287</ele><time>2026-03-29T11:09:54.311Z</time></trkpt><trkpt lat="44.08787" lon="10.9886317"><ele>569.0</ele><time>2026-03-29T11:09:55.31Z</time></trkpt><trkpt lat="44.0877967" lon="10.9886167"><ele>569.0</ele><time>2026-03-29T11:09:56.31Z</time></trkpt><trkpt lat="44.0877217" lon="10.9885917"><ele>569.0</ele><time>2026-03-29T11:09:57.309Z</time></trkpt><trkpt lat="44.0876433" lon="10.9885633"><ele>569.0</ele><time>2026-03-29T11:09:58.31Z</time></trkpt><trkpt lat="44.08756" lon="10.98854"><ele>569.0</ele><time>2026-03-29T11:09:59.311Z</time></trkpt><trkpt lat="44.0874783" lon="10.9885"><ele>569.0</ele><time>2026-03-29T11:10:00.31Z</time></trkpt><trkpt lat="44.0874" lon="10.988455"><ele>569.0</ele><time>2026-03-29T11:10:01.309Z</time></trkpt><trkpt lat="44.087325" lon="10.9884"><ele>569.1666666666666</ele><time>2026-03-29T11:10:02.31Z</time></trkpt><trkpt lat="44.0872567" lon="10.9883333"><ele>569.3333333333333</ele><time>2026-03-29T11:10:03.308Z</time></trkpt><trkpt lat="44.0871983" lon="10.9882467"><ele>569.5</ele><time>2026-03-29T11:10:04.31Z</time></trkpt><trkpt lat="44.0871483" lon="10.9881567"><ele>569.6666666666666</ele><time>2026-03-29T11:10:05.309Z</time></trkpt><trkpt lat="44.0871033" lon="10.9880633"><ele>569.8333333333334</ele><time>2026-03-29T11:10:06.309Z</time></trkpt><trkpt lat="44.087065" lon="10.98796"><ele>570.0</ele><time>2026-03-29T11:10:07.308Z</time></trkpt><trkpt lat="44.0870367" lon="10.9878517"><ele>570.0</ele><time>2026-03-29T11:10:08.311Z</time></trkpt><trkpt lat="44.0870067" lon="10.9877417"><ele>570.0</ele><time>2026-03-29T11:10:09.31Z</time></trkpt><trkpt lat="44.0869633" lon="10.9876383"><ele>570.0</ele><time>2026-03-29T11:10:10.31Z</time></trkpt><trkpt lat="44.0869267" lon="10.987535"><ele>570.0</ele><time>2026-03-29T11:10:11.311Z</time></trkpt><trkpt lat="44.0868867" lon="10.98743"><ele>570.0</ele><time>2026-03-29T11:10:12.311Z</time></trkpt><trkpt lat="44.0868383" lon="10.9873417"><ele>570.0</ele><time>2026-03-29T11:10:13.311Z</time></trkpt><trkpt lat="44.0867883" lon="10.98725"><ele>568.8333333333334</ele><time>2026-03-29T11:10:14.309Z</time></trkpt><trkpt lat="44.08673" lon="10.9871717"><ele>567.6666666666666</ele><time>2026-03-29T11:10:15.31Z</time></trkpt><trkpt lat="44.0866683" lon="10.9871083"><ele>566.5</ele><time>2026-03-29T11:10:16.31Z</time></trkpt><trkpt lat="44.086605" lon="10.9870483"><ele>565.3333333333333</ele><time>2026-03-29T11:10:17.309Z</time></trkpt><trkpt lat="44.0865417" lon="10.9869767"><ele>564.1666666666666</ele><time>2026-03-29T11:10:18.31Z</time></trkpt><trkpt lat="44.0864783" lon="10.9868983"><ele>563.0</ele><time>2026-03-29T11:10:19.309Z</time></trkpt><trkpt lat="44.0864067" lon="10.9868533"><ele>563.5</ele><time>2026-03-29T11:10:20.311Z</time></trkpt><trkpt lat="44.08634" lon="10.986795"><ele>564.0</ele><time>2026-03-29T11:10:21.31Z</time></trkpt><trkpt lat="44.0862733" lon="10.98673"><ele>564.5</ele><time>2026-03-29T11:10:22.311Z</time></trkpt><trkpt lat="44.0862117" lon="10.9866617"><ele>565.0</ele><time>2026-03-29T11:10:23.31Z</time></trkpt><trkpt lat="44.08615" lon="10.9866"><ele>565.5</ele><time>2026-03-29T11:10:24.309Z</time></trkpt><trkpt lat="44.08609" lon="10.9865333"><ele>566.0</ele><time>2026-03-29T11:10:25.31Z</time></trkpt><trkpt lat="44.0860333" lon="10.9864633"><ele>566.0</ele><time>2026-03-29T11:10:26.307Z</time></trkpt><trkpt lat="44.085975" lon="10.9863967"><ele>566.0</ele><time>2026-03-29T11:10:27.307Z</time></trkpt><trkpt lat="44.0859183" lon="10.9863417"><ele>566.0</ele><time>2026-03-29T11:10:28.31Z</time></trkpt><trkpt lat="44.08586" lon="10.986295"><ele>566.0</ele><time>2026-03-29T11:10:29.309Z</time></trkpt><trkpt lat="44.0858017" lon="10.98624"><ele>566.0</ele><time>2026-03-29T11:10:30.309Z</time></trkpt><trkpt lat="44.0857367" lon="10.9861967"><ele>566.0</ele><time>2026-03-29T11:10:31.307Z</time></trkpt><trkpt lat="44.08567" lon="10.9861667"><ele>566.0</ele><time>2026-03-29T11:10:32.308Z</time></trkpt><trkpt lat="44.085605" lon="10.9861483"><ele>568.6</ele><time>2026-03-29T11:10:33.308Z</time></trkpt><trkpt lat="44.0855417" lon="10.9861533"><ele>571.2</ele><time>2026-03-29T11:10:34.31Z</time></trkpt><trkpt lat="44.085475" lon="10.986165"><ele>573.8</ele><time>2026-03-29T11:10:35.309Z</time></trkpt><trkpt lat="44.08537" lon="10.9862417"><ele>576.4</ele><time>2026-03-29T11:10:37.309Z</time></trkpt><trkpt lat="44.0852817" lon="10.9863617"><ele>579.0</ele><time>2026-03-29T11:10:39.31Z</time></trkpt><trkpt lat="44.0851967" lon="10.9864933"><ele>579.0</ele><time>2026-03-29T11:10:41.31Z</time></trkpt><trkpt lat="44.0851167" lon="10.986625"><ele>579.0</ele><time>2026-03-29T11:10:43.31Z</time></trkpt><trkpt lat="44.085045" lon="10.98676"><ele>579.0</ele><time>2026-03-29T11:10:45.311Z</time></trkpt><trkpt lat="44.0849617" lon="10.98686"><ele>579.0</ele><time>2026-03-29T11:10:47.314Z</time></trkpt><trkpt lat="44.084865" lon="10.986905"><ele>578.25</ele><time>2026-03-29T11:10:50.311Z</time></trkpt><trkpt lat="44.0847417" lon="10.98686"><ele>577.5</ele><time>2026-03-29T11:10:52.311Z</time></trkpt><trkpt lat="44.0846233" lon="10.9867983"><ele>576.75</ele><time>2026-03-29T11:10:54.311Z</time></trkpt><trkpt lat="44.084515" lon="10.9867317"><ele>576.0</ele><time>2026-03-29T11:10:56.311Z</time></trkpt><trkpt lat="44.0844183" lon="10.9866667"><ele>576.0</ele><time>2026-03-29T11:10:58.31Z</time></trkpt><trkpt lat="44.0843117" lon="10.9866133"><ele>576.0</ele><time>2026-03-29T11:11:00.311Z</time></trkpt><trkpt lat="44.084205" lon="10.9865683"><ele>576.0</ele><time>2026-03-29T11:11:02.314Z</time></trkpt><trkpt lat="44.0841017" lon="10.98649"><ele>576.0</ele><time>2026-03-29T11:11:04.31Z</time></trkpt><trkpt lat="44.0840067" lon="10.9864133"><ele>581.0</ele><time>2026-03-29T11:11:06.312Z</time></trkpt><trkpt lat="44.0839" lon="10.9863333"><ele>586.0</ele><time>2026-03-29T11:11:08.312Z</time></trkpt><trkpt lat="44.0838217" lon="10.9862267"><ele>591.0</ele><time>2026-03-29T11:11:10.31Z</time></trkpt><trkpt lat="44.08375" lon="10.9861"><ele>596.0</ele><time>2026-03-29T11:11:12.311Z</time></trkpt><trkpt lat="44.0836833" lon="10.98599"><ele>596.0</ele><time>2026-03-29T11:11:14.312Z</time></trkpt><trkpt lat="44.0836033" lon="10.9859033"><ele>596.0</ele><time>2026-03-29T11:11:16.31Z</time></trkpt><trkpt lat="44.0835017" lon="10.9858633"><ele>596.0</ele><time>2026-03-29T11:11:18.311Z</time></trkpt><trkpt lat="44.0833967" lon="10.9858633"><ele>596.0</ele><time>2026-03-29T11:11:20.31Z</time></trkpt><trkpt lat="44.08329" lon="10.985895"><ele>596.0</ele><time>2026-03-29T11:11:22.309Z</time></trkpt><trkpt lat="44.0831917" lon="10.9859167"><ele>596.6</ele><time>2026-03-29T11:11:24.311Z</time></trkpt><trkpt lat="44.0830917" lon="10.9859367"><ele>597.2</ele><time>2026-03-29T11:11:26.311Z</time></trkpt><trkpt lat="44.0829967" lon="10.985975"><ele>597.8</ele><time>2026-03-29T11:11:28.309Z</time></trkpt><trkpt lat="44.0829017" lon="10.986005"><ele>598.4</ele><time>2026-03-29T11:11:30.311Z</time></trkpt><trkpt lat="44.0828" lon="10.9860283"><ele>599.0</ele><time>2026-03-29T11:11:32.31Z</time></trkpt><trkpt lat="44.0826983" lon="10.9860483"><ele>599.0</ele><time>2026-03-29T11:11:34.308Z</time></trkpt><trkpt lat="44.0825917" lon="10.98605"><ele>599.0</ele><time>2026-03-29T11:11:36.31Z</time></trkpt><trkpt lat="44.08248" lon="10.9860467"><ele>599.0</ele><time>2026-03-29T11:11:38.311Z</time></trkpt><trkpt lat="44.082375" lon="10.9860567"><ele>599.0</ele><time>2026-03-29T11:11:40.31Z</time></trkpt><trkpt lat="44.0822817" lon="10.9860483"><ele>599.0</ele><time>2026-03-29T11:11:42.311Z</time></trkpt><trkpt lat="44.082175" lon="10.9860633"><ele>598.5</ele><time>2026-03-29T11:11:44.31Z</time></trkpt><trkpt lat="44.0820583" lon="10.9860783"><ele>598.0</ele><time>2026-03-29T11:11:46.311Z</time></trkpt><trkpt lat="44.08194" lon="10.98609"><ele>597.5</ele><time>2026-03-29T11:11:48.311Z</time></trkpt><trkpt lat="44.0818217" lon="10.9860983"><ele>597.0</ele><time>2026-03-29T11:11:50.31Z</time></trkpt><trkpt lat="44.081715" lon="10.9860817"><ele>597.0</ele><time>2026-03-29T11:11:52.309Z</time></trkpt><trkpt lat="44.0816033" lon="10.98606"><ele>597.0</ele><time>2026-03-29T11:11:54.311Z</time></trkpt><trkpt lat="44.0814967" lon="10.9859883"><ele>597.0</ele><time>2026-03-29T11:11:56.31Z</time></trkpt><trkpt lat="44.0814067" lon="10.9858817"><ele>597.0</ele><time>2026-03-29T11:11:58.31Z</time></trkpt><trkpt lat="44.0813417" lon="10.9857667"><ele>596.0</ele><time>2026-03-29T11:12:00.311Z</time></trkpt><trkpt lat="44.0812567" lon="10.98565"><ele>595.0</ele><time>2026-03-29T11:12:02.311Z</time></trkpt><trkpt lat="44.0811633" lon="10.9855333"><ele>594.0</ele><time>2026-03-29T11:12:04.31Z</time></trkpt><trkpt lat="44.0811033" lon="10.9854767"><ele>593.0</ele><time>2026-03-29T11:12:05.31Z</time></trkpt><trkpt lat="44.0810483" lon="10.9854217"><ele>592.0</ele><time>2026-03-29T11:12:06.31Z</time></trkpt><trkpt lat="44.0809983" lon="10.9853667"><ele>591.0</ele><time>2026-03-29T11:12:07.31Z</time></trkpt><trkpt lat="44.0808983" lon="10.9852633"><ele>591.0</ele><time>2026-03-29T11:12:09.311Z</time></trkpt><trkpt lat="44.080785" lon="10.98521"><ele>591.0</ele><time>2026-03-29T11:12:11.311Z</time></trkpt><trkpt lat="44.0807283" lon="10.98517"><ele>591.0</ele><time>2026-03-29T11:12:12.311Z</time></trkpt><trkpt lat="44.0806683" lon="10.985135"><ele>591.0</ele><time>2026-03-29T11:12:13.31Z</time></trkpt><trkpt lat="44.0806067" lon="10.985115"><ele>591.0</ele><time>2026-03-29T11:12:14.31Z</time></trkpt><trkpt lat="44.0805417" lon="10.9851067"><ele>591.0</ele><time>2026-03-29T11:12:15.311Z</time></trkpt><trkpt lat="44.080475" lon="10.9851033"><ele>591.0</ele><time>2026-03-29T11:12:16.31Z</time></trkpt><trkpt lat="44.0804083" lon="10.9851067"><ele>593.5714285714286</ele><time>2026-03-29T11:12:17.31Z</time></trkpt><trkpt lat="44.0803433" lon="10.985115"><ele>596.1428571428571</ele><time>2026-03-29T11:12:18.311Z</time></trkpt><trkpt lat="44.08028" lon="10.98512"><ele>598.7142857142858</ele><time>2026-03-29T11:12:19.311Z</time></trkpt><trkpt lat="44.0802167" lon="10.985125"><ele>601.2857142857142</ele><time>2026-03-29T11:12:20.31Z</time></trkpt><trkpt lat="44.0801533" lon="10.985115"><ele>603.8571428571429</ele><time>2026-03-29T11:12:21.31Z</time></trkpt><trkpt lat="44.080085" lon="10.9851033"><ele>606.4285714285714</ele><time>2026-03-29T11:12:22.311Z</time></trkpt><trkpt lat="44.08002" lon="10.9851067"><ele>609.0</ele><time>2026-03-29T11:12:23.311Z</time></trkpt><trkpt lat="44.0799517" lon="10.9851133"><ele>609.5714285714286</ele><time>2026-03-29T11:12:24.312Z</time></trkpt><trkpt lat="44.0798867" lon="10.98512"><ele>610.1428571428571</ele><time>2026-03-29T11:12:25.311Z</time></trkpt><trkpt lat="44.0798167" lon="10.9851267"><ele>610.7142857142858</ele><time>2026-03-29T11:12:26.311Z</time></trkpt><trkpt lat="44.0797483" lon="10.98513"><ele>611.2857142857142</ele><time>2026-03-29T11:12:27.312Z</time></trkpt><trkpt lat="44.0796783" lon="10.985135"><ele>611.8571428571429</ele><time>2026-03-29T11:12:28.31Z</time></trkpt><trkpt lat="44.0796067" lon="10.9851433"><ele>612.4285714285714</ele><time>2026-03-29T11:12:29.312Z</time></trkpt><trkpt lat="44.0795383" lon="10.985145"><ele>613.0</ele><time>2026-03-29T11:12:30.31Z</time></trkpt><trkpt lat="44.07947" lon="10.9851383"><ele>613.0</ele><time>2026-03-29T11:12:31.311Z</time></trkpt><trkpt lat="44.0794017" lon="10.985125"><ele>613.0</ele><time>2026-03-29T11:12:32.312Z</time></trkpt><trkpt lat="44.0793333" lon="10.9851067"><ele>613.0</ele><time>2026-03-29T11:12:33.311Z</time></trkpt><trkpt lat="44.079265" lon="10.98508"><ele>613.0</ele><time>2026-03-29T11:12:34.31Z</time></trkpt><trkpt lat="44.079195" lon="10.9850583"><ele>613.0</ele><time>2026-03-29T11:12:35.31Z</time></trkpt><trkpt lat="44.0791233" lon="10.9850283"><ele>613.0</ele><time>2026-03-29T11:12:36.312Z</time></trkpt><trkpt lat="44.0790517" lon="10.985005"><ele>613.0</ele><time>2026-03-29T11:12:37.312Z</time></trkpt><trkpt lat="44.0789817" lon="10.9849783"><ele>612.5714285714286</ele><time>2026-03-29T11:12:38.314Z</time></trkpt><trkpt lat="44.078915" lon="10.9849483"><ele>612.1428571428571</ele><time>2026-03-29T11:12:39.311Z</time></trkpt><trkpt lat="44.0788533" lon="10.9849217"><ele>611.7142857142858</ele><time>2026-03-29T11:12:40.309Z</time></trkpt><trkpt lat="44.0787917" lon="10.9848983"><ele>611.2857142857142</ele><time>2026-03-29T11:12:41.311Z</time></trkpt><trkpt lat="44.078725" lon="10.984895"><ele>610.8571428571428</ele><time>2026-03-29T11:12:42.311Z</time></trkpt><trkpt lat="44.0786583" lon="10.984895"><ele>610.4285714285714</ele><time>2026-03-29T11:12:43.31Z</time></trkpt><trkpt lat="44.0785933" lon="10.9849"><ele>610.0</ele><time>2026-03-29T11:12:44.31Z</time></trkpt><trkpt lat="44.07847" lon="10.9849233"><ele>610.0</ele><time>2026-03-29T11:12:46.312Z</time></trkpt><trkpt lat="44.0784083" lon="10.9849517"><ele>610.0</ele><time>2026-03-29T11:12:47.311Z</time></trkpt><trkpt lat="44.0782983" lon="10.9850117"><ele>610.0</ele><time>2026-03-29T11:12:49.311Z</time></trkpt><trkpt lat="44.078195" lon="10.98508"><ele>610.0</ele><time>2026-03-29T11:12:51.31Z</time></trkpt><trkpt lat="44.0780967" lon="10.9851383"><ele>610.0</ele><time>2026-03-29T11:12:53.31Z</time></trkpt><trkpt lat="44.0779967" lon="10.9851983"><ele>609.2</ele><time>2026-03-29T11:12:55.308Z</time></trkpt><trkpt lat="44.077905" lon="10.9852583"><ele>608.4</ele><time>2026-03-29T11:12:57.308Z</time></trkpt><trkpt lat="44.0778117" lon="10.985315"><ele>607.6</ele><time>2026-03-29T11:12:59.309Z</time></trkpt><trkpt lat="44.0777217" lon="10.9853633"><ele>606.8</ele><time>2026-03-29T11:13:01.308Z</time></trkpt><trkpt lat="44.0776283" lon="10.985405"><ele>606.0</ele><time>2026-03-29T11:13:03.308Z</time></trkpt><trkpt lat="44.0775267" lon="10.98544"><ele>607.3333333333334</ele><time>2026-03-29T11:13:05.308Z</time></trkpt><trkpt lat="44.0774333" lon="10.9854733"><ele>608.6666666666666</ele><time>2026-03-29T11:13:07.311Z</time></trkpt><trkpt lat="44.0773417" lon="10.9854833"><ele>610.0</ele><time>2026-03-29T11:13:09.309Z</time></trkpt><trkpt lat="44.077255" lon="10.9854917"><ele>611.3333333333333</ele><time>2026-03-29T11:13:11.308Z</time></trkpt><trkpt lat="44.077175" lon="10.985495"><ele>612.6666666666666</ele><time>2026-03-29T11:13:13.307Z</time></trkpt><trkpt lat="44.07709" lon="10.9854883"><ele>614.0</ele><time>2026-03-29T11:13:15.308Z</time></trkpt><trkpt lat="44.0770267" lon="10.9854867"><ele>614.0</ele><time>2026-03-29T11:13:17.309Z</time></trkpt><trkpt lat="44.0769617" lon="10.9854767"><ele>614.0</ele><time>2026-03-29T11:13:19.309Z</time></trkpt><trkpt lat="44.0769" lon="10.985435"><ele>614.0</ele><time>2026-03-29T11:13:21.309Z</time></trkpt><trkpt lat="44.076835" lon="10.9853467"><ele>614.0</ele><time>2026-03-29T11:13:23.308Z</time></trkpt><trkpt lat="44.0767483" lon="10.98528"><ele>614.0</ele><time>2026-03-29T11:13:25.31Z</time></trkpt><trkpt lat="44.076705" lon="10.9851783"><ele>614.0</ele><time>2026-03-29T11:13:27.311Z</time></trkpt><trkpt lat="44.0766633" lon="10.9850867"><ele>613.1666666666666</ele><time>2026-03-29T11:13:29.31Z</time></trkpt><trkpt lat="44.0766167" lon="10.9849833"><ele>612.3333333333333</ele><time>2026-03-29T11:13:31.308Z</time></trkpt><trkpt lat="44.076585" lon="10.9848867"><ele>611.5</ele><time>2026-03-29T11:13:33.309Z</time></trkpt><trkpt lat="44.07655" lon="10.9847917"><ele>610.6666666666666</ele><time>2026-03-29T11:13:35.31Z</time></trkpt><trkpt lat="44.0765033" lon="10.9847017"><ele>609.8333333333334</ele><time>2026-03-29T11:13:37.31Z</time></trkpt><trkpt lat="44.0764517" lon="10.9846033"><ele>609.0</ele><time>2026-03-29T11:13:39.31Z</time></trkpt><trkpt lat="44.0764" lon="10.9844933"><ele>610.3333333333334</ele><time>2026-03-29T11:13:41.308Z</time></trkpt><trkpt lat="44.076365" lon="10.984375"><ele>611.6666666666666</ele><time>2026-03-29T11:13:43.308Z</time></trkpt><trkpt lat="44.0763333" lon="10.98427"><ele>613.0</ele><time>2026-03-29T11:13:45.309Z</time></trkpt><trkpt lat="44.0763083" lon="10.984155"><ele>614.3333333333333</ele><time>2026-03-29T11:13:47.307Z</time></trkpt><trkpt lat="44.0762583" lon="10.9840567"><ele>615.6666666666666</ele><time>2026-03-29T11:13:49.309Z</time></trkpt><trkpt lat="44.0761983" lon="10.9839783"><ele>617.0</ele><time>2026-03-29T11:13:51.308Z</time></trkpt><trkpt lat="44.07614" lon="10.9839117"><ele>617.0</ele><time>2026-03-29T11:13:53.308Z</time></trkpt><trkpt lat="44.076075" lon="10.9838517"><ele>617.0</ele><time>2026-03-29T11:13:55.31Z</time></trkpt><trkpt lat="44.07602" lon="10.9837917"><ele>617.0</ele><time>2026-03-29T11:13:57.309Z</time></trkpt><trkpt lat="44.075955" lon="10.9837433"><ele>617.0</ele><time>2026-03-29T11:13:59.309Z</time></trkpt><trkpt lat="44.0758933" lon="10.9836983"><ele>617.0</ele><time>2026-03-29T11:14:01.308Z</time></trkpt><trkpt lat="44.075835" lon="10.9836083"><ele>617.0</ele><time>2026-03-29T11:14:03.309Z</time></trkpt><trkpt lat="44.075785" lon="10.983535"><ele>618.6666666666666</ele><time>2026-03-29T11:14:05.309Z</time></trkpt><trkpt lat="44.0757283" lon="10.9834533"><ele>620.3333333333333</ele><time>2026-03-29T11:14:08.311Z</time></trkpt><trkpt lat="44.0756783" lon="10.9833817"><ele>622.0</ele><time>2026-03-29T11:14:10.31Z</time></trkpt><trkpt lat="44.0756" lon="10.983335"><ele>623.6666666666666</ele><time>2026-03-29T11:14:12.309Z</time></trkpt><trkpt lat="44.0755267" lon="10.983285"><ele>625.3333333333334</ele><time>2026-03-29T11:14:14.309Z</time></trkpt><trkpt lat="44.0754533" lon="10.98324"><ele>627.0</ele><time>2026-03-29T11:14:16.309Z</time></trkpt><trkpt lat="44.075385" lon="10.9831783"><ele>627.0</ele><time>2026-03-29T11:14:18.308Z</time></trkpt><trkpt lat="44.0753" lon="10.983115"><ele>627.0</ele><time>2026-03-29T11:14:20.308Z</time></trkpt><trkpt lat="44.0752067" lon="10.9830367"><ele>627.0</ele><time>2026-03-29T11:14:22.307Z</time></trkpt><trkpt lat="44.0751167" lon="10.9829767"><ele>627.0</ele><time>2026-03-29T11:14:24.308Z</time></trkpt><trkpt lat="44.0750233" lon="10.9829133"><ele>627.0</ele><time>2026-03-29T11:14:26.31Z</time></trkpt><trkpt lat="44.0749367" lon="10.9828367"><ele>627.0</ele><time>2026-03-29T11:14:28.31Z</time></trkpt><trkpt lat="44.0748533" lon="10.98272"><ele>627.0</ele><time>2026-03-29T11:14:30.31Z</time></trkpt><trkpt lat="44.07477" lon="10.982625"><ele>627.0</ele><time>2026-03-29T11:14:32.31Z</time></trkpt><trkpt lat="44.0746917" lon="10.982535"><ele>627.0</ele><time>2026-03-29T11:14:34.31Z</time></trkpt><trkpt lat="44.0746267" lon="10.9824133"><ele>627.0</ele><time>2026-03-29T11:14:36.31Z</time></trkpt><trkpt lat="44.07457" lon="10.9822833"><ele>627.0</ele><time>2026-03-29T11:14:38.311Z</time></trkpt><trkpt lat="44.0745133" lon="10.9821483"><ele>627.0</ele><time>2026-03-29T11:14:40.307Z</time></trkpt><trkpt lat="44.0744567" lon="10.9820167"><ele>627.0</ele><time>2026-03-29T11:14:42.309Z</time></trkpt><trkpt lat="44.074405" lon="10.9819017"><ele>627.0</ele><time>2026-03-29T11:14:44.309Z</time></trkpt><trkpt lat="44.074345" lon="10.9818017"><ele>627.0</ele><time>2026-03-29T11:14:46.309Z</time></trkpt><trkpt lat="44.074295" lon="10.9817067"><ele>626.4</ele><time>2026-03-29T11:14:48.309Z</time></trkpt><trkpt lat="44.074245" lon="10.9816183"><ele>625.8000000000001</ele><time>2026-03-29T11:14:50.309Z</time></trkpt><trkpt lat="44.0741933" lon="10.981515"><ele>625.2</ele><time>2026-03-29T11:14:52.307Z</time></trkpt><trkpt lat="44.0741383" lon="10.98141"><ele>624.6</ele><time>2026-03-29T11:14:54.309Z</time></trkpt><trkpt lat="44.0740917" lon="10.981275"><ele>624.0</ele><time>2026-03-29T11:14:56.31Z</time></trkpt><trkpt lat="44.0740517" lon="10.9811367"><ele>624.4</ele><time>2026-03-29T11:14:58.309Z</time></trkpt><trkpt lat="44.0740417" lon="10.981"><ele>624.8</ele><time>2026-03-29T11:15:00.31Z</time></trkpt><trkpt lat="44.07405" lon="10.9808733"><ele>625.2</ele><time>2026-03-29T11:15:02.309Z</time></trkpt><trkpt lat="44.0740617" lon="10.98075"><ele>625.6</ele><time>2026-03-29T11:15:04.309Z</time></trkpt><trkpt lat="44.0740783" lon="10.9806083"><ele>626.0</ele><time>2026-03-29T11:15:06.311Z</time></trkpt><trkpt lat="44.0740783" lon="10.9804933"><ele>626.0</ele><time>2026-03-29T11:15:08.308Z</time></trkpt><trkpt lat="44.0740617" lon="10.9803867"><ele>626.0</ele><time>2026-03-29T11:15:10.309Z</time></trkpt><trkpt lat="44.074035" lon="10.98027"><ele>626.0</ele><time>2026-03-29T11:15:12.309Z</time></trkpt><trkpt lat="44.0739967" lon="10.9801733"><ele>626.0</ele><time>2026-03-29T11:15:14.309Z</time></trkpt><trkpt lat="44.0739583" lon="10.9800783"><ele>626.0</ele><time>2026-03-29T11:15:16.308Z</time></trkpt><trkpt lat="44.0739083" lon="10.979995"><ele>626.0</ele><time>2026-03-29T11:15:18.31Z</time></trkpt><trkpt lat="44.0738517" lon="10.9799217"><ele>625.2</ele><time>2026-03-29T11:15:20.309Z</time></trkpt><trkpt lat="44.0737817" lon="10.97986"><ele>624.4000000000001</ele><time>2026-03-29T11:15:22.308Z</time></trkpt><trkpt lat="44.0737033" lon="10.9798133"><ele>623.6</ele><time>2026-03-29T11:15:24.309Z</time></trkpt><trkpt lat="44.073605" lon="10.979785"><ele>622.8000000000001</ele><time>2026-03-29T11:15:26.31Z</time></trkpt><trkpt lat="44.0734817" lon="10.9797517"><ele>622.0</ele><time>2026-03-29T11:15:28.31Z</time></trkpt><trkpt lat="44.0734117" lon="10.9797317"><ele>622.0</ele><time>2026-03-29T11:15:29.309Z</time></trkpt><trkpt lat="44.0733367" lon="10.9797183"><ele>622.0</ele><time>2026-03-29T11:15:30.311Z</time></trkpt><trkpt lat="44.07326" lon="10.979705"><ele>622.0</ele><time>2026-03-29T11:15:31.309Z</time></trkpt><trkpt lat="44.0731817" lon="10.97969"><ele>622.0</ele><time>2026-03-29T11:15:32.31Z</time></trkpt><trkpt lat="44.07311" lon="10.979685"><ele>622.0</ele><time>2026-03-29T11:15:33.308Z</time></trkpt><trkpt lat="44.0730417" lon="10.97968"><ele>622.0</ele><time>2026-03-29T11:15:34.311Z</time></trkpt><trkpt lat="44.072975" lon="10.979665"><ele>622.0</ele><time>2026-03-29T11:15:35.309Z</time></trkpt><trkpt lat="44.072915" lon="10.9796367"><ele>623.75</ele><time>2026-03-29T11:15:36.31Z</time></trkpt><trkpt lat="44.0728017" lon="10.9796117"><ele>625.5</ele><time>2026-03-29T11:15:38.31Z</time></trkpt><trkpt lat="44.0727" lon="10.9795433"><ele>627.25</ele><time>2026-03-29T11:15:40.308Z</time></trkpt><trkpt lat="44.07261" lon="10.979425"><ele>629.0</ele><time>2026-03-29T11:15:42.31Z</time></trkpt><trkpt lat="44.0725383" lon="10.9792817"><ele>629.0</ele><time>2026-03-29T11:15:44.309Z</time></trkpt><trkpt lat="44.0725033" lon="10.9792083"><ele>629.0</ele><time>2026-03-29T11:15:45.309Z</time></trkpt><trkpt lat="44.07247" lon="10.9791283"><ele>629.0</ele><time>2026-03-29T11:15:46.309Z</time></trkpt><trkpt lat="44.0724383" lon="10.9790483"><ele>629.0</ele><time>2026-03-29T11:15:47.309Z</time></trkpt><trkpt lat="44.0724" lon="10.97897"><ele>629.0</ele><time>2026-03-29T11:15:48.31Z</time></trkpt><trkpt lat="44.0723633" lon="10.9788967"><ele>629.0</ele><time>2026-03-29T11:15:49.309Z</time></trkpt><trkpt lat="44.072325" lon="10.9788217"><ele>629.0</ele><time>2026-03-29T11:15:50.309Z</time></trkpt><trkpt lat="44.07225" lon="10.9786867"><ele>628.6</ele><time>2026-03-29T11:15:52.31Z</time></trkpt><trkpt lat="44.0721817" lon="10.9785517"><ele>628.2</ele><time>2026-03-29T11:15:54.309Z</time></trkpt><trkpt lat="44.0721067" lon="10.97842"><ele>627.8000000000001</ele><time>2026-03-29T11:15:56.309Z</time></trkpt><trkpt lat="44.0720667" lon="10.9783517"><ele>627.4</ele><time>2026-03-29T11:15:57.311Z</time></trkpt><trkpt lat="44.0720283" lon="10.97826"><ele>627.0</ele><time>2026-03-29T11:15:58.31Z</time></trkpt><trkpt lat="44.071985" lon="10.978165"><ele>627.0</ele><time>2026-03-29T11:15:59.308Z</time></trkpt><trkpt lat="44.0719417" lon="10.97808"><ele>627.0</ele><time>2026-03-29T11:16:00.309Z</time></trkpt><trkpt lat="44.0719" lon="10.9779867"><ele>627.0</ele><time>2026-03-29T11:16:01.31Z</time></trkpt><trkpt lat="44.0718533" lon="10.9779033"><ele>627.0</ele><time>2026-03-29T11:16:02.31Z</time></trkpt><trkpt lat="44.0718083" lon="10.9778133"><ele>627.0</ele><time>2026-03-29T11:16:03.309Z</time></trkpt><trkpt lat="44.0717567" lon="10.9777267"><ele>627.0</ele><time>2026-03-29T11:16:04.314Z</time></trkpt><trkpt lat="44.0717067" lon="10.9776383"><ele>627.0</ele><time>2026-03-29T11:16:05.31Z</time></trkpt><trkpt lat="44.0716483" lon="10.9775567"><ele>627.0</ele><time>2026-03-29T11:16:06.309Z</time></trkpt><trkpt lat="44.071585" lon="10.9774817"><ele>627.0</ele><time>2026-03-29T11:16:07.308Z</time></trkpt><trkpt lat="44.07152" lon="10.9774017"><ele>627.0</ele><time>2026-03-29T11:16:08.31Z</time></trkpt><trkpt lat="44.071455" lon="10.9773167"><ele>627.0</ele><time>2026-03-29T11:16:09.31Z</time></trkpt><trkpt lat="44.07139" lon="10.9772333"><ele>627.0</ele><time>2026-03-29T11:16:10.31Z</time></trkpt><trkpt lat="44.07133" lon="10.9771433"><ele>627.8000000000001</ele><time>2026-03-29T11:16:11.308Z</time></trkpt><trkpt lat="44.0712667" lon="10.9770467"><ele>628.6</ele><time>2026-03-29T11:16:12.31Z</time></trkpt><trkpt lat="44.0712133" lon="10.9769483"><ele>629.4000000000001</ele><time>2026-03-29T11:16:13.309Z</time></trkpt><trkpt lat="44.0711717" lon="10.9768367"><ele>630.2</ele><time>2026-03-29T11:16:14.309Z</time></trkpt><trkpt lat="44.0711333" lon="10.97672"><ele>631.0</ele><time>2026-03-29T11:16:15.313Z</time></trkpt><trkpt lat="44.0711167" lon="10.97659"><ele>631.0</ele><time>2026-03-29T11:16:16.309Z</time></trkpt><trkpt lat="44.0711" lon="10.97646"><ele>631.0</ele><time>2026-03-29T11:16:17.308Z</time></trkpt><trkpt lat="44.071075" lon="10.976345"><ele>631.0</ele><time>2026-03-29T11:16:18.309Z</time></trkpt><trkpt lat="44.0710367" lon="10.9762333"><ele>631.0</ele><time>2026-03-29T11:16:19.31Z</time></trkpt><trkpt lat="44.07099" lon="10.976125"><ele>631.0</ele><time>2026-03-29T11:16:20.309Z</time></trkpt><trkpt lat="44.07093" lon="10.9760283"><ele>631.0</ele><time>2026-03-29T11:16:21.309Z</time></trkpt><trkpt lat="44.0708633" lon="10.9759417"><ele>631.0</ele><time>2026-03-29T11:16:22.309Z</time></trkpt><trkpt lat="44.07079" lon="10.9758567"><ele>631.0</ele><time>2026-03-29T11:16:23.307Z</time></trkpt><trkpt lat="44.0707167" lon="10.9757767"><ele>631.0</ele><time>2026-03-29T11:16:24.31Z</time></trkpt><trkpt lat="44.07064" lon="10.9756983"><ele>631.0</ele><time>2026-03-29T11:16:25.31Z</time></trkpt><trkpt lat="44.0705617" lon="10.9756183"><ele>631.8</ele><time>2026-03-29T11:16:26.31Z</time></trkpt><trkpt lat="44.070485" lon="10.9755333"><ele>632.6</ele><time>2026-03-29T11:16:27.31Z</time></trkpt><trkpt lat="44.07041" lon="10.97545"><ele>633.4</ele><time>2026-03-29T11:16:28.309Z</time></trkpt><trkpt lat="44.0703333" lon="10.97537"><ele>634.2</ele><time>2026-03-29T11:16:29.311Z</time></trkpt><trkpt lat="44.0702617" lon="10.9752833"><ele>635.0</ele><time>2026-03-29T11:16:30.31Z</time></trkpt><trkpt lat="44.07019" lon="10.9751983"><ele>635.0</ele><time>2026-03-29T11:16:31.309Z</time></trkpt><trkpt lat="44.0701183" lon="10.9751117"><ele>635.0</ele><time>2026-03-29T11:16:32.31Z</time></trkpt><trkpt lat="44.0700433" lon="10.97503"><ele>635.0</ele><time>2026-03-29T11:16:33.309Z</time></trkpt><trkpt lat="44.0699683" lon="10.9749517"><ele>635.0</ele><time>2026-03-29T11:16:34.308Z</time></trkpt><trkpt lat="44.069895" lon="10.9748717"><ele>635.0</ele><time>2026-03-29T11:16:35.31Z</time></trkpt><trkpt lat="44.0698217" lon="10.97479"><ele>638.4</ele><time>2026-03-29T11:16:36.308Z</time></trkpt><trkpt lat="44.0697483" lon="10.974705"><ele>641.8</ele><time>2026-03-29T11:16:37.309Z</time></trkpt><trkpt lat="44.0696767" lon="10.9746267"><ele>645.2</ele><time>2026-03-29T11:16:38.309Z</time></trkpt><trkpt lat="44.0696067" lon="10.974545"><ele>648.6</ele><time>2026-03-29T11:16:39.309Z</time></trkpt><trkpt lat="44.0695367" lon="10.9744517"><ele>652.0</ele><time>2026-03-29T11:16:40.311Z</time></trkpt><trkpt lat="44.0694717" lon="10.9743567"><ele>652.0</ele><time>2026-03-29T11:16:41.31Z</time></trkpt><trkpt lat="44.06941" lon="10.9742533"><ele>652.0</ele><time>2026-03-29T11:16:42.31Z</time></trkpt><trkpt lat="44.0693517" lon="10.9741533"><ele>652.0</ele><time>2026-03-29T11:16:43.31Z</time></trkpt><trkpt lat="44.069295" lon="10.974045"><ele>652.0</ele><time>2026-03-29T11:16:44.311Z</time></trkpt><trkpt lat="44.0692367" lon="10.973935"><ele>652.0</ele><time>2026-03-29T11:16:45.309Z</time></trkpt><trkpt lat="44.0691783" lon="10.9738283"><ele>653.6</ele><time>2026-03-29T11:16:46.309Z</time></trkpt><trkpt lat="44.0691233" lon="10.9737133"><ele>655.2</ele><time>2026-03-29T11:16:47.312Z</time></trkpt><trkpt lat="44.069065" lon="10.973605"><ele>656.8</ele><time>2026-03-29T11:16:48.31Z</time></trkpt><trkpt lat="44.069" lon="10.973515"><ele>658.4</ele><time>2026-03-29T11:16:49.309Z</time></trkpt><trkpt lat="44.068925" lon="10.9734333"><ele>660.0</ele><time>2026-03-29T11:16:50.31Z</time></trkpt><trkpt lat="44.0688433" lon="10.9733633"><ele>656.4</ele><time>2026-03-29T11:16:51.312Z</time></trkpt><trkpt lat="44.0687583" lon="10.9733133"><ele>652.8</ele><time>2026-03-29T11:16:52.308Z</time></trkpt><trkpt lat="44.0686733" lon="10.973265"><ele>649.2</ele><time>2026-03-29T11:16:53.31Z</time></trkpt><trkpt lat="44.068585" lon="10.9732283"><ele>645.6</ele><time>2026-03-29T11:16:54.31Z</time></trkpt><trkpt lat="44.0684933" lon="10.9731967"><ele>642.0</ele><time>2026-03-29T11:16:55.313Z</time></trkpt><trkpt lat="44.068405" lon="10.973145"><ele>642.0</ele><time>2026-03-29T11:16:56.31Z</time></trkpt><trkpt lat="44.0683217" lon="10.973075"><ele>642.0</ele><time>2026-03-29T11:16:57.31Z</time></trkpt><trkpt lat="44.0682417" lon="10.9730033"><ele>642.0</ele><time>2026-03-29T11:16:58.309Z</time></trkpt><trkpt lat="44.0681617" lon="10.9729483"><ele>642.0</ele><time>2026-03-29T11:16:59.309Z</time></trkpt><trkpt lat="44.0680883" lon="10.9728983"><ele>642.0</ele><time>2026-03-29T11:17:00.31Z</time></trkpt><trkpt lat="44.06801" lon="10.9728783"><ele>642.0</ele><time>2026-03-29T11:17:01.309Z</time></trkpt><trkpt lat="44.06793" lon="10.9728733"><ele>642.3333333333334</ele><time>2026-03-29T11:17:02.308Z</time></trkpt><trkpt lat="44.0678517" lon="10.9728817"><ele>642.6666666666666</ele><time>2026-03-29T11:17:03.311Z</time></trkpt><trkpt lat="44.067775" lon="10.9729083"><ele>643.0</ele><time>2026-03-29T11:17:04.309Z</time></trkpt><trkpt lat="44.0676967" lon="10.9729367"><ele>643.3333333333333</ele><time>2026-03-29T11:17:05.309Z</time></trkpt><trkpt lat="44.0676167" lon="10.9729633"><ele>643.6666666666666</ele><time>2026-03-29T11:17:06.31Z</time></trkpt><trkpt lat="44.0675433" lon="10.9729917"><ele>644.0</ele><time>2026-03-29T11:17:07.309Z</time></trkpt><trkpt lat="44.0674667" lon="10.973015"><ele>646.5</ele><time>2026-03-29T11:17:08.311Z</time></trkpt><trkpt lat="44.0673933" lon="10.9730367"><ele>649.0</ele><time>2026-03-29T11:17:09.309Z</time></trkpt><trkpt lat="44.06732" lon="10.973055"><ele>651.5</ele><time>2026-03-29T11:17:10.308Z</time></trkpt><trkpt lat="44.067245" lon="10.9730667"><ele>654.0</ele><time>2026-03-29T11:17:11.309Z</time></trkpt><trkpt lat="44.0671767" lon="10.9730717"><ele>656.5</ele><time>2026-03-29T11:17:12.308Z</time></trkpt><trkpt lat="44.0671133" lon="10.9730583"><ele>659.0</ele><time>2026-03-29T11:17:13.311Z</time></trkpt><trkpt lat="44.0669833" lon="10.97301"><ele>659.0</ele><time>2026-03-29T11:17:15.311Z</time></trkpt><trkpt lat="44.066915" lon="10.97298"><ele>659.0</ele><time>2026-03-29T11:17:16.309Z</time></trkpt><trkpt lat="44.0668517" lon="10.9729467"><ele>659.0</ele><time>2026-03-29T11:17:17.309Z</time></trkpt><trkpt lat="44.06679" lon="10.9729083"><ele>659.0</ele><time>2026-03-29T11:17:18.309Z</time></trkpt><trkpt lat="44.066725" lon="10.9728733"><ele>659.0</ele><time>2026-03-29T11:17:19.311Z</time></trkpt><trkpt lat="44.0666617" lon="10.9728317"><ele>659.0</ele><time>2026-03-29T11:17:20.31Z</time></trkpt><trkpt lat="44.0665967" lon="10.9727967"><ele>659.0</ele><time>2026-03-29T11:17:21.31Z</time></trkpt><trkpt lat="44.0665367" lon="10.972755"><ele>659.0</ele><time>2026-03-29T11:17:22.31Z</time></trkpt><trkpt lat="44.0664733" lon="10.97272"><ele>659.0</ele><time>2026-03-29T11:17:23.31Z</time></trkpt><trkpt lat="44.066415" lon="10.972675"><ele>659.0</ele><time>2026-03-29T11:17:24.31Z</time></trkpt><trkpt lat="44.0663583" lon="10.9726233"><ele>659.0</ele><time>2026-03-29T11:17:25.308Z</time></trkpt><trkpt lat="44.0663033" lon="10.97257"><ele>659.0</ele><time>2026-03-29T11:17:26.31Z</time></trkpt><trkpt lat="44.0662483" lon="10.972515"><ele>659.0</ele><time>2026-03-29T11:17:27.309Z</time></trkpt><trkpt lat="44.0662" lon="10.9724467"><ele>659.0</ele><time>2026-03-29T11:17:28.31Z</time></trkpt><trkpt lat="44.0661583" lon="10.9723533"><ele>659.0</ele><time>2026-03-29T11:17:29.31Z</time></trkpt><trkpt lat="44.066125" lon="10.9722483"><ele>659.0</ele><time>2026-03-29T11:17:30.312Z</time></trkpt><trkpt lat="44.0661" lon="10.9721417"><ele>659.0</ele><time>2026-03-29T11:17:31.31Z</time></trkpt><trkpt lat="44.0660767" lon="10.9720317"><ele>659.0</ele><time>2026-03-29T11:17:32.311Z</time></trkpt><trkpt lat="44.0660483" lon="10.97192"><ele>659.0</ele><time>2026-03-29T11:17:33.311Z</time></trkpt><trkpt lat="44.0660233" lon="10.971815"><ele>659.0</ele><time>2026-03-29T11:17:34.308Z</time></trkpt><trkpt lat="44.0660033" lon="10.9716983"><ele>658.1666666666666</ele><time>2026-03-29T11:17:35.31Z</time></trkpt><trkpt lat="44.0659783" lon="10.9715883"><ele>657.3333333333333</ele><time>2026-03-29T11:17:36.309Z</time></trkpt><trkpt lat="44.0659467" lon="10.9714917"><ele>656.5</ele><time>2026-03-29T11:17:37.31Z</time></trkpt><trkpt lat="44.06591" lon="10.9713983"><ele>655.6666666666666</ele><time>2026-03-29T11:17:38.31Z</time></trkpt><trkpt lat="44.0658783" lon="10.9712933"><ele>654.8333333333334</ele><time>2026-03-29T11:17:39.309Z</time></trkpt><trkpt lat="44.0658483" lon="10.9711967"><ele>654.0</ele><time>2026-03-29T11:17:40.31Z</time></trkpt><trkpt lat="44.0658083" lon="10.97111"><ele>655.1428571428571</ele><time>2026-03-29T11:17:41.31Z</time></trkpt><trkpt lat="44.0657683" lon="10.97102"><ele>656.2857142857143</ele><time>2026-03-29T11:17:42.309Z</time></trkpt><trkpt lat="44.06572" lon="10.9709383"><ele>657.4285714285714</ele><time>2026-03-29T11:17:43.311Z</time></trkpt><trkpt lat="44.0656583" lon="10.9708817"><ele>658.5714285714286</ele><time>2026-03-29T11:17:44.309Z</time></trkpt><trkpt lat="44.0656017" lon="10.9708267"><ele>659.7142857142857</ele><time>2026-03-29T11:17:45.309Z</time></trkpt><trkpt lat="44.06555" lon="10.9707733"><ele>660.8571428571429</ele><time>2026-03-29T11:17:46.309Z</time></trkpt><trkpt lat="44.065505" lon="10.9707067"><ele>662.0</ele><time>2026-03-29T11:17:47.31Z</time></trkpt><trkpt lat="44.065455" lon="10.9706433"><ele>662.0</ele><time>2026-03-29T11:17:48.308Z</time></trkpt><trkpt lat="44.0654033" lon="10.9705833"><ele>662.0</ele><time>2026-03-29T11:17:49.309Z</time></trkpt><trkpt lat="44.0653533" lon="10.970525"><ele>662.0</ele><time>2026-03-29T11:17:50.311Z</time></trkpt><trkpt lat="44.06526" lon="10.9704183"><ele>662.0</ele><time>2026-03-29T11:17:52.309Z</time></trkpt><trkpt lat="44.065165" lon="10.9703333"><ele>662.0</ele><time>2026-03-29T11:17:54.309Z</time></trkpt><trkpt lat="44.06505" lon="10.9702767"><ele>664.4000000000001</ele><time>2026-03-29T11:17:56.31Z</time></trkpt><trkpt lat="44.064945" lon="10.97022"><ele>666.8000000000001</ele><time>2026-03-29T11:17:58.31Z</time></trkpt><trkpt lat="44.0648333" lon="10.9701783"><ele>669.2</ele><time>2026-03-29T11:18:00.312Z</time></trkpt><trkpt lat="44.0647133" lon="10.9701383"><ele>671.6</ele><time>2026-03-29T11:18:02.311Z</time></trkpt><trkpt lat="44.0646517" lon="10.9701183"><ele>674.0</ele><time>2026-03-29T11:18:03.31Z</time></trkpt><trkpt lat="44.0645483" lon="10.9700667"><ele>674.0</ele><time>2026-03-29T11:18:05.309Z</time></trkpt><trkpt lat="44.06444" lon="10.9700333"><ele>674.0</ele><time>2026-03-29T11:18:07.311Z</time></trkpt><trkpt lat="44.0643283" lon="10.9700083"><ele>674.0</ele><time>2026-03-29T11:18:09.309Z</time></trkpt><trkpt lat="44.0642333" lon="10.9699767"><ele>674.0</ele><time>2026-03-29T11:18:11.309Z</time></trkpt><trkpt lat="44.0641133" lon="10.9699383"><ele>674.0</ele><time>2026-03-29T11:18:13.308Z</time></trkpt><trkpt lat="44.0639883" lon="10.9699117"><ele>672.8333333333333</ele><time>2026-03-29T11:18:15.31Z</time></trkpt><trkpt lat="44.0639233" lon="10.9699033"><ele>671.6666666666666</ele><time>2026-03-29T11:18:16.309Z</time></trkpt><trkpt lat="44.06386" lon="10.9698933"><ele>670.5</ele><time>2026-03-29T11:18:17.308Z</time></trkpt><trkpt lat="44.063745" lon="10.96984"><ele>669.3333333333334</ele><time>2026-03-29T11:18:19.307Z</time></trkpt><trkpt lat="44.0636383" lon="10.9697583"><ele>668.1666666666667</ele><time>2026-03-29T11:18:21.31Z</time></trkpt><trkpt lat="44.06359" lon="10.9697"><ele>667.0</ele><time>2026-03-29T11:18:22.308Z</time></trkpt><trkpt lat="44.0635417" lon="10.9696433"><ele>667.0</ele><time>2026-03-29T11:18:23.309Z</time></trkpt><trkpt lat="44.0634967" lon="10.9695767"><ele>667.0</ele><time>2026-03-29T11:18:24.308Z</time></trkpt><trkpt lat="44.0634117" lon="10.96945"><ele>667.0</ele><time>2026-03-29T11:18:26.309Z</time></trkpt><trkpt lat="44.0633333" lon="10.969325"><ele>667.0</ele><time>2026-03-29T11:18:28.308Z</time></trkpt><trkpt lat="44.0632633" lon="10.969195"><ele>667.0</ele><time>2026-03-29T11:18:30.307Z</time></trkpt><trkpt lat="44.0631917" lon="10.96907"><ele>669.0</ele><time>2026-03-29T11:18:32.31Z</time></trkpt><trkpt lat="44.0631267" lon="10.9689617"><ele>671.0</ele><time>2026-03-29T11:18:34.308Z</time></trkpt><trkpt lat="44.0630617" lon="10.9688383"><ele>673.0</ele><time>2026-03-29T11:18:36.309Z</time></trkpt><trkpt lat="44.06299" lon="10.9687267"><ele>675.0</ele><time>2026-03-29T11:18:38.308Z</time></trkpt><trkpt lat="44.0629117" lon="10.9686017"><ele>677.0</ele><time>2026-03-29T11:18:40.31Z</time></trkpt><trkpt lat="44.0628683" lon="10.9685367"><ele>676.9999999999999</ele><time>2026-03-29T11:18:41.309Z</time></trkpt><trkpt lat="44.0628233" lon="10.96846"><ele>677.0</ele><time>2026-03-29T11:18:42.31Z</time></trkpt><trkpt lat="44.062785" lon="10.96838"><ele>677.0</ele><time>2026-03-29T11:18:43.31Z</time></trkpt><trkpt lat="44.0627467" lon="10.9683033"><ele>677.0</ele><time>2026-03-29T11:18:44.31Z</time></trkpt><trkpt lat="44.0627117" lon="10.9682267"><ele>677.0</ele><time>2026-03-29T11:18:45.309Z</time></trkpt><trkpt lat="44.0626733" lon="10.9681483"><ele>676.9999999999999</ele><time>2026-03-29T11:18:46.307Z</time></trkpt><trkpt lat="44.0626317" lon="10.9680733"><ele>677.0</ele><time>2026-03-29T11:18:47.31Z</time></trkpt><trkpt lat="44.062595" lon="10.968"><ele>675.4285714285713</ele><time>2026-03-29T11:18:48.306Z</time></trkpt><trkpt lat="44.062555" lon="10.9679233"><ele>673.8571428571429</ele><time>2026-03-29T11:18:49.309Z</time></trkpt><trkpt lat="44.0625167" lon="10.9678417"><ele>672.2857142857142</ele><time>2026-03-29T11:18:50.308Z</time></trkpt><trkpt lat="44.0624733" lon="10.967755"><ele>670.7142857142857</ele><time>2026-03-29T11:18:51.308Z</time></trkpt><trkpt lat="44.0624317" lon="10.9676717"><ele>669.1428571428571</ele><time>2026-03-29T11:18:52.308Z</time></trkpt><trkpt lat="44.0623917" lon="10.9675767"><ele>667.5714285714286</ele><time>2026-03-29T11:18:53.309Z</time></trkpt><trkpt lat="44.0623517" lon="10.9674833"><ele>666.0</ele><time>2026-03-29T11:18:54.309Z</time></trkpt><trkpt lat="44.0623117" lon="10.9673867"><ele>670.3333333333334</ele><time>2026-03-29T11:18:55.309Z</time></trkpt><trkpt lat="44.06227" lon="10.9672933"><ele>674.6666666666666</ele><time>2026-03-29T11:18:56.308Z</time></trkpt><trkpt lat="44.0622283" lon="10.967205"><ele>679.0</ele><time>2026-03-29T11:18:57.309Z</time></trkpt><trkpt lat="44.0621833" lon="10.967125"><ele>683.3333333333333</ele><time>2026-03-29T11:18:58.307Z</time></trkpt><trkpt lat="44.062145" lon="10.9670333"><ele>687.6666666666666</ele><time>2026-03-29T11:18:59.308Z</time></trkpt><trkpt lat="44.0620967" lon="10.9669583"><ele>692.0</ele><time>2026-03-29T11:19:00.309Z</time></trkpt><trkpt lat="44.0620617" lon="10.9668683"><ele>692.0</ele><time>2026-03-29T11:19:01.308Z</time></trkpt><trkpt lat="44.0620233" lon="10.966775"><ele>692.0</ele><time>2026-03-29T11:19:02.31Z</time></trkpt><trkpt lat="44.0619817" lon="10.9666867"><ele>692.0</ele><time>2026-03-29T11:19:03.308Z</time></trkpt><trkpt lat="44.0619367" lon="10.9665967"><ele>692.0</ele><time>2026-03-29T11:19:04.308Z</time></trkpt><trkpt lat="44.061895" lon="10.9665067"><ele>692.0</ele><time>2026-03-29T11:19:05.307Z</time></trkpt><trkpt lat="44.0618483" lon="10.9664183"><ele>692.0</ele><time>2026-03-29T11:19:06.308Z</time></trkpt><trkpt lat="44.0617967" lon="10.966335"><ele>693.5</ele><time>2026-03-29T11:19:07.308Z</time></trkpt><trkpt lat="44.0617433" lon="10.9662433"><ele>695.0</ele><time>2026-03-29T11:19:08.309Z</time></trkpt><trkpt lat="44.0616933" lon="10.96615"><ele>696.5</ele><time>2026-03-29T11:19:09.308Z</time></trkpt><trkpt lat="44.0616433" lon="10.9660617"><ele>698.0</ele><time>2026-03-29T11:19:10.309Z</time></trkpt><trkpt lat="44.061595" lon="10.9659817"><ele>699.5</ele><time>2026-03-29T11:19:11.309Z</time></trkpt><trkpt lat="44.0615483" lon="10.9659017"><ele>701.0</ele><time>2026-03-29T11:19:12.31Z</time></trkpt><trkpt lat="44.0614983" lon="10.96583"><ele>701.0</ele><time>2026-03-29T11:19:13.312Z</time></trkpt><trkpt lat="44.06145" lon="10.96576"><ele>701.0</ele><time>2026-03-29T11:19:14.309Z</time></trkpt><trkpt lat="44.0614" lon="10.9656917"><ele>701.0</ele><time>2026-03-29T11:19:15.308Z</time></trkpt><trkpt lat="44.0613433" lon="10.9656367"><ele>701.0</ele><time>2026-03-29T11:19:16.309Z</time></trkpt><trkpt lat="44.0612883" lon="10.965575"><ele>701.0</ele><time>2026-03-29T11:19:17.309Z</time></trkpt><trkpt lat="44.0612283" lon="10.9655183"><ele>701.0</ele><time>2026-03-29T11:19:18.308Z</time></trkpt><trkpt lat="44.0611667" lon="10.9654583"><ele>701.0</ele><time>2026-03-29T11:19:19.308Z</time></trkpt><trkpt lat="44.0611083" lon="10.96539"><ele>701.0</ele><time>2026-03-29T11:19:20.309Z</time></trkpt><trkpt lat="44.0610567" lon="10.965315"><ele>701.0</ele><time>2026-03-29T11:19:21.309Z</time></trkpt><trkpt lat="44.0610117" lon="10.9652333"><ele>701.0</ele><time>2026-03-29T11:19:22.308Z</time></trkpt><trkpt lat="44.060965" lon="10.965155"><ele>701.0</ele><time>2026-03-29T11:19:23.31Z</time></trkpt><trkpt lat="44.0609233" lon="10.96508"><ele>701.0</ele><time>2026-03-29T11:19:24.309Z</time></trkpt><trkpt lat="44.060885" lon="10.965"><ele>701.0</ele><time>2026-03-29T11:19:25.309Z</time></trkpt><trkpt lat="44.060845" lon="10.9649317"><ele>701.0</ele><time>2026-03-29T11:19:26.309Z</time></trkpt><trkpt lat="44.0607733" lon="10.9648067"><ele>706.75</ele><time>2026-03-29T11:19:28.307Z</time></trkpt><trkpt lat="44.0606883" lon="10.96468"><ele>712.5</ele><time>2026-03-29T11:19:30.31Z</time></trkpt><trkpt lat="44.0606067" lon="10.9645667"><ele>718.25</ele><time>2026-03-29T11:19:32.31Z</time></trkpt><trkpt lat="44.06054" lon="10.9644367"><ele>724.0</ele><time>2026-03-29T11:19:34.31Z</time></trkpt><trkpt lat="44.0604833" lon="10.9643017"><ele>721.3333333333334</ele><time>2026-03-29T11:19:36.308Z</time></trkpt><trkpt lat="44.0604483" lon="10.96417"><ele>718.6666666666667</ele><time>2026-03-29T11:19:38.31Z</time></trkpt><trkpt lat="44.0604133" lon="10.9640367"><ele>716.0</ele><time>2026-03-29T11:19:40.309Z</time></trkpt><trkpt lat="44.060375" lon="10.9639317"><ele>713.3333333333334</ele><time>2026-03-29T11:19:42.309Z</time></trkpt><trkpt lat="44.0603317" lon="10.963855"><ele>710.6666666666666</ele><time>2026-03-29T11:19:44.308Z</time></trkpt><trkpt lat="44.0602917" lon="10.9637767"><ele>708.0</ele><time>2026-03-29T11:19:46.307Z</time></trkpt><trkpt lat="44.0602417" lon="10.9636833"><ele>708.0</ele><time>2026-03-29T11:19:49.31Z</time></trkpt><trkpt lat="44.0602283" lon="10.9635683"><ele>708.0</ele><time>2026-03-29T11:19:52.308Z</time></trkpt><trkpt lat="44.0602067" lon="10.9634783"><ele>708.0</ele><time>2026-03-29T11:19:55.307Z</time></trkpt><trkpt lat="44.06018" lon="10.9633683"><ele>708.0</ele><time>2026-03-29T11:19:58.308Z</time></trkpt><trkpt lat="44.0601633" lon="10.9632617"><ele>708.0</ele><time>2026-03-29T11:21:09.309Z</time></trkpt><trkpt lat="44.0601283" lon="10.9631783"><ele>708.0</ele><time>2026-03-29T11:21:12.311Z</time></trkpt><trkpt lat="44.060095" lon="10.9630867"><ele>709.8333333333334</ele><time>2026-03-29T11:21:14.308Z</time></trkpt><trkpt lat="44.0600567" lon="10.9629817"><ele>711.6666666666666</ele><time>2026-03-29T11:21:16.308Z</time></trkpt><trkpt lat="44.0600067" lon="10.9628933"><ele>713.5</ele><time>2026-03-29T11:21:18.307Z</time></trkpt><trkpt lat="44.0599617" lon="10.9628083"><ele>715.3333333333333</ele><time>2026-03-29T11:21:20.309Z</time></trkpt><trkpt lat="44.0599083" lon="10.962725"><ele>717.1666666666666</ele><time>2026-03-29T11:21:22.309Z</time></trkpt><trkpt lat="44.05985" lon="10.962645"><ele>719.0</ele><time>2026-03-29T11:21:24.31Z</time></trkpt><trkpt lat="44.0598167" lon="10.96256"><ele>712.6</ele><time>2026-03-29T11:21:26.311Z</time></trkpt><trkpt lat="44.05975" lon="10.9624683"><ele>706.2</ele><time>2026-03-29T11:21:28.31Z</time></trkpt><trkpt lat="44.059675" lon="10.9623717"><ele>699.8000000000001</ele><time>2026-03-29T11:21:30.31Z</time></trkpt><trkpt lat="44.0595883" lon="10.9622933"><ele>693.4000000000001</ele><time>2026-03-29T11:21:32.31Z</time></trkpt><trkpt lat="44.0594967" lon="10.962255"><ele>687.0</ele><time>2026-03-29T11:21:34.31Z</time></trkpt><trkpt lat="44.0594133" lon="10.9622583"><ele>687.0</ele><time>2026-03-29T11:21:36.309Z</time></trkpt><trkpt lat="44.0593367" lon="10.962255"><ele>687.0</ele><time>2026-03-29T11:21:38.31Z</time></trkpt><trkpt lat="44.059255" lon="10.962265"><ele>687.0</ele><time>2026-03-29T11:21:40.308Z</time></trkpt><trkpt lat="44.0591833" lon="10.9622667"><ele>687.0</ele><time>2026-03-29T11:21:42.308Z</time></trkpt><trkpt lat="44.0590967" lon="10.962255"><ele>687.0</ele><time>2026-03-29T11:21:44.309Z</time></trkpt><trkpt lat="44.0590017" lon="10.9622283"><ele>687.0</ele><time>2026-03-29T11:21:46.308Z</time></trkpt><trkpt lat="44.0589233" lon="10.9621633"><ele>688.1666666666666</ele><time>2026-03-29T11:21:48.309Z</time></trkpt><trkpt lat="44.05887" lon="10.9620883"><ele>689.3333333333334</ele><time>2026-03-29T11:21:50.308Z</time></trkpt><trkpt lat="44.0588183" lon="10.9619967"><ele>690.5</ele><time>2026-03-29T11:21:52.309Z</time></trkpt><trkpt lat="44.0587783" lon="10.9618933"><ele>691.6666666666667</ele><time>2026-03-29T11:21:54.309Z</time></trkpt><trkpt lat="44.0587317" lon="10.9618117"><ele>692.8333333333334</ele><time>2026-03-29T11:21:56.308Z</time></trkpt><trkpt lat="44.0586867" lon="10.9617333"><ele>694.0</ele><time>2026-03-29T11:21:58.31Z</time></trkpt><trkpt lat="44.0586417" lon="10.9616483"><ele>694.0</ele><time>2026-03-29T11:22:00.31Z</time></trkpt><trkpt lat="44.05859" lon="10.9615583"><ele>694.0</ele><time>2026-03-29T11:22:02.309Z</time></trkpt><trkpt lat="44.0585417" lon="10.96146"><ele>694.0</ele><time>2026-03-29T11:22:04.309Z</time></trkpt><trkpt lat="44.0585" lon="10.96134"><ele>694.0</ele><time>2026-03-29T11:22:06.309Z</time></trkpt><trkpt lat="44.0584517" lon="10.9612267"><ele>694.0</ele><time>2026-03-29T11:22:08.307Z</time></trkpt><trkpt lat="44.0583967" lon="10.9611267"><ele>694.0</ele><time>2026-03-29T11:22:10.309Z</time></trkpt><trkpt lat="44.0583367" lon="10.9610217"><ele>696.8333333333334</ele><time>2026-03-29T11:22:12.311Z</time></trkpt><trkpt lat="44.05827" lon="10.9609233"><ele>699.6666666666667</ele><time>2026-03-29T11:22:14.311Z</time></trkpt><trkpt lat="44.05821" lon="10.9608517"><ele>702.5</ele><time>2026-03-29T11:22:16.312Z</time></trkpt><trkpt lat="44.05815" lon="10.9607833"><ele>705.3333333333334</ele><time>2026-03-29T11:22:18.309Z</time></trkpt><trkpt lat="44.0580883" lon="10.9607033"><ele>708.1666666666666</ele><time>2026-03-29T11:22:20.309Z</time></trkpt><trkpt lat="44.0580233" lon="10.96064"><ele>711.0</ele><time>2026-03-29T11:22:22.309Z</time></trkpt><trkpt lat="44.0579533" lon="10.9605883"><ele>711.0</ele><time>2026-03-29T11:22:24.308Z</time></trkpt><trkpt lat="44.0578783" lon="10.960565"><ele>711.0</ele><time>2026-03-29T11:22:26.311Z</time></trkpt><trkpt lat="44.0578017" lon="10.96054"><ele>711.0</ele><time>2026-03-29T11:22:28.308Z</time></trkpt><trkpt lat="44.0577283" lon="10.9605017"><ele>711.0</ele><time>2026-03-29T11:22:30.309Z</time></trkpt><trkpt lat="44.0576533" lon="10.9604583"><ele>711.0</ele><time>2026-03-29T11:22:32.311Z</time></trkpt><trkpt lat="44.0575733" lon="10.9604083"><ele>711.0</ele><time>2026-03-29T11:22:34.309Z</time></trkpt><trkpt lat="44.0574983" lon="10.9603267"><ele>713.8</ele><time>2026-03-29T11:22:36.31Z</time></trkpt><trkpt lat="44.0574367" lon="10.96025"><ele>716.5999999999999</ele><time>2026-03-29T11:22:38.311Z</time></trkpt><trkpt lat="44.05736" lon="10.960185"><ele>719.4</ele><time>2026-03-29T11:22:40.309Z</time></trkpt><trkpt lat="44.0572783" lon="10.9601183"><ele>722.2</ele><time>2026-03-29T11:22:42.308Z</time></trkpt><trkpt lat="44.0571983" lon="10.96005"><ele>725.0</ele><time>2026-03-29T11:22:44.308Z</time></trkpt><trkpt lat="44.0571133" lon="10.959975"><ele>725.0</ele><time>2026-03-29T11:22:46.309Z</time></trkpt><trkpt lat="44.0570133" lon="10.9599017"><ele>725.0</ele><time>2026-03-29T11:22:48.31Z</time></trkpt><trkpt lat="44.056915" lon="10.959845"><ele>725.0</ele><time>2026-03-29T11:22:50.309Z</time></trkpt><trkpt lat="44.05682" lon="10.9597783"><ele>725.0</ele><time>2026-03-29T11:22:52.308Z</time></trkpt><trkpt lat="44.0567333" lon="10.9597117"><ele>725.0</ele><time>2026-03-29T11:22:54.31Z</time></trkpt><trkpt lat="44.0566617" lon="10.9596333"><ele>727.4</ele><time>2026-03-29T11:22:56.31Z</time></trkpt><trkpt lat="44.0565867" lon="10.959555"><ele>729.8</ele><time>2026-03-29T11:22:58.31Z</time></trkpt><trkpt lat="44.0565283" lon="10.9594733"><ele>732.2</ele><time>2026-03-29T11:23:00.312Z</time></trkpt><trkpt lat="44.0564633" lon="10.9593533"><ele>734.6</ele><time>2026-03-29T11:23:02.309Z</time></trkpt><trkpt lat="44.0564067" lon="10.959215"><ele>737.0</ele><time>2026-03-29T11:23:04.309Z</time></trkpt><trkpt lat="44.0563583" lon="10.959085"><ele>737.0</ele><time>2026-03-29T11:23:06.312Z</time></trkpt><trkpt lat="44.05631" lon="10.958975"><ele>737.0</ele><time>2026-03-29T11:23:08.309Z</time></trkpt><trkpt lat="44.05627" lon="10.958885"><ele>737.0</ele><time>2026-03-29T11:23:10.311Z</time></trkpt><trkpt lat="44.056265" lon="10.9587967"><ele>737.0</ele><time>2026-03-29T11:23:12.31Z</time></trkpt><trkpt lat="44.056215" lon="10.9586883"><ele>737.0</ele><time>2026-03-29T11:23:14.311Z</time></trkpt><trkpt lat="44.0561683" lon="10.9585817"><ele>737.0</ele><time>2026-03-29T11:23:16.309Z</time></trkpt><trkpt lat="44.0561267" lon="10.9584767"><ele>737.0</ele><time>2026-03-29T11:23:18.31Z</time></trkpt><trkpt lat="44.0560717" lon="10.958385"><ele>737.0</ele><time>2026-03-29T11:23:20.309Z</time></trkpt><trkpt lat="44.056025" lon="10.9582733"><ele>737.0</ele><time>2026-03-29T11:23:22.308Z</time></trkpt><trkpt lat="44.0559733" lon="10.95818"><ele>737.0</ele><time>2026-03-29T11:23:24.31Z</time></trkpt><trkpt lat="44.0559117" lon="10.9580917"><ele>737.0</ele><time>2026-03-29T11:23:26.309Z</time></trkpt><trkpt lat="44.0558633" lon="10.9580083"><ele>737.0</ele><time>2026-03-29T11:23:28.307Z</time></trkpt><trkpt lat="44.0558083" lon="10.95794"><ele>734.6666666666666</ele><time>2026-03-29T11:23:30.308Z</time></trkpt><trkpt lat="44.0557367" lon="10.9578933"><ele>732.3333333333333</ele><time>2026-03-29T11:23:32.31Z</time></trkpt><trkpt lat="44.05566" lon="10.9578717"><ele>730.0</ele><time>2026-03-29T11:23:34.31Z</time></trkpt><trkpt lat="44.0555783" lon="10.957865"><ele>727.6666666666666</ele><time>2026-03-29T11:23:36.309Z</time></trkpt><trkpt lat="44.0554933" lon="10.95786"><ele>725.3333333333334</ele><time>2026-03-29T11:23:38.308Z</time></trkpt><trkpt lat="44.0554133" lon="10.9579067"><ele>723.0</ele><time>2026-03-29T11:23:40.309Z</time></trkpt><trkpt lat="44.0553167" lon="10.9579167"><ele>723.0</ele><time>2026-03-29T11:23:42.31Z</time></trkpt><trkpt lat="44.0552317" lon="10.9579217"><ele>723.0</ele><time>2026-03-29T11:23:44.308Z</time></trkpt><trkpt lat="44.0551217" lon="10.9579217"><ele>723.0</ele><time>2026-03-29T11:23:46.308Z</time></trkpt><trkpt lat="44.0550233" lon="10.9579467"><ele>723.0</ele><time>2026-03-29T11:23:48.308Z</time></trkpt><trkpt lat="44.0549383" lon="10.957995"><ele>723.0</ele><time>2026-03-29T11:23:50.309Z</time></trkpt><trkpt lat="44.05487" lon="10.9580783"><ele>723.0</ele><time>2026-03-29T11:23:52.308Z</time></trkpt><trkpt lat="44.05481" lon="10.95818"><ele>723.0</ele><time>2026-03-29T11:23:54.308Z</time></trkpt><trkpt lat="44.0547617" lon="10.9582883"><ele>723.0</ele><time>2026-03-29T11:23:56.311Z</time></trkpt><trkpt lat="44.0547117" lon="10.9584"><ele>723.0</ele><time>2026-03-29T11:23:58.31Z</time></trkpt><trkpt lat="44.0546567" lon="10.9585083"><ele>723.0</ele><time>2026-03-29T11:24:00.309Z</time></trkpt><trkpt lat="44.0545833" lon="10.958605"><ele>723.0</ele><time>2026-03-29T11:24:02.31Z</time></trkpt><trkpt lat="44.054515" lon="10.9586817"><ele>723.0</ele><time>2026-03-29T11:24:04.308Z</time></trkpt><trkpt lat="44.0544467" lon="10.9587483"><ele>723.0</ele><time>2026-03-29T11:24:06.307Z</time></trkpt><trkpt lat="44.0543717" lon="10.958805"><ele>723.0</ele><time>2026-03-29T11:24:08.31Z</time></trkpt><trkpt lat="44.0542883" lon="10.9588417"><ele>723.0</ele><time>2026-03-29T11:24:10.307Z</time></trkpt><trkpt lat="44.0542" lon="10.9588717"><ele>723.0</ele><time>2026-03-29T11:24:12.31Z</time></trkpt><trkpt lat="44.0541233" lon="10.9588883"><ele>724.5999999999999</ele><time>2026-03-29T11:24:14.31Z</time></trkpt><trkpt lat="44.0540367" lon="10.9589"><ele>726.1999999999999</ele><time>2026-03-29T11:24:16.308Z</time></trkpt><trkpt lat="44.0539467" lon="10.9589167"><ele>727.8</ele><time>2026-03-29T11:24:18.309Z</time></trkpt><trkpt lat="44.0538517" lon="10.9589233"><ele>729.4</ele><time>2026-03-29T11:24:20.312Z</time></trkpt><trkpt lat="44.0537633" lon="10.958905"><ele>731.0</ele><time>2026-03-29T11:24:22.308Z</time></trkpt><trkpt lat="44.0536683" lon="10.9588767"><ele>731.0</ele><time>2026-03-29T11:24:24.308Z</time></trkpt><trkpt lat="44.0535933" lon="10.958825"><ele>731.0</ele><time>2026-03-29T11:24:26.308Z</time></trkpt><trkpt lat="44.0535067" lon="10.95878"><ele>731.0</ele><time>2026-03-29T11:24:28.307Z</time></trkpt><trkpt lat="44.053425" lon="10.9587233"><ele>731.0</ele><time>2026-03-29T11:24:30.308Z</time></trkpt><trkpt lat="44.053345" lon="10.9586617"><ele>731.0</ele><time>2026-03-29T11:24:32.309Z</time></trkpt><trkpt lat="44.0532717" lon="10.9586"><ele>731.0</ele><time>2026-03-29T11:24:34.309Z</time></trkpt><trkpt lat="44.0531917" lon="10.9585383"><ele>731.1999999999999</ele><time>2026-03-29T11:24:36.31Z</time></trkpt><trkpt lat="44.05311" lon="10.95847"><ele>731.4</ele><time>2026-03-29T11:24:38.307Z</time></trkpt><trkpt lat="44.05303" lon="10.958405"><ele>731.6</ele><time>2026-03-29T11:24:40.308Z</time></trkpt><trkpt lat="44.05295" lon="10.9583483"><ele>731.8</ele><time>2026-03-29T11:24:42.309Z</time></trkpt><trkpt lat="44.0528717" lon="10.958285"><ele>732.0</ele><time>2026-03-29T11:24:44.309Z</time></trkpt><trkpt lat="44.0528" lon="10.95822"><ele>732.0</ele><time>2026-03-29T11:24:46.308Z</time></trkpt><trkpt lat="44.0527283" lon="10.958165"><ele>732.0</ele><time>2026-03-29T11:24:48.307Z</time></trkpt><trkpt lat="44.0526533" lon="10.9581033"><ele>732.0</ele><time>2026-03-29T11:24:50.31Z</time></trkpt><trkpt lat="44.052565" lon="10.9580383"><ele>732.0</ele><time>2026-03-29T11:24:52.308Z</time></trkpt><trkpt lat="44.0524833" lon="10.9579783"><ele>732.0</ele><time>2026-03-29T11:24:54.307Z</time></trkpt><trkpt lat="44.0524067" lon="10.9579233"><ele>732.0</ele><time>2026-03-29T11:24:56.311Z</time></trkpt><trkpt lat="44.05233" lon="10.95787"><ele>732.8333333333334</ele><time>2026-03-29T11:24:58.307Z</time></trkpt><trkpt lat="44.0522617" lon="10.9578033"><ele>733.6666666666666</ele><time>2026-03-29T11:25:00.309Z</time></trkpt><trkpt lat="44.0522" lon="10.95772"><ele>734.5</ele><time>2026-03-29T11:25:02.31Z</time></trkpt><trkpt lat="44.052145" lon="10.95765"><ele>735.3333333333333</ele><time>2026-03-29T11:25:04.31Z</time></trkpt><trkpt lat="44.052075" lon="10.9575617"><ele>736.1666666666666</ele><time>2026-03-29T11:25:06.31Z</time></trkpt><trkpt lat="44.052025" lon="10.9574767"><ele>737.0</ele><time>2026-03-29T11:25:08.31Z</time></trkpt><trkpt lat="44.0519817" lon="10.9573717"><ele>737.0</ele><time>2026-03-29T11:25:10.308Z</time></trkpt><trkpt lat="44.0519433" lon="10.9572667"><ele>737.0</ele><time>2026-03-29T11:25:12.31Z</time></trkpt><trkpt lat="44.0518933" lon="10.9571567"><ele>737.0</ele><time>2026-03-29T11:25:14.309Z</time></trkpt><trkpt lat="44.0518483" lon="10.9570567"><ele>737.0</ele><time>2026-03-29T11:25:16.309Z</time></trkpt><trkpt lat="44.051815" lon="10.9569567"><ele>737.0</ele><time>2026-03-29T11:25:18.307Z</time></trkpt><trkpt lat="44.0517683" lon="10.95689"><ele>737.0</ele><time>2026-03-29T11:25:20.309Z</time></trkpt><trkpt lat="44.05169" lon="10.956855"><ele>742.0</ele><time>2026-03-29T11:25:22.309Z</time></trkpt><trkpt lat="44.051605" lon="10.9568283"><ele>747.0</ele><time>2026-03-29T11:25:24.309Z</time></trkpt><trkpt lat="44.0515233" lon="10.956865"><ele>752.0</ele><time>2026-03-29T11:25:26.31Z</time></trkpt><trkpt lat="44.05144" lon="10.95689"><ele>757.0</ele><time>2026-03-29T11:25:28.309Z</time></trkpt><trkpt lat="44.0513617" lon="10.95685"><ele>762.0</ele><time>2026-03-29T11:25:30.309Z</time></trkpt><trkpt lat="44.0512767" lon="10.956795"><ele>767.0</ele><time>2026-03-29T11:25:32.312Z</time></trkpt><trkpt lat="44.0511967" lon="10.956745"><ele>763.1666666666666</ele><time>2026-03-29T11:25:34.309Z</time></trkpt><trkpt lat="44.051125" lon="10.9566917"><ele>759.3333333333333</ele><time>2026-03-29T11:25:36.31Z</time></trkpt><trkpt lat="44.0510517" lon="10.9566417"><ele>755.5</ele><time>2026-03-29T11:25:38.31Z</time></trkpt><trkpt lat="44.0509817" lon="10.9566017"><ele>751.6666666666666</ele><time>2026-03-29T11:25:40.308Z</time></trkpt><trkpt lat="44.0509067" lon="10.95656"><ele>747.8333333333334</ele><time>2026-03-29T11:25:42.311Z</time></trkpt><trkpt lat="44.0508383" lon="10.956515"><ele>744.0</ele><time>2026-03-29T11:25:44.309Z</time></trkpt><trkpt lat="44.050765" lon="10.9564883"><ele>744.0000000000001</ele><time>2026-03-29T11:25:46.31Z</time></trkpt><trkpt lat="44.0506767" lon="10.9564667"><ele>744.0</ele><time>2026-03-29T11:25:48.31Z</time></trkpt><trkpt lat="44.0505867" lon="10.9564517"><ele>744.0</ele><time>2026-03-29T11:25:50.31Z</time></trkpt><trkpt lat="44.0505117" lon="10.9564417"><ele>744.0</ele><time>2026-03-29T11:25:52.31Z</time></trkpt><trkpt lat="44.0504467" lon="10.956445"><ele>744.0</ele><time>2026-03-29T11:25:54.308Z</time></trkpt><trkpt lat="44.0503833" lon="10.9564417"><ele>744.0000000000001</ele><time>2026-03-29T11:25:56.309Z</time></trkpt><trkpt lat="44.05032" lon="10.9564333"><ele>744.0</ele><time>2026-03-29T11:25:58.309Z</time></trkpt><trkpt lat="44.05024" lon="10.9564383"><ele>744.0</ele><time>2026-03-29T11:26:00.308Z</time></trkpt><trkpt lat="44.0501683" lon="10.95645"><ele>744.0</ele><time>2026-03-29T11:26:02.308Z</time></trkpt><trkpt lat="44.0500717" lon="10.9564683"><ele>744.0</ele><time>2026-03-29T11:26:05.309Z</time></trkpt><trkpt lat="44.0500033" lon="10.9564767"><ele>744.0</ele><time>2026-03-29T11:26:07.308Z</time></trkpt><trkpt lat="44.0499183" lon="10.9564883"><ele>744.0</ele><time>2026-03-29T11:26:09.308Z</time></trkpt><trkpt lat="44.0498233" lon="10.9564883"><ele>744.0</ele><time>2026-03-29T11:26:11.307Z</time></trkpt><trkpt lat="44.04974" lon="10.9564767"><ele>744.3333333333334</ele><time>2026-03-29T11:26:13.308Z</time></trkpt><trkpt lat="44.04966" lon="10.9564517"><ele>744.6666666666666</ele><time>2026-03-29T11:26:15.311Z</time></trkpt><trkpt lat="44.0495867" lon="10.95645"><ele>745.0</ele><time>2026-03-29T11:26:16.309Z</time></trkpt><trkpt lat="44.0494917" lon="10.95643"><ele>745.3333333333333</ele><time>2026-03-29T11:26:18.31Z</time></trkpt><trkpt lat="44.0494" lon="10.9563967"><ele>745.6666666666666</ele><time>2026-03-29T11:26:20.31Z</time></trkpt><trkpt lat="44.04932" lon="10.95636"><ele>746.0</ele><time>2026-03-29T11:26:22.308Z</time></trkpt><trkpt lat="44.04923" lon="10.9563233"><ele>746.0</ele><time>2026-03-29T11:26:24.307Z</time></trkpt><trkpt lat="44.04915" lon="10.9563033"><ele>746.0</ele><time>2026-03-29T11:26:26.308Z</time></trkpt><trkpt lat="44.04907" lon="10.9562783"><ele>746.0</ele><time>2026-03-29T11:26:28.308Z</time></trkpt><trkpt lat="44.048995" lon="10.9562317"><ele>746.0</ele><time>2026-03-29T11:26:30.31Z</time></trkpt><trkpt lat="44.0489233" lon="10.956185"><ele>746.0</ele><time>2026-03-29T11:26:32.31Z</time></trkpt><trkpt lat="44.0488483" lon="10.9561433"><ele>746.0</ele><time>2026-03-29T11:26:34.31Z</time></trkpt><trkpt lat="44.0487767" lon="10.9561217"><ele>746.1666666666666</ele><time>2026-03-29T11:26:36.31Z</time></trkpt><trkpt lat="44.0487117" lon="10.9560833"><ele>746.3333333333333</ele><time>2026-03-29T11:26:38.308Z</time></trkpt><trkpt lat="44.0486283" lon="10.9560217"><ele>746.5</ele><time>2026-03-29T11:26:41.308Z</time></trkpt><trkpt lat="44.0485583" lon="10.9559717"><ele>746.6666666666666</ele><time>2026-03-29T11:26:43.309Z</time></trkpt><trkpt lat="44.048465" lon="10.9559167"><ele>746.8333333333334</ele><time>2026-03-29T11:26:46.31Z</time></trkpt><trkpt lat="44.0484017" lon="10.9558717"><ele>747.0</ele><time>2026-03-29T11:26:48.308Z</time></trkpt><trkpt lat="44.0483233" lon="10.9558033"><ele>750.6</ele><time>2026-03-29T11:26:50.309Z</time></trkpt><trkpt lat="44.0482433" lon="10.9557333"><ele>754.2</ele><time>2026-03-29T11:26:52.309Z</time></trkpt><trkpt lat="44.0481683" lon="10.9556617"><ele>757.8</ele><time>2026-03-29T11:26:54.31Z</time></trkpt><trkpt lat="44.04808" lon="10.9556033"><ele>761.4</ele><time>2026-03-29T11:26:56.31Z</time></trkpt><trkpt lat="44.048" lon="10.9555883"><ele>765.0</ele><time>2026-03-29T11:26:58.308Z</time></trkpt><trkpt lat="44.0479117" lon="10.9555817"><ele>765.0</ele><time>2026-03-29T11:27:00.31Z</time></trkpt><trkpt lat="44.0478117" lon="10.95557"><ele>765.0</ele><time>2026-03-29T11:27:02.308Z</time></trkpt><trkpt lat="44.0477283" lon="10.9555533"><ele>765.0</ele><time>2026-03-29T11:27:04.308Z</time></trkpt><trkpt lat="44.0476317" lon="10.9555433"><ele>765.0</ele><time>2026-03-29T11:27:06.31Z</time></trkpt><trkpt lat="44.0475517" lon="10.9555333"><ele>765.0</ele><time>2026-03-29T11:27:08.311Z</time></trkpt><trkpt lat="44.0474617" lon="10.955535"><ele>767.8333333333334</ele><time>2026-03-29T11:27:10.312Z</time></trkpt><trkpt lat="44.04739" lon="10.9555233"><ele>770.6666666666667</ele><time>2026-03-29T11:27:12.312Z</time></trkpt><trkpt lat="44.047315" lon="10.9555017"><ele>773.5</ele><time>2026-03-29T11:27:15.308Z</time></trkpt><trkpt lat="44.047265" lon="10.955425"><ele>776.3333333333334</ele><time>2026-03-29T11:27:19.309Z</time></trkpt><trkpt lat="44.0471917" lon="10.9554133"><ele>779.1666666666667</ele><time>2026-03-29T11:27:20.309Z</time></trkpt><trkpt lat="44.0471367" lon="10.9553383"><ele>782.0</ele><time>2026-03-29T11:27:23.31Z</time></trkpt><trkpt lat="44.0470733" lon="10.9552783"><ele>782.0</ele><time>2026-03-29T11:27:25.31Z</time></trkpt><trkpt lat="44.0469633" lon="10.9552217"><ele>782.0</ele><time>2026-03-29T11:27:27.309Z</time></trkpt><trkpt lat="44.046895" lon="10.95519"><ele>782.0</ele><time>2026-03-29T11:27:28.31Z</time></trkpt><trkpt lat="44.0468267" lon="10.9551367"><ele>782.0</ele><time>2026-03-29T11:27:29.309Z</time></trkpt><trkpt lat="44.0466633" lon="10.955075"><ele>782.0</ele><time>2026-03-29T11:27:30.31Z</time></trkpt><trkpt lat="44.046555" lon="10.9550317"><ele>779.5000000000001</ele><time>2026-03-29T11:27:31.312Z</time></trkpt><trkpt lat="44.0464717" lon="10.9549867"><ele>777.0</ele><time>2026-03-29T11:27:32.309Z</time></trkpt><trkpt lat="44.046395" lon="10.9549517"><ele>774.5</ele><time>2026-03-29T11:27:33.31Z</time></trkpt><trkpt lat="44.0463317" lon="10.9549033"><ele>772.0</ele><time>2026-03-29T11:27:34.31Z</time></trkpt><trkpt lat="44.0462483" lon="10.9548583"><ele>769.5</ele><time>2026-03-29T11:27:35.31Z</time></trkpt><trkpt lat="44.0461817" lon="10.954815"><ele>767.0</ele><time>2026-03-29T11:27:36.309Z</time></trkpt><trkpt lat="44.046125" lon="10.954775"><ele>767.0</ele><time>2026-03-29T11:27:37.309Z</time></trkpt><trkpt lat="44.0460283" lon="10.9546983"><ele>767.0</ele><time>2026-03-29T11:27:39.309Z</time></trkpt><trkpt lat="44.0459383" lon="10.9546117"><ele>767.0</ele><time>2026-03-29T11:27:41.313Z</time></trkpt><trkpt lat="44.045845" lon="10.9545183"><ele>767.0</ele><time>2026-03-29T11:27:43.311Z</time></trkpt><trkpt lat="44.0457583" lon="10.9544283"><ele>767.0</ele><time>2026-03-29T11:27:45.309Z</time></trkpt><trkpt lat="44.0456633" lon="10.954345"><ele>767.4000000000001</ele><time>2026-03-29T11:27:47.308Z</time></trkpt><trkpt lat="44.0455833" lon="10.9542617"><ele>767.8000000000001</ele><time>2026-03-29T11:27:49.31Z</time></trkpt><trkpt lat="44.0455067" lon="10.9541783"><ele>768.2</ele><time>2026-03-29T11:27:51.31Z</time></trkpt><trkpt lat="44.045425" lon="10.9541083"><ele>768.6</ele><time>2026-03-29T11:27:53.31Z</time></trkpt><trkpt lat="44.0453517" lon="10.9540367"><ele>769.0</ele><time>2026-03-29T11:27:55.309Z</time></trkpt><trkpt lat="44.045265" lon="10.9539467"><ele>769.0</ele><time>2026-03-29T11:27:57.311Z</time></trkpt><trkpt lat="44.0451817" lon="10.953855"><ele>769.0</ele><time>2026-03-29T11:27:59.312Z</time></trkpt><trkpt lat="44.0450917" lon="10.9537883"><ele>769.0</ele><time>2026-03-29T11:28:01.311Z</time></trkpt><trkpt lat="44.0449983" lon="10.95372"><ele>769.0</ele><time>2026-03-29T11:28:03.311Z</time></trkpt><trkpt lat="44.04492" lon="10.9536333"><ele>769.0</ele><time>2026-03-29T11:28:05.311Z</time></trkpt><trkpt lat="44.0448217" lon="10.9535733"><ele>767.2</ele><time>2026-03-29T11:28:07.311Z</time></trkpt><trkpt lat="44.0447167" lon="10.95352"><ele>765.4000000000001</ele><time>2026-03-29T11:28:09.311Z</time></trkpt><trkpt lat="44.0446317" lon="10.9534817"><ele>763.6</ele><time>2026-03-29T11:28:11.31Z</time></trkpt><trkpt lat="44.0445433" lon="10.95343"><ele>761.8</ele><time>2026-03-29T11:28:13.31Z</time></trkpt><trkpt lat="44.0444533" lon="10.9533683"><ele>760.0</ele><time>2026-03-29T11:28:15.311Z</time></trkpt><trkpt lat="44.044355" lon="10.95331"><ele>760.0</ele><time>2026-03-29T11:28:17.311Z</time></trkpt><trkpt lat="44.04426" lon="10.9532467"><ele>760.0</ele><time>2026-03-29T11:28:19.31Z</time></trkpt><trkpt lat="44.0441683" lon="10.9531567"><ele>760.0</ele><time>2026-03-29T11:28:21.311Z</time></trkpt><trkpt lat="44.044075" lon="10.953065"><ele>760.0</ele><time>2026-03-29T11:28:23.31Z</time></trkpt><trkpt lat="44.0440183" lon="10.95302"><ele>760.0</ele><time>2026-03-29T11:28:24.311Z</time></trkpt><trkpt lat="44.0439583" lon="10.952985"><ele>760.6</ele><time>2026-03-29T11:28:25.312Z</time></trkpt><trkpt lat="44.0438517" lon="10.95291"><ele>761.2</ele><time>2026-03-29T11:28:27.309Z</time></trkpt><trkpt lat="44.0437517" lon="10.9528217"><ele>761.8</ele><time>2026-03-29T11:28:29.312Z</time></trkpt><trkpt lat="44.0436517" lon="10.952775"><ele>762.4</ele><time>2026-03-29T11:28:31.309Z</time></trkpt><trkpt lat="44.043555" lon="10.9527317"><ele>763.0</ele><time>2026-03-29T11:28:33.309Z</time></trkpt><trkpt lat="44.043465" lon="10.9527"><ele>763.0</ele><time>2026-03-29T11:28:35.308Z</time></trkpt><trkpt lat="44.04338" lon="10.952675"><ele>763.0</ele><time>2026-03-29T11:28:37.308Z</time></trkpt><trkpt lat="44.0432917" lon="10.9526467"><ele>763.0</ele><time>2026-03-29T11:28:39.31Z</time></trkpt><trkpt lat="44.043205" lon="10.9526117"><ele>763.0</ele><time>2026-03-29T11:28:41.308Z</time></trkpt><trkpt lat="44.0431233" lon="10.9525683"><ele>763.0</ele><time>2026-03-29T11:28:43.308Z</time></trkpt><trkpt lat="44.0430433" lon="10.952505"><ele>763.0</ele><time>2026-03-29T11:28:45.308Z</time></trkpt><trkpt lat="44.0429667" lon="10.952455"><ele>762.8333333333334</ele><time>2026-03-29T11:28:47.311Z</time></trkpt><trkpt lat="44.0428883" lon="10.952415"><ele>762.6666666666667</ele><time>2026-03-29T11:28:49.309Z</time></trkpt><trkpt lat="44.0428183" lon="10.95238"><ele>762.5</ele><time>2026-03-29T11:28:51.307Z</time></trkpt><trkpt lat="44.04275" lon="10.9523667"><ele>762.3333333333334</ele><time>2026-03-29T11:28:53.309Z</time></trkpt><trkpt lat="44.042675" lon="10.9523467"><ele>762.1666666666666</ele><time>2026-03-29T11:28:55.308Z</time></trkpt><trkpt lat="44.0425917" lon="10.95232"><ele>762.0</ele><time>2026-03-29T11:28:57.308Z</time></trkpt><trkpt lat="44.0425067" lon="10.9522633"><ele>762.5</ele><time>2026-03-29T11:28:59.31Z</time></trkpt><trkpt lat="44.0424283" lon="10.9522217"><ele>763.0</ele><time>2026-03-29T11:29:01.309Z</time></trkpt><trkpt lat="44.0423567" lon="10.952185"><ele>763.5</ele><time>2026-03-29T11:29:03.309Z</time></trkpt><trkpt lat="44.0422733" lon="10.95215"><ele>764.0</ele><time>2026-03-29T11:29:05.309Z</time></trkpt><trkpt lat="44.04219" lon="10.952115"><ele>764.5</ele><time>2026-03-29T11:29:07.31Z</time></trkpt><trkpt lat="44.0421017" lon="10.9520633"><ele>765.0</ele><time>2026-03-29T11:29:09.308Z</time></trkpt><trkpt lat="44.0420183" lon="10.9520133"><ele>765.0</ele><time>2026-03-29T11:29:11.309Z</time></trkpt><trkpt lat="44.04194" lon="10.9519567"><ele>765.0</ele><time>2026-03-29T11:29:13.309Z</time></trkpt><trkpt lat="44.0418717" lon="10.9518933"><ele>765.0</ele><time>2026-03-29T11:29:15.307Z</time></trkpt><trkpt lat="44.0418067" lon="10.951825"><ele>765.0</ele><time>2026-03-29T11:29:17.31Z</time></trkpt><trkpt lat="44.04174" lon="10.9517533"><ele>765.0</ele><time>2026-03-29T11:29:19.309Z</time></trkpt><trkpt lat="44.0416733" lon="10.9516933"><ele>765.0</ele><time>2026-03-29T11:29:21.31Z</time></trkpt><trkpt lat="44.04161" lon="10.9516217"><ele>766.0000000000001</ele><time>2026-03-29T11:29:23.309Z</time></trkpt><trkpt lat="44.041545" lon="10.9515583"><ele>767.0</ele><time>2026-03-29T11:29:25.309Z</time></trkpt><trkpt lat="44.04149" lon="10.9515033"><ele>768.0</ele><time>2026-03-29T11:29:27.309Z</time></trkpt><trkpt lat="44.041435" lon="10.95146"><ele>769.0</ele><time>2026-03-29T11:29:29.308Z</time></trkpt><trkpt lat="44.04138" lon="10.9513933"><ele>770.0</ele><time>2026-03-29T11:29:31.307Z</time></trkpt><trkpt lat="44.04133" lon="10.951325"><ele>771.0000000000001</ele><time>2026-03-29T11:29:33.309Z</time></trkpt><trkpt lat="44.0412817" lon="10.951255"><ele>772.0</ele><time>2026-03-29T11:29:35.31Z</time></trkpt><trkpt lat="44.0412317" lon="10.9511817"><ele>771.9999999999999</ele><time>2026-03-29T11:29:37.31Z</time></trkpt><trkpt lat="44.04118" lon="10.9511117"><ele>772.0</ele><time>2026-03-29T11:29:39.309Z</time></trkpt><trkpt lat="44.041135" lon="10.9510417"><ele>772.0</ele><time>2026-03-29T11:29:41.309Z</time></trkpt><trkpt lat="44.0410683" lon="10.9509517"><ele>772.0</ele><time>2026-03-29T11:29:44.309Z</time></trkpt><trkpt lat="44.041" lon="10.95086"><ele>771.9999999999999</ele><time>2026-03-29T11:29:47.308Z</time></trkpt><trkpt lat="44.0409583" lon="10.9507917"><ele>772.0</ele><time>2026-03-29T11:29:49.31Z</time></trkpt><trkpt lat="44.0409133" lon="10.950715"><ele>771.1666666666666</ele><time>2026-03-29T11:29:51.309Z</time></trkpt><trkpt lat="44.0408683" lon="10.9506333"><ele>770.3333333333333</ele><time>2026-03-29T11:29:53.309Z</time></trkpt><trkpt lat="44.0408217" lon="10.95055"><ele>769.5</ele><time>2026-03-29T11:29:55.309Z</time></trkpt><trkpt lat="44.0407683" lon="10.950475"><ele>768.6666666666666</ele><time>2026-03-29T11:29:57.309Z</time></trkpt><trkpt lat="44.040725" lon="10.9503767"><ele>767.8333333333333</ele><time>2026-03-29T11:29:59.31Z</time></trkpt><trkpt lat="44.0406833" lon="10.95028"><ele>767.0</ele><time>2026-03-29T11:30:01.309Z</time></trkpt><trkpt lat="44.0406367" lon="10.95019"><ele>767.0</ele><time>2026-03-29T11:30:03.309Z</time></trkpt><trkpt lat="44.0405933" lon="10.9501"><ele>767.0</ele><time>2026-03-29T11:30:05.31Z</time></trkpt><trkpt lat="44.0405517" lon="10.9500217"><ele>767.0</ele><time>2026-03-29T11:30:07.311Z</time></trkpt><trkpt lat="44.04051" lon="10.9499483"><ele>767.0</ele><time>2026-03-29T11:30:09.308Z</time></trkpt><trkpt lat="44.0404683" lon="10.9498733"><ele>767.0</ele><time>2026-03-29T11:30:11.31Z</time></trkpt><trkpt lat="44.0404167" lon="10.949765"><ele>767.0</ele><time>2026-03-29T11:30:14.308Z</time></trkpt><trkpt lat="44.0403683" lon="10.9497083"><ele>767.0</ele><time>2026-03-29T11:30:16.309Z</time></trkpt><trkpt lat="44.040315" lon="10.9496433"><ele>766.5714285714286</ele><time>2026-03-29T11:30:18.309Z</time></trkpt><trkpt lat="44.0402733" lon="10.9495667"><ele>766.1428571428571</ele><time>2026-03-29T11:30:20.309Z</time></trkpt><trkpt lat="44.04023" lon="10.949475"><ele>765.7142857142858</ele><time>2026-03-29T11:30:22.307Z</time></trkpt><trkpt lat="44.0401917" lon="10.9493933"><ele>765.2857142857142</ele><time>2026-03-29T11:30:24.31Z</time></trkpt><trkpt lat="44.0401567" lon="10.949315"><ele>764.8571428571428</ele><time>2026-03-29T11:30:26.309Z</time></trkpt><trkpt lat="44.0401167" lon="10.94924"><ele>764.4285714285714</ele><time>2026-03-29T11:30:28.309Z</time></trkpt><trkpt lat="44.040075" lon="10.9491683"><ele>764.0</ele><time>2026-03-29T11:30:30.308Z</time></trkpt><trkpt lat="44.04004" lon="10.9490817"><ele>763.3333333333333</ele><time>2026-03-29T11:30:32.31Z</time></trkpt><trkpt lat="44.03999" lon="10.9489617"><ele>762.6666666666666</ele><time>2026-03-29T11:30:35.31Z</time></trkpt><trkpt lat="44.039955" lon="10.9488817"><ele>762.0</ele><time>2026-03-29T11:30:37.31Z</time></trkpt><trkpt lat="44.039925" lon="10.9487967"><ele>761.3333333333334</ele><time>2026-03-29T11:30:39.31Z</time></trkpt><trkpt lat="44.0399" lon="10.9486983"><ele>760.6666666666667</ele><time>2026-03-29T11:30:41.308Z</time></trkpt><trkpt lat="44.039875" lon="10.9486017"><ele>760.0</ele><time>2026-03-29T11:30:43.312Z</time></trkpt><trkpt lat="44.0398417" lon="10.9485183"><ele>760.0</ele><time>2026-03-29T11:30:45.311Z</time></trkpt><trkpt lat="44.03982" lon="10.9484317"><ele>760.0</ele><time>2026-03-29T11:30:47.309Z</time></trkpt><trkpt lat="44.0397783" lon="10.9483433"><ele>760.0</ele><time>2026-03-29T11:30:50.31Z</time></trkpt><trkpt lat="44.0397383" lon="10.9482433"><ele>760.0</ele><time>2026-03-29T11:30:53.31Z</time></trkpt><trkpt lat="44.0397017" lon="10.9481267"><ele>760.0</ele><time>2026-03-29T11:30:56.31Z</time></trkpt><trkpt lat="44.0396633" lon="10.948055"><ele>760.0</ele><time>2026-03-29T11:30:58.31Z</time></trkpt><trkpt lat="44.0395967" lon="10.9479633"><ele>760.3333333333334</ele><time>2026-03-29T11:31:01.31Z</time></trkpt><trkpt lat="44.0395667" lon="10.94786"><ele>760.6666666666667</ele><time>2026-03-29T11:31:03.307Z</time></trkpt><trkpt lat="44.039495" lon="10.9477733"><ele>761.0</ele><time>2026-03-29T11:31:06.309Z</time></trkpt><trkpt lat="44.0394417" lon="10.947705"><ele>761.3333333333334</ele><time>2026-03-29T11:31:09.309Z</time></trkpt><trkpt lat="44.0393833" lon="10.9476483"><ele>761.6666666666666</ele><time>2026-03-29T11:31:12.307Z</time></trkpt><trkpt lat="44.03932" lon="10.9475917"><ele>762.0</ele><time>2026-03-29T11:31:15.309Z</time></trkpt><trkpt lat="44.03927" lon="10.9475183"><ele>762.6666666666666</ele><time>2026-03-29T11:31:18.309Z</time></trkpt><trkpt lat="44.0392183" lon="10.9474417"><ele>763.3333333333334</ele><time>2026-03-29T11:31:21.31Z</time></trkpt><trkpt lat="44.03916" lon="10.9473683"><ele>764.0</ele><time>2026-03-29T11:31:24.307Z</time></trkpt><trkpt lat="44.0391067" lon="10.9472717"><ele>764.6666666666667</ele><time>2026-03-29T11:31:27.307Z</time></trkpt><trkpt lat="44.0390517" lon="10.9471917"><ele>765.3333333333334</ele><time>2026-03-29T11:31:30.307Z</time></trkpt><trkpt lat="44.03898" lon="10.9471333"><ele>766.0</ele><time>2026-03-29T11:31:32.31Z</time></trkpt><trkpt lat="44.0389267" lon="10.9470633"><ele>766.0</ele><time>2026-03-29T11:31:34.307Z</time></trkpt><trkpt lat="44.0388817" lon="10.947"><ele>766.0</ele><time>2026-03-29T11:31:36.31Z</time></trkpt><trkpt lat="44.0388217" lon="10.9468967"><ele>766.0</ele><time>2026-03-29T11:31:39.308Z</time></trkpt><trkpt lat="44.0387583" lon="10.9468167"><ele>766.0</ele><time>2026-03-29T11:31:42.309Z</time></trkpt><trkpt lat="44.0387067" lon="10.9467533"><ele>766.0</ele><time>2026-03-29T11:31:45.308Z</time></trkpt><trkpt lat="44.0386417" lon="10.946695"><ele>766.0</ele><time>2026-03-29T11:31:48.308Z</time></trkpt><trkpt lat="44.0385833" lon="10.9466317"><ele>766.0</ele><time>2026-03-29T11:31:51.309Z</time></trkpt><trkpt lat="44.03851" lon="10.9466033"><ele>766.0</ele><time>2026-03-29T11:31:54.308Z</time></trkpt><trkpt lat="44.0384233" lon="10.9465983"><ele>766.0</ele><time>2026-03-29T11:31:57.31Z</time></trkpt><trkpt lat="44.038355" lon="10.9465683"><ele>766.0</ele><time>2026-03-29T11:31:59.31Z</time></trkpt><trkpt lat="44.0382967" lon="10.9465283"><ele>766.0</ele><time>2026-03-29T11:32:01.31Z</time></trkpt><trkpt lat="44.0382417" lon="10.9464633"><ele>766.0</ele><time>2026-03-29T11:32:03.309Z</time></trkpt><trkpt lat="44.0381933" lon="10.9463733"><ele>766.0</ele><time>2026-03-29T11:32:05.309Z</time></trkpt><trkpt lat="44.03812" lon="10.9462883"><ele>766.0</ele><time>2026-03-29T11:32:08.31Z</time></trkpt><trkpt lat="44.0380717" lon="10.9462183"><ele>766.0</ele><time>2026-03-29T11:32:10.308Z</time></trkpt><trkpt lat="44.0380267" lon="10.9461317"><ele>766.0</ele><time>2026-03-29T11:32:12.311Z</time></trkpt><trkpt lat="44.0379667" lon="10.946035"><ele>766.0</ele><time>2026-03-29T11:32:15.31Z</time></trkpt><trkpt lat="44.037935" lon="10.9459567"><ele>766.0</ele><time>2026-03-29T11:32:17.31Z</time></trkpt><trkpt lat="44.03791" lon="10.9458683"><ele>767.2857142857142</ele><time>2026-03-29T11:32:19.308Z</time></trkpt><trkpt lat="44.0378917" lon="10.9457617"><ele>768.5714285714286</ele><time>2026-03-29T11:32:21.311Z</time></trkpt><trkpt lat="44.0378833" lon="10.945665"><ele>769.8571428571429</ele><time>2026-03-29T11:32:23.311Z</time></trkpt><trkpt lat="44.0378783" lon="10.9455717"><ele>771.1428571428571</ele><time>2026-03-29T11:32:25.31Z</time></trkpt><trkpt lat="44.0378717" lon="10.9454433"><ele>772.4285714285714</ele><time>2026-03-29T11:32:28.31Z</time></trkpt><trkpt lat="44.03787" lon="10.9453533"><ele>773.7142857142857</ele><time>2026-03-29T11:32:30.309Z</time></trkpt><trkpt lat="44.0378567" lon="10.9452617"><ele>775.0</ele><time>2026-03-29T11:32:32.31Z</time></trkpt><trkpt lat="44.0378617" lon="10.9451533"><ele>776.3333333333333</ele><time>2026-03-29T11:32:35.403Z</time></trkpt><trkpt lat="44.03787" lon="10.945045"><ele>777.6666666666666</ele><time>2026-03-29T11:32:38.313Z</time></trkpt><trkpt lat="44.0378683" lon="10.9449383"><ele>779.0</ele><time>2026-03-29T11:32:41.31Z</time></trkpt><trkpt lat="44.03786" lon="10.944815"><ele>780.3333333333333</ele><time>2026-03-29T11:32:44.309Z</time></trkpt><trkpt lat="44.037885" lon="10.9446983"><ele>781.6666666666666</ele><time>2026-03-29T11:32:47.31Z</time></trkpt><trkpt lat="44.037905" lon="10.9445933"><ele>783.0</ele><time>2026-03-29T11:32:50.311Z</time></trkpt><trkpt lat="44.0379517" lon="10.94448"><ele>783.0</ele><time>2026-03-29T11:32:53.312Z</time></trkpt><trkpt lat="44.0379933" lon="10.9444033"><ele>783.0</ele><time>2026-03-29T11:32:55.308Z</time></trkpt><trkpt lat="44.03804" lon="10.9443283"><ele>783.0</ele><time>2026-03-29T11:32:57.309Z</time></trkpt><trkpt lat="44.0380933" lon="10.94427"><ele>783.0</ele><time>2026-03-29T11:32:59.31Z</time></trkpt><trkpt lat="44.038155" lon="10.944225"><ele>783.0</ele><time>2026-03-29T11:33:01.31Z</time></trkpt><trkpt lat="44.0382083" lon="10.94416"><ele>783.0</ele><time>2026-03-29T11:33:03.308Z</time></trkpt><trkpt lat="44.03824" lon="10.944075"><ele>783.0</ele><time>2026-03-29T11:33:05.308Z</time></trkpt><trkpt lat="44.0382717" lon="10.9439883"><ele>786.4285714285714</ele><time>2026-03-29T11:33:07.308Z</time></trkpt><trkpt lat="44.0383117" lon="10.9439117"><ele>789.8571428571429</ele><time>2026-03-29T11:33:09.309Z</time></trkpt><trkpt lat="44.0383683" lon="10.943855"><ele>793.2857142857143</ele><time>2026-03-29T11:33:11.308Z</time></trkpt><trkpt lat="44.0384217" lon="10.943795"><ele>796.7142857142858</ele><time>2026-03-29T11:33:13.308Z</time></trkpt><trkpt lat="44.038455" lon="10.9437083"><ele>800.1428571428571</ele><time>2026-03-29T11:33:15.31Z</time></trkpt><trkpt lat="44.0384867" lon="10.9436233"><ele>803.5714285714287</ele><time>2026-03-29T11:33:17.308Z</time></trkpt><trkpt lat="44.0385233" lon="10.943545"><ele>807.0</ele><time>2026-03-29T11:33:19.31Z</time></trkpt><trkpt lat="44.0385533" lon="10.94346"><ele>806.7142857142858</ele><time>2026-03-29T11:33:21.309Z</time></trkpt><trkpt lat="44.0385883" lon="10.9433767"><ele>806.4285714285714</ele><time>2026-03-29T11:33:23.309Z</time></trkpt><trkpt lat="44.0386083" lon="10.9432933"><ele>806.1428571428571</ele><time>2026-03-29T11:33:25.309Z</time></trkpt><trkpt lat="44.0386267" lon="10.9432017"><ele>805.8571428571429</ele><time>2026-03-29T11:33:27.309Z</time></trkpt><trkpt lat="44.03865" lon="10.943115"><ele>805.5714285714286</ele><time>2026-03-29T11:33:29.308Z</time></trkpt><trkpt lat="44.038675" lon="10.9429867"><ele>805.2857142857143</ele><time>2026-03-29T11:33:32.309Z</time></trkpt><trkpt lat="44.0387067" lon="10.9429017"><ele>805.0</ele><time>2026-03-29T11:33:34.308Z</time></trkpt><trkpt lat="44.0387517" lon="10.9428267"><ele>805.0</ele><time>2026-03-29T11:33:36.309Z</time></trkpt><trkpt lat="44.0388067" lon="10.9427667"><ele>805.0</ele><time>2026-03-29T11:33:38.31Z</time></trkpt><trkpt lat="44.0388767" lon="10.9427283"><ele>805.0</ele><time>2026-03-29T11:33:40.308Z</time></trkpt><trkpt lat="44.0389417" lon="10.9426817"><ele>805.0</ele><time>2026-03-29T11:33:42.309Z</time></trkpt><trkpt lat="44.039005" lon="10.942625"><ele>805.0</ele><time>2026-03-29T11:33:44.309Z</time></trkpt><trkpt lat="44.03907" lon="10.94256"><ele>805.0</ele><time>2026-03-29T11:33:46.309Z</time></trkpt><trkpt lat="44.0391283" lon="10.9424967"><ele>805.0</ele><time>2026-03-29T11:33:48.309Z</time></trkpt><trkpt lat="44.0391883" lon="10.9424183"><ele>805.7142857142857</ele><time>2026-03-29T11:33:50.309Z</time></trkpt><trkpt lat="44.0392483" lon="10.9423533"><ele>806.4285714285714</ele><time>2026-03-29T11:33:52.308Z</time></trkpt><trkpt lat="44.039325" lon="10.9423"><ele>807.1428571428571</ele><time>2026-03-29T11:33:54.308Z</time></trkpt><trkpt lat="44.0393733" lon="10.9422267"><ele>807.8571428571429</ele><time>2026-03-29T11:33:56.309Z</time></trkpt><trkpt lat="44.03941" lon="10.94215"><ele>808.5714285714286</ele><time>2026-03-29T11:33:58.308Z</time></trkpt><trkpt lat="44.039415" lon="10.9420483"><ele>809.2857142857142</ele><time>2026-03-29T11:34:00.308Z</time></trkpt><trkpt lat="44.0393883" lon="10.9419633"><ele>810.0</ele><time>2026-03-29T11:34:02.31Z</time></trkpt><trkpt lat="44.0393483" lon="10.94189"><ele>810.0</ele><time>2026-03-29T11:34:04.308Z</time></trkpt><trkpt lat="44.03926" lon="10.9418767"><ele>810.0</ele><time>2026-03-29T11:34:07.311Z</time></trkpt><trkpt lat="44.0391717" lon="10.9418633"><ele>810.0</ele><time>2026-03-29T11:34:10.308Z</time></trkpt><trkpt lat="44.039085" lon="10.9418367"><ele>810.0</ele><time>2026-03-29T11:34:13.31Z</time></trkpt><trkpt lat="44.0390233" lon="10.9417683"><ele>810.0</ele><time>2026-03-29T11:34:16.309Z</time></trkpt><trkpt lat="44.03898" lon="10.9416733"><ele>810.0</ele><time>2026-03-29T11:34:19.309Z</time></trkpt><trkpt lat="44.0389483" lon="10.9415883"><ele>814.0</ele><time>2026-03-29T11:34:21.308Z</time></trkpt><trkpt lat="44.0389067" lon="10.94147"><ele>818.0</ele><time>2026-03-29T11:34:24.31Z</time></trkpt><trkpt lat="44.03885" lon="10.9413633"><ele>822.0</ele><time>2026-03-29T11:34:27.309Z</time></trkpt><trkpt lat="44.0387783" lon="10.9412817"><ele>826.0</ele><time>2026-03-29T11:34:30.308Z</time></trkpt><trkpt lat="44.0386983" lon="10.9412683"><ele>830.0</ele><time>2026-03-29T11:34:33.309Z</time></trkpt><trkpt lat="44.0386617" lon="10.9413483"><ele>834.0</ele><time>2026-03-29T11:34:38.309Z</time></trkpt><trkpt lat="44.0387" lon="10.9414417"><ele>834.0</ele><time>2026-03-29T11:34:43.309Z</time></trkpt><trkpt lat="44.038705" lon="10.941545"><ele>834.0</ele><time>2026-03-29T11:34:47.309Z</time></trkpt><trkpt lat="44.0387133" lon="10.941655"><ele>834.0</ele><time>2026-03-29T11:34:51.308Z</time></trkpt><trkpt lat="44.038715" lon="10.9417483"><ele>834.0</ele><time>2026-03-29T11:34:54.31Z</time></trkpt><trkpt lat="44.0387017" lon="10.941835"><ele>834.0</ele><time>2026-03-29T11:34:57.309Z</time></trkpt><trkpt lat="44.03869" lon="10.941935"><ele>834.0</ele><time>2026-03-29T11:35:00.31Z</time></trkpt><trkpt lat="44.0386367" lon="10.9420183"><ele>834.0</ele><time>2026-03-29T11:35:03.309Z</time></trkpt><trkpt lat="44.03856" lon="10.942085"><ele>832.0</ele><time>2026-03-29T11:35:06.309Z</time></trkpt><trkpt lat="44.0385033" lon="10.9421533"><ele>830.0</ele><time>2026-03-29T11:35:09.309Z</time></trkpt><trkpt lat="44.0384017" lon="10.9422217"><ele>828.0</ele><time>2026-03-29T11:35:11.31Z</time></trkpt><trkpt lat="44.0383533" lon="10.94228"><ele>826.0</ele><time>2026-03-29T11:35:13.309Z</time></trkpt><trkpt lat="44.03832" lon="10.942365"><ele>824.0</ele><time>2026-03-29T11:35:17.31Z</time></trkpt><trkpt lat="44.0382817" lon="10.9424667"><ele>822.0</ele><time>2026-03-29T11:35:21.31Z</time></trkpt><trkpt lat="44.038235" lon="10.942555"><ele>822.0</ele><time>2026-03-29T11:35:24.309Z</time></trkpt><trkpt lat="44.0381667" lon="10.9426317"><ele>822.0</ele><time>2026-03-29T11:35:27.31Z</time></trkpt><trkpt lat="44.038095" lon="10.9426967"><ele>822.0</ele><time>2026-03-29T11:35:30.309Z</time></trkpt><trkpt lat="44.0380317" lon="10.94277"><ele>822.0</ele><time>2026-03-29T11:35:33.309Z</time></trkpt><trkpt lat="44.0379683" lon="10.9428383"><ele>822.0</ele><time>2026-03-29T11:35:36.308Z</time></trkpt><trkpt lat="44.0379117" lon="10.9429"><ele>822.0</ele><time>2026-03-29T11:35:39.31Z</time></trkpt><trkpt lat="44.0378367" lon="10.9429667"><ele>822.0</ele><time>2026-03-29T11:35:42.309Z</time></trkpt><trkpt lat="44.0377733" lon="10.943015"><ele>822.0</ele><time>2026-03-29T11:35:44.309Z</time></trkpt><trkpt lat="44.0377117" lon="10.943065"><ele>822.0</ele><time>2026-03-29T11:35:46.31Z</time></trkpt><trkpt lat="44.037645" lon="10.9431283"><ele>822.0</ele><time>2026-03-29T11:35:49.309Z</time></trkpt><trkpt lat="44.037585" lon="10.9431683"><ele>822.0</ele><time>2026-03-29T11:35:51.31Z</time></trkpt><trkpt lat="44.0375083" lon="10.94323"><ele>822.0</ele><time>2026-03-29T11:35:54.31Z</time></trkpt><trkpt lat="44.037445" lon="10.9433017"><ele>822.3333333333334</ele><time>2026-03-29T11:35:57.31Z</time></trkpt><trkpt lat="44.03736" lon="10.9433467"><ele>822.6666666666667</ele><time>2026-03-29T11:36:00.309Z</time></trkpt><trkpt lat="44.0372717" lon="10.9434033"><ele>823.0</ele><time>2026-03-29T11:36:03.309Z</time></trkpt><trkpt lat="44.0371883" lon="10.9434417"><ele>823.3333333333334</ele><time>2026-03-29T11:36:06.309Z</time></trkpt><trkpt lat="44.0370983" lon="10.9434483"><ele>823.6666666666667</ele><time>2026-03-29T11:36:09.308Z</time></trkpt><trkpt lat="44.0370233" lon="10.943455"><ele>824.0</ele><time>2026-03-29T11:36:11.308Z</time></trkpt><trkpt lat="44.0369233" lon="10.9434433"><ele>824.0000000000001</ele><time>2026-03-29T11:36:13.31Z</time></trkpt><trkpt lat="44.0368167" lon="10.943435"><ele>824.0</ele><time>2026-03-29T11:36:15.308Z</time></trkpt><trkpt lat="44.036755" lon="10.9434067"><ele>824.0</ele><time>2026-03-29T11:36:17.311Z</time></trkpt><trkpt lat="44.03669" lon="10.943355"><ele>824.0</ele><time>2026-03-29T11:36:20.311Z</time></trkpt><trkpt lat="44.03663" lon="10.9433133"><ele>824.0000000000001</ele><time>2026-03-29T11:36:23.308Z</time></trkpt><trkpt lat="44.0365733" lon="10.9432433"><ele>824.0</ele><time>2026-03-29T11:36:26.311Z</time></trkpt><trkpt lat="44.0365133" lon="10.9431717"><ele>822.4285714285713</ele><time>2026-03-29T11:36:30.309Z</time></trkpt><trkpt lat="44.0364717" lon="10.9430917"><ele>820.8571428571429</ele><time>2026-03-29T11:36:33.309Z</time></trkpt><trkpt lat="44.0364367" lon="10.9429983"><ele>819.2857142857142</ele><time>2026-03-29T11:36:35.31Z</time></trkpt><trkpt lat="44.0363967" lon="10.94292"><ele>817.7142857142857</ele><time>2026-03-29T11:36:37.31Z</time></trkpt><trkpt lat="44.0363567" lon="10.9428217"><ele>816.1428571428571</ele><time>2026-03-29T11:36:40.309Z</time></trkpt><trkpt lat="44.036335" lon="10.9427317"><ele>814.5714285714286</ele><time>2026-03-29T11:36:43.31Z</time></trkpt><trkpt lat="44.036325" lon="10.9426183"><ele>813.0</ele><time>2026-03-29T11:36:49.31Z</time></trkpt><trkpt lat="44.0363433" lon="10.9425283"><ele>813.0</ele><time>2026-03-29T11:36:52.308Z</time></trkpt><trkpt lat="44.0363633" lon="10.942445"><ele>813.0</ele><time>2026-03-29T11:36:54.308Z</time></trkpt><trkpt lat="44.0363617" lon="10.94235"><ele>813.0</ele><time>2026-03-29T11:36:56.308Z</time></trkpt><trkpt lat="44.0363483" lon="10.9422083"><ele>813.0</ele><time>2026-03-29T11:37:00.311Z</time></trkpt><trkpt lat="44.0363667" lon="10.9421117"><ele>813.0</ele><time>2026-03-29T11:37:02.31Z</time></trkpt><trkpt lat="44.0363467" lon="10.9420183"><ele>813.0</ele><time>2026-03-29T11:37:05.31Z</time></trkpt><trkpt lat="44.0362833" lon="10.9419433"><ele>813.0</ele><time>2026-03-29T11:37:09.311Z</time></trkpt><trkpt lat="44.03625" lon="10.9418683"><ele>813.0</ele><time>2026-03-29T11:37:11.309Z</time></trkpt><trkpt lat="44.036205" lon="10.94179"><ele>813.0</ele><time>2026-03-29T11:37:14.309Z</time></trkpt><trkpt lat="44.0361417" lon="10.9417233"><ele>813.0</ele><time>2026-03-29T11:37:18.306Z</time></trkpt><trkpt lat="44.036075" lon="10.9416933"><ele>813.0</ele><time>2026-03-29T11:37:21.309Z</time></trkpt><trkpt lat="44.0360117" lon="10.9417167"><ele>813.0</ele><time>2026-03-29T11:37:24.309Z</time></trkpt><trkpt lat="44.0359367" lon="10.941705"><ele>813.0</ele><time>2026-03-29T11:37:29.308Z</time></trkpt><trkpt lat="44.035865" lon="10.94167"><ele>811.8333333333334</ele><time>2026-03-29T11:37:32.311Z</time></trkpt><trkpt lat="44.0358033" lon="10.94164"><ele>810.6666666666667</ele><time>2026-03-29T11:37:34.31Z</time></trkpt><trkpt lat="44.0357233" lon="10.941605"><ele>809.5</ele><time>2026-03-29T11:37:36.31Z</time></trkpt><trkpt lat="44.0356617" lon="10.941505"><ele>808.3333333333334</ele><time>2026-03-29T11:37:38.309Z</time></trkpt><trkpt lat="44.035625" lon="10.941365"><ele>807.1666666666667</ele><time>2026-03-29T11:37:40.308Z</time></trkpt><trkpt lat="44.0355933" lon="10.9412467"><ele>806.0</ele><time>2026-03-29T11:37:42.308Z</time></trkpt><trkpt lat="44.0355683" lon="10.9411583"><ele>806.0000000000001</ele><time>2026-03-29T11:37:44.311Z</time></trkpt><trkpt lat="44.035535" lon="10.94105"><ele>806.0</ele><time>2026-03-29T11:37:47.309Z</time></trkpt><trkpt lat="44.0355117" lon="10.940955"><ele>806.0</ele><time>2026-03-29T11:37:50.309Z</time></trkpt><trkpt lat="44.0355033" lon="10.9408583"><ele>806.0</ele><time>2026-03-29T11:37:53.311Z</time></trkpt><trkpt lat="44.0354767" lon="10.9407417"><ele>806.0000000000001</ele><time>2026-03-29T11:37:57.309Z</time></trkpt><trkpt lat="44.0354583" lon="10.940625"><ele>806.0</ele><time>2026-03-29T11:38:00.309Z</time></trkpt><trkpt lat="44.0354267" lon="10.940525"><ele>809.6666666666667</ele><time>2026-03-29T11:38:03.307Z</time></trkpt><trkpt lat="44.035385" lon="10.9404283"><ele>813.3333333333334</ele><time>2026-03-29T11:38:06.308Z</time></trkpt><trkpt lat="44.0353583" lon="10.94033"><ele>817.0</ele><time>2026-03-29T11:38:09.308Z</time></trkpt><trkpt lat="44.03534" lon="10.940205"><ele>820.6666666666667</ele><time>2026-03-29T11:38:12.309Z</time></trkpt><trkpt lat="44.0353417" lon="10.9400767"><ele>824.3333333333334</ele><time>2026-03-29T11:38:15.309Z</time></trkpt><trkpt lat="44.0353533" lon="10.93998"><ele>828.0</ele><time>2026-03-29T11:38:17.309Z</time></trkpt><trkpt lat="44.035365" lon="10.939885"><ele>831.4285714285714</ele><time>2026-03-29T11:38:19.31Z</time></trkpt><trkpt lat="44.0353567" lon="10.93978"><ele>834.8571428571429</ele><time>2026-03-29T11:38:22.308Z</time></trkpt><trkpt lat="44.0353133" lon="10.9397"><ele>838.2857142857142</ele><time>2026-03-29T11:38:26.307Z</time></trkpt><trkpt lat="44.0352483" lon="10.93964"><ele>841.7142857142858</ele><time>2026-03-29T11:38:30.309Z</time></trkpt><trkpt lat="44.03518" lon="10.93964"><ele>845.1428571428571</ele><time>2026-03-29T11:38:33.308Z</time></trkpt><trkpt lat="44.0351183" lon="10.9396667"><ele>848.5714285714286</ele><time>2026-03-29T11:38:36.309Z</time></trkpt><trkpt lat="44.0350567" lon="10.9397033"><ele>852.0</ele><time>2026-03-29T11:38:39.309Z</time></trkpt><trkpt lat="44.0349983" lon="10.9397917"><ele>848.9999999999999</ele><time>2026-03-29T11:38:41.31Z</time></trkpt><trkpt lat="44.0349183" lon="10.939785"><ele>846.0</ele><time>2026-03-29T11:38:50.309Z</time></trkpt><trkpt lat="44.0348483" lon="10.9398383"><ele>843.0</ele><time>2026-03-29T11:38:55.31Z</time></trkpt><trkpt lat="44.0347867" lon="10.9398633"><ele>840.0</ele><time>2026-03-29T11:38:57.308Z</time></trkpt><trkpt lat="44.0347167" lon="10.9398433"><ele>837.0</ele><time>2026-03-29T11:38:59.309Z</time></trkpt><trkpt lat="44.034655" lon="10.9397933"><ele>833.9999999999999</ele><time>2026-03-29T11:39:01.309Z</time></trkpt><trkpt lat="44.0345833" lon="10.9397483"><ele>831.0</ele><time>2026-03-29T11:39:02.308Z</time></trkpt><trkpt lat="44.0345133" lon="10.9396867"><ele>831.0</ele><time>2026-03-29T11:39:04.309Z</time></trkpt><trkpt lat="44.03445" lon="10.9396183"><ele>831.0</ele><time>2026-03-29T11:39:06.308Z</time></trkpt><trkpt lat="44.0343883" lon="10.9395583"><ele>831.0</ele><time>2026-03-29T11:39:08.308Z</time></trkpt><trkpt lat="44.0343383" lon="10.9394917"><ele>831.0</ele><time>2026-03-29T11:39:10.308Z</time></trkpt><trkpt lat="44.03427" lon="10.93941"><ele>831.0</ele><time>2026-03-29T11:39:13.309Z</time></trkpt><trkpt lat="44.034195" lon="10.93935"><ele>831.0</ele><time>2026-03-29T11:39:16.309Z</time></trkpt><trkpt lat="44.0341167" lon="10.9393"><ele>832.3333333333334</ele><time>2026-03-29T11:39:19.31Z</time></trkpt><trkpt lat="44.0340467" lon="10.939215"><ele>833.6666666666667</ele><time>2026-03-29T11:39:22.31Z</time></trkpt><trkpt lat="44.0340233" lon="10.9391017"><ele>835.0</ele><time>2026-03-29T11:39:25.308Z</time></trkpt><trkpt lat="44.034025" lon="10.9389833"><ele>836.3333333333334</ele><time>2026-03-29T11:39:28.307Z</time></trkpt><trkpt lat="44.03402" lon="10.9388867"><ele>837.6666666666667</ele><time>2026-03-29T11:39:30.309Z</time></trkpt><trkpt lat="44.033995" lon="10.9387733"><ele>839.0</ele><time>2026-03-29T11:39:33.307Z</time></trkpt><trkpt lat="44.0339617" lon="10.9386617"><ele>839.0000000000001</ele><time>2026-03-29T11:39:36.309Z</time></trkpt><trkpt lat="44.0339133" lon="10.9385617"><ele>839.0</ele><time>2026-03-29T11:39:39.307Z</time></trkpt><trkpt lat="44.0338533" lon="10.9385133"><ele>839.0</ele><time>2026-03-29T11:39:42.308Z</time></trkpt><trkpt lat="44.0337883" lon="10.9384583"><ele>839.0</ele><time>2026-03-29T11:39:45.308Z</time></trkpt><trkpt lat="44.033715" lon="10.9384217"><ele>839.0000000000001</ele><time>2026-03-29T11:39:48.309Z</time></trkpt><trkpt lat="44.0336483" lon="10.938415"><ele>839.0</ele><time>2026-03-29T11:39:51.309Z</time></trkpt><trkpt lat="44.0335783" lon="10.9383833"><ele>841.5000000000001</ele><time>2026-03-29T11:39:54.308Z</time></trkpt><trkpt lat="44.03351" lon="10.9383667"><ele>844.0</ele><time>2026-03-29T11:39:57.308Z</time></trkpt><trkpt lat="44.0334367" lon="10.9383317"><ele>846.5</ele><time>2026-03-29T11:40:00.31Z</time></trkpt><trkpt lat="44.0333633" lon="10.9382583"><ele>849.0</ele><time>2026-03-29T11:40:03.31Z</time></trkpt><trkpt lat="44.0333167" lon="10.9381933"><ele>851.5000000000001</ele><time>2026-03-29T11:40:05.31Z</time></trkpt><trkpt lat="44.0332567" lon="10.9381133"><ele>854.0</ele><time>2026-03-29T11:40:08.309Z</time></trkpt><trkpt lat="44.033215" lon="10.9380467"><ele>854.0000000000001</ele><time>2026-03-29T11:40:10.309Z</time></trkpt><trkpt lat="44.0331467" lon="10.9379917"><ele>854.0</ele><time>2026-03-29T11:40:13.31Z</time></trkpt><trkpt lat="44.03307" lon="10.93797"><ele>854.0</ele><time>2026-03-29T11:40:16.308Z</time></trkpt><trkpt lat="44.0329867" lon="10.9379667"><ele>854.0</ele><time>2026-03-29T11:40:19.311Z</time></trkpt><trkpt lat="44.0329" lon="10.9379567"><ele>854.0000000000001</ele><time>2026-03-29T11:40:22.311Z</time></trkpt><trkpt lat="44.0328217" lon="10.937955"><ele>854.0</ele><time>2026-03-29T11:40:25.311Z</time></trkpt><trkpt lat="44.0327467" lon="10.9379567"><ele>854.0000000000001</ele><time>2026-03-29T11:40:28.31Z</time></trkpt><trkpt lat="44.0326767" lon="10.9379433"><ele>854.0</ele><time>2026-03-29T11:40:31.31Z</time></trkpt><trkpt lat="44.0325967" lon="10.937925"><ele>854.0</ele><time>2026-03-29T11:40:34.31Z</time></trkpt><trkpt lat="44.03251" lon="10.9378967"><ele>854.0</ele><time>2026-03-29T11:40:37.311Z</time></trkpt><trkpt lat="44.03242" lon="10.9378467"><ele>854.0000000000001</ele><time>2026-03-29T11:40:40.31Z</time></trkpt><trkpt lat="44.032355" lon="10.9377817"><ele>854.0</ele><time>2026-03-29T11:40:42.311Z</time></trkpt><trkpt lat="44.0323067" lon="10.9377"><ele>853.1666666666667</ele><time>2026-03-29T11:40:44.31Z</time></trkpt><trkpt lat="44.0322567" lon="10.937585"><ele>852.3333333333334</ele><time>2026-03-29T11:40:47.31Z</time></trkpt><trkpt lat="44.0322267" lon="10.9374883"><ele>851.5</ele><time>2026-03-29T11:40:49.311Z</time></trkpt><trkpt lat="44.032205" lon="10.9373833"><ele>850.6666666666667</ele><time>2026-03-29T11:40:51.309Z</time></trkpt><trkpt lat="44.03218" lon="10.93726"><ele>849.8333333333334</ele><time>2026-03-29T11:40:54.309Z</time></trkpt><trkpt lat="44.0321633" lon="10.9371417"><ele>849.0</ele><time>2026-03-29T11:40:57.31Z</time></trkpt><trkpt lat="44.03217" lon="10.937005"><ele>849.0000000000001</ele><time>2026-03-29T11:41:00.308Z</time></trkpt><trkpt lat="44.03217" lon="10.9369067"><ele>849.0</ele><time>2026-03-29T11:41:02.308Z</time></trkpt><trkpt lat="44.0321717" lon="10.9368167"><ele>849.0</ele><time>2026-03-29T11:41:04.309Z</time></trkpt><trkpt lat="44.0321567" lon="10.936725"><ele>849.0</ele><time>2026-03-29T11:41:07.309Z</time></trkpt><trkpt lat="44.0321083" lon="10.9366433"><ele>849.0</ele><time>2026-03-29T11:41:10.308Z</time></trkpt><trkpt lat="44.032095" lon="10.9365283"><ele>849.0000000000001</ele><time>2026-03-29T11:41:13.308Z</time></trkpt><trkpt lat="44.0321" lon="10.9364267"><ele>849.0</ele><time>2026-03-29T11:41:15.308Z</time></trkpt><trkpt lat="44.0321" lon="10.9363233"><ele>851.0000000000001</ele><time>2026-03-29T11:41:18.311Z</time></trkpt><trkpt lat="44.0321017" lon="10.9362133"><ele>853.0</ele><time>2026-03-29T11:41:21.311Z</time></trkpt><trkpt lat="44.03212" lon="10.9361283"><ele>855.0</ele><time>2026-03-29T11:41:23.31Z</time></trkpt><trkpt lat="44.03214" lon="10.9360333"><ele>857.0</ele><time>2026-03-29T11:41:28.309Z</time></trkpt><trkpt lat="44.0321867" lon="10.9359517"><ele>859.0</ele><time>2026-03-29T11:41:31.308Z</time></trkpt><trkpt lat="44.0322317" lon="10.935865"><ele>861.0000000000001</ele><time>2026-03-29T11:41:34.307Z</time></trkpt><trkpt lat="44.0322817" lon="10.9357817"><ele>863.0</ele><time>2026-03-29T11:41:38.308Z</time></trkpt><trkpt lat="44.0323117" lon="10.9356933"><ele>864.1428571428572</ele><time>2026-03-29T11:41:41.307Z</time></trkpt><trkpt lat="44.0323117" lon="10.9355967"><ele>865.2857142857143</ele><time>2026-03-29T11:41:44.311Z</time></trkpt><trkpt lat="44.0323233" lon="10.9355083"><ele>866.4285714285714</ele><time>2026-03-29T11:41:49.308Z</time></trkpt><trkpt lat="44.0322633" lon="10.9354683"><ele>867.5714285714287</ele><time>2026-03-29T11:41:55.308Z</time></trkpt><trkpt lat="44.0322017" lon="10.93544"><ele>868.7142857142857</ele><time>2026-03-29T11:41:58.308Z</time></trkpt><trkpt lat="44.0321533" lon="10.93532"><ele>869.8571428571429</ele><time>2026-03-29T11:42:01.308Z</time></trkpt><trkpt lat="44.0321333" lon="10.9352283"><ele>871.0</ele><time>2026-03-29T11:42:03.307Z</time></trkpt><trkpt lat="44.03211" lon="10.9351383"><ele>872.5714285714286</ele><time>2026-03-29T11:42:05.309Z</time></trkpt><trkpt lat="44.0320983" lon="10.93504"><ele>874.1428571428571</ele><time>2026-03-29T11:42:07.309Z</time></trkpt><trkpt lat="44.0320733" lon="10.9349183"><ele>875.7142857142858</ele><time>2026-03-29T11:42:10.307Z</time></trkpt><trkpt lat="44.0320367" lon="10.9348417"><ele>877.2857142857142</ele><time>2026-03-29T11:42:13.306Z</time></trkpt><trkpt lat="44.032025" lon="10.9347233"><ele>878.8571428571429</ele><time>2026-03-29T11:42:16.306Z</time></trkpt><trkpt lat="44.0320183" lon="10.9346333"><ele>880.4285714285714</ele><time>2026-03-29T11:42:18.307Z</time></trkpt><trkpt lat="44.03202" lon="10.9345433"><ele>882.0</ele><time>2026-03-29T11:42:20.308Z</time></trkpt><trkpt lat="44.0320183" lon="10.9344517"><ele>882.0</ele><time>2026-03-29T11:42:22.308Z</time></trkpt><trkpt lat="44.032025" lon="10.9343617"><ele>882.0</ele><time>2026-03-29T11:42:24.31Z</time></trkpt><trkpt lat="44.03204" lon="10.9342467"><ele>882.0</ele><time>2026-03-29T11:42:27.308Z</time></trkpt><trkpt lat="44.0320433" lon="10.9341417"><ele>882.0</ele><time>2026-03-29T11:42:30.309Z</time></trkpt><trkpt lat="44.032015" lon="10.9340533"><ele>882.0</ele><time>2026-03-29T11:42:33.308Z</time></trkpt><trkpt lat="44.03202" lon="10.9339567"><ele>882.0</ele><time>2026-03-29T11:42:36.308Z</time></trkpt><trkpt lat="44.032045" lon="10.9338617"><ele>882.0</ele><time>2026-03-29T11:42:39.31Z</time></trkpt><trkpt lat="44.032055" lon="10.9337667"><ele>885.5</ele><time>2026-03-29T11:42:42.31Z</time></trkpt><trkpt lat="44.03206" lon="10.9336417"><ele>889.0</ele><time>2026-03-29T11:42:45.31Z</time></trkpt><trkpt lat="44.032045" lon="10.93354"><ele>892.5</ele><time>2026-03-29T11:42:49.311Z</time></trkpt><trkpt lat="44.0320433" lon="10.9334433"><ele>896.0</ele><time>2026-03-29T11:42:53.309Z</time></trkpt><trkpt lat="44.0320367" lon="10.9333317"><ele>899.5</ele><time>2026-03-29T11:42:55.31Z</time></trkpt><trkpt lat="44.0320533" lon="10.9331983"><ele>903.0</ele><time>2026-03-29T11:42:59.311Z</time></trkpt><trkpt lat="44.0320433" lon="10.933085"><ele>906.0</ele><time>2026-03-29T11:43:01.31Z</time></trkpt><trkpt lat="44.0320383" lon="10.9329833"><ele>909.0</ele><time>2026-03-29T11:43:03.309Z</time></trkpt><trkpt lat="44.032045" lon="10.9328933"><ele>912.0</ele><time>2026-03-29T11:43:05.31Z</time></trkpt><trkpt lat="44.0320433" lon="10.9327717"><ele>915.0</ele><time>2026-03-29T11:43:08.31Z</time></trkpt><trkpt lat="44.0320333" lon="10.932685"><ele>918.0</ele><time>2026-03-29T11:43:12.31Z</time></trkpt><trkpt lat="44.032045" lon="10.9327783"><ele>921.0</ele><time>2026-03-29T11:43:20.31Z</time></trkpt><trkpt lat="44.0320633" lon="10.9328733"><ele>924.0</ele><time>2026-03-29T11:43:24.308Z</time></trkpt><trkpt lat="44.0320883" lon="10.932955"><ele>924.0</ele><time>2026-03-29T11:43:30.309Z</time></trkpt><trkpt lat="44.0320533" lon="10.9330683"><ele>924.0</ele><time>2026-03-29T11:43:36.307Z</time></trkpt><trkpt lat="44.0320217" lon="10.9331467"><ele>924.0</ele><time>2026-03-29T11:43:39.307Z</time></trkpt><trkpt lat="44.031975" lon="10.9332283"><ele>924.0</ele><time>2026-03-29T11:43:42.307Z</time></trkpt><trkpt lat="44.0319133" lon="10.9333"><ele>924.0</ele><time>2026-03-29T11:43:45.311Z</time></trkpt><trkpt lat="44.0318483" lon="10.9333567"><ele>924.0</ele><time>2026-03-29T11:43:48.309Z</time></trkpt><trkpt lat="44.0317967" lon="10.9334317"><ele>921.0</ele><time>2026-03-29T11:43:51.306Z</time></trkpt><trkpt lat="44.0317417" lon="10.9334867"><ele>918.0</ele><time>2026-03-29T11:43:53.308Z</time></trkpt><trkpt lat="44.0316783" lon="10.9335383"><ele>915.0</ele><time>2026-03-29T11:43:55.307Z</time></trkpt><trkpt lat="44.0316083" lon="10.9335767"><ele>912.0</ele><time>2026-03-29T11:43:57.306Z</time></trkpt><trkpt lat="44.031535" lon="10.9336017"><ele>909.0</ele><time>2026-03-29T11:43:59.308Z</time></trkpt><trkpt lat="44.0314717" lon="10.9336067"><ele>906.0</ele><time>2026-03-29T11:44:00.31Z</time></trkpt><trkpt lat="44.0313817" lon="10.933615"><ele>903.0</ele><time>2026-03-29T11:44:02.309Z</time></trkpt><trkpt lat="44.03125" lon="10.9336117"><ele>902.6666666666666</ele><time>2026-03-29T11:44:05.31Z</time></trkpt><trkpt lat="44.0311583" lon="10.9335817"><ele>902.3333333333333</ele><time>2026-03-29T11:44:07.31Z</time></trkpt><trkpt lat="44.0310817" lon="10.9335683"><ele>902.0</ele><time>2026-03-29T11:44:09.311Z</time></trkpt><trkpt lat="44.030995" lon="10.9335417"><ele>901.6666666666666</ele><time>2026-03-29T11:44:12.309Z</time></trkpt><trkpt lat="44.0309117" lon="10.9335483"><ele>901.3333333333333</ele><time>2026-03-29T11:44:15.309Z</time></trkpt><trkpt lat="44.0308183" lon="10.9335567"><ele>901.0</ele><time>2026-03-29T11:44:18.309Z</time></trkpt><trkpt lat="44.03073" lon="10.9335467"><ele>904.7142857142858</ele><time>2026-03-29T11:44:21.308Z</time></trkpt><trkpt lat="44.0306567" lon="10.9335017"><ele>908.4285714285716</ele><time>2026-03-29T11:44:24.311Z</time></trkpt><trkpt lat="44.0305867" lon="10.9334733"><ele>912.1428571428571</ele><time>2026-03-29T11:44:27.308Z</time></trkpt><trkpt lat="44.03052" lon="10.9334133"><ele>915.8571428571429</ele><time>2026-03-29T11:44:30.309Z</time></trkpt><trkpt lat="44.0304517" lon="10.9333567"><ele>919.5714285714286</ele><time>2026-03-29T11:44:33.311Z</time></trkpt><trkpt lat="44.0303967" lon="10.9333083"><ele>923.2857142857142</ele><time>2026-03-29T11:44:36.31Z</time></trkpt><trkpt lat="44.030345" lon="10.9332583"><ele>926.9999999999999</ele><time>2026-03-29T11:44:39.308Z</time></trkpt><trkpt lat="44.0302783" lon="10.93319"><ele>927.0</ele><time>2026-03-29T11:44:43.308Z</time></trkpt><trkpt lat="44.03021" lon="10.9331283"><ele>927.0</ele><time>2026-03-29T11:44:45.309Z</time></trkpt><trkpt lat="44.0301467" lon="10.9330767"><ele>927.0</ele><time>2026-03-29T11:44:47.313Z</time></trkpt><trkpt lat="44.0300817" lon="10.93298"><ele>927.0</ele><time>2026-03-29T11:44:50.313Z</time></trkpt><trkpt lat="44.0300367" lon="10.932915"><ele>927.0</ele><time>2026-03-29T11:44:52.312Z</time></trkpt><trkpt lat="44.0299767" lon="10.932845"><ele>927.0</ele><time>2026-03-29T11:44:54.312Z</time></trkpt><trkpt lat="44.029915" lon="10.9327717"><ele>930.8571428571427</ele><time>2026-03-29T11:44:56.312Z</time></trkpt><trkpt lat="44.0298683" lon="10.93271"><ele>934.7142857142857</ele><time>2026-03-29T11:44:58.311Z</time></trkpt><trkpt lat="44.0298583" lon="10.9326117"><ele>938.5714285714284</ele><time>2026-03-29T11:45:03.312Z</time></trkpt><trkpt lat="44.0298183" lon="10.93253"><ele>942.4285714285713</ele><time>2026-03-29T11:45:05.312Z</time></trkpt><trkpt lat="44.029775" lon="10.9324333"><ele>946.2857142857142</ele><time>2026-03-29T11:45:08.311Z</time></trkpt><trkpt lat="44.0297217" lon="10.9323317"><ele>950.1428571428571</ele><time>2026-03-29T11:45:10.311Z</time></trkpt><trkpt lat="44.0297017" lon="10.9322433"><ele>954.0</ele><time>2026-03-29T11:45:11.31Z</time></trkpt><trkpt lat="44.0296433" lon="10.932115"><ele>954.0</ele><time>2026-03-29T11:45:13.312Z</time></trkpt><trkpt lat="44.029595" lon="10.9320567"><ele>954.0</ele><time>2026-03-29T11:45:14.31Z</time></trkpt><trkpt lat="44.0295267" lon="10.9319783"><ele>954.0</ele><time>2026-03-29T11:45:16.311Z</time></trkpt><trkpt lat="44.0294617" lon="10.9318933"><ele>954.0</ele><time>2026-03-29T11:45:18.311Z</time></trkpt><trkpt lat="44.0294083" lon="10.931785"><ele>954.0</ele><time>2026-03-29T11:45:20.311Z</time></trkpt><trkpt lat="44.0293517" lon="10.9316633"><ele>954.0</ele><time>2026-03-29T11:45:22.31Z</time></trkpt><trkpt lat="44.0292867" lon="10.9315733"><ele>951.1666666666666</ele><time>2026-03-29T11:45:24.311Z</time></trkpt><trkpt lat="44.029215" lon="10.93153"><ele>948.3333333333333</ele><time>2026-03-29T11:45:26.31Z</time></trkpt><trkpt lat="44.029145" lon="10.9314617"><ele>945.5</ele><time>2026-03-29T11:45:28.309Z</time></trkpt><trkpt lat="44.0290833" lon="10.931425"><ele>942.6666666666666</ele><time>2026-03-29T11:45:30.309Z</time></trkpt><trkpt lat="44.0290183" lon="10.931425"><ele>939.8333333333333</ele><time>2026-03-29T11:45:32.312Z</time></trkpt><trkpt lat="44.02894" lon="10.9314617"><ele>937.0</ele><time>2026-03-29T11:45:34.311Z</time></trkpt><trkpt lat="44.0288533" lon="10.93152"><ele>935.0</ele><time>2026-03-29T11:45:36.311Z</time></trkpt><trkpt lat="44.0287633" lon="10.9315783"><ele>933.0</ele><time>2026-03-29T11:45:38.312Z</time></trkpt><trkpt lat="44.0286717" lon="10.9316433"><ele>931.0</ele><time>2026-03-29T11:45:40.309Z</time></trkpt><trkpt lat="44.0285983" lon="10.9317133"><ele>929.0</ele><time>2026-03-29T11:45:42.311Z</time></trkpt><trkpt lat="44.0285317" lon="10.9317867"><ele>927.0</ele><time>2026-03-29T11:45:44.313Z</time></trkpt><trkpt lat="44.0284667" lon="10.931845"><ele>932.6</ele><time>2026-03-29T11:45:46.31Z</time></trkpt><trkpt lat="44.0283867" lon="10.9319"><ele>938.2</ele><time>2026-03-29T11:45:49.311Z</time></trkpt><trkpt lat="44.028315" lon="10.9319183"><ele>943.8</ele><time>2026-03-29T11:45:51.311Z</time></trkpt><trkpt lat="44.0282133" lon="10.9319233"><ele>949.4</ele><time>2026-03-29T11:45:53.311Z</time></trkpt><trkpt lat="44.0281217" lon="10.93193"><ele>955.0</ele><time>2026-03-29T11:45:55.311Z</time></trkpt><trkpt lat="44.02802" lon="10.9319283"><ele>954.9999999999999</ele><time>2026-03-29T11:45:57.311Z</time></trkpt><trkpt lat="44.0279083" lon="10.9319217"><ele>955.0</ele><time>2026-03-29T11:45:59.311Z</time></trkpt><trkpt lat="44.0278433" lon="10.93192"><ele>955.0</ele><time>2026-03-29T11:46:00.311Z</time></trkpt><trkpt lat="44.027775" lon="10.931925"><ele>955.0</ele><time>2026-03-29T11:46:01.31Z</time></trkpt><trkpt lat="44.02768" lon="10.9319267"><ele>954.9999999999999</ele><time>2026-03-29T11:46:02.311Z</time></trkpt><trkpt lat="44.0276117" lon="10.9319267"><ele>955.0</ele><time>2026-03-29T11:46:03.31Z</time></trkpt><trkpt lat="44.0275383" lon="10.9319317"><ele>954.6666666666666</ele><time>2026-03-29T11:46:04.31Z</time></trkpt><trkpt lat="44.0274667" lon="10.9319317"><ele>954.3333333333333</ele><time>2026-03-29T11:46:05.31Z</time></trkpt><trkpt lat="44.027395" lon="10.93193"><ele>954.0</ele><time>2026-03-29T11:46:06.308Z</time></trkpt><trkpt lat="44.0273117" lon="10.9319183"><ele>953.6666666666667</ele><time>2026-03-29T11:46:07.308Z</time></trkpt><trkpt lat="44.02723" lon="10.931885"><ele>953.3333333333334</ele><time>2026-03-29T11:46:08.309Z</time></trkpt><trkpt lat="44.0271517" lon="10.9318383"><ele>953.0</ele><time>2026-03-29T11:46:09.307Z</time></trkpt><trkpt lat="44.0270683" lon="10.9317883"><ele>953.0</ele><time>2026-03-29T11:46:10.307Z</time></trkpt><trkpt lat="44.02699" lon="10.9317317"><ele>953.0</ele><time>2026-03-29T11:46:11.308Z</time></trkpt><trkpt lat="44.0269117" lon="10.9316683"><ele>953.0</ele><time>2026-03-29T11:46:12.307Z</time></trkpt><trkpt lat="44.0268367" lon="10.9316083"><ele>953.0</ele><time>2026-03-29T11:46:13.308Z</time></trkpt><trkpt lat="44.0267533" lon="10.9315517"><ele>953.0</ele><time>2026-03-29T11:46:14.309Z</time></trkpt><trkpt lat="44.0266667" lon="10.9314983"><ele>948.2</ele><time>2026-03-29T11:46:15.31Z</time></trkpt><trkpt lat="44.0265783" lon="10.9314517"><ele>943.4</ele><time>2026-03-29T11:46:16.309Z</time></trkpt><trkpt lat="44.0264917" lon="10.931405"><ele>938.6000000000001</ele><time>2026-03-29T11:46:17.31Z</time></trkpt><trkpt lat="44.0264067" lon="10.9313617"><ele>933.8000000000001</ele><time>2026-03-29T11:46:18.309Z</time></trkpt><trkpt lat="44.0263167" lon="10.9313267"><ele>929.0</ele><time>2026-03-29T11:46:19.307Z</time></trkpt><trkpt lat="44.0262317" lon="10.9312967"><ele>929.0</ele><time>2026-03-29T11:46:20.308Z</time></trkpt><trkpt lat="44.0261467" lon="10.93127"><ele>929.0000000000001</ele><time>2026-03-29T11:46:21.308Z</time></trkpt><trkpt lat="44.0260617" lon="10.931255"><ele>929.0000000000001</ele><time>2026-03-29T11:46:22.308Z</time></trkpt><trkpt lat="44.0259717" lon="10.9312533"><ele>929.0</ele><time>2026-03-29T11:46:23.308Z</time></trkpt><trkpt lat="44.0258783" lon="10.9312583"><ele>929.0</ele><time>2026-03-29T11:46:24.308Z</time></trkpt><trkpt lat="44.025785" lon="10.9312733"><ele>926.4000000000001</ele><time>2026-03-29T11:46:25.308Z</time></trkpt><trkpt lat="44.0256967" lon="10.9312917"><ele>923.8000000000001</ele><time>2026-03-29T11:46:26.308Z</time></trkpt><trkpt lat="44.0256067" lon="10.9313183"><ele>921.1999999999999</ele><time>2026-03-29T11:46:27.308Z</time></trkpt><trkpt lat="44.02552" lon="10.93135"><ele>918.5999999999999</ele><time>2026-03-29T11:46:28.308Z</time></trkpt><trkpt lat="44.02543" lon="10.9313833"><ele>916.0</ele><time>2026-03-29T11:46:29.308Z</time></trkpt><trkpt lat="44.02534" lon="10.9314183"><ele>916.0</ele><time>2026-03-29T11:46:30.309Z</time></trkpt><trkpt lat="44.0252467" lon="10.9314517"><ele>915.9999999999999</ele><time>2026-03-29T11:46:31.309Z</time></trkpt><trkpt lat="44.0251567" lon="10.93149"><ele>915.9999999999999</ele><time>2026-03-29T11:46:32.31Z</time></trkpt><trkpt lat="44.0250667" lon="10.9315233"><ele>916.0</ele><time>2026-03-29T11:46:33.309Z</time></trkpt><trkpt lat="44.024975" lon="10.9315567"><ele>916.0</ele><time>2026-03-29T11:46:34.309Z</time></trkpt><trkpt lat="44.024885" lon="10.931585"><ele>914.5999999999999</ele><time>2026-03-29T11:46:35.31Z</time></trkpt><trkpt lat="44.02479" lon="10.9316183"><ele>913.1999999999999</ele><time>2026-03-29T11:46:36.31Z</time></trkpt><trkpt lat="44.024695" lon="10.93165"><ele>911.8000000000001</ele><time>2026-03-29T11:46:37.309Z</time></trkpt><trkpt lat="44.0246" lon="10.9316833"><ele>910.4000000000001</ele><time>2026-03-29T11:46:38.31Z</time></trkpt><trkpt lat="44.024495" lon="10.93171"><ele>909.0</ele><time>2026-03-29T11:46:39.309Z</time></trkpt><trkpt lat="44.0243933" lon="10.9317383"><ele>913.6</ele><time>2026-03-29T11:46:40.309Z</time></trkpt><trkpt lat="44.0242917" lon="10.9317583"><ele>918.2</ele><time>2026-03-29T11:46:41.31Z</time></trkpt><trkpt lat="44.0241967" lon="10.9317683"><ele>922.8000000000001</ele><time>2026-03-29T11:46:42.31Z</time></trkpt><trkpt lat="44.024105" lon="10.9317617"><ele>927.4000000000001</ele><time>2026-03-29T11:46:43.31Z</time></trkpt><trkpt lat="44.0240133" lon="10.9317317"><ele>932.0</ele><time>2026-03-29T11:46:44.31Z</time></trkpt><trkpt lat="44.023925" lon="10.93167"><ele>932.0</ele><time>2026-03-29T11:46:45.308Z</time></trkpt><trkpt lat="44.0238433" lon="10.93159"><ele>932.0</ele><time>2026-03-29T11:46:46.309Z</time></trkpt><trkpt lat="44.02377" lon="10.9314983"><ele>932.0</ele><time>2026-03-29T11:46:47.31Z</time></trkpt><trkpt lat="44.0237" lon="10.9314"><ele>932.0</ele><time>2026-03-29T11:46:48.309Z</time></trkpt><trkpt lat="44.0236283" lon="10.9313133"><ele>932.0</ele><time>2026-03-29T11:46:49.31Z</time></trkpt><trkpt lat="44.0235583" lon="10.9312133"><ele>932.0</ele><time>2026-03-29T11:46:50.31Z</time></trkpt><trkpt lat="44.0234883" lon="10.931115"><ele>932.0</ele><time>2026-03-29T11:46:51.308Z</time></trkpt><trkpt lat="44.0234133" lon="10.9310233"><ele>932.0</ele><time>2026-03-29T11:46:52.309Z</time></trkpt><trkpt lat="44.0233433" lon="10.9309183"><ele>932.0</ele><time>2026-03-29T11:46:53.31Z</time></trkpt><trkpt lat="44.0232717" lon="10.9308167"><ele>932.0</ele><time>2026-03-29T11:46:54.31Z</time></trkpt><trkpt lat="44.0232117" lon="10.9307017"><ele>936.0</ele><time>2026-03-29T11:46:55.309Z</time></trkpt><trkpt lat="44.0231517" lon="10.93059"><ele>940.0</ele><time>2026-03-29T11:46:56.311Z</time></trkpt><trkpt lat="44.0231" lon="10.9304717"><ele>944.0</ele><time>2026-03-29T11:46:57.308Z</time></trkpt><trkpt lat="44.023055" lon="10.9303417"><ele>948.0</ele><time>2026-03-29T11:46:58.309Z</time></trkpt><trkpt lat="44.0230317" lon="10.930205"><ele>952.0</ele><time>2026-03-29T11:46:59.309Z</time></trkpt><trkpt lat="44.0230083" lon="10.93007"><ele>947.6</ele><time>2026-03-29T11:47:00.309Z</time></trkpt><trkpt lat="44.0229783" lon="10.9299433"><ele>943.2</ele><time>2026-03-29T11:47:01.31Z</time></trkpt><trkpt lat="44.022945" lon="10.9298133"><ele>938.8</ele><time>2026-03-29T11:47:02.31Z</time></trkpt><trkpt lat="44.0229183" lon="10.9296883"><ele>934.4</ele><time>2026-03-29T11:47:03.311Z</time></trkpt><trkpt lat="44.0228967" lon="10.929565"><ele>930.0</ele><time>2026-03-29T11:47:04.31Z</time></trkpt><trkpt lat="44.022875" lon="10.9294467"><ele>930.0</ele><time>2026-03-29T11:47:05.309Z</time></trkpt><trkpt lat="44.0228517" lon="10.9293417"><ele>930.0</ele><time>2026-03-29T11:47:06.309Z</time></trkpt><trkpt lat="44.0228317" lon="10.92924"><ele>930.0</ele><time>2026-03-29T11:47:07.31Z</time></trkpt><trkpt lat="44.02281" lon="10.9291383"><ele>930.0</ele><time>2026-03-29T11:47:08.31Z</time></trkpt><trkpt lat="44.0227783" lon="10.9290383"><ele>930.0</ele><time>2026-03-29T11:47:09.309Z</time></trkpt><trkpt lat="44.0227267" lon="10.9289467"><ele>930.0</ele><time>2026-03-29T11:47:10.308Z</time></trkpt><trkpt lat="44.022665" lon="10.9288667"><ele>926.0</ele><time>2026-03-29T11:47:11.31Z</time></trkpt><trkpt lat="44.0225867" lon="10.9288067"><ele>922.0</ele><time>2026-03-29T11:47:12.309Z</time></trkpt><trkpt lat="44.0224983" lon="10.9287733"><ele>918.0</ele><time>2026-03-29T11:47:13.309Z</time></trkpt><trkpt lat="44.022395" lon="10.9287667"><ele>914.0</ele><time>2026-03-29T11:47:14.309Z</time></trkpt><trkpt lat="44.0222933" lon="10.9287583"><ele>910.0</ele><time>2026-03-29T11:47:15.309Z</time></trkpt><trkpt lat="44.0221967" lon="10.9287417"><ele>910.0</ele><time>2026-03-29T11:47:16.309Z</time></trkpt><trkpt lat="44.0220933" lon="10.9287083"><ele>910.0</ele><time>2026-03-29T11:47:17.309Z</time></trkpt><trkpt lat="44.0219883" lon="10.92866"><ele>910.0</ele><time>2026-03-29T11:47:18.308Z</time></trkpt><trkpt lat="44.021895" lon="10.9285917"><ele>910.0</ele><time>2026-03-29T11:47:19.309Z</time></trkpt><trkpt lat="44.02181" lon="10.9285017"><ele>910.0</ele><time>2026-03-29T11:47:20.311Z</time></trkpt><trkpt lat="44.0217383" lon="10.9284"><ele>906.1666666666666</ele><time>2026-03-29T11:47:21.309Z</time></trkpt><trkpt lat="44.02167" lon="10.9283"><ele>902.3333333333333</ele><time>2026-03-29T11:47:22.31Z</time></trkpt><trkpt lat="44.0216067" lon="10.9282033"><ele>898.5</ele><time>2026-03-29T11:47:23.31Z</time></trkpt><trkpt lat="44.0215533" lon="10.9281133"><ele>894.6666666666667</ele><time>2026-03-29T11:47:24.308Z</time></trkpt><trkpt lat="44.0215033" lon="10.9280333"><ele>890.8333333333334</ele><time>2026-03-29T11:47:25.31Z</time></trkpt><trkpt lat="44.0214467" lon="10.9279733"><ele>887.0</ele><time>2026-03-29T11:47:26.311Z</time></trkpt><trkpt lat="44.02138" lon="10.9279333"><ele>885.3333333333334</ele><time>2026-03-29T11:47:27.309Z</time></trkpt><trkpt lat="44.0213083" lon="10.9279167"><ele>883.6666666666667</ele><time>2026-03-29T11:47:28.309Z</time></trkpt><trkpt lat="44.02123" lon="10.9279333"><ele>882.0</ele><time>2026-03-29T11:47:29.309Z</time></trkpt><trkpt lat="44.0211533" lon="10.9279833"><ele>880.3333333333333</ele><time>2026-03-29T11:47:30.31Z</time></trkpt><trkpt lat="44.0210783" lon="10.92806"><ele>878.6666666666666</ele><time>2026-03-29T11:47:31.309Z</time></trkpt><trkpt lat="44.021005" lon="10.9281483"><ele>877.0</ele><time>2026-03-29T11:47:32.309Z</time></trkpt><trkpt lat="44.0209283" lon="10.9282467"><ele>877.0</ele><time>2026-03-29T11:47:33.309Z</time></trkpt><trkpt lat="44.02085" lon="10.928345"><ele>877.0</ele><time>2026-03-29T11:47:34.309Z</time></trkpt><trkpt lat="44.02077" lon="10.928435"><ele>877.0</ele><time>2026-03-29T11:47:35.308Z</time></trkpt><trkpt lat="44.0207017" lon="10.92852"><ele>877.0</ele><time>2026-03-29T11:47:36.311Z</time></trkpt><trkpt lat="44.0206417" lon="10.9285983"><ele>877.0</ele><time>2026-03-29T11:47:37.309Z</time></trkpt><trkpt lat="44.0205883" lon="10.928675"><ele>875.9999999999999</ele><time>2026-03-29T11:47:38.308Z</time></trkpt><trkpt lat="44.0205433" lon="10.92876"><ele>875.0</ele><time>2026-03-29T11:47:39.311Z</time></trkpt><trkpt lat="44.0205067" lon="10.928855"><ele>874.0</ele><time>2026-03-29T11:47:40.31Z</time></trkpt><trkpt lat="44.020485" lon="10.928965"><ele>873.0</ele><time>2026-03-29T11:47:41.31Z</time></trkpt><trkpt lat="44.0204817" lon="10.9290817"><ele>871.9999999999999</ele><time>2026-03-29T11:47:42.309Z</time></trkpt><trkpt lat="44.0204883" lon="10.929205"><ele>871.0</ele><time>2026-03-29T11:47:43.308Z</time></trkpt><trkpt lat="44.0205033" lon="10.9293317"><ele>871.0</ele><time>2026-03-29T11:47:44.311Z</time></trkpt><trkpt lat="44.020525" lon="10.929455"><ele>870.9999999999999</ele><time>2026-03-29T11:47:45.31Z</time></trkpt><trkpt lat="44.0205367" lon="10.92958"><ele>870.9999999999999</ele><time>2026-03-29T11:47:46.308Z</time></trkpt><trkpt lat="44.020525" lon="10.929705"><ele>871.0</ele><time>2026-03-29T11:47:47.309Z</time></trkpt><trkpt lat="44.0204917" lon="10.9298233"><ele>871.0</ele><time>2026-03-29T11:47:48.309Z</time></trkpt><trkpt lat="44.0204417" lon="10.9299317"><ele>871.0</ele><time>2026-03-29T11:47:49.311Z</time></trkpt><trkpt lat="44.0203833" lon="10.9300367"><ele>870.9999999999999</ele><time>2026-03-29T11:47:50.309Z</time></trkpt><trkpt lat="44.0203217" lon="10.9301267"><ele>870.9999999999999</ele><time>2026-03-29T11:47:51.309Z</time></trkpt><trkpt lat="44.020255" lon="10.93021"><ele>871.0</ele><time>2026-03-29T11:47:52.31Z</time></trkpt><trkpt lat="44.020185" lon="10.9302833"><ele>871.0</ele><time>2026-03-29T11:47:53.31Z</time></trkpt><trkpt lat="44.0201083" lon="10.9303483"><ele>871.3333333333333</ele><time>2026-03-29T11:47:54.31Z</time></trkpt><trkpt lat="44.0200283" lon="10.9304067"><ele>871.6666666666666</ele><time>2026-03-29T11:47:55.311Z</time></trkpt><trkpt lat="44.019955" lon="10.9304517"><ele>872.0</ele><time>2026-03-29T11:47:56.311Z</time></trkpt><trkpt lat="44.0198767" lon="10.9304733"><ele>872.3333333333333</ele><time>2026-03-29T11:47:57.31Z</time></trkpt><trkpt lat="44.01979" lon="10.9304733"><ele>872.6666666666666</ele><time>2026-03-29T11:47:58.309Z</time></trkpt><trkpt lat="44.0197083" lon="10.9304383"><ele>873.0</ele><time>2026-03-29T11:47:59.31Z</time></trkpt><trkpt lat="44.019635" lon="10.9303733"><ele>873.0</ele><time>2026-03-29T11:48:00.311Z</time></trkpt><trkpt lat="44.0195867" lon="10.930265"><ele>873.0</ele><time>2026-03-29T11:48:01.31Z</time></trkpt><trkpt lat="44.0195617" lon="10.930155"><ele>873.0</ele><time>2026-03-29T11:48:02.31Z</time></trkpt><trkpt lat="44.01956" lon="10.9300367"><ele>873.0</ele><time>2026-03-29T11:48:03.31Z</time></trkpt><trkpt lat="44.0195783" lon="10.9299067"><ele>873.0</ele><time>2026-03-29T11:48:04.309Z</time></trkpt><trkpt lat="44.0196083" lon="10.929785"><ele>873.0</ele><time>2026-03-29T11:48:05.309Z</time></trkpt><trkpt lat="44.019655" lon="10.9296683"><ele>870.4</ele><time>2026-03-29T11:48:06.31Z</time></trkpt><trkpt lat="44.0197067" lon="10.9295483"><ele>867.8</ele><time>2026-03-29T11:48:07.31Z</time></trkpt><trkpt lat="44.0197633" lon="10.929435"><ele>865.2</ele><time>2026-03-29T11:48:08.309Z</time></trkpt><trkpt lat="44.01982" lon="10.9293183"><ele>862.6</ele><time>2026-03-29T11:48:09.31Z</time></trkpt><trkpt lat="44.0198817" lon="10.9291967"><ele>860.0</ele><time>2026-03-29T11:48:10.308Z</time></trkpt><trkpt lat="44.0199417" lon="10.9290783"><ele>860.4</ele><time>2026-03-29T11:48:11.309Z</time></trkpt><trkpt lat="44.0200033" lon="10.92896"><ele>860.8</ele><time>2026-03-29T11:48:12.31Z</time></trkpt><trkpt lat="44.020065" lon="10.9288433"><ele>861.2</ele><time>2026-03-29T11:48:13.309Z</time></trkpt><trkpt lat="44.0201233" lon="10.92872"><ele>861.6</ele><time>2026-03-29T11:48:14.309Z</time></trkpt><trkpt lat="44.0201817" lon="10.928595"><ele>862.0</ele><time>2026-03-29T11:48:15.31Z</time></trkpt><trkpt lat="44.0202367" lon="10.92847"><ele>860.8</ele><time>2026-03-29T11:48:16.31Z</time></trkpt><trkpt lat="44.0203" lon="10.92835"><ele>859.6</ele><time>2026-03-29T11:48:17.31Z</time></trkpt><trkpt lat="44.0203617" lon="10.928235"><ele>858.3999999999999</ele><time>2026-03-29T11:48:18.31Z</time></trkpt><trkpt lat="44.0204167" lon="10.9281233"><ele>857.1999999999999</ele><time>2026-03-29T11:48:19.308Z</time></trkpt><trkpt lat="44.020465" lon="10.92802"><ele>856.0</ele><time>2026-03-29T11:48:20.309Z</time></trkpt><trkpt lat="44.02051" lon="10.9279233"><ele>856.0000000000001</ele><time>2026-03-29T11:48:21.31Z</time></trkpt><trkpt lat="44.0205467" lon="10.92784"><ele>856.0</ele><time>2026-03-29T11:48:22.31Z</time></trkpt><trkpt lat="44.0205683" lon="10.9277533"><ele>856.0</ele><time>2026-03-29T11:48:23.31Z</time></trkpt><trkpt lat="44.0205767" lon="10.9276633"><ele>856.0</ele><time>2026-03-29T11:48:24.31Z</time></trkpt><trkpt lat="44.020565" lon="10.9275767"><ele>856.0</ele><time>2026-03-29T11:48:25.309Z</time></trkpt><trkpt lat="44.02053" lon="10.9275033"><ele>856.0000000000001</ele><time>2026-03-29T11:48:26.311Z</time></trkpt><trkpt lat="44.0204717" lon="10.927465"><ele>856.0</ele><time>2026-03-29T11:48:27.309Z</time></trkpt><trkpt lat="44.0204083" lon="10.9274467"><ele>855.9999999999999</ele><time>2026-03-29T11:48:28.307Z</time></trkpt><trkpt lat="44.0203433" lon="10.9274633"><ele>856.0</ele><time>2026-03-29T11:48:29.311Z</time></trkpt><trkpt lat="44.02028" lon="10.9275217"><ele>856.0</ele><time>2026-03-29T11:48:30.31Z</time></trkpt><trkpt lat="44.0202283" lon="10.9276"><ele>856.0</ele><time>2026-03-29T11:48:31.309Z</time></trkpt><trkpt lat="44.0201883" lon="10.92769"><ele>855.9999999999999</ele><time>2026-03-29T11:48:32.31Z</time></trkpt><trkpt lat="44.0201417" lon="10.92778"><ele>856.0</ele><time>2026-03-29T11:48:33.31Z</time></trkpt><trkpt lat="44.020095" lon="10.9278817"><ele>856.0</ele><time>2026-03-29T11:48:34.31Z</time></trkpt><trkpt lat="44.0200433" lon="10.927985"><ele>855.9999999999999</ele><time>2026-03-29T11:48:35.31Z</time></trkpt><trkpt lat="44.019985" lon="10.9280867"><ele>855.9999999999999</ele><time>2026-03-29T11:48:36.31Z</time></trkpt><trkpt lat="44.019925" lon="10.92819"><ele>856.0</ele><time>2026-03-29T11:48:37.311Z</time></trkpt><trkpt lat="44.01987" lon="10.928295"><ele>856.0</ele><time>2026-03-29T11:48:38.309Z</time></trkpt><trkpt lat="44.01981" lon="10.9284"><ele>854.4</ele><time>2026-03-29T11:48:39.311Z</time></trkpt><trkpt lat="44.0197483" lon="10.9285067"><ele>852.8</ele><time>2026-03-29T11:48:40.309Z</time></trkpt><trkpt lat="44.0196883" lon="10.9286133"><ele>851.1999999999999</ele><time>2026-03-29T11:48:41.31Z</time></trkpt><trkpt lat="44.0196183" lon="10.9287167"><ele>849.5999999999999</ele><time>2026-03-29T11:48:42.309Z</time></trkpt><trkpt lat="44.019545" lon="10.9288083"><ele>848.0</ele><time>2026-03-29T11:48:43.31Z</time></trkpt><trkpt lat="44.019465" lon="10.9288817"><ele>848.0</ele><time>2026-03-29T11:48:44.309Z</time></trkpt><trkpt lat="44.01938" lon="10.9289367"><ele>848.0</ele><time>2026-03-29T11:48:45.309Z</time></trkpt><trkpt lat="44.01929" lon="10.9289767"><ele>848.0</ele><time>2026-03-29T11:48:46.31Z</time></trkpt><trkpt lat="44.0191983" lon="10.9290167"><ele>848.0</ele><time>2026-03-29T11:48:47.31Z</time></trkpt><trkpt lat="44.01911" lon="10.92907"><ele>848.0</ele><time>2026-03-29T11:48:48.31Z</time></trkpt><trkpt lat="44.01903" lon="10.92914"><ele>847.5999999999999</ele><time>2026-03-29T11:48:49.31Z</time></trkpt><trkpt lat="44.018955" lon="10.9292317"><ele>847.1999999999999</ele><time>2026-03-29T11:48:50.31Z</time></trkpt><trkpt lat="44.0188883" lon="10.9293367"><ele>846.8</ele><time>2026-03-29T11:48:51.309Z</time></trkpt><trkpt lat="44.018815" lon="10.929435"><ele>846.4</ele><time>2026-03-29T11:48:52.307Z</time></trkpt><trkpt lat="44.0187317" lon="10.92951"><ele>846.0</ele><time>2026-03-29T11:48:53.309Z</time></trkpt><trkpt lat="44.018645" lon="10.9295533"><ele>846.0</ele><time>2026-03-29T11:48:54.311Z</time></trkpt><trkpt lat="44.01856" lon="10.9295817"><ele>846.0</ele><time>2026-03-29T11:48:55.308Z</time></trkpt><trkpt lat="44.0184767" lon="10.9296117"><ele>846.0</ele><time>2026-03-29T11:48:56.309Z</time></trkpt><trkpt lat="44.0183967" lon="10.929655"><ele>846.0</ele><time>2026-03-29T11:48:57.31Z</time></trkpt><trkpt lat="44.0183217" lon="10.9297217"><ele>846.0</ele><time>2026-03-29T11:48:58.311Z</time></trkpt><trkpt lat="44.018245" lon="10.9298067"><ele>846.0</ele><time>2026-03-29T11:48:59.311Z</time></trkpt><trkpt lat="44.01818" lon="10.92991"><ele>847.1999999999999</ele><time>2026-03-29T11:49:00.309Z</time></trkpt><trkpt lat="44.018125" lon="10.9300267"><ele>848.4</ele><time>2026-03-29T11:49:01.31Z</time></trkpt><trkpt lat="44.01807" lon="10.9301467"><ele>849.6</ele><time>2026-03-29T11:49:02.309Z</time></trkpt><trkpt lat="44.01801" lon="10.930255"><ele>850.8</ele><time>2026-03-29T11:49:03.31Z</time></trkpt><trkpt lat="44.0179417" lon="10.93034"><ele>852.0</ele><time>2026-03-29T11:49:04.309Z</time></trkpt><trkpt lat="44.01787" lon="10.9304067"><ele>852.0</ele><time>2026-03-29T11:49:05.31Z</time></trkpt><trkpt lat="44.01779" lon="10.9304533"><ele>852.0</ele><time>2026-03-29T11:49:06.31Z</time></trkpt><trkpt lat="44.0177" lon="10.93049"><ele>852.0</ele><time>2026-03-29T11:49:07.309Z</time></trkpt><trkpt lat="44.0176" lon="10.9305133"><ele>852.0</ele><time>2026-03-29T11:49:08.31Z</time></trkpt><trkpt lat="44.0174983" lon="10.9305233"><ele>852.0</ele><time>2026-03-29T11:49:09.309Z</time></trkpt><trkpt lat="44.0173933" lon="10.9305317"><ele>852.4000000000001</ele><time>2026-03-29T11:49:10.309Z</time></trkpt><trkpt lat="44.0172917" lon="10.9305317"><ele>852.8000000000001</ele><time>2026-03-29T11:49:11.312Z</time></trkpt><trkpt lat="44.0171933" lon="10.9305283"><ele>853.2</ele><time>2026-03-29T11:49:12.309Z</time></trkpt><trkpt lat="44.0170917" lon="10.9305267"><ele>853.6</ele><time>2026-03-29T11:49:13.31Z</time></trkpt><trkpt lat="44.0169917" lon="10.930515"><ele>854.0</ele><time>2026-03-29T11:49:14.31Z</time></trkpt><trkpt lat="44.0168917" lon="10.93049"><ele>854.0</ele><time>2026-03-29T11:49:15.311Z</time></trkpt><trkpt lat="44.01681" lon="10.9304433"><ele>854.0000000000001</ele><time>2026-03-29T11:49:16.309Z</time></trkpt><trkpt lat="44.0167233" lon="10.9303817"><ele>854.0000000000001</ele><time>2026-03-29T11:49:17.31Z</time></trkpt><trkpt lat="44.016635" lon="10.93033"><ele>854.0</ele><time>2026-03-29T11:49:18.309Z</time></trkpt><trkpt lat="44.0165417" lon="10.9302783"><ele>854.0</ele><time>2026-03-29T11:49:19.31Z</time></trkpt><trkpt lat="44.0164567" lon="10.9302283"><ele>852.2</ele><time>2026-03-29T11:49:20.31Z</time></trkpt><trkpt lat="44.0163717" lon="10.9301683"><ele>850.4000000000001</ele><time>2026-03-29T11:49:21.31Z</time></trkpt><trkpt lat="44.01629" lon="10.9301133"><ele>848.6</ele><time>2026-03-29T11:49:22.31Z</time></trkpt><trkpt lat="44.016205" lon="10.93007"><ele>846.8</ele><time>2026-03-29T11:49:23.308Z</time></trkpt><trkpt lat="44.0161183" lon="10.93003"><ele>845.0</ele><time>2026-03-29T11:49:24.311Z</time></trkpt><trkpt lat="44.016035" lon="10.9299983"><ele>841.8333333333334</ele><time>2026-03-29T11:49:25.309Z</time></trkpt><trkpt lat="44.015955" lon="10.92998"><ele>838.6666666666667</ele><time>2026-03-29T11:49:26.311Z</time></trkpt><trkpt lat="44.0158833" lon="10.929975"><ele>835.5</ele><time>2026-03-29T11:49:27.309Z</time></trkpt><trkpt lat="44.0158133" lon="10.9299833"><ele>832.3333333333333</ele><time>2026-03-29T11:49:28.309Z</time></trkpt><trkpt lat="44.0156967" lon="10.93006"><ele>829.1666666666666</ele><time>2026-03-29T11:49:30.313Z</time></trkpt><trkpt lat="44.0156467" lon="10.9301367"><ele>826.0</ele><time>2026-03-29T11:49:31.309Z</time></trkpt><trkpt lat="44.0156033" lon="10.9302383"><ele>823.4</ele><time>2026-03-29T11:49:32.311Z</time></trkpt><trkpt lat="44.0155533" lon="10.9303417"><ele>820.8</ele><time>2026-03-29T11:49:33.31Z</time></trkpt><trkpt lat="44.0155017" lon="10.9304533"><ele>818.1999999999999</ele><time>2026-03-29T11:49:34.308Z</time></trkpt><trkpt lat="44.0154517" lon="10.9305733"><ele>815.5999999999999</ele><time>2026-03-29T11:49:35.312Z</time></trkpt><trkpt lat="44.0153917" lon="10.9306917"><ele>813.0</ele><time>2026-03-29T11:49:36.311Z</time></trkpt><trkpt lat="44.01534" lon="10.9308183"><ele>815.5999999999999</ele><time>2026-03-29T11:49:37.309Z</time></trkpt><trkpt lat="44.0152967" lon="10.9309517"><ele>818.1999999999999</ele><time>2026-03-29T11:49:38.309Z</time></trkpt><trkpt lat="44.01526" lon="10.9310867"><ele>820.8</ele><time>2026-03-29T11:49:39.308Z</time></trkpt><trkpt lat="44.0152317" lon="10.93123"><ele>823.4</ele><time>2026-03-29T11:49:40.309Z</time></trkpt><trkpt lat="44.0151933" lon="10.9313733"><ele>826.0</ele><time>2026-03-29T11:49:41.311Z</time></trkpt><trkpt lat="44.015155" lon="10.9315133"><ele>826.0</ele><time>2026-03-29T11:49:42.309Z</time></trkpt><trkpt lat="44.015105" lon="10.931645"><ele>826.0</ele><time>2026-03-29T11:49:43.31Z</time></trkpt><trkpt lat="44.01505" lon="10.93177"><ele>826.0</ele><time>2026-03-29T11:49:44.311Z</time></trkpt><trkpt lat="44.0149867" lon="10.93188"><ele>826.0</ele><time>2026-03-29T11:49:45.309Z</time></trkpt><trkpt lat="44.0149217" lon="10.9319833"><ele>826.0</ele><time>2026-03-29T11:49:46.309Z</time></trkpt><trkpt lat="44.014835" lon="10.9320767"><ele>825.75</ele><time>2026-03-29T11:49:47.309Z</time></trkpt><trkpt lat="44.014745" lon="10.9321617"><ele>825.5</ele><time>2026-03-29T11:49:48.311Z</time></trkpt><trkpt lat="44.0146383" lon="10.932225"><ele>825.25</ele><time>2026-03-29T11:49:49.309Z</time></trkpt><trkpt lat="44.01452" lon="10.9322783"><ele>825.0</ele><time>2026-03-29T11:49:50.311Z</time></trkpt><trkpt lat="44.0144" lon="10.93232"><ele>825.0</ele><time>2026-03-29T11:49:51.308Z</time></trkpt><trkpt lat="44.0142867" lon="10.9323467"><ele>825.0</ele><time>2026-03-29T11:49:52.309Z</time></trkpt><trkpt lat="44.0141733" lon="10.9323817"><ele>825.0</ele><time>2026-03-29T11:49:53.311Z</time></trkpt><trkpt lat="44.0140483" lon="10.932415"><ele>825.0</ele><time>2026-03-29T11:49:54.31Z</time></trkpt><trkpt lat="44.0139483" lon="10.9324367"><ele>825.3333333333334</ele><time>2026-03-29T11:49:55.31Z</time></trkpt><trkpt lat="44.01385" lon="10.9324667"><ele>825.6666666666667</ele><time>2026-03-29T11:49:56.309Z</time></trkpt><trkpt lat="44.0137733" lon="10.9325"><ele>826.0</ele><time>2026-03-29T11:49:57.309Z</time></trkpt><trkpt lat="44.0136933" lon="10.9325617"><ele>826.3333333333334</ele><time>2026-03-29T11:49:58.31Z</time></trkpt><trkpt lat="44.0136283" lon="10.9326317"><ele>826.6666666666667</ele><time>2026-03-29T11:49:59.309Z</time></trkpt><trkpt lat="44.0135733" lon="10.9327183"><ele>827.0</ele><time>2026-03-29T11:50:00.311Z</time></trkpt><trkpt lat="44.0135133" lon="10.932815"><ele>827.0</ele><time>2026-03-29T11:50:01.31Z</time></trkpt><trkpt lat="44.01344" lon="10.9328933"><ele>827.0</ele><time>2026-03-29T11:50:02.31Z</time></trkpt><trkpt lat="44.013355" lon="10.9329467"><ele>827.0</ele><time>2026-03-29T11:50:03.309Z</time></trkpt><trkpt lat="44.013265" lon="10.9329867"><ele>827.0</ele><time>2026-03-29T11:50:04.31Z</time></trkpt><trkpt lat="44.0131783" lon="10.933015"><ele>827.0</ele><time>2026-03-29T11:50:05.309Z</time></trkpt><trkpt lat="44.0130883" lon="10.9330333"><ele>825.2</ele><time>2026-03-29T11:50:06.311Z</time></trkpt><trkpt lat="44.0129967" lon="10.9330483"><ele>823.4000000000001</ele><time>2026-03-29T11:50:07.312Z</time></trkpt><trkpt lat="44.012905" lon="10.933075"><ele>821.5999999999999</ele><time>2026-03-29T11:50:08.311Z</time></trkpt><trkpt lat="44.012815" lon="10.9331117"><ele>819.8</ele><time>2026-03-29T11:50:09.31Z</time></trkpt><trkpt lat="44.0127217" lon="10.9331583"><ele>818.0</ele><time>2026-03-29T11:50:10.309Z</time></trkpt><trkpt lat="44.0126383" lon="10.93321"><ele>818.0000000000001</ele><time>2026-03-29T11:50:11.312Z</time></trkpt><trkpt lat="44.0125567" lon="10.93327"><ele>818.0</ele><time>2026-03-29T11:50:12.31Z</time></trkpt><trkpt lat="44.0124683" lon="10.93333"><ele>818.0</ele><time>2026-03-29T11:50:13.311Z</time></trkpt><trkpt lat="44.0123817" lon="10.9333833"><ele>818.0</ele><time>2026-03-29T11:50:14.312Z</time></trkpt><trkpt lat="44.0123067" lon="10.9334133"><ele>818.0000000000001</ele><time>2026-03-29T11:50:15.31Z</time></trkpt><trkpt lat="44.012225" lon="10.9334283"><ele>818.0</ele><time>2026-03-29T11:50:16.312Z</time></trkpt><trkpt lat="44.01214" lon="10.933425"><ele>818.6666666666667</ele><time>2026-03-29T11:50:17.31Z</time></trkpt><trkpt lat="44.0120567" lon="10.9334"><ele>819.3333333333334</ele><time>2026-03-29T11:50:18.31Z</time></trkpt><trkpt lat="44.011965" lon="10.9333567"><ele>820.0</ele><time>2026-03-29T11:50:19.31Z</time></trkpt><trkpt lat="44.0118783" lon="10.933295"><ele>820.6666666666667</ele><time>2026-03-29T11:50:20.31Z</time></trkpt><trkpt lat="44.0118117" lon="10.9332183"><ele>821.3333333333334</ele><time>2026-03-29T11:50:21.31Z</time></trkpt><trkpt lat="44.0117517" lon="10.93314"><ele>822.0</ele><time>2026-03-29T11:50:22.309Z</time></trkpt><trkpt lat="44.01171" lon="10.9330517"><ele>822.0</ele><time>2026-03-29T11:50:23.311Z</time></trkpt><trkpt lat="44.011675" lon="10.9329283"><ele>822.0</ele><time>2026-03-29T11:50:24.311Z</time></trkpt><trkpt lat="44.01165" lon="10.93279"><ele>822.0</ele><time>2026-03-29T11:50:25.31Z</time></trkpt><trkpt lat="44.0116267" lon="10.9326517"><ele>822.0</ele><time>2026-03-29T11:50:26.312Z</time></trkpt><trkpt lat="44.0116" lon="10.93251"><ele>822.0</ele><time>2026-03-29T11:50:27.311Z</time></trkpt><trkpt lat="44.01157" lon="10.9323667"><ele>823.0</ele><time>2026-03-29T11:50:28.31Z</time></trkpt><trkpt lat="44.01153" lon="10.9322367"><ele>824.0</ele><time>2026-03-29T11:50:29.311Z</time></trkpt><trkpt lat="44.01148" lon="10.9321017"><ele>825.0</ele><time>2026-03-29T11:50:30.311Z</time></trkpt><trkpt lat="44.011425" lon="10.9319667"><ele>826.0</ele><time>2026-03-29T11:50:31.311Z</time></trkpt><trkpt lat="44.011365" lon="10.9318333"><ele>827.0</ele><time>2026-03-29T11:50:32.309Z</time></trkpt><trkpt lat="44.0113017" lon="10.931705"><ele>827.0</ele><time>2026-03-29T11:50:33.309Z</time></trkpt><trkpt lat="44.0112317" lon="10.9315867"><ele>827.0</ele><time>2026-03-29T11:50:34.31Z</time></trkpt><trkpt lat="44.01116" lon="10.9314633"><ele>827.0</ele><time>2026-03-29T11:50:35.311Z</time></trkpt><trkpt lat="44.0110833" lon="10.9313483"><ele>827.0</ele><time>2026-03-29T11:50:36.312Z</time></trkpt><trkpt lat="44.0110033" lon="10.9312433"><ele>827.0</ele><time>2026-03-29T11:50:37.31Z</time></trkpt><trkpt lat="44.01093" lon="10.9311283"><ele>827.0</ele><time>2026-03-29T11:50:38.312Z</time></trkpt><trkpt lat="44.0108467" lon="10.931015"><ele>827.0</ele><time>2026-03-29T11:50:39.311Z</time></trkpt><trkpt lat="44.0107667" lon="10.9309067"><ele>827.0</ele><time>2026-03-29T11:50:40.312Z</time></trkpt><trkpt lat="44.0106883" lon="10.9308117"><ele>827.0</ele><time>2026-03-29T11:50:41.311Z</time></trkpt><trkpt lat="44.010605" lon="10.9307267"><ele>827.0</ele><time>2026-03-29T11:50:42.31Z</time></trkpt><trkpt lat="44.0105283" lon="10.9306417"><ele>823.4000000000001</ele><time>2026-03-29T11:50:43.311Z</time></trkpt><trkpt lat="44.01045" lon="10.930565"><ele>819.8000000000001</ele><time>2026-03-29T11:50:44.31Z</time></trkpt><trkpt lat="44.0103683" lon="10.9305017"><ele>816.2</ele><time>2026-03-29T11:50:45.31Z</time></trkpt><trkpt lat="44.01028" lon="10.9304633"><ele>812.6</ele><time>2026-03-29T11:50:46.31Z</time></trkpt><trkpt lat="44.0101867" lon="10.93045"><ele>809.0</ele><time>2026-03-29T11:50:47.31Z</time></trkpt><trkpt lat="44.0100883" lon="10.9304583"><ele>809.0</ele><time>2026-03-29T11:50:48.311Z</time></trkpt><trkpt lat="44.0099933" lon="10.930485"><ele>809.0</ele><time>2026-03-29T11:50:49.309Z</time></trkpt><trkpt lat="44.0098917" lon="10.9305067"><ele>809.0</ele><time>2026-03-29T11:50:50.31Z</time></trkpt><trkpt lat="44.0097933" lon="10.9305283"><ele>809.0</ele><time>2026-03-29T11:50:51.311Z</time></trkpt><trkpt lat="44.00968" lon="10.9305317"><ele>809.0</ele><time>2026-03-29T11:50:52.31Z</time></trkpt><trkpt lat="44.0095717" lon="10.9305083"><ele>807.75</ele><time>2026-03-29T11:50:53.308Z</time></trkpt><trkpt lat="44.009465" lon="10.9304583"><ele>806.5</ele><time>2026-03-29T11:50:54.309Z</time></trkpt><trkpt lat="44.0093583" lon="10.93038"><ele>805.25</ele><time>2026-03-29T11:50:55.309Z</time></trkpt><trkpt lat="44.0092733" lon="10.9302433"><ele>804.0</ele><time>2026-03-29T11:50:56.309Z</time></trkpt><trkpt lat="44.0092133" lon="10.93011"><ele>800.4000000000001</ele><time>2026-03-29T11:50:57.31Z</time></trkpt><trkpt lat="44.009165" lon="10.9299717"><ele>796.8</ele><time>2026-03-29T11:50:58.308Z</time></trkpt><trkpt lat="44.0091133" lon="10.9298467"><ele>793.2</ele><time>2026-03-29T11:50:59.309Z</time></trkpt><trkpt lat="44.0090533" lon="10.9297367"><ele>789.5999999999999</ele><time>2026-03-29T11:51:00.307Z</time></trkpt><trkpt lat="44.0089817" lon="10.92964"><ele>786.0</ele><time>2026-03-29T11:51:01.308Z</time></trkpt><trkpt lat="44.0089033" lon="10.9295633"><ele>785.1999999999999</ele><time>2026-03-29T11:51:02.31Z</time></trkpt><trkpt lat="44.008815" lon="10.92951"><ele>784.4</ele><time>2026-03-29T11:51:03.309Z</time></trkpt><trkpt lat="44.0087267" lon="10.929475"><ele>783.6</ele><time>2026-03-29T11:51:04.311Z</time></trkpt><trkpt lat="44.0086333" lon="10.92946"><ele>782.8</ele><time>2026-03-29T11:51:05.309Z</time></trkpt><trkpt lat="44.008535" lon="10.92947"><ele>782.0</ele><time>2026-03-29T11:51:06.308Z</time></trkpt><trkpt lat="44.0084367" lon="10.929505"><ele>782.0</ele><time>2026-03-29T11:51:07.311Z</time></trkpt><trkpt lat="44.00834" lon="10.9295583"><ele>782.0</ele><time>2026-03-29T11:51:08.31Z</time></trkpt><trkpt lat="44.008255" lon="10.929635"><ele>782.0</ele><time>2026-03-29T11:51:09.31Z</time></trkpt><trkpt lat="44.008175" lon="10.929735"><ele>782.0</ele><time>2026-03-29T11:51:10.31Z</time></trkpt><trkpt lat="44.0081" lon="10.9298467"><ele>782.0</ele><time>2026-03-29T11:51:11.309Z</time></trkpt><trkpt lat="44.00803" lon="10.9299767"><ele>776.0</ele><time>2026-03-29T11:51:12.308Z</time></trkpt><trkpt lat="44.0079667" lon="10.9301117"><ele>770.0</ele><time>2026-03-29T11:51:13.31Z</time></trkpt><trkpt lat="44.0079083" lon="10.93025"><ele>764.0</ele><time>2026-03-29T11:51:14.309Z</time></trkpt><trkpt lat="44.0078583" lon="10.9303917"><ele>758.0</ele><time>2026-03-29T11:51:15.31Z</time></trkpt><trkpt lat="44.0078167" lon="10.9305367"><ele>758.0</ele><time>2026-03-29T11:51:16.31Z</time></trkpt><trkpt lat="44.00779" lon="10.9306917"><ele>758.0</ele><time>2026-03-29T11:51:17.309Z</time></trkpt><trkpt lat="44.007775" lon="10.9308533"><ele>758.0</ele><time>2026-03-29T11:51:18.309Z</time></trkpt><trkpt lat="44.00777" lon="10.931025"><ele>758.0</ele><time>2026-03-29T11:51:19.313Z</time></trkpt><trkpt lat="44.0077717" lon="10.9311967"><ele>758.5</ele><time>2026-03-29T11:51:20.309Z</time></trkpt><trkpt lat="44.0077683" lon="10.93137"><ele>759.0</ele><time>2026-03-29T11:51:21.309Z</time></trkpt><trkpt lat="44.0077617" lon="10.931545"><ele>759.5</ele><time>2026-03-29T11:51:22.31Z</time></trkpt><trkpt lat="44.0077383" lon="10.931725"><ele>760.0</ele><time>2026-03-29T11:51:23.31Z</time></trkpt><trkpt lat="44.0077067" lon="10.931895"><ele>761.6</ele><time>2026-03-29T11:51:24.309Z</time></trkpt><trkpt lat="44.0076783" lon="10.9320467"><ele>763.2</ele><time>2026-03-29T11:51:25.309Z</time></trkpt><trkpt lat="44.0076467" lon="10.9321817"><ele>764.8</ele><time>2026-03-29T11:51:26.309Z</time></trkpt><trkpt lat="44.0076217" lon="10.9323033"><ele>766.4</ele><time>2026-03-29T11:51:27.309Z</time></trkpt><trkpt lat="44.0075933" lon="10.932405"><ele>768.0</ele><time>2026-03-29T11:51:28.309Z</time></trkpt><trkpt lat="44.0075567" lon="10.932485"><ele>758.8</ele><time>2026-03-29T11:51:29.309Z</time></trkpt><trkpt lat="44.0074533" lon="10.9325283"><ele>749.5999999999999</ele><time>2026-03-29T11:51:31.309Z</time></trkpt><trkpt lat="44.00735" lon="10.9324533"><ele>740.4000000000001</ele><time>2026-03-29T11:51:33.309Z</time></trkpt><trkpt lat="44.0073633" lon="10.9322617"><ele>731.2</ele><time>2026-03-29T11:51:35.31Z</time></trkpt><trkpt lat="44.007395" lon="10.93215"><ele>722.0</ele><time>2026-03-29T11:51:36.309Z</time></trkpt><trkpt lat="44.0074283" lon="10.9320417"><ele>722.0</ele><time>2026-03-29T11:51:37.309Z</time></trkpt><trkpt lat="44.0074583" lon="10.93193"><ele>722.0</ele><time>2026-03-29T11:51:38.309Z</time></trkpt><trkpt lat="44.007495" lon="10.9318083"><ele>722.0</ele><time>2026-03-29T11:51:39.308Z</time></trkpt><trkpt lat="44.00752" lon="10.9316783"><ele>722.0</ele><time>2026-03-29T11:51:40.307Z</time></trkpt><trkpt lat="44.007535" lon="10.9315483"><ele>722.0</ele><time>2026-03-29T11:51:41.307Z</time></trkpt><trkpt lat="44.007535" lon="10.93142"><ele>722.2</ele><time>2026-03-29T11:51:42.309Z</time></trkpt><trkpt lat="44.007515" lon="10.931275"><ele>722.4000000000001</ele><time>2026-03-29T11:51:43.307Z</time></trkpt><trkpt lat="44.0074867" lon="10.9311417"><ele>722.5999999999999</ele><time>2026-03-29T11:51:44.309Z</time></trkpt><trkpt lat="44.0074483" lon="10.9310083"><ele>722.8</ele><time>2026-03-29T11:51:45.308Z</time></trkpt><trkpt lat="44.00741" lon="10.930865"><ele>723.0</ele><time>2026-03-29T11:51:46.309Z</time></trkpt><trkpt lat="44.00738" lon="10.9307167"><ele>723.0</ele><time>2026-03-29T11:51:47.312Z</time></trkpt><trkpt lat="44.007345" lon="10.9305667"><ele>723.0</ele><time>2026-03-29T11:51:48.307Z</time></trkpt><trkpt lat="44.007325" lon="10.9304133"><ele>723.0</ele><time>2026-03-29T11:51:49.308Z</time></trkpt><trkpt lat="44.00731" lon="10.9302483"><ele>723.0</ele><time>2026-03-29T11:51:50.309Z</time></trkpt><trkpt lat="44.007305" lon="10.9300817"><ele>722.75</ele><time>2026-03-29T11:51:51.308Z</time></trkpt><trkpt lat="44.0073067" lon="10.92991"><ele>722.5</ele><time>2026-03-29T11:51:52.309Z</time></trkpt><trkpt lat="44.0073117" lon="10.9297433"><ele>722.25</ele><time>2026-03-29T11:51:53.31Z</time></trkpt><trkpt lat="44.00732" lon="10.9295733"><ele>722.0</ele><time>2026-03-29T11:51:54.309Z</time></trkpt><trkpt lat="44.0073333" lon="10.9294"><ele>722.0</ele><time>2026-03-29T11:51:55.307Z</time></trkpt><trkpt lat="44.007345" lon="10.9292317"><ele>722.0</ele><time>2026-03-29T11:51:56.307Z</time></trkpt><trkpt lat="44.0073567" lon="10.9290567"><ele>722.0</ele><time>2026-03-29T11:51:57.308Z</time></trkpt><trkpt lat="44.00737" lon="10.9288783"><ele>722.0</ele><time>2026-03-29T11:51:58.308Z</time></trkpt><trkpt lat="44.0073833" lon="10.9287083"><ele>720.5</ele><time>2026-03-29T11:51:59.308Z</time></trkpt><trkpt lat="44.0073967" lon="10.9285433"><ele>719.0</ele><time>2026-03-29T11:52:00.308Z</time></trkpt><trkpt lat="44.007415" lon="10.9283833"><ele>717.5</ele><time>2026-03-29T11:52:01.31Z</time></trkpt><trkpt lat="44.00745" lon="10.9282267"><ele>716.0</ele><time>2026-03-29T11:52:02.309Z</time></trkpt><trkpt lat="44.007495" lon="10.92807"><ele>718.25</ele><time>2026-03-29T11:52:03.31Z</time></trkpt><trkpt lat="44.0075467" lon="10.9279183"><ele>720.5</ele><time>2026-03-29T11:52:04.31Z</time></trkpt><trkpt lat="44.0076083" lon="10.9277733"><ele>722.75</ele><time>2026-03-29T11:52:05.309Z</time></trkpt><trkpt lat="44.0076733" lon="10.9276383"><ele>725.0</ele><time>2026-03-29T11:52:06.308Z</time></trkpt><trkpt lat="44.0077417" lon="10.9275083"><ele>725.0</ele><time>2026-03-29T11:52:07.309Z</time></trkpt><trkpt lat="44.00781" lon="10.9274017"><ele>725.0</ele><time>2026-03-29T11:52:08.309Z</time></trkpt><trkpt lat="44.007875" lon="10.9273067"><ele>725.0</ele><time>2026-03-29T11:52:09.309Z</time></trkpt><trkpt lat="44.0079317" lon="10.9272233"><ele>725.0</ele><time>2026-03-29T11:52:10.309Z</time></trkpt><trkpt lat="44.0079817" lon="10.9271383"><ele>725.0</ele><time>2026-03-29T11:52:11.308Z</time></trkpt><trkpt lat="44.0080167" lon="10.9270533"><ele>725.0</ele><time>2026-03-29T11:52:12.31Z</time></trkpt><trkpt lat="44.00803" lon="10.9269667"><ele>725.0</ele><time>2026-03-29T11:52:13.309Z</time></trkpt><trkpt lat="44.0079833" lon="10.926815"><ele>725.0</ele><time>2026-03-29T11:52:15.308Z</time></trkpt><trkpt lat="44.0078783" lon="10.9267433"><ele>725.0</ele><time>2026-03-29T11:52:17.309Z</time></trkpt><trkpt lat="44.0078067" lon="10.92679"><ele>725.0</ele><time>2026-03-29T11:52:18.31Z</time></trkpt><trkpt lat="44.0077467" lon="10.9268617"><ele>725.0</ele><time>2026-03-29T11:52:19.31Z</time></trkpt><trkpt lat="44.0076917" lon="10.9269533"><ele>725.0</ele><time>2026-03-29T11:52:20.309Z</time></trkpt><trkpt lat="44.0076417" lon="10.92706"><ele>725.0</ele><time>2026-03-29T11:52:21.31Z</time></trkpt><trkpt lat="44.0075917" lon="10.9271883"><ele>725.0</ele><time>2026-03-29T11:52:22.31Z</time></trkpt><trkpt lat="44.0075383" lon="10.927325"><ele>725.0</ele><time>2026-03-29T11:52:23.311Z</time></trkpt><trkpt lat="44.0074733" lon="10.9274583"><ele>725.0</ele><time>2026-03-29T11:52:24.312Z</time></trkpt><trkpt lat="44.0074" lon="10.9275833"><ele>721.75</ele><time>2026-03-29T11:52:25.311Z</time></trkpt><trkpt lat="44.00732" lon="10.9277033"><ele>718.5</ele><time>2026-03-29T11:52:26.309Z</time></trkpt><trkpt lat="44.0072433" lon="10.9278133"><ele>715.25</ele><time>2026-03-29T11:52:27.309Z</time></trkpt><trkpt lat="44.0071583" lon="10.92792"><ele>712.0</ele><time>2026-03-29T11:52:28.308Z</time></trkpt><trkpt lat="44.0070767" lon="10.928035"><ele>712.0</ele><time>2026-03-29T11:52:29.309Z</time></trkpt><trkpt lat="44.0069917" lon="10.9281583"><ele>712.0</ele><time>2026-03-29T11:52:30.31Z</time></trkpt><trkpt lat="44.006915" lon="10.928295"><ele>712.0</ele><time>2026-03-29T11:52:31.31Z</time></trkpt><trkpt lat="44.0068517" lon="10.928445"><ele>712.0</ele><time>2026-03-29T11:52:32.311Z</time></trkpt><trkpt lat="44.006795" lon="10.92861"><ele>713.0</ele><time>2026-03-29T11:52:33.31Z</time></trkpt><trkpt lat="44.00676" lon="10.928775"><ele>714.0</ele><time>2026-03-29T11:52:34.309Z</time></trkpt><trkpt lat="44.006715" lon="10.9289433"><ele>715.0</ele><time>2026-03-29T11:52:35.311Z</time></trkpt><trkpt lat="44.00667" lon="10.929115"><ele>716.0</ele><time>2026-03-29T11:52:36.307Z</time></trkpt><trkpt lat="44.006615" lon="10.92929"><ele>709.25</ele><time>2026-03-29T11:52:37.31Z</time></trkpt><trkpt lat="44.0065517" lon="10.9294533"><ele>702.5</ele><time>2026-03-29T11:52:38.309Z</time></trkpt><trkpt lat="44.0064917" lon="10.9296117"><ele>695.75</ele><time>2026-03-29T11:52:39.31Z</time></trkpt><trkpt lat="44.0064333" lon="10.929765"><ele>689.0</ele><time>2026-03-29T11:52:40.31Z</time></trkpt><trkpt lat="44.006385" lon="10.9299217"><ele>688.0</ele><time>2026-03-29T11:52:41.31Z</time></trkpt><trkpt lat="44.0063383" lon="10.930085"><ele>687.0</ele><time>2026-03-29T11:52:42.309Z</time></trkpt><trkpt lat="44.006305" lon="10.9302583"><ele>686.0</ele><time>2026-03-29T11:52:43.309Z</time></trkpt><trkpt lat="44.0062867" lon="10.930435"><ele>685.0</ele><time>2026-03-29T11:52:44.31Z</time></trkpt><trkpt lat="44.006275" lon="10.9306183"><ele>685.0</ele><time>2026-03-29T11:52:45.31Z</time></trkpt><trkpt lat="44.0062633" lon="10.9308083"><ele>685.0</ele><time>2026-03-29T11:52:46.308Z</time></trkpt><trkpt lat="44.0062583" lon="10.931"><ele>685.0</ele><time>2026-03-29T11:52:47.309Z</time></trkpt><trkpt lat="44.0062583" lon="10.9311933"><ele>685.0</ele><time>2026-03-29T11:52:48.31Z</time></trkpt><trkpt lat="44.00626" lon="10.9313867"><ele>683.5</ele><time>2026-03-29T11:52:49.31Z</time></trkpt><trkpt lat="44.0062683" lon="10.9315767"><ele>682.0</ele><time>2026-03-29T11:52:50.309Z</time></trkpt><trkpt lat="44.0062783" lon="10.9317583"><ele>680.5</ele><time>2026-03-29T11:52:51.309Z</time></trkpt><trkpt lat="44.0062933" lon="10.9319267"><ele>679.0</ele><time>2026-03-29T11:52:52.309Z</time></trkpt><trkpt lat="44.0063083" lon="10.9320767"><ele>678.8000000000001</ele><time>2026-03-29T11:52:53.309Z</time></trkpt><trkpt lat="44.0063233" lon="10.9322"><ele>678.6</ele><time>2026-03-29T11:52:54.31Z</time></trkpt><trkpt lat="44.0063383" lon="10.9323117"><ele>678.4</ele><time>2026-03-29T11:52:55.309Z</time></trkpt><trkpt lat="44.0063483" lon="10.9324117"><ele>678.2</ele><time>2026-03-29T11:52:56.31Z</time></trkpt><trkpt lat="44.0063433" lon="10.9325667"><ele>678.0</ele><time>2026-03-29T11:52:58.31Z</time></trkpt><trkpt lat="44.0062517" lon="10.9326"><ele>678.0</ele><time>2026-03-29T11:53:00.31Z</time></trkpt><trkpt lat="44.0061867" lon="10.932555"><ele>678.0</ele><time>2026-03-29T11:53:01.308Z</time></trkpt><trkpt lat="44.00613" lon="10.932475"><ele>678.0</ele><time>2026-03-29T11:53:02.31Z</time></trkpt><trkpt lat="44.006085" lon="10.9323833"><ele>678.0</ele><time>2026-03-29T11:53:03.309Z</time></trkpt><trkpt lat="44.006075" lon="10.9322683"><ele>678.0</ele><time>2026-03-29T11:53:04.309Z</time></trkpt><trkpt lat="44.0060867" lon="10.9321317"><ele>678.0</ele><time>2026-03-29T11:53:05.311Z</time></trkpt><trkpt lat="44.0060983" lon="10.931985"><ele>678.0</ele><time>2026-03-29T11:53:06.309Z</time></trkpt><trkpt lat="44.006105" lon="10.9318367"><ele>678.0</ele><time>2026-03-29T11:53:07.311Z</time></trkpt><trkpt lat="44.006105" lon="10.9316967"><ele>678.0</ele><time>2026-03-29T11:53:08.309Z</time></trkpt><trkpt lat="44.0061" lon="10.9315583"><ele>678.0</ele><time>2026-03-29T11:53:09.31Z</time></trkpt><trkpt lat="44.0060783" lon="10.93142"><ele>678.0</ele><time>2026-03-29T11:53:10.31Z</time></trkpt><trkpt lat="44.006045" lon="10.931275"><ele>678.2</ele><time>2026-03-29T11:53:11.308Z</time></trkpt><trkpt lat="44.0060017" lon="10.9311283"><ele>678.4</ele><time>2026-03-29T11:53:12.309Z</time></trkpt><trkpt lat="44.00595" lon="10.9309917"><ele>678.6</ele><time>2026-03-29T11:53:13.311Z</time></trkpt><trkpt lat="44.0059033" lon="10.9308617"><ele>678.8000000000001</ele><time>2026-03-29T11:53:14.311Z</time></trkpt><trkpt lat="44.00586" lon="10.9307433"><ele>679.0</ele><time>2026-03-29T11:53:15.31Z</time></trkpt><trkpt lat="44.0058233" lon="10.9306283"><ele>673.4000000000001</ele><time>2026-03-29T11:53:16.309Z</time></trkpt><trkpt lat="44.0057883" lon="10.9305033"><ele>667.8</ele><time>2026-03-29T11:53:17.31Z</time></trkpt><trkpt lat="44.00576" lon="10.9303683"><ele>662.2</ele><time>2026-03-29T11:53:18.309Z</time></trkpt><trkpt lat="44.0057433" lon="10.9302283"><ele>656.5999999999999</ele><time>2026-03-29T11:53:19.308Z</time></trkpt><trkpt lat="44.005745" lon="10.9300833"><ele>651.0</ele><time>2026-03-29T11:53:20.311Z</time></trkpt><trkpt lat="44.005755" lon="10.9299333"><ele>651.0</ele><time>2026-03-29T11:53:21.31Z</time></trkpt><trkpt lat="44.005765" lon="10.9297833"><ele>651.0</ele><time>2026-03-29T11:53:22.308Z</time></trkpt><trkpt lat="44.0057733" lon="10.9296383"><ele>651.0</ele><time>2026-03-29T11:53:23.31Z</time></trkpt><trkpt lat="44.0057717" lon="10.9295033"><ele>651.0</ele><time>2026-03-29T11:53:24.31Z</time></trkpt><trkpt lat="44.005755" lon="10.9293667"><ele>651.0</ele><time>2026-03-29T11:53:25.308Z</time></trkpt><trkpt lat="44.00572" lon="10.929245"><ele>652.0</ele><time>2026-03-29T11:53:26.311Z</time></trkpt><trkpt lat="44.0056767" lon="10.929115"><ele>653.0</ele><time>2026-03-29T11:53:27.309Z</time></trkpt><trkpt lat="44.0056167" lon="10.9289867"><ele>654.0</ele><time>2026-03-29T11:53:28.311Z</time></trkpt><trkpt lat="44.0055483" lon="10.9288617"><ele>655.0</ele><time>2026-03-29T11:53:29.309Z</time></trkpt><trkpt lat="44.0054717" lon="10.9287467"><ele>656.0</ele><time>2026-03-29T11:53:30.309Z</time></trkpt><trkpt lat="44.0053933" lon="10.92863"><ele>656.0</ele><time>2026-03-29T11:53:31.309Z</time></trkpt><trkpt lat="44.0053217" lon="10.9285233"><ele>656.0</ele><time>2026-03-29T11:53:32.31Z</time></trkpt><trkpt lat="44.0052517" lon="10.9284133"><ele>656.0</ele><time>2026-03-29T11:53:33.309Z</time></trkpt><trkpt lat="44.0051917" lon="10.9283033"><ele>656.0</ele><time>2026-03-29T11:53:34.31Z</time></trkpt><trkpt lat="44.005145" lon="10.928195"><ele>656.0</ele><time>2026-03-29T11:53:35.31Z</time></trkpt><trkpt lat="44.0051033" lon="10.9280833"><ele>657.5999999999999</ele><time>2026-03-29T11:53:36.309Z</time></trkpt><trkpt lat="44.0050767" lon="10.9279567"><ele>659.2</ele><time>2026-03-29T11:53:37.309Z</time></trkpt><trkpt lat="44.0050633" lon="10.92782"><ele>660.8</ele><time>2026-03-29T11:53:38.309Z</time></trkpt><trkpt lat="44.0050733" lon="10.9276833"><ele>662.4000000000001</ele><time>2026-03-29T11:53:39.31Z</time></trkpt><trkpt lat="44.0051033" lon="10.9275467"><ele>664.0</ele><time>2026-03-29T11:53:40.309Z</time></trkpt><trkpt lat="44.005155" lon="10.9274083"><ele>664.0</ele><time>2026-03-29T11:53:41.31Z</time></trkpt><trkpt lat="44.0052267" lon="10.9272767"><ele>664.0</ele><time>2026-03-29T11:53:42.31Z</time></trkpt><trkpt lat="44.0053067" lon="10.9271533"><ele>664.0</ele><time>2026-03-29T11:53:43.309Z</time></trkpt><trkpt lat="44.0054017" lon="10.927045"><ele>664.0</ele><time>2026-03-29T11:53:44.311Z</time></trkpt><trkpt lat="44.0055" lon="10.926945"><ele>664.0</ele><time>2026-03-29T11:53:45.31Z</time></trkpt><trkpt lat="44.0055983" lon="10.9268567"><ele>664.0</ele><time>2026-03-29T11:53:46.31Z</time></trkpt><trkpt lat="44.0056917" lon="10.9267767"><ele>664.0</ele><time>2026-03-29T11:53:47.311Z</time></trkpt><trkpt lat="44.0057767" lon="10.9266917"><ele>664.0</ele><time>2026-03-29T11:53:48.309Z</time></trkpt><trkpt lat="44.0058583" lon="10.9265983"><ele>664.0</ele><time>2026-03-29T11:53:49.309Z</time></trkpt><trkpt lat="44.005935" lon="10.9264933"><ele>664.0</ele><time>2026-03-29T11:53:50.308Z</time></trkpt><trkpt lat="44.0060017" lon="10.9263733"><ele>664.0</ele><time>2026-03-29T11:53:51.309Z</time></trkpt><trkpt lat="44.0060583" lon="10.9262417"><ele>664.0</ele><time>2026-03-29T11:53:52.308Z</time></trkpt><trkpt lat="44.0061067" lon="10.926095"><ele>664.0</ele><time>2026-03-29T11:53:53.308Z</time></trkpt><trkpt lat="44.0061417" lon="10.9259433"><ele>661.6</ele><time>2026-03-29T11:53:54.31Z</time></trkpt><trkpt lat="44.0061633" lon="10.9257933"><ele>659.2</ele><time>2026-03-29T11:53:55.31Z</time></trkpt><trkpt lat="44.006175" lon="10.9256467"><ele>656.8000000000001</ele><time>2026-03-29T11:53:56.309Z</time></trkpt><trkpt lat="44.0061733" lon="10.9254967"><ele>654.4000000000001</ele><time>2026-03-29T11:53:57.309Z</time></trkpt><trkpt lat="44.0061583" lon="10.9253517"><ele>652.0</ele><time>2026-03-29T11:53:58.311Z</time></trkpt><trkpt lat="44.006125" lon="10.9252083"><ele>652.0</ele><time>2026-03-29T11:53:59.309Z</time></trkpt><trkpt lat="44.0060767" lon="10.9250683"><ele>652.0</ele><time>2026-03-29T11:54:00.31Z</time></trkpt><trkpt lat="44.00602" lon="10.9249333"><ele>652.0</ele><time>2026-03-29T11:54:01.311Z</time></trkpt><trkpt lat="44.005955" lon="10.9247983"><ele>652.0</ele><time>2026-03-29T11:54:02.309Z</time></trkpt><trkpt lat="44.0058917" lon="10.9246617"><ele>645.0</ele><time>2026-03-29T11:54:03.309Z</time></trkpt><trkpt lat="44.0058283" lon="10.92452"><ele>638.0</ele><time>2026-03-29T11:54:04.308Z</time></trkpt><trkpt lat="44.0057717" lon="10.924375"><ele>631.0</ele><time>2026-03-29T11:54:05.307Z</time></trkpt><trkpt lat="44.0057183" lon="10.9242317"><ele>624.0</ele><time>2026-03-29T11:54:06.307Z</time></trkpt><trkpt lat="44.005675" lon="10.9240833"><ele>623.0</ele><time>2026-03-29T11:54:07.307Z</time></trkpt><trkpt lat="44.0056367" lon="10.92393"><ele>622.0</ele><time>2026-03-29T11:54:08.307Z</time></trkpt><trkpt lat="44.0056017" lon="10.9237833"><ele>621.0</ele><time>2026-03-29T11:54:09.307Z</time></trkpt><trkpt lat="44.0055767" lon="10.923625"><ele>620.0</ele><time>2026-03-29T11:54:10.308Z</time></trkpt><trkpt lat="44.0055517" lon="10.92347"><ele>620.5</ele><time>2026-03-29T11:54:11.307Z</time></trkpt><trkpt lat="44.0055317" lon="10.9233117"><ele>621.0</ele><time>2026-03-29T11:54:12.307Z</time></trkpt><trkpt lat="44.0055167" lon="10.92315"><ele>621.5</ele><time>2026-03-29T11:54:13.31Z</time></trkpt><trkpt lat="44.0055033" lon="10.9229933"><ele>622.0</ele><time>2026-03-29T11:54:14.312Z</time></trkpt><trkpt lat="44.00549" lon="10.9228433"><ele>622.0</ele><time>2026-03-29T11:54:15.309Z</time></trkpt><trkpt lat="44.0054783" lon="10.9227"><ele>622.0</ele><time>2026-03-29T11:54:16.311Z</time></trkpt><trkpt lat="44.0054667" lon="10.92256"><ele>622.0</ele><time>2026-03-29T11:54:17.309Z</time></trkpt><trkpt lat="44.0054533" lon="10.9224317"><ele>622.0</ele><time>2026-03-29T11:54:18.31Z</time></trkpt><trkpt lat="44.0054417" lon="10.922315"><ele>622.0</ele><time>2026-03-29T11:54:19.311Z</time></trkpt><trkpt lat="44.0054317" lon="10.922205"><ele>622.6</ele><time>2026-03-29T11:54:20.312Z</time></trkpt><trkpt lat="44.0054183" lon="10.9221167"><ele>623.2</ele><time>2026-03-29T11:54:21.31Z</time></trkpt><trkpt lat="44.0054133" lon="10.92197"><ele>623.8</ele><time>2026-03-29T11:54:23.309Z</time></trkpt><trkpt lat="44.0054" lon="10.9218333"><ele>624.4</ele><time>2026-03-29T11:54:25.311Z</time></trkpt><trkpt lat="44.00536" lon="10.9216817"><ele>625.0</ele><time>2026-03-29T11:54:27.309Z</time></trkpt><trkpt lat="44.0053267" lon="10.921605"><ele>625.0</ele><time>2026-03-29T11:54:28.309Z</time></trkpt><trkpt lat="44.005285" lon="10.9215267"><ele>625.0</ele><time>2026-03-29T11:54:29.31Z</time></trkpt><trkpt lat="44.0052367" lon="10.9214417"><ele>625.0</ele><time>2026-03-29T11:54:30.309Z</time></trkpt><trkpt lat="44.0051817" lon="10.921345"><ele>625.0</ele><time>2026-03-29T11:54:31.308Z</time></trkpt><trkpt lat="44.005125" lon="10.921245"><ele>625.0</ele><time>2026-03-29T11:54:32.31Z</time></trkpt><trkpt lat="44.005065" lon="10.9211417"><ele>625.0</ele><time>2026-03-29T11:54:33.308Z</time></trkpt><trkpt lat="44.005" lon="10.9210467"><ele>622.4</ele><time>2026-03-29T11:54:34.308Z</time></trkpt><trkpt lat="44.004935" lon="10.920955"><ele>619.8</ele><time>2026-03-29T11:54:35.31Z</time></trkpt><trkpt lat="44.00487" lon="10.920865"><ele>617.2</ele><time>2026-03-29T11:54:36.31Z</time></trkpt><trkpt lat="44.004805" lon="10.9207833"><ele>614.6</ele><time>2026-03-29T11:54:37.31Z</time></trkpt><trkpt lat="44.00474" lon="10.9207017"><ele>612.0</ele><time>2026-03-29T11:54:38.312Z</time></trkpt><trkpt lat="44.0046667" lon="10.9206167"><ele>612.0</ele><time>2026-03-29T11:54:39.31Z</time></trkpt><trkpt lat="44.0045933" lon="10.9205383"><ele>612.0</ele><time>2026-03-29T11:54:40.313Z</time></trkpt><trkpt lat="44.0045233" lon="10.9204583"><ele>612.0</ele><time>2026-03-29T11:54:41.31Z</time></trkpt><trkpt lat="44.0044433" lon="10.9203717"><ele>612.0</ele><time>2026-03-29T11:54:42.312Z</time></trkpt><trkpt lat="44.00436" lon="10.9202883"><ele>612.0</ele><time>2026-03-29T11:54:43.311Z</time></trkpt><trkpt lat="44.004275" lon="10.92021"><ele>612.0</ele><time>2026-03-29T11:54:44.312Z</time></trkpt><trkpt lat="44.0041917" lon="10.9201333"><ele>612.0</ele><time>2026-03-29T11:54:45.311Z</time></trkpt><trkpt lat="44.0041133" lon="10.9200617"><ele>612.0</ele><time>2026-03-29T11:54:46.311Z</time></trkpt><trkpt lat="44.0040367" lon="10.92"><ele>612.0</ele><time>2026-03-29T11:54:47.312Z</time></trkpt><trkpt lat="44.0039633" lon="10.9199517"><ele>612.0</ele><time>2026-03-29T11:54:48.311Z</time></trkpt><trkpt lat="44.00389" lon="10.9199167"><ele>612.0</ele><time>2026-03-29T11:54:49.312Z</time></trkpt><trkpt lat="44.003815" lon="10.9198867"><ele>614.1666666666666</ele><time>2026-03-29T11:54:50.312Z</time></trkpt><trkpt lat="44.0037383" lon="10.9198717"><ele>616.3333333333334</ele><time>2026-03-29T11:54:51.309Z</time></trkpt><trkpt lat="44.0036633" lon="10.91988"><ele>618.5</ele><time>2026-03-29T11:54:52.309Z</time></trkpt><trkpt lat="44.0035867" lon="10.9199033"><ele>620.6666666666667</ele><time>2026-03-29T11:54:53.309Z</time></trkpt><trkpt lat="44.0035117" lon="10.919945"><ele>622.8333333333334</ele><time>2026-03-29T11:54:54.31Z</time></trkpt><trkpt lat="44.0034317" lon="10.92"><ele>625.0</ele><time>2026-03-29T11:54:55.311Z</time></trkpt><trkpt lat="44.00335" lon="10.920055"><ele>618.4</ele><time>2026-03-29T11:54:56.311Z</time></trkpt><trkpt lat="44.003265" lon="10.920105"><ele>611.8</ele><time>2026-03-29T11:54:57.309Z</time></trkpt><trkpt lat="44.0031767" lon="10.9201417"><ele>605.2</ele><time>2026-03-29T11:54:58.311Z</time></trkpt><trkpt lat="44.0030833" lon="10.9201667"><ele>598.6</ele><time>2026-03-29T11:54:59.31Z</time></trkpt><trkpt lat="44.0029917" lon="10.9201783"><ele>592.0</ele><time>2026-03-29T11:55:00.309Z</time></trkpt><trkpt lat="44.0028983" lon="10.92017"><ele>592.0</ele><time>2026-03-29T11:55:01.312Z</time></trkpt><trkpt lat="44.0028" lon="10.92014"><ele>592.0</ele><time>2026-03-29T11:55:02.31Z</time></trkpt><trkpt lat="44.002705" lon="10.920085"><ele>592.0</ele><time>2026-03-29T11:55:03.309Z</time></trkpt><trkpt lat="44.0026133" lon="10.920015"><ele>592.0</ele><time>2026-03-29T11:55:04.309Z</time></trkpt><trkpt lat="44.0025217" lon="10.9199367"><ele>592.0</ele><time>2026-03-29T11:55:05.311Z</time></trkpt><trkpt lat="44.002435" lon="10.9198517"><ele>591.2</ele><time>2026-03-29T11:55:06.31Z</time></trkpt><trkpt lat="44.0023483" lon="10.9197683"><ele>590.4000000000001</ele><time>2026-03-29T11:55:07.309Z</time></trkpt><trkpt lat="44.0022667" lon="10.9196767"><ele>589.5999999999999</ele><time>2026-03-29T11:55:08.311Z</time></trkpt><trkpt lat="44.0021933" lon="10.9195783"><ele>588.8</ele><time>2026-03-29T11:55:09.312Z</time></trkpt><trkpt lat="44.002125" lon="10.9194817"><ele>588.0</ele><time>2026-03-29T11:55:10.311Z</time></trkpt><trkpt lat="44.002065" lon="10.9193933"><ele>588.0</ele><time>2026-03-29T11:55:11.313Z</time></trkpt><trkpt lat="44.0020133" lon="10.919295"><ele>588.0</ele><time>2026-03-29T11:55:12.313Z</time></trkpt><trkpt lat="44.0019717" lon="10.9191867"><ele>588.0</ele><time>2026-03-29T11:55:13.309Z</time></trkpt><trkpt lat="44.00194" lon="10.9190733"><ele>588.0</ele><time>2026-03-29T11:55:14.311Z</time></trkpt><trkpt lat="44.0019233" lon="10.91895"><ele>588.0</ele><time>2026-03-29T11:55:15.311Z</time></trkpt><trkpt lat="44.00191" lon="10.918825"><ele>588.0</ele><time>2026-03-29T11:55:16.31Z</time></trkpt><trkpt lat="44.0019017" lon="10.918695"><ele>590.4</ele><time>2026-03-29T11:55:17.31Z</time></trkpt><trkpt lat="44.001885" lon="10.9185683"><ele>592.8</ele><time>2026-03-29T11:55:18.312Z</time></trkpt><trkpt lat="44.0018517" lon="10.91845"><ele>595.2</ele><time>2026-03-29T11:55:19.31Z</time></trkpt><trkpt lat="44.0018017" lon="10.91834"><ele>597.6</ele><time>2026-03-29T11:55:20.31Z</time></trkpt><trkpt lat="44.00174" lon="10.9182333"><ele>600.0</ele><time>2026-03-29T11:55:21.31Z</time></trkpt><trkpt lat="44.001675" lon="10.918135"><ele>598.0</ele><time>2026-03-29T11:55:22.311Z</time></trkpt><trkpt lat="44.0016133" lon="10.9180367"><ele>596.0</ele><time>2026-03-29T11:55:23.311Z</time></trkpt><trkpt lat="44.0015633" lon="10.91793"><ele>594.0</ele><time>2026-03-29T11:55:24.312Z</time></trkpt><trkpt lat="44.001525" lon="10.9178167"><ele>592.0</ele><time>2026-03-29T11:55:25.312Z</time></trkpt><trkpt lat="44.0015017" lon="10.9176983"><ele>590.0</ele><time>2026-03-29T11:55:26.312Z</time></trkpt><trkpt lat="44.0014983" lon="10.91757"><ele>590.0</ele><time>2026-03-29T11:55:27.311Z</time></trkpt><trkpt lat="44.0015117" lon="10.9174383"><ele>590.0</ele><time>2026-03-29T11:55:28.312Z</time></trkpt><trkpt lat="44.001535" lon="10.9173083"><ele>590.0</ele><time>2026-03-29T11:55:29.311Z</time></trkpt><trkpt lat="44.0015733" lon="10.9171817"><ele>590.0</ele><time>2026-03-29T11:55:30.309Z</time></trkpt><trkpt lat="44.0016267" lon="10.9170617"><ele>590.0</ele><time>2026-03-29T11:55:31.308Z</time></trkpt><trkpt lat="44.0016933" lon="10.9169483"><ele>591.2</ele><time>2026-03-29T11:55:32.31Z</time></trkpt><trkpt lat="44.0017667" lon="10.9168417"><ele>592.4</ele><time>2026-03-29T11:55:33.31Z</time></trkpt><trkpt lat="44.0018483" lon="10.9167483"><ele>593.6</ele><time>2026-03-29T11:55:34.309Z</time></trkpt><trkpt lat="44.0019383" lon="10.916675"><ele>594.8</ele><time>2026-03-29T11:55:35.311Z</time></trkpt><trkpt lat="44.002035" lon="10.9166183"><ele>596.0</ele><time>2026-03-29T11:55:36.309Z</time></trkpt><trkpt lat="44.0021317" lon="10.9165717"><ele>596.0</ele><time>2026-03-29T11:55:37.31Z</time></trkpt><trkpt lat="44.0022233" lon="10.91654"><ele>596.0</ele><time>2026-03-29T11:55:38.31Z</time></trkpt><trkpt lat="44.00231" lon="10.9165217"><ele>596.0</ele><time>2026-03-29T11:55:39.308Z</time></trkpt><trkpt lat="44.0024" lon="10.9165067"><ele>596.0</ele><time>2026-03-29T11:55:40.309Z</time></trkpt><trkpt lat="44.0024817" lon="10.91649"><ele>596.0</ele><time>2026-03-29T11:55:41.31Z</time></trkpt><trkpt lat="44.0025617" lon="10.916465"><ele>596.0</ele><time>2026-03-29T11:55:42.309Z</time></trkpt><trkpt lat="44.00263" lon="10.9164267"><ele>597.1428571428571</ele><time>2026-03-29T11:55:43.308Z</time></trkpt><trkpt lat="44.00269" lon="10.91638"><ele>598.2857142857142</ele><time>2026-03-29T11:55:44.309Z</time></trkpt><trkpt lat="44.002735" lon="10.9163167"><ele>599.4285714285714</ele><time>2026-03-29T11:55:45.308Z</time></trkpt><trkpt lat="44.002755" lon="10.9162317"><ele>600.5714285714286</ele><time>2026-03-29T11:55:46.31Z</time></trkpt><trkpt lat="44.0027483" lon="10.9161417"><ele>601.7142857142858</ele><time>2026-03-29T11:55:47.309Z</time></trkpt><trkpt lat="44.0027083" lon="10.9160583"><ele>602.8571428571429</ele><time>2026-03-29T11:55:48.309Z</time></trkpt><trkpt lat="44.002655" lon="10.915995"><ele>604.0</ele><time>2026-03-29T11:55:49.308Z</time></trkpt><trkpt lat="44.0025867" lon="10.915965"><ele>602.4</ele><time>2026-03-29T11:55:50.309Z</time></trkpt><trkpt lat="44.0024967" lon="10.9159633"><ele>600.8</ele><time>2026-03-29T11:55:51.309Z</time></trkpt><trkpt lat="44.0024" lon="10.915975"><ele>599.2</ele><time>2026-03-29T11:55:52.309Z</time></trkpt><trkpt lat="44.0023083" lon="10.91599"><ele>597.6</ele><time>2026-03-29T11:55:53.31Z</time></trkpt><trkpt lat="44.002215" lon="10.91601"><ele>596.0</ele><time>2026-03-29T11:55:54.309Z</time></trkpt><trkpt lat="44.0021183" lon="10.9160417"><ele>596.0</ele><time>2026-03-29T11:55:55.309Z</time></trkpt><trkpt lat="44.00202" lon="10.916085"><ele>596.0</ele><time>2026-03-29T11:55:56.311Z</time></trkpt><trkpt lat="44.0019233" lon="10.9161433"><ele>596.0</ele><time>2026-03-29T11:55:57.309Z</time></trkpt><trkpt lat="44.0018283" lon="10.9162133"><ele>596.0</ele><time>2026-03-29T11:55:58.31Z</time></trkpt><trkpt lat="44.0017317" lon="10.9162967"><ele>596.0</ele><time>2026-03-29T11:55:59.31Z</time></trkpt><trkpt lat="44.0016267" lon="10.9163833"><ele>594.5</ele><time>2026-03-29T11:56:00.31Z</time></trkpt><trkpt lat="44.0015267" lon="10.9164717"><ele>593.0</ele><time>2026-03-29T11:56:01.309Z</time></trkpt><trkpt lat="44.0014233" lon="10.9165583"><ele>591.5</ele><time>2026-03-29T11:56:02.31Z</time></trkpt><trkpt lat="44.0013183" lon="10.9166467"><ele>590.0</ele><time>2026-03-29T11:56:03.307Z</time></trkpt><trkpt lat="44.001205" lon="10.9167383"><ele>590.0</ele><time>2026-03-29T11:56:04.31Z</time></trkpt><trkpt lat="44.00109" lon="10.91683"><ele>590.0</ele><time>2026-03-29T11:56:05.31Z</time></trkpt><trkpt lat="44.0009767" lon="10.9169233"><ele>590.0</ele><time>2026-03-29T11:56:06.308Z</time></trkpt><trkpt lat="44.0008617" lon="10.9170183"><ele>590.0</ele><time>2026-03-29T11:56:07.309Z</time></trkpt><trkpt lat="44.0007483" lon="10.9171117"><ele>585.75</ele><time>2026-03-29T11:56:08.309Z</time></trkpt><trkpt lat="44.0006467" lon="10.9172033"><ele>581.5</ele><time>2026-03-29T11:56:09.309Z</time></trkpt><trkpt lat="44.0005467" lon="10.9172983"><ele>577.25</ele><time>2026-03-29T11:56:10.308Z</time></trkpt><trkpt lat="44.0004433" lon="10.9173967"><ele>573.0</ele><time>2026-03-29T11:56:11.31Z</time></trkpt><trkpt lat="44.0003417" lon="10.9175"><ele>573.25</ele><time>2026-03-29T11:56:12.309Z</time></trkpt><trkpt lat="44.0002417" lon="10.9176133"><ele>573.5</ele><time>2026-03-29T11:56:13.309Z</time></trkpt><trkpt lat="44.0001417" lon="10.91773"><ele>573.75</ele><time>2026-03-29T11:56:14.309Z</time></trkpt><trkpt lat="44.00004" lon="10.9178533"><ele>574.0</ele><time>2026-03-29T11:56:15.311Z</time></trkpt><trkpt lat="43.9999417" lon="10.9179817"><ele>574.0</ele><time>2026-03-29T11:56:16.308Z</time></trkpt><trkpt lat="43.99985" lon="10.918105"><ele>574.0</ele><time>2026-03-29T11:56:17.31Z</time></trkpt><trkpt lat="43.9997617" lon="10.918225"><ele>574.0</ele><time>2026-03-29T11:56:18.308Z</time></trkpt><trkpt lat="43.999675" lon="10.9183383"><ele>574.0</ele><time>2026-03-29T11:56:19.31Z</time></trkpt><trkpt lat="43.9995883" lon="10.9184433"><ele>569.8</ele><time>2026-03-29T11:56:20.309Z</time></trkpt><trkpt lat="43.9995083" lon="10.9185333"><ele>565.5999999999999</ele><time>2026-03-29T11:56:21.309Z</time></trkpt><trkpt lat="43.9994267" lon="10.91861"><ele>561.4</ele><time>2026-03-29T11:56:22.309Z</time></trkpt><trkpt lat="43.9993467" lon="10.9186683"><ele>557.1999999999999</ele><time>2026-03-29T11:56:23.309Z</time></trkpt><trkpt lat="43.9992633" lon="10.9187083"><ele>553.0</ele><time>2026-03-29T11:56:24.309Z</time></trkpt><trkpt lat="43.9991733" lon="10.9187383"><ele>553.4</ele><time>2026-03-29T11:56:25.309Z</time></trkpt><trkpt lat="43.9990817" lon="10.9187583"><ele>553.8</ele><time>2026-03-29T11:56:26.311Z</time></trkpt><trkpt lat="43.9989883" lon="10.9187717"><ele>554.2</ele><time>2026-03-29T11:56:27.31Z</time></trkpt><trkpt lat="43.998895" lon="10.9187833"><ele>554.6</ele><time>2026-03-29T11:56:28.31Z</time></trkpt><trkpt lat="43.9987983" lon="10.9187933"><ele>555.0</ele><time>2026-03-29T11:56:29.312Z</time></trkpt><trkpt lat="43.9987033" lon="10.9188017"><ele>555.0</ele><time>2026-03-29T11:56:30.311Z</time></trkpt><trkpt lat="43.998605" lon="10.91881"><ele>555.0</ele><time>2026-03-29T11:56:31.31Z</time></trkpt><trkpt lat="43.998505" lon="10.918815"><ele>555.0</ele><time>2026-03-29T11:56:32.312Z</time></trkpt><trkpt lat="43.9984" lon="10.9188267"><ele>555.0</ele><time>2026-03-29T11:56:33.311Z</time></trkpt><trkpt lat="43.998295" lon="10.9188433"><ele>555.0</ele><time>2026-03-29T11:56:34.31Z</time></trkpt><trkpt lat="43.9981933" lon="10.9188683"><ele>556.4</ele><time>2026-03-29T11:56:35.309Z</time></trkpt><trkpt lat="43.9980983" lon="10.91891"><ele>557.8</ele><time>2026-03-29T11:56:36.311Z</time></trkpt><trkpt lat="43.9980133" lon="10.918975"><ele>559.2</ele><time>2026-03-29T11:56:37.311Z</time></trkpt><trkpt lat="43.997925" lon="10.9190533"><ele>560.6</ele><time>2026-03-29T11:56:38.312Z</time></trkpt><trkpt lat="43.9978467" lon="10.9191383"><ele>562.0</ele><time>2026-03-29T11:56:39.31Z</time></trkpt><trkpt lat="43.997775" lon="10.919235"><ele>560.6</ele><time>2026-03-29T11:56:40.311Z</time></trkpt><trkpt lat="43.9977033" lon="10.91933"><ele>559.2</ele><time>2026-03-29T11:56:41.31Z</time></trkpt><trkpt lat="43.9976283" lon="10.9194083"><ele>557.8</ele><time>2026-03-29T11:56:42.31Z</time></trkpt><trkpt lat="43.99754" lon="10.91947"><ele>556.4</ele><time>2026-03-29T11:56:43.31Z</time></trkpt><trkpt lat="43.9974483" lon="10.9195167"><ele>555.0</ele><time>2026-03-29T11:56:44.31Z</time></trkpt><trkpt lat="43.99735" lon="10.91954"><ele>555.0</ele><time>2026-03-29T11:56:45.309Z</time></trkpt><trkpt lat="43.99725" lon="10.9195417"><ele>555.0</ele><time>2026-03-29T11:56:46.309Z</time></trkpt><trkpt lat="43.9971533" lon="10.9195233"><ele>555.0</ele><time>2026-03-29T11:56:47.311Z</time></trkpt><trkpt lat="43.997055" lon="10.91948"><ele>555.0</ele><time>2026-03-29T11:56:48.311Z</time></trkpt><trkpt lat="43.99696" lon="10.9194117"><ele>555.0</ele><time>2026-03-29T11:56:49.311Z</time></trkpt><trkpt lat="43.9968683" lon="10.919325"><ele>555.0</ele><time>2026-03-29T11:56:50.31Z</time></trkpt><trkpt lat="43.9967817" lon="10.91923"><ele>555.0</ele><time>2026-03-29T11:56:51.31Z</time></trkpt><trkpt lat="43.996695" lon="10.9191267"><ele>555.0</ele><time>2026-03-29T11:56:52.311Z</time></trkpt><trkpt lat="43.9966067" lon="10.919025"><ele>555.0</ele><time>2026-03-29T11:56:53.311Z</time></trkpt><trkpt lat="43.99652" lon="10.9189167"><ele>555.0</ele><time>2026-03-29T11:56:54.31Z</time></trkpt><trkpt lat="43.9964367" lon="10.9188067"><ele>555.0</ele><time>2026-03-29T11:56:55.309Z</time></trkpt><trkpt lat="43.9963567" lon="10.9186867"><ele>555.0</ele><time>2026-03-29T11:56:56.309Z</time></trkpt><trkpt lat="43.9962817" lon="10.9185583"><ele>555.0</ele><time>2026-03-29T11:56:57.312Z</time></trkpt><trkpt lat="43.9962" lon="10.9184483"><ele>559.25</ele><time>2026-03-29T11:56:58.31Z</time></trkpt><trkpt lat="43.99612" lon="10.9183217"><ele>563.5</ele><time>2026-03-29T11:56:59.311Z</time></trkpt><trkpt lat="43.99605" lon="10.91818"><ele>567.75</ele><time>2026-03-29T11:57:00.311Z</time></trkpt><trkpt lat="43.995975" lon="10.9180367"><ele>572.0</ele><time>2026-03-29T11:57:01.311Z</time></trkpt><trkpt lat="43.9958983" lon="10.91789"><ele>568.0</ele><time>2026-03-29T11:57:02.312Z</time></trkpt><trkpt lat="43.99582" lon="10.917745"><ele>564.0</ele><time>2026-03-29T11:57:03.313Z</time></trkpt><trkpt lat="43.99574" lon="10.9176033"><ele>560.0</ele><time>2026-03-29T11:57:04.31Z</time></trkpt><trkpt lat="43.9956583" lon="10.917465"><ele>556.0</ele><time>2026-03-29T11:57:05.312Z</time></trkpt><trkpt lat="43.9955717" lon="10.9173333"><ele>556.0</ele><time>2026-03-29T11:57:06.31Z</time></trkpt><trkpt lat="43.9954833" lon="10.91721"><ele>556.0</ele><time>2026-03-29T11:57:07.312Z</time></trkpt><trkpt lat="43.9953967" lon="10.9170867"><ele>556.0</ele><time>2026-03-29T11:57:08.312Z</time></trkpt><trkpt lat="43.9953083" lon="10.91696"><ele>556.0</ele><time>2026-03-29T11:57:09.31Z</time></trkpt><trkpt lat="43.9952183" lon="10.9168383"><ele>558.5</ele><time>2026-03-29T11:57:10.31Z</time></trkpt><trkpt lat="43.9951217" lon="10.91672"><ele>561.0</ele><time>2026-03-29T11:57:11.311Z</time></trkpt><trkpt lat="43.9950267" lon="10.916595"><ele>563.5</ele><time>2026-03-29T11:57:12.31Z</time></trkpt><trkpt lat="43.994925" lon="10.9164767"><ele>566.0</ele><time>2026-03-29T11:57:13.312Z</time></trkpt><trkpt lat="43.9948217" lon="10.91636"><ele>562.5</ele><time>2026-03-29T11:57:14.313Z</time></trkpt><trkpt lat="43.9947183" lon="10.9162417"><ele>559.0</ele><time>2026-03-29T11:57:15.311Z</time></trkpt><trkpt lat="43.9946183" lon="10.9161083"><ele>555.5</ele><time>2026-03-29T11:57:16.311Z</time></trkpt><trkpt lat="43.9945167" lon="10.9159767"><ele>552.0</ele><time>2026-03-29T11:57:17.311Z</time></trkpt><trkpt lat="43.9944167" lon="10.9158383"><ele>552.0</ele><time>2026-03-29T11:57:18.31Z</time></trkpt><trkpt lat="43.99432" lon="10.9157017"><ele>552.0</ele><time>2026-03-29T11:57:19.312Z</time></trkpt><trkpt lat="43.99423" lon="10.9155683"><ele>552.0</ele><time>2026-03-29T11:57:20.311Z</time></trkpt><trkpt lat="43.9941467" lon="10.9154333"><ele>552.0</ele><time>2026-03-29T11:57:21.312Z</time></trkpt><trkpt lat="43.994065" lon="10.9153"><ele>549.0</ele><time>2026-03-29T11:57:22.31Z</time></trkpt><trkpt lat="43.9939867" lon="10.9151667"><ele>546.0</ele><time>2026-03-29T11:57:23.311Z</time></trkpt><trkpt lat="43.9939067" lon="10.9150367"><ele>543.0</ele><time>2026-03-29T11:57:24.315Z</time></trkpt><trkpt lat="43.99382" lon="10.91492"><ele>540.0</ele><time>2026-03-29T11:57:25.312Z</time></trkpt><trkpt lat="43.9937267" lon="10.9148083"><ele>540.0</ele><time>2026-03-29T11:57:26.31Z</time></trkpt><trkpt lat="43.9936283" lon="10.9147017"><ele>540.0</ele><time>2026-03-29T11:57:27.311Z</time></trkpt><trkpt lat="43.9935283" lon="10.914605"><ele>540.0</ele><time>2026-03-29T11:57:28.31Z</time></trkpt><trkpt lat="43.99342" lon="10.9145233"><ele>540.0</ele><time>2026-03-29T11:57:29.311Z</time></trkpt><trkpt lat="43.9933117" lon="10.9144467"><ele>539.5</ele><time>2026-03-29T11:57:30.31Z</time></trkpt><trkpt lat="43.9931983" lon="10.9143733"><ele>539.0</ele><time>2026-03-29T11:57:31.312Z</time></trkpt><trkpt lat="43.9930833" lon="10.9143083"><ele>538.5</ele><time>2026-03-29T11:57:32.312Z</time></trkpt><trkpt lat="43.9929633" lon="10.914245"><ele>538.0</ele><time>2026-03-29T11:57:33.311Z</time></trkpt><trkpt lat="43.9928433" lon="10.914175"><ele>538.0</ele><time>2026-03-29T11:57:34.31Z</time></trkpt><trkpt lat="43.99272" lon="10.914115"><ele>538.0</ele><time>2026-03-29T11:57:35.311Z</time></trkpt><trkpt lat="43.9926" lon="10.9140583"><ele>538.0</ele><time>2026-03-29T11:57:36.31Z</time></trkpt><trkpt lat="43.99248" lon="10.914005"><ele>538.0</ele><time>2026-03-29T11:57:37.311Z</time></trkpt><trkpt lat="43.9923583" lon="10.9139533"><ele>533.0</ele><time>2026-03-29T11:57:38.312Z</time></trkpt><trkpt lat="43.9922333" lon="10.9138883"><ele>528.0</ele><time>2026-03-29T11:57:39.312Z</time></trkpt><trkpt lat="43.99211" lon="10.91382"><ele>523.0</ele><time>2026-03-29T11:57:40.31Z</time></trkpt><trkpt lat="43.9919867" lon="10.9137383"><ele>518.0</ele><time>2026-03-29T11:57:41.309Z</time></trkpt><trkpt lat="43.9918683" lon="10.91364"><ele>518.0</ele><time>2026-03-29T11:57:42.31Z</time></trkpt><trkpt lat="43.991755" lon="10.913535"><ele>518.0</ele><time>2026-03-29T11:57:43.312Z</time></trkpt><trkpt lat="43.991645" lon="10.9134217"><ele>518.0</ele><time>2026-03-29T11:57:44.313Z</time></trkpt><trkpt lat="43.991535" lon="10.9133067"><ele>518.0</ele><time>2026-03-29T11:57:45.311Z</time></trkpt><trkpt lat="43.9914217" lon="10.9132"><ele>518.0</ele><time>2026-03-29T11:57:46.31Z</time></trkpt><trkpt lat="43.9913083" lon="10.9130933"><ele>518.0</ele><time>2026-03-29T11:57:47.311Z</time></trkpt><trkpt lat="43.9911867" lon="10.9130067"><ele>518.0</ele><time>2026-03-29T11:57:48.31Z</time></trkpt><trkpt lat="43.9910567" lon="10.9129367"><ele>518.0</ele><time>2026-03-29T11:57:49.311Z</time></trkpt><trkpt lat="43.9909233" lon="10.912875"><ele>512.25</ele><time>2026-03-29T11:57:50.313Z</time></trkpt><trkpt lat="43.9907883" lon="10.9128117"><ele>506.5</ele><time>2026-03-29T11:57:51.312Z</time></trkpt><trkpt lat="43.9906583" lon="10.91275"><ele>500.75</ele><time>2026-03-29T11:57:52.311Z</time></trkpt><trkpt lat="43.99053" lon="10.9126733"><ele>495.0</ele><time>2026-03-29T11:57:53.31Z</time></trkpt><trkpt lat="43.9904083" lon="10.9125983"><ele>494.75</ele><time>2026-03-29T11:57:54.31Z</time></trkpt><trkpt lat="43.9902867" lon="10.9125183"><ele>494.5</ele><time>2026-03-29T11:57:55.312Z</time></trkpt><trkpt lat="43.9901683" lon="10.91243"><ele>494.25</ele><time>2026-03-29T11:57:56.312Z</time></trkpt><trkpt lat="43.9900583" lon="10.9123367"><ele>494.0</ele><time>2026-03-29T11:57:57.31Z</time></trkpt><trkpt lat="43.98995" lon="10.9122383"><ele>494.0</ele><time>2026-03-29T11:57:58.31Z</time></trkpt><trkpt lat="43.9898433" lon="10.9121417"><ele>494.0</ele><time>2026-03-29T11:57:59.311Z</time></trkpt><trkpt lat="43.98974" lon="10.91204"><ele>494.0</ele><time>2026-03-29T11:58:00.312Z</time></trkpt><trkpt lat="43.9896417" lon="10.9119383"><ele>494.0</ele><time>2026-03-29T11:58:01.313Z</time></trkpt><trkpt lat="43.98955" lon="10.9118333"><ele>496.25</ele><time>2026-03-29T11:58:02.311Z</time></trkpt><trkpt lat="43.9894667" lon="10.9117217"><ele>498.5</ele><time>2026-03-29T11:58:03.312Z</time></trkpt><trkpt lat="43.9893933" lon="10.9115967"><ele>500.75</ele><time>2026-03-29T11:58:04.311Z</time></trkpt><trkpt lat="43.989325" lon="10.9114567"><ele>503.0</ele><time>2026-03-29T11:58:05.31Z</time></trkpt><trkpt lat="43.98927" lon="10.911305"><ele>503.0</ele><time>2026-03-29T11:58:06.311Z</time></trkpt><trkpt lat="43.9892217" lon="10.9111567"><ele>502.99999999999994</ele><time>2026-03-29T11:58:07.311Z</time></trkpt><trkpt lat="43.98918" lon="10.9110183"><ele>502.99999999999994</ele><time>2026-03-29T11:58:08.31Z</time></trkpt><trkpt lat="43.989145" lon="10.910885"><ele>503.0</ele><time>2026-03-29T11:58:09.31Z</time></trkpt><trkpt lat="43.989115" lon="10.9107583"><ele>503.0</ele><time>2026-03-29T11:58:10.31Z</time></trkpt><trkpt lat="43.9890833" lon="10.9106417"><ele>501.66666666666663</ele><time>2026-03-29T11:58:11.309Z</time></trkpt><trkpt lat="43.9890467" lon="10.91054"><ele>500.3333333333333</ele><time>2026-03-29T11:58:12.311Z</time></trkpt><trkpt lat="43.9890017" lon="10.910445"><ele>499.0</ele><time>2026-03-29T11:58:13.309Z</time></trkpt><trkpt lat="43.988945" lon="10.9103583"><ele>497.66666666666663</ele><time>2026-03-29T11:58:14.31Z</time></trkpt><trkpt lat="43.988875" lon="10.910285"><ele>496.3333333333333</ele><time>2026-03-29T11:58:15.312Z</time></trkpt><trkpt lat="43.9887967" lon="10.9102317"><ele>495.0</ele><time>2026-03-29T11:58:16.309Z</time></trkpt><trkpt lat="43.988715" lon="10.9102083"><ele>495.0</ele><time>2026-03-29T11:58:17.309Z</time></trkpt><trkpt lat="43.9886317" lon="10.9102117"><ele>495.0</ele><time>2026-03-29T11:58:18.31Z</time></trkpt><trkpt lat="43.9885517" lon="10.9102417"><ele>495.0</ele><time>2026-03-29T11:58:19.309Z</time></trkpt><trkpt lat="43.9884783" lon="10.9102967"><ele>495.0</ele><time>2026-03-29T11:58:20.31Z</time></trkpt><trkpt lat="43.988415" lon="10.910375"><ele>495.0</ele><time>2026-03-29T11:58:21.309Z</time></trkpt><trkpt lat="43.98837" lon="10.910475"><ele>495.0</ele><time>2026-03-29T11:58:22.31Z</time></trkpt><trkpt lat="43.9883467" lon="10.9105917"><ele>495.0</ele><time>2026-03-29T11:58:23.31Z</time></trkpt><trkpt lat="43.98834" lon="10.9107117"><ele>495.0</ele><time>2026-03-29T11:58:24.31Z</time></trkpt><trkpt lat="43.9883483" lon="10.9108383"><ele>495.0</ele><time>2026-03-29T11:58:25.309Z</time></trkpt><trkpt lat="43.9883633" lon="10.9109667"><ele>495.0</ele><time>2026-03-29T11:58:26.31Z</time></trkpt><trkpt lat="43.98839" lon="10.9110933"><ele>495.0</ele><time>2026-03-29T11:58:27.31Z</time></trkpt><trkpt lat="43.9884183" lon="10.9112217"><ele>494.4</ele><time>2026-03-29T11:58:28.311Z</time></trkpt><trkpt lat="43.98846" lon="10.9113483"><ele>493.8</ele><time>2026-03-29T11:58:29.309Z</time></trkpt><trkpt lat="43.9885117" lon="10.9114767"><ele>493.20000000000005</ele><time>2026-03-29T11:58:30.31Z</time></trkpt><trkpt lat="43.9885633" lon="10.9116017"><ele>492.6</ele><time>2026-03-29T11:58:31.311Z</time></trkpt><trkpt lat="43.9886217" lon="10.9117267"><ele>492.0</ele><time>2026-03-29T11:58:32.311Z</time></trkpt><trkpt lat="43.9886883" lon="10.9118483"><ele>488.6</ele><time>2026-03-29T11:58:33.309Z</time></trkpt><trkpt lat="43.9887533" lon="10.91197"><ele>485.20000000000005</ele><time>2026-03-29T11:58:34.31Z</time></trkpt><trkpt lat="43.988825" lon="10.9120917"><ele>481.8</ele><time>2026-03-29T11:58:35.31Z</time></trkpt><trkpt lat="43.9888967" lon="10.9122117"><ele>478.4</ele><time>2026-03-29T11:58:36.308Z</time></trkpt><trkpt lat="43.9889633" lon="10.912335"><ele>475.0</ele><time>2026-03-29T11:58:37.309Z</time></trkpt><trkpt lat="43.9890283" lon="10.9124583"><ele>475.8</ele><time>2026-03-29T11:58:38.311Z</time></trkpt><trkpt lat="43.9890867" lon="10.9125783"><ele>476.6</ele><time>2026-03-29T11:58:39.308Z</time></trkpt><trkpt lat="43.989145" lon="10.9127"><ele>477.4</ele><time>2026-03-29T11:58:40.307Z</time></trkpt><trkpt lat="43.9891917" lon="10.9128183"><ele>478.2</ele><time>2026-03-29T11:58:41.307Z</time></trkpt><trkpt lat="43.9892233" lon="10.9129317"><ele>479.0</ele><time>2026-03-29T11:58:42.308Z</time></trkpt><trkpt lat="43.9892533" lon="10.9130433"><ele>478.99999999999994</ele><time>2026-03-29T11:58:43.308Z</time></trkpt><trkpt lat="43.9892767" lon="10.9131483"><ele>479.0</ele><time>2026-03-29T11:58:44.309Z</time></trkpt><trkpt lat="43.989295" lon="10.9132533"><ele>479.0</ele><time>2026-03-29T11:58:45.308Z</time></trkpt><trkpt lat="43.98931" lon="10.91336"><ele>479.0</ele><time>2026-03-29T11:58:46.307Z</time></trkpt><trkpt lat="43.98932" lon="10.9134667"><ele>478.99999999999994</ele><time>2026-03-29T11:58:47.309Z</time></trkpt><trkpt lat="43.9893283" lon="10.913575"><ele>479.0</ele><time>2026-03-29T11:58:48.312Z</time></trkpt><trkpt lat="43.989335" lon="10.9136867"><ele>475.99999999999994</ele><time>2026-03-29T11:58:49.31Z</time></trkpt><trkpt lat="43.9893333" lon="10.9138017"><ele>473.0</ele><time>2026-03-29T11:58:50.31Z</time></trkpt><trkpt lat="43.9893267" lon="10.9139167"><ele>470.0</ele><time>2026-03-29T11:58:51.312Z</time></trkpt><trkpt lat="43.9893217" lon="10.9140317"><ele>467.0</ele><time>2026-03-29T11:58:52.309Z</time></trkpt><trkpt lat="43.9893117" lon="10.914145"><ele>463.99999999999994</ele><time>2026-03-29T11:58:53.311Z</time></trkpt><trkpt lat="43.9893067" lon="10.9142583"><ele>461.0</ele><time>2026-03-29T11:58:54.31Z</time></trkpt><trkpt lat="43.989305" lon="10.91437"><ele>457.8333333333333</ele><time>2026-03-29T11:58:55.31Z</time></trkpt><trkpt lat="43.9893" lon="10.914485"><ele>454.66666666666663</ele><time>2026-03-29T11:58:56.31Z</time></trkpt><trkpt lat="43.9892967" lon="10.9146"><ele>451.5</ele><time>2026-03-29T11:58:57.31Z</time></trkpt><trkpt lat="43.9892867" lon="10.9147167"><ele>448.33333333333337</ele><time>2026-03-29T11:58:58.311Z</time></trkpt><trkpt lat="43.9892717" lon="10.9148367"><ele>445.1666666666667</ele><time>2026-03-29T11:58:59.312Z</time></trkpt><trkpt lat="43.989255" lon="10.9149567"><ele>442.0</ele><time>2026-03-29T11:59:00.31Z</time></trkpt><trkpt lat="43.9892417" lon="10.9150817"><ele>444.50000000000006</ele><time>2026-03-29T11:59:01.309Z</time></trkpt><trkpt lat="43.9892233" lon="10.9152067"><ele>447.0</ele><time>2026-03-29T11:59:02.311Z</time></trkpt><trkpt lat="43.9892033" lon="10.9153217"><ele>449.5</ele><time>2026-03-29T11:59:03.311Z</time></trkpt><trkpt lat="43.9891767" lon="10.9154283"><ele>452.0</ele><time>2026-03-29T11:59:04.311Z</time></trkpt><trkpt lat="43.9891333" lon="10.915525"><ele>454.50000000000006</ele><time>2026-03-29T11:59:05.309Z</time></trkpt><trkpt lat="43.9890783" lon="10.9156117"><ele>457.0</ele><time>2026-03-29T11:59:06.31Z</time></trkpt><trkpt lat="43.9890117" lon="10.9156833"><ele>457.0</ele><time>2026-03-29T11:59:07.31Z</time></trkpt><trkpt lat="43.988925" lon="10.915745"><ele>457.00000000000006</ele><time>2026-03-29T11:59:08.311Z</time></trkpt><trkpt lat="43.9888333" lon="10.9157917"><ele>457.00000000000006</ele><time>2026-03-29T11:59:09.309Z</time></trkpt><trkpt lat="43.9887317" lon="10.9158333"><ele>457.0</ele><time>2026-03-29T11:59:10.31Z</time></trkpt><trkpt lat="43.988625" lon="10.915865"><ele>457.0</ele><time>2026-03-29T11:59:11.311Z</time></trkpt><trkpt lat="43.9885217" lon="10.9158783"><ele>457.0</ele><time>2026-03-29T11:59:12.31Z</time></trkpt><trkpt lat="43.9884183" lon="10.91588"><ele>457.00000000000006</ele><time>2026-03-29T11:59:13.311Z</time></trkpt><trkpt lat="43.98832" lon="10.9158733"><ele>457.00000000000006</ele><time>2026-03-29T11:59:14.309Z</time></trkpt><trkpt lat="43.9882233" lon="10.915865"><ele>457.0</ele><time>2026-03-29T11:59:15.312Z</time></trkpt><trkpt lat="43.98813" lon="10.9158317"><ele>457.0</ele><time>2026-03-29T11:59:16.312Z</time></trkpt><trkpt lat="43.9880383" lon="10.9157867"><ele>457.0</ele><time>2026-03-29T11:59:17.311Z</time></trkpt><trkpt lat="43.98795" lon="10.9157267"><ele>457.00000000000006</ele><time>2026-03-29T11:59:18.31Z</time></trkpt><trkpt lat="43.9878617" lon="10.9156567"><ele>457.00000000000006</ele><time>2026-03-29T11:59:19.309Z</time></trkpt><trkpt lat="43.9877767" lon="10.9155767"><ele>457.0</ele><time>2026-03-29T11:59:20.31Z</time></trkpt><trkpt lat="43.9876933" lon="10.9154767"><ele>457.0</ele><time>2026-03-29T11:59:21.307Z</time></trkpt><trkpt lat="43.9876117" lon="10.91538"><ele>457.0</ele><time>2026-03-29T11:59:22.307Z</time></trkpt><trkpt lat="43.9875367" lon="10.9152767"><ele>457.00000000000006</ele><time>2026-03-29T11:59:23.309Z</time></trkpt><trkpt lat="43.9874683" lon="10.9151733"><ele>457.00000000000006</ele><time>2026-03-29T11:59:24.307Z</time></trkpt><trkpt lat="43.98741" lon="10.915075"><ele>457.0</ele><time>2026-03-29T11:59:25.307Z</time></trkpt><trkpt lat="43.987355" lon="10.914975"><ele>457.0</ele><time>2026-03-29T11:59:26.308Z</time></trkpt><trkpt lat="43.9873217" lon="10.91486"><ele>455.8</ele><time>2026-03-29T11:59:27.308Z</time></trkpt><trkpt lat="43.9872967" lon="10.9147433"><ele>454.6</ele><time>2026-03-29T11:59:28.308Z</time></trkpt><trkpt lat="43.987295" lon="10.9146217"><ele>453.40000000000003</ele><time>2026-03-29T11:59:29.307Z</time></trkpt><trkpt lat="43.9873233" lon="10.914485"><ele>452.20000000000005</ele><time>2026-03-29T11:59:30.308Z</time></trkpt><trkpt lat="43.987365" lon="10.9143283"><ele>451.0</ele><time>2026-03-29T11:59:31.309Z</time></trkpt><trkpt lat="43.9874283" lon="10.914205"><ele>452.4</ele><time>2026-03-29T11:59:32.309Z</time></trkpt><trkpt lat="43.9875083" lon="10.914095"><ele>453.8</ele><time>2026-03-29T11:59:33.309Z</time></trkpt><trkpt lat="43.98759" lon="10.91399"><ele>455.19999999999993</ele><time>2026-03-29T11:59:34.311Z</time></trkpt><trkpt lat="43.9876833" lon="10.9139017"><ele>456.59999999999997</ele><time>2026-03-29T11:59:35.309Z</time></trkpt><trkpt lat="43.9877783" lon="10.9138217"><ele>458.0</ele><time>2026-03-29T11:59:36.31Z</time></trkpt><trkpt lat="43.9878683" lon="10.9137417"><ele>458.0</ele><time>2026-03-29T11:59:37.309Z</time></trkpt><trkpt lat="43.9879583" lon="10.91367"><ele>457.99999999999994</ele><time>2026-03-29T11:59:38.31Z</time></trkpt><trkpt lat="43.9880483" lon="10.9135933"><ele>457.99999999999994</ele><time>2026-03-29T11:59:39.309Z</time></trkpt><trkpt lat="43.9881317" lon="10.913525"><ele>458.0</ele><time>2026-03-29T11:59:40.311Z</time></trkpt><trkpt lat="43.9882" lon="10.913445"><ele>458.0</ele><time>2026-03-29T11:59:41.311Z</time></trkpt><trkpt lat="43.9882583" lon="10.91336"><ele>459.8333333333333</ele><time>2026-03-29T11:59:42.311Z</time></trkpt><trkpt lat="43.9883083" lon="10.9132733"><ele>461.66666666666663</ele><time>2026-03-29T11:59:43.31Z</time></trkpt><trkpt lat="43.9883417" lon="10.9131733"><ele>463.5</ele><time>2026-03-29T11:59:44.31Z</time></trkpt><trkpt lat="43.988365" lon="10.9130683"><ele>465.33333333333337</ele><time>2026-03-29T11:59:45.311Z</time></trkpt><trkpt lat="43.988365" lon="10.9129583"><ele>467.1666666666667</ele><time>2026-03-29T11:59:46.309Z</time></trkpt><trkpt lat="43.9883467" lon="10.9128483"><ele>469.0</ele><time>2026-03-29T11:59:47.31Z</time></trkpt><trkpt lat="43.98831" lon="10.9127467"><ele>465.6</ele><time>2026-03-29T11:59:48.311Z</time></trkpt><trkpt lat="43.9882533" lon="10.9126533"><ele>462.2</ele><time>2026-03-29T11:59:49.309Z</time></trkpt><trkpt lat="43.9881867" lon="10.9125583"><ele>458.80000000000007</ele><time>2026-03-29T11:59:50.308Z</time></trkpt><trkpt lat="43.988115" lon="10.9124633"><ele>455.40000000000003</ele><time>2026-03-29T11:59:51.31Z</time></trkpt><trkpt lat="43.9880417" lon="10.9123667"><ele>452.0</ele><time>2026-03-29T11:59:52.309Z</time></trkpt><trkpt lat="43.987965" lon="10.9122667"><ele>452.0</ele><time>2026-03-29T11:59:53.311Z</time></trkpt><trkpt lat="43.9878883" lon="10.9121717"><ele>452.00000000000006</ele><time>2026-03-29T11:59:54.31Z</time></trkpt><trkpt lat="43.9878017" lon="10.91208"><ele>452.00000000000006</ele><time>2026-03-29T11:59:55.311Z</time></trkpt><trkpt lat="43.9877133" lon="10.9119933"><ele>452.0</ele><time>2026-03-29T11:59:56.312Z</time></trkpt><trkpt lat="43.98762" lon="10.9119117"><ele>452.0</ele><time>2026-03-29T11:59:57.309Z</time></trkpt><trkpt lat="43.987525" lon="10.9118233"><ele>450.0</ele><time>2026-03-29T11:59:58.307Z</time></trkpt><trkpt lat="43.9874283" lon="10.9117383"><ele>448.0</ele><time>2026-03-29T11:59:59.309Z</time></trkpt><trkpt lat="43.9873317" lon="10.9116517"><ele>446.0</ele><time>2026-03-29T12:00:00.309Z</time></trkpt><trkpt lat="43.9872317" lon="10.9115583"><ele>444.0</ele><time>2026-03-29T12:00:01.31Z</time></trkpt><trkpt lat="43.9871317" lon="10.9114667"><ele>444.0</ele><time>2026-03-29T12:00:02.31Z</time></trkpt><trkpt lat="43.9870333" lon="10.911375"><ele>444.0</ele><time>2026-03-29T12:00:03.309Z</time></trkpt><trkpt lat="43.9869383" lon="10.9112917"><ele>444.0</ele><time>2026-03-29T12:00:04.309Z</time></trkpt><trkpt lat="43.9868533" lon="10.911195"><ele>444.0</ele><time>2026-03-29T12:00:05.31Z</time></trkpt><trkpt lat="43.986775" lon="10.9111"><ele>444.0</ele><time>2026-03-29T12:00:06.309Z</time></trkpt><trkpt lat="43.9867083" lon="10.9109867"><ele>440.2</ele><time>2026-03-29T12:00:07.31Z</time></trkpt><trkpt lat="43.9866533" lon="10.9108717"><ele>436.4</ele><time>2026-03-29T12:00:08.31Z</time></trkpt><trkpt lat="43.98661" lon="10.910755"><ele>432.6</ele><time>2026-03-29T12:00:09.311Z</time></trkpt><trkpt lat="43.98658" lon="10.9106433"><ele>428.8</ele><time>2026-03-29T12:00:10.31Z</time></trkpt><trkpt lat="43.9865617" lon="10.91053"><ele>425.0</ele><time>2026-03-29T12:00:11.311Z</time></trkpt><trkpt lat="43.9865667" lon="10.9104"><ele>424.99999999999994</ele><time>2026-03-29T12:00:12.311Z</time></trkpt><trkpt lat="43.9865867" lon="10.910275"><ele>425.0</ele><time>2026-03-29T12:00:13.312Z</time></trkpt><trkpt lat="43.9866283" lon="10.9101583"><ele>425.0</ele><time>2026-03-29T12:00:14.311Z</time></trkpt><trkpt lat="43.98667" lon="10.9100467"><ele>425.0</ele><time>2026-03-29T12:00:15.31Z</time></trkpt><trkpt lat="43.9867083" lon="10.90994"><ele>424.99999999999994</ele><time>2026-03-29T12:00:16.31Z</time></trkpt><trkpt lat="43.9867367" lon="10.90983"><ele>425.0</ele><time>2026-03-29T12:00:17.311Z</time></trkpt><trkpt lat="43.98675" lon="10.909715"><ele>425.66666666666663</ele><time>2026-03-29T12:00:18.309Z</time></trkpt><trkpt lat="43.986735" lon="10.90961"><ele>426.3333333333333</ele><time>2026-03-29T12:00:19.311Z</time></trkpt><trkpt lat="43.9866967" lon="10.909525"><ele>427.0</ele><time>2026-03-29T12:00:20.31Z</time></trkpt><trkpt lat="43.986645" lon="10.9094483"><ele>427.66666666666663</ele><time>2026-03-29T12:00:21.309Z</time></trkpt><trkpt lat="43.98657" lon="10.909405"><ele>428.3333333333333</ele><time>2026-03-29T12:00:22.309Z</time></trkpt><trkpt lat="43.9864817" lon="10.9093967"><ele>429.0</ele><time>2026-03-29T12:00:23.311Z</time></trkpt><trkpt lat="43.98639" lon="10.9094033"><ele>429.0</ele><time>2026-03-29T12:00:24.309Z</time></trkpt><trkpt lat="43.986295" lon="10.9094217"><ele>429.0</ele><time>2026-03-29T12:00:25.311Z</time></trkpt><trkpt lat="43.9861933" lon="10.909455"><ele>429.0</ele><time>2026-03-29T12:00:26.31Z</time></trkpt><trkpt lat="43.9860833" lon="10.909475"><ele>429.0</ele><time>2026-03-29T12:00:27.31Z</time></trkpt><trkpt lat="43.9859783" lon="10.90948"><ele>429.0</ele><time>2026-03-29T12:00:28.311Z</time></trkpt><trkpt lat="43.9858683" lon="10.9094717"><ele>422.5</ele><time>2026-03-29T12:00:29.309Z</time></trkpt><trkpt lat="43.985755" lon="10.9094533"><ele>416.0</ele><time>2026-03-29T12:00:30.311Z</time></trkpt><trkpt lat="43.9856433" lon="10.9094167"><ele>409.5</ele><time>2026-03-29T12:00:31.311Z</time></trkpt><trkpt lat="43.985535" lon="10.9093683"><ele>403.0</ele><time>2026-03-29T12:00:32.309Z</time></trkpt><trkpt lat="43.9854267" lon="10.90932"><ele>403.0</ele><time>2026-03-29T12:00:33.31Z</time></trkpt><trkpt lat="43.9853183" lon="10.909275"><ele>403.0</ele><time>2026-03-29T12:00:34.309Z</time></trkpt><trkpt lat="43.9852167" lon="10.9092333"><ele>403.0</ele><time>2026-03-29T12:00:35.31Z</time></trkpt><trkpt lat="43.9851183" lon="10.9091983"><ele>403.0</ele><time>2026-03-29T12:00:36.311Z</time></trkpt><trkpt lat="43.9850267" lon="10.909165"><ele>403.0</ele><time>2026-03-29T12:00:37.309Z</time></trkpt><trkpt lat="43.98494" lon="10.9091317"><ele>404.00000000000006</ele><time>2026-03-29T12:00:38.31Z</time></trkpt><trkpt lat="43.9848583" lon="10.9090917"><ele>405.0</ele><time>2026-03-29T12:00:39.312Z</time></trkpt><trkpt lat="43.9847867" lon="10.909045"><ele>406.0</ele><time>2026-03-29T12:00:40.311Z</time></trkpt><trkpt lat="43.98472" lon="10.908985"><ele>407.0</ele><time>2026-03-29T12:00:41.311Z</time></trkpt><trkpt lat="43.98466" lon="10.908905"><ele>408.00000000000006</ele><time>2026-03-29T12:00:42.309Z</time></trkpt><trkpt lat="43.9846133" lon="10.9088167"><ele>409.0</ele><time>2026-03-29T12:00:43.312Z</time></trkpt><trkpt lat="43.98458" lon="10.9087133"><ele>409.0</ele><time>2026-03-29T12:00:44.309Z</time></trkpt><trkpt lat="43.9845533" lon="10.908605"><ele>409.0</ele><time>2026-03-29T12:00:45.311Z</time></trkpt><trkpt lat="43.984545" lon="10.9084883"><ele>409.0</ele><time>2026-03-29T12:00:46.308Z</time></trkpt><trkpt lat="43.9845467" lon="10.9083567"><ele>409.0</ele><time>2026-03-29T12:00:47.31Z</time></trkpt><trkpt lat="43.9845517" lon="10.908225"><ele>409.0</ele><time>2026-03-29T12:00:48.308Z</time></trkpt><trkpt lat="43.9845533" lon="10.9080933"><ele>410.6666666666667</ele><time>2026-03-29T12:00:49.309Z</time></trkpt><trkpt lat="43.98456" lon="10.907965"><ele>412.33333333333337</ele><time>2026-03-29T12:00:50.31Z</time></trkpt><trkpt lat="43.9845633" lon="10.9078417"><ele>414.0</ele><time>2026-03-29T12:00:51.309Z</time></trkpt><trkpt lat="43.984565" lon="10.9077233"><ele>415.66666666666663</ele><time>2026-03-29T12:00:52.311Z</time></trkpt><trkpt lat="43.98457" lon="10.9076"><ele>417.3333333333333</ele><time>2026-03-29T12:00:53.31Z</time></trkpt><trkpt lat="43.98457" lon="10.9074767"><ele>419.0</ele><time>2026-03-29T12:00:54.309Z</time></trkpt><trkpt lat="43.98457" lon="10.9073517"><ele>420.4</ele><time>2026-03-29T12:00:55.31Z</time></trkpt><trkpt lat="43.9845667" lon="10.90722"><ele>421.79999999999995</ele><time>2026-03-29T12:00:56.31Z</time></trkpt><trkpt lat="43.984565" lon="10.9070867"><ele>423.20000000000005</ele><time>2026-03-29T12:00:57.309Z</time></trkpt><trkpt lat="43.9845617" lon="10.9069517"><ele>424.6</ele><time>2026-03-29T12:00:58.308Z</time></trkpt><trkpt lat="43.9845583" lon="10.9068217"><ele>426.0</ele><time>2026-03-29T12:00:59.309Z</time></trkpt><trkpt lat="43.9845517" lon="10.9067017"><ele>427.1666666666667</ele><time>2026-03-29T12:01:00.31Z</time></trkpt><trkpt lat="43.984535" lon="10.9065917"><ele>428.33333333333337</ele><time>2026-03-29T12:01:01.308Z</time></trkpt><trkpt lat="43.9845017" lon="10.9064883"><ele>429.5</ele><time>2026-03-29T12:01:02.31Z</time></trkpt><trkpt lat="43.9844567" lon="10.9063933"><ele>430.6666666666667</ele><time>2026-03-29T12:01:03.31Z</time></trkpt><trkpt lat="43.9843967" lon="10.9063183"><ele>431.83333333333337</ele><time>2026-03-29T12:01:04.308Z</time></trkpt><trkpt lat="43.984325" lon="10.9062667"><ele>433.0</ele><time>2026-03-29T12:01:05.31Z</time></trkpt><trkpt lat="43.9842417" lon="10.9062467"><ele>424.4</ele><time>2026-03-29T12:01:06.308Z</time></trkpt><trkpt lat="43.9841483" lon="10.906235"><ele>415.79999999999995</ele><time>2026-03-29T12:01:07.308Z</time></trkpt><trkpt lat="43.9840333" lon="10.90623"><ele>407.2</ele><time>2026-03-29T12:01:08.309Z</time></trkpt><trkpt lat="43.9839233" lon="10.9062117"><ele>398.6</ele><time>2026-03-29T12:01:09.31Z</time></trkpt><trkpt lat="43.983815" lon="10.90619"><ele>390.0</ele><time>2026-03-29T12:01:10.31Z</time></trkpt><trkpt lat="43.9837033" lon="10.9061733"><ele>390.0</ele><time>2026-03-29T12:01:11.308Z</time></trkpt><trkpt lat="43.983595" lon="10.906145"><ele>390.0</ele><time>2026-03-29T12:01:12.309Z</time></trkpt><trkpt lat="43.9834833" lon="10.906105"><ele>390.0</ele><time>2026-03-29T12:01:13.309Z</time></trkpt><trkpt lat="43.98337" lon="10.9060683"><ele>390.0</ele><time>2026-03-29T12:01:14.311Z</time></trkpt><trkpt lat="43.9832533" lon="10.9060317"><ele>392.0</ele><time>2026-03-29T12:01:15.309Z</time></trkpt><trkpt lat="43.9831383" lon="10.9059983"><ele>394.0</ele><time>2026-03-29T12:01:16.31Z</time></trkpt><trkpt lat="43.9830233" lon="10.905965"><ele>396.0</ele><time>2026-03-29T12:01:17.311Z</time></trkpt><trkpt lat="43.9829133" lon="10.90593"><ele>398.0</ele><time>2026-03-29T12:01:18.309Z</time></trkpt><trkpt lat="43.9828067" lon="10.90589"><ele>398.0</ele><time>2026-03-29T12:01:19.309Z</time></trkpt><trkpt lat="43.982705" lon="10.9058517"><ele>398.0</ele><time>2026-03-29T12:01:20.31Z</time></trkpt><trkpt lat="43.9826117" lon="10.9058067"><ele>398.0</ele><time>2026-03-29T12:01:21.311Z</time></trkpt><trkpt lat="43.9825267" lon="10.9057467"><ele>398.0</ele><time>2026-03-29T12:01:22.311Z</time></trkpt><trkpt lat="43.982445" lon="10.9056767"><ele>398.0</ele><time>2026-03-29T12:01:23.31Z</time></trkpt><trkpt lat="43.9823717" lon="10.90559"><ele>395.0</ele><time>2026-03-29T12:01:24.312Z</time></trkpt><trkpt lat="43.98231" lon="10.9054883"><ele>392.0</ele><time>2026-03-29T12:01:25.31Z</time></trkpt><trkpt lat="43.9822617" lon="10.9053717"><ele>389.0</ele><time>2026-03-29T12:01:26.31Z</time></trkpt><trkpt lat="43.982225" lon="10.9052333"><ele>386.0</ele><time>2026-03-29T12:01:27.309Z</time></trkpt><trkpt lat="43.9822033" lon="10.905085"><ele>383.0</ele><time>2026-03-29T12:01:28.31Z</time></trkpt><trkpt lat="43.9821917" lon="10.9049417"><ele>383.0</ele><time>2026-03-29T12:01:29.309Z</time></trkpt><trkpt lat="43.9821867" lon="10.9047933"><ele>383.0</ele><time>2026-03-29T12:01:30.309Z</time></trkpt><trkpt lat="43.9821867" lon="10.9046433"><ele>383.0</ele><time>2026-03-29T12:01:31.31Z</time></trkpt><trkpt lat="43.9821883" lon="10.9044917"><ele>383.0</ele><time>2026-03-29T12:01:32.311Z</time></trkpt><trkpt lat="43.98219" lon="10.9043383"><ele>383.0</ele><time>2026-03-29T12:01:33.308Z</time></trkpt><trkpt lat="43.982195" lon="10.9041833"><ele>383.25</ele><time>2026-03-29T12:01:34.309Z</time></trkpt><trkpt lat="43.9822017" lon="10.9040267"><ele>383.5</ele><time>2026-03-29T12:01:35.31Z</time></trkpt><trkpt lat="43.98221" lon="10.90387"><ele>383.75</ele><time>2026-03-29T12:01:36.31Z</time></trkpt><trkpt lat="43.9822183" lon="10.90371"><ele>384.0</ele><time>2026-03-29T12:01:37.31Z</time></trkpt><trkpt lat="43.9822267" lon="10.9035467"><ele>382.5</ele><time>2026-03-29T12:01:38.31Z</time></trkpt><trkpt lat="43.982235" lon="10.90338"><ele>381.0</ele><time>2026-03-29T12:01:39.31Z</time></trkpt><trkpt lat="43.982245" lon="10.9032083"><ele>379.5</ele><time>2026-03-29T12:01:40.309Z</time></trkpt><trkpt lat="43.9822567" lon="10.903035"><ele>378.0</ele><time>2026-03-29T12:01:41.309Z</time></trkpt><trkpt lat="43.9822667" lon="10.9028633"><ele>378.0</ele><time>2026-03-29T12:01:42.308Z</time></trkpt><trkpt lat="43.9822767" lon="10.9026867"><ele>378.0</ele><time>2026-03-29T12:01:43.311Z</time></trkpt><trkpt lat="43.9822883" lon="10.9025083"><ele>378.0</ele><time>2026-03-29T12:01:44.31Z</time></trkpt><trkpt lat="43.9823017" lon="10.9023283"><ele>378.0</ele><time>2026-03-29T12:01:45.309Z</time></trkpt><trkpt lat="43.9823117" lon="10.9021517"><ele>374.0</ele><time>2026-03-29T12:01:46.31Z</time></trkpt><trkpt lat="43.9823233" lon="10.901975"><ele>370.0</ele><time>2026-03-29T12:01:47.309Z</time></trkpt><trkpt lat="43.982335" lon="10.9018067"><ele>366.0</ele><time>2026-03-29T12:01:48.309Z</time></trkpt><trkpt lat="43.9823467" lon="10.90164"><ele>362.0</ele><time>2026-03-29T12:01:49.311Z</time></trkpt><trkpt lat="43.98236" lon="10.90148"><ele>360.8</ele><time>2026-03-29T12:01:50.309Z</time></trkpt><trkpt lat="43.98237" lon="10.90133"><ele>359.6</ele><time>2026-03-29T12:01:51.309Z</time></trkpt><trkpt lat="43.9823783" lon="10.901185"><ele>358.40000000000003</ele><time>2026-03-29T12:01:52.307Z</time></trkpt><trkpt lat="43.9823867" lon="10.901045"><ele>357.20000000000005</ele><time>2026-03-29T12:01:53.31Z</time></trkpt><trkpt lat="43.9823883" lon="10.9009133"><ele>356.0</ele><time>2026-03-29T12:01:54.309Z</time></trkpt><trkpt lat="43.9823867" lon="10.90079"><ele>354.5</ele><time>2026-03-29T12:01:55.309Z</time></trkpt><trkpt lat="43.982375" lon="10.9006667"><ele>353.0</ele><time>2026-03-29T12:01:56.31Z</time></trkpt><trkpt lat="43.9823367" lon="10.90057"><ele>351.5</ele><time>2026-03-29T12:01:57.309Z</time></trkpt><trkpt lat="43.9822817" lon="10.900485"><ele>350.0</ele><time>2026-03-29T12:01:58.31Z</time></trkpt><trkpt lat="43.9822083" lon="10.9004217"><ele>348.5</ele><time>2026-03-29T12:01:59.311Z</time></trkpt><trkpt lat="43.982125" lon="10.9003783"><ele>347.0</ele><time>2026-03-29T12:02:00.31Z</time></trkpt><trkpt lat="43.9820367" lon="10.9003583"><ele>347.0</ele><time>2026-03-29T12:02:01.311Z</time></trkpt><trkpt lat="43.9819517" lon="10.9003783"><ele>347.0</ele><time>2026-03-29T12:02:02.309Z</time></trkpt><trkpt lat="43.9818667" lon="10.9004183"><ele>347.0</ele><time>2026-03-29T12:02:03.307Z</time></trkpt><trkpt lat="43.9817883" lon="10.90049"><ele>347.0</ele><time>2026-03-29T12:02:04.31Z</time></trkpt><trkpt lat="43.9817183" lon="10.90059"><ele>347.0</ele><time>2026-03-29T12:02:05.308Z</time></trkpt><trkpt lat="43.9816617" lon="10.9007017"><ele>345.20000000000005</ele><time>2026-03-29T12:02:06.309Z</time></trkpt><trkpt lat="43.9816133" lon="10.9008283"><ele>343.4</ele><time>2026-03-29T12:02:07.307Z</time></trkpt><trkpt lat="43.98158" lon="10.9009667"><ele>341.6</ele><time>2026-03-29T12:02:08.309Z</time></trkpt><trkpt lat="43.98157" lon="10.9011117"><ele>339.79999999999995</ele><time>2026-03-29T12:02:09.309Z</time></trkpt><trkpt lat="43.98158" lon="10.9012567"><ele>338.0</ele><time>2026-03-29T12:02:10.307Z</time></trkpt><trkpt lat="43.9815967" lon="10.901405"><ele>338.0</ele><time>2026-03-29T12:02:11.309Z</time></trkpt><trkpt lat="43.981605" lon="10.9015583"><ele>338.0</ele><time>2026-03-29T12:02:12.309Z</time></trkpt><trkpt lat="43.9816233" lon="10.9017133"><ele>338.0</ele><time>2026-03-29T12:02:13.31Z</time></trkpt><trkpt lat="43.9816417" lon="10.9018683"><ele>338.0</ele><time>2026-03-29T12:02:14.308Z</time></trkpt><trkpt lat="43.9816533" lon="10.9020267"><ele>338.0</ele><time>2026-03-29T12:02:15.31Z</time></trkpt><trkpt lat="43.9816517" lon="10.9021817"><ele>338.0</ele><time>2026-03-29T12:02:16.308Z</time></trkpt><trkpt lat="43.9816333" lon="10.902325"><ele>338.0</ele><time>2026-03-29T12:02:17.309Z</time></trkpt><trkpt lat="43.9815967" lon="10.90246"><ele>338.0</ele><time>2026-03-29T12:02:18.309Z</time></trkpt><trkpt lat="43.98154" lon="10.9025783"><ele>338.0</ele><time>2026-03-29T12:02:19.309Z</time></trkpt><trkpt lat="43.9814633" lon="10.90268"><ele>339.79999999999995</ele><time>2026-03-29T12:02:20.309Z</time></trkpt><trkpt lat="43.9813767" lon="10.9027733"><ele>341.6</ele><time>2026-03-29T12:02:21.308Z</time></trkpt><trkpt lat="43.9812867" lon="10.902865"><ele>343.4</ele><time>2026-03-29T12:02:22.309Z</time></trkpt><trkpt lat="43.9812" lon="10.9029583"><ele>345.20000000000005</ele><time>2026-03-29T12:02:23.31Z</time></trkpt><trkpt lat="43.98112" lon="10.9030517"><ele>347.0</ele><time>2026-03-29T12:02:24.311Z</time></trkpt><trkpt lat="43.981045" lon="10.90315"><ele>347.0</ele><time>2026-03-29T12:02:25.308Z</time></trkpt><trkpt lat="43.980975" lon="10.9032533"><ele>347.0</ele><time>2026-03-29T12:02:26.311Z</time></trkpt><trkpt lat="43.9809117" lon="10.9033617"><ele>347.0</ele><time>2026-03-29T12:02:27.31Z</time></trkpt><trkpt lat="43.980855" lon="10.90348"><ele>347.0</ele><time>2026-03-29T12:02:28.309Z</time></trkpt><trkpt lat="43.9808117" lon="10.9036083"><ele>347.0</ele><time>2026-03-29T12:02:29.309Z</time></trkpt><trkpt lat="43.9807783" lon="10.903745"><ele>342.6</ele><time>2026-03-29T12:02:30.309Z</time></trkpt><trkpt lat="43.9807533" lon="10.9038867"><ele>338.20000000000005</ele><time>2026-03-29T12:02:31.309Z</time></trkpt><trkpt lat="43.9807367" lon="10.9040367"><ele>333.8</ele><time>2026-03-29T12:02:32.309Z</time></trkpt><trkpt lat="43.9807233" lon="10.9041867"><ele>329.4</ele><time>2026-03-29T12:02:33.309Z</time></trkpt><trkpt lat="43.98071" lon="10.9043417"><ele>325.0</ele><time>2026-03-29T12:02:34.31Z</time></trkpt><trkpt lat="43.9806967" lon="10.9044983"><ele>325.0</ele><time>2026-03-29T12:02:35.31Z</time></trkpt><trkpt lat="43.98068" lon="10.9046583"><ele>325.0</ele><time>2026-03-29T12:02:36.308Z</time></trkpt><trkpt lat="43.9806633" lon="10.9048167"><ele>325.0</ele><time>2026-03-29T12:02:37.307Z</time></trkpt><trkpt lat="43.9806533" lon="10.904975"><ele>325.0</ele><time>2026-03-29T12:02:38.31Z</time></trkpt><trkpt lat="43.98064" lon="10.9051383"><ele>325.2</ele><time>2026-03-29T12:02:39.309Z</time></trkpt><trkpt lat="43.98063" lon="10.9052967"><ele>325.4</ele><time>2026-03-29T12:02:40.31Z</time></trkpt><trkpt lat="43.980615" lon="10.9054467"><ele>325.6</ele><time>2026-03-29T12:02:41.309Z</time></trkpt><trkpt lat="43.9806017" lon="10.9055883"><ele>325.8</ele><time>2026-03-29T12:02:42.311Z</time></trkpt><trkpt lat="43.98059" lon="10.9057167"><ele>326.0</ele><time>2026-03-29T12:02:43.311Z</time></trkpt><trkpt lat="43.980575" lon="10.9058317"><ele>324.33333333333337</ele><time>2026-03-29T12:02:44.308Z</time></trkpt><trkpt lat="43.9805483" lon="10.9059333"><ele>322.6666666666667</ele><time>2026-03-29T12:02:45.309Z</time></trkpt><trkpt lat="43.9805083" lon="10.9060183"><ele>321.0</ele><time>2026-03-29T12:02:46.309Z</time></trkpt><trkpt lat="43.980455" lon="10.906075"><ele>319.3333333333333</ele><time>2026-03-29T12:02:47.312Z</time></trkpt><trkpt lat="43.9803867" lon="10.9061"><ele>317.66666666666663</ele><time>2026-03-29T12:02:48.309Z</time></trkpt><trkpt lat="43.9803067" lon="10.9060683"><ele>316.0</ele><time>2026-03-29T12:02:49.31Z</time></trkpt><trkpt lat="43.98024" lon="10.905995"><ele>318.0</ele><time>2026-03-29T12:02:50.31Z</time></trkpt><trkpt lat="43.9801967" lon="10.90589"><ele>320.0</ele><time>2026-03-29T12:02:51.308Z</time></trkpt><trkpt lat="43.9801733" lon="10.9057683"><ele>322.0</ele><time>2026-03-29T12:02:52.309Z</time></trkpt><trkpt lat="43.980165" lon="10.9056383"><ele>324.0</ele><time>2026-03-29T12:02:53.31Z</time></trkpt><trkpt lat="43.9801667" lon="10.9055033"><ele>326.0</ele><time>2026-03-29T12:02:54.31Z</time></trkpt><trkpt lat="43.9801717" lon="10.9053583"><ele>326.0</ele><time>2026-03-29T12:02:55.309Z</time></trkpt><trkpt lat="43.98019" lon="10.9052117"><ele>326.0</ele><time>2026-03-29T12:02:56.31Z</time></trkpt><trkpt lat="43.9802117" lon="10.905065"><ele>326.0</ele><time>2026-03-29T12:02:57.311Z</time></trkpt><trkpt lat="43.9802283" lon="10.9049167"><ele>326.0</ele><time>2026-03-29T12:02:58.307Z</time></trkpt><trkpt lat="43.9802433" lon="10.9047667"><ele>326.0</ele><time>2026-03-29T12:02:59.31Z</time></trkpt><trkpt lat="43.9802567" lon="10.9046133"><ele>325.75</ele><time>2026-03-29T12:03:00.31Z</time></trkpt><trkpt lat="43.9802683" lon="10.9044583"><ele>325.5</ele><time>2026-03-29T12:03:01.309Z</time></trkpt><trkpt lat="43.980275" lon="10.904305"><ele>325.25</ele><time>2026-03-29T12:03:02.31Z</time></trkpt><trkpt lat="43.9802733" lon="10.9041417"><ele>325.0</ele><time>2026-03-29T12:03:03.309Z</time></trkpt><trkpt lat="43.9802567" lon="10.9039767"><ele>324.0</ele><time>2026-03-29T12:03:04.308Z</time></trkpt><trkpt lat="43.9802233" lon="10.903815"><ele>323.0</ele><time>2026-03-29T12:03:05.309Z</time></trkpt><trkpt lat="43.9801833" lon="10.9036567"><ele>322.0</ele><time>2026-03-29T12:03:06.308Z</time></trkpt><trkpt lat="43.980145" lon="10.9035067"><ele>321.0</ele><time>2026-03-29T12:03:07.311Z</time></trkpt><trkpt lat="43.9801117" lon="10.9033617"><ele>320.8</ele><time>2026-03-29T12:03:08.31Z</time></trkpt><trkpt lat="43.980085" lon="10.9032217"><ele>320.6</ele><time>2026-03-29T12:03:09.31Z</time></trkpt><trkpt lat="43.9800733" lon="10.903085"><ele>320.4</ele><time>2026-03-29T12:03:10.309Z</time></trkpt><trkpt lat="43.98008" lon="10.902945"><ele>320.2</ele><time>2026-03-29T12:03:11.311Z</time></trkpt><trkpt lat="43.9801017" lon="10.90281"><ele>320.0</ele><time>2026-03-29T12:03:12.309Z</time></trkpt><trkpt lat="43.9801367" lon="10.9026767"><ele>318.6</ele><time>2026-03-29T12:03:13.308Z</time></trkpt><trkpt lat="43.980175" lon="10.902545"><ele>317.2</ele><time>2026-03-29T12:03:14.309Z</time></trkpt><trkpt lat="43.9802117" lon="10.9024083"><ele>315.8</ele><time>2026-03-29T12:03:15.312Z</time></trkpt><trkpt lat="43.9802467" lon="10.9022733"><ele>314.4</ele><time>2026-03-29T12:03:16.309Z</time></trkpt><trkpt lat="43.9802767" lon="10.9021333"><ele>313.0</ele><time>2026-03-29T12:03:17.309Z</time></trkpt><trkpt lat="43.980295" lon="10.9019933"><ele>313.0</ele><time>2026-03-29T12:03:18.309Z</time></trkpt><trkpt lat="43.9803033" lon="10.9018517"><ele>313.0</ele><time>2026-03-29T12:03:19.307Z</time></trkpt><trkpt lat="43.9802983" lon="10.9017117"><ele>313.0</ele><time>2026-03-29T12:03:20.312Z</time></trkpt><trkpt lat="43.9802833" lon="10.9015717"><ele>313.0</ele><time>2026-03-29T12:03:21.309Z</time></trkpt><trkpt lat="43.9802583" lon="10.9014367"><ele>313.0</ele><time>2026-03-29T12:03:22.308Z</time></trkpt><trkpt lat="43.98024" lon="10.9012967"><ele>312.6</ele><time>2026-03-29T12:03:23.309Z</time></trkpt><trkpt lat="43.9802167" lon="10.9011583"><ele>312.20000000000005</ele><time>2026-03-29T12:03:24.31Z</time></trkpt><trkpt lat="43.9801967" lon="10.9010233"><ele>311.8</ele><time>2026-03-29T12:03:25.309Z</time></trkpt><trkpt lat="43.9801767" lon="10.9008833"><ele>311.40000000000003</ele><time>2026-03-29T12:03:26.311Z</time></trkpt><trkpt lat="43.9801683" lon="10.9007417"><ele>311.0</ele><time>2026-03-29T12:03:27.309Z</time></trkpt><trkpt lat="43.9801717" lon="10.9005967"><ele>311.0</ele><time>2026-03-29T12:03:28.308Z</time></trkpt><trkpt lat="43.9801883" lon="10.900445"><ele>311.0</ele><time>2026-03-29T12:03:29.311Z</time></trkpt><trkpt lat="43.980205" lon="10.9002983"><ele>311.0</ele><time>2026-03-29T12:03:30.309Z</time></trkpt><trkpt lat="43.9802183" lon="10.90016"><ele>311.0</ele><time>2026-03-29T12:03:31.31Z</time></trkpt><trkpt lat="43.9802317" lon="10.9000333"><ele>311.0</ele><time>2026-03-29T12:03:32.309Z</time></trkpt><trkpt lat="43.9802367" lon="10.899915"><ele>310.4285714285714</ele><time>2026-03-29T12:03:33.309Z</time></trkpt><trkpt lat="43.980245" lon="10.8998067"><ele>309.8571428571429</ele><time>2026-03-29T12:03:34.31Z</time></trkpt><trkpt lat="43.9802283" lon="10.89972"><ele>309.2857142857143</ele><time>2026-03-29T12:03:35.308Z</time></trkpt><trkpt lat="43.98018" lon="10.8996567"><ele>308.71428571428567</ele><time>2026-03-29T12:03:36.31Z</time></trkpt><trkpt lat="43.980115" lon="10.8996217"><ele>308.1428571428571</ele><time>2026-03-29T12:03:37.308Z</time></trkpt><trkpt lat="43.9800417" lon="10.89962"><ele>307.57142857142856</ele><time>2026-03-29T12:03:38.31Z</time></trkpt><trkpt lat="43.9799733" lon="10.8996533"><ele>307.0</ele><time>2026-03-29T12:03:39.31Z</time></trkpt><trkpt lat="43.979915" lon="10.8997283"><ele>302.8</ele><time>2026-03-29T12:03:40.31Z</time></trkpt><trkpt lat="43.97987" lon="10.8998283"><ele>298.6</ele><time>2026-03-29T12:03:41.309Z</time></trkpt><trkpt lat="43.9798317" lon="10.8999433"><ele>294.40000000000003</ele><time>2026-03-29T12:03:42.309Z</time></trkpt><trkpt lat="43.9797967" lon="10.9000633"><ele>290.2</ele><time>2026-03-29T12:03:43.309Z</time></trkpt><trkpt lat="43.979765" lon="10.90019"><ele>286.0</ele><time>2026-03-29T12:03:44.31Z</time></trkpt><trkpt lat="43.9797383" lon="10.9003233"><ele>286.0</ele><time>2026-03-29T12:03:45.309Z</time></trkpt><trkpt lat="43.9797167" lon="10.9004567"><ele>286.0</ele><time>2026-03-29T12:03:46.312Z</time></trkpt><trkpt lat="43.9796983" lon="10.9005917"><ele>286.0</ele><time>2026-03-29T12:03:47.31Z</time></trkpt><trkpt lat="43.97969" lon="10.9007333"><ele>286.0</ele><time>2026-03-29T12:03:48.309Z</time></trkpt><trkpt lat="43.9796883" lon="10.9008767"><ele>286.0</ele><time>2026-03-29T12:03:49.311Z</time></trkpt><trkpt lat="43.9796917" lon="10.9010267"><ele>286.2</ele><time>2026-03-29T12:03:50.311Z</time></trkpt><trkpt lat="43.979695" lon="10.90118"><ele>286.40000000000003</ele><time>2026-03-29T12:03:51.308Z</time></trkpt><trkpt lat="43.979695" lon="10.9013283"><ele>286.6</ele><time>2026-03-29T12:03:52.309Z</time></trkpt><trkpt lat="43.9796833" lon="10.9014667"><ele>286.8</ele><time>2026-03-29T12:03:53.309Z</time></trkpt><trkpt lat="43.97965" lon="10.9015917"><ele>287.0</ele><time>2026-03-29T12:03:54.309Z</time></trkpt><trkpt lat="43.9795917" lon="10.9016983"><ele>288.0</ele><time>2026-03-29T12:03:55.309Z</time></trkpt><trkpt lat="43.979515" lon="10.9017867"><ele>289.0</ele><time>2026-03-29T12:03:56.312Z</time></trkpt><trkpt lat="43.9794233" lon="10.9018583"><ele>290.0</ele><time>2026-03-29T12:03:57.31Z</time></trkpt><trkpt lat="43.9793217" lon="10.9019133"><ele>291.0</ele><time>2026-03-29T12:03:58.31Z</time></trkpt><trkpt lat="43.9792167" lon="10.901955"><ele>292.0</ele><time>2026-03-29T12:03:59.31Z</time></trkpt><trkpt lat="43.9791083" lon="10.9019817"><ele>288.25</ele><time>2026-03-29T12:04:00.31Z</time></trkpt><trkpt lat="43.978995" lon="10.9020067"><ele>284.5</ele><time>2026-03-29T12:04:01.31Z</time></trkpt><trkpt lat="43.9788783" lon="10.9020367"><ele>280.75</ele><time>2026-03-29T12:04:02.311Z</time></trkpt><trkpt lat="43.9787567" lon="10.902065"><ele>277.0</ele><time>2026-03-29T12:04:03.311Z</time></trkpt><trkpt lat="43.9786333" lon="10.9020917"><ele>277.0</ele><time>2026-03-29T12:04:04.309Z</time></trkpt><trkpt lat="43.9785117" lon="10.9021233"><ele>277.0</ele><time>2026-03-29T12:04:05.31Z</time></trkpt><trkpt lat="43.97839" lon="10.90216"><ele>277.0</ele><time>2026-03-29T12:04:06.309Z</time></trkpt><trkpt lat="43.978265" lon="10.9021967"><ele>277.0</ele><time>2026-03-29T12:04:07.312Z</time></trkpt><trkpt lat="43.9781417" lon="10.9022283"><ele>273.75</ele><time>2026-03-29T12:04:08.308Z</time></trkpt><trkpt lat="43.9780183" lon="10.9022533"><ele>270.5</ele><time>2026-03-29T12:04:09.311Z</time></trkpt><trkpt lat="43.9778917" lon="10.902265"><ele>267.25</ele><time>2026-03-29T12:04:10.311Z</time></trkpt><trkpt lat="43.9777633" lon="10.902265"><ele>264.0</ele><time>2026-03-29T12:04:11.309Z</time></trkpt><trkpt lat="43.977635" lon="10.9022567"><ele>262.25</ele><time>2026-03-29T12:04:12.31Z</time></trkpt><trkpt lat="43.977505" lon="10.9022433"><ele>260.5</ele><time>2026-03-29T12:04:13.309Z</time></trkpt><trkpt lat="43.9773767" lon="10.90223"><ele>258.75</ele><time>2026-03-29T12:04:14.31Z</time></trkpt><trkpt lat="43.9772517" lon="10.9022217"><ele>257.0</ele><time>2026-03-29T12:04:15.308Z</time></trkpt><trkpt lat="43.9771267" lon="10.9022183"><ele>257.0</ele><time>2026-03-29T12:04:16.309Z</time></trkpt><trkpt lat="43.9770017" lon="10.9022167"><ele>257.0</ele><time>2026-03-29T12:04:17.308Z</time></trkpt><trkpt lat="43.976875" lon="10.90222"><ele>257.0</ele><time>2026-03-29T12:04:18.309Z</time></trkpt><trkpt lat="43.9767483" lon="10.9022283"><ele>257.0</ele><time>2026-03-29T12:04:19.311Z</time></trkpt><trkpt lat="43.9766233" lon="10.90224"><ele>256.25</ele><time>2026-03-29T12:04:20.31Z</time></trkpt><trkpt lat="43.9764983" lon="10.9022567"><ele>255.5</ele><time>2026-03-29T12:04:21.309Z</time></trkpt><trkpt lat="43.97638" lon="10.9022867"><ele>254.75</ele><time>2026-03-29T12:04:22.311Z</time></trkpt><trkpt lat="43.97627" lon="10.9023367"><ele>254.0</ele><time>2026-03-29T12:04:23.31Z</time></trkpt><trkpt lat="43.9761683" lon="10.9024017"><ele>254.0</ele><time>2026-03-29T12:04:24.311Z</time></trkpt><trkpt lat="43.9760717" lon="10.90247"><ele>253.99999999999997</ele><time>2026-03-29T12:04:25.309Z</time></trkpt><trkpt lat="43.97598" lon="10.902525"><ele>253.99999999999997</ele><time>2026-03-29T12:04:26.308Z</time></trkpt><trkpt lat="43.9758767" lon="10.9025583"><ele>254.0</ele><time>2026-03-29T12:04:27.309Z</time></trkpt><trkpt lat="43.975775" lon="10.9025717"><ele>254.0</ele><time>2026-03-29T12:04:28.311Z</time></trkpt><trkpt lat="43.9756683" lon="10.90256"><ele>254.0</ele><time>2026-03-29T12:04:29.31Z</time></trkpt><trkpt lat="43.9755617" lon="10.90252"><ele>254.0</ele><time>2026-03-29T12:04:30.31Z</time></trkpt><trkpt lat="43.9754583" lon="10.902455"><ele>254.0</ele><time>2026-03-29T12:04:31.309Z</time></trkpt><trkpt lat="43.9753483" lon="10.90239"><ele>254.0</ele><time>2026-03-29T12:04:32.31Z</time></trkpt><trkpt lat="43.9752383" lon="10.9023267"><ele>254.0</ele><time>2026-03-29T12:04:33.31Z</time></trkpt><trkpt lat="43.9751283" lon="10.9022633"><ele>254.0</ele><time>2026-03-29T12:04:34.31Z</time></trkpt><trkpt lat="43.975015" lon="10.9022067"><ele>254.0</ele><time>2026-03-29T12:04:35.31Z</time></trkpt><trkpt lat="43.9749083" lon="10.9021633"><ele>254.0</ele><time>2026-03-29T12:04:36.309Z</time></trkpt><trkpt lat="43.9748033" lon="10.90214"><ele>251.2</ele><time>2026-03-29T12:04:37.311Z</time></trkpt><trkpt lat="43.9746983" lon="10.9021367"><ele>248.39999999999998</ele><time>2026-03-29T12:04:38.31Z</time></trkpt><trkpt lat="43.974595" lon="10.9021617"><ele>245.6</ele><time>2026-03-29T12:04:39.311Z</time></trkpt><trkpt lat="43.9744933" lon="10.9022017"><ele>242.8</ele><time>2026-03-29T12:04:40.309Z</time></trkpt><trkpt lat="43.9743917" lon="10.902255"><ele>240.0</ele><time>2026-03-29T12:04:41.308Z</time></trkpt><trkpt lat="43.9742883" lon="10.9023067"><ele>239.25</ele><time>2026-03-29T12:04:42.309Z</time></trkpt><trkpt lat="43.97418" lon="10.9023417"><ele>238.5</ele><time>2026-03-29T12:04:43.309Z</time></trkpt><trkpt lat="43.9740683" lon="10.902355"><ele>237.75</ele><time>2026-03-29T12:04:44.31Z</time></trkpt><trkpt lat="43.9739533" lon="10.9023567"><ele>237.0</ele><time>2026-03-29T12:04:45.309Z</time></trkpt><trkpt lat="43.97384" lon="10.9023517"><ele>237.0</ele><time>2026-03-29T12:04:46.31Z</time></trkpt><trkpt lat="43.9737317" lon="10.9023517"><ele>237.0</ele><time>2026-03-29T12:04:47.309Z</time></trkpt><trkpt lat="43.97363" lon="10.9023617"><ele>237.0</ele><time>2026-03-29T12:04:48.31Z</time></trkpt><trkpt lat="43.9735333" lon="10.9023883"><ele>237.0</ele><time>2026-03-29T12:04:49.31Z</time></trkpt><trkpt lat="43.973445" lon="10.902435"><ele>237.0</ele><time>2026-03-29T12:04:50.31Z</time></trkpt><trkpt lat="43.9733667" lon="10.9025117"><ele>234.6</ele><time>2026-03-29T12:04:51.31Z</time></trkpt><trkpt lat="43.9733017" lon="10.9026183"><ele>232.2</ele><time>2026-03-29T12:04:52.308Z</time></trkpt><trkpt lat="43.9732483" lon="10.9027417"><ele>229.8</ele><time>2026-03-29T12:04:53.31Z</time></trkpt><trkpt lat="43.9732" lon="10.9028767"><ele>227.4</ele><time>2026-03-29T12:04:54.31Z</time></trkpt><trkpt lat="43.9731583" lon="10.903015"><ele>225.0</ele><time>2026-03-29T12:04:55.311Z</time></trkpt><trkpt lat="43.97311" lon="10.9031583"><ele>225.0</ele><time>2026-03-29T12:04:56.311Z</time></trkpt><trkpt lat="43.9730667" lon="10.9033033"><ele>225.0</ele><time>2026-03-29T12:04:57.311Z</time></trkpt><trkpt lat="43.9730217" lon="10.9034483"><ele>225.0</ele><time>2026-03-29T12:04:58.309Z</time></trkpt><trkpt lat="43.9729733" lon="10.9035883"><ele>225.0</ele><time>2026-03-29T12:04:59.311Z</time></trkpt><trkpt lat="43.9729233" lon="10.90372"><ele>225.0</ele><time>2026-03-29T12:05:00.31Z</time></trkpt><trkpt lat="43.9728717" lon="10.90384"><ele>224.0</ele><time>2026-03-29T12:05:01.309Z</time></trkpt><trkpt lat="43.97281" lon="10.9039433"><ele>223.0</ele><time>2026-03-29T12:05:02.309Z</time></trkpt><trkpt lat="43.9727333" lon="10.9040283"><ele>222.0</ele><time>2026-03-29T12:05:03.311Z</time></trkpt><trkpt lat="43.9726417" lon="10.9040883"><ele>221.0</ele><time>2026-03-29T12:05:04.309Z</time></trkpt><trkpt lat="43.9725417" lon="10.9041317"><ele>220.0</ele><time>2026-03-29T12:05:05.31Z</time></trkpt><trkpt lat="43.9724367" lon="10.9041517"><ele>220.0</ele><time>2026-03-29T12:05:06.311Z</time></trkpt><trkpt lat="43.9723283" lon="10.9041517"><ele>220.0</ele><time>2026-03-29T12:05:07.311Z</time></trkpt><trkpt lat="43.9722183" lon="10.9041367"><ele>220.0</ele><time>2026-03-29T12:05:08.309Z</time></trkpt><trkpt lat="43.9721083" lon="10.9041083"><ele>220.0</ele><time>2026-03-29T12:05:09.311Z</time></trkpt><trkpt lat="43.972" lon="10.9040767"><ele>220.0</ele><time>2026-03-29T12:05:10.309Z</time></trkpt><trkpt lat="43.97189" lon="10.9040383"><ele>220.0</ele><time>2026-03-29T12:05:11.311Z</time></trkpt><trkpt lat="43.97178" lon="10.9039933"><ele>220.0</ele><time>2026-03-29T12:05:12.309Z</time></trkpt><trkpt lat="43.9716667" lon="10.9039533"><ele>220.0</ele><time>2026-03-29T12:05:13.311Z</time></trkpt><trkpt lat="43.97155" lon="10.903915"><ele>220.0</ele><time>2026-03-29T12:05:14.31Z</time></trkpt><trkpt lat="43.97143" lon="10.903875"><ele>218.0</ele><time>2026-03-29T12:05:15.312Z</time></trkpt><trkpt lat="43.9713083" lon="10.9038267"><ele>216.0</ele><time>2026-03-29T12:05:16.31Z</time></trkpt><trkpt lat="43.9711867" lon="10.903775"><ele>214.0</ele><time>2026-03-29T12:05:17.309Z</time></trkpt><trkpt lat="43.971065" lon="10.903725"><ele>212.0</ele><time>2026-03-29T12:05:18.31Z</time></trkpt><trkpt lat="43.9709383" lon="10.9036783"><ele>210.25</ele><time>2026-03-29T12:05:19.311Z</time></trkpt><trkpt lat="43.9708117" lon="10.9036333"><ele>208.5</ele><time>2026-03-29T12:05:20.31Z</time></trkpt><trkpt lat="43.970685" lon="10.90359"><ele>206.75</ele><time>2026-03-29T12:05:21.311Z</time></trkpt><trkpt lat="43.97056" lon="10.9035533"><ele>205.0</ele><time>2026-03-29T12:05:22.309Z</time></trkpt><trkpt lat="43.970435" lon="10.9035133"><ele>205.0</ele><time>2026-03-29T12:05:23.311Z</time></trkpt><trkpt lat="43.9703133" lon="10.9034733"><ele>205.0</ele><time>2026-03-29T12:05:24.31Z</time></trkpt><trkpt lat="43.9701933" lon="10.9034333"><ele>205.0</ele><time>2026-03-29T12:05:25.31Z</time></trkpt><trkpt lat="43.970075" lon="10.9034"><ele>205.0</ele><time>2026-03-29T12:05:26.31Z</time></trkpt><trkpt lat="43.9699567" lon="10.90337"><ele>204.75</ele><time>2026-03-29T12:05:27.311Z</time></trkpt><trkpt lat="43.96984" lon="10.903345"><ele>204.5</ele><time>2026-03-29T12:05:28.31Z</time></trkpt><trkpt lat="43.9697183" lon="10.9033333"><ele>204.25</ele><time>2026-03-29T12:05:29.31Z</time></trkpt><trkpt lat="43.9695967" lon="10.9033383"><ele>204.0</ele><time>2026-03-29T12:05:30.312Z</time></trkpt><trkpt lat="43.9694733" lon="10.90336"><ele>204.0</ele><time>2026-03-29T12:05:31.31Z</time></trkpt><trkpt lat="43.9693517" lon="10.903395"><ele>204.0</ele><time>2026-03-29T12:05:32.31Z</time></trkpt><trkpt lat="43.9692333" lon="10.9034417"><ele>204.0</ele><time>2026-03-29T12:05:33.309Z</time></trkpt><trkpt lat="43.9691167" lon="10.9034983"><ele>204.0</ele><time>2026-03-29T12:05:34.311Z</time></trkpt><trkpt lat="43.9690017" lon="10.9035583"><ele>201.5</ele><time>2026-03-29T12:05:35.311Z</time></trkpt><trkpt lat="43.9688883" lon="10.9036267"><ele>199.0</ele><time>2026-03-29T12:05:36.311Z</time></trkpt><trkpt lat="43.9687817" lon="10.9037117"><ele>196.5</ele><time>2026-03-29T12:05:37.309Z</time></trkpt><trkpt lat="43.9686717" lon="10.9038"><ele>194.0</ele><time>2026-03-29T12:05:38.311Z</time></trkpt><trkpt lat="43.9685717" lon="10.903895"><ele>194.0</ele><time>2026-03-29T12:05:39.309Z</time></trkpt><trkpt lat="43.968475" lon="10.90399"><ele>194.0</ele><time>2026-03-29T12:05:40.31Z</time></trkpt><trkpt lat="43.9683833" lon="10.90409"><ele>194.0</ele><time>2026-03-29T12:05:41.309Z</time></trkpt><trkpt lat="43.9683033" lon="10.9041967"><ele>194.0</ele><time>2026-03-29T12:05:42.31Z</time></trkpt><trkpt lat="43.96823" lon="10.9043083"><ele>194.0</ele><time>2026-03-29T12:05:43.312Z</time></trkpt><trkpt lat="43.9681633" lon="10.9044233"><ele>194.0</ele><time>2026-03-29T12:05:44.31Z</time></trkpt><trkpt lat="43.968105" lon="10.904545"><ele>194.0</ele><time>2026-03-29T12:05:45.307Z</time></trkpt><trkpt lat="43.9680533" lon="10.90467"><ele>194.0</ele><time>2026-03-29T12:05:46.31Z</time></trkpt><trkpt lat="43.9680067" lon="10.904795"><ele>194.0</ele><time>2026-03-29T12:05:47.312Z</time></trkpt><trkpt lat="43.9679667" lon="10.90492"><ele>194.0</ele><time>2026-03-29T12:05:48.31Z</time></trkpt><trkpt lat="43.9679317" lon="10.905045"><ele>194.0</ele><time>2026-03-29T12:05:49.311Z</time></trkpt><trkpt lat="43.9679033" lon="10.9051683"><ele>194.0</ele><time>2026-03-29T12:05:50.31Z</time></trkpt><trkpt lat="43.96787" lon="10.9052933"><ele>194.0</ele><time>2026-03-29T12:05:51.31Z</time></trkpt><trkpt lat="43.9678433" lon="10.905415"><ele>194.0</ele><time>2026-03-29T12:05:52.31Z</time></trkpt><trkpt lat="43.9678217" lon="10.905535"><ele>192.39999999999998</ele><time>2026-03-29T12:05:53.311Z</time></trkpt><trkpt lat="43.9677967" lon="10.905655"><ele>190.8</ele><time>2026-03-29T12:05:54.31Z</time></trkpt><trkpt lat="43.9677667" lon="10.9057767"><ele>189.2</ele><time>2026-03-29T12:05:55.312Z</time></trkpt><trkpt lat="43.96773" lon="10.9058983"><ele>187.60000000000002</ele><time>2026-03-29T12:05:56.311Z</time></trkpt><trkpt lat="43.967695" lon="10.9060167"><ele>186.0</ele><time>2026-03-29T12:05:57.309Z</time></trkpt><trkpt lat="43.967655" lon="10.9061317"><ele>186.5</ele><time>2026-03-29T12:05:58.31Z</time></trkpt><trkpt lat="43.9676067" lon="10.9062367"><ele>187.0</ele><time>2026-03-29T12:05:59.312Z</time></trkpt><trkpt lat="43.9675517" lon="10.9063233"><ele>187.5</ele><time>2026-03-29T12:06:00.309Z</time></trkpt><trkpt lat="43.9674817" lon="10.90639"><ele>188.0</ele><time>2026-03-29T12:06:01.31Z</time></trkpt><trkpt lat="43.967405" lon="10.906425"><ele>188.5</ele><time>2026-03-29T12:06:02.311Z</time></trkpt><trkpt lat="43.9673117" lon="10.90644"><ele>189.0</ele><time>2026-03-29T12:06:03.31Z</time></trkpt><trkpt lat="43.96721" lon="10.906435"><ele>189.0</ele><time>2026-03-29T12:06:04.312Z</time></trkpt><trkpt lat="43.96711" lon="10.9064083"><ele>189.0</ele><time>2026-03-29T12:06:05.312Z</time></trkpt><trkpt lat="43.9670117" lon="10.9063617"><ele>189.0</ele><time>2026-03-29T12:06:06.311Z</time></trkpt><trkpt lat="43.9669133" lon="10.9063033"><ele>189.0</ele><time>2026-03-29T12:06:07.31Z</time></trkpt><trkpt lat="43.9668183" lon="10.906225"><ele>189.0</ele><time>2026-03-29T12:06:08.308Z</time></trkpt><trkpt lat="43.966725" lon="10.90615"><ele>187.39999999999998</ele><time>2026-03-29T12:06:09.31Z</time></trkpt><trkpt lat="43.966635" lon="10.90608"><ele>185.8</ele><time>2026-03-29T12:06:10.312Z</time></trkpt><trkpt lat="43.9665467" lon="10.906025"><ele>184.2</ele><time>2026-03-29T12:06:11.31Z</time></trkpt><trkpt lat="43.966455" lon="10.9059917"><ele>182.60000000000002</ele><time>2026-03-29T12:06:12.31Z</time></trkpt><trkpt lat="43.966365" lon="10.9059817"><ele>181.0</ele><time>2026-03-29T12:06:13.31Z</time></trkpt><trkpt lat="43.9662733" lon="10.9059967"><ele>181.0</ele><time>2026-03-29T12:06:14.31Z</time></trkpt><trkpt lat="43.966185" lon="10.9060383"><ele>181.0</ele><time>2026-03-29T12:06:15.31Z</time></trkpt><trkpt lat="43.9660983" lon="10.90611"><ele>181.0</ele><time>2026-03-29T12:06:16.31Z</time></trkpt><trkpt lat="43.966025" lon="10.9061933"><ele>181.0</ele><time>2026-03-29T12:06:17.31Z</time></trkpt><trkpt lat="43.9659583" lon="10.90629"><ele>181.0</ele><time>2026-03-29T12:06:18.311Z</time></trkpt><trkpt lat="43.9658867" lon="10.9063767"><ele>180.4</ele><time>2026-03-29T12:06:19.31Z</time></trkpt><trkpt lat="43.9657967" lon="10.9064333"><ele>179.8</ele><time>2026-03-29T12:06:20.311Z</time></trkpt><trkpt lat="43.9656933" lon="10.9064683"><ele>179.20000000000002</ele><time>2026-03-29T12:06:21.31Z</time></trkpt><trkpt lat="43.9655833" lon="10.9064783"><ele>178.60000000000002</ele><time>2026-03-29T12:06:22.31Z</time></trkpt><trkpt lat="43.9654683" lon="10.9064767"><ele>178.0</ele><time>2026-03-29T12:06:23.311Z</time></trkpt><trkpt lat="43.96535" lon="10.9064683"><ele>178.0</ele><time>2026-03-29T12:06:24.31Z</time></trkpt><trkpt lat="43.9652317" lon="10.9064567"><ele>178.0</ele><time>2026-03-29T12:06:25.31Z</time></trkpt><trkpt lat="43.9651117" lon="10.9064417"><ele>178.0</ele><time>2026-03-29T12:06:26.311Z</time></trkpt><trkpt lat="43.9649917" lon="10.906425"><ele>178.0</ele><time>2026-03-29T12:06:27.31Z</time></trkpt><trkpt lat="43.96487" lon="10.906395"><ele>177.5</ele><time>2026-03-29T12:06:28.31Z</time></trkpt><trkpt lat="43.9647533" lon="10.906345"><ele>177.0</ele><time>2026-03-29T12:06:29.31Z</time></trkpt><trkpt lat="43.9646383" lon="10.9062767"><ele>176.5</ele><time>2026-03-29T12:06:30.31Z</time></trkpt><trkpt lat="43.96453" lon="10.9061783"><ele>176.0</ele><time>2026-03-29T12:06:31.31Z</time></trkpt><trkpt lat="43.964425" lon="10.906075"><ele>176.0</ele><time>2026-03-29T12:06:32.311Z</time></trkpt><trkpt lat="43.96432" lon="10.90597"><ele>176.0</ele><time>2026-03-29T12:06:33.31Z</time></trkpt><trkpt lat="43.9642167" lon="10.9058683"><ele>176.0</ele><time>2026-03-29T12:06:34.312Z</time></trkpt><trkpt lat="43.964115" lon="10.9057733"><ele>176.0</ele><time>2026-03-29T12:06:35.311Z</time></trkpt><trkpt lat="43.9640133" lon="10.905675"><ele>175.25</ele><time>2026-03-29T12:06:36.309Z</time></trkpt><trkpt lat="43.9639117" lon="10.9055767"><ele>174.5</ele><time>2026-03-29T12:06:37.31Z</time></trkpt><trkpt lat="43.9638083" lon="10.9054767"><ele>173.75</ele><time>2026-03-29T12:06:38.309Z</time></trkpt><trkpt lat="43.9637067" lon="10.9053783"><ele>173.0</ele><time>2026-03-29T12:06:39.309Z</time></trkpt><trkpt lat="43.9636117" lon="10.9052833"><ele>173.0</ele><time>2026-03-29T12:06:40.309Z</time></trkpt><trkpt lat="43.96352" lon="10.9051933"><ele>173.0</ele><time>2026-03-29T12:06:41.311Z</time></trkpt><trkpt lat="43.963435" lon="10.905105"><ele>173.0</ele><time>2026-03-29T12:06:42.308Z</time></trkpt><trkpt lat="43.9633617" lon="10.905015"><ele>173.0</ele><time>2026-03-29T12:06:43.31Z</time></trkpt><trkpt lat="43.9633067" lon="10.9049167"><ele>173.0</ele><time>2026-03-29T12:06:44.309Z</time></trkpt><trkpt lat="43.963265" lon="10.904805"><ele>173.8</ele><time>2026-03-29T12:06:45.308Z</time></trkpt><trkpt lat="43.9632417" lon="10.9046883"><ele>174.60000000000002</ele><time>2026-03-29T12:06:46.308Z</time></trkpt><trkpt lat="43.9632433" lon="10.9045617"><ele>175.39999999999998</ele><time>2026-03-29T12:06:47.309Z</time></trkpt><trkpt lat="43.9632717" lon="10.9044383"><ele>176.2</ele><time>2026-03-29T12:06:48.31Z</time></trkpt><trkpt lat="43.9633167" lon="10.9043217"><ele>177.0</ele><time>2026-03-29T12:06:49.311Z</time></trkpt><trkpt lat="43.9633683" lon="10.9042117"><ele>177.0</ele><time>2026-03-29T12:06:50.31Z</time></trkpt><trkpt lat="43.9634267" lon="10.9040983"><ele>177.0</ele><time>2026-03-29T12:06:51.311Z</time></trkpt><trkpt lat="43.9634833" lon="10.9039817"><ele>177.0</ele><time>2026-03-29T12:06:52.31Z</time></trkpt><trkpt lat="43.9635417" lon="10.9038617"><ele>177.0</ele><time>2026-03-29T12:06:53.311Z</time></trkpt><trkpt lat="43.9635867" lon="10.9037367"><ele>177.0</ele><time>2026-03-29T12:06:54.31Z</time></trkpt><trkpt lat="43.963615" lon="10.9036"><ele>177.0</ele><time>2026-03-29T12:06:55.311Z</time></trkpt><trkpt lat="43.963625" lon="10.903455"><ele>177.0</ele><time>2026-03-29T12:06:56.314Z</time></trkpt><trkpt lat="43.9636183" lon="10.9033067"><ele>177.0</ele><time>2026-03-29T12:06:57.311Z</time></trkpt><trkpt lat="43.963595" lon="10.90316"><ele>177.0</ele><time>2026-03-29T12:06:58.313Z</time></trkpt><trkpt lat="43.9635533" lon="10.9030183"><ele>177.0</ele><time>2026-03-29T12:06:59.312Z</time></trkpt><trkpt lat="43.963495" lon="10.9028833"><ele>175.0</ele><time>2026-03-29T12:07:00.311Z</time></trkpt><trkpt lat="43.963425" lon="10.9027567"><ele>173.0</ele><time>2026-03-29T12:07:01.31Z</time></trkpt><trkpt lat="43.9633417" lon="10.902645"><ele>171.0</ele><time>2026-03-29T12:07:02.311Z</time></trkpt><trkpt lat="43.96325" lon="10.90255"><ele>169.0</ele><time>2026-03-29T12:07:03.31Z</time></trkpt><trkpt lat="43.96315" lon="10.9024667"><ele>166.75</ele><time>2026-03-29T12:07:04.308Z</time></trkpt><trkpt lat="43.96304" lon="10.9024083"><ele>164.5</ele><time>2026-03-29T12:07:05.312Z</time></trkpt><trkpt lat="43.962925" lon="10.902365"><ele>162.25</ele><time>2026-03-29T12:07:06.314Z</time></trkpt><trkpt lat="43.9628067" lon="10.9023317"><ele>160.0</ele><time>2026-03-29T12:07:07.309Z</time></trkpt><trkpt lat="43.9626883" lon="10.902305"><ele>160.0</ele><time>2026-03-29T12:07:08.311Z</time></trkpt><trkpt lat="43.962565" lon="10.902285"><ele>160.0</ele><time>2026-03-29T12:07:09.309Z</time></trkpt><trkpt lat="43.96244" lon="10.9022683"><ele>160.0</ele><time>2026-03-29T12:07:10.307Z</time></trkpt><trkpt lat="43.96231" lon="10.9022517"><ele>160.0</ele><time>2026-03-29T12:07:11.309Z</time></trkpt><trkpt lat="43.9621817" lon="10.9022333"><ele>156.5</ele><time>2026-03-29T12:07:12.31Z</time></trkpt><trkpt lat="43.96205" lon="10.90222"><ele>153.0</ele><time>2026-03-29T12:07:13.31Z</time></trkpt><trkpt lat="43.9619183" lon="10.9022067"><ele>149.5</ele><time>2026-03-29T12:07:14.31Z</time></trkpt><trkpt lat="43.9617867" lon="10.902195"><ele>146.0</ele><time>2026-03-29T12:07:15.31Z</time></trkpt><trkpt lat="43.9616517" lon="10.9021783"><ele>144.25</ele><time>2026-03-29T12:07:16.309Z</time></trkpt><trkpt lat="43.9615167" lon="10.9021583"><ele>142.5</ele><time>2026-03-29T12:07:17.309Z</time></trkpt><trkpt lat="43.96138" lon="10.9021433"><ele>140.75</ele><time>2026-03-29T12:07:18.309Z</time></trkpt><trkpt lat="43.9612433" lon="10.9021267"><ele>139.0</ele><time>2026-03-29T12:07:19.309Z</time></trkpt><trkpt lat="43.9611067" lon="10.902115"><ele>139.0</ele><time>2026-03-29T12:07:20.31Z</time></trkpt><trkpt lat="43.9609667" lon="10.9020983"><ele>139.0</ele><time>2026-03-29T12:07:21.309Z</time></trkpt><trkpt lat="43.9608283" lon="10.902085"><ele>139.0</ele><time>2026-03-29T12:07:22.309Z</time></trkpt><trkpt lat="43.9606917" lon="10.90207"><ele>139.0</ele><time>2026-03-29T12:07:23.309Z</time></trkpt><trkpt lat="43.9605517" lon="10.9020567"><ele>137.5</ele><time>2026-03-29T12:07:24.307Z</time></trkpt><trkpt lat="43.9604117" lon="10.90205"><ele>136.0</ele><time>2026-03-29T12:07:25.311Z</time></trkpt><trkpt lat="43.9602683" lon="10.9020367"><ele>134.5</ele><time>2026-03-29T12:07:26.309Z</time></trkpt><trkpt lat="43.960125" lon="10.9020167"><ele>133.0</ele><time>2026-03-29T12:07:27.309Z</time></trkpt><trkpt lat="43.9599833" lon="10.901995"><ele>132.0</ele><time>2026-03-29T12:07:28.308Z</time></trkpt><trkpt lat="43.9598483" lon="10.9019783"><ele>131.0</ele><time>2026-03-29T12:07:29.309Z</time></trkpt><trkpt lat="43.9597183" lon="10.9019633"><ele>130.0</ele><time>2026-03-29T12:07:30.307Z</time></trkpt><trkpt lat="43.95959" lon="10.90195"><ele>129.0</ele><time>2026-03-29T12:07:31.308Z</time></trkpt><trkpt lat="43.95946" lon="10.90194"><ele>129.0</ele><time>2026-03-29T12:07:32.31Z</time></trkpt><trkpt lat="43.9593283" lon="10.901925"><ele>129.0</ele><time>2026-03-29T12:07:33.308Z</time></trkpt><trkpt lat="43.9592" lon="10.9019117"><ele>129.0</ele><time>2026-03-29T12:07:34.31Z</time></trkpt><trkpt lat="43.9590767" lon="10.9018983"><ele>129.0</ele><time>2026-03-29T12:07:35.308Z</time></trkpt><trkpt lat="43.9589617" lon="10.9018883"><ele>127.0</ele><time>2026-03-29T12:07:36.308Z</time></trkpt><trkpt lat="43.9588517" lon="10.90188"><ele>125.0</ele><time>2026-03-29T12:07:37.308Z</time></trkpt><trkpt lat="43.9587433" lon="10.90187"><ele>123.0</ele><time>2026-03-29T12:07:38.31Z</time></trkpt><trkpt lat="43.9586317" lon="10.9018567"><ele>121.0</ele><time>2026-03-29T12:07:39.308Z</time></trkpt><trkpt lat="43.95852" lon="10.9018467"><ele>119.0</ele><time>2026-03-29T12:07:40.31Z</time></trkpt><trkpt lat="43.9584067" lon="10.9018367"><ele>118.4</ele><time>2026-03-29T12:07:41.309Z</time></trkpt><trkpt lat="43.9582967" lon="10.9018267"><ele>117.80000000000001</ele><time>2026-03-29T12:07:42.309Z</time></trkpt><trkpt lat="43.9582" lon="10.9018183"><ele>117.19999999999999</ele><time>2026-03-29T12:07:43.309Z</time></trkpt><trkpt lat="43.958105" lon="10.9018067"><ele>116.6</ele><time>2026-03-29T12:07:44.309Z</time></trkpt><trkpt lat="43.958015" lon="10.9017933"><ele>116.0</ele><time>2026-03-29T12:07:45.31Z</time></trkpt><trkpt lat="43.9579217" lon="10.9017783"><ele>115.99999999999999</ele><time>2026-03-29T12:07:46.309Z</time></trkpt><trkpt lat="43.957825" lon="10.901765"><ele>116.0</ele><time>2026-03-29T12:07:47.308Z</time></trkpt><trkpt lat="43.9577333" lon="10.9017517"><ele>116.0</ele><time>2026-03-29T12:07:48.309Z</time></trkpt><trkpt lat="43.957645" lon="10.9017417"><ele>116.0</ele><time>2026-03-29T12:07:49.31Z</time></trkpt><trkpt lat="43.95756" lon="10.9017333"><ele>115.99999999999999</ele><time>2026-03-29T12:07:50.31Z</time></trkpt><trkpt lat="43.9574783" lon="10.9017217"><ele>116.0</ele><time>2026-03-29T12:07:51.309Z</time></trkpt><trkpt lat="43.9573967" lon="10.9017133"><ele>116.19999999999999</ele><time>2026-03-29T12:07:52.307Z</time></trkpt><trkpt lat="43.9573083" lon="10.90171"><ele>116.39999999999999</ele><time>2026-03-29T12:07:53.31Z</time></trkpt><trkpt lat="43.9572183" lon="10.9017083"><ele>116.6</ele><time>2026-03-29T12:07:54.309Z</time></trkpt><trkpt lat="43.9571233" lon="10.9017017"><ele>116.8</ele><time>2026-03-29T12:07:55.308Z</time></trkpt><trkpt lat="43.95703" lon="10.90169"><ele>117.0</ele><time>2026-03-29T12:07:56.31Z</time></trkpt><trkpt lat="43.9569333" lon="10.9016817"><ele>117.0</ele><time>2026-03-29T12:07:57.309Z</time></trkpt><trkpt lat="43.95684" lon="10.9016817"><ele>116.99999999999999</ele><time>2026-03-29T12:07:58.309Z</time></trkpt><trkpt lat="43.9567367" lon="10.9016833"><ele>116.99999999999999</ele><time>2026-03-29T12:07:59.308Z</time></trkpt><trkpt lat="43.9566283" lon="10.9016733"><ele>117.0</ele><time>2026-03-29T12:08:00.309Z</time></trkpt><trkpt lat="43.95652" lon="10.901655"><ele>117.0</ele><time>2026-03-29T12:08:01.309Z</time></trkpt><trkpt lat="43.9564117" lon="10.9016367"><ele>116.25</ele><time>2026-03-29T12:08:02.311Z</time></trkpt><trkpt lat="43.9562983" lon="10.9016167"><ele>115.5</ele><time>2026-03-29T12:08:03.308Z</time></trkpt><trkpt lat="43.9561817" lon="10.9016033"><ele>114.75</ele><time>2026-03-29T12:08:04.308Z</time></trkpt><trkpt lat="43.9560633" lon="10.90159"><ele>114.0</ele><time>2026-03-29T12:08:05.309Z</time></trkpt><trkpt lat="43.955945" lon="10.90158"><ele>112.0</ele><time>2026-03-29T12:08:06.308Z</time></trkpt><trkpt lat="43.955825" lon="10.90157"><ele>110.0</ele><time>2026-03-29T12:08:07.307Z</time></trkpt><trkpt lat="43.95571" lon="10.9015617"><ele>108.0</ele><time>2026-03-29T12:08:08.309Z</time></trkpt><trkpt lat="43.9556" lon="10.901555"><ele>106.0</ele><time>2026-03-29T12:08:09.308Z</time></trkpt><trkpt lat="43.955495" lon="10.9015433"><ele>106.0</ele><time>2026-03-29T12:08:10.309Z</time></trkpt><trkpt lat="43.95539" lon="10.9015283"><ele>106.0</ele><time>2026-03-29T12:08:11.31Z</time></trkpt><trkpt lat="43.9552867" lon="10.9015133"><ele>106.0</ele><time>2026-03-29T12:08:12.309Z</time></trkpt><trkpt lat="43.9551883" lon="10.9015017"><ele>106.0</ele><time>2026-03-29T12:08:13.31Z</time></trkpt><trkpt lat="43.9550933" lon="10.9014883"><ele>106.0</ele><time>2026-03-29T12:08:14.311Z</time></trkpt><trkpt lat="43.955" lon="10.9014783"><ele>105.83333333333334</ele><time>2026-03-29T12:08:15.309Z</time></trkpt><trkpt lat="43.9549133" lon="10.90147"><ele>105.66666666666667</ele><time>2026-03-29T12:08:16.31Z</time></trkpt><trkpt lat="43.95483" lon="10.9014617"><ele>105.5</ele><time>2026-03-29T12:08:17.309Z</time></trkpt><trkpt lat="43.9547533" lon="10.9014583"><ele>105.33333333333334</ele><time>2026-03-29T12:08:18.309Z</time></trkpt><trkpt lat="43.9546783" lon="10.9014517"><ele>105.16666666666667</ele><time>2026-03-29T12:08:19.309Z</time></trkpt><trkpt lat="43.95461" lon="10.9014417"><ele>105.0</ele><time>2026-03-29T12:08:20.309Z</time></trkpt><trkpt lat="43.9545483" lon="10.9014233"><ele>105.0</ele><time>2026-03-29T12:08:21.308Z</time></trkpt><trkpt lat="43.9544367" lon="10.9013867"><ele>105.0</ele><time>2026-03-29T12:08:23.308Z</time></trkpt><trkpt lat="43.9543383" lon="10.90137"><ele>105.0</ele><time>2026-03-29T12:08:25.308Z</time></trkpt><trkpt lat="43.954255" lon="10.901385"><ele>105.0</ele><time>2026-03-29T12:08:27.308Z</time></trkpt><trkpt lat="43.95419" lon="10.901445"><ele>105.0</ele><time>2026-03-29T12:08:29.31Z</time></trkpt><trkpt lat="43.9541117" lon="10.9015117"><ele>104.66666666666667</ele><time>2026-03-29T12:08:31.31Z</time></trkpt><trkpt lat="43.9540333" lon="10.9015567"><ele>104.33333333333334</ele><time>2026-03-29T12:08:33.311Z</time></trkpt><trkpt lat="43.9539617" lon="10.9015917"><ele>104.0</ele><time>2026-03-29T12:08:35.31Z</time></trkpt><trkpt lat="43.9538767" lon="10.9016417"><ele>103.66666666666667</ele><time>2026-03-29T12:08:37.308Z</time></trkpt><trkpt lat="43.9537867" lon="10.9016917"><ele>103.33333333333334</ele><time>2026-03-29T12:08:39.309Z</time></trkpt><trkpt lat="43.953695" lon="10.901745"><ele>103.0</ele><time>2026-03-29T12:08:41.309Z</time></trkpt><trkpt lat="43.95359" lon="10.9018"><ele>102.99999999999999</ele><time>2026-03-29T12:08:43.309Z</time></trkpt><trkpt lat="43.95348" lon="10.9018633"><ele>103.0</ele><time>2026-03-29T12:08:45.307Z</time></trkpt><trkpt lat="43.9534217" lon="10.9018967"><ele>103.0</ele><time>2026-03-29T12:08:46.31Z</time></trkpt><trkpt lat="43.9533617" lon="10.9019317"><ele>103.0</ele><time>2026-03-29T12:08:47.31Z</time></trkpt><trkpt lat="43.9533" lon="10.901965"><ele>103.0</ele><time>2026-03-29T12:08:48.31Z</time></trkpt><trkpt lat="43.9532417" lon="10.902"><ele>102.99999999999999</ele><time>2026-03-29T12:08:49.31Z</time></trkpt><trkpt lat="43.95318" lon="10.9020333"><ele>103.0</ele><time>2026-03-29T12:08:50.311Z</time></trkpt><trkpt lat="43.95312" lon="10.9020683"><ele>103.16666666666667</ele><time>2026-03-29T12:08:51.308Z</time></trkpt><trkpt lat="43.9530583" lon="10.9021033"><ele>103.33333333333334</ele><time>2026-03-29T12:08:52.309Z</time></trkpt><trkpt lat="43.9529967" lon="10.9021367"><ele>103.5</ele><time>2026-03-29T12:08:53.31Z</time></trkpt><trkpt lat="43.9529367" lon="10.90217"><ele>103.66666666666666</ele><time>2026-03-29T12:08:54.31Z</time></trkpt><trkpt lat="43.952875" lon="10.9022033"><ele>103.83333333333333</ele><time>2026-03-29T12:08:55.311Z</time></trkpt><trkpt lat="43.9527583" lon="10.9022717"><ele>104.0</ele><time>2026-03-29T12:08:57.31Z</time></trkpt><trkpt lat="43.9526983" lon="10.902305"><ele>104.0</ele><time>2026-03-29T12:08:58.309Z</time></trkpt><trkpt lat="43.952635" lon="10.9023383"><ele>104.0</ele><time>2026-03-29T12:08:59.309Z</time></trkpt><trkpt lat="43.9525667" lon="10.9023733"><ele>104.0</ele><time>2026-03-29T12:09:00.309Z</time></trkpt><trkpt lat="43.9524983" lon="10.90241"><ele>104.0</ele><time>2026-03-29T12:09:01.309Z</time></trkpt><trkpt lat="43.9524283" lon="10.90245"><ele>104.0</ele><time>2026-03-29T12:09:02.309Z</time></trkpt><trkpt lat="43.952355" lon="10.90249"><ele>104.0</ele><time>2026-03-29T12:09:03.308Z</time></trkpt><trkpt lat="43.95228" lon="10.9025333"><ele>104.0</ele><time>2026-03-29T12:09:04.309Z</time></trkpt><trkpt lat="43.952205" lon="10.902575"><ele>103.83333333333333</ele><time>2026-03-29T12:09:05.31Z</time></trkpt><trkpt lat="43.9521317" lon="10.9026167"><ele>103.66666666666666</ele><time>2026-03-29T12:09:06.312Z</time></trkpt><trkpt lat="43.9520567" lon="10.90266"><ele>103.5</ele><time>2026-03-29T12:09:07.31Z</time></trkpt><trkpt lat="43.9519783" lon="10.9027017"><ele>103.33333333333334</ele><time>2026-03-29T12:09:08.31Z</time></trkpt><trkpt lat="43.9519017" lon="10.9027417"><ele>103.16666666666667</ele><time>2026-03-29T12:09:09.309Z</time></trkpt><trkpt lat="43.9518267" lon="10.9027833"><ele>103.0</ele><time>2026-03-29T12:09:10.309Z</time></trkpt><trkpt lat="43.95175" lon="10.9028267"><ele>102.60000000000001</ele><time>2026-03-29T12:09:11.307Z</time></trkpt><trkpt lat="43.95167" lon="10.9028717"><ele>102.2</ele><time>2026-03-29T12:09:12.309Z</time></trkpt><trkpt lat="43.95159" lon="10.90292"><ele>101.8</ele><time>2026-03-29T12:09:13.31Z</time></trkpt><trkpt lat="43.951505" lon="10.9029683"><ele>101.4</ele><time>2026-03-29T12:09:14.309Z</time></trkpt><trkpt lat="43.9514183" lon="10.9030167"><ele>101.0</ele><time>2026-03-29T12:09:15.309Z</time></trkpt><trkpt lat="43.951335" lon="10.9030667"><ele>101.0</ele><time>2026-03-29T12:09:16.309Z</time></trkpt><trkpt lat="43.9512533" lon="10.9031167"><ele>101.0</ele><time>2026-03-29T12:09:17.311Z</time></trkpt><trkpt lat="43.9511717" lon="10.9031667"><ele>101.0</ele><time>2026-03-29T12:09:18.31Z</time></trkpt><trkpt lat="43.9510883" lon="10.9032183"><ele>101.0</ele><time>2026-03-29T12:09:19.309Z</time></trkpt><trkpt lat="43.951" lon="10.90327"><ele>101.0</ele><time>2026-03-29T12:09:20.309Z</time></trkpt><trkpt lat="43.9509133" lon="10.9033167"><ele>100.8</ele><time>2026-03-29T12:09:21.308Z</time></trkpt><trkpt lat="43.950825" lon="10.9033633"><ele>100.6</ele><time>2026-03-29T12:09:22.308Z</time></trkpt><trkpt lat="43.9507367" lon="10.9034133"><ele>100.4</ele><time>2026-03-29T12:09:23.309Z</time></trkpt><trkpt lat="43.9506533" lon="10.90346"><ele>100.2</ele><time>2026-03-29T12:09:24.309Z</time></trkpt><trkpt lat="43.95057" lon="10.90351"><ele>100.0</ele><time>2026-03-29T12:09:25.31Z</time></trkpt><trkpt lat="43.9504917" lon="10.903555"><ele>100.00000000000001</ele><time>2026-03-29T12:09:26.311Z</time></trkpt><trkpt lat="43.9504117" lon="10.9035983"><ele>100.0</ele><time>2026-03-29T12:09:27.31Z</time></trkpt><trkpt lat="43.9503317" lon="10.9036417"><ele>100.0</ele><time>2026-03-29T12:09:28.31Z</time></trkpt><trkpt lat="43.9502467" lon="10.9036833"><ele>100.0</ele><time>2026-03-29T12:09:29.31Z</time></trkpt><trkpt lat="43.950165" lon="10.9037233"><ele>100.00000000000001</ele><time>2026-03-29T12:09:30.311Z</time></trkpt><trkpt lat="43.9500817" lon="10.9037717"><ele>100.0</ele><time>2026-03-29T12:09:31.309Z</time></trkpt><trkpt lat="43.9499983" lon="10.9038183"><ele>99.83333333333334</ele><time>2026-03-29T12:09:32.309Z</time></trkpt><trkpt lat="43.9499133" lon="10.9038667"><ele>99.66666666666667</ele><time>2026-03-29T12:09:33.31Z</time></trkpt><trkpt lat="43.9498283" lon="10.9039117"><ele>99.5</ele><time>2026-03-29T12:09:34.309Z</time></trkpt><trkpt lat="43.9497467" lon="10.9039567"><ele>99.33333333333334</ele><time>2026-03-29T12:09:35.309Z</time></trkpt><trkpt lat="43.949665" lon="10.9040033"><ele>99.16666666666667</ele><time>2026-03-29T12:09:36.309Z</time></trkpt><trkpt lat="43.949585" lon="10.904045"><ele>99.0</ele><time>2026-03-29T12:09:37.308Z</time></trkpt><trkpt lat="43.949505" lon="10.9040883"><ele>99.0</ele><time>2026-03-29T12:09:38.31Z</time></trkpt><trkpt lat="43.9494217" lon="10.9041333"><ele>99.0</ele><time>2026-03-29T12:09:39.308Z</time></trkpt><trkpt lat="43.94934" lon="10.90418"><ele>99.0</ele><time>2026-03-29T12:09:40.309Z</time></trkpt><trkpt lat="43.9492567" lon="10.9042233"><ele>99.0</ele><time>2026-03-29T12:09:41.309Z</time></trkpt><trkpt lat="43.9491717" lon="10.9042683"><ele>99.0</ele><time>2026-03-29T12:09:42.309Z</time></trkpt><trkpt lat="43.9490883" lon="10.90431"><ele>99.0</ele><time>2026-03-29T12:09:43.307Z</time></trkpt><trkpt lat="43.9490067" lon="10.904355"><ele>98.83333333333333</ele><time>2026-03-29T12:09:44.31Z</time></trkpt><trkpt lat="43.948925" lon="10.9043983"><ele>98.66666666666666</ele><time>2026-03-29T12:09:45.308Z</time></trkpt><trkpt lat="43.948845" lon="10.9044433"><ele>98.5</ele><time>2026-03-29T12:09:46.308Z</time></trkpt><trkpt lat="43.948765" lon="10.9044883"><ele>98.33333333333333</ele><time>2026-03-29T12:09:47.308Z</time></trkpt><trkpt lat="43.9486833" lon="10.9045333"><ele>98.16666666666666</ele><time>2026-03-29T12:09:48.31Z</time></trkpt><trkpt lat="43.9486033" lon="10.9045783"><ele>98.0</ele><time>2026-03-29T12:09:49.311Z</time></trkpt><trkpt lat="43.9485217" lon="10.904625"><ele>97.99999999999999</ele><time>2026-03-29T12:09:50.311Z</time></trkpt><trkpt lat="43.94844" lon="10.90467"><ele>98.0</ele><time>2026-03-29T12:09:51.309Z</time></trkpt><trkpt lat="43.9483567" lon="10.904715"><ele>98.0</ele><time>2026-03-29T12:09:52.309Z</time></trkpt><trkpt lat="43.9482733" lon="10.90476"><ele>98.0</ele><time>2026-03-29T12:09:53.309Z</time></trkpt><trkpt lat="43.9481917" lon="10.904805"><ele>97.99999999999999</ele><time>2026-03-29T12:09:54.309Z</time></trkpt><trkpt lat="43.948115" lon="10.9048467"><ele>98.0</ele><time>2026-03-29T12:09:55.31Z</time></trkpt><trkpt lat="43.94804" lon="10.9048883"><ele>97.66666666666666</ele><time>2026-03-29T12:09:56.31Z</time></trkpt><trkpt lat="43.9479633" lon="10.90493"><ele>97.33333333333333</ele><time>2026-03-29T12:09:57.309Z</time></trkpt><trkpt lat="43.9478883" lon="10.9049717"><ele>97.0</ele><time>2026-03-29T12:09:58.309Z</time></trkpt><trkpt lat="43.9478133" lon="10.905015"><ele>96.66666666666666</ele><time>2026-03-29T12:09:59.31Z</time></trkpt><trkpt lat="43.9477383" lon="10.9050567"><ele>96.33333333333333</ele><time>2026-03-29T12:10:00.31Z</time></trkpt><trkpt lat="43.9476633" lon="10.9051033"><ele>96.0</ele><time>2026-03-29T12:10:01.311Z</time></trkpt><trkpt lat="43.947585" lon="10.9051483"><ele>95.66666666666667</ele><time>2026-03-29T12:10:02.31Z</time></trkpt><trkpt lat="43.9475067" lon="10.905195"><ele>95.33333333333333</ele><time>2026-03-29T12:10:03.31Z</time></trkpt><trkpt lat="43.9474283" lon="10.9052433"><ele>95.0</ele><time>2026-03-29T12:10:04.308Z</time></trkpt><trkpt lat="43.94735" lon="10.90529"><ele>94.66666666666666</ele><time>2026-03-29T12:10:05.31Z</time></trkpt><trkpt lat="43.9472683" lon="10.9053317"><ele>94.33333333333333</ele><time>2026-03-29T12:10:06.311Z</time></trkpt><trkpt lat="43.9471867" lon="10.905375"><ele>94.0</ele><time>2026-03-29T12:10:07.31Z</time></trkpt><trkpt lat="43.9471067" lon="10.90542"><ele>94.0</ele><time>2026-03-29T12:10:08.312Z</time></trkpt><trkpt lat="43.9470267" lon="10.9054667"><ele>94.0</ele><time>2026-03-29T12:10:09.309Z</time></trkpt><trkpt lat="43.946945" lon="10.9055117"><ele>94.0</ele><time>2026-03-29T12:10:10.31Z</time></trkpt><trkpt lat="43.9468633" lon="10.905555"><ele>94.0</ele><time>2026-03-29T12:10:11.31Z</time></trkpt><trkpt lat="43.9467817" lon="10.9056017"><ele>94.0</ele><time>2026-03-29T12:10:12.31Z</time></trkpt><trkpt lat="43.9467" lon="10.9056483"><ele>94.0</ele><time>2026-03-29T12:10:13.31Z</time></trkpt><trkpt lat="43.9466183" lon="10.9056967"><ele>93.80000000000001</ele><time>2026-03-29T12:10:14.311Z</time></trkpt><trkpt lat="43.9465367" lon="10.905745"><ele>93.60000000000001</ele><time>2026-03-29T12:10:15.309Z</time></trkpt><trkpt lat="43.9464517" lon="10.9057933"><ele>93.4</ele><time>2026-03-29T12:10:16.31Z</time></trkpt><trkpt lat="43.9463667" lon="10.9058417"><ele>93.2</ele><time>2026-03-29T12:10:17.309Z</time></trkpt><trkpt lat="43.9462833" lon="10.9058917"><ele>93.0</ele><time>2026-03-29T12:10:18.311Z</time></trkpt><trkpt lat="43.9462017" lon="10.9059383"><ele>92.66666666666667</ele><time>2026-03-29T12:10:19.309Z</time></trkpt><trkpt lat="43.946125" lon="10.9059833"><ele>92.33333333333333</ele><time>2026-03-29T12:10:20.308Z</time></trkpt><trkpt lat="43.9460483" lon="10.9060267"><ele>92.0</ele><time>2026-03-29T12:10:21.308Z</time></trkpt><trkpt lat="43.94597" lon="10.9060717"><ele>91.66666666666666</ele><time>2026-03-29T12:10:22.308Z</time></trkpt><trkpt lat="43.94589" lon="10.9061167"><ele>91.33333333333333</ele><time>2026-03-29T12:10:23.31Z</time></trkpt><trkpt lat="43.9458117" lon="10.9061617"><ele>91.0</ele><time>2026-03-29T12:10:24.311Z</time></trkpt><trkpt lat="43.9457333" lon="10.9062067"><ele>91.0</ele><time>2026-03-29T12:10:25.309Z</time></trkpt><trkpt lat="43.945655" lon="10.90625"><ele>91.0</ele><time>2026-03-29T12:10:26.31Z</time></trkpt><trkpt lat="43.9455783" lon="10.9062933"><ele>91.0</ele><time>2026-03-29T12:10:27.31Z</time></trkpt><trkpt lat="43.9455017" lon="10.9063383"><ele>91.0</ele><time>2026-03-29T12:10:28.308Z</time></trkpt><trkpt lat="43.94543" lon="10.906385"><ele>91.0</ele><time>2026-03-29T12:10:29.31Z</time></trkpt><trkpt lat="43.9453567" lon="10.90643"><ele>91.0</ele><time>2026-03-29T12:10:30.308Z</time></trkpt><trkpt lat="43.9452867" lon="10.906465"><ele>91.0</ele><time>2026-03-29T12:10:31.309Z</time></trkpt><trkpt lat="43.9452117" lon="10.9064817"><ele>91.0</ele><time>2026-03-29T12:10:32.31Z</time></trkpt><trkpt lat="43.9451417" lon="10.906465"><ele>91.0</ele><time>2026-03-29T12:10:33.309Z</time></trkpt><trkpt lat="43.9450783" lon="10.9064217"><ele>91.0</ele><time>2026-03-29T12:10:34.31Z</time></trkpt><trkpt lat="43.94502" lon="10.9063783"><ele>91.0</ele><time>2026-03-29T12:10:35.309Z</time></trkpt><trkpt lat="43.9449217" lon="10.9063783"><ele>91.0</ele><time>2026-03-29T12:10:37.309Z</time></trkpt><trkpt lat="43.9449217" lon="10.906495"><ele>91.0</ele><time>2026-03-29T12:10:39.31Z</time></trkpt><trkpt lat="43.944975" lon="10.9066083"><ele>91.0</ele><time>2026-03-29T12:10:41.31Z</time></trkpt><trkpt lat="43.94505" lon="10.906735"><ele>91.0</ele><time>2026-03-29T12:10:43.311Z</time></trkpt><trkpt lat="43.94512" lon="10.9068733"><ele>91.0</ele><time>2026-03-29T12:10:45.308Z</time></trkpt><trkpt lat="43.9451717" lon="10.90702"><ele>90.5</ele><time>2026-03-29T12:10:47.309Z</time></trkpt><trkpt lat="43.9452117" lon="10.907165"><ele>90.0</ele><time>2026-03-29T12:10:49.31Z</time></trkpt><trkpt lat="43.945255" lon="10.90731"><ele>89.5</ele><time>2026-03-29T12:10:51.311Z</time></trkpt><trkpt lat="43.9453" lon="10.90747"><ele>89.0</ele><time>2026-03-29T12:10:53.31Z</time></trkpt><trkpt lat="43.945335" lon="10.9076367"><ele>88.66666666666667</ele><time>2026-03-29T12:10:55.309Z</time></trkpt><trkpt lat="43.9453483" lon="10.9077267"><ele>88.33333333333334</ele><time>2026-03-29T12:10:56.309Z</time></trkpt><trkpt lat="43.9453583" lon="10.907825"><ele>88.0</ele><time>2026-03-29T12:10:57.309Z</time></trkpt><trkpt lat="43.945365" lon="10.90793"><ele>87.66666666666667</ele><time>2026-03-29T12:10:58.31Z</time></trkpt><trkpt lat="43.945365" lon="10.9080383"><ele>87.33333333333333</ele><time>2026-03-29T12:10:59.311Z</time></trkpt><trkpt lat="43.9453567" lon="10.90815"><ele>87.0</ele><time>2026-03-29T12:11:00.31Z</time></trkpt><trkpt lat="43.945335" lon="10.908265"><ele>87.0</ele><time>2026-03-29T12:11:01.31Z</time></trkpt><trkpt lat="43.9453" lon="10.9083817"><ele>87.0</ele><time>2026-03-29T12:11:02.311Z</time></trkpt><trkpt lat="43.9452567" lon="10.9084983"><ele>87.0</ele><time>2026-03-29T12:11:03.31Z</time></trkpt><trkpt lat="43.94521" lon="10.9086183"><ele>87.0</ele><time>2026-03-29T12:11:04.31Z</time></trkpt><trkpt lat="43.945155" lon="10.9087433"><ele>87.0</ele><time>2026-03-29T12:11:05.311Z</time></trkpt><trkpt lat="43.9451033" lon="10.90887"><ele>85.8</ele><time>2026-03-29T12:11:06.309Z</time></trkpt><trkpt lat="43.9450433" lon="10.9090017"><ele>84.6</ele><time>2026-03-29T12:11:07.308Z</time></trkpt><trkpt lat="43.9449917" lon="10.90913"><ele>83.39999999999999</ele><time>2026-03-29T12:11:08.31Z</time></trkpt><trkpt lat="43.9449417" lon="10.909255"><ele>82.19999999999999</ele><time>2026-03-29T12:11:09.311Z</time></trkpt><trkpt lat="43.944885" lon="10.90938"><ele>81.0</ele><time>2026-03-29T12:11:10.31Z</time></trkpt><trkpt lat="43.9448283" lon="10.909505"><ele>80.2</ele><time>2026-03-29T12:11:11.307Z</time></trkpt><trkpt lat="43.9447717" lon="10.909625"><ele>79.39999999999999</ele><time>2026-03-29T12:11:12.312Z</time></trkpt><trkpt lat="43.9447133" lon="10.9097467"><ele>78.6</ele><time>2026-03-29T12:11:13.31Z</time></trkpt><trkpt lat="43.9446567" lon="10.9098667"><ele>77.8</ele><time>2026-03-29T12:11:14.31Z</time></trkpt><trkpt lat="43.9446017" lon="10.9099883"><ele>77.0</ele><time>2026-03-29T12:11:15.309Z</time></trkpt><trkpt lat="43.944545" lon="10.9101067"><ele>76.6</ele><time>2026-03-29T12:11:16.31Z</time></trkpt><trkpt lat="43.9445017" lon="10.9102183"><ele>76.2</ele><time>2026-03-29T12:11:17.309Z</time></trkpt><trkpt lat="43.9444517" lon="10.9103333"><ele>75.8</ele><time>2026-03-29T12:11:18.31Z</time></trkpt><trkpt lat="43.9444033" lon="10.910445"><ele>75.4</ele><time>2026-03-29T12:11:19.309Z</time></trkpt><trkpt lat="43.9443583" lon="10.9105533"><ele>75.0</ele><time>2026-03-29T12:11:20.31Z</time></trkpt><trkpt lat="43.9443133" lon="10.91066"><ele>75.0</ele><time>2026-03-29T12:11:21.31Z</time></trkpt><trkpt lat="43.9442667" lon="10.910765"><ele>75.0</ele><time>2026-03-29T12:11:22.31Z</time></trkpt><trkpt lat="43.9442217" lon="10.9108667"><ele>75.0</ele><time>2026-03-29T12:11:23.31Z</time></trkpt><trkpt lat="43.9441717" lon="10.9109633"><ele>75.0</ele><time>2026-03-29T12:11:24.308Z</time></trkpt><trkpt lat="43.9441233" lon="10.911055"><ele>75.0</ele><time>2026-03-29T12:11:25.31Z</time></trkpt><trkpt lat="43.9440833" lon="10.9111533"><ele>75.0</ele><time>2026-03-29T12:11:26.308Z</time></trkpt><trkpt lat="43.944055" lon="10.9112583"><ele>74.83333333333333</ele><time>2026-03-29T12:11:27.307Z</time></trkpt><trkpt lat="43.9440417" lon="10.9113683"><ele>74.66666666666667</ele><time>2026-03-29T12:11:28.312Z</time></trkpt><trkpt lat="43.94404" lon="10.9114783"><ele>74.5</ele><time>2026-03-29T12:11:29.31Z</time></trkpt><trkpt lat="43.94404" lon="10.911585"><ele>74.33333333333334</ele><time>2026-03-29T12:11:30.309Z</time></trkpt><trkpt lat="43.9440417" lon="10.9116933"><ele>74.16666666666667</ele><time>2026-03-29T12:11:31.311Z</time></trkpt><trkpt lat="43.9440433" lon="10.9118067"><ele>74.0</ele><time>2026-03-29T12:11:32.31Z</time></trkpt><trkpt lat="43.944045" lon="10.91192"><ele>73.83333333333334</ele><time>2026-03-29T12:11:33.31Z</time></trkpt><trkpt lat="43.9440467" lon="10.9120317"><ele>73.66666666666667</ele><time>2026-03-29T12:11:34.308Z</time></trkpt><trkpt lat="43.9440433" lon="10.9121417"><ele>73.5</ele><time>2026-03-29T12:11:35.31Z</time></trkpt><trkpt lat="43.9440433" lon="10.9122483"><ele>73.33333333333333</ele><time>2026-03-29T12:11:36.311Z</time></trkpt><trkpt lat="43.9440417" lon="10.9123517"><ele>73.16666666666666</ele><time>2026-03-29T12:11:37.311Z</time></trkpt><trkpt lat="43.94404" lon="10.9124533"><ele>73.0</ele><time>2026-03-29T12:11:38.311Z</time></trkpt><trkpt lat="43.9440367" lon="10.9125517"><ele>73.0</ele><time>2026-03-29T12:11:39.31Z</time></trkpt><trkpt lat="43.944035" lon="10.912645"><ele>73.0</ele><time>2026-03-29T12:11:40.31Z</time></trkpt><trkpt lat="43.944035" lon="10.912735"><ele>73.0</ele><time>2026-03-29T12:11:41.309Z</time></trkpt><trkpt lat="43.9440317" lon="10.9129033"><ele>73.0</ele><time>2026-03-29T12:11:43.312Z</time></trkpt><trkpt lat="43.9440267" lon="10.91307"><ele>73.0</ele><time>2026-03-29T12:11:45.308Z</time></trkpt><trkpt lat="43.944025" lon="10.9132283"><ele>73.0</ele><time>2026-03-29T12:11:47.31Z</time></trkpt><trkpt lat="43.94402" lon="10.91339"><ele>73.0</ele><time>2026-03-29T12:11:49.309Z</time></trkpt><trkpt lat="43.9440167" lon="10.9135483"><ele>73.0</ele><time>2026-03-29T12:11:51.311Z</time></trkpt><trkpt lat="43.94401" lon="10.9137"><ele>73.0</ele><time>2026-03-29T12:11:53.309Z</time></trkpt><trkpt lat="43.9440067" lon="10.913855"><ele>73.0</ele><time>2026-03-29T12:11:55.31Z</time></trkpt><trkpt lat="43.9439967" lon="10.9140133"><ele>73.0</ele><time>2026-03-29T12:11:57.309Z</time></trkpt><trkpt lat="43.9439833" lon="10.91417"><ele>73.0</ele><time>2026-03-29T12:11:59.313Z</time></trkpt><trkpt lat="43.9439667" lon="10.9143283"><ele>73.0</ele><time>2026-03-29T12:12:01.311Z</time></trkpt><trkpt lat="43.9439383" lon="10.91448"><ele>73.0</ele><time>2026-03-29T12:12:03.313Z</time></trkpt><trkpt lat="43.9439" lon="10.9146367"><ele>73.0</ele><time>2026-03-29T12:12:05.311Z</time></trkpt><trkpt lat="43.9438617" lon="10.91479"><ele>73.0</ele><time>2026-03-29T12:12:07.311Z</time></trkpt><trkpt lat="43.94382" lon="10.91494"><ele>73.0</ele><time>2026-03-29T12:12:09.309Z</time></trkpt><trkpt lat="43.94378" lon="10.9150867"><ele>73.0</ele><time>2026-03-29T12:12:11.31Z</time></trkpt><trkpt lat="43.9437433" lon="10.9152317"><ele>73.0</ele><time>2026-03-29T12:12:13.309Z</time></trkpt><trkpt lat="43.9437083" lon="10.9153683"><ele>73.0</ele><time>2026-03-29T12:12:15.308Z</time></trkpt><trkpt lat="43.94367" lon="10.9154883"><ele>73.0</ele><time>2026-03-29T12:12:17.307Z</time></trkpt><trkpt lat="43.9436367" lon="10.9155983"><ele>73.0</ele><time>2026-03-29T12:12:19.31Z</time></trkpt><trkpt lat="43.9436033" lon="10.9157033"><ele>73.0</ele><time>2026-03-29T12:12:21.308Z</time></trkpt><trkpt lat="43.9435617" lon="10.9157933"><ele>73.0</ele><time>2026-03-29T12:12:23.308Z</time></trkpt><trkpt lat="43.943495" lon="10.9158617"><ele>73.0</ele><time>2026-03-29T12:12:25.308Z</time></trkpt><trkpt lat="43.94341" lon="10.9159017"><ele>73.0</ele><time>2026-03-29T12:12:27.309Z</time></trkpt><trkpt lat="43.94331" lon="10.9159217"><ele>73.0</ele><time>2026-03-29T12:12:29.309Z</time></trkpt><trkpt lat="43.9432283" lon="10.91589"><ele>73.0</ele><time>2026-03-29T12:12:31.31Z</time></trkpt><trkpt lat="43.9431917" lon="10.915815"><ele>73.0</ele><time>2026-03-29T12:12:33.308Z</time></trkpt><trkpt lat="43.9431933" lon="10.9157267"><ele>73.0</ele><time>2026-03-29T12:12:35.31Z</time></trkpt><trkpt lat="43.943205" lon="10.9156083"><ele>73.0</ele><time>2026-03-29T12:12:38.309Z</time></trkpt><trkpt lat="43.9431883" lon="10.9155117"><ele>73.0</ele><time>2026-03-29T12:12:41.307Z</time></trkpt><trkpt lat="43.9431583" lon="10.9154267"><ele>73.0</ele><time>2026-03-29T12:12:44.308Z</time></trkpt><trkpt lat="43.943155" lon="10.9153233"><ele>73.0</ele><time>2026-03-29T12:12:48.31Z</time></trkpt><trkpt lat="43.943125" lon="10.9151933"><ele>73.0</ele><time>2026-03-29T12:17:12.309Z</time></trkpt></trkseg></trk></gpx>